<?xml version="1.0" encoding="UTF-8" standalone="no" ?>
<gpx xmlns="http://www.topografix.com/GPX/1/1" xmlns:xsi="http://www.w3.org/2001/XMLSchema-instance" xsi:schemaLocation="http://www.topografix.com/GPX/1/1 http://www.topografix.com/GPX/1/1/gpx.xsd" version="1.1" creator="VisuGPX - https://www.visugpx.com">
  <metadata>
    <name>Champagnat Cyclisme</name>
  </metadata>
  <trk>
    <name><![CDATA[Champagnat Cyclisme]]></name>
    <trkseg>
      <trkpt lat="46.48275" lon="5.36841">
        <ele>264</ele>
        <time>2021-03-12T11:58:37.000Z</time>
      </trkpt>
      <trkpt lat="46.48256" lon="5.36819">
        <ele>262.79998779297</ele>
        <time>2021-03-12T11:58:39.000Z</time>
      </trkpt>
      <trkpt lat="46.48235" lon="5.368">
        <ele>261.20001220703</ele>
        <time>2021-03-12T11:58:41.000Z</time>
      </trkpt>
      <trkpt lat="46.48214" lon="5.36784">
        <ele>259.20001220703</ele>
        <time>2021-03-12T11:58:43.000Z</time>
      </trkpt>
      <trkpt lat="46.48204" lon="5.36775">
        <ele>258</ele>
        <time>2021-03-12T11:58:44.000Z</time>
      </trkpt>
      <trkpt lat="46.48194" lon="5.36767">
        <ele>256.79998779297</ele>
        <time>2021-03-12T11:58:45.000Z</time>
      </trkpt>
      <trkpt lat="46.48183" lon="5.36758">
        <ele>255.80000305176</ele>
        <time>2021-03-12T11:58:46.000Z</time>
      </trkpt>
      <trkpt lat="46.48163" lon="5.36742">
        <ele>254</ele>
        <time>2021-03-12T11:58:48.000Z</time>
      </trkpt>
      <trkpt lat="46.48144" lon="5.36727">
        <ele>252.19999694824</ele>
        <time>2021-03-12T11:58:50.000Z</time>
      </trkpt>
      <trkpt lat="46.48135" lon="5.3672">
        <ele>251.39999389648</ele>
        <time>2021-03-12T11:58:51.000Z</time>
      </trkpt>
      <trkpt lat="46.48127" lon="5.36714">
        <ele>250.80000305176</ele>
        <time>2021-03-12T11:58:52.000Z</time>
      </trkpt>
      <trkpt lat="46.48114" lon="5.36703">
        <ele>249.60000610352</ele>
        <time>2021-03-12T11:58:54.000Z</time>
      </trkpt>
      <trkpt lat="46.48109" lon="5.36689">
        <ele>248.19999694824</ele>
        <time>2021-03-12T11:58:56.000Z</time>
      </trkpt>
      <trkpt lat="46.48114" lon="5.36674">
        <ele>247.60000610352</ele>
        <time>2021-03-12T11:58:58.000Z</time>
      </trkpt>
      <trkpt lat="46.48119" lon="5.36669">
        <ele>247.19999694824</ele>
        <time>2021-03-12T11:58:59.000Z</time>
      </trkpt>
      <trkpt lat="46.48125" lon="5.36663">
        <ele>247</ele>
        <time>2021-03-12T11:59:00.000Z</time>
      </trkpt>
      <trkpt lat="46.48138" lon="5.36649">
        <ele>246.80000305176</ele>
        <time>2021-03-12T11:59:02.000Z</time>
      </trkpt>
      <trkpt lat="46.48144" lon="5.36642">
        <ele>246.60000610352</ele>
        <time>2021-03-12T11:59:03.000Z</time>
      </trkpt>
      <trkpt lat="46.48152" lon="5.36635">
        <ele>246.39999389648</ele>
        <time>2021-03-12T11:59:04.000Z</time>
      </trkpt>
      <trkpt lat="46.48165" lon="5.36621">
        <ele>246.19999694824</ele>
        <time>2021-03-12T11:59:06.000Z</time>
      </trkpt>
      <trkpt lat="46.48173" lon="5.36615">
        <ele>246</ele>
        <time>2021-03-12T11:59:07.000Z</time>
      </trkpt>
      <trkpt lat="46.48182" lon="5.36611">
        <ele>246</ele>
        <time>2021-03-12T11:59:08.000Z</time>
      </trkpt>
      <trkpt lat="46.48199" lon="5.36606">
        <ele>245.60000610352</ele>
        <time>2021-03-12T11:59:10.000Z</time>
      </trkpt>
      <trkpt lat="46.48207" lon="5.36603">
        <ele>245.60000610352</ele>
        <time>2021-03-12T11:59:11.000Z</time>
      </trkpt>
      <trkpt lat="46.48214" lon="5.36596">
        <ele>245.39999389648</ele>
        <time>2021-03-12T11:59:12.000Z</time>
      </trkpt>
      <trkpt lat="46.48218" lon="5.36586">
        <ele>245.39999389648</ele>
        <time>2021-03-12T11:59:13.000Z</time>
      </trkpt>
      <trkpt lat="46.48221" lon="5.36576">
        <ele>245.19999694824</ele>
        <time>2021-03-12T11:59:14.000Z</time>
      </trkpt>
      <trkpt lat="46.48225" lon="5.36566">
        <ele>245</ele>
        <time>2021-03-12T11:59:15.000Z</time>
      </trkpt>
      <trkpt lat="46.4823" lon="5.36557">
        <ele>244.60000610352</ele>
        <time>2021-03-12T11:59:16.000Z</time>
      </trkpt>
      <trkpt lat="46.48237" lon="5.3655">
        <ele>244.39999389648</ele>
        <time>2021-03-12T11:59:17.000Z</time>
      </trkpt>
      <trkpt lat="46.48243" lon="5.36543">
        <ele>244.19999694824</ele>
        <time>2021-03-12T11:59:18.000Z</time>
      </trkpt>
      <trkpt lat="46.48257" lon="5.3653">
        <ele>244</ele>
        <time>2021-03-12T11:59:20.000Z</time>
      </trkpt>
      <trkpt lat="46.48264" lon="5.36523">
        <ele>244</ele>
        <time>2021-03-12T11:59:21.000Z</time>
      </trkpt>
      <trkpt lat="46.4827" lon="5.36516">
        <ele>243.80000305176</ele>
        <time>2021-03-12T11:59:22.000Z</time>
      </trkpt>
      <trkpt lat="46.48284" lon="5.36501">
        <ele>243.60000610352</ele>
        <time>2021-03-12T11:59:24.000Z</time>
      </trkpt>
      <trkpt lat="46.48297" lon="5.36487">
        <ele>243.60000610352</ele>
        <time>2021-03-12T11:59:26.000Z</time>
      </trkpt>
      <trkpt lat="46.4831" lon="5.36472">
        <ele>243.19999694824</ele>
        <time>2021-03-12T11:59:28.000Z</time>
      </trkpt>
      <trkpt lat="46.48324" lon="5.36457">
        <ele>242.80000305176</ele>
        <time>2021-03-12T11:59:30.000Z</time>
      </trkpt>
      <trkpt lat="46.48338" lon="5.36441">
        <ele>242</ele>
        <time>2021-03-12T11:59:32.000Z</time>
      </trkpt>
      <trkpt lat="46.48345" lon="5.36434">
        <ele>241.39999389648</ele>
        <time>2021-03-12T11:59:33.000Z</time>
      </trkpt>
      <trkpt lat="46.48352" lon="5.36426">
        <ele>241</ele>
        <time>2021-03-12T11:59:34.000Z</time>
      </trkpt>
      <trkpt lat="46.48366" lon="5.3641">
        <ele>240.60000610352</ele>
        <time>2021-03-12T11:59:36.000Z</time>
      </trkpt>
      <trkpt lat="46.48373" lon="5.36403">
        <ele>240.39999389648</ele>
        <time>2021-03-12T11:59:37.000Z</time>
      </trkpt>
      <trkpt lat="46.4838" lon="5.36395">
        <ele>240.19999694824</ele>
        <time>2021-03-12T11:59:38.000Z</time>
      </trkpt>
      <trkpt lat="46.48395" lon="5.3638">
        <ele>240</ele>
        <time>2021-03-12T11:59:40.000Z</time>
      </trkpt>
      <trkpt lat="46.48409" lon="5.36366">
        <ele>239.60000610352</ele>
        <time>2021-03-12T11:59:42.000Z</time>
      </trkpt>
      <trkpt lat="46.48417" lon="5.36361">
        <ele>239.39999389648</ele>
        <time>2021-03-12T11:59:43.000Z</time>
      </trkpt>
      <trkpt lat="46.48425" lon="5.36357">
        <ele>239.19999694824</ele>
        <time>2021-03-12T11:59:44.000Z</time>
      </trkpt>
      <trkpt lat="46.48441" lon="5.36351">
        <ele>238.19999694824</ele>
        <time>2021-03-12T11:59:46.000Z</time>
      </trkpt>
      <trkpt lat="46.48449" lon="5.36349">
        <ele>238</ele>
        <time>2021-03-12T11:59:47.000Z</time>
      </trkpt>
      <trkpt lat="46.48457" lon="5.36348">
        <ele>237.60000610352</ele>
        <time>2021-03-12T11:59:48.000Z</time>
      </trkpt>
      <trkpt lat="46.48474" lon="5.36345">
        <ele>237.80000305176</ele>
        <time>2021-03-12T11:59:50.000Z</time>
      </trkpt>
      <trkpt lat="46.4849" lon="5.36343">
        <ele>237.60000610352</ele>
        <time>2021-03-12T11:59:52.000Z</time>
      </trkpt>
      <trkpt lat="46.48506" lon="5.3634">
        <ele>237.39999389648</ele>
        <time>2021-03-12T11:59:54.000Z</time>
      </trkpt>
      <trkpt lat="46.48521" lon="5.36338">
        <ele>237.39999389648</ele>
        <time>2021-03-12T11:59:56.000Z</time>
      </trkpt>
      <trkpt lat="46.48537" lon="5.36336">
        <ele>237.39999389648</ele>
        <time>2021-03-12T11:59:58.000Z</time>
      </trkpt>
      <trkpt lat="46.48553" lon="5.36333">
        <ele>237.39999389648</ele>
        <time>2021-03-12T12:00:00.000Z</time>
      </trkpt>
      <trkpt lat="46.48569" lon="5.3633">
        <ele>237.39999389648</ele>
        <time>2021-03-12T12:00:02.000Z</time>
      </trkpt>
      <trkpt lat="46.48586" lon="5.36328">
        <ele>237.39999389648</ele>
        <time>2021-03-12T12:00:04.000Z</time>
      </trkpt>
      <trkpt lat="46.48595" lon="5.36326">
        <ele>237.39999389648</ele>
        <time>2021-03-12T12:00:05.000Z</time>
      </trkpt>
      <trkpt lat="46.48604" lon="5.36325">
        <ele>237.19999694824</ele>
        <time>2021-03-12T12:00:06.000Z</time>
      </trkpt>
      <trkpt lat="46.48613" lon="5.36322">
        <ele>237.19999694824</ele>
        <time>2021-03-12T12:00:07.000Z</time>
      </trkpt>
      <trkpt lat="46.48621" lon="5.36316">
        <ele>237.19999694824</ele>
        <time>2021-03-12T12:00:08.000Z</time>
      </trkpt>
      <trkpt lat="46.48628" lon="5.36307">
        <ele>237.19999694824</ele>
        <time>2021-03-12T12:00:09.000Z</time>
      </trkpt>
      <trkpt lat="46.48633" lon="5.36295">
        <ele>237</ele>
        <time>2021-03-12T12:00:10.000Z</time>
      </trkpt>
      <trkpt lat="46.48636" lon="5.36282">
        <ele>236.80000305176</ele>
        <time>2021-03-12T12:00:11.000Z</time>
      </trkpt>
      <trkpt lat="46.48639" lon="5.36268">
        <ele>236.60000610352</ele>
        <time>2021-03-12T12:00:12.000Z</time>
      </trkpt>
      <trkpt lat="46.48642" lon="5.36239">
        <ele>236.19999694824</ele>
        <time>2021-03-12T12:00:14.000Z</time>
      </trkpt>
      <trkpt lat="46.48644" lon="5.36225">
        <ele>235</ele>
        <time>2021-03-12T12:00:15.000Z</time>
      </trkpt>
      <trkpt lat="46.48645" lon="5.36211">
        <ele>234.60000610352</ele>
        <time>2021-03-12T12:00:16.000Z</time>
      </trkpt>
      <trkpt lat="46.48646" lon="5.36197">
        <ele>233.39999389648</ele>
        <time>2021-03-12T12:00:17.000Z</time>
      </trkpt>
      <trkpt lat="46.48647" lon="5.36183">
        <ele>232.39999389648</ele>
        <time>2021-03-12T12:00:18.000Z</time>
      </trkpt>
      <trkpt lat="46.48649" lon="5.36156">
        <ele>231</ele>
        <time>2021-03-12T12:00:20.000Z</time>
      </trkpt>
      <trkpt lat="46.48652" lon="5.36129">
        <ele>230.39999389648</ele>
        <time>2021-03-12T12:00:22.000Z</time>
      </trkpt>
      <trkpt lat="46.48655" lon="5.36116">
        <ele>229.80000305176</ele>
        <time>2021-03-12T12:00:23.000Z</time>
      </trkpt>
      <trkpt lat="46.48657" lon="5.36104">
        <ele>229.60000610352</ele>
        <time>2021-03-12T12:00:24.000Z</time>
      </trkpt>
      <trkpt lat="46.48663" lon="5.3608">
        <ele>229.19999694824</ele>
        <time>2021-03-12T12:00:26.000Z</time>
      </trkpt>
      <trkpt lat="46.48668" lon="5.36057">
        <ele>229.19999694824</ele>
        <time>2021-03-12T12:00:28.000Z</time>
      </trkpt>
      <trkpt lat="46.4867" lon="5.36047">
        <ele>229.19999694824</ele>
        <time>2021-03-12T12:00:29.000Z</time>
      </trkpt>
      <trkpt lat="46.48672" lon="5.36037">
        <ele>229.19999694824</ele>
        <time>2021-03-12T12:00:30.000Z</time>
      </trkpt>
      <trkpt lat="46.48676" lon="5.36018">
        <ele>229.19999694824</ele>
        <time>2021-03-12T12:00:32.000Z</time>
      </trkpt>
      <trkpt lat="46.48677" lon="5.36">
        <ele>229.19999694824</ele>
        <time>2021-03-12T12:00:34.000Z</time>
      </trkpt>
      <trkpt lat="46.48679" lon="5.35982">
        <ele>229.39999389648</ele>
        <time>2021-03-12T12:00:36.000Z</time>
      </trkpt>
      <trkpt lat="46.48681" lon="5.35964">
        <ele>229.60000610352</ele>
        <time>2021-03-12T12:00:38.000Z</time>
      </trkpt>
      <trkpt lat="46.48683" lon="5.35954">
        <ele>230.19999694824</ele>
        <time>2021-03-12T12:00:39.000Z</time>
      </trkpt>
      <trkpt lat="46.48684" lon="5.35944">
        <ele>230.80000305176</ele>
        <time>2021-03-12T12:00:40.000Z</time>
      </trkpt>
      <trkpt lat="46.48688" lon="5.35925">
        <ele>231.60000610352</ele>
        <time>2021-03-12T12:00:42.000Z</time>
      </trkpt>
      <trkpt lat="46.48694" lon="5.35905">
        <ele>231.80000305176</ele>
        <time>2021-03-12T12:00:44.000Z</time>
      </trkpt>
      <trkpt lat="46.48697" lon="5.35895">
        <ele>231.80000305176</ele>
        <time>2021-03-12T12:00:45.000Z</time>
      </trkpt>
      <trkpt lat="46.48701" lon="5.35886">
        <ele>231.80000305176</ele>
        <time>2021-03-12T12:00:46.000Z</time>
      </trkpt>
      <trkpt lat="46.48708" lon="5.35866">
        <ele>231.80000305176</ele>
        <time>2021-03-12T12:00:48.000Z</time>
      </trkpt>
      <trkpt lat="46.48716" lon="5.35846">
        <ele>231.80000305176</ele>
        <time>2021-03-12T12:00:50.000Z</time>
      </trkpt>
      <trkpt lat="46.48724" lon="5.35826">
        <ele>231.60000610352</ele>
        <time>2021-03-12T12:00:52.000Z</time>
      </trkpt>
      <trkpt lat="46.48733" lon="5.35806">
        <ele>231</ele>
        <time>2021-03-12T12:00:54.000Z</time>
      </trkpt>
      <trkpt lat="46.48737" lon="5.35798">
        <ele>230.60000610352</ele>
        <time>2021-03-12T12:00:55.000Z</time>
      </trkpt>
      <trkpt lat="46.48741" lon="5.35789">
        <ele>230.39999389648</ele>
        <time>2021-03-12T12:00:56.000Z</time>
      </trkpt>
      <trkpt lat="46.4875" lon="5.35771">
        <ele>229.80000305176</ele>
        <time>2021-03-12T12:00:58.000Z</time>
      </trkpt>
      <trkpt lat="46.48755" lon="5.35761">
        <ele>229.60000610352</ele>
        <time>2021-03-12T12:00:59.000Z</time>
      </trkpt>
      <trkpt lat="46.48759" lon="5.35751">
        <ele>229.39999389648</ele>
        <time>2021-03-12T12:01:00.000Z</time>
      </trkpt>
      <trkpt lat="46.48767" lon="5.35732">
        <ele>228.80000305176</ele>
        <time>2021-03-12T12:01:02.000Z</time>
      </trkpt>
      <trkpt lat="46.48776" lon="5.35713">
        <ele>228.60000610352</ele>
        <time>2021-03-12T12:01:04.000Z</time>
      </trkpt>
      <trkpt lat="46.4878" lon="5.35704">
        <ele>228.60000610352</ele>
        <time>2021-03-12T12:01:05.000Z</time>
      </trkpt>
      <trkpt lat="46.48784" lon="5.35695">
        <ele>228.60000610352</ele>
        <time>2021-03-12T12:01:06.000Z</time>
      </trkpt>
      <trkpt lat="46.48792" lon="5.35676">
        <ele>228.39999389648</ele>
        <time>2021-03-12T12:01:08.000Z</time>
      </trkpt>
      <trkpt lat="46.488" lon="5.35658">
        <ele>228.39999389648</ele>
        <time>2021-03-12T12:01:10.000Z</time>
      </trkpt>
      <trkpt lat="46.48808" lon="5.3564">
        <ele>228.60000610352</ele>
        <time>2021-03-12T12:01:12.000Z</time>
      </trkpt>
      <trkpt lat="46.48816" lon="5.35622">
        <ele>228.60000610352</ele>
        <time>2021-03-12T12:01:14.000Z</time>
      </trkpt>
      <trkpt lat="46.4882" lon="5.35614">
        <ele>228.60000610352</ele>
        <time>2021-03-12T12:01:15.000Z</time>
      </trkpt>
      <trkpt lat="46.48824" lon="5.35605">
        <ele>228.60000610352</ele>
        <time>2021-03-12T12:01:16.000Z</time>
      </trkpt>
      <trkpt lat="46.48831" lon="5.35588">
        <ele>228.60000610352</ele>
        <time>2021-03-12T12:01:18.000Z</time>
      </trkpt>
      <trkpt lat="46.48835" lon="5.3558">
        <ele>228.80000305176</ele>
        <time>2021-03-12T12:01:19.000Z</time>
      </trkpt>
      <trkpt lat="46.4884" lon="5.35573">
        <ele>228.80000305176</ele>
        <time>2021-03-12T12:01:20.000Z</time>
      </trkpt>
      <trkpt lat="46.48845" lon="5.35568">
        <ele>228.80000305176</ele>
        <time>2021-03-12T12:01:21.000Z</time>
      </trkpt>
      <trkpt lat="46.48852" lon="5.35565">
        <ele>228.80000305176</ele>
        <time>2021-03-12T12:01:22.000Z</time>
      </trkpt>
      <trkpt lat="46.48867" lon="5.35563">
        <ele>228.80000305176</ele>
        <time>2021-03-12T12:01:24.000Z</time>
      </trkpt>
      <trkpt lat="46.48883" lon="5.35563">
        <ele>228.80000305176</ele>
        <time>2021-03-12T12:01:26.000Z</time>
      </trkpt>
      <trkpt lat="46.48899" lon="5.35563">
        <ele>228.80000305176</ele>
        <time>2021-03-12T12:01:28.000Z</time>
      </trkpt>
      <trkpt lat="46.48907" lon="5.35562">
        <ele>228.80000305176</ele>
        <time>2021-03-12T12:01:29.000Z</time>
      </trkpt>
      <trkpt lat="46.48915" lon="5.35562">
        <ele>228.80000305176</ele>
        <time>2021-03-12T12:01:30.000Z</time>
      </trkpt>
      <trkpt lat="46.48931" lon="5.35561">
        <ele>228.60000610352</ele>
        <time>2021-03-12T12:01:32.000Z</time>
      </trkpt>
      <trkpt lat="46.48948" lon="5.35561">
        <ele>228.60000610352</ele>
        <time>2021-03-12T12:01:34.000Z</time>
      </trkpt>
      <trkpt lat="46.48965" lon="5.3556">
        <ele>228.19999694824</ele>
        <time>2021-03-12T12:01:36.000Z</time>
      </trkpt>
      <trkpt lat="46.48983" lon="5.35559">
        <ele>227.80000305176</ele>
        <time>2021-03-12T12:01:38.000Z</time>
      </trkpt>
      <trkpt lat="46.49" lon="5.35559">
        <ele>227.60000610352</ele>
        <time>2021-03-12T12:01:40.000Z</time>
      </trkpt>
      <trkpt lat="46.49008" lon="5.35558">
        <ele>227.19999694824</ele>
        <time>2021-03-12T12:01:41.000Z</time>
      </trkpt>
      <trkpt lat="46.49017" lon="5.35558">
        <ele>226.80000305176</ele>
        <time>2021-03-12T12:01:42.000Z</time>
      </trkpt>
      <trkpt lat="46.49034" lon="5.35558">
        <ele>226.39999389648</ele>
        <time>2021-03-12T12:01:44.000Z</time>
      </trkpt>
      <trkpt lat="46.49051" lon="5.35557">
        <ele>226.39999389648</ele>
        <time>2021-03-12T12:01:46.000Z</time>
      </trkpt>
      <trkpt lat="46.49059" lon="5.35556">
        <ele>226.39999389648</ele>
        <time>2021-03-12T12:01:47.000Z</time>
      </trkpt>
      <trkpt lat="46.49066" lon="5.35556">
        <ele>226.39999389648</ele>
        <time>2021-03-12T12:01:48.000Z</time>
      </trkpt>
      <trkpt lat="46.49081" lon="5.35555">
        <ele>226.39999389648</ele>
        <time>2021-03-12T12:01:50.000Z</time>
      </trkpt>
      <trkpt lat="46.49096" lon="5.35554">
        <ele>226.39999389648</ele>
        <time>2021-03-12T12:01:52.000Z</time>
      </trkpt>
      <trkpt lat="46.49103" lon="5.35553">
        <ele>226.39999389648</ele>
        <time>2021-03-12T12:01:53.000Z</time>
      </trkpt>
      <trkpt lat="46.49109" lon="5.35553">
        <ele>226.39999389648</ele>
        <time>2021-03-12T12:01:54.000Z</time>
      </trkpt>
      <trkpt lat="46.49123" lon="5.35553">
        <ele>226.39999389648</ele>
        <time>2021-03-12T12:01:56.000Z</time>
      </trkpt>
      <trkpt lat="46.49135" lon="5.35552">
        <ele>226.80000305176</ele>
        <time>2021-03-12T12:01:58.000Z</time>
      </trkpt>
      <trkpt lat="46.49147" lon="5.35552">
        <ele>227.39999389648</ele>
        <time>2021-03-12T12:02:00.000Z</time>
      </trkpt>
      <trkpt lat="46.49159" lon="5.35552">
        <ele>228</ele>
        <time>2021-03-12T12:02:02.000Z</time>
      </trkpt>
      <trkpt lat="46.49169" lon="5.35552">
        <ele>228.19999694824</ele>
        <time>2021-03-12T12:02:04.000Z</time>
      </trkpt>
      <trkpt lat="46.49174" lon="5.35552">
        <ele>228.19999694824</ele>
        <time>2021-03-12T12:02:05.000Z</time>
      </trkpt>
      <trkpt lat="46.49179" lon="5.35551">
        <ele>228.39999389648</ele>
        <time>2021-03-12T12:02:06.000Z</time>
      </trkpt>
      <trkpt lat="46.4919" lon="5.35551">
        <ele>228.39999389648</ele>
        <time>2021-03-12T12:02:08.000Z</time>
      </trkpt>
      <trkpt lat="46.49201" lon="5.3555">
        <ele>229</ele>
        <time>2021-03-12T12:02:10.000Z</time>
      </trkpt>
      <trkpt lat="46.49208" lon="5.3555">
        <ele>229.80000305176</ele>
        <time>2021-03-12T12:02:11.000Z</time>
      </trkpt>
      <trkpt lat="46.49215" lon="5.3555">
        <ele>230</ele>
        <time>2021-03-12T12:02:12.000Z</time>
      </trkpt>
      <trkpt lat="46.49228" lon="5.35549">
        <ele>230.39999389648</ele>
        <time>2021-03-12T12:02:14.000Z</time>
      </trkpt>
      <trkpt lat="46.49241" lon="5.35549">
        <ele>230.60000610352</ele>
        <time>2021-03-12T12:02:16.000Z</time>
      </trkpt>
      <trkpt lat="46.49254" lon="5.35549">
        <ele>230.60000610352</ele>
        <time>2021-03-12T12:02:18.000Z</time>
      </trkpt>
      <trkpt lat="46.49268" lon="5.35548">
        <ele>230.60000610352</ele>
        <time>2021-03-12T12:02:20.000Z</time>
      </trkpt>
      <trkpt lat="46.49276" lon="5.35547">
        <ele>230.60000610352</ele>
        <time>2021-03-12T12:02:21.000Z</time>
      </trkpt>
      <trkpt lat="46.49283" lon="5.35546">
        <ele>230.60000610352</ele>
        <time>2021-03-12T12:02:22.000Z</time>
      </trkpt>
      <trkpt lat="46.49298" lon="5.35545">
        <ele>230.60000610352</ele>
        <time>2021-03-12T12:02:24.000Z</time>
      </trkpt>
      <trkpt lat="46.49312" lon="5.35543">
        <ele>230.60000610352</ele>
        <time>2021-03-12T12:02:26.000Z</time>
      </trkpt>
      <trkpt lat="46.49326" lon="5.35542">
        <ele>230.39999389648</ele>
        <time>2021-03-12T12:02:28.000Z</time>
      </trkpt>
      <trkpt lat="46.49339" lon="5.35541">
        <ele>230.19999694824</ele>
        <time>2021-03-12T12:02:30.000Z</time>
      </trkpt>
      <trkpt lat="46.49354" lon="5.35541">
        <ele>230.19999694824</ele>
        <time>2021-03-12T12:02:32.000Z</time>
      </trkpt>
      <trkpt lat="46.49369" lon="5.35541">
        <ele>230</ele>
        <time>2021-03-12T12:02:34.000Z</time>
      </trkpt>
      <trkpt lat="46.49376" lon="5.35542">
        <ele>229.80000305176</ele>
        <time>2021-03-12T12:02:35.000Z</time>
      </trkpt>
      <trkpt lat="46.49384" lon="5.35542">
        <ele>229.80000305176</ele>
        <time>2021-03-12T12:02:36.000Z</time>
      </trkpt>
      <trkpt lat="46.49399" lon="5.35546">
        <ele>229.39999389648</ele>
        <time>2021-03-12T12:02:38.000Z</time>
      </trkpt>
      <trkpt lat="46.49412" lon="5.35551">
        <ele>228.80000305176</ele>
        <time>2021-03-12T12:02:40.000Z</time>
      </trkpt>
      <trkpt lat="46.49419" lon="5.35554">
        <ele>228.60000610352</ele>
        <time>2021-03-12T12:02:41.000Z</time>
      </trkpt>
      <trkpt lat="46.49427" lon="5.35557">
        <ele>228.39999389648</ele>
        <time>2021-03-12T12:02:42.000Z</time>
      </trkpt>
      <trkpt lat="46.49442" lon="5.35563">
        <ele>228</ele>
        <time>2021-03-12T12:02:44.000Z</time>
      </trkpt>
      <trkpt lat="46.49457" lon="5.35569">
        <ele>227.60000610352</ele>
        <time>2021-03-12T12:02:46.000Z</time>
      </trkpt>
      <trkpt lat="46.49471" lon="5.35575">
        <ele>227.60000610352</ele>
        <time>2021-03-12T12:02:48.000Z</time>
      </trkpt>
      <trkpt lat="46.49478" lon="5.35577">
        <ele>227.60000610352</ele>
        <time>2021-03-12T12:02:49.000Z</time>
      </trkpt>
      <trkpt lat="46.49486" lon="5.3558">
        <ele>227.60000610352</ele>
        <time>2021-03-12T12:02:50.000Z</time>
      </trkpt>
      <trkpt lat="46.495" lon="5.35586">
        <ele>227.39999389648</ele>
        <time>2021-03-12T12:02:52.000Z</time>
      </trkpt>
      <trkpt lat="46.49514" lon="5.35591">
        <ele>227.39999389648</ele>
        <time>2021-03-12T12:02:54.000Z</time>
      </trkpt>
      <trkpt lat="46.49529" lon="5.35597">
        <ele>227.19999694824</ele>
        <time>2021-03-12T12:02:56.000Z</time>
      </trkpt>
      <trkpt lat="46.49544" lon="5.35603">
        <ele>227.19999694824</ele>
        <time>2021-03-12T12:02:58.000Z</time>
      </trkpt>
      <trkpt lat="46.49558" lon="5.35609">
        <ele>227</ele>
        <time>2021-03-12T12:03:00.000Z</time>
      </trkpt>
      <trkpt lat="46.49573" lon="5.35614">
        <ele>226.80000305176</ele>
        <time>2021-03-12T12:03:02.000Z</time>
      </trkpt>
      <trkpt lat="46.49588" lon="5.35619">
        <ele>226.60000610352</ele>
        <time>2021-03-12T12:03:04.000Z</time>
      </trkpt>
      <trkpt lat="46.49602" lon="5.35623">
        <ele>226.39999389648</ele>
        <time>2021-03-12T12:03:06.000Z</time>
      </trkpt>
      <trkpt lat="46.49617" lon="5.35628">
        <ele>226</ele>
        <time>2021-03-12T12:03:08.000Z</time>
      </trkpt>
      <trkpt lat="46.49632" lon="5.35632">
        <ele>225.80000305176</ele>
        <time>2021-03-12T12:03:10.000Z</time>
      </trkpt>
      <trkpt lat="46.49646" lon="5.35636">
        <ele>225.60000610352</ele>
        <time>2021-03-12T12:03:12.000Z</time>
      </trkpt>
      <trkpt lat="46.49661" lon="5.3564">
        <ele>225.19999694824</ele>
        <time>2021-03-12T12:03:14.000Z</time>
      </trkpt>
      <trkpt lat="46.49668" lon="5.35643">
        <ele>225.19999694824</ele>
        <time>2021-03-12T12:03:15.000Z</time>
      </trkpt>
      <trkpt lat="46.49675" lon="5.35645">
        <ele>225</ele>
        <time>2021-03-12T12:03:16.000Z</time>
      </trkpt>
      <trkpt lat="46.49682" lon="5.35647">
        <ele>224.80000305176</ele>
        <time>2021-03-12T12:03:17.000Z</time>
      </trkpt>
      <trkpt lat="46.49688" lon="5.35649">
        <ele>224.60000610352</ele>
        <time>2021-03-12T12:03:18.000Z</time>
      </trkpt>
      <trkpt lat="46.49692" lon="5.3565">
        <ele>224.39999389648</ele>
        <time>2021-03-12T12:03:19.000Z</time>
      </trkpt>
      <trkpt lat="46.49695" lon="5.35652">
        <ele>224.19999694824</ele>
        <time>2021-03-12T12:03:20.000Z</time>
      </trkpt>
      <trkpt lat="46.49698" lon="5.35651">
        <ele>224.19999694824</ele>
        <time>2021-03-12T12:03:21.000Z</time>
      </trkpt>
      <trkpt lat="46.49701" lon="5.35649">
        <ele>224</ele>
        <time>2021-03-12T12:03:22.000Z</time>
      </trkpt>
      <trkpt lat="46.49705" lon="5.3564">
        <ele>224</ele>
        <time>2021-03-12T12:03:24.000Z</time>
      </trkpt>
      <trkpt lat="46.49707" lon="5.35633">
        <ele>224</ele>
        <time>2021-03-12T12:03:25.000Z</time>
      </trkpt>
      <trkpt lat="46.49708" lon="5.35626">
        <ele>223.80000305176</ele>
        <time>2021-03-12T12:03:26.000Z</time>
      </trkpt>
      <trkpt lat="46.49708" lon="5.35617">
        <ele>223.80000305176</ele>
        <time>2021-03-12T12:03:27.000Z</time>
      </trkpt>
      <trkpt lat="46.49709" lon="5.35609">
        <ele>223.60000610352</ele>
        <time>2021-03-12T12:03:28.000Z</time>
      </trkpt>
      <trkpt lat="46.4971" lon="5.356">
        <ele>223.60000610352</ele>
        <time>2021-03-12T12:03:29.000Z</time>
      </trkpt>
      <trkpt lat="46.49712" lon="5.3559">
        <ele>223.39999389648</ele>
        <time>2021-03-12T12:03:30.000Z</time>
      </trkpt>
      <trkpt lat="46.49714" lon="5.3557">
        <ele>223.19999694824</ele>
        <time>2021-03-12T12:03:32.000Z</time>
      </trkpt>
      <trkpt lat="46.49716" lon="5.3555">
        <ele>223</ele>
        <time>2021-03-12T12:03:34.000Z</time>
      </trkpt>
      <trkpt lat="46.49719" lon="5.35529">
        <ele>222.80000305176</ele>
        <time>2021-03-12T12:03:36.000Z</time>
      </trkpt>
      <trkpt lat="46.4972" lon="5.35518">
        <ele>222.60000610352</ele>
        <time>2021-03-12T12:03:37.000Z</time>
      </trkpt>
      <trkpt lat="46.49721" lon="5.35507">
        <ele>222.39999389648</ele>
        <time>2021-03-12T12:03:38.000Z</time>
      </trkpt>
      <trkpt lat="46.49724" lon="5.35486">
        <ele>221.80000305176</ele>
        <time>2021-03-12T12:03:40.000Z</time>
      </trkpt>
      <trkpt lat="46.49726" lon="5.35465">
        <ele>221.60000610352</ele>
        <time>2021-03-12T12:03:42.000Z</time>
      </trkpt>
      <trkpt lat="46.49729" lon="5.35443">
        <ele>221.39999389648</ele>
        <time>2021-03-12T12:03:44.000Z</time>
      </trkpt>
      <trkpt lat="46.49731" lon="5.35432">
        <ele>221.19999694824</ele>
        <time>2021-03-12T12:03:45.000Z</time>
      </trkpt>
      <trkpt lat="46.49732" lon="5.3542">
        <ele>221</ele>
        <time>2021-03-12T12:03:46.000Z</time>
      </trkpt>
      <trkpt lat="46.49734" lon="5.35398">
        <ele>220.80000305176</ele>
        <time>2021-03-12T12:03:48.000Z</time>
      </trkpt>
      <trkpt lat="46.49736" lon="5.35375">
        <ele>220.60000610352</ele>
        <time>2021-03-12T12:03:50.000Z</time>
      </trkpt>
      <trkpt lat="46.49737" lon="5.35363">
        <ele>220.60000610352</ele>
        <time>2021-03-12T12:03:51.000Z</time>
      </trkpt>
      <trkpt lat="46.49737" lon="5.35352">
        <ele>220.39999389648</ele>
        <time>2021-03-12T12:03:52.000Z</time>
      </trkpt>
      <trkpt lat="46.49736" lon="5.35341">
        <ele>220.39999389648</ele>
        <time>2021-03-12T12:03:53.000Z</time>
      </trkpt>
      <trkpt lat="46.49735" lon="5.3533">
        <ele>220.19999694824</ele>
        <time>2021-03-12T12:03:54.000Z</time>
      </trkpt>
      <trkpt lat="46.49733" lon="5.35309">
        <ele>220.19999694824</ele>
        <time>2021-03-12T12:03:56.000Z</time>
      </trkpt>
      <trkpt lat="46.4973" lon="5.35291">
        <ele>220</ele>
        <time>2021-03-12T12:03:58.000Z</time>
      </trkpt>
      <trkpt lat="46.49726" lon="5.35273">
        <ele>220</ele>
        <time>2021-03-12T12:04:00.000Z</time>
      </trkpt>
      <trkpt lat="46.49722" lon="5.35257">
        <ele>220</ele>
        <time>2021-03-12T12:04:02.000Z</time>
      </trkpt>
      <trkpt lat="46.49719" lon="5.3524">
        <ele>220</ele>
        <time>2021-03-12T12:04:04.000Z</time>
      </trkpt>
      <trkpt lat="46.49717" lon="5.35232">
        <ele>220</ele>
        <time>2021-03-12T12:04:05.000Z</time>
      </trkpt>
      <trkpt lat="46.49715" lon="5.35223">
        <ele>220.19999694824</ele>
        <time>2021-03-12T12:04:06.000Z</time>
      </trkpt>
      <trkpt lat="46.49712" lon="5.35207">
        <ele>220.60000610352</ele>
        <time>2021-03-12T12:04:08.000Z</time>
      </trkpt>
      <trkpt lat="46.49708" lon="5.3519">
        <ele>221</ele>
        <time>2021-03-12T12:04:10.000Z</time>
      </trkpt>
      <trkpt lat="46.49704" lon="5.35172">
        <ele>221.39999389648</ele>
        <time>2021-03-12T12:04:12.000Z</time>
      </trkpt>
      <trkpt lat="46.497" lon="5.35153">
        <ele>221.39999389648</ele>
        <time>2021-03-12T12:04:14.000Z</time>
      </trkpt>
      <trkpt lat="46.49697" lon="5.35134">
        <ele>221.39999389648</ele>
        <time>2021-03-12T12:04:16.000Z</time>
      </trkpt>
      <trkpt lat="46.49693" lon="5.35114">
        <ele>221.39999389648</ele>
        <time>2021-03-12T12:04:18.000Z</time>
      </trkpt>
      <trkpt lat="46.49689" lon="5.35094">
        <ele>221.39999389648</ele>
        <time>2021-03-12T12:04:20.000Z</time>
      </trkpt>
      <trkpt lat="46.49688" lon="5.35085">
        <ele>221.39999389648</ele>
        <time>2021-03-12T12:04:21.000Z</time>
      </trkpt>
      <trkpt lat="46.49686" lon="5.35076">
        <ele>221.19999694824</ele>
        <time>2021-03-12T12:04:22.000Z</time>
      </trkpt>
      <trkpt lat="46.49683" lon="5.35058">
        <ele>221</ele>
        <time>2021-03-12T12:04:24.000Z</time>
      </trkpt>
      <trkpt lat="46.49679" lon="5.35041">
        <ele>220.80000305176</ele>
        <time>2021-03-12T12:04:26.000Z</time>
      </trkpt>
      <trkpt lat="46.49676" lon="5.35024">
        <ele>220.80000305176</ele>
        <time>2021-03-12T12:04:28.000Z</time>
      </trkpt>
      <trkpt lat="46.49675" lon="5.35016">
        <ele>220.80000305176</ele>
        <time>2021-03-12T12:04:29.000Z</time>
      </trkpt>
      <trkpt lat="46.49673" lon="5.35008">
        <ele>220.80000305176</ele>
        <time>2021-03-12T12:04:30.000Z</time>
      </trkpt>
      <trkpt lat="46.4967" lon="5.34992">
        <ele>220.80000305176</ele>
        <time>2021-03-12T12:04:32.000Z</time>
      </trkpt>
      <trkpt lat="46.49667" lon="5.34977">
        <ele>221</ele>
        <time>2021-03-12T12:04:34.000Z</time>
      </trkpt>
      <trkpt lat="46.49663" lon="5.34963">
        <ele>221.39999389648</ele>
        <time>2021-03-12T12:04:36.000Z</time>
      </trkpt>
      <trkpt lat="46.4966" lon="5.34948">
        <ele>221.60000610352</ele>
        <time>2021-03-12T12:04:38.000Z</time>
      </trkpt>
      <trkpt lat="46.49657" lon="5.34932">
        <ele>221.80000305176</ele>
        <time>2021-03-12T12:04:40.000Z</time>
      </trkpt>
      <trkpt lat="46.49654" lon="5.34916">
        <ele>222.60000610352</ele>
        <time>2021-03-12T12:04:42.000Z</time>
      </trkpt>
      <trkpt lat="46.49652" lon="5.34907">
        <ele>222.80000305176</ele>
        <time>2021-03-12T12:04:43.000Z</time>
      </trkpt>
      <trkpt lat="46.4965" lon="5.34898">
        <ele>222.80000305176</ele>
        <time>2021-03-12T12:04:44.000Z</time>
      </trkpt>
      <trkpt lat="46.49649" lon="5.3489">
        <ele>223</ele>
        <time>2021-03-12T12:04:45.000Z</time>
      </trkpt>
      <trkpt lat="46.49648" lon="5.34881">
        <ele>223</ele>
        <time>2021-03-12T12:04:46.000Z</time>
      </trkpt>
      <trkpt lat="46.49645" lon="5.34864">
        <ele>223</ele>
        <time>2021-03-12T12:04:48.000Z</time>
      </trkpt>
      <trkpt lat="46.49643" lon="5.34855">
        <ele>223</ele>
        <time>2021-03-12T12:04:49.000Z</time>
      </trkpt>
      <trkpt lat="46.49641" lon="5.34846">
        <ele>223</ele>
        <time>2021-03-12T12:04:50.000Z</time>
      </trkpt>
      <trkpt lat="46.49638" lon="5.34827">
        <ele>223</ele>
        <time>2021-03-12T12:04:52.000Z</time>
      </trkpt>
      <trkpt lat="46.49635" lon="5.34807">
        <ele>223</ele>
        <time>2021-03-12T12:04:54.000Z</time>
      </trkpt>
      <trkpt lat="46.49634" lon="5.34797">
        <ele>223</ele>
        <time>2021-03-12T12:04:55.000Z</time>
      </trkpt>
      <trkpt lat="46.49632" lon="5.34786">
        <ele>223</ele>
        <time>2021-03-12T12:04:56.000Z</time>
      </trkpt>
      <trkpt lat="46.49631" lon="5.34764">
        <ele>223</ele>
        <time>2021-03-12T12:04:58.000Z</time>
      </trkpt>
      <trkpt lat="46.49631" lon="5.3474">
        <ele>222.60000610352</ele>
        <time>2021-03-12T12:05:00.000Z</time>
      </trkpt>
      <trkpt lat="46.49632" lon="5.34729">
        <ele>222.39999389648</ele>
        <time>2021-03-12T12:05:01.000Z</time>
      </trkpt>
      <trkpt lat="46.49632" lon="5.34717">
        <ele>222.19999694824</ele>
        <time>2021-03-12T12:05:02.000Z</time>
      </trkpt>
      <trkpt lat="46.49635" lon="5.34692">
        <ele>221</ele>
        <time>2021-03-12T12:05:04.000Z</time>
      </trkpt>
      <trkpt lat="46.49637" lon="5.34667">
        <ele>220</ele>
        <time>2021-03-12T12:05:06.000Z</time>
      </trkpt>
      <trkpt lat="46.49638" lon="5.34654">
        <ele>219.60000610352</ele>
        <time>2021-03-12T12:05:07.000Z</time>
      </trkpt>
      <trkpt lat="46.49639" lon="5.34641">
        <ele>219</ele>
        <time>2021-03-12T12:05:08.000Z</time>
      </trkpt>
      <trkpt lat="46.49641" lon="5.34627">
        <ele>218.80000305176</ele>
        <time>2021-03-12T12:05:09.000Z</time>
      </trkpt>
      <trkpt lat="46.49642" lon="5.34614">
        <ele>218.39999389648</ele>
        <time>2021-03-12T12:05:10.000Z</time>
      </trkpt>
      <trkpt lat="46.49646" lon="5.34587">
        <ele>217.39999389648</ele>
        <time>2021-03-12T12:05:12.000Z</time>
      </trkpt>
      <trkpt lat="46.4965" lon="5.34561">
        <ele>216.39999389648</ele>
        <time>2021-03-12T12:05:14.000Z</time>
      </trkpt>
      <trkpt lat="46.49653" lon="5.34548">
        <ele>215.80000305176</ele>
        <time>2021-03-12T12:05:15.000Z</time>
      </trkpt>
      <trkpt lat="46.49655" lon="5.34536">
        <ele>215.39999389648</ele>
        <time>2021-03-12T12:05:16.000Z</time>
      </trkpt>
      <trkpt lat="46.4966" lon="5.34512">
        <ele>215</ele>
        <time>2021-03-12T12:05:18.000Z</time>
      </trkpt>
      <trkpt lat="46.49663" lon="5.34501">
        <ele>215</ele>
        <time>2021-03-12T12:05:19.000Z</time>
      </trkpt>
      <trkpt lat="46.49666" lon="5.34491">
        <ele>215</ele>
        <time>2021-03-12T12:05:20.000Z</time>
      </trkpt>
      <trkpt lat="46.49672" lon="5.34471">
        <ele>214.60000610352</ele>
        <time>2021-03-12T12:05:22.000Z</time>
      </trkpt>
      <trkpt lat="46.49678" lon="5.34452">
        <ele>214.60000610352</ele>
        <time>2021-03-12T12:05:24.000Z</time>
      </trkpt>
      <trkpt lat="46.49682" lon="5.34435">
        <ele>214.60000610352</ele>
        <time>2021-03-12T12:05:26.000Z</time>
      </trkpt>
      <trkpt lat="46.49687" lon="5.34419">
        <ele>214.80000305176</ele>
        <time>2021-03-12T12:05:28.000Z</time>
      </trkpt>
      <trkpt lat="46.49692" lon="5.34403">
        <ele>214.80000305176</ele>
        <time>2021-03-12T12:05:30.000Z</time>
      </trkpt>
      <trkpt lat="46.49696" lon="5.34388">
        <ele>215.60000610352</ele>
        <time>2021-03-12T12:05:32.000Z</time>
      </trkpt>
      <trkpt lat="46.49698" lon="5.3438">
        <ele>216</ele>
        <time>2021-03-12T12:05:33.000Z</time>
      </trkpt>
      <trkpt lat="46.49701" lon="5.34373">
        <ele>216.39999389648</ele>
        <time>2021-03-12T12:05:34.000Z</time>
      </trkpt>
      <trkpt lat="46.49705" lon="5.3436">
        <ele>217</ele>
        <time>2021-03-12T12:05:36.000Z</time>
      </trkpt>
      <trkpt lat="46.49709" lon="5.34347">
        <ele>217.60000610352</ele>
        <time>2021-03-12T12:05:38.000Z</time>
      </trkpt>
      <trkpt lat="46.49715" lon="5.34334">
        <ele>218.60000610352</ele>
        <time>2021-03-12T12:05:40.000Z</time>
      </trkpt>
      <trkpt lat="46.4972" lon="5.34321">
        <ele>219.80000305176</ele>
        <time>2021-03-12T12:05:42.000Z</time>
      </trkpt>
      <trkpt lat="46.49727" lon="5.34308">
        <ele>220.19999694824</ele>
        <time>2021-03-12T12:05:44.000Z</time>
      </trkpt>
      <trkpt lat="46.49734" lon="5.34294">
        <ele>220.39999389648</ele>
        <time>2021-03-12T12:05:46.000Z</time>
      </trkpt>
      <trkpt lat="46.49742" lon="5.34279">
        <ele>220.39999389648</ele>
        <time>2021-03-12T12:05:48.000Z</time>
      </trkpt>
      <trkpt lat="46.4975" lon="5.34264">
        <ele>220.39999389648</ele>
        <time>2021-03-12T12:05:50.000Z</time>
      </trkpt>
      <trkpt lat="46.49759" lon="5.3425">
        <ele>220.39999389648</ele>
        <time>2021-03-12T12:05:52.000Z</time>
      </trkpt>
      <trkpt lat="46.49767" lon="5.34236">
        <ele>220.39999389648</ele>
        <time>2021-03-12T12:05:54.000Z</time>
      </trkpt>
      <trkpt lat="46.49775" lon="5.34222">
        <ele>220.39999389648</ele>
        <time>2021-03-12T12:05:56.000Z</time>
      </trkpt>
      <trkpt lat="46.49779" lon="5.34215">
        <ele>220.39999389648</ele>
        <time>2021-03-12T12:05:57.000Z</time>
      </trkpt>
      <trkpt lat="46.49783" lon="5.34208">
        <ele>220.39999389648</ele>
        <time>2021-03-12T12:05:58.000Z</time>
      </trkpt>
      <trkpt lat="46.49791" lon="5.34194">
        <ele>220.39999389648</ele>
        <time>2021-03-12T12:06:00.000Z</time>
      </trkpt>
      <trkpt lat="46.49798" lon="5.34181">
        <ele>220.39999389648</ele>
        <time>2021-03-12T12:06:02.000Z</time>
      </trkpt>
      <trkpt lat="46.49806" lon="5.34167">
        <ele>220.39999389648</ele>
        <time>2021-03-12T12:06:04.000Z</time>
      </trkpt>
      <trkpt lat="46.4981" lon="5.3416">
        <ele>220.39999389648</ele>
        <time>2021-03-12T12:06:05.000Z</time>
      </trkpt>
      <trkpt lat="46.49815" lon="5.34154">
        <ele>220.60000610352</ele>
        <time>2021-03-12T12:06:06.000Z</time>
      </trkpt>
      <trkpt lat="46.49823" lon="5.34139">
        <ele>221</ele>
        <time>2021-03-12T12:06:08.000Z</time>
      </trkpt>
      <trkpt lat="46.49831" lon="5.34126">
        <ele>221.19999694824</ele>
        <time>2021-03-12T12:06:10.000Z</time>
      </trkpt>
      <trkpt lat="46.49839" lon="5.34112">
        <ele>221.19999694824</ele>
        <time>2021-03-12T12:06:12.000Z</time>
      </trkpt>
      <trkpt lat="46.49848" lon="5.34097">
        <ele>221.19999694824</ele>
        <time>2021-03-12T12:06:14.000Z</time>
      </trkpt>
      <trkpt lat="46.49857" lon="5.34083">
        <ele>221.19999694824</ele>
        <time>2021-03-12T12:06:16.000Z</time>
      </trkpt>
      <trkpt lat="46.49868" lon="5.34069">
        <ele>221.19999694824</ele>
        <time>2021-03-12T12:06:18.000Z</time>
      </trkpt>
      <trkpt lat="46.49878" lon="5.34056">
        <ele>221.19999694824</ele>
        <time>2021-03-12T12:06:20.000Z</time>
      </trkpt>
      <trkpt lat="46.49889" lon="5.34044">
        <ele>221</ele>
        <time>2021-03-12T12:06:22.000Z</time>
      </trkpt>
      <trkpt lat="46.49899" lon="5.34032">
        <ele>221</ele>
        <time>2021-03-12T12:06:24.000Z</time>
      </trkpt>
      <trkpt lat="46.49903" lon="5.34027">
        <ele>221</ele>
        <time>2021-03-12T12:06:25.000Z</time>
      </trkpt>
      <trkpt lat="46.49908" lon="5.34023">
        <ele>221</ele>
        <time>2021-03-12T12:06:26.000Z</time>
      </trkpt>
      <trkpt lat="46.49918" lon="5.34013">
        <ele>221</ele>
        <time>2021-03-12T12:06:28.000Z</time>
      </trkpt>
      <trkpt lat="46.49927" lon="5.34004">
        <ele>221</ele>
        <time>2021-03-12T12:06:30.000Z</time>
      </trkpt>
      <trkpt lat="46.49936" lon="5.33995">
        <ele>221</ele>
        <time>2021-03-12T12:06:32.000Z</time>
      </trkpt>
      <trkpt lat="46.49941" lon="5.3399">
        <ele>221</ele>
        <time>2021-03-12T12:06:33.000Z</time>
      </trkpt>
      <trkpt lat="46.49945" lon="5.33986">
        <ele>221</ele>
        <time>2021-03-12T12:06:34.000Z</time>
      </trkpt>
      <trkpt lat="46.49954" lon="5.33977">
        <ele>221.19999694824</ele>
        <time>2021-03-12T12:06:36.000Z</time>
      </trkpt>
      <trkpt lat="46.49962" lon="5.33968">
        <ele>221.60000610352</ele>
        <time>2021-03-12T12:06:38.000Z</time>
      </trkpt>
      <trkpt lat="46.49966" lon="5.33964">
        <ele>222</ele>
        <time>2021-03-12T12:06:39.000Z</time>
      </trkpt>
      <trkpt lat="46.49971" lon="5.3396">
        <ele>222.19999694824</ele>
        <time>2021-03-12T12:06:40.000Z</time>
      </trkpt>
      <trkpt lat="46.49975" lon="5.33956">
        <ele>222.39999389648</ele>
        <time>2021-03-12T12:06:41.000Z</time>
      </trkpt>
      <trkpt lat="46.4998" lon="5.33952">
        <ele>222.60000610352</ele>
        <time>2021-03-12T12:06:42.000Z</time>
      </trkpt>
      <trkpt lat="46.49989" lon="5.33943">
        <ele>223.19999694824</ele>
        <time>2021-03-12T12:06:44.000Z</time>
      </trkpt>
      <trkpt lat="46.49997" lon="5.33934">
        <ele>223.39999389648</ele>
        <time>2021-03-12T12:06:46.000Z</time>
      </trkpt>
      <trkpt lat="46.50002" lon="5.33929">
        <ele>223.60000610352</ele>
        <time>2021-03-12T12:06:47.000Z</time>
      </trkpt>
      <trkpt lat="46.50006" lon="5.33924">
        <ele>223.80000305176</ele>
        <time>2021-03-12T12:06:48.000Z</time>
      </trkpt>
      <trkpt lat="46.50016" lon="5.33914">
        <ele>223.80000305176</ele>
        <time>2021-03-12T12:06:50.000Z</time>
      </trkpt>
      <trkpt lat="46.50026" lon="5.33902">
        <ele>223.80000305176</ele>
        <time>2021-03-12T12:06:52.000Z</time>
      </trkpt>
      <trkpt lat="46.50037" lon="5.3389">
        <ele>224</ele>
        <time>2021-03-12T12:06:54.000Z</time>
      </trkpt>
      <trkpt lat="46.50048" lon="5.33879">
        <ele>224</ele>
        <time>2021-03-12T12:06:56.000Z</time>
      </trkpt>
      <trkpt lat="46.50059" lon="5.33867">
        <ele>223.80000305176</ele>
        <time>2021-03-12T12:06:58.000Z</time>
      </trkpt>
      <trkpt lat="46.50071" lon="5.33854">
        <ele>223.60000610352</ele>
        <time>2021-03-12T12:07:00.000Z</time>
      </trkpt>
      <trkpt lat="46.50077" lon="5.33848">
        <ele>223.39999389648</ele>
        <time>2021-03-12T12:07:01.000Z</time>
      </trkpt>
      <trkpt lat="46.50084" lon="5.33842">
        <ele>223.19999694824</ele>
        <time>2021-03-12T12:07:02.000Z</time>
      </trkpt>
      <trkpt lat="46.50096" lon="5.33828">
        <ele>223</ele>
        <time>2021-03-12T12:07:04.000Z</time>
      </trkpt>
      <trkpt lat="46.50108" lon="5.33816">
        <ele>222.19999694824</ele>
        <time>2021-03-12T12:07:06.000Z</time>
      </trkpt>
      <trkpt lat="46.50114" lon="5.33809">
        <ele>221.80000305176</ele>
        <time>2021-03-12T12:07:07.000Z</time>
      </trkpt>
      <trkpt lat="46.5012" lon="5.33803">
        <ele>221.60000610352</ele>
        <time>2021-03-12T12:07:08.000Z</time>
      </trkpt>
      <trkpt lat="46.50126" lon="5.33796">
        <ele>221.39999389648</ele>
        <time>2021-03-12T12:07:09.000Z</time>
      </trkpt>
      <trkpt lat="46.50131" lon="5.3379">
        <ele>221.19999694824</ele>
        <time>2021-03-12T12:07:10.000Z</time>
      </trkpt>
      <trkpt lat="46.50142" lon="5.33779">
        <ele>220.80000305176</ele>
        <time>2021-03-12T12:07:12.000Z</time>
      </trkpt>
      <trkpt lat="46.50153" lon="5.33768">
        <ele>220.60000610352</ele>
        <time>2021-03-12T12:07:14.000Z</time>
      </trkpt>
      <trkpt lat="46.50164" lon="5.33757">
        <ele>220.39999389648</ele>
        <time>2021-03-12T12:07:16.000Z</time>
      </trkpt>
      <trkpt lat="46.50175" lon="5.33745">
        <ele>220.39999389648</ele>
        <time>2021-03-12T12:07:18.000Z</time>
      </trkpt>
      <trkpt lat="46.50187" lon="5.33732">
        <ele>220.39999389648</ele>
        <time>2021-03-12T12:07:20.000Z</time>
      </trkpt>
      <trkpt lat="46.50197" lon="5.3372">
        <ele>220.60000610352</ele>
        <time>2021-03-12T12:07:22.000Z</time>
      </trkpt>
      <trkpt lat="46.50203" lon="5.33715">
        <ele>220.60000610352</ele>
        <time>2021-03-12T12:07:23.000Z</time>
      </trkpt>
      <trkpt lat="46.50208" lon="5.3371">
        <ele>220.80000305176</ele>
        <time>2021-03-12T12:07:24.000Z</time>
      </trkpt>
      <trkpt lat="46.50219" lon="5.33698">
        <ele>221</ele>
        <time>2021-03-12T12:07:26.000Z</time>
      </trkpt>
      <trkpt lat="46.50229" lon="5.33687">
        <ele>221.19999694824</ele>
        <time>2021-03-12T12:07:28.000Z</time>
      </trkpt>
      <trkpt lat="46.50234" lon="5.33681">
        <ele>221.19999694824</ele>
        <time>2021-03-12T12:07:29.000Z</time>
      </trkpt>
      <trkpt lat="46.5024" lon="5.33674">
        <ele>221.19999694824</ele>
        <time>2021-03-12T12:07:30.000Z</time>
      </trkpt>
      <trkpt lat="46.50251" lon="5.33662">
        <ele>221.19999694824</ele>
        <time>2021-03-12T12:07:32.000Z</time>
      </trkpt>
      <trkpt lat="46.50262" lon="5.3365">
        <ele>221.19999694824</ele>
        <time>2021-03-12T12:07:34.000Z</time>
      </trkpt>
      <trkpt lat="46.50273" lon="5.33637">
        <ele>221.19999694824</ele>
        <time>2021-03-12T12:07:36.000Z</time>
      </trkpt>
      <trkpt lat="46.50284" lon="5.33625">
        <ele>221</ele>
        <time>2021-03-12T12:07:38.000Z</time>
      </trkpt>
      <trkpt lat="46.50294" lon="5.33614">
        <ele>220.80000305176</ele>
        <time>2021-03-12T12:07:40.000Z</time>
      </trkpt>
      <trkpt lat="46.50304" lon="5.33603">
        <ele>220.60000610352</ele>
        <time>2021-03-12T12:07:42.000Z</time>
      </trkpt>
      <trkpt lat="46.50315" lon="5.33592">
        <ele>220.39999389648</ele>
        <time>2021-03-12T12:07:44.000Z</time>
      </trkpt>
      <trkpt lat="46.50326" lon="5.33579">
        <ele>220.19999694824</ele>
        <time>2021-03-12T12:07:46.000Z</time>
      </trkpt>
      <trkpt lat="46.50337" lon="5.33567">
        <ele>220</ele>
        <time>2021-03-12T12:07:48.000Z</time>
      </trkpt>
      <trkpt lat="46.50342" lon="5.33562">
        <ele>220</ele>
        <time>2021-03-12T12:07:49.000Z</time>
      </trkpt>
      <trkpt lat="46.50348" lon="5.33556">
        <ele>220</ele>
        <time>2021-03-12T12:07:50.000Z</time>
      </trkpt>
      <trkpt lat="46.50359" lon="5.33545">
        <ele>219.80000305176</ele>
        <time>2021-03-12T12:07:52.000Z</time>
      </trkpt>
      <trkpt lat="46.50371" lon="5.33533">
        <ele>219.80000305176</ele>
        <time>2021-03-12T12:07:54.000Z</time>
      </trkpt>
      <trkpt lat="46.50382" lon="5.33521">
        <ele>219.39999389648</ele>
        <time>2021-03-12T12:07:56.000Z</time>
      </trkpt>
      <trkpt lat="46.50387" lon="5.33515">
        <ele>219.39999389648</ele>
        <time>2021-03-12T12:07:57.000Z</time>
      </trkpt>
      <trkpt lat="46.50393" lon="5.33509">
        <ele>219.39999389648</ele>
        <time>2021-03-12T12:07:58.000Z</time>
      </trkpt>
      <trkpt lat="46.50404" lon="5.33497">
        <ele>219.19999694824</ele>
        <time>2021-03-12T12:08:00.000Z</time>
      </trkpt>
      <trkpt lat="46.50416" lon="5.33484">
        <ele>219</ele>
        <time>2021-03-12T12:08:02.000Z</time>
      </trkpt>
      <trkpt lat="46.50421" lon="5.33477">
        <ele>219</ele>
        <time>2021-03-12T12:08:03.000Z</time>
      </trkpt>
      <trkpt lat="46.50427" lon="5.33469">
        <ele>219</ele>
        <time>2021-03-12T12:08:04.000Z</time>
      </trkpt>
      <trkpt lat="46.50431" lon="5.33461">
        <ele>218.80000305176</ele>
        <time>2021-03-12T12:08:05.000Z</time>
      </trkpt>
      <trkpt lat="46.50435" lon="5.33453">
        <ele>218.60000610352</ele>
        <time>2021-03-12T12:08:06.000Z</time>
      </trkpt>
      <trkpt lat="46.50444" lon="5.33433">
        <ele>217.80000305176</ele>
        <time>2021-03-12T12:08:08.000Z</time>
      </trkpt>
      <trkpt lat="46.5045" lon="5.33412">
        <ele>217.39999389648</ele>
        <time>2021-03-12T12:08:10.000Z</time>
      </trkpt>
      <trkpt lat="46.50454" lon="5.33399">
        <ele>217.39999389648</ele>
        <time>2021-03-12T12:08:11.000Z</time>
      </trkpt>
      <trkpt lat="46.50457" lon="5.33385">
        <ele>217.39999389648</ele>
        <time>2021-03-12T12:08:12.000Z</time>
      </trkpt>
      <trkpt lat="46.5046" lon="5.33373">
        <ele>217.19999694824</ele>
        <time>2021-03-12T12:08:13.000Z</time>
      </trkpt>
      <trkpt lat="46.50463" lon="5.3336">
        <ele>217</ele>
        <time>2021-03-12T12:08:14.000Z</time>
      </trkpt>
      <trkpt lat="46.50464" lon="5.33338">
        <ele>216.80000305176</ele>
        <time>2021-03-12T12:08:16.000Z</time>
      </trkpt>
      <trkpt lat="46.50465" lon="5.33315">
        <ele>216.60000610352</ele>
        <time>2021-03-12T12:08:18.000Z</time>
      </trkpt>
      <trkpt lat="46.50466" lon="5.33292">
        <ele>216.60000610352</ele>
        <time>2021-03-12T12:08:20.000Z</time>
      </trkpt>
      <trkpt lat="46.50467" lon="5.3327">
        <ele>216.60000610352</ele>
        <time>2021-03-12T12:08:22.000Z</time>
      </trkpt>
      <trkpt lat="46.50468" lon="5.33248">
        <ele>216.60000610352</ele>
        <time>2021-03-12T12:08:24.000Z</time>
      </trkpt>
      <trkpt lat="46.50469" lon="5.33228">
        <ele>216.80000305176</ele>
        <time>2021-03-12T12:08:26.000Z</time>
      </trkpt>
      <trkpt lat="46.5047" lon="5.33209">
        <ele>217</ele>
        <time>2021-03-12T12:08:28.000Z</time>
      </trkpt>
      <trkpt lat="46.50471" lon="5.33199">
        <ele>217</ele>
        <time>2021-03-12T12:08:29.000Z</time>
      </trkpt>
      <trkpt lat="46.50472" lon="5.33189">
        <ele>217</ele>
        <time>2021-03-12T12:08:30.000Z</time>
      </trkpt>
      <trkpt lat="46.50473" lon="5.33168">
        <ele>217</ele>
        <time>2021-03-12T12:08:32.000Z</time>
      </trkpt>
      <trkpt lat="46.50473" lon="5.33147">
        <ele>217.19999694824</ele>
        <time>2021-03-12T12:08:34.000Z</time>
      </trkpt>
      <trkpt lat="46.50474" lon="5.33123">
        <ele>217.19999694824</ele>
        <time>2021-03-12T12:08:36.000Z</time>
      </trkpt>
      <trkpt lat="46.50475" lon="5.33099">
        <ele>217.19999694824</ele>
        <time>2021-03-12T12:08:38.000Z</time>
      </trkpt>
      <trkpt lat="46.50475" lon="5.33073">
        <ele>216.80000305176</ele>
        <time>2021-03-12T12:08:40.000Z</time>
      </trkpt>
      <trkpt lat="46.50475" lon="5.33046">
        <ele>216</ele>
        <time>2021-03-12T12:08:42.000Z</time>
      </trkpt>
      <trkpt lat="46.50476" lon="5.33033">
        <ele>215.60000610352</ele>
        <time>2021-03-12T12:08:43.000Z</time>
      </trkpt>
      <trkpt lat="46.50476" lon="5.33019">
        <ele>215.19999694824</ele>
        <time>2021-03-12T12:08:44.000Z</time>
      </trkpt>
      <trkpt lat="46.50476" lon="5.33005">
        <ele>214.80000305176</ele>
        <time>2021-03-12T12:08:45.000Z</time>
      </trkpt>
      <trkpt lat="46.50477" lon="5.32992">
        <ele>214.19999694824</ele>
        <time>2021-03-12T12:08:46.000Z</time>
      </trkpt>
      <trkpt lat="46.50477" lon="5.32964">
        <ele>213.19999694824</ele>
        <time>2021-03-12T12:08:48.000Z</time>
      </trkpt>
      <trkpt lat="46.50477" lon="5.32936">
        <ele>212</ele>
        <time>2021-03-12T12:08:50.000Z</time>
      </trkpt>
      <trkpt lat="46.50478" lon="5.32909">
        <ele>210.39999389648</ele>
        <time>2021-03-12T12:08:52.000Z</time>
      </trkpt>
      <trkpt lat="46.50478" lon="5.3288">
        <ele>208.80000305176</ele>
        <time>2021-03-12T12:08:54.000Z</time>
      </trkpt>
      <trkpt lat="46.50479" lon="5.32852">
        <ele>208.19999694824</ele>
        <time>2021-03-12T12:08:56.000Z</time>
      </trkpt>
      <trkpt lat="46.50479" lon="5.32838">
        <ele>207.80000305176</ele>
        <time>2021-03-12T12:08:57.000Z</time>
      </trkpt>
      <trkpt lat="46.50479" lon="5.32824">
        <ele>207</ele>
        <time>2021-03-12T12:08:58.000Z</time>
      </trkpt>
      <trkpt lat="46.50479" lon="5.3281">
        <ele>206.39999389648</ele>
        <time>2021-03-12T12:08:59.000Z</time>
      </trkpt>
      <trkpt lat="46.50479" lon="5.32796">
        <ele>206.19999694824</ele>
        <time>2021-03-12T12:09:00.000Z</time>
      </trkpt>
      <trkpt lat="46.50479" lon="5.32769">
        <ele>205.60000610352</ele>
        <time>2021-03-12T12:09:02.000Z</time>
      </trkpt>
      <trkpt lat="46.50479" lon="5.32756">
        <ele>205.39999389648</ele>
        <time>2021-03-12T12:09:03.000Z</time>
      </trkpt>
      <trkpt lat="46.50479" lon="5.32742">
        <ele>205</ele>
        <time>2021-03-12T12:09:04.000Z</time>
      </trkpt>
      <trkpt lat="46.50479" lon="5.32717">
        <ele>204.39999389648</ele>
        <time>2021-03-12T12:09:06.000Z</time>
      </trkpt>
      <trkpt lat="46.5048" lon="5.32692">
        <ele>204</ele>
        <time>2021-03-12T12:09:08.000Z</time>
      </trkpt>
      <trkpt lat="46.5048" lon="5.32667">
        <ele>203.80000305176</ele>
        <time>2021-03-12T12:09:10.000Z</time>
      </trkpt>
      <trkpt lat="46.5048" lon="5.32643">
        <ele>203.60000610352</ele>
        <time>2021-03-12T12:09:12.000Z</time>
      </trkpt>
      <trkpt lat="46.5048" lon="5.3262">
        <ele>203.19999694824</ele>
        <time>2021-03-12T12:09:14.000Z</time>
      </trkpt>
      <trkpt lat="46.50479" lon="5.32597">
        <ele>203</ele>
        <time>2021-03-12T12:09:16.000Z</time>
      </trkpt>
      <trkpt lat="46.50478" lon="5.32573">
        <ele>202.80000305176</ele>
        <time>2021-03-12T12:09:18.000Z</time>
      </trkpt>
      <trkpt lat="46.50477" lon="5.3255">
        <ele>202.60000610352</ele>
        <time>2021-03-12T12:09:20.000Z</time>
      </trkpt>
      <trkpt lat="46.50476" lon="5.32526">
        <ele>202.39999389648</ele>
        <time>2021-03-12T12:09:22.000Z</time>
      </trkpt>
      <trkpt lat="46.50474" lon="5.32502">
        <ele>202.19999694824</ele>
        <time>2021-03-12T12:09:24.000Z</time>
      </trkpt>
      <trkpt lat="46.50474" lon="5.3249">
        <ele>202.19999694824</ele>
        <time>2021-03-12T12:09:25.000Z</time>
      </trkpt>
      <trkpt lat="46.50473" lon="5.32479">
        <ele>202.19999694824</ele>
        <time>2021-03-12T12:09:26.000Z</time>
      </trkpt>
      <trkpt lat="46.5047" lon="5.32455">
        <ele>202</ele>
        <time>2021-03-12T12:09:28.000Z</time>
      </trkpt>
      <trkpt lat="46.50467" lon="5.32432">
        <ele>201.80000305176</ele>
        <time>2021-03-12T12:09:30.000Z</time>
      </trkpt>
      <trkpt lat="46.50463" lon="5.3241">
        <ele>201.39999389648</ele>
        <time>2021-03-12T12:09:32.000Z</time>
      </trkpt>
      <trkpt lat="46.50458" lon="5.32388">
        <ele>201.39999389648</ele>
        <time>2021-03-12T12:09:34.000Z</time>
      </trkpt>
      <trkpt lat="46.50456" lon="5.32377">
        <ele>201.19999694824</ele>
        <time>2021-03-12T12:09:35.000Z</time>
      </trkpt>
      <trkpt lat="46.50453" lon="5.32366">
        <ele>201</ele>
        <time>2021-03-12T12:09:36.000Z</time>
      </trkpt>
      <trkpt lat="46.50449" lon="5.32345">
        <ele>200.60000610352</ele>
        <time>2021-03-12T12:09:38.000Z</time>
      </trkpt>
      <trkpt lat="46.50444" lon="5.32325">
        <ele>200.60000610352</ele>
        <time>2021-03-12T12:09:40.000Z</time>
      </trkpt>
      <trkpt lat="46.5044" lon="5.32305">
        <ele>200.60000610352</ele>
        <time>2021-03-12T12:09:42.000Z</time>
      </trkpt>
      <trkpt lat="46.50436" lon="5.32284">
        <ele>200.60000610352</ele>
        <time>2021-03-12T12:09:44.000Z</time>
      </trkpt>
      <trkpt lat="46.50434" lon="5.32263">
        <ele>200.60000610352</ele>
        <time>2021-03-12T12:09:46.000Z</time>
      </trkpt>
      <trkpt lat="46.50433" lon="5.32241">
        <ele>200.60000610352</ele>
        <time>2021-03-12T12:09:48.000Z</time>
      </trkpt>
      <trkpt lat="46.50433" lon="5.3223">
        <ele>200.60000610352</ele>
        <time>2021-03-12T12:09:49.000Z</time>
      </trkpt>
      <trkpt lat="46.50433" lon="5.32219">
        <ele>200.60000610352</ele>
        <time>2021-03-12T12:09:50.000Z</time>
      </trkpt>
      <trkpt lat="46.50433" lon="5.32197">
        <ele>200.60000610352</ele>
        <time>2021-03-12T12:09:52.000Z</time>
      </trkpt>
      <trkpt lat="46.50434" lon="5.32174">
        <ele>200.60000610352</ele>
        <time>2021-03-12T12:09:54.000Z</time>
      </trkpt>
      <trkpt lat="46.50434" lon="5.32151">
        <ele>200.60000610352</ele>
        <time>2021-03-12T12:09:56.000Z</time>
      </trkpt>
      <trkpt lat="46.50435" lon="5.32128">
        <ele>200.60000610352</ele>
        <time>2021-03-12T12:09:58.000Z</time>
      </trkpt>
      <trkpt lat="46.50435" lon="5.32104">
        <ele>200.60000610352</ele>
        <time>2021-03-12T12:10:00.000Z</time>
      </trkpt>
      <trkpt lat="46.50436" lon="5.32081">
        <ele>200.19999694824</ele>
        <time>2021-03-12T12:10:02.000Z</time>
      </trkpt>
      <trkpt lat="46.50436" lon="5.32057">
        <ele>199.80000305176</ele>
        <time>2021-03-12T12:10:04.000Z</time>
      </trkpt>
      <trkpt lat="46.50437" lon="5.32034">
        <ele>199.60000610352</ele>
        <time>2021-03-12T12:10:06.000Z</time>
      </trkpt>
      <trkpt lat="46.50437" lon="5.32011">
        <ele>199.19999694824</ele>
        <time>2021-03-12T12:10:08.000Z</time>
      </trkpt>
      <trkpt lat="46.50438" lon="5.31999">
        <ele>199</ele>
        <time>2021-03-12T12:10:09.000Z</time>
      </trkpt>
      <trkpt lat="46.50438" lon="5.31988">
        <ele>198.80000305176</ele>
        <time>2021-03-12T12:10:10.000Z</time>
      </trkpt>
      <trkpt lat="46.50439" lon="5.31965">
        <ele>198.19999694824</ele>
        <time>2021-03-12T12:10:12.000Z</time>
      </trkpt>
      <trkpt lat="46.50439" lon="5.31943">
        <ele>198.19999694824</ele>
        <time>2021-03-12T12:10:14.000Z</time>
      </trkpt>
      <trkpt lat="46.50439" lon="5.31933">
        <ele>198</ele>
        <time>2021-03-12T12:10:15.000Z</time>
      </trkpt>
      <trkpt lat="46.5044" lon="5.31922">
        <ele>198</ele>
        <time>2021-03-12T12:10:16.000Z</time>
      </trkpt>
      <trkpt lat="46.5044" lon="5.31901">
        <ele>197.80000305176</ele>
        <time>2021-03-12T12:10:18.000Z</time>
      </trkpt>
      <trkpt lat="46.5044" lon="5.3188">
        <ele>197.19999694824</ele>
        <time>2021-03-12T12:10:20.000Z</time>
      </trkpt>
      <trkpt lat="46.50438" lon="5.3186">
        <ele>197.19999694824</ele>
        <time>2021-03-12T12:10:22.000Z</time>
      </trkpt>
      <trkpt lat="46.50436" lon="5.31851">
        <ele>197</ele>
        <time>2021-03-12T12:10:23.000Z</time>
      </trkpt>
      <trkpt lat="46.50435" lon="5.31841">
        <ele>197</ele>
        <time>2021-03-12T12:10:24.000Z</time>
      </trkpt>
      <trkpt lat="46.50431" lon="5.31822">
        <ele>197</ele>
        <time>2021-03-12T12:10:26.000Z</time>
      </trkpt>
      <trkpt lat="46.50426" lon="5.31804">
        <ele>196.80000305176</ele>
        <time>2021-03-12T12:10:28.000Z</time>
      </trkpt>
      <trkpt lat="46.50421" lon="5.31785">
        <ele>196.80000305176</ele>
        <time>2021-03-12T12:10:30.000Z</time>
      </trkpt>
      <trkpt lat="46.50419" lon="5.31776">
        <ele>196.80000305176</ele>
        <time>2021-03-12T12:10:31.000Z</time>
      </trkpt>
      <trkpt lat="46.50417" lon="5.31767">
        <ele>196.80000305176</ele>
        <time>2021-03-12T12:10:32.000Z</time>
      </trkpt>
      <trkpt lat="46.50411" lon="5.3175">
        <ele>196.60000610352</ele>
        <time>2021-03-12T12:10:34.000Z</time>
      </trkpt>
      <trkpt lat="46.50405" lon="5.31733">
        <ele>196.60000610352</ele>
        <time>2021-03-12T12:10:36.000Z</time>
      </trkpt>
      <trkpt lat="46.50397" lon="5.31717">
        <ele>196.60000610352</ele>
        <time>2021-03-12T12:10:38.000Z</time>
      </trkpt>
      <trkpt lat="46.50389" lon="5.31701">
        <ele>196.39999389648</ele>
        <time>2021-03-12T12:10:40.000Z</time>
      </trkpt>
      <trkpt lat="46.5038" lon="5.31685">
        <ele>196.39999389648</ele>
        <time>2021-03-12T12:10:42.000Z</time>
      </trkpt>
      <trkpt lat="46.50371" lon="5.31671">
        <ele>196.39999389648</ele>
        <time>2021-03-12T12:10:44.000Z</time>
      </trkpt>
      <trkpt lat="46.50366" lon="5.31665">
        <ele>196.39999389648</ele>
        <time>2021-03-12T12:10:45.000Z</time>
      </trkpt>
      <trkpt lat="46.5036" lon="5.31659">
        <ele>196.19999694824</ele>
        <time>2021-03-12T12:10:46.000Z</time>
      </trkpt>
      <trkpt lat="46.50348" lon="5.31649">
        <ele>196.19999694824</ele>
        <time>2021-03-12T12:10:48.000Z</time>
      </trkpt>
      <trkpt lat="46.50342" lon="5.31644">
        <ele>196</ele>
        <time>2021-03-12T12:10:49.000Z</time>
      </trkpt>
      <trkpt lat="46.50336" lon="5.31639">
        <ele>195.80000305176</ele>
        <time>2021-03-12T12:10:50.000Z</time>
      </trkpt>
      <trkpt lat="46.50324" lon="5.31631">
        <ele>195.60000610352</ele>
        <time>2021-03-12T12:10:52.000Z</time>
      </trkpt>
      <trkpt lat="46.50312" lon="5.31622">
        <ele>195.60000610352</ele>
        <time>2021-03-12T12:10:54.000Z</time>
      </trkpt>
      <trkpt lat="46.503" lon="5.31614">
        <ele>195.39999389648</ele>
        <time>2021-03-12T12:10:56.000Z</time>
      </trkpt>
      <trkpt lat="46.50289" lon="5.31604">
        <ele>195.39999389648</ele>
        <time>2021-03-12T12:10:58.000Z</time>
      </trkpt>
      <trkpt lat="46.50277" lon="5.31595">
        <ele>195.39999389648</ele>
        <time>2021-03-12T12:11:00.000Z</time>
      </trkpt>
      <trkpt lat="46.50266" lon="5.31585">
        <ele>195.60000610352</ele>
        <time>2021-03-12T12:11:02.000Z</time>
      </trkpt>
      <trkpt lat="46.50256" lon="5.31574">
        <ele>195.80000305176</ele>
        <time>2021-03-12T12:11:04.000Z</time>
      </trkpt>
      <trkpt lat="46.50245" lon="5.31562">
        <ele>196</ele>
        <time>2021-03-12T12:11:06.000Z</time>
      </trkpt>
      <trkpt lat="46.50236" lon="5.3155">
        <ele>196.19999694824</ele>
        <time>2021-03-12T12:11:08.000Z</time>
      </trkpt>
      <trkpt lat="46.50228" lon="5.31536">
        <ele>196.19999694824</ele>
        <time>2021-03-12T12:11:10.000Z</time>
      </trkpt>
      <trkpt lat="46.50221" lon="5.31522">
        <ele>196.60000610352</ele>
        <time>2021-03-12T12:11:12.000Z</time>
      </trkpt>
      <trkpt lat="46.50215" lon="5.31508">
        <ele>196.80000305176</ele>
        <time>2021-03-12T12:11:14.000Z</time>
      </trkpt>
      <trkpt lat="46.50212" lon="5.31501">
        <ele>197</ele>
        <time>2021-03-12T12:11:15.000Z</time>
      </trkpt>
      <trkpt lat="46.50209" lon="5.31494">
        <ele>197</ele>
        <time>2021-03-12T12:11:16.000Z</time>
      </trkpt>
      <trkpt lat="46.50205" lon="5.31481">
        <ele>197.19999694824</ele>
        <time>2021-03-12T12:11:18.000Z</time>
      </trkpt>
      <trkpt lat="46.50203" lon="5.31475">
        <ele>197.19999694824</ele>
        <time>2021-03-12T12:11:19.000Z</time>
      </trkpt>
      <trkpt lat="46.50201" lon="5.31469">
        <ele>197.19999694824</ele>
        <time>2021-03-12T12:11:20.000Z</time>
      </trkpt>
      <trkpt lat="46.50197" lon="5.31457">
        <ele>197.80000305176</ele>
        <time>2021-03-12T12:11:22.000Z</time>
      </trkpt>
      <trkpt lat="46.50195" lon="5.31452">
        <ele>198.19999694824</ele>
        <time>2021-03-12T12:11:23.000Z</time>
      </trkpt>
      <trkpt lat="46.50193" lon="5.31446">
        <ele>198.19999694824</ele>
        <time>2021-03-12T12:11:24.000Z</time>
      </trkpt>
      <trkpt lat="46.50189" lon="5.31436">
        <ele>199</ele>
        <time>2021-03-12T12:11:26.000Z</time>
      </trkpt>
      <trkpt lat="46.50188" lon="5.31431">
        <ele>199.39999389648</ele>
        <time>2021-03-12T12:11:27.000Z</time>
      </trkpt>
      <trkpt lat="46.50186" lon="5.31426">
        <ele>199.80000305176</ele>
        <time>2021-03-12T12:11:28.000Z</time>
      </trkpt>
      <trkpt lat="46.50182" lon="5.31416">
        <ele>200.39999389648</ele>
        <time>2021-03-12T12:11:30.000Z</time>
      </trkpt>
      <trkpt lat="46.50179" lon="5.31406">
        <ele>201</ele>
        <time>2021-03-12T12:11:32.000Z</time>
      </trkpt>
      <trkpt lat="46.50176" lon="5.31396">
        <ele>201.60000610352</ele>
        <time>2021-03-12T12:11:34.000Z</time>
      </trkpt>
      <trkpt lat="46.50172" lon="5.31385">
        <ele>202</ele>
        <time>2021-03-12T12:11:36.000Z</time>
      </trkpt>
      <trkpt lat="46.50169" lon="5.31373">
        <ele>202.39999389648</ele>
        <time>2021-03-12T12:11:38.000Z</time>
      </trkpt>
      <trkpt lat="46.50167" lon="5.31368">
        <ele>202.80000305176</ele>
        <time>2021-03-12T12:11:39.000Z</time>
      </trkpt>
      <trkpt lat="46.50165" lon="5.31362">
        <ele>203</ele>
        <time>2021-03-12T12:11:40.000Z</time>
      </trkpt>
      <trkpt lat="46.50161" lon="5.3135">
        <ele>203.39999389648</ele>
        <time>2021-03-12T12:11:42.000Z</time>
      </trkpt>
      <trkpt lat="46.50157" lon="5.31339">
        <ele>203.80000305176</ele>
        <time>2021-03-12T12:11:44.000Z</time>
      </trkpt>
      <trkpt lat="46.50154" lon="5.31327">
        <ele>204</ele>
        <time>2021-03-12T12:11:46.000Z</time>
      </trkpt>
      <trkpt lat="46.50149" lon="5.31315">
        <ele>204.60000610352</ele>
        <time>2021-03-12T12:11:48.000Z</time>
      </trkpt>
      <trkpt lat="46.50145" lon="5.31302">
        <ele>204.60000610352</ele>
        <time>2021-03-12T12:11:50.000Z</time>
      </trkpt>
      <trkpt lat="46.5014" lon="5.3129">
        <ele>204.60000610352</ele>
        <time>2021-03-12T12:11:52.000Z</time>
      </trkpt>
      <trkpt lat="46.50136" lon="5.31277">
        <ele>204.60000610352</ele>
        <time>2021-03-12T12:11:54.000Z</time>
      </trkpt>
      <trkpt lat="46.50134" lon="5.3127">
        <ele>204.60000610352</ele>
        <time>2021-03-12T12:11:55.000Z</time>
      </trkpt>
      <trkpt lat="46.50132" lon="5.31262">
        <ele>204.60000610352</ele>
        <time>2021-03-12T12:11:56.000Z</time>
      </trkpt>
      <trkpt lat="46.50127" lon="5.31247">
        <ele>204.60000610352</ele>
        <time>2021-03-12T12:11:58.000Z</time>
      </trkpt>
      <trkpt lat="46.50122" lon="5.31232">
        <ele>204.60000610352</ele>
        <time>2021-03-12T12:12:00.000Z</time>
      </trkpt>
      <trkpt lat="46.50119" lon="5.31224">
        <ele>204.60000610352</ele>
        <time>2021-03-12T12:12:01.000Z</time>
      </trkpt>
      <trkpt lat="46.50116" lon="5.31215">
        <ele>204.60000610352</ele>
        <time>2021-03-12T12:12:02.000Z</time>
      </trkpt>
      <trkpt lat="46.5011" lon="5.31198">
        <ele>204.60000610352</ele>
        <time>2021-03-12T12:12:04.000Z</time>
      </trkpt>
      <trkpt lat="46.50104" lon="5.3118">
        <ele>204.39999389648</ele>
        <time>2021-03-12T12:12:06.000Z</time>
      </trkpt>
      <trkpt lat="46.50098" lon="5.31161">
        <ele>203.80000305176</ele>
        <time>2021-03-12T12:12:08.000Z</time>
      </trkpt>
      <trkpt lat="46.50094" lon="5.31151">
        <ele>203.60000610352</ele>
        <time>2021-03-12T12:12:09.000Z</time>
      </trkpt>
      <trkpt lat="46.50091" lon="5.31142">
        <ele>203.39999389648</ele>
        <time>2021-03-12T12:12:10.000Z</time>
      </trkpt>
      <trkpt lat="46.50085" lon="5.31123">
        <ele>203</ele>
        <time>2021-03-12T12:12:12.000Z</time>
      </trkpt>
      <trkpt lat="46.50078" lon="5.31106">
        <ele>202.80000305176</ele>
        <time>2021-03-12T12:12:14.000Z</time>
      </trkpt>
      <trkpt lat="46.50073" lon="5.31089">
        <ele>201.80000305176</ele>
        <time>2021-03-12T12:12:16.000Z</time>
      </trkpt>
      <trkpt lat="46.5007" lon="5.31081">
        <ele>201.60000610352</ele>
        <time>2021-03-12T12:12:17.000Z</time>
      </trkpt>
      <trkpt lat="46.50068" lon="5.31074">
        <ele>201.60000610352</ele>
        <time>2021-03-12T12:12:18.000Z</time>
      </trkpt>
      <trkpt lat="46.50063" lon="5.3106">
        <ele>201.60000610352</ele>
        <time>2021-03-12T12:12:20.000Z</time>
      </trkpt>
      <trkpt lat="46.50059" lon="5.31047">
        <ele>201.60000610352</ele>
        <time>2021-03-12T12:12:22.000Z</time>
      </trkpt>
      <trkpt lat="46.50057" lon="5.31041">
        <ele>201.60000610352</ele>
        <time>2021-03-12T12:12:23.000Z</time>
      </trkpt>
      <trkpt lat="46.50055" lon="5.31036">
        <ele>201.60000610352</ele>
        <time>2021-03-12T12:12:24.000Z</time>
      </trkpt>
      <trkpt lat="46.50051" lon="5.31026">
        <ele>201.80000305176</ele>
        <time>2021-03-12T12:12:26.000Z</time>
      </trkpt>
      <trkpt lat="46.50048" lon="5.31017">
        <ele>202.60000610352</ele>
        <time>2021-03-12T12:12:28.000Z</time>
      </trkpt>
      <trkpt lat="46.50046" lon="5.31012">
        <ele>203</ele>
        <time>2021-03-12T12:12:29.000Z</time>
      </trkpt>
      <trkpt lat="46.50045" lon="5.31008">
        <ele>203.39999389648</ele>
        <time>2021-03-12T12:12:30.000Z</time>
      </trkpt>
      <trkpt lat="46.50042" lon="5.30998">
        <ele>204.39999389648</ele>
        <time>2021-03-12T12:12:32.000Z</time>
      </trkpt>
      <trkpt lat="46.50038" lon="5.30989">
        <ele>205</ele>
        <time>2021-03-12T12:12:34.000Z</time>
      </trkpt>
      <trkpt lat="46.50035" lon="5.30979">
        <ele>205.19999694824</ele>
        <time>2021-03-12T12:12:36.000Z</time>
      </trkpt>
      <trkpt lat="46.50031" lon="5.30968">
        <ele>205.60000610352</ele>
        <time>2021-03-12T12:12:38.000Z</time>
      </trkpt>
      <trkpt lat="46.50029" lon="5.30963">
        <ele>206.19999694824</ele>
        <time>2021-03-12T12:12:39.000Z</time>
      </trkpt>
      <trkpt lat="46.50028" lon="5.30958">
        <ele>206.19999694824</ele>
        <time>2021-03-12T12:12:40.000Z</time>
      </trkpt>
      <trkpt lat="46.50024" lon="5.30948">
        <ele>206.80000305176</ele>
        <time>2021-03-12T12:12:42.000Z</time>
      </trkpt>
      <trkpt lat="46.5002" lon="5.30938">
        <ele>207.60000610352</ele>
        <time>2021-03-12T12:12:44.000Z</time>
      </trkpt>
      <trkpt lat="46.50019" lon="5.30933">
        <ele>208</ele>
        <time>2021-03-12T12:12:45.000Z</time>
      </trkpt>
      <trkpt lat="46.50017" lon="5.30928">
        <ele>208.19999694824</ele>
        <time>2021-03-12T12:12:46.000Z</time>
      </trkpt>
      <trkpt lat="46.50013" lon="5.30918">
        <ele>208.60000610352</ele>
        <time>2021-03-12T12:12:48.000Z</time>
      </trkpt>
      <trkpt lat="46.50011" lon="5.30913">
        <ele>208.80000305176</ele>
        <time>2021-03-12T12:12:49.000Z</time>
      </trkpt>
      <trkpt lat="46.5001" lon="5.30908">
        <ele>209</ele>
        <time>2021-03-12T12:12:50.000Z</time>
      </trkpt>
      <trkpt lat="46.50008" lon="5.30904">
        <ele>209</ele>
        <time>2021-03-12T12:12:51.000Z</time>
      </trkpt>
      <trkpt lat="46.50006" lon="5.30899">
        <ele>209.19999694824</ele>
        <time>2021-03-12T12:12:52.000Z</time>
      </trkpt>
      <trkpt lat="46.50003" lon="5.3089">
        <ele>209.60000610352</ele>
        <time>2021-03-12T12:12:54.000Z</time>
      </trkpt>
      <trkpt lat="46.49999" lon="5.30881">
        <ele>210</ele>
        <time>2021-03-12T12:12:56.000Z</time>
      </trkpt>
      <trkpt lat="46.49998" lon="5.30877">
        <ele>210.19999694824</ele>
        <time>2021-03-12T12:12:57.000Z</time>
      </trkpt>
      <trkpt lat="46.49996" lon="5.30872">
        <ele>210.19999694824</ele>
        <time>2021-03-12T12:12:58.000Z</time>
      </trkpt>
      <trkpt lat="46.49993" lon="5.30863">
        <ele>210.39999389648</ele>
        <time>2021-03-12T12:13:00.000Z</time>
      </trkpt>
      <trkpt lat="46.49989" lon="5.30854">
        <ele>210.39999389648</ele>
        <time>2021-03-12T12:13:02.000Z</time>
      </trkpt>
      <trkpt lat="46.49986" lon="5.30843">
        <ele>211.19999694824</ele>
        <time>2021-03-12T12:13:04.000Z</time>
      </trkpt>
      <trkpt lat="46.49982" lon="5.30833">
        <ele>211.60000610352</ele>
        <time>2021-03-12T12:13:06.000Z</time>
      </trkpt>
      <trkpt lat="46.49981" lon="5.30827">
        <ele>211.80000305176</ele>
        <time>2021-03-12T12:13:07.000Z</time>
      </trkpt>
      <trkpt lat="46.49979" lon="5.30822">
        <ele>212</ele>
        <time>2021-03-12T12:13:08.000Z</time>
      </trkpt>
      <trkpt lat="46.49978" lon="5.30817">
        <ele>212.39999389648</ele>
        <time>2021-03-12T12:13:09.000Z</time>
      </trkpt>
      <trkpt lat="46.49976" lon="5.30812">
        <ele>212.80000305176</ele>
        <time>2021-03-12T12:13:10.000Z</time>
      </trkpt>
      <trkpt lat="46.49973" lon="5.30801">
        <ele>213.19999694824</ele>
        <time>2021-03-12T12:13:12.000Z</time>
      </trkpt>
      <trkpt lat="46.49972" lon="5.30795">
        <ele>213.39999389648</ele>
        <time>2021-03-12T12:13:13.000Z</time>
      </trkpt>
      <trkpt lat="46.49971" lon="5.3079">
        <ele>213.60000610352</ele>
        <time>2021-03-12T12:13:14.000Z</time>
      </trkpt>
      <trkpt lat="46.49968" lon="5.30779">
        <ele>214</ele>
        <time>2021-03-12T12:13:16.000Z</time>
      </trkpt>
      <trkpt lat="46.49967" lon="5.30773">
        <ele>214.19999694824</ele>
        <time>2021-03-12T12:13:17.000Z</time>
      </trkpt>
      <trkpt lat="46.49966" lon="5.30767">
        <ele>214.39999389648</ele>
        <time>2021-03-12T12:13:18.000Z</time>
      </trkpt>
      <trkpt lat="46.49964" lon="5.30756">
        <ele>214.39999389648</ele>
        <time>2021-03-12T12:13:20.000Z</time>
      </trkpt>
      <trkpt lat="46.49962" lon="5.30747">
        <ele>214.39999389648</ele>
        <time>2021-03-12T12:13:22.000Z</time>
      </trkpt>
      <trkpt lat="46.49961" lon="5.30742">
        <ele>214.60000610352</ele>
        <time>2021-03-12T12:13:23.000Z</time>
      </trkpt>
      <trkpt lat="46.49961" lon="5.30736">
        <ele>214.60000610352</ele>
        <time>2021-03-12T12:13:24.000Z</time>
      </trkpt>
      <trkpt lat="46.49958" lon="5.30725">
        <ele>214.60000610352</ele>
        <time>2021-03-12T12:13:26.000Z</time>
      </trkpt>
      <trkpt lat="46.49956" lon="5.30711">
        <ele>214.60000610352</ele>
        <time>2021-03-12T12:13:28.000Z</time>
      </trkpt>
      <trkpt lat="46.49955" lon="5.30704">
        <ele>214.60000610352</ele>
        <time>2021-03-12T12:13:29.000Z</time>
      </trkpt>
      <trkpt lat="46.49953" lon="5.30696">
        <ele>214.60000610352</ele>
        <time>2021-03-12T12:13:30.000Z</time>
      </trkpt>
      <trkpt lat="46.4995" lon="5.30679">
        <ele>214.60000610352</ele>
        <time>2021-03-12T12:13:32.000Z</time>
      </trkpt>
      <trkpt lat="46.49947" lon="5.30661">
        <ele>214.60000610352</ele>
        <time>2021-03-12T12:13:34.000Z</time>
      </trkpt>
      <trkpt lat="46.49945" lon="5.30651">
        <ele>214.60000610352</ele>
        <time>2021-03-12T12:13:35.000Z</time>
      </trkpt>
      <trkpt lat="46.49943" lon="5.30642">
        <ele>214.60000610352</ele>
        <time>2021-03-12T12:13:36.000Z</time>
      </trkpt>
      <trkpt lat="46.4994" lon="5.30622">
        <ele>214.60000610352</ele>
        <time>2021-03-12T12:13:38.000Z</time>
      </trkpt>
      <trkpt lat="46.49938" lon="5.30602">
        <ele>214.19999694824</ele>
        <time>2021-03-12T12:13:40.000Z</time>
      </trkpt>
      <trkpt lat="46.49938" lon="5.30591">
        <ele>213.80000305176</ele>
        <time>2021-03-12T12:13:41.000Z</time>
      </trkpt>
      <trkpt lat="46.49937" lon="5.3058">
        <ele>213.39999389648</ele>
        <time>2021-03-12T12:13:42.000Z</time>
      </trkpt>
      <trkpt lat="46.49938" lon="5.30558">
        <ele>212.19999694824</ele>
        <time>2021-03-12T12:13:44.000Z</time>
      </trkpt>
      <trkpt lat="46.49941" lon="5.30536">
        <ele>211.39999389648</ele>
        <time>2021-03-12T12:13:46.000Z</time>
      </trkpt>
      <trkpt lat="46.49946" lon="5.30513">
        <ele>211</ele>
        <time>2021-03-12T12:13:48.000Z</time>
      </trkpt>
      <trkpt lat="46.49954" lon="5.30492">
        <ele>210.60000610352</ele>
        <time>2021-03-12T12:13:50.000Z</time>
      </trkpt>
      <trkpt lat="46.49965" lon="5.30472">
        <ele>210.19999694824</ele>
        <time>2021-03-12T12:13:52.000Z</time>
      </trkpt>
      <trkpt lat="46.49977" lon="5.30455">
        <ele>209.80000305176</ele>
        <time>2021-03-12T12:13:54.000Z</time>
      </trkpt>
      <trkpt lat="46.49992" lon="5.3044">
        <ele>209.19999694824</ele>
        <time>2021-03-12T12:13:56.000Z</time>
      </trkpt>
      <trkpt lat="46.50008" lon="5.30427">
        <ele>208.80000305176</ele>
        <time>2021-03-12T12:13:58.000Z</time>
      </trkpt>
      <trkpt lat="46.50016" lon="5.30421">
        <ele>208.60000610352</ele>
        <time>2021-03-12T12:13:59.000Z</time>
      </trkpt>
      <trkpt lat="46.50023" lon="5.30414">
        <ele>208.19999694824</ele>
        <time>2021-03-12T12:14:00.000Z</time>
      </trkpt>
      <trkpt lat="46.50031" lon="5.30408">
        <ele>207.60000610352</ele>
        <time>2021-03-12T12:14:01.000Z</time>
      </trkpt>
      <trkpt lat="46.50039" lon="5.30401">
        <ele>207.39999389648</ele>
        <time>2021-03-12T12:14:02.000Z</time>
      </trkpt>
      <trkpt lat="46.50053" lon="5.30386">
        <ele>206.80000305176</ele>
        <time>2021-03-12T12:14:04.000Z</time>
      </trkpt>
      <trkpt lat="46.50059" lon="5.30377">
        <ele>206.39999389648</ele>
        <time>2021-03-12T12:14:05.000Z</time>
      </trkpt>
      <trkpt lat="46.50064" lon="5.30368">
        <ele>205.80000305176</ele>
        <time>2021-03-12T12:14:06.000Z</time>
      </trkpt>
      <trkpt lat="46.50074" lon="5.3035">
        <ele>205.19999694824</ele>
        <time>2021-03-12T12:14:08.000Z</time>
      </trkpt>
      <trkpt lat="46.50081" lon="5.30331">
        <ele>205.19999694824</ele>
        <time>2021-03-12T12:14:10.000Z</time>
      </trkpt>
      <trkpt lat="46.50086" lon="5.30312">
        <ele>205</ele>
        <time>2021-03-12T12:14:12.000Z</time>
      </trkpt>
      <trkpt lat="46.50089" lon="5.30294">
        <ele>205</ele>
        <time>2021-03-12T12:14:14.000Z</time>
      </trkpt>
      <trkpt lat="46.5009" lon="5.30285">
        <ele>205</ele>
        <time>2021-03-12T12:14:15.000Z</time>
      </trkpt>
      <trkpt lat="46.50091" lon="5.30276">
        <ele>205.19999694824</ele>
        <time>2021-03-12T12:14:16.000Z</time>
      </trkpt>
      <trkpt lat="46.50091" lon="5.30258">
        <ele>205.80000305176</ele>
        <time>2021-03-12T12:14:18.000Z</time>
      </trkpt>
      <trkpt lat="46.50092" lon="5.3024">
        <ele>206.39999389648</ele>
        <time>2021-03-12T12:14:20.000Z</time>
      </trkpt>
      <trkpt lat="46.50093" lon="5.30232">
        <ele>206.80000305176</ele>
        <time>2021-03-12T12:14:21.000Z</time>
      </trkpt>
      <trkpt lat="46.50093" lon="5.30223">
        <ele>207.19999694824</ele>
        <time>2021-03-12T12:14:22.000Z</time>
      </trkpt>
      <trkpt lat="46.50093" lon="5.30206">
        <ele>207.39999389648</ele>
        <time>2021-03-12T12:14:24.000Z</time>
      </trkpt>
      <trkpt lat="46.50094" lon="5.30188">
        <ele>207.60000610352</ele>
        <time>2021-03-12T12:14:26.000Z</time>
      </trkpt>
      <trkpt lat="46.50093" lon="5.30178">
        <ele>207.60000610352</ele>
        <time>2021-03-12T12:14:27.000Z</time>
      </trkpt>
      <trkpt lat="46.50093" lon="5.30168">
        <ele>207.80000305176</ele>
        <time>2021-03-12T12:14:28.000Z</time>
      </trkpt>
      <trkpt lat="46.50093" lon="5.3015">
        <ele>207.80000305176</ele>
        <time>2021-03-12T12:14:30.000Z</time>
      </trkpt>
      <trkpt lat="46.50092" lon="5.30132">
        <ele>207.80000305176</ele>
        <time>2021-03-12T12:14:32.000Z</time>
      </trkpt>
      <trkpt lat="46.50092" lon="5.30122">
        <ele>207.80000305176</ele>
        <time>2021-03-12T12:14:33.000Z</time>
      </trkpt>
      <trkpt lat="46.50092" lon="5.30113">
        <ele>207.80000305176</ele>
        <time>2021-03-12T12:14:34.000Z</time>
      </trkpt>
      <trkpt lat="46.50093" lon="5.30095">
        <ele>208</ele>
        <time>2021-03-12T12:14:36.000Z</time>
      </trkpt>
      <trkpt lat="46.50093" lon="5.30077">
        <ele>208.39999389648</ele>
        <time>2021-03-12T12:14:38.000Z</time>
      </trkpt>
      <trkpt lat="46.50092" lon="5.30059">
        <ele>208.60000610352</ele>
        <time>2021-03-12T12:14:40.000Z</time>
      </trkpt>
      <trkpt lat="46.50092" lon="5.3005">
        <ele>208.60000610352</ele>
        <time>2021-03-12T12:14:41.000Z</time>
      </trkpt>
      <trkpt lat="46.50092" lon="5.30042">
        <ele>208.80000305176</ele>
        <time>2021-03-12T12:14:42.000Z</time>
      </trkpt>
      <trkpt lat="46.50092" lon="5.30025">
        <ele>208.80000305176</ele>
        <time>2021-03-12T12:14:44.000Z</time>
      </trkpt>
      <trkpt lat="46.5009" lon="5.30007">
        <ele>208.80000305176</ele>
        <time>2021-03-12T12:14:46.000Z</time>
      </trkpt>
      <trkpt lat="46.50089" lon="5.29998">
        <ele>208.80000305176</ele>
        <time>2021-03-12T12:14:47.000Z</time>
      </trkpt>
      <trkpt lat="46.50087" lon="5.29989">
        <ele>208.80000305176</ele>
        <time>2021-03-12T12:14:48.000Z</time>
      </trkpt>
      <trkpt lat="46.50083" lon="5.29971">
        <ele>208.80000305176</ele>
        <time>2021-03-12T12:14:50.000Z</time>
      </trkpt>
      <trkpt lat="46.50077" lon="5.29953">
        <ele>208.80000305176</ele>
        <time>2021-03-12T12:14:52.000Z</time>
      </trkpt>
      <trkpt lat="46.50071" lon="5.29937">
        <ele>208.80000305176</ele>
        <time>2021-03-12T12:14:54.000Z</time>
      </trkpt>
      <trkpt lat="46.50063" lon="5.29921">
        <ele>208.80000305176</ele>
        <time>2021-03-12T12:14:56.000Z</time>
      </trkpt>
      <trkpt lat="46.50054" lon="5.29906">
        <ele>208.80000305176</ele>
        <time>2021-03-12T12:14:58.000Z</time>
      </trkpt>
      <trkpt lat="46.50049" lon="5.29899">
        <ele>208.80000305176</ele>
        <time>2021-03-12T12:14:59.000Z</time>
      </trkpt>
      <trkpt lat="46.50044" lon="5.29893">
        <ele>208.60000610352</ele>
        <time>2021-03-12T12:15:00.000Z</time>
      </trkpt>
      <trkpt lat="46.50033" lon="5.29881">
        <ele>208.39999389648</ele>
        <time>2021-03-12T12:15:02.000Z</time>
      </trkpt>
      <trkpt lat="46.50022" lon="5.29869">
        <ele>208.19999694824</ele>
        <time>2021-03-12T12:15:04.000Z</time>
      </trkpt>
      <trkpt lat="46.5001" lon="5.29859">
        <ele>208</ele>
        <time>2021-03-12T12:15:06.000Z</time>
      </trkpt>
      <trkpt lat="46.50004" lon="5.29856">
        <ele>207.80000305176</ele>
        <time>2021-03-12T12:15:07.000Z</time>
      </trkpt>
      <trkpt lat="46.49997" lon="5.29853">
        <ele>207.60000610352</ele>
        <time>2021-03-12T12:15:08.000Z</time>
      </trkpt>
      <trkpt lat="46.49984" lon="5.29852">
        <ele>207.19999694824</ele>
        <time>2021-03-12T12:15:10.000Z</time>
      </trkpt>
      <trkpt lat="46.49978" lon="5.29852">
        <ele>207.19999694824</ele>
        <time>2021-03-12T12:15:11.000Z</time>
      </trkpt>
      <trkpt lat="46.49971" lon="5.29851">
        <ele>207.19999694824</ele>
        <time>2021-03-12T12:15:12.000Z</time>
      </trkpt>
      <trkpt lat="46.49959" lon="5.2985">
        <ele>207.19999694824</ele>
        <time>2021-03-12T12:15:14.000Z</time>
      </trkpt>
      <trkpt lat="46.49947" lon="5.29847">
        <ele>207.19999694824</ele>
        <time>2021-03-12T12:15:16.000Z</time>
      </trkpt>
      <trkpt lat="46.49936" lon="5.29843">
        <ele>207.19999694824</ele>
        <time>2021-03-12T12:15:18.000Z</time>
      </trkpt>
      <trkpt lat="46.49925" lon="5.29839">
        <ele>207.19999694824</ele>
        <time>2021-03-12T12:15:20.000Z</time>
      </trkpt>
      <trkpt lat="46.49914" lon="5.29836">
        <ele>207.19999694824</ele>
        <time>2021-03-12T12:15:22.000Z</time>
      </trkpt>
      <trkpt lat="46.49905" lon="5.29832">
        <ele>207.80000305176</ele>
        <time>2021-03-12T12:15:24.000Z</time>
      </trkpt>
      <trkpt lat="46.49895" lon="5.29828">
        <ele>208</ele>
        <time>2021-03-12T12:15:26.000Z</time>
      </trkpt>
      <trkpt lat="46.49886" lon="5.29824">
        <ele>208</ele>
        <time>2021-03-12T12:15:28.000Z</time>
      </trkpt>
      <trkpt lat="46.49877" lon="5.29819">
        <ele>208.39999389648</ele>
        <time>2021-03-12T12:15:30.000Z</time>
      </trkpt>
      <trkpt lat="46.49868" lon="5.29815">
        <ele>208.60000610352</ele>
        <time>2021-03-12T12:15:32.000Z</time>
      </trkpt>
      <trkpt lat="46.49858" lon="5.29812">
        <ele>209</ele>
        <time>2021-03-12T12:15:34.000Z</time>
      </trkpt>
      <trkpt lat="46.49849" lon="5.29809">
        <ele>209.60000610352</ele>
        <time>2021-03-12T12:15:36.000Z</time>
      </trkpt>
      <trkpt lat="46.4984" lon="5.29805">
        <ele>210</ele>
        <time>2021-03-12T12:15:38.000Z</time>
      </trkpt>
      <trkpt lat="46.4983" lon="5.29802">
        <ele>210.39999389648</ele>
        <time>2021-03-12T12:15:40.000Z</time>
      </trkpt>
      <trkpt lat="46.49821" lon="5.29799">
        <ele>210.39999389648</ele>
        <time>2021-03-12T12:15:42.000Z</time>
      </trkpt>
      <trkpt lat="46.49816" lon="5.29797">
        <ele>210.39999389648</ele>
        <time>2021-03-12T12:15:43.000Z</time>
      </trkpt>
      <trkpt lat="46.49811" lon="5.29796">
        <ele>210.39999389648</ele>
        <time>2021-03-12T12:15:44.000Z</time>
      </trkpt>
      <trkpt lat="46.49801" lon="5.29793">
        <ele>210.80000305176</ele>
        <time>2021-03-12T12:15:46.000Z</time>
      </trkpt>
      <trkpt lat="46.49791" lon="5.2979">
        <ele>211.39999389648</ele>
        <time>2021-03-12T12:15:48.000Z</time>
      </trkpt>
      <trkpt lat="46.49781" lon="5.29788">
        <ele>211.60000610352</ele>
        <time>2021-03-12T12:15:50.000Z</time>
      </trkpt>
      <trkpt lat="46.49771" lon="5.29787">
        <ele>211.60000610352</ele>
        <time>2021-03-12T12:15:52.000Z</time>
      </trkpt>
      <trkpt lat="46.49766" lon="5.29787">
        <ele>211.80000305176</ele>
        <time>2021-03-12T12:15:53.000Z</time>
      </trkpt>
      <trkpt lat="46.49761" lon="5.29786">
        <ele>211.80000305176</ele>
        <time>2021-03-12T12:15:54.000Z</time>
      </trkpt>
      <trkpt lat="46.4975" lon="5.29788">
        <ele>211.80000305176</ele>
        <time>2021-03-12T12:15:56.000Z</time>
      </trkpt>
      <trkpt lat="46.49746" lon="5.2979">
        <ele>211.80000305176</ele>
        <time>2021-03-12T12:15:57.000Z</time>
      </trkpt>
      <trkpt lat="46.49741" lon="5.29794">
        <ele>211.80000305176</ele>
        <time>2021-03-12T12:15:58.000Z</time>
      </trkpt>
      <trkpt lat="46.49732" lon="5.29804">
        <ele>211.80000305176</ele>
        <time>2021-03-12T12:16:00.000Z</time>
      </trkpt>
      <trkpt lat="46.49728" lon="5.2981">
        <ele>211.80000305176</ele>
        <time>2021-03-12T12:16:01.000Z</time>
      </trkpt>
      <trkpt lat="46.49724" lon="5.29815">
        <ele>211.80000305176</ele>
        <time>2021-03-12T12:16:02.000Z</time>
      </trkpt>
      <trkpt lat="46.49715" lon="5.29827">
        <ele>212</ele>
        <time>2021-03-12T12:16:04.000Z</time>
      </trkpt>
      <trkpt lat="46.49707" lon="5.2984">
        <ele>212</ele>
        <time>2021-03-12T12:16:06.000Z</time>
      </trkpt>
      <trkpt lat="46.497" lon="5.29855">
        <ele>212</ele>
        <time>2021-03-12T12:16:08.000Z</time>
      </trkpt>
      <trkpt lat="46.49694" lon="5.29872">
        <ele>211.80000305176</ele>
        <time>2021-03-12T12:16:10.000Z</time>
      </trkpt>
      <trkpt lat="46.49689" lon="5.29891">
        <ele>211.60000610352</ele>
        <time>2021-03-12T12:16:12.000Z</time>
      </trkpt>
      <trkpt lat="46.49687" lon="5.29901">
        <ele>211.60000610352</ele>
        <time>2021-03-12T12:16:13.000Z</time>
      </trkpt>
      <trkpt lat="46.49684" lon="5.29912">
        <ele>211.60000610352</ele>
        <time>2021-03-12T12:16:14.000Z</time>
      </trkpt>
      <trkpt lat="46.4968" lon="5.29933">
        <ele>211.19999694824</ele>
        <time>2021-03-12T12:16:16.000Z</time>
      </trkpt>
      <trkpt lat="46.49676" lon="5.29954">
        <ele>211</ele>
        <time>2021-03-12T12:16:18.000Z</time>
      </trkpt>
      <trkpt lat="46.49671" lon="5.29974">
        <ele>210.80000305176</ele>
        <time>2021-03-12T12:16:20.000Z</time>
      </trkpt>
      <trkpt lat="46.49669" lon="5.29983">
        <ele>210.60000610352</ele>
        <time>2021-03-12T12:16:21.000Z</time>
      </trkpt>
      <trkpt lat="46.49666" lon="5.29993">
        <ele>210.19999694824</ele>
        <time>2021-03-12T12:16:22.000Z</time>
      </trkpt>
      <trkpt lat="46.49662" lon="5.30011">
        <ele>209.60000610352</ele>
        <time>2021-03-12T12:16:24.000Z</time>
      </trkpt>
      <trkpt lat="46.4966" lon="5.30019">
        <ele>209.39999389648</ele>
        <time>2021-03-12T12:16:25.000Z</time>
      </trkpt>
      <trkpt lat="46.49657" lon="5.30028">
        <ele>209.39999389648</ele>
        <time>2021-03-12T12:16:26.000Z</time>
      </trkpt>
      <trkpt lat="46.49655" lon="5.30035">
        <ele>209.39999389648</ele>
        <time>2021-03-12T12:16:27.000Z</time>
      </trkpt>
      <trkpt lat="46.49652" lon="5.30041">
        <ele>209.39999389648</ele>
        <time>2021-03-12T12:16:28.000Z</time>
      </trkpt>
      <trkpt lat="46.49647" lon="5.30051">
        <ele>209.39999389648</ele>
        <time>2021-03-12T12:16:30.000Z</time>
      </trkpt>
      <trkpt lat="46.49641" lon="5.30062">
        <ele>209.39999389648</ele>
        <time>2021-03-12T12:16:32.000Z</time>
      </trkpt>
      <trkpt lat="46.49634" lon="5.30071">
        <ele>209.60000610352</ele>
        <time>2021-03-12T12:16:34.000Z</time>
      </trkpt>
      <trkpt lat="46.49626" lon="5.30081">
        <ele>210</ele>
        <time>2021-03-12T12:16:36.000Z</time>
      </trkpt>
      <trkpt lat="46.49618" lon="5.30091">
        <ele>211.19999694824</ele>
        <time>2021-03-12T12:16:38.000Z</time>
      </trkpt>
      <trkpt lat="46.49615" lon="5.30096">
        <ele>211.60000610352</ele>
        <time>2021-03-12T12:16:39.000Z</time>
      </trkpt>
      <trkpt lat="46.49611" lon="5.301">
        <ele>212</ele>
        <time>2021-03-12T12:16:40.000Z</time>
      </trkpt>
      <trkpt lat="46.49607" lon="5.30104">
        <ele>212.19999694824</ele>
        <time>2021-03-12T12:16:41.000Z</time>
      </trkpt>
      <trkpt lat="46.49603" lon="5.30108">
        <ele>212.60000610352</ele>
        <time>2021-03-12T12:16:42.000Z</time>
      </trkpt>
      <trkpt lat="46.49596" lon="5.30117">
        <ele>213</ele>
        <time>2021-03-12T12:16:44.000Z</time>
      </trkpt>
      <trkpt lat="46.49586" lon="5.30127">
        <ele>213.39999389648</ele>
        <time>2021-03-12T12:16:46.000Z</time>
      </trkpt>
      <trkpt lat="46.49576" lon="5.30137">
        <ele>213.60000610352</ele>
        <time>2021-03-12T12:16:48.000Z</time>
      </trkpt>
      <trkpt lat="46.49565" lon="5.30146">
        <ele>213.80000305176</ele>
        <time>2021-03-12T12:16:50.000Z</time>
      </trkpt>
      <trkpt lat="46.49554" lon="5.30155">
        <ele>213.80000305176</ele>
        <time>2021-03-12T12:16:52.000Z</time>
      </trkpt>
      <trkpt lat="46.49548" lon="5.30159">
        <ele>213.80000305176</ele>
        <time>2021-03-12T12:16:53.000Z</time>
      </trkpt>
      <trkpt lat="46.49542" lon="5.30164">
        <ele>213.80000305176</ele>
        <time>2021-03-12T12:16:54.000Z</time>
      </trkpt>
      <trkpt lat="46.49531" lon="5.30174">
        <ele>213.60000610352</ele>
        <time>2021-03-12T12:16:56.000Z</time>
      </trkpt>
      <trkpt lat="46.49526" lon="5.30179">
        <ele>213.39999389648</ele>
        <time>2021-03-12T12:16:57.000Z</time>
      </trkpt>
      <trkpt lat="46.49521" lon="5.30185">
        <ele>213</ele>
        <time>2021-03-12T12:16:58.000Z</time>
      </trkpt>
      <trkpt lat="46.49516" lon="5.30192">
        <ele>212.80000305176</ele>
        <time>2021-03-12T12:16:59.000Z</time>
      </trkpt>
      <trkpt lat="46.49512" lon="5.30198">
        <ele>212.60000610352</ele>
        <time>2021-03-12T12:17:00.000Z</time>
      </trkpt>
      <trkpt lat="46.49504" lon="5.30212">
        <ele>212.39999389648</ele>
        <time>2021-03-12T12:17:02.000Z</time>
      </trkpt>
      <trkpt lat="46.49497" lon="5.30227">
        <ele>212.39999389648</ele>
        <time>2021-03-12T12:17:04.000Z</time>
      </trkpt>
      <trkpt lat="46.49494" lon="5.30235">
        <ele>212.39999389648</ele>
        <time>2021-03-12T12:17:05.000Z</time>
      </trkpt>
      <trkpt lat="46.49491" lon="5.30242">
        <ele>212.39999389648</ele>
        <time>2021-03-12T12:17:06.000Z</time>
      </trkpt>
      <trkpt lat="46.49484" lon="5.30255">
        <ele>212.39999389648</ele>
        <time>2021-03-12T12:17:08.000Z</time>
      </trkpt>
      <trkpt lat="46.49478" lon="5.30267">
        <ele>212.60000610352</ele>
        <time>2021-03-12T12:17:10.000Z</time>
      </trkpt>
      <trkpt lat="46.4947" lon="5.30277">
        <ele>213</ele>
        <time>2021-03-12T12:17:12.000Z</time>
      </trkpt>
      <trkpt lat="46.49463" lon="5.30287">
        <ele>213.39999389648</ele>
        <time>2021-03-12T12:17:14.000Z</time>
      </trkpt>
      <trkpt lat="46.49455" lon="5.30295">
        <ele>214</ele>
        <time>2021-03-12T12:17:16.000Z</time>
      </trkpt>
      <trkpt lat="46.49446" lon="5.30302">
        <ele>214.60000610352</ele>
        <time>2021-03-12T12:17:18.000Z</time>
      </trkpt>
      <trkpt lat="46.49441" lon="5.30305">
        <ele>214.80000305176</ele>
        <time>2021-03-12T12:17:19.000Z</time>
      </trkpt>
      <trkpt lat="46.49436" lon="5.30308">
        <ele>215</ele>
        <time>2021-03-12T12:17:20.000Z</time>
      </trkpt>
      <trkpt lat="46.49427" lon="5.30313">
        <ele>215.19999694824</ele>
        <time>2021-03-12T12:17:22.000Z</time>
      </trkpt>
      <trkpt lat="46.49417" lon="5.30317">
        <ele>215.39999389648</ele>
        <time>2021-03-12T12:17:24.000Z</time>
      </trkpt>
      <trkpt lat="46.49407" lon="5.30321">
        <ele>215.39999389648</ele>
        <time>2021-03-12T12:17:26.000Z</time>
      </trkpt>
      <trkpt lat="46.49397" lon="5.30325">
        <ele>215.39999389648</ele>
        <time>2021-03-12T12:17:28.000Z</time>
      </trkpt>
      <trkpt lat="46.49387" lon="5.30329">
        <ele>215.60000610352</ele>
        <time>2021-03-12T12:17:30.000Z</time>
      </trkpt>
      <trkpt lat="46.49377" lon="5.30334">
        <ele>215.60000610352</ele>
        <time>2021-03-12T12:17:32.000Z</time>
      </trkpt>
      <trkpt lat="46.49368" lon="5.30338">
        <ele>215.60000610352</ele>
        <time>2021-03-12T12:17:34.000Z</time>
      </trkpt>
      <trkpt lat="46.49363" lon="5.3034">
        <ele>215.60000610352</ele>
        <time>2021-03-12T12:17:35.000Z</time>
      </trkpt>
      <trkpt lat="46.49358" lon="5.30342">
        <ele>215.80000305176</ele>
        <time>2021-03-12T12:17:36.000Z</time>
      </trkpt>
      <trkpt lat="46.49348" lon="5.30346">
        <ele>215.80000305176</ele>
        <time>2021-03-12T12:17:38.000Z</time>
      </trkpt>
      <trkpt lat="46.49337" lon="5.3035">
        <ele>216.19999694824</ele>
        <time>2021-03-12T12:17:40.000Z</time>
      </trkpt>
      <trkpt lat="46.49327" lon="5.30355">
        <ele>216.39999389648</ele>
        <time>2021-03-12T12:17:42.000Z</time>
      </trkpt>
      <trkpt lat="46.49322" lon="5.30357">
        <ele>216.39999389648</ele>
        <time>2021-03-12T12:17:43.000Z</time>
      </trkpt>
      <trkpt lat="46.49316" lon="5.30359">
        <ele>216.39999389648</ele>
        <time>2021-03-12T12:17:44.000Z</time>
      </trkpt>
      <trkpt lat="46.49306" lon="5.30363">
        <ele>216.39999389648</ele>
        <time>2021-03-12T12:17:46.000Z</time>
      </trkpt>
      <trkpt lat="46.49295" lon="5.30368">
        <ele>216.60000610352</ele>
        <time>2021-03-12T12:17:48.000Z</time>
      </trkpt>
      <trkpt lat="46.49285" lon="5.30372">
        <ele>216.60000610352</ele>
        <time>2021-03-12T12:17:50.000Z</time>
      </trkpt>
      <trkpt lat="46.49274" lon="5.30376">
        <ele>216.60000610352</ele>
        <time>2021-03-12T12:17:52.000Z</time>
      </trkpt>
      <trkpt lat="46.49269" lon="5.30378">
        <ele>216.60000610352</ele>
        <time>2021-03-12T12:17:53.000Z</time>
      </trkpt>
      <trkpt lat="46.49263" lon="5.30381">
        <ele>216.60000610352</ele>
        <time>2021-03-12T12:17:54.000Z</time>
      </trkpt>
      <trkpt lat="46.49258" lon="5.30383">
        <ele>216.60000610352</ele>
        <time>2021-03-12T12:17:55.000Z</time>
      </trkpt>
      <trkpt lat="46.49253" lon="5.30385">
        <ele>216.60000610352</ele>
        <time>2021-03-12T12:17:56.000Z</time>
      </trkpt>
      <trkpt lat="46.49242" lon="5.30389">
        <ele>216.80000305176</ele>
        <time>2021-03-12T12:17:58.000Z</time>
      </trkpt>
      <trkpt lat="46.49232" lon="5.30394">
        <ele>216.80000305176</ele>
        <time>2021-03-12T12:18:00.000Z</time>
      </trkpt>
      <trkpt lat="46.49221" lon="5.30398">
        <ele>217</ele>
        <time>2021-03-12T12:18:02.000Z</time>
      </trkpt>
      <trkpt lat="46.4921" lon="5.30402">
        <ele>217</ele>
        <time>2021-03-12T12:18:04.000Z</time>
      </trkpt>
      <trkpt lat="46.49199" lon="5.30407">
        <ele>217.19999694824</ele>
        <time>2021-03-12T12:18:06.000Z</time>
      </trkpt>
      <trkpt lat="46.49188" lon="5.30411">
        <ele>217.19999694824</ele>
        <time>2021-03-12T12:18:08.000Z</time>
      </trkpt>
      <trkpt lat="46.49177" lon="5.30415">
        <ele>217.19999694824</ele>
        <time>2021-03-12T12:18:10.000Z</time>
      </trkpt>
      <trkpt lat="46.49167" lon="5.3042">
        <ele>217.19999694824</ele>
        <time>2021-03-12T12:18:12.000Z</time>
      </trkpt>
      <trkpt lat="46.49156" lon="5.30424">
        <ele>217.19999694824</ele>
        <time>2021-03-12T12:18:14.000Z</time>
      </trkpt>
      <trkpt lat="46.4915" lon="5.30426">
        <ele>217.19999694824</ele>
        <time>2021-03-12T12:18:15.000Z</time>
      </trkpt>
      <trkpt lat="46.49145" lon="5.30428">
        <ele>217.19999694824</ele>
        <time>2021-03-12T12:18:16.000Z</time>
      </trkpt>
      <trkpt lat="46.49134" lon="5.30433">
        <ele>217.39999389648</ele>
        <time>2021-03-12T12:18:18.000Z</time>
      </trkpt>
      <trkpt lat="46.49123" lon="5.30437">
        <ele>217.39999389648</ele>
        <time>2021-03-12T12:18:20.000Z</time>
      </trkpt>
      <trkpt lat="46.49112" lon="5.30442">
        <ele>217.60000610352</ele>
        <time>2021-03-12T12:18:22.000Z</time>
      </trkpt>
      <trkpt lat="46.49101" lon="5.30446">
        <ele>217.60000610352</ele>
        <time>2021-03-12T12:18:24.000Z</time>
      </trkpt>
      <trkpt lat="46.49095" lon="5.30448">
        <ele>217.80000305176</ele>
        <time>2021-03-12T12:18:25.000Z</time>
      </trkpt>
      <trkpt lat="46.4909" lon="5.30451">
        <ele>217.80000305176</ele>
        <time>2021-03-12T12:18:26.000Z</time>
      </trkpt>
      <trkpt lat="46.49078" lon="5.30455">
        <ele>218.19999694824</ele>
        <time>2021-03-12T12:18:28.000Z</time>
      </trkpt>
      <trkpt lat="46.49068" lon="5.30459">
        <ele>218.39999389648</ele>
        <time>2021-03-12T12:18:30.000Z</time>
      </trkpt>
      <trkpt lat="46.49057" lon="5.30464">
        <ele>218.39999389648</ele>
        <time>2021-03-12T12:18:32.000Z</time>
      </trkpt>
      <trkpt lat="46.49046" lon="5.30468">
        <ele>218.60000610352</ele>
        <time>2021-03-12T12:18:34.000Z</time>
      </trkpt>
      <trkpt lat="46.49034" lon="5.30473">
        <ele>218.60000610352</ele>
        <time>2021-03-12T12:18:36.000Z</time>
      </trkpt>
      <trkpt lat="46.49023" lon="5.30477">
        <ele>218.60000610352</ele>
        <time>2021-03-12T12:18:38.000Z</time>
      </trkpt>
      <trkpt lat="46.49012" lon="5.30481">
        <ele>218.60000610352</ele>
        <time>2021-03-12T12:18:40.000Z</time>
      </trkpt>
      <trkpt lat="46.49001" lon="5.30485">
        <ele>218.60000610352</ele>
        <time>2021-03-12T12:18:42.000Z</time>
      </trkpt>
      <trkpt lat="46.4899" lon="5.30488">
        <ele>218.60000610352</ele>
        <time>2021-03-12T12:18:44.000Z</time>
      </trkpt>
      <trkpt lat="46.4898" lon="5.30492">
        <ele>218.60000610352</ele>
        <time>2021-03-12T12:18:46.000Z</time>
      </trkpt>
      <trkpt lat="46.48974" lon="5.30494">
        <ele>218.80000305176</ele>
        <time>2021-03-12T12:18:47.000Z</time>
      </trkpt>
      <trkpt lat="46.48969" lon="5.30495">
        <ele>218.80000305176</ele>
        <time>2021-03-12T12:18:48.000Z</time>
      </trkpt>
      <trkpt lat="46.48958" lon="5.305">
        <ele>218.80000305176</ele>
        <time>2021-03-12T12:18:50.000Z</time>
      </trkpt>
      <trkpt lat="46.48948" lon="5.30505">
        <ele>218.80000305176</ele>
        <time>2021-03-12T12:18:52.000Z</time>
      </trkpt>
      <trkpt lat="46.48943" lon="5.30507">
        <ele>219</ele>
        <time>2021-03-12T12:18:53.000Z</time>
      </trkpt>
      <trkpt lat="46.48937" lon="5.30509">
        <ele>219</ele>
        <time>2021-03-12T12:18:54.000Z</time>
      </trkpt>
      <trkpt lat="46.48927" lon="5.30513">
        <ele>219</ele>
        <time>2021-03-12T12:18:56.000Z</time>
      </trkpt>
      <trkpt lat="46.48916" lon="5.30518">
        <ele>219</ele>
        <time>2021-03-12T12:18:58.000Z</time>
      </trkpt>
      <trkpt lat="46.48905" lon="5.30522">
        <ele>219</ele>
        <time>2021-03-12T12:19:00.000Z</time>
      </trkpt>
      <trkpt lat="46.48895" lon="5.30527">
        <ele>219</ele>
        <time>2021-03-12T12:19:02.000Z</time>
      </trkpt>
      <trkpt lat="46.48884" lon="5.30531">
        <ele>218.60000610352</ele>
        <time>2021-03-12T12:19:04.000Z</time>
      </trkpt>
      <trkpt lat="46.48878" lon="5.30532">
        <ele>218.60000610352</ele>
        <time>2021-03-12T12:19:05.000Z</time>
      </trkpt>
      <trkpt lat="46.48873" lon="5.30534">
        <ele>218.60000610352</ele>
        <time>2021-03-12T12:19:06.000Z</time>
      </trkpt>
      <trkpt lat="46.48861" lon="5.30535">
        <ele>218.60000610352</ele>
        <time>2021-03-12T12:19:08.000Z</time>
      </trkpt>
      <trkpt lat="46.4885" lon="5.30536">
        <ele>218.60000610352</ele>
        <time>2021-03-12T12:19:10.000Z</time>
      </trkpt>
      <trkpt lat="46.48844" lon="5.30536">
        <ele>218.60000610352</ele>
        <time>2021-03-12T12:19:11.000Z</time>
      </trkpt>
      <trkpt lat="46.48839" lon="5.30536">
        <ele>218.60000610352</ele>
        <time>2021-03-12T12:19:12.000Z</time>
      </trkpt>
      <trkpt lat="46.48828" lon="5.30535">
        <ele>218.60000610352</ele>
        <time>2021-03-12T12:19:14.000Z</time>
      </trkpt>
      <trkpt lat="46.48817" lon="5.30534">
        <ele>218.80000305176</ele>
        <time>2021-03-12T12:19:16.000Z</time>
      </trkpt>
      <trkpt lat="46.48806" lon="5.30532">
        <ele>218.80000305176</ele>
        <time>2021-03-12T12:19:18.000Z</time>
      </trkpt>
      <trkpt lat="46.48795" lon="5.30529">
        <ele>218.80000305176</ele>
        <time>2021-03-12T12:19:20.000Z</time>
      </trkpt>
      <trkpt lat="46.48783" lon="5.30525">
        <ele>218.80000305176</ele>
        <time>2021-03-12T12:19:22.000Z</time>
      </trkpt>
      <trkpt lat="46.48772" lon="5.30521">
        <ele>219</ele>
        <time>2021-03-12T12:19:24.000Z</time>
      </trkpt>
      <trkpt lat="46.48761" lon="5.30516">
        <ele>219</ele>
        <time>2021-03-12T12:19:26.000Z</time>
      </trkpt>
      <trkpt lat="46.4875" lon="5.3051">
        <ele>219</ele>
        <time>2021-03-12T12:19:28.000Z</time>
      </trkpt>
      <trkpt lat="46.48739" lon="5.30505">
        <ele>219</ele>
        <time>2021-03-12T12:19:30.000Z</time>
      </trkpt>
      <trkpt lat="46.48727" lon="5.305">
        <ele>219</ele>
        <time>2021-03-12T12:19:32.000Z</time>
      </trkpt>
      <trkpt lat="46.48715" lon="5.30496">
        <ele>219</ele>
        <time>2021-03-12T12:19:34.000Z</time>
      </trkpt>
      <trkpt lat="46.48702" lon="5.30495">
        <ele>219</ele>
        <time>2021-03-12T12:19:36.000Z</time>
      </trkpt>
      <trkpt lat="46.4869" lon="5.30495">
        <ele>219</ele>
        <time>2021-03-12T12:19:38.000Z</time>
      </trkpt>
      <trkpt lat="46.48677" lon="5.30497">
        <ele>218.80000305176</ele>
        <time>2021-03-12T12:19:40.000Z</time>
      </trkpt>
      <trkpt lat="46.48664" lon="5.30498">
        <ele>218.80000305176</ele>
        <time>2021-03-12T12:19:42.000Z</time>
      </trkpt>
      <trkpt lat="46.48651" lon="5.30498">
        <ele>218.80000305176</ele>
        <time>2021-03-12T12:19:44.000Z</time>
      </trkpt>
      <trkpt lat="46.48639" lon="5.30497">
        <ele>218.60000610352</ele>
        <time>2021-03-12T12:19:46.000Z</time>
      </trkpt>
      <trkpt lat="46.48627" lon="5.30495">
        <ele>218.60000610352</ele>
        <time>2021-03-12T12:19:48.000Z</time>
      </trkpt>
      <trkpt lat="46.48621" lon="5.30493">
        <ele>218.60000610352</ele>
        <time>2021-03-12T12:19:49.000Z</time>
      </trkpt>
      <trkpt lat="46.48615" lon="5.30492">
        <ele>218.60000610352</ele>
        <time>2021-03-12T12:19:50.000Z</time>
      </trkpt>
      <trkpt lat="46.48603" lon="5.3049">
        <ele>218.60000610352</ele>
        <time>2021-03-12T12:19:52.000Z</time>
      </trkpt>
      <trkpt lat="46.48591" lon="5.30488">
        <ele>218.60000610352</ele>
        <time>2021-03-12T12:19:54.000Z</time>
      </trkpt>
      <trkpt lat="46.48579" lon="5.30487">
        <ele>218.60000610352</ele>
        <time>2021-03-12T12:19:56.000Z</time>
      </trkpt>
      <trkpt lat="46.48567" lon="5.30488">
        <ele>218.60000610352</ele>
        <time>2021-03-12T12:19:58.000Z</time>
      </trkpt>
      <trkpt lat="46.48555" lon="5.30491">
        <ele>218.60000610352</ele>
        <time>2021-03-12T12:20:00.000Z</time>
      </trkpt>
      <trkpt lat="46.48549" lon="5.30493">
        <ele>218.80000305176</ele>
        <time>2021-03-12T12:20:01.000Z</time>
      </trkpt>
      <trkpt lat="46.48543" lon="5.30496">
        <ele>219</ele>
        <time>2021-03-12T12:20:02.000Z</time>
      </trkpt>
      <trkpt lat="46.48537" lon="5.30499">
        <ele>219.19999694824</ele>
        <time>2021-03-12T12:20:03.000Z</time>
      </trkpt>
      <trkpt lat="46.48532" lon="5.30502">
        <ele>219.39999389648</ele>
        <time>2021-03-12T12:20:04.000Z</time>
      </trkpt>
      <trkpt lat="46.48521" lon="5.30509">
        <ele>219.60000610352</ele>
        <time>2021-03-12T12:20:06.000Z</time>
      </trkpt>
      <trkpt lat="46.4851" lon="5.30517">
        <ele>219.80000305176</ele>
        <time>2021-03-12T12:20:08.000Z</time>
      </trkpt>
      <trkpt lat="46.485" lon="5.30527">
        <ele>220</ele>
        <time>2021-03-12T12:20:10.000Z</time>
      </trkpt>
      <trkpt lat="46.48495" lon="5.30532">
        <ele>220</ele>
        <time>2021-03-12T12:20:11.000Z</time>
      </trkpt>
      <trkpt lat="46.4849" lon="5.30537">
        <ele>220</ele>
        <time>2021-03-12T12:20:12.000Z</time>
      </trkpt>
      <trkpt lat="46.48479" lon="5.30547">
        <ele>220</ele>
        <time>2021-03-12T12:20:14.000Z</time>
      </trkpt>
      <trkpt lat="46.48468" lon="5.30557">
        <ele>220</ele>
        <time>2021-03-12T12:20:16.000Z</time>
      </trkpt>
      <trkpt lat="46.48457" lon="5.30567">
        <ele>220</ele>
        <time>2021-03-12T12:20:18.000Z</time>
      </trkpt>
      <trkpt lat="46.48452" lon="5.30572">
        <ele>220</ele>
        <time>2021-03-12T12:20:19.000Z</time>
      </trkpt>
      <trkpt lat="46.48446" lon="5.30577">
        <ele>220</ele>
        <time>2021-03-12T12:20:20.000Z</time>
      </trkpt>
      <trkpt lat="46.48435" lon="5.30587">
        <ele>219.80000305176</ele>
        <time>2021-03-12T12:20:22.000Z</time>
      </trkpt>
      <trkpt lat="46.48424" lon="5.30598">
        <ele>219.19999694824</ele>
        <time>2021-03-12T12:20:24.000Z</time>
      </trkpt>
      <trkpt lat="46.48412" lon="5.30609">
        <ele>219</ele>
        <time>2021-03-12T12:20:26.000Z</time>
      </trkpt>
      <trkpt lat="46.484" lon="5.30619">
        <ele>219</ele>
        <time>2021-03-12T12:20:28.000Z</time>
      </trkpt>
      <trkpt lat="46.48394" lon="5.30625">
        <ele>219</ele>
        <time>2021-03-12T12:20:29.000Z</time>
      </trkpt>
      <trkpt lat="46.48389" lon="5.3063">
        <ele>218.80000305176</ele>
        <time>2021-03-12T12:20:30.000Z</time>
      </trkpt>
      <trkpt lat="46.48377" lon="5.3064">
        <ele>218.80000305176</ele>
        <time>2021-03-12T12:20:32.000Z</time>
      </trkpt>
      <trkpt lat="46.48365" lon="5.30652">
        <ele>218.60000610352</ele>
        <time>2021-03-12T12:20:34.000Z</time>
      </trkpt>
      <trkpt lat="46.48353" lon="5.30664">
        <ele>218.39999389648</ele>
        <time>2021-03-12T12:20:36.000Z</time>
      </trkpt>
      <trkpt lat="46.4834" lon="5.30675">
        <ele>218</ele>
        <time>2021-03-12T12:20:38.000Z</time>
      </trkpt>
      <trkpt lat="46.48326" lon="5.30684">
        <ele>217.80000305176</ele>
        <time>2021-03-12T12:20:40.000Z</time>
      </trkpt>
      <trkpt lat="46.48319" lon="5.30687">
        <ele>217.80000305176</ele>
        <time>2021-03-12T12:20:41.000Z</time>
      </trkpt>
      <trkpt lat="46.48312" lon="5.3069">
        <ele>217.60000610352</ele>
        <time>2021-03-12T12:20:42.000Z</time>
      </trkpt>
      <trkpt lat="46.48299" lon="5.30692">
        <ele>217.60000610352</ele>
        <time>2021-03-12T12:20:44.000Z</time>
      </trkpt>
      <trkpt lat="46.48285" lon="5.30692">
        <ele>217.19999694824</ele>
        <time>2021-03-12T12:20:46.000Z</time>
      </trkpt>
      <trkpt lat="46.48278" lon="5.3069">
        <ele>217</ele>
        <time>2021-03-12T12:20:47.000Z</time>
      </trkpt>
      <trkpt lat="46.48272" lon="5.30689">
        <ele>217</ele>
        <time>2021-03-12T12:20:48.000Z</time>
      </trkpt>
      <trkpt lat="46.48258" lon="5.30686">
        <ele>216.80000305176</ele>
        <time>2021-03-12T12:20:50.000Z</time>
      </trkpt>
      <trkpt lat="46.48246" lon="5.30684">
        <ele>216.80000305176</ele>
        <time>2021-03-12T12:20:52.000Z</time>
      </trkpt>
      <trkpt lat="46.4824" lon="5.30683">
        <ele>216.80000305176</ele>
        <time>2021-03-12T12:20:53.000Z</time>
      </trkpt>
      <trkpt lat="46.48234" lon="5.30682">
        <ele>216.80000305176</ele>
        <time>2021-03-12T12:20:54.000Z</time>
      </trkpt>
      <trkpt lat="46.48221" lon="5.30682">
        <ele>216.80000305176</ele>
        <time>2021-03-12T12:20:56.000Z</time>
      </trkpt>
      <trkpt lat="46.48209" lon="5.30684">
        <ele>217</ele>
        <time>2021-03-12T12:20:58.000Z</time>
      </trkpt>
      <trkpt lat="46.48204" lon="5.30686">
        <ele>217.60000610352</ele>
        <time>2021-03-12T12:20:59.000Z</time>
      </trkpt>
      <trkpt lat="46.48198" lon="5.30688">
        <ele>218</ele>
        <time>2021-03-12T12:21:00.000Z</time>
      </trkpt>
      <trkpt lat="46.48188" lon="5.30693">
        <ele>218.39999389648</ele>
        <time>2021-03-12T12:21:02.000Z</time>
      </trkpt>
      <trkpt lat="46.48177" lon="5.30699">
        <ele>218.80000305176</ele>
        <time>2021-03-12T12:21:04.000Z</time>
      </trkpt>
      <trkpt lat="46.48173" lon="5.30702">
        <ele>219</ele>
        <time>2021-03-12T12:21:05.000Z</time>
      </trkpt>
      <trkpt lat="46.48168" lon="5.30704">
        <ele>219.19999694824</ele>
        <time>2021-03-12T12:21:06.000Z</time>
      </trkpt>
      <trkpt lat="46.48163" lon="5.30707">
        <ele>219.39999389648</ele>
        <time>2021-03-12T12:21:07.000Z</time>
      </trkpt>
      <trkpt lat="46.48158" lon="5.3071">
        <ele>219.39999389648</ele>
        <time>2021-03-12T12:21:08.000Z</time>
      </trkpt>
      <trkpt lat="46.48148" lon="5.30716">
        <ele>220</ele>
        <time>2021-03-12T12:21:10.000Z</time>
      </trkpt>
      <trkpt lat="46.48143" lon="5.30719">
        <ele>220</ele>
        <time>2021-03-12T12:21:11.000Z</time>
      </trkpt>
      <trkpt lat="46.48138" lon="5.30722">
        <ele>220.19999694824</ele>
        <time>2021-03-12T12:21:12.000Z</time>
      </trkpt>
      <trkpt lat="46.48127" lon="5.30728">
        <ele>220.39999389648</ele>
        <time>2021-03-12T12:21:14.000Z</time>
      </trkpt>
      <trkpt lat="46.48117" lon="5.30733">
        <ele>221.19999694824</ele>
        <time>2021-03-12T12:21:16.000Z</time>
      </trkpt>
      <trkpt lat="46.48107" lon="5.30738">
        <ele>221.39999389648</ele>
        <time>2021-03-12T12:21:18.000Z</time>
      </trkpt>
      <trkpt lat="46.48097" lon="5.30744">
        <ele>221.60000610352</ele>
        <time>2021-03-12T12:21:20.000Z</time>
      </trkpt>
      <trkpt lat="46.48087" lon="5.30749">
        <ele>221.60000610352</ele>
        <time>2021-03-12T12:21:22.000Z</time>
      </trkpt>
      <trkpt lat="46.48077" lon="5.30755">
        <ele>222</ele>
        <time>2021-03-12T12:21:24.000Z</time>
      </trkpt>
      <trkpt lat="46.48072" lon="5.30758">
        <ele>222.19999694824</ele>
        <time>2021-03-12T12:21:25.000Z</time>
      </trkpt>
      <trkpt lat="46.48067" lon="5.30761">
        <ele>222.19999694824</ele>
        <time>2021-03-12T12:21:26.000Z</time>
      </trkpt>
      <trkpt lat="46.48056" lon="5.30767">
        <ele>222.39999389648</ele>
        <time>2021-03-12T12:21:28.000Z</time>
      </trkpt>
      <trkpt lat="46.48044" lon="5.30773">
        <ele>222.39999389648</ele>
        <time>2021-03-12T12:21:30.000Z</time>
      </trkpt>
      <trkpt lat="46.48032" lon="5.30779">
        <ele>222.39999389648</ele>
        <time>2021-03-12T12:21:32.000Z</time>
      </trkpt>
      <trkpt lat="46.48026" lon="5.30783">
        <ele>222.39999389648</ele>
        <time>2021-03-12T12:21:33.000Z</time>
      </trkpt>
      <trkpt lat="46.4802" lon="5.30786">
        <ele>222.39999389648</ele>
        <time>2021-03-12T12:21:34.000Z</time>
      </trkpt>
      <trkpt lat="46.48008" lon="5.30793">
        <ele>222.39999389648</ele>
        <time>2021-03-12T12:21:36.000Z</time>
      </trkpt>
      <trkpt lat="46.47995" lon="5.308">
        <ele>222</ele>
        <time>2021-03-12T12:21:38.000Z</time>
      </trkpt>
      <trkpt lat="46.47981" lon="5.30807">
        <ele>221.60000610352</ele>
        <time>2021-03-12T12:21:40.000Z</time>
      </trkpt>
      <trkpt lat="46.47968" lon="5.30813">
        <ele>221.19999694824</ele>
        <time>2021-03-12T12:21:42.000Z</time>
      </trkpt>
      <trkpt lat="46.4796" lon="5.30815">
        <ele>221</ele>
        <time>2021-03-12T12:21:43.000Z</time>
      </trkpt>
      <trkpt lat="46.47953" lon="5.30816">
        <ele>221</ele>
        <time>2021-03-12T12:21:44.000Z</time>
      </trkpt>
      <trkpt lat="46.4794" lon="5.30817">
        <ele>220.39999389648</ele>
        <time>2021-03-12T12:21:46.000Z</time>
      </trkpt>
      <trkpt lat="46.47933" lon="5.30817">
        <ele>220.39999389648</ele>
        <time>2021-03-12T12:21:47.000Z</time>
      </trkpt>
      <trkpt lat="46.47927" lon="5.30816">
        <ele>220.39999389648</ele>
        <time>2021-03-12T12:21:48.000Z</time>
      </trkpt>
      <trkpt lat="46.47916" lon="5.30813">
        <ele>220.19999694824</ele>
        <time>2021-03-12T12:21:50.000Z</time>
      </trkpt>
      <trkpt lat="46.47906" lon="5.3081">
        <ele>220.19999694824</ele>
        <time>2021-03-12T12:21:52.000Z</time>
      </trkpt>
      <trkpt lat="46.47897" lon="5.30807">
        <ele>220.19999694824</ele>
        <time>2021-03-12T12:21:54.000Z</time>
      </trkpt>
      <trkpt lat="46.47889" lon="5.30803">
        <ele>220.39999389648</ele>
        <time>2021-03-12T12:21:56.000Z</time>
      </trkpt>
      <trkpt lat="46.4788" lon="5.30801">
        <ele>221.39999389648</ele>
        <time>2021-03-12T12:21:58.000Z</time>
      </trkpt>
      <trkpt lat="46.47876" lon="5.308">
        <ele>221.80000305176</ele>
        <time>2021-03-12T12:21:59.000Z</time>
      </trkpt>
      <trkpt lat="46.47872" lon="5.308">
        <ele>222.19999694824</ele>
        <time>2021-03-12T12:22:00.000Z</time>
      </trkpt>
      <trkpt lat="46.47864" lon="5.30798">
        <ele>223.19999694824</ele>
        <time>2021-03-12T12:22:02.000Z</time>
      </trkpt>
      <trkpt lat="46.47856" lon="5.30797">
        <ele>224</ele>
        <time>2021-03-12T12:22:04.000Z</time>
      </trkpt>
      <trkpt lat="46.47852" lon="5.30796">
        <ele>224.39999389648</ele>
        <time>2021-03-12T12:22:05.000Z</time>
      </trkpt>
      <trkpt lat="46.47849" lon="5.30793">
        <ele>224.80000305176</ele>
        <time>2021-03-12T12:22:06.000Z</time>
      </trkpt>
      <trkpt lat="46.47845" lon="5.3079">
        <ele>225</ele>
        <time>2021-03-12T12:22:07.000Z</time>
      </trkpt>
      <trkpt lat="46.47841" lon="5.30786">
        <ele>225.19999694824</ele>
        <time>2021-03-12T12:22:08.000Z</time>
      </trkpt>
      <trkpt lat="46.47837" lon="5.30781">
        <ele>225.60000610352</ele>
        <time>2021-03-12T12:22:09.000Z</time>
      </trkpt>
      <trkpt lat="46.47832" lon="5.30777">
        <ele>225.60000610352</ele>
        <time>2021-03-12T12:22:10.000Z</time>
      </trkpt>
      <trkpt lat="46.47826" lon="5.30774">
        <ele>225.60000610352</ele>
        <time>2021-03-12T12:22:11.000Z</time>
      </trkpt>
      <trkpt lat="46.4782" lon="5.30772">
        <ele>225.60000610352</ele>
        <time>2021-03-12T12:22:12.000Z</time>
      </trkpt>
      <trkpt lat="46.47806" lon="5.30771">
        <ele>225.80000305176</ele>
        <time>2021-03-12T12:22:14.000Z</time>
      </trkpt>
      <trkpt lat="46.47798" lon="5.30771">
        <ele>225.80000305176</ele>
        <time>2021-03-12T12:22:15.000Z</time>
      </trkpt>
      <trkpt lat="46.4779" lon="5.30772">
        <ele>225.80000305176</ele>
        <time>2021-03-12T12:22:16.000Z</time>
      </trkpt>
      <trkpt lat="46.47775" lon="5.30773">
        <ele>225.80000305176</ele>
        <time>2021-03-12T12:22:18.000Z</time>
      </trkpt>
      <trkpt lat="46.47761" lon="5.30775">
        <ele>225.39999389648</ele>
        <time>2021-03-12T12:22:20.000Z</time>
      </trkpt>
      <trkpt lat="46.47748" lon="5.30778">
        <ele>224</ele>
        <time>2021-03-12T12:22:22.000Z</time>
      </trkpt>
      <trkpt lat="46.47741" lon="5.30779">
        <ele>223.60000610352</ele>
        <time>2021-03-12T12:22:23.000Z</time>
      </trkpt>
      <trkpt lat="46.47734" lon="5.3078">
        <ele>223.39999389648</ele>
        <time>2021-03-12T12:22:24.000Z</time>
      </trkpt>
      <trkpt lat="46.47721" lon="5.30782">
        <ele>223.39999389648</ele>
        <time>2021-03-12T12:22:26.000Z</time>
      </trkpt>
      <trkpt lat="46.47709" lon="5.30784">
        <ele>223.39999389648</ele>
        <time>2021-03-12T12:22:28.000Z</time>
      </trkpt>
      <trkpt lat="46.47697" lon="5.30786">
        <ele>223.39999389648</ele>
        <time>2021-03-12T12:22:30.000Z</time>
      </trkpt>
      <trkpt lat="46.47685" lon="5.30788">
        <ele>223.39999389648</ele>
        <time>2021-03-12T12:22:32.000Z</time>
      </trkpt>
      <trkpt lat="46.47673" lon="5.3079">
        <ele>223.39999389648</ele>
        <time>2021-03-12T12:22:34.000Z</time>
      </trkpt>
      <trkpt lat="46.47661" lon="5.30792">
        <ele>223.60000610352</ele>
        <time>2021-03-12T12:22:36.000Z</time>
      </trkpt>
      <trkpt lat="46.47649" lon="5.30794">
        <ele>223.80000305176</ele>
        <time>2021-03-12T12:22:38.000Z</time>
      </trkpt>
      <trkpt lat="46.47636" lon="5.30796">
        <ele>224</ele>
        <time>2021-03-12T12:22:40.000Z</time>
      </trkpt>
      <trkpt lat="46.47624" lon="5.30797">
        <ele>224.19999694824</ele>
        <time>2021-03-12T12:22:42.000Z</time>
      </trkpt>
      <trkpt lat="46.47612" lon="5.30799">
        <ele>224.39999389648</ele>
        <time>2021-03-12T12:22:44.000Z</time>
      </trkpt>
      <trkpt lat="46.47599" lon="5.30801">
        <ele>224.39999389648</ele>
        <time>2021-03-12T12:22:46.000Z</time>
      </trkpt>
      <trkpt lat="46.47586" lon="5.30803">
        <ele>224.39999389648</ele>
        <time>2021-03-12T12:22:48.000Z</time>
      </trkpt>
      <trkpt lat="46.47573" lon="5.30805">
        <ele>224.39999389648</ele>
        <time>2021-03-12T12:22:50.000Z</time>
      </trkpt>
      <trkpt lat="46.47561" lon="5.30807">
        <ele>224.39999389648</ele>
        <time>2021-03-12T12:22:52.000Z</time>
      </trkpt>
      <trkpt lat="46.47549" lon="5.30809">
        <ele>224.39999389648</ele>
        <time>2021-03-12T12:22:54.000Z</time>
      </trkpt>
      <trkpt lat="46.47536" lon="5.30812">
        <ele>224.39999389648</ele>
        <time>2021-03-12T12:22:56.000Z</time>
      </trkpt>
      <trkpt lat="46.47523" lon="5.30816">
        <ele>224.19999694824</ele>
        <time>2021-03-12T12:22:58.000Z</time>
      </trkpt>
      <trkpt lat="46.4751" lon="5.30822">
        <ele>224.19999694824</ele>
        <time>2021-03-12T12:23:00.000Z</time>
      </trkpt>
      <trkpt lat="46.47498" lon="5.30829">
        <ele>224.19999694824</ele>
        <time>2021-03-12T12:23:02.000Z</time>
      </trkpt>
      <trkpt lat="46.47486" lon="5.30835">
        <ele>224.19999694824</ele>
        <time>2021-03-12T12:23:04.000Z</time>
      </trkpt>
      <trkpt lat="46.47473" lon="5.30841">
        <ele>224</ele>
        <time>2021-03-12T12:23:06.000Z</time>
      </trkpt>
      <trkpt lat="46.47466" lon="5.30845">
        <ele>223.80000305176</ele>
        <time>2021-03-12T12:23:07.000Z</time>
      </trkpt>
      <trkpt lat="46.4746" lon="5.30849">
        <ele>223.80000305176</ele>
        <time>2021-03-12T12:23:08.000Z</time>
      </trkpt>
      <trkpt lat="46.47447" lon="5.30856">
        <ele>223.60000610352</ele>
        <time>2021-03-12T12:23:10.000Z</time>
      </trkpt>
      <trkpt lat="46.47434" lon="5.30863">
        <ele>223.60000610352</ele>
        <time>2021-03-12T12:23:12.000Z</time>
      </trkpt>
      <trkpt lat="46.47421" lon="5.30869">
        <ele>223.39999389648</ele>
        <time>2021-03-12T12:23:14.000Z</time>
      </trkpt>
      <trkpt lat="46.47408" lon="5.30875">
        <ele>223.19999694824</ele>
        <time>2021-03-12T12:23:16.000Z</time>
      </trkpt>
      <trkpt lat="46.47395" lon="5.30881">
        <ele>223.19999694824</ele>
        <time>2021-03-12T12:23:18.000Z</time>
      </trkpt>
      <trkpt lat="46.47382" lon="5.30885">
        <ele>223</ele>
        <time>2021-03-12T12:23:20.000Z</time>
      </trkpt>
      <trkpt lat="46.47376" lon="5.30887">
        <ele>223</ele>
        <time>2021-03-12T12:23:21.000Z</time>
      </trkpt>
      <trkpt lat="46.4737" lon="5.3089">
        <ele>223</ele>
        <time>2021-03-12T12:23:22.000Z</time>
      </trkpt>
      <trkpt lat="46.47364" lon="5.30891">
        <ele>223</ele>
        <time>2021-03-12T12:23:23.000Z</time>
      </trkpt>
      <trkpt lat="46.47358" lon="5.30893">
        <ele>223</ele>
        <time>2021-03-12T12:23:24.000Z</time>
      </trkpt>
      <trkpt lat="46.47352" lon="5.30894">
        <ele>223</ele>
        <time>2021-03-12T12:23:25.000Z</time>
      </trkpt>
      <trkpt lat="46.47346" lon="5.30893">
        <ele>223</ele>
        <time>2021-03-12T12:23:26.000Z</time>
      </trkpt>
      <trkpt lat="46.47337" lon="5.30884">
        <ele>223</ele>
        <time>2021-03-12T12:23:28.000Z</time>
      </trkpt>
      <trkpt lat="46.47333" lon="5.30867">
        <ele>223</ele>
        <time>2021-03-12T12:23:30.000Z</time>
      </trkpt>
      <trkpt lat="46.47332" lon="5.30858">
        <ele>223</ele>
        <time>2021-03-12T12:23:31.000Z</time>
      </trkpt>
      <trkpt lat="46.47331" lon="5.3085">
        <ele>223</ele>
        <time>2021-03-12T12:23:32.000Z</time>
      </trkpt>
      <trkpt lat="46.4733" lon="5.30831">
        <ele>223</ele>
        <time>2021-03-12T12:23:34.000Z</time>
      </trkpt>
      <trkpt lat="46.47328" lon="5.30812">
        <ele>223</ele>
        <time>2021-03-12T12:23:36.000Z</time>
      </trkpt>
      <trkpt lat="46.47327" lon="5.30802">
        <ele>223</ele>
        <time>2021-03-12T12:23:37.000Z</time>
      </trkpt>
      <trkpt lat="46.47327" lon="5.30793">
        <ele>222.80000305176</ele>
        <time>2021-03-12T12:23:38.000Z</time>
      </trkpt>
      <trkpt lat="46.47325" lon="5.30774">
        <ele>222.60000610352</ele>
        <time>2021-03-12T12:23:40.000Z</time>
      </trkpt>
      <trkpt lat="46.47323" lon="5.30755">
        <ele>222.19999694824</ele>
        <time>2021-03-12T12:23:42.000Z</time>
      </trkpt>
      <trkpt lat="46.47322" lon="5.30736">
        <ele>222</ele>
        <time>2021-03-12T12:23:44.000Z</time>
      </trkpt>
      <trkpt lat="46.47321" lon="5.30718">
        <ele>222</ele>
        <time>2021-03-12T12:23:46.000Z</time>
      </trkpt>
      <trkpt lat="46.4732" lon="5.30702">
        <ele>222</ele>
        <time>2021-03-12T12:23:48.000Z</time>
      </trkpt>
      <trkpt lat="46.4732" lon="5.30686">
        <ele>222</ele>
        <time>2021-03-12T12:23:50.000Z</time>
      </trkpt>
      <trkpt lat="46.47318" lon="5.30669">
        <ele>222</ele>
        <time>2021-03-12T12:23:52.000Z</time>
      </trkpt>
      <trkpt lat="46.47317" lon="5.3066">
        <ele>222.19999694824</ele>
        <time>2021-03-12T12:23:53.000Z</time>
      </trkpt>
      <trkpt lat="46.47314" lon="5.30651">
        <ele>222.39999389648</ele>
        <time>2021-03-12T12:23:54.000Z</time>
      </trkpt>
      <trkpt lat="46.47306" lon="5.30636">
        <ele>223</ele>
        <time>2021-03-12T12:23:56.000Z</time>
      </trkpt>
      <trkpt lat="46.47295" lon="5.30623">
        <ele>223.19999694824</ele>
        <time>2021-03-12T12:23:58.000Z</time>
      </trkpt>
      <trkpt lat="46.47285" lon="5.30611">
        <ele>223.39999389648</ele>
        <time>2021-03-12T12:24:00.000Z</time>
      </trkpt>
      <trkpt lat="46.47276" lon="5.30599">
        <ele>223.39999389648</ele>
        <time>2021-03-12T12:24:02.000Z</time>
      </trkpt>
      <trkpt lat="46.47266" lon="5.30586">
        <ele>223.39999389648</ele>
        <time>2021-03-12T12:24:04.000Z</time>
      </trkpt>
      <trkpt lat="46.47255" lon="5.30576">
        <ele>223.39999389648</ele>
        <time>2021-03-12T12:24:06.000Z</time>
      </trkpt>
      <trkpt lat="46.47243" lon="5.30566">
        <ele>223.39999389648</ele>
        <time>2021-03-12T12:24:08.000Z</time>
      </trkpt>
      <trkpt lat="46.47237" lon="5.30562">
        <ele>223.39999389648</ele>
        <time>2021-03-12T12:24:09.000Z</time>
      </trkpt>
      <trkpt lat="46.47231" lon="5.30559">
        <ele>223.39999389648</ele>
        <time>2021-03-12T12:24:10.000Z</time>
      </trkpt>
      <trkpt lat="46.47218" lon="5.30556">
        <ele>223.39999389648</ele>
        <time>2021-03-12T12:24:12.000Z</time>
      </trkpt>
      <trkpt lat="46.47205" lon="5.30556">
        <ele>223.39999389648</ele>
        <time>2021-03-12T12:24:14.000Z</time>
      </trkpt>
      <trkpt lat="46.47192" lon="5.30558">
        <ele>223.39999389648</ele>
        <time>2021-03-12T12:24:16.000Z</time>
      </trkpt>
      <trkpt lat="46.47179" lon="5.30559">
        <ele>223.39999389648</ele>
        <time>2021-03-12T12:24:18.000Z</time>
      </trkpt>
      <trkpt lat="46.47167" lon="5.30558">
        <ele>223.39999389648</ele>
        <time>2021-03-12T12:24:20.000Z</time>
      </trkpt>
      <trkpt lat="46.47155" lon="5.30556">
        <ele>223.39999389648</ele>
        <time>2021-03-12T12:24:22.000Z</time>
      </trkpt>
      <trkpt lat="46.47144" lon="5.30552">
        <ele>223.39999389648</ele>
        <time>2021-03-12T12:24:24.000Z</time>
      </trkpt>
      <trkpt lat="46.47133" lon="5.30547">
        <ele>223.60000610352</ele>
        <time>2021-03-12T12:24:26.000Z</time>
      </trkpt>
      <trkpt lat="46.47121" lon="5.30541">
        <ele>223.60000610352</ele>
        <time>2021-03-12T12:24:28.000Z</time>
      </trkpt>
      <trkpt lat="46.4711" lon="5.30536">
        <ele>224</ele>
        <time>2021-03-12T12:24:30.000Z</time>
      </trkpt>
      <trkpt lat="46.47104" lon="5.30532">
        <ele>224</ele>
        <time>2021-03-12T12:24:31.000Z</time>
      </trkpt>
      <trkpt lat="46.47099" lon="5.30529">
        <ele>224</ele>
        <time>2021-03-12T12:24:32.000Z</time>
      </trkpt>
      <trkpt lat="46.47088" lon="5.30521">
        <ele>224.19999694824</ele>
        <time>2021-03-12T12:24:34.000Z</time>
      </trkpt>
      <trkpt lat="46.47078" lon="5.30512">
        <ele>224.19999694824</ele>
        <time>2021-03-12T12:24:36.000Z</time>
      </trkpt>
      <trkpt lat="46.47068" lon="5.30503">
        <ele>224.19999694824</ele>
        <time>2021-03-12T12:24:38.000Z</time>
      </trkpt>
      <trkpt lat="46.47058" lon="5.30494">
        <ele>224.19999694824</ele>
        <time>2021-03-12T12:24:40.000Z</time>
      </trkpt>
      <trkpt lat="46.47052" lon="5.30489">
        <ele>224.19999694824</ele>
        <time>2021-03-12T12:24:41.000Z</time>
      </trkpt>
      <trkpt lat="46.47047" lon="5.30484">
        <ele>224.19999694824</ele>
        <time>2021-03-12T12:24:42.000Z</time>
      </trkpt>
      <trkpt lat="46.47035" lon="5.30475">
        <ele>224.19999694824</ele>
        <time>2021-03-12T12:24:44.000Z</time>
      </trkpt>
      <trkpt lat="46.47023" lon="5.30465">
        <ele>224.19999694824</ele>
        <time>2021-03-12T12:24:46.000Z</time>
      </trkpt>
      <trkpt lat="46.47011" lon="5.30455">
        <ele>224.19999694824</ele>
        <time>2021-03-12T12:24:48.000Z</time>
      </trkpt>
      <trkpt lat="46.47" lon="5.30445">
        <ele>224</ele>
        <time>2021-03-12T12:24:50.000Z</time>
      </trkpt>
      <trkpt lat="46.46988" lon="5.30435">
        <ele>223.80000305176</ele>
        <time>2021-03-12T12:24:52.000Z</time>
      </trkpt>
      <trkpt lat="46.46977" lon="5.30425">
        <ele>223.80000305176</ele>
        <time>2021-03-12T12:24:54.000Z</time>
      </trkpt>
      <trkpt lat="46.46965" lon="5.30415">
        <ele>223.60000610352</ele>
        <time>2021-03-12T12:24:56.000Z</time>
      </trkpt>
      <trkpt lat="46.46958" lon="5.30411">
        <ele>223.60000610352</ele>
        <time>2021-03-12T12:24:57.000Z</time>
      </trkpt>
      <trkpt lat="46.46952" lon="5.30407">
        <ele>223.60000610352</ele>
        <time>2021-03-12T12:24:58.000Z</time>
      </trkpt>
      <trkpt lat="46.46939" lon="5.304">
        <ele>223.60000610352</ele>
        <time>2021-03-12T12:25:00.000Z</time>
      </trkpt>
      <trkpt lat="46.46926" lon="5.30395">
        <ele>223.39999389648</ele>
        <time>2021-03-12T12:25:02.000Z</time>
      </trkpt>
      <trkpt lat="46.4692" lon="5.30392">
        <ele>223.39999389648</ele>
        <time>2021-03-12T12:25:03.000Z</time>
      </trkpt>
      <trkpt lat="46.46914" lon="5.3039">
        <ele>223.39999389648</ele>
        <time>2021-03-12T12:25:04.000Z</time>
      </trkpt>
      <trkpt lat="46.46901" lon="5.30385">
        <ele>223</ele>
        <time>2021-03-12T12:25:06.000Z</time>
      </trkpt>
      <trkpt lat="46.46889" lon="5.30381">
        <ele>222.80000305176</ele>
        <time>2021-03-12T12:25:08.000Z</time>
      </trkpt>
      <trkpt lat="46.46883" lon="5.30378">
        <ele>222.80000305176</ele>
        <time>2021-03-12T12:25:09.000Z</time>
      </trkpt>
      <trkpt lat="46.46878" lon="5.30374">
        <ele>222.80000305176</ele>
        <time>2021-03-12T12:25:10.000Z</time>
      </trkpt>
      <trkpt lat="46.46873" lon="5.3037">
        <ele>222.80000305176</ele>
        <time>2021-03-12T12:25:11.000Z</time>
      </trkpt>
      <trkpt lat="46.46867" lon="5.30366">
        <ele>222.80000305176</ele>
        <time>2021-03-12T12:25:12.000Z</time>
      </trkpt>
      <trkpt lat="46.46857" lon="5.30357">
        <ele>222.80000305176</ele>
        <time>2021-03-12T12:25:14.000Z</time>
      </trkpt>
      <trkpt lat="46.46848" lon="5.30347">
        <ele>223</ele>
        <time>2021-03-12T12:25:16.000Z</time>
      </trkpt>
      <trkpt lat="46.46838" lon="5.30335">
        <ele>223.19999694824</ele>
        <time>2021-03-12T12:25:18.000Z</time>
      </trkpt>
      <trkpt lat="46.46829" lon="5.30323">
        <ele>223.39999389648</ele>
        <time>2021-03-12T12:25:20.000Z</time>
      </trkpt>
      <trkpt lat="46.4682" lon="5.30312">
        <ele>223.39999389648</ele>
        <time>2021-03-12T12:25:22.000Z</time>
      </trkpt>
      <trkpt lat="46.46811" lon="5.30301">
        <ele>223.39999389648</ele>
        <time>2021-03-12T12:25:24.000Z</time>
      </trkpt>
      <trkpt lat="46.46802" lon="5.3029">
        <ele>223.60000610352</ele>
        <time>2021-03-12T12:25:26.000Z</time>
      </trkpt>
      <trkpt lat="46.46792" lon="5.30279">
        <ele>223.60000610352</ele>
        <time>2021-03-12T12:25:28.000Z</time>
      </trkpt>
      <trkpt lat="46.46783" lon="5.30269">
        <ele>223.60000610352</ele>
        <time>2021-03-12T12:25:30.000Z</time>
      </trkpt>
      <trkpt lat="46.46774" lon="5.30258">
        <ele>223.60000610352</ele>
        <time>2021-03-12T12:25:32.000Z</time>
      </trkpt>
      <trkpt lat="46.4677" lon="5.30253">
        <ele>223.60000610352</ele>
        <time>2021-03-12T12:25:33.000Z</time>
      </trkpt>
      <trkpt lat="46.46765" lon="5.30247">
        <ele>223.60000610352</ele>
        <time>2021-03-12T12:25:34.000Z</time>
      </trkpt>
      <trkpt lat="46.46756" lon="5.30236">
        <ele>223.80000305176</ele>
        <time>2021-03-12T12:25:36.000Z</time>
      </trkpt>
      <trkpt lat="46.46751" lon="5.3023">
        <ele>224</ele>
        <time>2021-03-12T12:25:37.000Z</time>
      </trkpt>
      <trkpt lat="46.46747" lon="5.30224">
        <ele>224</ele>
        <time>2021-03-12T12:25:38.000Z</time>
      </trkpt>
      <trkpt lat="46.46742" lon="5.30218">
        <ele>224</ele>
        <time>2021-03-12T12:25:39.000Z</time>
      </trkpt>
      <trkpt lat="46.46738" lon="5.3021">
        <ele>224</ele>
        <time>2021-03-12T12:25:40.000Z</time>
      </trkpt>
      <trkpt lat="46.46733" lon="5.30193">
        <ele>224</ele>
        <time>2021-03-12T12:25:42.000Z</time>
      </trkpt>
      <trkpt lat="46.4673" lon="5.30185">
        <ele>224</ele>
        <time>2021-03-12T12:25:43.000Z</time>
      </trkpt>
      <trkpt lat="46.46727" lon="5.30176">
        <ele>223.80000305176</ele>
        <time>2021-03-12T12:25:44.000Z</time>
      </trkpt>
      <trkpt lat="46.46725" lon="5.30167">
        <ele>223.80000305176</ele>
        <time>2021-03-12T12:25:45.000Z</time>
      </trkpt>
      <trkpt lat="46.46722" lon="5.30158">
        <ele>223.80000305176</ele>
        <time>2021-03-12T12:25:46.000Z</time>
      </trkpt>
      <trkpt lat="46.46718" lon="5.30139">
        <ele>223.80000305176</ele>
        <time>2021-03-12T12:25:48.000Z</time>
      </trkpt>
      <trkpt lat="46.46713" lon="5.3012">
        <ele>223.60000610352</ele>
        <time>2021-03-12T12:25:50.000Z</time>
      </trkpt>
      <trkpt lat="46.46709" lon="5.301">
        <ele>223.39999389648</ele>
        <time>2021-03-12T12:25:52.000Z</time>
      </trkpt>
      <trkpt lat="46.46704" lon="5.30081">
        <ele>223.19999694824</ele>
        <time>2021-03-12T12:25:54.000Z</time>
      </trkpt>
      <trkpt lat="46.46699" lon="5.30061">
        <ele>223.19999694824</ele>
        <time>2021-03-12T12:25:56.000Z</time>
      </trkpt>
      <trkpt lat="46.46694" lon="5.30042">
        <ele>223.19999694824</ele>
        <time>2021-03-12T12:25:58.000Z</time>
      </trkpt>
      <trkpt lat="46.46688" lon="5.30024">
        <ele>223</ele>
        <time>2021-03-12T12:26:00.000Z</time>
      </trkpt>
      <trkpt lat="46.46684" lon="5.30007">
        <ele>223</ele>
        <time>2021-03-12T12:26:02.000Z</time>
      </trkpt>
      <trkpt lat="46.4668" lon="5.29991">
        <ele>223</ele>
        <time>2021-03-12T12:26:04.000Z</time>
      </trkpt>
      <trkpt lat="46.46678" lon="5.29983">
        <ele>223</ele>
        <time>2021-03-12T12:26:05.000Z</time>
      </trkpt>
      <trkpt lat="46.46675" lon="5.29975">
        <ele>223</ele>
        <time>2021-03-12T12:26:06.000Z</time>
      </trkpt>
      <trkpt lat="46.4667" lon="5.29959">
        <ele>223.19999694824</ele>
        <time>2021-03-12T12:26:08.000Z</time>
      </trkpt>
      <trkpt lat="46.46666" lon="5.29944">
        <ele>223.19999694824</ele>
        <time>2021-03-12T12:26:10.000Z</time>
      </trkpt>
      <trkpt lat="46.46664" lon="5.29935">
        <ele>223.39999389648</ele>
        <time>2021-03-12T12:26:11.000Z</time>
      </trkpt>
      <trkpt lat="46.46661" lon="5.29927">
        <ele>223.60000610352</ele>
        <time>2021-03-12T12:26:12.000Z</time>
      </trkpt>
      <trkpt lat="46.46657" lon="5.29911">
        <ele>224.19999694824</ele>
        <time>2021-03-12T12:26:14.000Z</time>
      </trkpt>
      <trkpt lat="46.46653" lon="5.29896">
        <ele>224.80000305176</ele>
        <time>2021-03-12T12:26:16.000Z</time>
      </trkpt>
      <trkpt lat="46.46651" lon="5.29888">
        <ele>225</ele>
        <time>2021-03-12T12:26:17.000Z</time>
      </trkpt>
      <trkpt lat="46.46648" lon="5.29881">
        <ele>225</ele>
        <time>2021-03-12T12:26:18.000Z</time>
      </trkpt>
      <trkpt lat="46.46644" lon="5.29866">
        <ele>225.39999389648</ele>
        <time>2021-03-12T12:26:20.000Z</time>
      </trkpt>
      <trkpt lat="46.46641" lon="5.29851">
        <ele>225.39999389648</ele>
        <time>2021-03-12T12:26:22.000Z</time>
      </trkpt>
      <trkpt lat="46.46637" lon="5.29836">
        <ele>225.60000610352</ele>
        <time>2021-03-12T12:26:24.000Z</time>
      </trkpt>
      <trkpt lat="46.46634" lon="5.29823">
        <ele>225.80000305176</ele>
        <time>2021-03-12T12:26:26.000Z</time>
      </trkpt>
      <trkpt lat="46.46631" lon="5.2981">
        <ele>225.80000305176</ele>
        <time>2021-03-12T12:26:28.000Z</time>
      </trkpt>
      <trkpt lat="46.46629" lon="5.29804">
        <ele>225.80000305176</ele>
        <time>2021-03-12T12:26:29.000Z</time>
      </trkpt>
      <trkpt lat="46.46628" lon="5.29798">
        <ele>225.80000305176</ele>
        <time>2021-03-12T12:26:30.000Z</time>
      </trkpt>
      <trkpt lat="46.46626" lon="5.29791">
        <ele>225.80000305176</ele>
        <time>2021-03-12T12:26:31.000Z</time>
      </trkpt>
      <trkpt lat="46.46625" lon="5.29784">
        <ele>225.80000305176</ele>
        <time>2021-03-12T12:26:32.000Z</time>
      </trkpt>
      <trkpt lat="46.46622" lon="5.29772">
        <ele>225.80000305176</ele>
        <time>2021-03-12T12:26:34.000Z</time>
      </trkpt>
      <trkpt lat="46.46621" lon="5.29767">
        <ele>225.80000305176</ele>
        <time>2021-03-12T12:26:35.000Z</time>
      </trkpt>
      <trkpt lat="46.46621" lon="5.29764">
        <ele>225.80000305176</ele>
        <time>2021-03-12T12:26:36.000Z</time>
      </trkpt>
      <trkpt lat="46.46621" lon="5.29762">
        <ele>225.80000305176</ele>
        <time>2021-03-12T12:26:37.000Z</time>
      </trkpt>
      <trkpt lat="46.46621" lon="5.2976">
        <ele>226</ele>
        <time>2021-03-12T12:26:38.000Z</time>
      </trkpt>
      <trkpt lat="46.46618" lon="5.29749">
        <ele>226.19999694824</ele>
        <time>2021-03-12T12:27:28.000Z</time>
      </trkpt>
      <trkpt lat="46.46617" lon="5.29743">
        <ele>226</ele>
        <time>2021-03-12T12:27:30.000Z</time>
      </trkpt>
      <trkpt lat="46.46614" lon="5.29734">
        <ele>226</ele>
        <time>2021-03-12T12:27:32.000Z</time>
      </trkpt>
      <trkpt lat="46.4661" lon="5.29721">
        <ele>226</ele>
        <time>2021-03-12T12:27:34.000Z</time>
      </trkpt>
      <trkpt lat="46.46606" lon="5.29704">
        <ele>226</ele>
        <time>2021-03-12T12:27:36.000Z</time>
      </trkpt>
      <trkpt lat="46.46602" lon="5.29687">
        <ele>225.80000305176</ele>
        <time>2021-03-12T12:27:38.000Z</time>
      </trkpt>
      <trkpt lat="46.46599" lon="5.29677">
        <ele>225.80000305176</ele>
        <time>2021-03-12T12:27:39.000Z</time>
      </trkpt>
      <trkpt lat="46.46597" lon="5.29668">
        <ele>225.60000610352</ele>
        <time>2021-03-12T12:27:40.000Z</time>
      </trkpt>
      <trkpt lat="46.46591" lon="5.29648">
        <ele>225.19999694824</ele>
        <time>2021-03-12T12:27:42.000Z</time>
      </trkpt>
      <trkpt lat="46.46586" lon="5.29627">
        <ele>225</ele>
        <time>2021-03-12T12:27:44.000Z</time>
      </trkpt>
      <trkpt lat="46.4658" lon="5.29607">
        <ele>224.80000305176</ele>
        <time>2021-03-12T12:27:46.000Z</time>
      </trkpt>
      <trkpt lat="46.46575" lon="5.29588">
        <ele>224.19999694824</ele>
        <time>2021-03-12T12:27:48.000Z</time>
      </trkpt>
      <trkpt lat="46.4657" lon="5.29569">
        <ele>223.39999389648</ele>
        <time>2021-03-12T12:27:50.000Z</time>
      </trkpt>
      <trkpt lat="46.46565" lon="5.2955">
        <ele>223</ele>
        <time>2021-03-12T12:27:52.000Z</time>
      </trkpt>
      <trkpt lat="46.46559" lon="5.29531">
        <ele>222.80000305176</ele>
        <time>2021-03-12T12:27:54.000Z</time>
      </trkpt>
      <trkpt lat="46.46554" lon="5.29511">
        <ele>222.60000610352</ele>
        <time>2021-03-12T12:27:56.000Z</time>
      </trkpt>
      <trkpt lat="46.46551" lon="5.295">
        <ele>222.19999694824</ele>
        <time>2021-03-12T12:27:57.000Z</time>
      </trkpt>
      <trkpt lat="46.46548" lon="5.2949">
        <ele>221.80000305176</ele>
        <time>2021-03-12T12:27:58.000Z</time>
      </trkpt>
      <trkpt lat="46.46543" lon="5.29468">
        <ele>221.39999389648</ele>
        <time>2021-03-12T12:28:00.000Z</time>
      </trkpt>
      <trkpt lat="46.46538" lon="5.29449">
        <ele>221.39999389648</ele>
        <time>2021-03-12T12:28:02.000Z</time>
      </trkpt>
      <trkpt lat="46.46535" lon="5.2943">
        <ele>221.39999389648</ele>
        <time>2021-03-12T12:28:04.000Z</time>
      </trkpt>
      <trkpt lat="46.46531" lon="5.29411">
        <ele>221.39999389648</ele>
        <time>2021-03-12T12:28:06.000Z</time>
      </trkpt>
      <trkpt lat="46.46529" lon="5.29402">
        <ele>221.39999389648</ele>
        <time>2021-03-12T12:28:07.000Z</time>
      </trkpt>
      <trkpt lat="46.46527" lon="5.29392">
        <ele>221.39999389648</ele>
        <time>2021-03-12T12:28:08.000Z</time>
      </trkpt>
      <trkpt lat="46.46523" lon="5.29374">
        <ele>221.60000610352</ele>
        <time>2021-03-12T12:28:10.000Z</time>
      </trkpt>
      <trkpt lat="46.46519" lon="5.29356">
        <ele>221.80000305176</ele>
        <time>2021-03-12T12:28:12.000Z</time>
      </trkpt>
      <trkpt lat="46.46516" lon="5.29339">
        <ele>221.80000305176</ele>
        <time>2021-03-12T12:28:14.000Z</time>
      </trkpt>
      <trkpt lat="46.46512" lon="5.29322">
        <ele>221.80000305176</ele>
        <time>2021-03-12T12:28:16.000Z</time>
      </trkpt>
      <trkpt lat="46.4651" lon="5.29313">
        <ele>221.80000305176</ele>
        <time>2021-03-12T12:28:17.000Z</time>
      </trkpt>
      <trkpt lat="46.46508" lon="5.29305">
        <ele>221.80000305176</ele>
        <time>2021-03-12T12:28:18.000Z</time>
      </trkpt>
      <trkpt lat="46.46505" lon="5.29289">
        <ele>221.80000305176</ele>
        <time>2021-03-12T12:28:20.000Z</time>
      </trkpt>
      <trkpt lat="46.46502" lon="5.29274">
        <ele>221.80000305176</ele>
        <time>2021-03-12T12:28:22.000Z</time>
      </trkpt>
      <trkpt lat="46.46499" lon="5.29259">
        <ele>221.80000305176</ele>
        <time>2021-03-12T12:28:24.000Z</time>
      </trkpt>
      <trkpt lat="46.46495" lon="5.29244">
        <ele>221.80000305176</ele>
        <time>2021-03-12T12:28:26.000Z</time>
      </trkpt>
      <trkpt lat="46.46492" lon="5.29229">
        <ele>221.80000305176</ele>
        <time>2021-03-12T12:28:28.000Z</time>
      </trkpt>
      <trkpt lat="46.46489" lon="5.29215">
        <ele>222</ele>
        <time>2021-03-12T12:28:30.000Z</time>
      </trkpt>
      <trkpt lat="46.46487" lon="5.29201">
        <ele>222.60000610352</ele>
        <time>2021-03-12T12:28:32.000Z</time>
      </trkpt>
      <trkpt lat="46.46484" lon="5.29187">
        <ele>222.80000305176</ele>
        <time>2021-03-12T12:28:34.000Z</time>
      </trkpt>
      <trkpt lat="46.46483" lon="5.2918">
        <ele>223</ele>
        <time>2021-03-12T12:28:35.000Z</time>
      </trkpt>
      <trkpt lat="46.46482" lon="5.29174">
        <ele>223.19999694824</ele>
        <time>2021-03-12T12:28:36.000Z</time>
      </trkpt>
      <trkpt lat="46.46478" lon="5.29159">
        <ele>223.19999694824</ele>
        <time>2021-03-12T12:28:38.000Z</time>
      </trkpt>
      <trkpt lat="46.46475" lon="5.29144">
        <ele>223.60000610352</ele>
        <time>2021-03-12T12:28:40.000Z</time>
      </trkpt>
      <trkpt lat="46.46472" lon="5.2913">
        <ele>224</ele>
        <time>2021-03-12T12:28:42.000Z</time>
      </trkpt>
      <trkpt lat="46.4647" lon="5.29122">
        <ele>224.19999694824</ele>
        <time>2021-03-12T12:28:43.000Z</time>
      </trkpt>
      <trkpt lat="46.46469" lon="5.29115">
        <ele>224.39999389648</ele>
        <time>2021-03-12T12:28:44.000Z</time>
      </trkpt>
      <trkpt lat="46.46466" lon="5.29099">
        <ele>224.80000305176</ele>
        <time>2021-03-12T12:28:46.000Z</time>
      </trkpt>
      <trkpt lat="46.46462" lon="5.29083">
        <ele>224.80000305176</ele>
        <time>2021-03-12T12:28:48.000Z</time>
      </trkpt>
      <trkpt lat="46.46459" lon="5.29067">
        <ele>224.80000305176</ele>
        <time>2021-03-12T12:28:50.000Z</time>
      </trkpt>
      <trkpt lat="46.46455" lon="5.29051">
        <ele>225</ele>
        <time>2021-03-12T12:28:52.000Z</time>
      </trkpt>
      <trkpt lat="46.46454" lon="5.29043">
        <ele>225</ele>
        <time>2021-03-12T12:28:53.000Z</time>
      </trkpt>
      <trkpt lat="46.46452" lon="5.29035">
        <ele>225</ele>
        <time>2021-03-12T12:28:54.000Z</time>
      </trkpt>
      <trkpt lat="46.46448" lon="5.29019">
        <ele>225.19999694824</ele>
        <time>2021-03-12T12:28:56.000Z</time>
      </trkpt>
      <trkpt lat="46.46445" lon="5.29002">
        <ele>225.19999694824</ele>
        <time>2021-03-12T12:28:58.000Z</time>
      </trkpt>
      <trkpt lat="46.46441" lon="5.28985">
        <ele>225.39999389648</ele>
        <time>2021-03-12T12:29:00.000Z</time>
      </trkpt>
      <trkpt lat="46.46437" lon="5.28968">
        <ele>225.39999389648</ele>
        <time>2021-03-12T12:29:02.000Z</time>
      </trkpt>
      <trkpt lat="46.46433" lon="5.2895">
        <ele>225.39999389648</ele>
        <time>2021-03-12T12:29:04.000Z</time>
      </trkpt>
      <trkpt lat="46.46429" lon="5.28931">
        <ele>225.39999389648</ele>
        <time>2021-03-12T12:29:06.000Z</time>
      </trkpt>
      <trkpt lat="46.46426" lon="5.28912">
        <ele>225.19999694824</ele>
        <time>2021-03-12T12:29:08.000Z</time>
      </trkpt>
      <trkpt lat="46.46421" lon="5.28893">
        <ele>225</ele>
        <time>2021-03-12T12:29:10.000Z</time>
      </trkpt>
      <trkpt lat="46.46416" lon="5.28874">
        <ele>224.60000610352</ele>
        <time>2021-03-12T12:29:12.000Z</time>
      </trkpt>
      <trkpt lat="46.46411" lon="5.28857">
        <ele>224.19999694824</ele>
        <time>2021-03-12T12:29:14.000Z</time>
      </trkpt>
      <trkpt lat="46.46404" lon="5.28841">
        <ele>224</ele>
        <time>2021-03-12T12:29:16.000Z</time>
      </trkpt>
      <trkpt lat="46.46397" lon="5.28825">
        <ele>223.60000610352</ele>
        <time>2021-03-12T12:29:18.000Z</time>
      </trkpt>
      <trkpt lat="46.46393" lon="5.28817">
        <ele>223.39999389648</ele>
        <time>2021-03-12T12:29:19.000Z</time>
      </trkpt>
      <trkpt lat="46.46389" lon="5.2881">
        <ele>223.19999694824</ele>
        <time>2021-03-12T12:29:20.000Z</time>
      </trkpt>
      <trkpt lat="46.46379" lon="5.28798">
        <ele>223</ele>
        <time>2021-03-12T12:29:22.000Z</time>
      </trkpt>
      <trkpt lat="46.46368" lon="5.28788">
        <ele>222.80000305176</ele>
        <time>2021-03-12T12:29:24.000Z</time>
      </trkpt>
      <trkpt lat="46.46357" lon="5.28779">
        <ele>222.60000610352</ele>
        <time>2021-03-12T12:29:26.000Z</time>
      </trkpt>
      <trkpt lat="46.46345" lon="5.2877">
        <ele>222.60000610352</ele>
        <time>2021-03-12T12:29:28.000Z</time>
      </trkpt>
      <trkpt lat="46.46338" lon="5.28766">
        <ele>222.39999389648</ele>
        <time>2021-03-12T12:29:29.000Z</time>
      </trkpt>
      <trkpt lat="46.46332" lon="5.28761">
        <ele>222.39999389648</ele>
        <time>2021-03-12T12:29:30.000Z</time>
      </trkpt>
      <trkpt lat="46.46325" lon="5.28757">
        <ele>222.39999389648</ele>
        <time>2021-03-12T12:29:31.000Z</time>
      </trkpt>
      <trkpt lat="46.46319" lon="5.28752">
        <ele>222.19999694824</ele>
        <time>2021-03-12T12:29:32.000Z</time>
      </trkpt>
      <trkpt lat="46.46305" lon="5.28743">
        <ele>222</ele>
        <time>2021-03-12T12:29:34.000Z</time>
      </trkpt>
      <trkpt lat="46.46292" lon="5.28735">
        <ele>221.60000610352</ele>
        <time>2021-03-12T12:29:36.000Z</time>
      </trkpt>
      <trkpt lat="46.46279" lon="5.28726">
        <ele>221.39999389648</ele>
        <time>2021-03-12T12:29:38.000Z</time>
      </trkpt>
      <trkpt lat="46.46266" lon="5.28718">
        <ele>220.39999389648</ele>
        <time>2021-03-12T12:29:40.000Z</time>
      </trkpt>
      <trkpt lat="46.46259" lon="5.28714">
        <ele>220</ele>
        <time>2021-03-12T12:29:41.000Z</time>
      </trkpt>
      <trkpt lat="46.46252" lon="5.28709">
        <ele>219.19999694824</ele>
        <time>2021-03-12T12:29:42.000Z</time>
      </trkpt>
      <trkpt lat="46.46246" lon="5.28704">
        <ele>218.80000305176</ele>
        <time>2021-03-12T12:29:43.000Z</time>
      </trkpt>
      <trkpt lat="46.46239" lon="5.28698">
        <ele>218.60000610352</ele>
        <time>2021-03-12T12:29:44.000Z</time>
      </trkpt>
      <trkpt lat="46.46233" lon="5.28691">
        <ele>218.19999694824</ele>
        <time>2021-03-12T12:29:45.000Z</time>
      </trkpt>
      <trkpt lat="46.46228" lon="5.28682">
        <ele>218</ele>
        <time>2021-03-12T12:29:46.000Z</time>
      </trkpt>
      <trkpt lat="46.46225" lon="5.28671">
        <ele>217.80000305176</ele>
        <time>2021-03-12T12:29:47.000Z</time>
      </trkpt>
      <trkpt lat="46.46223" lon="5.28658">
        <ele>217.60000610352</ele>
        <time>2021-03-12T12:29:48.000Z</time>
      </trkpt>
      <trkpt lat="46.46221" lon="5.28646">
        <ele>217.39999389648</ele>
        <time>2021-03-12T12:29:49.000Z</time>
      </trkpt>
      <trkpt lat="46.46219" lon="5.28633">
        <ele>217.19999694824</ele>
        <time>2021-03-12T12:29:50.000Z</time>
      </trkpt>
      <trkpt lat="46.46217" lon="5.28621">
        <ele>216.60000610352</ele>
        <time>2021-03-12T12:29:51.000Z</time>
      </trkpt>
      <trkpt lat="46.46215" lon="5.28608">
        <ele>216.19999694824</ele>
        <time>2021-03-12T12:29:52.000Z</time>
      </trkpt>
      <trkpt lat="46.46213" lon="5.28595">
        <ele>215.60000610352</ele>
        <time>2021-03-12T12:29:53.000Z</time>
      </trkpt>
      <trkpt lat="46.46211" lon="5.28582">
        <ele>215.19999694824</ele>
        <time>2021-03-12T12:29:54.000Z</time>
      </trkpt>
      <trkpt lat="46.46208" lon="5.28554">
        <ele>214.19999694824</ele>
        <time>2021-03-12T12:29:56.000Z</time>
      </trkpt>
      <trkpt lat="46.46206" lon="5.28539">
        <ele>213.60000610352</ele>
        <time>2021-03-12T12:29:57.000Z</time>
      </trkpt>
      <trkpt lat="46.46204" lon="5.28525">
        <ele>213</ele>
        <time>2021-03-12T12:29:58.000Z</time>
      </trkpt>
      <trkpt lat="46.462" lon="5.28496">
        <ele>211.60000610352</ele>
        <time>2021-03-12T12:30:00.000Z</time>
      </trkpt>
      <trkpt lat="46.46196" lon="5.28468">
        <ele>210</ele>
        <time>2021-03-12T12:30:02.000Z</time>
      </trkpt>
      <trkpt lat="46.46191" lon="5.2844">
        <ele>209.19999694824</ele>
        <time>2021-03-12T12:30:04.000Z</time>
      </trkpt>
      <trkpt lat="46.46189" lon="5.28426">
        <ele>208.60000610352</ele>
        <time>2021-03-12T12:30:05.000Z</time>
      </trkpt>
      <trkpt lat="46.46187" lon="5.28412">
        <ele>208.19999694824</ele>
        <time>2021-03-12T12:30:06.000Z</time>
      </trkpt>
      <trkpt lat="46.46184" lon="5.28386">
        <ele>206.80000305176</ele>
        <time>2021-03-12T12:30:08.000Z</time>
      </trkpt>
      <trkpt lat="46.4618" lon="5.2836">
        <ele>205</ele>
        <time>2021-03-12T12:30:10.000Z</time>
      </trkpt>
      <trkpt lat="46.46175" lon="5.28337">
        <ele>203.60000610352</ele>
        <time>2021-03-12T12:30:12.000Z</time>
      </trkpt>
      <trkpt lat="46.46171" lon="5.28316">
        <ele>203.39999389648</ele>
        <time>2021-03-12T12:30:14.000Z</time>
      </trkpt>
      <trkpt lat="46.4617" lon="5.28306">
        <ele>203.39999389648</ele>
        <time>2021-03-12T12:30:15.000Z</time>
      </trkpt>
      <trkpt lat="46.46169" lon="5.28297">
        <ele>203.39999389648</ele>
        <time>2021-03-12T12:30:16.000Z</time>
      </trkpt>
      <trkpt lat="46.46169" lon="5.28279">
        <ele>203.39999389648</ele>
        <time>2021-03-12T12:30:18.000Z</time>
      </trkpt>
      <trkpt lat="46.46169" lon="5.28262">
        <ele>203.39999389648</ele>
        <time>2021-03-12T12:30:20.000Z</time>
      </trkpt>
      <trkpt lat="46.4617" lon="5.28245">
        <ele>204.19999694824</ele>
        <time>2021-03-12T12:30:22.000Z</time>
      </trkpt>
      <trkpt lat="46.4617" lon="5.28237">
        <ele>204.80000305176</ele>
        <time>2021-03-12T12:30:23.000Z</time>
      </trkpt>
      <trkpt lat="46.46171" lon="5.28229">
        <ele>205.19999694824</ele>
        <time>2021-03-12T12:30:24.000Z</time>
      </trkpt>
      <trkpt lat="46.46172" lon="5.28222">
        <ele>205.80000305176</ele>
        <time>2021-03-12T12:30:25.000Z</time>
      </trkpt>
      <trkpt lat="46.46173" lon="5.28215">
        <ele>206.19999694824</ele>
        <time>2021-03-12T12:30:26.000Z</time>
      </trkpt>
      <trkpt lat="46.46176" lon="5.28201">
        <ele>207.19999694824</ele>
        <time>2021-03-12T12:30:28.000Z</time>
      </trkpt>
      <trkpt lat="46.46178" lon="5.28194">
        <ele>207.39999389648</ele>
        <time>2021-03-12T12:30:29.000Z</time>
      </trkpt>
      <trkpt lat="46.46179" lon="5.28187">
        <ele>207.80000305176</ele>
        <time>2021-03-12T12:30:30.000Z</time>
      </trkpt>
      <trkpt lat="46.4618" lon="5.2818">
        <ele>208.19999694824</ele>
        <time>2021-03-12T12:30:31.000Z</time>
      </trkpt>
      <trkpt lat="46.46181" lon="5.28173">
        <ele>208.39999389648</ele>
        <time>2021-03-12T12:30:32.000Z</time>
      </trkpt>
      <trkpt lat="46.46182" lon="5.28165">
        <ele>208.80000305176</ele>
        <time>2021-03-12T12:30:33.000Z</time>
      </trkpt>
      <trkpt lat="46.46184" lon="5.28157">
        <ele>209</ele>
        <time>2021-03-12T12:30:34.000Z</time>
      </trkpt>
      <trkpt lat="46.46185" lon="5.28149">
        <ele>209.39999389648</ele>
        <time>2021-03-12T12:30:35.000Z</time>
      </trkpt>
      <trkpt lat="46.46187" lon="5.2814">
        <ele>209.60000610352</ele>
        <time>2021-03-12T12:30:36.000Z</time>
      </trkpt>
      <trkpt lat="46.46188" lon="5.28121">
        <ele>210</ele>
        <time>2021-03-12T12:30:38.000Z</time>
      </trkpt>
      <trkpt lat="46.4619" lon="5.28103">
        <ele>210</ele>
        <time>2021-03-12T12:30:40.000Z</time>
      </trkpt>
      <trkpt lat="46.46191" lon="5.28093">
        <ele>210</ele>
        <time>2021-03-12T12:30:41.000Z</time>
      </trkpt>
      <trkpt lat="46.46192" lon="5.28084">
        <ele>210</ele>
        <time>2021-03-12T12:30:42.000Z</time>
      </trkpt>
      <trkpt lat="46.46193" lon="5.28064">
        <ele>210</ele>
        <time>2021-03-12T12:30:44.000Z</time>
      </trkpt>
      <trkpt lat="46.46195" lon="5.28046">
        <ele>210</ele>
        <time>2021-03-12T12:30:46.000Z</time>
      </trkpt>
      <trkpt lat="46.46196" lon="5.28029">
        <ele>210.19999694824</ele>
        <time>2021-03-12T12:30:48.000Z</time>
      </trkpt>
      <trkpt lat="46.46196" lon="5.28021">
        <ele>210.19999694824</ele>
        <time>2021-03-12T12:30:49.000Z</time>
      </trkpt>
      <trkpt lat="46.46196" lon="5.28014">
        <ele>210.19999694824</ele>
        <time>2021-03-12T12:30:50.000Z</time>
      </trkpt>
      <trkpt lat="46.46193" lon="5.28003">
        <ele>210.19999694824</ele>
        <time>2021-03-12T12:30:52.000Z</time>
      </trkpt>
      <trkpt lat="46.46183" lon="5.27995">
        <ele>210.19999694824</ele>
        <time>2021-03-12T12:30:54.000Z</time>
      </trkpt>
      <trkpt lat="46.46177" lon="5.27991">
        <ele>210.19999694824</ele>
        <time>2021-03-12T12:30:55.000Z</time>
      </trkpt>
      <trkpt lat="46.4617" lon="5.27986">
        <ele>210</ele>
        <time>2021-03-12T12:30:56.000Z</time>
      </trkpt>
      <trkpt lat="46.46157" lon="5.27976">
        <ele>210</ele>
        <time>2021-03-12T12:30:58.000Z</time>
      </trkpt>
      <trkpt lat="46.46143" lon="5.27964">
        <ele>209.80000305176</ele>
        <time>2021-03-12T12:31:00.000Z</time>
      </trkpt>
      <trkpt lat="46.46132" lon="5.27943">
        <ele>209.60000610352</ele>
        <time>2021-03-12T12:31:02.000Z</time>
      </trkpt>
      <trkpt lat="46.46129" lon="5.27929">
        <ele>209.60000610352</ele>
        <time>2021-03-12T12:31:03.000Z</time>
      </trkpt>
      <trkpt lat="46.46128" lon="5.27914">
        <ele>209.39999389648</ele>
        <time>2021-03-12T12:31:04.000Z</time>
      </trkpt>
      <trkpt lat="46.46127" lon="5.27899">
        <ele>209</ele>
        <time>2021-03-12T12:31:05.000Z</time>
      </trkpt>
      <trkpt lat="46.46126" lon="5.27884">
        <ele>208.19999694824</ele>
        <time>2021-03-12T12:31:06.000Z</time>
      </trkpt>
      <trkpt lat="46.46126" lon="5.27868">
        <ele>207.39999389648</ele>
        <time>2021-03-12T12:31:07.000Z</time>
      </trkpt>
      <trkpt lat="46.46125" lon="5.27853">
        <ele>206.39999389648</ele>
        <time>2021-03-12T12:31:08.000Z</time>
      </trkpt>
      <trkpt lat="46.46125" lon="5.27838">
        <ele>205.39999389648</ele>
        <time>2021-03-12T12:31:09.000Z</time>
      </trkpt>
      <trkpt lat="46.46124" lon="5.27824">
        <ele>202.80000305176</ele>
        <time>2021-03-12T12:31:10.000Z</time>
      </trkpt>
      <trkpt lat="46.46124" lon="5.27809">
        <ele>201.60000610352</ele>
        <time>2021-03-12T12:31:11.000Z</time>
      </trkpt>
      <trkpt lat="46.46124" lon="5.27795">
        <ele>200.80000305176</ele>
        <time>2021-03-12T12:31:12.000Z</time>
      </trkpt>
      <trkpt lat="46.46124" lon="5.2778">
        <ele>199.80000305176</ele>
        <time>2021-03-12T12:31:13.000Z</time>
      </trkpt>
      <trkpt lat="46.46125" lon="5.27766">
        <ele>198.80000305176</ele>
        <time>2021-03-12T12:31:14.000Z</time>
      </trkpt>
      <trkpt lat="46.46125" lon="5.27752">
        <ele>197.60000610352</ele>
        <time>2021-03-12T12:31:15.000Z</time>
      </trkpt>
      <trkpt lat="46.46125" lon="5.27737">
        <ele>196.60000610352</ele>
        <time>2021-03-12T12:31:16.000Z</time>
      </trkpt>
      <trkpt lat="46.46126" lon="5.27723">
        <ele>196.19999694824</ele>
        <time>2021-03-12T12:31:17.000Z</time>
      </trkpt>
      <trkpt lat="46.46126" lon="5.27709">
        <ele>195.80000305176</ele>
        <time>2021-03-12T12:31:18.000Z</time>
      </trkpt>
      <trkpt lat="46.46127" lon="5.27681">
        <ele>195.60000610352</ele>
        <time>2021-03-12T12:31:20.000Z</time>
      </trkpt>
      <trkpt lat="46.46128" lon="5.27653">
        <ele>195.60000610352</ele>
        <time>2021-03-12T12:31:22.000Z</time>
      </trkpt>
      <trkpt lat="46.46128" lon="5.27626">
        <ele>195.39999389648</ele>
        <time>2021-03-12T12:31:24.000Z</time>
      </trkpt>
      <trkpt lat="46.46128" lon="5.27613">
        <ele>195</ele>
        <time>2021-03-12T12:31:25.000Z</time>
      </trkpt>
      <trkpt lat="46.46129" lon="5.276">
        <ele>194.39999389648</ele>
        <time>2021-03-12T12:31:26.000Z</time>
      </trkpt>
      <trkpt lat="46.46129" lon="5.27575">
        <ele>193.80000305176</ele>
        <time>2021-03-12T12:31:28.000Z</time>
      </trkpt>
      <trkpt lat="46.4613" lon="5.27563">
        <ele>193.39999389648</ele>
        <time>2021-03-12T12:31:29.000Z</time>
      </trkpt>
      <trkpt lat="46.4613" lon="5.27551">
        <ele>193.39999389648</ele>
        <time>2021-03-12T12:31:30.000Z</time>
      </trkpt>
      <trkpt lat="46.4613" lon="5.27528">
        <ele>193.19999694824</ele>
        <time>2021-03-12T12:31:32.000Z</time>
      </trkpt>
      <trkpt lat="46.46131" lon="5.27505">
        <ele>193.19999694824</ele>
        <time>2021-03-12T12:31:34.000Z</time>
      </trkpt>
      <trkpt lat="46.46131" lon="5.27483">
        <ele>193.19999694824</ele>
        <time>2021-03-12T12:31:36.000Z</time>
      </trkpt>
      <trkpt lat="46.46131" lon="5.27472">
        <ele>193.19999694824</ele>
        <time>2021-03-12T12:31:37.000Z</time>
      </trkpt>
      <trkpt lat="46.46131" lon="5.27461">
        <ele>193.19999694824</ele>
        <time>2021-03-12T12:31:38.000Z</time>
      </trkpt>
      <trkpt lat="46.46132" lon="5.2744">
        <ele>193.19999694824</ele>
        <time>2021-03-12T12:31:40.000Z</time>
      </trkpt>
      <trkpt lat="46.46132" lon="5.27419">
        <ele>193.19999694824</ele>
        <time>2021-03-12T12:31:42.000Z</time>
      </trkpt>
      <trkpt lat="46.46133" lon="5.27399">
        <ele>193.19999694824</ele>
        <time>2021-03-12T12:31:44.000Z</time>
      </trkpt>
      <trkpt lat="46.46133" lon="5.27379">
        <ele>193.19999694824</ele>
        <time>2021-03-12T12:31:46.000Z</time>
      </trkpt>
      <trkpt lat="46.46134" lon="5.2736">
        <ele>193.39999389648</ele>
        <time>2021-03-12T12:31:48.000Z</time>
      </trkpt>
      <trkpt lat="46.46134" lon="5.2734">
        <ele>193.39999389648</ele>
        <time>2021-03-12T12:31:50.000Z</time>
      </trkpt>
      <trkpt lat="46.46135" lon="5.2732">
        <ele>193.39999389648</ele>
        <time>2021-03-12T12:31:52.000Z</time>
      </trkpt>
      <trkpt lat="46.46135" lon="5.2731">
        <ele>193.60000610352</ele>
        <time>2021-03-12T12:31:53.000Z</time>
      </trkpt>
      <trkpt lat="46.46135" lon="5.273">
        <ele>193.80000305176</ele>
        <time>2021-03-12T12:31:54.000Z</time>
      </trkpt>
      <trkpt lat="46.46135" lon="5.27281">
        <ele>193.80000305176</ele>
        <time>2021-03-12T12:31:56.000Z</time>
      </trkpt>
      <trkpt lat="46.46136" lon="5.27261">
        <ele>194</ele>
        <time>2021-03-12T12:31:58.000Z</time>
      </trkpt>
      <trkpt lat="46.46136" lon="5.27241">
        <ele>194</ele>
        <time>2021-03-12T12:32:00.000Z</time>
      </trkpt>
      <trkpt lat="46.46137" lon="5.27222">
        <ele>194</ele>
        <time>2021-03-12T12:32:02.000Z</time>
      </trkpt>
      <trkpt lat="46.46138" lon="5.27203">
        <ele>194</ele>
        <time>2021-03-12T12:32:04.000Z</time>
      </trkpt>
      <trkpt lat="46.46138" lon="5.27184">
        <ele>194</ele>
        <time>2021-03-12T12:32:06.000Z</time>
      </trkpt>
      <trkpt lat="46.46139" lon="5.27165">
        <ele>194.19999694824</ele>
        <time>2021-03-12T12:32:08.000Z</time>
      </trkpt>
      <trkpt lat="46.46139" lon="5.27147">
        <ele>194.19999694824</ele>
        <time>2021-03-12T12:32:10.000Z</time>
      </trkpt>
      <trkpt lat="46.46139" lon="5.27129">
        <ele>194.19999694824</ele>
        <time>2021-03-12T12:32:12.000Z</time>
      </trkpt>
      <trkpt lat="46.4614" lon="5.27112">
        <ele>194.60000610352</ele>
        <time>2021-03-12T12:32:14.000Z</time>
      </trkpt>
      <trkpt lat="46.4614" lon="5.27095">
        <ele>194.80000305176</ele>
        <time>2021-03-12T12:32:16.000Z</time>
      </trkpt>
      <trkpt lat="46.4614" lon="5.27087">
        <ele>194.80000305176</ele>
        <time>2021-03-12T12:32:17.000Z</time>
      </trkpt>
      <trkpt lat="46.46141" lon="5.27079">
        <ele>195</ele>
        <time>2021-03-12T12:32:18.000Z</time>
      </trkpt>
      <trkpt lat="46.46141" lon="5.27063">
        <ele>195</ele>
        <time>2021-03-12T12:32:20.000Z</time>
      </trkpt>
      <trkpt lat="46.46141" lon="5.27046">
        <ele>195.39999389648</ele>
        <time>2021-03-12T12:32:22.000Z</time>
      </trkpt>
      <trkpt lat="46.46142" lon="5.2703">
        <ele>195.80000305176</ele>
        <time>2021-03-12T12:32:24.000Z</time>
      </trkpt>
      <trkpt lat="46.46142" lon="5.27022">
        <ele>196</ele>
        <time>2021-03-12T12:32:25.000Z</time>
      </trkpt>
      <trkpt lat="46.46142" lon="5.27013">
        <ele>196.19999694824</ele>
        <time>2021-03-12T12:32:26.000Z</time>
      </trkpt>
      <trkpt lat="46.46142" lon="5.26996">
        <ele>196.39999389648</ele>
        <time>2021-03-12T12:32:28.000Z</time>
      </trkpt>
      <trkpt lat="46.46143" lon="5.26979">
        <ele>196.60000610352</ele>
        <time>2021-03-12T12:32:30.000Z</time>
      </trkpt>
      <trkpt lat="46.46143" lon="5.26969">
        <ele>196.60000610352</ele>
        <time>2021-03-12T12:32:31.000Z</time>
      </trkpt>
      <trkpt lat="46.46143" lon="5.2696">
        <ele>196.60000610352</ele>
        <time>2021-03-12T12:32:32.000Z</time>
      </trkpt>
      <trkpt lat="46.46144" lon="5.26941">
        <ele>196.60000610352</ele>
        <time>2021-03-12T12:32:34.000Z</time>
      </trkpt>
      <trkpt lat="46.46144" lon="5.26922">
        <ele>196.60000610352</ele>
        <time>2021-03-12T12:32:36.000Z</time>
      </trkpt>
      <trkpt lat="46.46145" lon="5.26902">
        <ele>196.39999389648</ele>
        <time>2021-03-12T12:32:38.000Z</time>
      </trkpt>
      <trkpt lat="46.46145" lon="5.26892">
        <ele>196.39999389648</ele>
        <time>2021-03-12T12:32:39.000Z</time>
      </trkpt>
      <trkpt lat="46.46145" lon="5.26882">
        <ele>196.39999389648</ele>
        <time>2021-03-12T12:32:40.000Z</time>
      </trkpt>
      <trkpt lat="46.46146" lon="5.26863">
        <ele>196</ele>
        <time>2021-03-12T12:32:42.000Z</time>
      </trkpt>
      <trkpt lat="46.46146" lon="5.26844">
        <ele>195.80000305176</ele>
        <time>2021-03-12T12:32:44.000Z</time>
      </trkpt>
      <trkpt lat="46.46146" lon="5.26826">
        <ele>195.80000305176</ele>
        <time>2021-03-12T12:32:46.000Z</time>
      </trkpt>
      <trkpt lat="46.46147" lon="5.26809">
        <ele>195.80000305176</ele>
        <time>2021-03-12T12:32:48.000Z</time>
      </trkpt>
      <trkpt lat="46.46147" lon="5.26793">
        <ele>195.80000305176</ele>
        <time>2021-03-12T12:32:50.000Z</time>
      </trkpt>
      <trkpt lat="46.46147" lon="5.26778">
        <ele>196</ele>
        <time>2021-03-12T12:32:52.000Z</time>
      </trkpt>
      <trkpt lat="46.46148" lon="5.26763">
        <ele>196.19999694824</ele>
        <time>2021-03-12T12:32:54.000Z</time>
      </trkpt>
      <trkpt lat="46.46148" lon="5.26755">
        <ele>196.39999389648</ele>
        <time>2021-03-12T12:32:55.000Z</time>
      </trkpt>
      <trkpt lat="46.46149" lon="5.26748">
        <ele>196.39999389648</ele>
        <time>2021-03-12T12:32:56.000Z</time>
      </trkpt>
      <trkpt lat="46.46149" lon="5.26733">
        <ele>196.60000610352</ele>
        <time>2021-03-12T12:32:58.000Z</time>
      </trkpt>
      <trkpt lat="46.46149" lon="5.26718">
        <ele>196.80000305176</ele>
        <time>2021-03-12T12:33:00.000Z</time>
      </trkpt>
      <trkpt lat="46.4615" lon="5.26703">
        <ele>196.80000305176</ele>
        <time>2021-03-12T12:33:02.000Z</time>
      </trkpt>
      <trkpt lat="46.4615" lon="5.26687">
        <ele>197.60000610352</ele>
        <time>2021-03-12T12:33:04.000Z</time>
      </trkpt>
      <trkpt lat="46.46151" lon="5.26673">
        <ele>198.19999694824</ele>
        <time>2021-03-12T12:33:06.000Z</time>
      </trkpt>
      <trkpt lat="46.46151" lon="5.26666">
        <ele>198.39999389648</ele>
        <time>2021-03-12T12:33:07.000Z</time>
      </trkpt>
      <trkpt lat="46.46151" lon="5.26659">
        <ele>198.39999389648</ele>
        <time>2021-03-12T12:33:08.000Z</time>
      </trkpt>
      <trkpt lat="46.46151" lon="5.26646">
        <ele>198.80000305176</ele>
        <time>2021-03-12T12:33:10.000Z</time>
      </trkpt>
      <trkpt lat="46.46152" lon="5.26633">
        <ele>199.39999389648</ele>
        <time>2021-03-12T12:33:12.000Z</time>
      </trkpt>
      <trkpt lat="46.46152" lon="5.26622">
        <ele>199.80000305176</ele>
        <time>2021-03-12T12:33:14.000Z</time>
      </trkpt>
      <trkpt lat="46.46153" lon="5.2661">
        <ele>200</ele>
        <time>2021-03-12T12:33:16.000Z</time>
      </trkpt>
      <trkpt lat="46.46153" lon="5.26599">
        <ele>200.60000610352</ele>
        <time>2021-03-12T12:33:18.000Z</time>
      </trkpt>
      <trkpt lat="46.46154" lon="5.26593">
        <ele>201.19999694824</ele>
        <time>2021-03-12T12:33:19.000Z</time>
      </trkpt>
      <trkpt lat="46.46155" lon="5.26588">
        <ele>201.60000610352</ele>
        <time>2021-03-12T12:33:20.000Z</time>
      </trkpt>
      <trkpt lat="46.46156" lon="5.26576">
        <ele>202.19999694824</ele>
        <time>2021-03-12T12:33:22.000Z</time>
      </trkpt>
      <trkpt lat="46.46157" lon="5.26571">
        <ele>202.39999389648</ele>
        <time>2021-03-12T12:33:23.000Z</time>
      </trkpt>
      <trkpt lat="46.46157" lon="5.26565">
        <ele>202.80000305176</ele>
        <time>2021-03-12T12:33:24.000Z</time>
      </trkpt>
      <trkpt lat="46.46158" lon="5.26555">
        <ele>203.19999694824</ele>
        <time>2021-03-12T12:33:26.000Z</time>
      </trkpt>
      <trkpt lat="46.46159" lon="5.26544">
        <ele>203.60000610352</ele>
        <time>2021-03-12T12:33:28.000Z</time>
      </trkpt>
      <trkpt lat="46.46161" lon="5.26532">
        <ele>204.19999694824</ele>
        <time>2021-03-12T12:33:30.000Z</time>
      </trkpt>
      <trkpt lat="46.46162" lon="5.26521">
        <ele>204.80000305176</ele>
        <time>2021-03-12T12:33:32.000Z</time>
      </trkpt>
      <trkpt lat="46.46163" lon="5.26511">
        <ele>205.39999389648</ele>
        <time>2021-03-12T12:33:34.000Z</time>
      </trkpt>
      <trkpt lat="46.46163" lon="5.26506">
        <ele>205.80000305176</ele>
        <time>2021-03-12T12:33:35.000Z</time>
      </trkpt>
      <trkpt lat="46.46164" lon="5.26501">
        <ele>206.19999694824</ele>
        <time>2021-03-12T12:33:36.000Z</time>
      </trkpt>
      <trkpt lat="46.46165" lon="5.26491">
        <ele>206.60000610352</ele>
        <time>2021-03-12T12:33:38.000Z</time>
      </trkpt>
      <trkpt lat="46.46166" lon="5.26486">
        <ele>207</ele>
        <time>2021-03-12T12:33:39.000Z</time>
      </trkpt>
      <trkpt lat="46.46166" lon="5.2648">
        <ele>207.60000610352</ele>
        <time>2021-03-12T12:33:40.000Z</time>
      </trkpt>
      <trkpt lat="46.46167" lon="5.2647">
        <ele>208.19999694824</ele>
        <time>2021-03-12T12:33:42.000Z</time>
      </trkpt>
      <trkpt lat="46.46168" lon="5.2646">
        <ele>208.60000610352</ele>
        <time>2021-03-12T12:33:44.000Z</time>
      </trkpt>
      <trkpt lat="46.46169" lon="5.26451">
        <ele>208.80000305176</ele>
        <time>2021-03-12T12:33:46.000Z</time>
      </trkpt>
      <trkpt lat="46.4617" lon="5.26441">
        <ele>209.39999389648</ele>
        <time>2021-03-12T12:33:48.000Z</time>
      </trkpt>
      <trkpt lat="46.46171" lon="5.26431">
        <ele>209.80000305176</ele>
        <time>2021-03-12T12:33:50.000Z</time>
      </trkpt>
      <trkpt lat="46.46172" lon="5.26422">
        <ele>210</ele>
        <time>2021-03-12T12:33:52.000Z</time>
      </trkpt>
      <trkpt lat="46.46173" lon="5.26417">
        <ele>210.19999694824</ele>
        <time>2021-03-12T12:33:53.000Z</time>
      </trkpt>
      <trkpt lat="46.46174" lon="5.26412">
        <ele>210.19999694824</ele>
        <time>2021-03-12T12:33:54.000Z</time>
      </trkpt>
      <trkpt lat="46.46174" lon="5.26407">
        <ele>210.39999389648</ele>
        <time>2021-03-12T12:33:55.000Z</time>
      </trkpt>
      <trkpt lat="46.46174" lon="5.26403">
        <ele>210.60000610352</ele>
        <time>2021-03-12T12:33:56.000Z</time>
      </trkpt>
      <trkpt lat="46.46175" lon="5.26393">
        <ele>211</ele>
        <time>2021-03-12T12:33:58.000Z</time>
      </trkpt>
      <trkpt lat="46.46176" lon="5.26384">
        <ele>211.39999389648</ele>
        <time>2021-03-12T12:34:00.000Z</time>
      </trkpt>
      <trkpt lat="46.46177" lon="5.26379">
        <ele>211.60000610352</ele>
        <time>2021-03-12T12:34:01.000Z</time>
      </trkpt>
      <trkpt lat="46.46177" lon="5.26375">
        <ele>211.80000305176</ele>
        <time>2021-03-12T12:34:02.000Z</time>
      </trkpt>
      <trkpt lat="46.46178" lon="5.26365">
        <ele>212.19999694824</ele>
        <time>2021-03-12T12:34:04.000Z</time>
      </trkpt>
      <trkpt lat="46.46179" lon="5.26356">
        <ele>212.80000305176</ele>
        <time>2021-03-12T12:34:06.000Z</time>
      </trkpt>
      <trkpt lat="46.4618" lon="5.26346">
        <ele>213</ele>
        <time>2021-03-12T12:34:08.000Z</time>
      </trkpt>
      <trkpt lat="46.4618" lon="5.26337">
        <ele>213.19999694824</ele>
        <time>2021-03-12T12:34:10.000Z</time>
      </trkpt>
      <trkpt lat="46.46181" lon="5.26327">
        <ele>213.39999389648</ele>
        <time>2021-03-12T12:34:12.000Z</time>
      </trkpt>
      <trkpt lat="46.46182" lon="5.26323">
        <ele>213.80000305176</ele>
        <time>2021-03-12T12:34:13.000Z</time>
      </trkpt>
      <trkpt lat="46.46182" lon="5.26318">
        <ele>214</ele>
        <time>2021-03-12T12:34:14.000Z</time>
      </trkpt>
      <trkpt lat="46.46183" lon="5.26308">
        <ele>214.39999389648</ele>
        <time>2021-03-12T12:34:16.000Z</time>
      </trkpt>
      <trkpt lat="46.46184" lon="5.26299">
        <ele>214.80000305176</ele>
        <time>2021-03-12T12:34:18.000Z</time>
      </trkpt>
      <trkpt lat="46.46185" lon="5.26294">
        <ele>215.19999694824</ele>
        <time>2021-03-12T12:34:19.000Z</time>
      </trkpt>
      <trkpt lat="46.46185" lon="5.26289">
        <ele>215.19999694824</ele>
        <time>2021-03-12T12:34:20.000Z</time>
      </trkpt>
      <trkpt lat="46.46186" lon="5.2628">
        <ele>215.80000305176</ele>
        <time>2021-03-12T12:34:22.000Z</time>
      </trkpt>
      <trkpt lat="46.46187" lon="5.26275">
        <ele>216</ele>
        <time>2021-03-12T12:34:23.000Z</time>
      </trkpt>
      <trkpt lat="46.46187" lon="5.2627">
        <ele>216</ele>
        <time>2021-03-12T12:34:24.000Z</time>
      </trkpt>
      <trkpt lat="46.46188" lon="5.26261">
        <ele>216.19999694824</ele>
        <time>2021-03-12T12:34:26.000Z</time>
      </trkpt>
      <trkpt lat="46.46189" lon="5.26251">
        <ele>216.60000610352</ele>
        <time>2021-03-12T12:34:28.000Z</time>
      </trkpt>
      <trkpt lat="46.46189" lon="5.26246">
        <ele>217</ele>
        <time>2021-03-12T12:34:29.000Z</time>
      </trkpt>
      <trkpt lat="46.4619" lon="5.26241">
        <ele>217.19999694824</ele>
        <time>2021-03-12T12:34:30.000Z</time>
      </trkpt>
      <trkpt lat="46.46191" lon="5.2623">
        <ele>217.60000610352</ele>
        <time>2021-03-12T12:34:32.000Z</time>
      </trkpt>
      <trkpt lat="46.46191" lon="5.26225">
        <ele>218</ele>
        <time>2021-03-12T12:34:33.000Z</time>
      </trkpt>
      <trkpt lat="46.46192" lon="5.2622">
        <ele>218.19999694824</ele>
        <time>2021-03-12T12:34:34.000Z</time>
      </trkpt>
      <trkpt lat="46.46193" lon="5.26209">
        <ele>218.60000610352</ele>
        <time>2021-03-12T12:34:36.000Z</time>
      </trkpt>
      <trkpt lat="46.46194" lon="5.26198">
        <ele>219</ele>
        <time>2021-03-12T12:34:38.000Z</time>
      </trkpt>
      <trkpt lat="46.46195" lon="5.26186">
        <ele>219</ele>
        <time>2021-03-12T12:34:40.000Z</time>
      </trkpt>
      <trkpt lat="46.46196" lon="5.26173">
        <ele>219</ele>
        <time>2021-03-12T12:34:42.000Z</time>
      </trkpt>
      <trkpt lat="46.46198" lon="5.2616">
        <ele>219.60000610352</ele>
        <time>2021-03-12T12:34:44.000Z</time>
      </trkpt>
      <trkpt lat="46.46199" lon="5.26147">
        <ele>219.80000305176</ele>
        <time>2021-03-12T12:34:46.000Z</time>
      </trkpt>
      <trkpt lat="46.462" lon="5.26134">
        <ele>220</ele>
        <time>2021-03-12T12:34:48.000Z</time>
      </trkpt>
      <trkpt lat="46.462" lon="5.26127">
        <ele>220</ele>
        <time>2021-03-12T12:34:49.000Z</time>
      </trkpt>
      <trkpt lat="46.46201" lon="5.26121">
        <ele>220.19999694824</ele>
        <time>2021-03-12T12:34:50.000Z</time>
      </trkpt>
      <trkpt lat="46.46202" lon="5.26107">
        <ele>220.39999389648</ele>
        <time>2021-03-12T12:34:52.000Z</time>
      </trkpt>
      <trkpt lat="46.46203" lon="5.26094">
        <ele>220.60000610352</ele>
        <time>2021-03-12T12:34:54.000Z</time>
      </trkpt>
      <trkpt lat="46.46204" lon="5.2608">
        <ele>220.80000305176</ele>
        <time>2021-03-12T12:34:56.000Z</time>
      </trkpt>
      <trkpt lat="46.46206" lon="5.26066">
        <ele>221.19999694824</ele>
        <time>2021-03-12T12:34:58.000Z</time>
      </trkpt>
      <trkpt lat="46.46207" lon="5.26051">
        <ele>221.39999389648</ele>
        <time>2021-03-12T12:35:00.000Z</time>
      </trkpt>
      <trkpt lat="46.46208" lon="5.26044">
        <ele>221.39999389648</ele>
        <time>2021-03-12T12:35:01.000Z</time>
      </trkpt>
      <trkpt lat="46.46209" lon="5.26036">
        <ele>221.80000305176</ele>
        <time>2021-03-12T12:35:02.000Z</time>
      </trkpt>
      <trkpt lat="46.46212" lon="5.2602">
        <ele>222</ele>
        <time>2021-03-12T12:35:04.000Z</time>
      </trkpt>
      <trkpt lat="46.46215" lon="5.26003">
        <ele>222</ele>
        <time>2021-03-12T12:35:06.000Z</time>
      </trkpt>
      <trkpt lat="46.46217" lon="5.25994">
        <ele>222</ele>
        <time>2021-03-12T12:35:07.000Z</time>
      </trkpt>
      <trkpt lat="46.46219" lon="5.25985">
        <ele>222</ele>
        <time>2021-03-12T12:35:08.000Z</time>
      </trkpt>
      <trkpt lat="46.46225" lon="5.25966">
        <ele>222</ele>
        <time>2021-03-12T12:35:10.000Z</time>
      </trkpt>
      <trkpt lat="46.46232" lon="5.25945">
        <ele>221.60000610352</ele>
        <time>2021-03-12T12:35:12.000Z</time>
      </trkpt>
      <trkpt lat="46.4624" lon="5.25923">
        <ele>221.19999694824</ele>
        <time>2021-03-12T12:35:14.000Z</time>
      </trkpt>
      <trkpt lat="46.46247" lon="5.259">
        <ele>220.39999389648</ele>
        <time>2021-03-12T12:35:16.000Z</time>
      </trkpt>
      <trkpt lat="46.4625" lon="5.25887">
        <ele>220</ele>
        <time>2021-03-12T12:35:17.000Z</time>
      </trkpt>
      <trkpt lat="46.46253" lon="5.25874">
        <ele>219.60000610352</ele>
        <time>2021-03-12T12:35:18.000Z</time>
      </trkpt>
      <trkpt lat="46.46255" lon="5.25861">
        <ele>219.19999694824</ele>
        <time>2021-03-12T12:35:19.000Z</time>
      </trkpt>
      <trkpt lat="46.46255" lon="5.25846">
        <ele>218.80000305176</ele>
        <time>2021-03-12T12:35:20.000Z</time>
      </trkpt>
      <trkpt lat="46.46254" lon="5.25832">
        <ele>218.19999694824</ele>
        <time>2021-03-12T12:35:21.000Z</time>
      </trkpt>
      <trkpt lat="46.46252" lon="5.25818">
        <ele>217.60000610352</ele>
        <time>2021-03-12T12:35:22.000Z</time>
      </trkpt>
      <trkpt lat="46.46249" lon="5.25804">
        <ele>217</ele>
        <time>2021-03-12T12:35:23.000Z</time>
      </trkpt>
      <trkpt lat="46.46246" lon="5.2579">
        <ele>216</ele>
        <time>2021-03-12T12:35:24.000Z</time>
      </trkpt>
      <trkpt lat="46.4624" lon="5.25763">
        <ele>214.60000610352</ele>
        <time>2021-03-12T12:35:26.000Z</time>
      </trkpt>
      <trkpt lat="46.46235" lon="5.25736">
        <ele>212.80000305176</ele>
        <time>2021-03-12T12:35:28.000Z</time>
      </trkpt>
      <trkpt lat="46.46231" lon="5.25712">
        <ele>210.80000305176</ele>
        <time>2021-03-12T12:35:30.000Z</time>
      </trkpt>
      <trkpt lat="46.4623" lon="5.257">
        <ele>210</ele>
        <time>2021-03-12T12:35:31.000Z</time>
      </trkpt>
      <trkpt lat="46.46229" lon="5.2569">
        <ele>209.39999389648</ele>
        <time>2021-03-12T12:35:32.000Z</time>
      </trkpt>
      <trkpt lat="46.4623" lon="5.25669">
        <ele>209.19999694824</ele>
        <time>2021-03-12T12:35:34.000Z</time>
      </trkpt>
      <trkpt lat="46.46231" lon="5.25659">
        <ele>209.19999694824</ele>
        <time>2021-03-12T12:35:35.000Z</time>
      </trkpt>
      <trkpt lat="46.46232" lon="5.2565">
        <ele>209.19999694824</ele>
        <time>2021-03-12T12:35:36.000Z</time>
      </trkpt>
      <trkpt lat="46.46236" lon="5.25632">
        <ele>209.19999694824</ele>
        <time>2021-03-12T12:35:38.000Z</time>
      </trkpt>
      <trkpt lat="46.4624" lon="5.25614">
        <ele>209.39999389648</ele>
        <time>2021-03-12T12:35:40.000Z</time>
      </trkpt>
      <trkpt lat="46.46242" lon="5.25605">
        <ele>210</ele>
        <time>2021-03-12T12:35:41.000Z</time>
      </trkpt>
      <trkpt lat="46.46244" lon="5.25596">
        <ele>210.60000610352</ele>
        <time>2021-03-12T12:35:42.000Z</time>
      </trkpt>
      <trkpt lat="46.46249" lon="5.25576">
        <ele>212</ele>
        <time>2021-03-12T12:35:44.000Z</time>
      </trkpt>
      <trkpt lat="46.46255" lon="5.25557">
        <ele>212.60000610352</ele>
        <time>2021-03-12T12:35:46.000Z</time>
      </trkpt>
      <trkpt lat="46.46261" lon="5.25538">
        <ele>212.80000305176</ele>
        <time>2021-03-12T12:35:48.000Z</time>
      </trkpt>
      <trkpt lat="46.46269" lon="5.25521">
        <ele>212.80000305176</ele>
        <time>2021-03-12T12:35:50.000Z</time>
      </trkpt>
      <trkpt lat="46.46278" lon="5.25504">
        <ele>212.80000305176</ele>
        <time>2021-03-12T12:35:52.000Z</time>
      </trkpt>
      <trkpt lat="46.46288" lon="5.25488">
        <ele>212.80000305176</ele>
        <time>2021-03-12T12:35:54.000Z</time>
      </trkpt>
      <trkpt lat="46.46297" lon="5.25472">
        <ele>212.80000305176</ele>
        <time>2021-03-12T12:35:56.000Z</time>
      </trkpt>
      <trkpt lat="46.46306" lon="5.25456">
        <ele>212.60000610352</ele>
        <time>2021-03-12T12:35:58.000Z</time>
      </trkpt>
      <trkpt lat="46.46316" lon="5.25439">
        <ele>212.60000610352</ele>
        <time>2021-03-12T12:36:00.000Z</time>
      </trkpt>
      <trkpt lat="46.46326" lon="5.25422">
        <ele>212.19999694824</ele>
        <time>2021-03-12T12:36:02.000Z</time>
      </trkpt>
      <trkpt lat="46.46331" lon="5.25414">
        <ele>212.19999694824</ele>
        <time>2021-03-12T12:36:03.000Z</time>
      </trkpt>
      <trkpt lat="46.46336" lon="5.25406">
        <ele>212.19999694824</ele>
        <time>2021-03-12T12:36:04.000Z</time>
      </trkpt>
      <trkpt lat="46.46346" lon="5.25388">
        <ele>212</ele>
        <time>2021-03-12T12:36:06.000Z</time>
      </trkpt>
      <trkpt lat="46.46356" lon="5.25371">
        <ele>212</ele>
        <time>2021-03-12T12:36:08.000Z</time>
      </trkpt>
      <trkpt lat="46.46366" lon="5.25354">
        <ele>211.60000610352</ele>
        <time>2021-03-12T12:36:10.000Z</time>
      </trkpt>
      <trkpt lat="46.46376" lon="5.25337">
        <ele>211.39999389648</ele>
        <time>2021-03-12T12:36:12.000Z</time>
      </trkpt>
      <trkpt lat="46.46381" lon="5.25329">
        <ele>211.39999389648</ele>
        <time>2021-03-12T12:36:13.000Z</time>
      </trkpt>
      <trkpt lat="46.46386" lon="5.2532">
        <ele>211.19999694824</ele>
        <time>2021-03-12T12:36:14.000Z</time>
      </trkpt>
      <trkpt lat="46.46398" lon="5.25305">
        <ele>211.19999694824</ele>
        <time>2021-03-12T12:36:16.000Z</time>
      </trkpt>
      <trkpt lat="46.46404" lon="5.25297">
        <ele>211</ele>
        <time>2021-03-12T12:36:17.000Z</time>
      </trkpt>
      <trkpt lat="46.46411" lon="5.2529">
        <ele>211</ele>
        <time>2021-03-12T12:36:18.000Z</time>
      </trkpt>
      <trkpt lat="46.46425" lon="5.25277">
        <ele>210.60000610352</ele>
        <time>2021-03-12T12:36:20.000Z</time>
      </trkpt>
      <trkpt lat="46.4644" lon="5.25265">
        <ele>210.39999389648</ele>
        <time>2021-03-12T12:36:22.000Z</time>
      </trkpt>
      <trkpt lat="46.46456" lon="5.25252">
        <ele>210.19999694824</ele>
        <time>2021-03-12T12:36:24.000Z</time>
      </trkpt>
      <trkpt lat="46.46464" lon="5.25246">
        <ele>210</ele>
        <time>2021-03-12T12:36:25.000Z</time>
      </trkpt>
      <trkpt lat="46.46472" lon="5.2524">
        <ele>209.80000305176</ele>
        <time>2021-03-12T12:36:26.000Z</time>
      </trkpt>
      <trkpt lat="46.4648" lon="5.25234">
        <ele>209.60000610352</ele>
        <time>2021-03-12T12:36:27.000Z</time>
      </trkpt>
      <trkpt lat="46.46496" lon="5.2522">
        <ele>209.19999694824</ele>
        <time>2021-03-12T12:36:29.000Z</time>
      </trkpt>
      <trkpt lat="46.46504" lon="5.25214">
        <ele>208.60000610352</ele>
        <time>2021-03-12T12:36:30.000Z</time>
      </trkpt>
      <trkpt lat="46.46512" lon="5.25207">
        <ele>208.19999694824</ele>
        <time>2021-03-12T12:36:31.000Z</time>
      </trkpt>
      <trkpt lat="46.46529" lon="5.25194">
        <ele>207.39999389648</ele>
        <time>2021-03-12T12:36:33.000Z</time>
      </trkpt>
      <trkpt lat="46.46545" lon="5.25183">
        <ele>206.39999389648</ele>
        <time>2021-03-12T12:36:35.000Z</time>
      </trkpt>
      <trkpt lat="46.46552" lon="5.25177">
        <ele>206</ele>
        <time>2021-03-12T12:36:36.000Z</time>
      </trkpt>
      <trkpt lat="46.4656" lon="5.25171">
        <ele>205.60000610352</ele>
        <time>2021-03-12T12:36:37.000Z</time>
      </trkpt>
      <trkpt lat="46.46575" lon="5.2516">
        <ele>205.19999694824</ele>
        <time>2021-03-12T12:36:39.000Z</time>
      </trkpt>
      <trkpt lat="46.46582" lon="5.25154">
        <ele>204.80000305176</ele>
        <time>2021-03-12T12:36:40.000Z</time>
      </trkpt>
      <trkpt lat="46.46589" lon="5.25148">
        <ele>204.60000610352</ele>
        <time>2021-03-12T12:36:41.000Z</time>
      </trkpt>
      <trkpt lat="46.46603" lon="5.25137">
        <ele>204.39999389648</ele>
        <time>2021-03-12T12:36:43.000Z</time>
      </trkpt>
      <trkpt lat="46.46616" lon="5.25126">
        <ele>204.19999694824</ele>
        <time>2021-03-12T12:36:45.000Z</time>
      </trkpt>
      <trkpt lat="46.4663" lon="5.25115">
        <ele>204.19999694824</ele>
        <time>2021-03-12T12:36:47.000Z</time>
      </trkpt>
      <trkpt lat="46.46645" lon="5.25104">
        <ele>204</ele>
        <time>2021-03-12T12:36:49.000Z</time>
      </trkpt>
      <trkpt lat="46.46653" lon="5.25097">
        <ele>204</ele>
        <time>2021-03-12T12:36:50.000Z</time>
      </trkpt>
      <trkpt lat="46.4666" lon="5.25091">
        <ele>204</ele>
        <time>2021-03-12T12:36:51.000Z</time>
      </trkpt>
      <trkpt lat="46.46677" lon="5.25078">
        <ele>203.80000305176</ele>
        <time>2021-03-12T12:36:53.000Z</time>
      </trkpt>
      <trkpt lat="46.46693" lon="5.25066">
        <ele>203.80000305176</ele>
        <time>2021-03-12T12:36:55.000Z</time>
      </trkpt>
      <trkpt lat="46.46701" lon="5.25059">
        <ele>203.80000305176</ele>
        <time>2021-03-12T12:36:56.000Z</time>
      </trkpt>
      <trkpt lat="46.46708" lon="5.25053">
        <ele>203.80000305176</ele>
        <time>2021-03-12T12:36:57.000Z</time>
      </trkpt>
      <trkpt lat="46.46722" lon="5.25042">
        <ele>202.60000610352</ele>
        <time>2021-03-12T12:36:59.000Z</time>
      </trkpt>
      <trkpt lat="46.46737" lon="5.25031">
        <ele>202.39999389648</ele>
        <time>2021-03-12T12:37:01.000Z</time>
      </trkpt>
      <trkpt lat="46.46744" lon="5.25026">
        <ele>202.39999389648</ele>
        <time>2021-03-12T12:37:02.000Z</time>
      </trkpt>
      <trkpt lat="46.46752" lon="5.25021">
        <ele>202.39999389648</ele>
        <time>2021-03-12T12:37:03.000Z</time>
      </trkpt>
      <trkpt lat="46.46766" lon="5.25009">
        <ele>202.19999694824</ele>
        <time>2021-03-12T12:37:05.000Z</time>
      </trkpt>
      <trkpt lat="46.4678" lon="5.24997">
        <ele>202</ele>
        <time>2021-03-12T12:37:07.000Z</time>
      </trkpt>
      <trkpt lat="46.46795" lon="5.24985">
        <ele>201.80000305176</ele>
        <time>2021-03-12T12:37:09.000Z</time>
      </trkpt>
      <trkpt lat="46.46811" lon="5.24972">
        <ele>201.80000305176</ele>
        <time>2021-03-12T12:37:11.000Z</time>
      </trkpt>
      <trkpt lat="46.4682" lon="5.24966">
        <ele>201.60000610352</ele>
        <time>2021-03-12T12:37:12.000Z</time>
      </trkpt>
      <trkpt lat="46.46828" lon="5.2496">
        <ele>201.60000610352</ele>
        <time>2021-03-12T12:37:13.000Z</time>
      </trkpt>
      <trkpt lat="46.46844" lon="5.24947">
        <ele>201.60000610352</ele>
        <time>2021-03-12T12:37:15.000Z</time>
      </trkpt>
      <trkpt lat="46.46861" lon="5.24933">
        <ele>201.39999389648</ele>
        <time>2021-03-12T12:37:17.000Z</time>
      </trkpt>
      <trkpt lat="46.46876" lon="5.24919">
        <ele>200.80000305176</ele>
        <time>2021-03-12T12:37:19.000Z</time>
      </trkpt>
      <trkpt lat="46.46884" lon="5.24913">
        <ele>200.60000610352</ele>
        <time>2021-03-12T12:37:20.000Z</time>
      </trkpt>
      <trkpt lat="46.46892" lon="5.24906">
        <ele>200</ele>
        <time>2021-03-12T12:37:21.000Z</time>
      </trkpt>
      <trkpt lat="46.46908" lon="5.24893">
        <ele>199.60000610352</ele>
        <time>2021-03-12T12:37:23.000Z</time>
      </trkpt>
      <trkpt lat="46.46916" lon="5.24886">
        <ele>199.19999694824</ele>
        <time>2021-03-12T12:37:24.000Z</time>
      </trkpt>
      <trkpt lat="46.46924" lon="5.24879">
        <ele>199</ele>
        <time>2021-03-12T12:37:25.000Z</time>
      </trkpt>
      <trkpt lat="46.4694" lon="5.24866">
        <ele>198.60000610352</ele>
        <time>2021-03-12T12:37:27.000Z</time>
      </trkpt>
      <trkpt lat="46.46948" lon="5.24859">
        <ele>198.60000610352</ele>
        <time>2021-03-12T12:37:28.000Z</time>
      </trkpt>
      <trkpt lat="46.46956" lon="5.24853">
        <ele>198.39999389648</ele>
        <time>2021-03-12T12:37:29.000Z</time>
      </trkpt>
      <trkpt lat="46.46973" lon="5.24839">
        <ele>198</ele>
        <time>2021-03-12T12:37:31.000Z</time>
      </trkpt>
      <trkpt lat="46.46988" lon="5.24826">
        <ele>197.60000610352</ele>
        <time>2021-03-12T12:37:33.000Z</time>
      </trkpt>
      <trkpt lat="46.46995" lon="5.2482">
        <ele>197.19999694824</ele>
        <time>2021-03-12T12:37:34.000Z</time>
      </trkpt>
      <trkpt lat="46.47002" lon="5.24814">
        <ele>197</ele>
        <time>2021-03-12T12:37:35.000Z</time>
      </trkpt>
      <trkpt lat="46.47014" lon="5.24802">
        <ele>196.39999389648</ele>
        <time>2021-03-12T12:37:37.000Z</time>
      </trkpt>
      <trkpt lat="46.47025" lon="5.24791">
        <ele>196.19999694824</ele>
        <time>2021-03-12T12:37:39.000Z</time>
      </trkpt>
      <trkpt lat="46.47035" lon="5.2478">
        <ele>196.19999694824</ele>
        <time>2021-03-12T12:37:41.000Z</time>
      </trkpt>
      <trkpt lat="46.47042" lon="5.2477">
        <ele>196.19999694824</ele>
        <time>2021-03-12T12:37:43.000Z</time>
      </trkpt>
      <trkpt lat="46.47049" lon="5.2476">
        <ele>196.19999694824</ele>
        <time>2021-03-12T12:37:45.000Z</time>
      </trkpt>
      <trkpt lat="46.47056" lon="5.24749">
        <ele>197.19999694824</ele>
        <time>2021-03-12T12:37:47.000Z</time>
      </trkpt>
      <trkpt lat="46.47062" lon="5.24737">
        <ele>198.39999389648</ele>
        <time>2021-03-12T12:37:49.000Z</time>
      </trkpt>
      <trkpt lat="46.47068" lon="5.24724">
        <ele>199.19999694824</ele>
        <time>2021-03-12T12:37:51.000Z</time>
      </trkpt>
      <trkpt lat="46.47072" lon="5.24718">
        <ele>199.60000610352</ele>
        <time>2021-03-12T12:37:52.000Z</time>
      </trkpt>
      <trkpt lat="46.47075" lon="5.24711">
        <ele>200.39999389648</ele>
        <time>2021-03-12T12:37:53.000Z</time>
      </trkpt>
      <trkpt lat="46.47079" lon="5.24704">
        <ele>201</ele>
        <time>2021-03-12T12:37:54.000Z</time>
      </trkpt>
      <trkpt lat="46.47082" lon="5.24697">
        <ele>201.39999389648</ele>
        <time>2021-03-12T12:37:55.000Z</time>
      </trkpt>
      <trkpt lat="46.47085" lon="5.2469">
        <ele>202</ele>
        <time>2021-03-12T12:37:56.000Z</time>
      </trkpt>
      <trkpt lat="46.47088" lon="5.24683">
        <ele>202.39999389648</ele>
        <time>2021-03-12T12:37:57.000Z</time>
      </trkpt>
      <trkpt lat="46.47092" lon="5.24668">
        <ele>202.80000305176</ele>
        <time>2021-03-12T12:37:59.000Z</time>
      </trkpt>
      <trkpt lat="46.47097" lon="5.24654">
        <ele>203</ele>
        <time>2021-03-12T12:38:01.000Z</time>
      </trkpt>
      <trkpt lat="46.471" lon="5.24648">
        <ele>203.19999694824</ele>
        <time>2021-03-12T12:38:02.000Z</time>
      </trkpt>
      <trkpt lat="46.47104" lon="5.24642">
        <ele>203.60000610352</ele>
        <time>2021-03-12T12:38:03.000Z</time>
      </trkpt>
      <trkpt lat="46.47109" lon="5.24638">
        <ele>203.80000305176</ele>
        <time>2021-03-12T12:38:04.000Z</time>
      </trkpt>
      <trkpt lat="46.47114" lon="5.24637">
        <ele>203.80000305176</ele>
        <time>2021-03-12T12:38:05.000Z</time>
      </trkpt>
      <trkpt lat="46.47125" lon="5.2464">
        <ele>204</ele>
        <time>2021-03-12T12:38:07.000Z</time>
      </trkpt>
      <trkpt lat="46.4713" lon="5.24642">
        <ele>204</ele>
        <time>2021-03-12T12:38:08.000Z</time>
      </trkpt>
      <trkpt lat="46.47135" lon="5.24645">
        <ele>204</ele>
        <time>2021-03-12T12:38:09.000Z</time>
      </trkpt>
      <trkpt lat="46.47146" lon="5.24649">
        <ele>204.19999694824</ele>
        <time>2021-03-12T12:38:11.000Z</time>
      </trkpt>
      <trkpt lat="46.47157" lon="5.24653">
        <ele>204.19999694824</ele>
        <time>2021-03-12T12:38:13.000Z</time>
      </trkpt>
      <trkpt lat="46.47168" lon="5.24656">
        <ele>204.60000610352</ele>
        <time>2021-03-12T12:38:15.000Z</time>
      </trkpt>
      <trkpt lat="46.47173" lon="5.24658">
        <ele>204.80000305176</ele>
        <time>2021-03-12T12:38:16.000Z</time>
      </trkpt>
      <trkpt lat="46.47179" lon="5.24659">
        <ele>205</ele>
        <time>2021-03-12T12:38:17.000Z</time>
      </trkpt>
      <trkpt lat="46.4719" lon="5.24661">
        <ele>205.60000610352</ele>
        <time>2021-03-12T12:38:19.000Z</time>
      </trkpt>
      <trkpt lat="46.47201" lon="5.24663">
        <ele>206</ele>
        <time>2021-03-12T12:38:21.000Z</time>
      </trkpt>
      <trkpt lat="46.47211" lon="5.24664">
        <ele>206.60000610352</ele>
        <time>2021-03-12T12:38:23.000Z</time>
      </trkpt>
      <trkpt lat="46.47216" lon="5.24664">
        <ele>206.60000610352</ele>
        <time>2021-03-12T12:38:24.000Z</time>
      </trkpt>
      <trkpt lat="46.47222" lon="5.24665">
        <ele>207</ele>
        <time>2021-03-12T12:38:25.000Z</time>
      </trkpt>
      <trkpt lat="46.47233" lon="5.24664">
        <ele>207.39999389648</ele>
        <time>2021-03-12T12:38:27.000Z</time>
      </trkpt>
      <trkpt lat="46.47238" lon="5.24664">
        <ele>207.60000610352</ele>
        <time>2021-03-12T12:38:28.000Z</time>
      </trkpt>
      <trkpt lat="46.47243" lon="5.24664">
        <ele>208</ele>
        <time>2021-03-12T12:38:29.000Z</time>
      </trkpt>
      <trkpt lat="46.47253" lon="5.24664">
        <ele>208.39999389648</ele>
        <time>2021-03-12T12:38:31.000Z</time>
      </trkpt>
      <trkpt lat="46.47259" lon="5.24663">
        <ele>208.80000305176</ele>
        <time>2021-03-12T12:38:32.000Z</time>
      </trkpt>
      <trkpt lat="46.47264" lon="5.24663">
        <ele>209</ele>
        <time>2021-03-12T12:38:33.000Z</time>
      </trkpt>
      <trkpt lat="46.47274" lon="5.24662">
        <ele>209.19999694824</ele>
        <time>2021-03-12T12:38:35.000Z</time>
      </trkpt>
      <trkpt lat="46.47284" lon="5.24661">
        <ele>209.39999389648</ele>
        <time>2021-03-12T12:38:37.000Z</time>
      </trkpt>
      <trkpt lat="46.47295" lon="5.2466">
        <ele>209.60000610352</ele>
        <time>2021-03-12T12:38:39.000Z</time>
      </trkpt>
      <trkpt lat="46.473" lon="5.2466">
        <ele>209.60000610352</ele>
        <time>2021-03-12T12:38:40.000Z</time>
      </trkpt>
      <trkpt lat="46.47305" lon="5.24659">
        <ele>209.80000305176</ele>
        <time>2021-03-12T12:38:41.000Z</time>
      </trkpt>
      <trkpt lat="46.4731" lon="5.24659">
        <ele>209.80000305176</ele>
        <time>2021-03-12T12:38:42.000Z</time>
      </trkpt>
      <trkpt lat="46.47315" lon="5.24658">
        <ele>210</ele>
        <time>2021-03-12T12:38:43.000Z</time>
      </trkpt>
      <trkpt lat="46.47326" lon="5.24658">
        <ele>210.19999694824</ele>
        <time>2021-03-12T12:38:45.000Z</time>
      </trkpt>
      <trkpt lat="46.47336" lon="5.24657">
        <ele>210.39999389648</ele>
        <time>2021-03-12T12:38:47.000Z</time>
      </trkpt>
      <trkpt lat="46.47347" lon="5.24656">
        <ele>210.80000305176</ele>
        <time>2021-03-12T12:38:49.000Z</time>
      </trkpt>
      <trkpt lat="46.47358" lon="5.24655">
        <ele>211</ele>
        <time>2021-03-12T12:38:51.000Z</time>
      </trkpt>
      <trkpt lat="46.47368" lon="5.24655">
        <ele>211.19999694824</ele>
        <time>2021-03-12T12:38:53.000Z</time>
      </trkpt>
      <trkpt lat="46.47379" lon="5.24654">
        <ele>211.60000610352</ele>
        <time>2021-03-12T12:38:55.000Z</time>
      </trkpt>
      <trkpt lat="46.47389" lon="5.24653">
        <ele>211.80000305176</ele>
        <time>2021-03-12T12:38:57.000Z</time>
      </trkpt>
      <trkpt lat="46.474" lon="5.24651">
        <ele>212.19999694824</ele>
        <time>2021-03-12T12:38:59.000Z</time>
      </trkpt>
      <trkpt lat="46.47411" lon="5.2465">
        <ele>212.39999389648</ele>
        <time>2021-03-12T12:39:01.000Z</time>
      </trkpt>
      <trkpt lat="46.47422" lon="5.2465">
        <ele>212.80000305176</ele>
        <time>2021-03-12T12:39:03.000Z</time>
      </trkpt>
      <trkpt lat="46.47433" lon="5.24649">
        <ele>213</ele>
        <time>2021-03-12T12:39:05.000Z</time>
      </trkpt>
      <trkpt lat="46.47444" lon="5.24648">
        <ele>213.19999694824</ele>
        <time>2021-03-12T12:39:07.000Z</time>
      </trkpt>
      <trkpt lat="46.4745" lon="5.24647">
        <ele>213.19999694824</ele>
        <time>2021-03-12T12:39:08.000Z</time>
      </trkpt>
      <trkpt lat="46.47456" lon="5.24647">
        <ele>213.19999694824</ele>
        <time>2021-03-12T12:39:09.000Z</time>
      </trkpt>
      <trkpt lat="46.47469" lon="5.24645">
        <ele>213.39999389648</ele>
        <time>2021-03-12T12:39:11.000Z</time>
      </trkpt>
      <trkpt lat="46.47481" lon="5.24644">
        <ele>213.60000610352</ele>
        <time>2021-03-12T12:39:13.000Z</time>
      </trkpt>
      <trkpt lat="46.47493" lon="5.24641">
        <ele>213.60000610352</ele>
        <time>2021-03-12T12:39:15.000Z</time>
      </trkpt>
      <trkpt lat="46.47499" lon="5.2464">
        <ele>213.60000610352</ele>
        <time>2021-03-12T12:39:16.000Z</time>
      </trkpt>
      <trkpt lat="46.47506" lon="5.24638">
        <ele>213.80000305176</ele>
        <time>2021-03-12T12:39:17.000Z</time>
      </trkpt>
      <trkpt lat="46.47518" lon="5.24632">
        <ele>213.80000305176</ele>
        <time>2021-03-12T12:39:19.000Z</time>
      </trkpt>
      <trkpt lat="46.4753" lon="5.24626">
        <ele>214</ele>
        <time>2021-03-12T12:39:21.000Z</time>
      </trkpt>
      <trkpt lat="46.47542" lon="5.24619">
        <ele>214</ele>
        <time>2021-03-12T12:39:23.000Z</time>
      </trkpt>
      <trkpt lat="46.47554" lon="5.24612">
        <ele>214</ele>
        <time>2021-03-12T12:39:25.000Z</time>
      </trkpt>
      <trkpt lat="46.47566" lon="5.24606">
        <ele>214.19999694824</ele>
        <time>2021-03-12T12:39:27.000Z</time>
      </trkpt>
      <trkpt lat="46.47577" lon="5.24599">
        <ele>214.39999389648</ele>
        <time>2021-03-12T12:39:29.000Z</time>
      </trkpt>
      <trkpt lat="46.47589" lon="5.24593">
        <ele>214.60000610352</ele>
        <time>2021-03-12T12:39:31.000Z</time>
      </trkpt>
      <trkpt lat="46.47595" lon="5.24589">
        <ele>214.60000610352</ele>
        <time>2021-03-12T12:39:32.000Z</time>
      </trkpt>
      <trkpt lat="46.47601" lon="5.24586">
        <ele>214.80000305176</ele>
        <time>2021-03-12T12:39:33.000Z</time>
      </trkpt>
      <trkpt lat="46.47613" lon="5.24579">
        <ele>214.80000305176</ele>
        <time>2021-03-12T12:39:35.000Z</time>
      </trkpt>
      <trkpt lat="46.47625" lon="5.24573">
        <ele>215</ele>
        <time>2021-03-12T12:39:37.000Z</time>
      </trkpt>
      <trkpt lat="46.47636" lon="5.24566">
        <ele>215.19999694824</ele>
        <time>2021-03-12T12:39:39.000Z</time>
      </trkpt>
      <trkpt lat="46.47649" lon="5.24559">
        <ele>215.39999389648</ele>
        <time>2021-03-12T12:39:41.000Z</time>
      </trkpt>
      <trkpt lat="46.47661" lon="5.24552">
        <ele>215.60000610352</ele>
        <time>2021-03-12T12:39:43.000Z</time>
      </trkpt>
      <trkpt lat="46.47674" lon="5.24545">
        <ele>215.80000305176</ele>
        <time>2021-03-12T12:39:45.000Z</time>
      </trkpt>
      <trkpt lat="46.47687" lon="5.24538">
        <ele>215.80000305176</ele>
        <time>2021-03-12T12:39:47.000Z</time>
      </trkpt>
      <trkpt lat="46.47701" lon="5.24532">
        <ele>215.80000305176</ele>
        <time>2021-03-12T12:39:49.000Z</time>
      </trkpt>
      <trkpt lat="46.47715" lon="5.24526">
        <ele>215.80000305176</ele>
        <time>2021-03-12T12:39:51.000Z</time>
      </trkpt>
      <trkpt lat="46.4773" lon="5.24521">
        <ele>215.80000305176</ele>
        <time>2021-03-12T12:39:53.000Z</time>
      </trkpt>
      <trkpt lat="46.47744" lon="5.24516">
        <ele>215.80000305176</ele>
        <time>2021-03-12T12:39:55.000Z</time>
      </trkpt>
      <trkpt lat="46.47759" lon="5.24512">
        <ele>215.60000610352</ele>
        <time>2021-03-12T12:39:57.000Z</time>
      </trkpt>
      <trkpt lat="46.47767" lon="5.2451">
        <ele>215.39999389648</ele>
        <time>2021-03-12T12:39:58.000Z</time>
      </trkpt>
      <trkpt lat="46.47774" lon="5.24509">
        <ele>215.39999389648</ele>
        <time>2021-03-12T12:39:59.000Z</time>
      </trkpt>
      <trkpt lat="46.47788" lon="5.24507">
        <ele>215.39999389648</ele>
        <time>2021-03-12T12:40:01.000Z</time>
      </trkpt>
      <trkpt lat="46.47802" lon="5.24506">
        <ele>215.19999694824</ele>
        <time>2021-03-12T12:40:03.000Z</time>
      </trkpt>
      <trkpt lat="46.47815" lon="5.24505">
        <ele>215.19999694824</ele>
        <time>2021-03-12T12:40:05.000Z</time>
      </trkpt>
      <trkpt lat="46.47829" lon="5.24505">
        <ele>215.19999694824</ele>
        <time>2021-03-12T12:40:07.000Z</time>
      </trkpt>
      <trkpt lat="46.47842" lon="5.24504">
        <ele>215.39999389648</ele>
        <time>2021-03-12T12:40:09.000Z</time>
      </trkpt>
      <trkpt lat="46.47855" lon="5.24505">
        <ele>215.80000305176</ele>
        <time>2021-03-12T12:40:11.000Z</time>
      </trkpt>
      <trkpt lat="46.47868" lon="5.24506">
        <ele>216</ele>
        <time>2021-03-12T12:40:13.000Z</time>
      </trkpt>
      <trkpt lat="46.47874" lon="5.24506">
        <ele>216.19999694824</ele>
        <time>2021-03-12T12:40:14.000Z</time>
      </trkpt>
      <trkpt lat="46.4788" lon="5.24506">
        <ele>216.39999389648</ele>
        <time>2021-03-12T12:40:15.000Z</time>
      </trkpt>
      <trkpt lat="46.47887" lon="5.24506">
        <ele>216.80000305176</ele>
        <time>2021-03-12T12:40:16.000Z</time>
      </trkpt>
      <trkpt lat="46.47893" lon="5.24506">
        <ele>217</ele>
        <time>2021-03-12T12:40:17.000Z</time>
      </trkpt>
      <trkpt lat="46.47906" lon="5.24506">
        <ele>217.19999694824</ele>
        <time>2021-03-12T12:40:19.000Z</time>
      </trkpt>
      <trkpt lat="46.47917" lon="5.24505">
        <ele>217.80000305176</ele>
        <time>2021-03-12T12:40:21.000Z</time>
      </trkpt>
      <trkpt lat="46.47921" lon="5.24504">
        <ele>217.80000305176</ele>
        <time>2021-03-12T12:40:22.000Z</time>
      </trkpt>
      <trkpt lat="46.47928" lon="5.245">
        <ele>218.19999694824</ele>
        <time>2021-03-12T12:40:23.000Z</time>
      </trkpt>
      <trkpt lat="46.47942" lon="5.24492">
        <ele>218.19999694824</ele>
        <time>2021-03-12T12:40:25.000Z</time>
      </trkpt>
      <trkpt lat="46.47957" lon="5.24482">
        <ele>218.39999389648</ele>
        <time>2021-03-12T12:40:27.000Z</time>
      </trkpt>
      <trkpt lat="46.47972" lon="5.24472">
        <ele>218.39999389648</ele>
        <time>2021-03-12T12:40:29.000Z</time>
      </trkpt>
      <trkpt lat="46.47987" lon="5.24462">
        <ele>218.39999389648</ele>
        <time>2021-03-12T12:40:31.000Z</time>
      </trkpt>
      <trkpt lat="46.48001" lon="5.24452">
        <ele>218.19999694824</ele>
        <time>2021-03-12T12:40:33.000Z</time>
      </trkpt>
      <trkpt lat="46.48016" lon="5.24443">
        <ele>217.80000305176</ele>
        <time>2021-03-12T12:40:35.000Z</time>
      </trkpt>
      <trkpt lat="46.4803" lon="5.24433">
        <ele>217.19999694824</ele>
        <time>2021-03-12T12:40:37.000Z</time>
      </trkpt>
      <trkpt lat="46.48045" lon="5.24423">
        <ele>216.60000610352</ele>
        <time>2021-03-12T12:40:39.000Z</time>
      </trkpt>
      <trkpt lat="46.48058" lon="5.24413">
        <ele>216.19999694824</ele>
        <time>2021-03-12T12:40:41.000Z</time>
      </trkpt>
      <trkpt lat="46.48072" lon="5.24403">
        <ele>216</ele>
        <time>2021-03-12T12:40:43.000Z</time>
      </trkpt>
      <trkpt lat="46.48085" lon="5.24392">
        <ele>216</ele>
        <time>2021-03-12T12:40:45.000Z</time>
      </trkpt>
      <trkpt lat="46.48092" lon="5.24386">
        <ele>215.80000305176</ele>
        <time>2021-03-12T12:40:46.000Z</time>
      </trkpt>
      <trkpt lat="46.48098" lon="5.2438">
        <ele>215.80000305176</ele>
        <time>2021-03-12T12:40:47.000Z</time>
      </trkpt>
      <trkpt lat="46.48109" lon="5.24367">
        <ele>215.80000305176</ele>
        <time>2021-03-12T12:40:49.000Z</time>
      </trkpt>
      <trkpt lat="46.4812" lon="5.24354">
        <ele>215.80000305176</ele>
        <time>2021-03-12T12:40:51.000Z</time>
      </trkpt>
      <trkpt lat="46.48126" lon="5.24348">
        <ele>215.80000305176</ele>
        <time>2021-03-12T12:40:52.000Z</time>
      </trkpt>
      <trkpt lat="46.48131" lon="5.24342">
        <ele>216</ele>
        <time>2021-03-12T12:40:53.000Z</time>
      </trkpt>
      <trkpt lat="46.48142" lon="5.2433">
        <ele>216</ele>
        <time>2021-03-12T12:40:55.000Z</time>
      </trkpt>
      <trkpt lat="46.48152" lon="5.24318">
        <ele>216</ele>
        <time>2021-03-12T12:40:57.000Z</time>
      </trkpt>
      <trkpt lat="46.48161" lon="5.24306">
        <ele>216.19999694824</ele>
        <time>2021-03-12T12:40:59.000Z</time>
      </trkpt>
      <trkpt lat="46.4817" lon="5.24294">
        <ele>216.19999694824</ele>
        <time>2021-03-12T12:41:01.000Z</time>
      </trkpt>
      <trkpt lat="46.48179" lon="5.24282">
        <ele>216.39999389648</ele>
        <time>2021-03-12T12:41:03.000Z</time>
      </trkpt>
      <trkpt lat="46.48188" lon="5.24271">
        <ele>216.39999389648</ele>
        <time>2021-03-12T12:41:05.000Z</time>
      </trkpt>
      <trkpt lat="46.48193" lon="5.24266">
        <ele>216.39999389648</ele>
        <time>2021-03-12T12:41:06.000Z</time>
      </trkpt>
      <trkpt lat="46.48197" lon="5.24262">
        <ele>216.80000305176</ele>
        <time>2021-03-12T12:41:07.000Z</time>
      </trkpt>
      <trkpt lat="46.48208" lon="5.24259">
        <ele>217.60000610352</ele>
        <time>2021-03-12T12:41:09.000Z</time>
      </trkpt>
      <trkpt lat="46.48214" lon="5.24258">
        <ele>218</ele>
        <time>2021-03-12T12:41:10.000Z</time>
      </trkpt>
      <trkpt lat="46.48221" lon="5.24259">
        <ele>218.19999694824</ele>
        <time>2021-03-12T12:41:11.000Z</time>
      </trkpt>
      <trkpt lat="46.48233" lon="5.24261">
        <ele>218.60000610352</ele>
        <time>2021-03-12T12:41:13.000Z</time>
      </trkpt>
      <trkpt lat="46.48245" lon="5.24265">
        <ele>218.60000610352</ele>
        <time>2021-03-12T12:41:15.000Z</time>
      </trkpt>
      <trkpt lat="46.48258" lon="5.24268">
        <ele>218.80000305176</ele>
        <time>2021-03-12T12:41:17.000Z</time>
      </trkpt>
      <trkpt lat="46.48271" lon="5.24271">
        <ele>219</ele>
        <time>2021-03-12T12:41:19.000Z</time>
      </trkpt>
      <trkpt lat="46.48284" lon="5.24275">
        <ele>219</ele>
        <time>2021-03-12T12:41:21.000Z</time>
      </trkpt>
      <trkpt lat="46.48297" lon="5.2428">
        <ele>218.60000610352</ele>
        <time>2021-03-12T12:41:23.000Z</time>
      </trkpt>
      <trkpt lat="46.48303" lon="5.24283">
        <ele>218.60000610352</ele>
        <time>2021-03-12T12:41:24.000Z</time>
      </trkpt>
      <trkpt lat="46.48309" lon="5.24288">
        <ele>218.80000305176</ele>
        <time>2021-03-12T12:41:25.000Z</time>
      </trkpt>
      <trkpt lat="46.4832" lon="5.24302">
        <ele>218.60000610352</ele>
        <time>2021-03-12T12:41:27.000Z</time>
      </trkpt>
      <trkpt lat="46.4833" lon="5.24316">
        <ele>218.80000305176</ele>
        <time>2021-03-12T12:41:29.000Z</time>
      </trkpt>
      <trkpt lat="46.48341" lon="5.2433">
        <ele>218.39999389648</ele>
        <time>2021-03-12T12:41:31.000Z</time>
      </trkpt>
      <trkpt lat="46.48348" lon="5.24336">
        <ele>218.39999389648</ele>
        <time>2021-03-12T12:41:32.000Z</time>
      </trkpt>
      <trkpt lat="46.48355" lon="5.24342">
        <ele>218.19999694824</ele>
        <time>2021-03-12T12:41:33.000Z</time>
      </trkpt>
      <trkpt lat="46.48372" lon="5.24349">
        <ele>217.80000305176</ele>
        <time>2021-03-12T12:41:35.000Z</time>
      </trkpt>
      <trkpt lat="46.48389" lon="5.24356">
        <ele>217.60000610352</ele>
        <time>2021-03-12T12:41:37.000Z</time>
      </trkpt>
      <trkpt lat="46.48406" lon="5.24365">
        <ele>217.39999389648</ele>
        <time>2021-03-12T12:41:39.000Z</time>
      </trkpt>
      <trkpt lat="46.48414" lon="5.24371">
        <ele>217</ele>
        <time>2021-03-12T12:41:40.000Z</time>
      </trkpt>
      <trkpt lat="46.48422" lon="5.24379">
        <ele>216.60000610352</ele>
        <time>2021-03-12T12:41:41.000Z</time>
      </trkpt>
      <trkpt lat="46.48437" lon="5.24394">
        <ele>215.39999389648</ele>
        <time>2021-03-12T12:41:43.000Z</time>
      </trkpt>
      <trkpt lat="46.48452" lon="5.2441">
        <ele>213.80000305176</ele>
        <time>2021-03-12T12:41:45.000Z</time>
      </trkpt>
      <trkpt lat="46.48466" lon="5.24426">
        <ele>212.39999389648</ele>
        <time>2021-03-12T12:41:47.000Z</time>
      </trkpt>
      <trkpt lat="46.48472" lon="5.24434">
        <ele>212.19999694824</ele>
        <time>2021-03-12T12:41:48.000Z</time>
      </trkpt>
      <trkpt lat="46.48479" lon="5.24442">
        <ele>212.19999694824</ele>
        <time>2021-03-12T12:41:49.000Z</time>
      </trkpt>
      <trkpt lat="46.48491" lon="5.24457">
        <ele>212</ele>
        <time>2021-03-12T12:41:51.000Z</time>
      </trkpt>
      <trkpt lat="46.48503" lon="5.24472">
        <ele>212</ele>
        <time>2021-03-12T12:41:53.000Z</time>
      </trkpt>
      <trkpt lat="46.48514" lon="5.24485">
        <ele>212</ele>
        <time>2021-03-12T12:41:55.000Z</time>
      </trkpt>
      <trkpt lat="46.48525" lon="5.24499">
        <ele>212</ele>
        <time>2021-03-12T12:41:57.000Z</time>
      </trkpt>
      <trkpt lat="46.48536" lon="5.24512">
        <ele>212.39999389648</ele>
        <time>2021-03-12T12:41:59.000Z</time>
      </trkpt>
      <trkpt lat="46.48547" lon="5.24524">
        <ele>212.80000305176</ele>
        <time>2021-03-12T12:42:01.000Z</time>
      </trkpt>
      <trkpt lat="46.48557" lon="5.24537">
        <ele>213.19999694824</ele>
        <time>2021-03-12T12:42:03.000Z</time>
      </trkpt>
      <trkpt lat="46.48563" lon="5.24542">
        <ele>213.60000610352</ele>
        <time>2021-03-12T12:42:04.000Z</time>
      </trkpt>
      <trkpt lat="46.48568" lon="5.24548">
        <ele>213.80000305176</ele>
        <time>2021-03-12T12:42:05.000Z</time>
      </trkpt>
      <trkpt lat="46.4858" lon="5.2456">
        <ele>214.39999389648</ele>
        <time>2021-03-12T12:42:07.000Z</time>
      </trkpt>
      <trkpt lat="46.48587" lon="5.24564">
        <ele>214.60000610352</ele>
        <time>2021-03-12T12:42:08.000Z</time>
      </trkpt>
      <trkpt lat="46.48593" lon="5.24569">
        <ele>215</ele>
        <time>2021-03-12T12:42:09.000Z</time>
      </trkpt>
      <trkpt lat="46.48606" lon="5.24577">
        <ele>215.39999389648</ele>
        <time>2021-03-12T12:42:11.000Z</time>
      </trkpt>
      <trkpt lat="46.48613" lon="5.24581">
        <ele>215.80000305176</ele>
        <time>2021-03-12T12:42:12.000Z</time>
      </trkpt>
      <trkpt lat="46.48619" lon="5.24585">
        <ele>215.80000305176</ele>
        <time>2021-03-12T12:42:13.000Z</time>
      </trkpt>
      <trkpt lat="46.48634" lon="5.24592">
        <ele>215.80000305176</ele>
        <time>2021-03-12T12:42:15.000Z</time>
      </trkpt>
      <trkpt lat="46.48641" lon="5.24596">
        <ele>215.80000305176</ele>
        <time>2021-03-12T12:42:16.000Z</time>
      </trkpt>
      <trkpt lat="46.48649" lon="5.246">
        <ele>216.19999694824</ele>
        <time>2021-03-12T12:42:17.000Z</time>
      </trkpt>
      <trkpt lat="46.48664" lon="5.24607">
        <ele>216.19999694824</ele>
        <time>2021-03-12T12:42:19.000Z</time>
      </trkpt>
      <trkpt lat="46.48679" lon="5.24615">
        <ele>215.80000305176</ele>
        <time>2021-03-12T12:42:21.000Z</time>
      </trkpt>
      <trkpt lat="46.48692" lon="5.24623">
        <ele>215.80000305176</ele>
        <time>2021-03-12T12:42:23.000Z</time>
      </trkpt>
      <trkpt lat="46.48707" lon="5.2463">
        <ele>215.60000610352</ele>
        <time>2021-03-12T12:42:25.000Z</time>
      </trkpt>
      <trkpt lat="46.48721" lon="5.24636">
        <ele>215.19999694824</ele>
        <time>2021-03-12T12:42:27.000Z</time>
      </trkpt>
      <trkpt lat="46.48736" lon="5.24639">
        <ele>214.80000305176</ele>
        <time>2021-03-12T12:42:29.000Z</time>
      </trkpt>
      <trkpt lat="46.48743" lon="5.2464">
        <ele>214.80000305176</ele>
        <time>2021-03-12T12:42:30.000Z</time>
      </trkpt>
      <trkpt lat="46.4875" lon="5.2464">
        <ele>214.80000305176</ele>
        <time>2021-03-12T12:42:31.000Z</time>
      </trkpt>
      <trkpt lat="46.48763" lon="5.24637">
        <ele>214.80000305176</ele>
        <time>2021-03-12T12:42:33.000Z</time>
      </trkpt>
      <trkpt lat="46.48769" lon="5.24634">
        <ele>214.80000305176</ele>
        <time>2021-03-12T12:42:34.000Z</time>
      </trkpt>
      <trkpt lat="46.48775" lon="5.24631">
        <ele>214.80000305176</ele>
        <time>2021-03-12T12:42:35.000Z</time>
      </trkpt>
      <trkpt lat="46.48782" lon="5.24627">
        <ele>214.80000305176</ele>
        <time>2021-03-12T12:42:36.000Z</time>
      </trkpt>
      <trkpt lat="46.48788" lon="5.24623">
        <ele>214.80000305176</ele>
        <time>2021-03-12T12:42:37.000Z</time>
      </trkpt>
      <trkpt lat="46.48801" lon="5.24615">
        <ele>215.39999389648</ele>
        <time>2021-03-12T12:42:39.000Z</time>
      </trkpt>
      <trkpt lat="46.48808" lon="5.2461">
        <ele>215.80000305176</ele>
        <time>2021-03-12T12:42:40.000Z</time>
      </trkpt>
      <trkpt lat="46.48815" lon="5.24605">
        <ele>215.80000305176</ele>
        <time>2021-03-12T12:42:41.000Z</time>
      </trkpt>
      <trkpt lat="46.48829" lon="5.24596">
        <ele>216.39999389648</ele>
        <time>2021-03-12T12:42:43.000Z</time>
      </trkpt>
      <trkpt lat="46.48843" lon="5.24586">
        <ele>216.39999389648</ele>
        <time>2021-03-12T12:42:45.000Z</time>
      </trkpt>
      <trkpt lat="46.48858" lon="5.24577">
        <ele>216.60000610352</ele>
        <time>2021-03-12T12:42:47.000Z</time>
      </trkpt>
      <trkpt lat="46.48865" lon="5.24572">
        <ele>216.60000610352</ele>
        <time>2021-03-12T12:42:48.000Z</time>
      </trkpt>
      <trkpt lat="46.48873" lon="5.24567">
        <ele>216.60000610352</ele>
        <time>2021-03-12T12:42:49.000Z</time>
      </trkpt>
      <trkpt lat="46.4888" lon="5.24561">
        <ele>216.60000610352</ele>
        <time>2021-03-12T12:42:50.000Z</time>
      </trkpt>
      <trkpt lat="46.48888" lon="5.24556">
        <ele>216.60000610352</ele>
        <time>2021-03-12T12:42:51.000Z</time>
      </trkpt>
      <trkpt lat="46.48903" lon="5.24546">
        <ele>216.39999389648</ele>
        <time>2021-03-12T12:42:53.000Z</time>
      </trkpt>
      <trkpt lat="46.48918" lon="5.24536">
        <ele>216</ele>
        <time>2021-03-12T12:42:55.000Z</time>
      </trkpt>
      <trkpt lat="46.48933" lon="5.24526">
        <ele>215.80000305176</ele>
        <time>2021-03-12T12:42:57.000Z</time>
      </trkpt>
      <trkpt lat="46.48949" lon="5.24515">
        <ele>215.60000610352</ele>
        <time>2021-03-12T12:42:59.000Z</time>
      </trkpt>
      <trkpt lat="46.48964" lon="5.24505">
        <ele>215</ele>
        <time>2021-03-12T12:43:01.000Z</time>
      </trkpt>
      <trkpt lat="46.4898" lon="5.24494">
        <ele>214.39999389648</ele>
        <time>2021-03-12T12:43:03.000Z</time>
      </trkpt>
      <trkpt lat="46.48995" lon="5.24484">
        <ele>214.19999694824</ele>
        <time>2021-03-12T12:43:05.000Z</time>
      </trkpt>
      <trkpt lat="46.49011" lon="5.24473">
        <ele>214</ele>
        <time>2021-03-12T12:43:07.000Z</time>
      </trkpt>
      <trkpt lat="46.49019" lon="5.24468">
        <ele>213.80000305176</ele>
        <time>2021-03-12T12:43:08.000Z</time>
      </trkpt>
      <trkpt lat="46.49026" lon="5.24463">
        <ele>213.60000610352</ele>
        <time>2021-03-12T12:43:09.000Z</time>
      </trkpt>
      <trkpt lat="46.49042" lon="5.24453">
        <ele>213.60000610352</ele>
        <time>2021-03-12T12:43:11.000Z</time>
      </trkpt>
      <trkpt lat="46.49057" lon="5.24442">
        <ele>213.39999389648</ele>
        <time>2021-03-12T12:43:13.000Z</time>
      </trkpt>
      <trkpt lat="46.49072" lon="5.24432">
        <ele>212.39999389648</ele>
        <time>2021-03-12T12:43:15.000Z</time>
      </trkpt>
      <trkpt lat="46.4908" lon="5.24427">
        <ele>212.19999694824</ele>
        <time>2021-03-12T12:43:16.000Z</time>
      </trkpt>
      <trkpt lat="46.49087" lon="5.24422">
        <ele>212.19999694824</ele>
        <time>2021-03-12T12:43:17.000Z</time>
      </trkpt>
      <trkpt lat="46.49095" lon="5.24417">
        <ele>212</ele>
        <time>2021-03-12T12:43:18.000Z</time>
      </trkpt>
      <trkpt lat="46.49102" lon="5.24412">
        <ele>212</ele>
        <time>2021-03-12T12:43:19.000Z</time>
      </trkpt>
      <trkpt lat="46.49116" lon="5.24402">
        <ele>211.80000305176</ele>
        <time>2021-03-12T12:43:21.000Z</time>
      </trkpt>
      <trkpt lat="46.4913" lon="5.24393">
        <ele>211.60000610352</ele>
        <time>2021-03-12T12:43:23.000Z</time>
      </trkpt>
      <trkpt lat="46.49137" lon="5.24388">
        <ele>211.60000610352</ele>
        <time>2021-03-12T12:43:24.000Z</time>
      </trkpt>
      <trkpt lat="46.49144" lon="5.24383">
        <ele>211.60000610352</ele>
        <time>2021-03-12T12:43:25.000Z</time>
      </trkpt>
      <trkpt lat="46.49158" lon="5.24374">
        <ele>211.60000610352</ele>
        <time>2021-03-12T12:43:27.000Z</time>
      </trkpt>
      <trkpt lat="46.49173" lon="5.24364">
        <ele>211.39999389648</ele>
        <time>2021-03-12T12:43:29.000Z</time>
      </trkpt>
      <trkpt lat="46.49187" lon="5.24354">
        <ele>211.39999389648</ele>
        <time>2021-03-12T12:43:31.000Z</time>
      </trkpt>
      <trkpt lat="46.49193" lon="5.24349">
        <ele>211.39999389648</ele>
        <time>2021-03-12T12:43:32.000Z</time>
      </trkpt>
      <trkpt lat="46.492" lon="5.24344">
        <ele>211.39999389648</ele>
        <time>2021-03-12T12:43:33.000Z</time>
      </trkpt>
      <trkpt lat="46.49207" lon="5.2434">
        <ele>211.19999694824</ele>
        <time>2021-03-12T12:43:34.000Z</time>
      </trkpt>
      <trkpt lat="46.49214" lon="5.24335">
        <ele>211.19999694824</ele>
        <time>2021-03-12T12:43:35.000Z</time>
      </trkpt>
      <trkpt lat="46.49228" lon="5.24326">
        <ele>211.19999694824</ele>
        <time>2021-03-12T12:43:37.000Z</time>
      </trkpt>
      <trkpt lat="46.49241" lon="5.24316">
        <ele>211.19999694824</ele>
        <time>2021-03-12T12:43:39.000Z</time>
      </trkpt>
      <trkpt lat="46.49248" lon="5.24312">
        <ele>211.19999694824</ele>
        <time>2021-03-12T12:43:40.000Z</time>
      </trkpt>
      <trkpt lat="46.49255" lon="5.24307">
        <ele>211.19999694824</ele>
        <time>2021-03-12T12:43:41.000Z</time>
      </trkpt>
      <trkpt lat="46.49268" lon="5.24298">
        <ele>211.19999694824</ele>
        <time>2021-03-12T12:43:43.000Z</time>
      </trkpt>
      <trkpt lat="46.49281" lon="5.24289">
        <ele>211</ele>
        <time>2021-03-12T12:43:45.000Z</time>
      </trkpt>
      <trkpt lat="46.49295" lon="5.2428">
        <ele>211</ele>
        <time>2021-03-12T12:43:47.000Z</time>
      </trkpt>
      <trkpt lat="46.49309" lon="5.24271">
        <ele>211</ele>
        <time>2021-03-12T12:43:49.000Z</time>
      </trkpt>
      <trkpt lat="46.49322" lon="5.24262">
        <ele>211</ele>
        <time>2021-03-12T12:43:51.000Z</time>
      </trkpt>
      <trkpt lat="46.49336" lon="5.24253">
        <ele>211</ele>
        <time>2021-03-12T12:43:53.000Z</time>
      </trkpt>
      <trkpt lat="46.4935" lon="5.24244">
        <ele>211</ele>
        <time>2021-03-12T12:43:55.000Z</time>
      </trkpt>
      <trkpt lat="46.49363" lon="5.24235">
        <ele>211</ele>
        <time>2021-03-12T12:43:57.000Z</time>
      </trkpt>
      <trkpt lat="46.49377" lon="5.24226">
        <ele>211</ele>
        <time>2021-03-12T12:43:59.000Z</time>
      </trkpt>
      <trkpt lat="46.49391" lon="5.24217">
        <ele>210.80000305176</ele>
        <time>2021-03-12T12:44:01.000Z</time>
      </trkpt>
      <trkpt lat="46.49404" lon="5.24207">
        <ele>210.80000305176</ele>
        <time>2021-03-12T12:44:03.000Z</time>
      </trkpt>
      <trkpt lat="46.49418" lon="5.24198">
        <ele>210.80000305176</ele>
        <time>2021-03-12T12:44:05.000Z</time>
      </trkpt>
      <trkpt lat="46.49432" lon="5.24189">
        <ele>210.80000305176</ele>
        <time>2021-03-12T12:44:07.000Z</time>
      </trkpt>
      <trkpt lat="46.49439" lon="5.24184">
        <ele>210.80000305176</ele>
        <time>2021-03-12T12:44:08.000Z</time>
      </trkpt>
      <trkpt lat="46.49446" lon="5.24179">
        <ele>210.80000305176</ele>
        <time>2021-03-12T12:44:09.000Z</time>
      </trkpt>
      <trkpt lat="46.4946" lon="5.2417">
        <ele>210.60000610352</ele>
        <time>2021-03-12T12:44:11.000Z</time>
      </trkpt>
      <trkpt lat="46.49475" lon="5.2416">
        <ele>210.39999389648</ele>
        <time>2021-03-12T12:44:13.000Z</time>
      </trkpt>
      <trkpt lat="46.4949" lon="5.2415">
        <ele>210.19999694824</ele>
        <time>2021-03-12T12:44:15.000Z</time>
      </trkpt>
      <trkpt lat="46.49506" lon="5.2414">
        <ele>209.80000305176</ele>
        <time>2021-03-12T12:44:17.000Z</time>
      </trkpt>
      <trkpt lat="46.49522" lon="5.24131">
        <ele>209.60000610352</ele>
        <time>2021-03-12T12:44:19.000Z</time>
      </trkpt>
      <trkpt lat="46.49539" lon="5.24122">
        <ele>209</ele>
        <time>2021-03-12T12:44:21.000Z</time>
      </trkpt>
      <trkpt lat="46.49557" lon="5.24115">
        <ele>208.19999694824</ele>
        <time>2021-03-12T12:44:23.000Z</time>
      </trkpt>
      <trkpt lat="46.49565" lon="5.24112">
        <ele>207.80000305176</ele>
        <time>2021-03-12T12:44:24.000Z</time>
      </trkpt>
      <trkpt lat="46.49574" lon="5.24111">
        <ele>207.80000305176</ele>
        <time>2021-03-12T12:44:25.000Z</time>
      </trkpt>
      <trkpt lat="46.49593" lon="5.24108">
        <ele>207.19999694824</ele>
        <time>2021-03-12T12:44:27.000Z</time>
      </trkpt>
      <trkpt lat="46.49602" lon="5.24107">
        <ele>206.80000305176</ele>
        <time>2021-03-12T12:44:28.000Z</time>
      </trkpt>
      <trkpt lat="46.49611" lon="5.24107">
        <ele>206.19999694824</ele>
        <time>2021-03-12T12:44:29.000Z</time>
      </trkpt>
      <trkpt lat="46.49621" lon="5.24108">
        <ele>205.80000305176</ele>
        <time>2021-03-12T12:44:30.000Z</time>
      </trkpt>
      <trkpt lat="46.4963" lon="5.24109">
        <ele>205.39999389648</ele>
        <time>2021-03-12T12:44:31.000Z</time>
      </trkpt>
      <trkpt lat="46.49649" lon="5.24113">
        <ele>204.80000305176</ele>
        <time>2021-03-12T12:44:33.000Z</time>
      </trkpt>
      <trkpt lat="46.49668" lon="5.24119">
        <ele>204.19999694824</ele>
        <time>2021-03-12T12:44:35.000Z</time>
      </trkpt>
      <trkpt lat="46.49686" lon="5.24128">
        <ele>203.60000610352</ele>
        <time>2021-03-12T12:44:37.000Z</time>
      </trkpt>
      <trkpt lat="46.49705" lon="5.24138">
        <ele>202.80000305176</ele>
        <time>2021-03-12T12:44:39.000Z</time>
      </trkpt>
      <trkpt lat="46.49715" lon="5.24143">
        <ele>202.39999389648</ele>
        <time>2021-03-12T12:44:40.000Z</time>
      </trkpt>
      <trkpt lat="46.49724" lon="5.24148">
        <ele>202.19999694824</ele>
        <time>2021-03-12T12:44:41.000Z</time>
      </trkpt>
      <trkpt lat="46.49743" lon="5.2416">
        <ele>201.39999389648</ele>
        <time>2021-03-12T12:44:43.000Z</time>
      </trkpt>
      <trkpt lat="46.49762" lon="5.24172">
        <ele>200.80000305176</ele>
        <time>2021-03-12T12:44:45.000Z</time>
      </trkpt>
      <trkpt lat="46.49782" lon="5.24183">
        <ele>200.60000610352</ele>
        <time>2021-03-12T12:44:47.000Z</time>
      </trkpt>
      <trkpt lat="46.49791" lon="5.24189">
        <ele>200.39999389648</ele>
        <time>2021-03-12T12:44:48.000Z</time>
      </trkpt>
      <trkpt lat="46.49801" lon="5.24195">
        <ele>199.80000305176</ele>
        <time>2021-03-12T12:44:49.000Z</time>
      </trkpt>
      <trkpt lat="46.4982" lon="5.24206">
        <ele>199.19999694824</ele>
        <time>2021-03-12T12:44:51.000Z</time>
      </trkpt>
      <trkpt lat="46.4984" lon="5.24217">
        <ele>198.19999694824</ele>
        <time>2021-03-12T12:44:53.000Z</time>
      </trkpt>
      <trkpt lat="46.49859" lon="5.24228">
        <ele>196.80000305176</ele>
        <time>2021-03-12T12:44:55.000Z</time>
      </trkpt>
      <trkpt lat="46.49879" lon="5.2424">
        <ele>196.19999694824</ele>
        <time>2021-03-12T12:44:57.000Z</time>
      </trkpt>
      <trkpt lat="46.49899" lon="5.24251">
        <ele>195.60000610352</ele>
        <time>2021-03-12T12:44:59.000Z</time>
      </trkpt>
      <trkpt lat="46.49909" lon="5.24256">
        <ele>195.39999389648</ele>
        <time>2021-03-12T12:45:00.000Z</time>
      </trkpt>
      <trkpt lat="46.49919" lon="5.24262">
        <ele>195.19999694824</ele>
        <time>2021-03-12T12:45:01.000Z</time>
      </trkpt>
      <trkpt lat="46.49938" lon="5.24273">
        <ele>194.60000610352</ele>
        <time>2021-03-12T12:45:03.000Z</time>
      </trkpt>
      <trkpt lat="46.49957" lon="5.24284">
        <ele>194</ele>
        <time>2021-03-12T12:45:05.000Z</time>
      </trkpt>
      <trkpt lat="46.49966" lon="5.24289">
        <ele>193.39999389648</ele>
        <time>2021-03-12T12:45:06.000Z</time>
      </trkpt>
      <trkpt lat="46.49975" lon="5.24294">
        <ele>193</ele>
        <time>2021-03-12T12:45:07.000Z</time>
      </trkpt>
      <trkpt lat="46.49984" lon="5.24299">
        <ele>192.60000610352</ele>
        <time>2021-03-12T12:45:08.000Z</time>
      </trkpt>
      <trkpt lat="46.49993" lon="5.24304">
        <ele>192.19999694824</ele>
        <time>2021-03-12T12:45:09.000Z</time>
      </trkpt>
      <trkpt lat="46.5001" lon="5.24313">
        <ele>191.80000305176</ele>
        <time>2021-03-12T12:45:11.000Z</time>
      </trkpt>
      <trkpt lat="46.50026" lon="5.24323">
        <ele>191.60000610352</ele>
        <time>2021-03-12T12:45:13.000Z</time>
      </trkpt>
      <trkpt lat="46.50042" lon="5.24332">
        <ele>191.60000610352</ele>
        <time>2021-03-12T12:45:15.000Z</time>
      </trkpt>
      <trkpt lat="46.50049" lon="5.24336">
        <ele>191.60000610352</ele>
        <time>2021-03-12T12:45:16.000Z</time>
      </trkpt>
      <trkpt lat="46.50057" lon="5.2434">
        <ele>191.60000610352</ele>
        <time>2021-03-12T12:45:17.000Z</time>
      </trkpt>
      <trkpt lat="46.50072" lon="5.24349">
        <ele>191.60000610352</ele>
        <time>2021-03-12T12:45:19.000Z</time>
      </trkpt>
      <trkpt lat="46.50086" lon="5.24357">
        <ele>191.80000305176</ele>
        <time>2021-03-12T12:45:21.000Z</time>
      </trkpt>
      <trkpt lat="46.501" lon="5.24365">
        <ele>192</ele>
        <time>2021-03-12T12:45:23.000Z</time>
      </trkpt>
      <trkpt lat="46.50115" lon="5.24374">
        <ele>192.19999694824</ele>
        <time>2021-03-12T12:45:25.000Z</time>
      </trkpt>
      <trkpt lat="46.5013" lon="5.24383">
        <ele>192.39999389648</ele>
        <time>2021-03-12T12:45:27.000Z</time>
      </trkpt>
      <trkpt lat="46.50145" lon="5.24391">
        <ele>192.39999389648</ele>
        <time>2021-03-12T12:45:29.000Z</time>
      </trkpt>
      <trkpt lat="46.5016" lon="5.24401">
        <ele>192.60000610352</ele>
        <time>2021-03-12T12:45:31.000Z</time>
      </trkpt>
      <trkpt lat="46.50174" lon="5.2441">
        <ele>192.60000610352</ele>
        <time>2021-03-12T12:45:33.000Z</time>
      </trkpt>
      <trkpt lat="46.50188" lon="5.2442">
        <ele>192.80000305176</ele>
        <time>2021-03-12T12:45:35.000Z</time>
      </trkpt>
      <trkpt lat="46.50201" lon="5.2443">
        <ele>192.80000305176</ele>
        <time>2021-03-12T12:45:37.000Z</time>
      </trkpt>
      <trkpt lat="46.50214" lon="5.24439">
        <ele>193</ele>
        <time>2021-03-12T12:45:39.000Z</time>
      </trkpt>
      <trkpt lat="46.50227" lon="5.24449">
        <ele>193</ele>
        <time>2021-03-12T12:45:41.000Z</time>
      </trkpt>
      <trkpt lat="46.50239" lon="5.24457">
        <ele>193</ele>
        <time>2021-03-12T12:45:43.000Z</time>
      </trkpt>
      <trkpt lat="46.5025" lon="5.24466">
        <ele>193.19999694824</ele>
        <time>2021-03-12T12:45:45.000Z</time>
      </trkpt>
      <trkpt lat="46.50262" lon="5.24474">
        <ele>193.39999389648</ele>
        <time>2021-03-12T12:45:47.000Z</time>
      </trkpt>
      <trkpt lat="46.50273" lon="5.24483">
        <ele>194</ele>
        <time>2021-03-12T12:45:49.000Z</time>
      </trkpt>
      <trkpt lat="46.50284" lon="5.24491">
        <ele>194.19999694824</ele>
        <time>2021-03-12T12:45:51.000Z</time>
      </trkpt>
      <trkpt lat="46.50296" lon="5.24499">
        <ele>194.39999389648</ele>
        <time>2021-03-12T12:45:53.000Z</time>
      </trkpt>
      <trkpt lat="46.50301" lon="5.24503">
        <ele>194.80000305176</ele>
        <time>2021-03-12T12:45:54.000Z</time>
      </trkpt>
      <trkpt lat="46.50307" lon="5.24508">
        <ele>195</ele>
        <time>2021-03-12T12:45:55.000Z</time>
      </trkpt>
      <trkpt lat="46.50318" lon="5.24516">
        <ele>195.39999389648</ele>
        <time>2021-03-12T12:45:57.000Z</time>
      </trkpt>
      <trkpt lat="46.50324" lon="5.24521">
        <ele>195.60000610352</ele>
        <time>2021-03-12T12:45:58.000Z</time>
      </trkpt>
      <trkpt lat="46.5033" lon="5.24525">
        <ele>195.80000305176</ele>
        <time>2021-03-12T12:45:59.000Z</time>
      </trkpt>
      <trkpt lat="46.50342" lon="5.24534">
        <ele>196</ele>
        <time>2021-03-12T12:46:01.000Z</time>
      </trkpt>
      <trkpt lat="46.50354" lon="5.24542">
        <ele>196.39999389648</ele>
        <time>2021-03-12T12:46:03.000Z</time>
      </trkpt>
      <trkpt lat="46.50366" lon="5.24551">
        <ele>196.60000610352</ele>
        <time>2021-03-12T12:46:05.000Z</time>
      </trkpt>
      <trkpt lat="46.50372" lon="5.24556">
        <ele>196.80000305176</ele>
        <time>2021-03-12T12:46:06.000Z</time>
      </trkpt>
      <trkpt lat="46.50378" lon="5.2456">
        <ele>196.80000305176</ele>
        <time>2021-03-12T12:46:07.000Z</time>
      </trkpt>
      <trkpt lat="46.5039" lon="5.24569">
        <ele>197</ele>
        <time>2021-03-12T12:46:09.000Z</time>
      </trkpt>
      <trkpt lat="46.50402" lon="5.24578">
        <ele>197.39999389648</ele>
        <time>2021-03-12T12:46:11.000Z</time>
      </trkpt>
      <trkpt lat="46.50414" lon="5.24586">
        <ele>197.39999389648</ele>
        <time>2021-03-12T12:46:13.000Z</time>
      </trkpt>
      <trkpt lat="46.50427" lon="5.24594">
        <ele>197.39999389648</ele>
        <time>2021-03-12T12:46:15.000Z</time>
      </trkpt>
      <trkpt lat="46.50439" lon="5.246">
        <ele>197.39999389648</ele>
        <time>2021-03-12T12:46:17.000Z</time>
      </trkpt>
      <trkpt lat="46.50452" lon="5.24606">
        <ele>197.60000610352</ele>
        <time>2021-03-12T12:46:19.000Z</time>
      </trkpt>
      <trkpt lat="46.50458" lon="5.24608">
        <ele>197.60000610352</ele>
        <time>2021-03-12T12:46:20.000Z</time>
      </trkpt>
      <trkpt lat="46.50465" lon="5.2461">
        <ele>197.60000610352</ele>
        <time>2021-03-12T12:46:21.000Z</time>
      </trkpt>
      <trkpt lat="46.50477" lon="5.24613">
        <ele>197.80000305176</ele>
        <time>2021-03-12T12:46:23.000Z</time>
      </trkpt>
      <trkpt lat="46.50483" lon="5.24614">
        <ele>198</ele>
        <time>2021-03-12T12:46:24.000Z</time>
      </trkpt>
      <trkpt lat="46.5049" lon="5.24615">
        <ele>198.19999694824</ele>
        <time>2021-03-12T12:46:25.000Z</time>
      </trkpt>
      <trkpt lat="46.50502" lon="5.24616">
        <ele>198.60000610352</ele>
        <time>2021-03-12T12:46:27.000Z</time>
      </trkpt>
      <trkpt lat="46.50515" lon="5.24616">
        <ele>198.80000305176</ele>
        <time>2021-03-12T12:46:29.000Z</time>
      </trkpt>
      <trkpt lat="46.50528" lon="5.24615">
        <ele>198.80000305176</ele>
        <time>2021-03-12T12:46:31.000Z</time>
      </trkpt>
      <trkpt lat="46.5054" lon="5.24614">
        <ele>199</ele>
        <time>2021-03-12T12:46:33.000Z</time>
      </trkpt>
      <trkpt lat="46.50547" lon="5.24613">
        <ele>199.19999694824</ele>
        <time>2021-03-12T12:46:34.000Z</time>
      </trkpt>
      <trkpt lat="46.50553" lon="5.24612">
        <ele>199.39999389648</ele>
        <time>2021-03-12T12:46:35.000Z</time>
      </trkpt>
      <trkpt lat="46.50567" lon="5.2461">
        <ele>199.80000305176</ele>
        <time>2021-03-12T12:46:37.000Z</time>
      </trkpt>
      <trkpt lat="46.5058" lon="5.24608">
        <ele>199.80000305176</ele>
        <time>2021-03-12T12:46:39.000Z</time>
      </trkpt>
      <trkpt lat="46.50595" lon="5.24606">
        <ele>199.80000305176</ele>
        <time>2021-03-12T12:46:41.000Z</time>
      </trkpt>
      <trkpt lat="46.50609" lon="5.24604">
        <ele>199.80000305176</ele>
        <time>2021-03-12T12:46:43.000Z</time>
      </trkpt>
      <trkpt lat="46.50624" lon="5.24602">
        <ele>199.80000305176</ele>
        <time>2021-03-12T12:46:45.000Z</time>
      </trkpt>
      <trkpt lat="46.50639" lon="5.24601">
        <ele>199.80000305176</ele>
        <time>2021-03-12T12:46:47.000Z</time>
      </trkpt>
      <trkpt lat="46.50654" lon="5.24599">
        <ele>199.80000305176</ele>
        <time>2021-03-12T12:46:49.000Z</time>
      </trkpt>
      <trkpt lat="46.50669" lon="5.24596">
        <ele>199.19999694824</ele>
        <time>2021-03-12T12:46:51.000Z</time>
      </trkpt>
      <trkpt lat="46.50685" lon="5.24594">
        <ele>198.80000305176</ele>
        <time>2021-03-12T12:46:53.000Z</time>
      </trkpt>
      <trkpt lat="46.50693" lon="5.24593">
        <ele>198.60000610352</ele>
        <time>2021-03-12T12:46:54.000Z</time>
      </trkpt>
      <trkpt lat="46.50701" lon="5.24592">
        <ele>198.39999389648</ele>
        <time>2021-03-12T12:46:55.000Z</time>
      </trkpt>
      <trkpt lat="46.50717" lon="5.24588">
        <ele>198.19999694824</ele>
        <time>2021-03-12T12:46:57.000Z</time>
      </trkpt>
      <trkpt lat="46.50734" lon="5.24583">
        <ele>198</ele>
        <time>2021-03-12T12:46:59.000Z</time>
      </trkpt>
      <trkpt lat="46.50742" lon="5.2458">
        <ele>197.80000305176</ele>
        <time>2021-03-12T12:47:00.000Z</time>
      </trkpt>
      <trkpt lat="46.50751" lon="5.24577">
        <ele>197.80000305176</ele>
        <time>2021-03-12T12:47:01.000Z</time>
      </trkpt>
      <trkpt lat="46.50768" lon="5.24571">
        <ele>197.60000610352</ele>
        <time>2021-03-12T12:47:03.000Z</time>
      </trkpt>
      <trkpt lat="46.50785" lon="5.24564">
        <ele>197.39999389648</ele>
        <time>2021-03-12T12:47:05.000Z</time>
      </trkpt>
      <trkpt lat="46.50793" lon="5.24561">
        <ele>196.80000305176</ele>
        <time>2021-03-12T12:47:06.000Z</time>
      </trkpt>
      <trkpt lat="46.50801" lon="5.24558">
        <ele>196.39999389648</ele>
        <time>2021-03-12T12:47:07.000Z</time>
      </trkpt>
      <trkpt lat="46.50818" lon="5.24551">
        <ele>195.60000610352</ele>
        <time>2021-03-12T12:47:09.000Z</time>
      </trkpt>
      <trkpt lat="46.50835" lon="5.24544">
        <ele>195</ele>
        <time>2021-03-12T12:47:11.000Z</time>
      </trkpt>
      <trkpt lat="46.50852" lon="5.24538">
        <ele>194.60000610352</ele>
        <time>2021-03-12T12:47:13.000Z</time>
      </trkpt>
      <trkpt lat="46.50868" lon="5.24532">
        <ele>194.19999694824</ele>
        <time>2021-03-12T12:47:15.000Z</time>
      </trkpt>
      <trkpt lat="46.50885" lon="5.24525">
        <ele>193.80000305176</ele>
        <time>2021-03-12T12:47:17.000Z</time>
      </trkpt>
      <trkpt lat="46.50893" lon="5.24522">
        <ele>193.60000610352</ele>
        <time>2021-03-12T12:47:18.000Z</time>
      </trkpt>
      <trkpt lat="46.50901" lon="5.24518">
        <ele>193.39999389648</ele>
        <time>2021-03-12T12:47:19.000Z</time>
      </trkpt>
      <trkpt lat="46.50918" lon="5.24512">
        <ele>193.19999694824</ele>
        <time>2021-03-12T12:47:21.000Z</time>
      </trkpt>
      <trkpt lat="46.50935" lon="5.24505">
        <ele>193</ele>
        <time>2021-03-12T12:47:23.000Z</time>
      </trkpt>
      <trkpt lat="46.50951" lon="5.24498">
        <ele>192.80000305176</ele>
        <time>2021-03-12T12:47:25.000Z</time>
      </trkpt>
      <trkpt lat="46.50968" lon="5.24492">
        <ele>192.60000610352</ele>
        <time>2021-03-12T12:47:27.000Z</time>
      </trkpt>
      <trkpt lat="46.50984" lon="5.24485">
        <ele>192.39999389648</ele>
        <time>2021-03-12T12:47:29.000Z</time>
      </trkpt>
      <trkpt lat="46.51" lon="5.24479">
        <ele>192.39999389648</ele>
        <time>2021-03-12T12:47:31.000Z</time>
      </trkpt>
      <trkpt lat="46.51016" lon="5.24473">
        <ele>192.39999389648</ele>
        <time>2021-03-12T12:47:33.000Z</time>
      </trkpt>
      <trkpt lat="46.51032" lon="5.24466">
        <ele>192</ele>
        <time>2021-03-12T12:47:35.000Z</time>
      </trkpt>
      <trkpt lat="46.51048" lon="5.2446">
        <ele>191.60000610352</ele>
        <time>2021-03-12T12:47:37.000Z</time>
      </trkpt>
      <trkpt lat="46.51063" lon="5.24454">
        <ele>191.39999389648</ele>
        <time>2021-03-12T12:47:39.000Z</time>
      </trkpt>
      <trkpt lat="46.51071" lon="5.24451">
        <ele>191.39999389648</ele>
        <time>2021-03-12T12:47:40.000Z</time>
      </trkpt>
      <trkpt lat="46.51079" lon="5.24448">
        <ele>191.39999389648</ele>
        <time>2021-03-12T12:47:41.000Z</time>
      </trkpt>
      <trkpt lat="46.51087" lon="5.24445">
        <ele>191.39999389648</ele>
        <time>2021-03-12T12:47:42.000Z</time>
      </trkpt>
      <trkpt lat="46.51095" lon="5.24442">
        <ele>191.39999389648</ele>
        <time>2021-03-12T12:47:43.000Z</time>
      </trkpt>
      <trkpt lat="46.5111" lon="5.24437">
        <ele>191.39999389648</ele>
        <time>2021-03-12T12:47:45.000Z</time>
      </trkpt>
      <trkpt lat="46.51126" lon="5.24431">
        <ele>191.39999389648</ele>
        <time>2021-03-12T12:47:47.000Z</time>
      </trkpt>
      <trkpt lat="46.51141" lon="5.24425">
        <ele>191.39999389648</ele>
        <time>2021-03-12T12:47:49.000Z</time>
      </trkpt>
      <trkpt lat="46.51157" lon="5.24418">
        <ele>191.39999389648</ele>
        <time>2021-03-12T12:47:51.000Z</time>
      </trkpt>
      <trkpt lat="46.51173" lon="5.24411">
        <ele>191.39999389648</ele>
        <time>2021-03-12T12:47:53.000Z</time>
      </trkpt>
      <trkpt lat="46.51189" lon="5.24405">
        <ele>191.60000610352</ele>
        <time>2021-03-12T12:47:55.000Z</time>
      </trkpt>
      <trkpt lat="46.51205" lon="5.24399">
        <ele>191.60000610352</ele>
        <time>2021-03-12T12:47:57.000Z</time>
      </trkpt>
      <trkpt lat="46.51221" lon="5.24393">
        <ele>191.60000610352</ele>
        <time>2021-03-12T12:47:59.000Z</time>
      </trkpt>
      <trkpt lat="46.51236" lon="5.24387">
        <ele>191.80000305176</ele>
        <time>2021-03-12T12:48:01.000Z</time>
      </trkpt>
      <trkpt lat="46.51251" lon="5.24381">
        <ele>191.80000305176</ele>
        <time>2021-03-12T12:48:03.000Z</time>
      </trkpt>
      <trkpt lat="46.51266" lon="5.24375">
        <ele>192</ele>
        <time>2021-03-12T12:48:05.000Z</time>
      </trkpt>
      <trkpt lat="46.5128" lon="5.2437">
        <ele>192</ele>
        <time>2021-03-12T12:48:07.000Z</time>
      </trkpt>
      <trkpt lat="46.51294" lon="5.24364">
        <ele>192</ele>
        <time>2021-03-12T12:48:09.000Z</time>
      </trkpt>
      <trkpt lat="46.51301" lon="5.24361">
        <ele>192</ele>
        <time>2021-03-12T12:48:10.000Z</time>
      </trkpt>
      <trkpt lat="46.51307" lon="5.24359">
        <ele>192</ele>
        <time>2021-03-12T12:48:11.000Z</time>
      </trkpt>
      <trkpt lat="46.5132" lon="5.24354">
        <ele>192.19999694824</ele>
        <time>2021-03-12T12:48:13.000Z</time>
      </trkpt>
      <trkpt lat="46.51332" lon="5.24349">
        <ele>192.60000610352</ele>
        <time>2021-03-12T12:48:15.000Z</time>
      </trkpt>
      <trkpt lat="46.51338" lon="5.24347">
        <ele>192.80000305176</ele>
        <time>2021-03-12T12:48:16.000Z</time>
      </trkpt>
      <trkpt lat="46.51344" lon="5.24344">
        <ele>193</ele>
        <time>2021-03-12T12:48:17.000Z</time>
      </trkpt>
      <trkpt lat="46.5135" lon="5.24342">
        <ele>193.19999694824</ele>
        <time>2021-03-12T12:48:18.000Z</time>
      </trkpt>
      <trkpt lat="46.51356" lon="5.2434">
        <ele>193.39999389648</ele>
        <time>2021-03-12T12:48:19.000Z</time>
      </trkpt>
      <trkpt lat="46.51367" lon="5.24335">
        <ele>193.80000305176</ele>
        <time>2021-03-12T12:48:21.000Z</time>
      </trkpt>
      <trkpt lat="46.51379" lon="5.24331">
        <ele>194.39999389648</ele>
        <time>2021-03-12T12:48:23.000Z</time>
      </trkpt>
      <trkpt lat="46.5139" lon="5.24326">
        <ele>194.80000305176</ele>
        <time>2021-03-12T12:48:25.000Z</time>
      </trkpt>
      <trkpt lat="46.51396" lon="5.24324">
        <ele>195.19999694824</ele>
        <time>2021-03-12T12:48:26.000Z</time>
      </trkpt>
      <trkpt lat="46.51402" lon="5.24322">
        <ele>195.60000610352</ele>
        <time>2021-03-12T12:48:27.000Z</time>
      </trkpt>
      <trkpt lat="46.51414" lon="5.24317">
        <ele>196</ele>
        <time>2021-03-12T12:48:29.000Z</time>
      </trkpt>
      <trkpt lat="46.51425" lon="5.24313">
        <ele>196.19999694824</ele>
        <time>2021-03-12T12:48:31.000Z</time>
      </trkpt>
      <trkpt lat="46.51431" lon="5.2431">
        <ele>196.39999389648</ele>
        <time>2021-03-12T12:48:32.000Z</time>
      </trkpt>
      <trkpt lat="46.51437" lon="5.24308">
        <ele>196.80000305176</ele>
        <time>2021-03-12T12:48:33.000Z</time>
      </trkpt>
      <trkpt lat="46.51448" lon="5.24303">
        <ele>197.19999694824</ele>
        <time>2021-03-12T12:48:35.000Z</time>
      </trkpt>
      <trkpt lat="46.51459" lon="5.24299">
        <ele>197.60000610352</ele>
        <time>2021-03-12T12:48:37.000Z</time>
      </trkpt>
      <trkpt lat="46.51465" lon="5.24297">
        <ele>197.60000610352</ele>
        <time>2021-03-12T12:48:38.000Z</time>
      </trkpt>
      <trkpt lat="46.51471" lon="5.24295">
        <ele>197.80000305176</ele>
        <time>2021-03-12T12:48:39.000Z</time>
      </trkpt>
      <trkpt lat="46.51482" lon="5.24291">
        <ele>198.19999694824</ele>
        <time>2021-03-12T12:48:41.000Z</time>
      </trkpt>
      <trkpt lat="46.51493" lon="5.24287">
        <ele>198.80000305176</ele>
        <time>2021-03-12T12:48:43.000Z</time>
      </trkpt>
      <trkpt lat="46.51504" lon="5.24282">
        <ele>199</ele>
        <time>2021-03-12T12:48:45.000Z</time>
      </trkpt>
      <trkpt lat="46.51515" lon="5.24278">
        <ele>199.19999694824</ele>
        <time>2021-03-12T12:48:47.000Z</time>
      </trkpt>
      <trkpt lat="46.51525" lon="5.24274">
        <ele>199.80000305176</ele>
        <time>2021-03-12T12:48:49.000Z</time>
      </trkpt>
      <trkpt lat="46.51535" lon="5.2427">
        <ele>200</ele>
        <time>2021-03-12T12:48:51.000Z</time>
      </trkpt>
      <trkpt lat="46.51546" lon="5.24266">
        <ele>200.60000610352</ele>
        <time>2021-03-12T12:48:53.000Z</time>
      </trkpt>
      <trkpt lat="46.51551" lon="5.24264">
        <ele>200.60000610352</ele>
        <time>2021-03-12T12:48:54.000Z</time>
      </trkpt>
      <trkpt lat="46.51556" lon="5.24262">
        <ele>200.80000305176</ele>
        <time>2021-03-12T12:48:55.000Z</time>
      </trkpt>
      <trkpt lat="46.51561" lon="5.24261">
        <ele>201</ele>
        <time>2021-03-12T12:48:56.000Z</time>
      </trkpt>
      <trkpt lat="46.51566" lon="5.24259">
        <ele>201.19999694824</ele>
        <time>2021-03-12T12:48:57.000Z</time>
      </trkpt>
      <trkpt lat="46.51575" lon="5.24255">
        <ele>201.39999389648</ele>
        <time>2021-03-12T12:48:59.000Z</time>
      </trkpt>
      <trkpt lat="46.51585" lon="5.24252">
        <ele>202</ele>
        <time>2021-03-12T12:49:01.000Z</time>
      </trkpt>
      <trkpt lat="46.5159" lon="5.2425">
        <ele>202.19999694824</ele>
        <time>2021-03-12T12:49:02.000Z</time>
      </trkpt>
      <trkpt lat="46.51595" lon="5.24248">
        <ele>202.19999694824</ele>
        <time>2021-03-12T12:49:03.000Z</time>
      </trkpt>
      <trkpt lat="46.51604" lon="5.24244">
        <ele>202.60000610352</ele>
        <time>2021-03-12T12:49:05.000Z</time>
      </trkpt>
      <trkpt lat="46.51614" lon="5.2424">
        <ele>203.19999694824</ele>
        <time>2021-03-12T12:49:07.000Z</time>
      </trkpt>
      <trkpt lat="46.51624" lon="5.24237">
        <ele>203.60000610352</ele>
        <time>2021-03-12T12:49:09.000Z</time>
      </trkpt>
      <trkpt lat="46.51628" lon="5.24235">
        <ele>204</ele>
        <time>2021-03-12T12:49:10.000Z</time>
      </trkpt>
      <trkpt lat="46.51633" lon="5.24233">
        <ele>204</ele>
        <time>2021-03-12T12:49:11.000Z</time>
      </trkpt>
      <trkpt lat="46.51638" lon="5.24231">
        <ele>204.19999694824</ele>
        <time>2021-03-12T12:49:12.000Z</time>
      </trkpt>
      <trkpt lat="46.51643" lon="5.24229">
        <ele>204.39999389648</ele>
        <time>2021-03-12T12:49:13.000Z</time>
      </trkpt>
      <trkpt lat="46.51653" lon="5.24225">
        <ele>204.80000305176</ele>
        <time>2021-03-12T12:49:15.000Z</time>
      </trkpt>
      <trkpt lat="46.51664" lon="5.24221">
        <ele>205</ele>
        <time>2021-03-12T12:49:17.000Z</time>
      </trkpt>
      <trkpt lat="46.51674" lon="5.24217">
        <ele>205.19999694824</ele>
        <time>2021-03-12T12:49:19.000Z</time>
      </trkpt>
      <trkpt lat="46.51679" lon="5.24215">
        <ele>205.39999389648</ele>
        <time>2021-03-12T12:49:20.000Z</time>
      </trkpt>
      <trkpt lat="46.51685" lon="5.24213">
        <ele>205.60000610352</ele>
        <time>2021-03-12T12:49:21.000Z</time>
      </trkpt>
      <trkpt lat="46.51696" lon="5.24209">
        <ele>206</ele>
        <time>2021-03-12T12:49:23.000Z</time>
      </trkpt>
      <trkpt lat="46.51707" lon="5.24205">
        <ele>206.19999694824</ele>
        <time>2021-03-12T12:49:25.000Z</time>
      </trkpt>
      <trkpt lat="46.51719" lon="5.24201">
        <ele>206.39999389648</ele>
        <time>2021-03-12T12:49:27.000Z</time>
      </trkpt>
      <trkpt lat="46.51732" lon="5.24198">
        <ele>206.60000610352</ele>
        <time>2021-03-12T12:49:29.000Z</time>
      </trkpt>
      <trkpt lat="46.51738" lon="5.24196">
        <ele>206.60000610352</ele>
        <time>2021-03-12T12:49:30.000Z</time>
      </trkpt>
      <trkpt lat="46.51745" lon="5.24195">
        <ele>206.60000610352</ele>
        <time>2021-03-12T12:49:31.000Z</time>
      </trkpt>
      <trkpt lat="46.51759" lon="5.24193">
        <ele>206.60000610352</ele>
        <time>2021-03-12T12:49:33.000Z</time>
      </trkpt>
      <trkpt lat="46.51773" lon="5.2419">
        <ele>206.60000610352</ele>
        <time>2021-03-12T12:49:35.000Z</time>
      </trkpt>
      <trkpt lat="46.51788" lon="5.24188">
        <ele>206.39999389648</ele>
        <time>2021-03-12T12:49:37.000Z</time>
      </trkpt>
      <trkpt lat="46.51796" lon="5.24186">
        <ele>206.39999389648</ele>
        <time>2021-03-12T12:49:38.000Z</time>
      </trkpt>
      <trkpt lat="46.51803" lon="5.24185">
        <ele>206.19999694824</ele>
        <time>2021-03-12T12:49:39.000Z</time>
      </trkpt>
      <trkpt lat="46.51819" lon="5.24183">
        <ele>205.80000305176</ele>
        <time>2021-03-12T12:49:41.000Z</time>
      </trkpt>
      <trkpt lat="46.51835" lon="5.2418">
        <ele>205.19999694824</ele>
        <time>2021-03-12T12:49:43.000Z</time>
      </trkpt>
      <trkpt lat="46.51851" lon="5.24178">
        <ele>204.60000610352</ele>
        <time>2021-03-12T12:49:45.000Z</time>
      </trkpt>
      <trkpt lat="46.51867" lon="5.24175">
        <ele>204.39999389648</ele>
        <time>2021-03-12T12:49:47.000Z</time>
      </trkpt>
      <trkpt lat="46.51876" lon="5.24174">
        <ele>204.19999694824</ele>
        <time>2021-03-12T12:49:48.000Z</time>
      </trkpt>
      <trkpt lat="46.51884" lon="5.24172">
        <ele>204</ele>
        <time>2021-03-12T12:49:49.000Z</time>
      </trkpt>
      <trkpt lat="46.51901" lon="5.2417">
        <ele>204</ele>
        <time>2021-03-12T12:49:51.000Z</time>
      </trkpt>
      <trkpt lat="46.51918" lon="5.24167">
        <ele>204</ele>
        <time>2021-03-12T12:49:53.000Z</time>
      </trkpt>
      <trkpt lat="46.51934" lon="5.24164">
        <ele>203.80000305176</ele>
        <time>2021-03-12T12:49:55.000Z</time>
      </trkpt>
      <trkpt lat="46.51942" lon="5.24163">
        <ele>203.80000305176</ele>
        <time>2021-03-12T12:49:56.000Z</time>
      </trkpt>
      <trkpt lat="46.51949" lon="5.24161">
        <ele>203.80000305176</ele>
        <time>2021-03-12T12:49:57.000Z</time>
      </trkpt>
      <trkpt lat="46.51964" lon="5.24158">
        <ele>203.60000610352</ele>
        <time>2021-03-12T12:49:59.000Z</time>
      </trkpt>
      <trkpt lat="46.51979" lon="5.24155">
        <ele>203.60000610352</ele>
        <time>2021-03-12T12:50:01.000Z</time>
      </trkpt>
      <trkpt lat="46.51993" lon="5.24153">
        <ele>203.80000305176</ele>
        <time>2021-03-12T12:50:03.000Z</time>
      </trkpt>
      <trkpt lat="46.52007" lon="5.24151">
        <ele>203.80000305176</ele>
        <time>2021-03-12T12:50:05.000Z</time>
      </trkpt>
      <trkpt lat="46.52022" lon="5.24149">
        <ele>204</ele>
        <time>2021-03-12T12:50:07.000Z</time>
      </trkpt>
      <trkpt lat="46.52036" lon="5.24146">
        <ele>204.60000610352</ele>
        <time>2021-03-12T12:50:09.000Z</time>
      </trkpt>
      <trkpt lat="46.5205" lon="5.24144">
        <ele>205.19999694824</ele>
        <time>2021-03-12T12:50:11.000Z</time>
      </trkpt>
      <trkpt lat="46.52057" lon="5.24143">
        <ele>205.39999389648</ele>
        <time>2021-03-12T12:50:12.000Z</time>
      </trkpt>
      <trkpt lat="46.52064" lon="5.24142">
        <ele>205.60000610352</ele>
        <time>2021-03-12T12:50:13.000Z</time>
      </trkpt>
      <trkpt lat="46.52078" lon="5.2414">
        <ele>205.80000305176</ele>
        <time>2021-03-12T12:50:15.000Z</time>
      </trkpt>
      <trkpt lat="46.52092" lon="5.24138">
        <ele>206</ele>
        <time>2021-03-12T12:50:17.000Z</time>
      </trkpt>
      <trkpt lat="46.52106" lon="5.24135">
        <ele>206.19999694824</ele>
        <time>2021-03-12T12:50:19.000Z</time>
      </trkpt>
      <trkpt lat="46.52114" lon="5.24134">
        <ele>206.39999389648</ele>
        <time>2021-03-12T12:50:20.000Z</time>
      </trkpt>
      <trkpt lat="46.52121" lon="5.24133">
        <ele>206.60000610352</ele>
        <time>2021-03-12T12:50:21.000Z</time>
      </trkpt>
      <trkpt lat="46.52134" lon="5.2413">
        <ele>206.80000305176</ele>
        <time>2021-03-12T12:50:23.000Z</time>
      </trkpt>
      <trkpt lat="46.52148" lon="5.24128">
        <ele>207.39999389648</ele>
        <time>2021-03-12T12:50:25.000Z</time>
      </trkpt>
      <trkpt lat="46.52155" lon="5.24127">
        <ele>207.60000610352</ele>
        <time>2021-03-12T12:50:26.000Z</time>
      </trkpt>
      <trkpt lat="46.52161" lon="5.24127">
        <ele>207.80000305176</ele>
        <time>2021-03-12T12:50:27.000Z</time>
      </trkpt>
      <trkpt lat="46.52174" lon="5.24124">
        <ele>208.19999694824</ele>
        <time>2021-03-12T12:50:29.000Z</time>
      </trkpt>
      <trkpt lat="46.52186" lon="5.24122">
        <ele>208.19999694824</ele>
        <time>2021-03-12T12:50:31.000Z</time>
      </trkpt>
      <trkpt lat="46.52199" lon="5.2412">
        <ele>208.39999389648</ele>
        <time>2021-03-12T12:50:33.000Z</time>
      </trkpt>
      <trkpt lat="46.52211" lon="5.24118">
        <ele>208.80000305176</ele>
        <time>2021-03-12T12:50:35.000Z</time>
      </trkpt>
      <trkpt lat="46.52224" lon="5.24116">
        <ele>209.80000305176</ele>
        <time>2021-03-12T12:50:37.000Z</time>
      </trkpt>
      <trkpt lat="46.5223" lon="5.24114">
        <ele>210</ele>
        <time>2021-03-12T12:50:38.000Z</time>
      </trkpt>
      <trkpt lat="46.52236" lon="5.24113">
        <ele>210.39999389648</ele>
        <time>2021-03-12T12:50:39.000Z</time>
      </trkpt>
      <trkpt lat="46.52249" lon="5.24111">
        <ele>210.80000305176</ele>
        <time>2021-03-12T12:50:41.000Z</time>
      </trkpt>
      <trkpt lat="46.52256" lon="5.2411">
        <ele>211</ele>
        <time>2021-03-12T12:50:42.000Z</time>
      </trkpt>
      <trkpt lat="46.52262" lon="5.24108">
        <ele>211</ele>
        <time>2021-03-12T12:50:43.000Z</time>
      </trkpt>
      <trkpt lat="46.52275" lon="5.24107">
        <ele>211</ele>
        <time>2021-03-12T12:50:45.000Z</time>
      </trkpt>
      <trkpt lat="46.52288" lon="5.24105">
        <ele>211</ele>
        <time>2021-03-12T12:50:47.000Z</time>
      </trkpt>
      <trkpt lat="46.52294" lon="5.24103">
        <ele>211.19999694824</ele>
        <time>2021-03-12T12:50:48.000Z</time>
      </trkpt>
      <trkpt lat="46.52301" lon="5.24102">
        <ele>211.19999694824</ele>
        <time>2021-03-12T12:50:49.000Z</time>
      </trkpt>
      <trkpt lat="46.52314" lon="5.24101">
        <ele>211.19999694824</ele>
        <time>2021-03-12T12:50:51.000Z</time>
      </trkpt>
      <trkpt lat="46.52327" lon="5.241">
        <ele>211</ele>
        <time>2021-03-12T12:50:53.000Z</time>
      </trkpt>
      <trkpt lat="46.5234" lon="5.24099">
        <ele>211</ele>
        <time>2021-03-12T12:50:55.000Z</time>
      </trkpt>
      <trkpt lat="46.52353" lon="5.241">
        <ele>211</ele>
        <time>2021-03-12T12:50:57.000Z</time>
      </trkpt>
      <trkpt lat="46.5236" lon="5.241">
        <ele>211</ele>
        <time>2021-03-12T12:50:58.000Z</time>
      </trkpt>
      <trkpt lat="46.52367" lon="5.24101">
        <ele>211</ele>
        <time>2021-03-12T12:50:59.000Z</time>
      </trkpt>
      <trkpt lat="46.5238" lon="5.24104">
        <ele>211</ele>
        <time>2021-03-12T12:51:01.000Z</time>
      </trkpt>
      <trkpt lat="46.52393" lon="5.24107">
        <ele>211</ele>
        <time>2021-03-12T12:51:03.000Z</time>
      </trkpt>
      <trkpt lat="46.52406" lon="5.2411">
        <ele>211</ele>
        <time>2021-03-12T12:51:05.000Z</time>
      </trkpt>
      <trkpt lat="46.52413" lon="5.24112">
        <ele>211</ele>
        <time>2021-03-12T12:51:06.000Z</time>
      </trkpt>
      <trkpt lat="46.5242" lon="5.24113">
        <ele>211</ele>
        <time>2021-03-12T12:51:07.000Z</time>
      </trkpt>
      <trkpt lat="46.52433" lon="5.24116">
        <ele>211</ele>
        <time>2021-03-12T12:51:09.000Z</time>
      </trkpt>
      <trkpt lat="46.52446" lon="5.24118">
        <ele>211.19999694824</ele>
        <time>2021-03-12T12:51:11.000Z</time>
      </trkpt>
      <trkpt lat="46.5246" lon="5.24121">
        <ele>211.39999389648</ele>
        <time>2021-03-12T12:51:13.000Z</time>
      </trkpt>
      <trkpt lat="46.52466" lon="5.24126">
        <ele>211.60000610352</ele>
        <time>2021-03-12T12:51:14.000Z</time>
      </trkpt>
      <trkpt lat="46.52471" lon="5.24133">
        <ele>211.80000305176</ele>
        <time>2021-03-12T12:51:15.000Z</time>
      </trkpt>
      <trkpt lat="46.52474" lon="5.24143">
        <ele>211.80000305176</ele>
        <time>2021-03-12T12:51:16.000Z</time>
      </trkpt>
      <trkpt lat="46.52476" lon="5.24154">
        <ele>212</ele>
        <time>2021-03-12T12:51:17.000Z</time>
      </trkpt>
      <trkpt lat="46.52476" lon="5.24165">
        <ele>212</ele>
        <time>2021-03-12T12:51:18.000Z</time>
      </trkpt>
      <trkpt lat="46.52478" lon="5.24177">
        <ele>212</ele>
        <time>2021-03-12T12:51:19.000Z</time>
      </trkpt>
      <trkpt lat="46.52479" lon="5.24189">
        <ele>212</ele>
        <time>2021-03-12T12:51:20.000Z</time>
      </trkpt>
      <trkpt lat="46.52481" lon="5.242">
        <ele>212</ele>
        <time>2021-03-12T12:51:21.000Z</time>
      </trkpt>
      <trkpt lat="46.52484" lon="5.24224">
        <ele>212</ele>
        <time>2021-03-12T12:51:23.000Z</time>
      </trkpt>
      <trkpt lat="46.52487" lon="5.24249">
        <ele>212</ele>
        <time>2021-03-12T12:51:25.000Z</time>
      </trkpt>
      <trkpt lat="46.5249" lon="5.24272">
        <ele>211.60000610352</ele>
        <time>2021-03-12T12:51:27.000Z</time>
      </trkpt>
      <trkpt lat="46.52493" lon="5.24296">
        <ele>211.19999694824</ele>
        <time>2021-03-12T12:51:29.000Z</time>
      </trkpt>
      <trkpt lat="46.52496" lon="5.24321">
        <ele>210.80000305176</ele>
        <time>2021-03-12T12:51:31.000Z</time>
      </trkpt>
      <trkpt lat="46.525" lon="5.24345">
        <ele>210.39999389648</ele>
        <time>2021-03-12T12:51:33.000Z</time>
      </trkpt>
      <trkpt lat="46.52503" lon="5.24369">
        <ele>210</ele>
        <time>2021-03-12T12:51:35.000Z</time>
      </trkpt>
      <trkpt lat="46.52506" lon="5.24392">
        <ele>209.80000305176</ele>
        <time>2021-03-12T12:51:37.000Z</time>
      </trkpt>
      <trkpt lat="46.52507" lon="5.24404">
        <ele>209.80000305176</ele>
        <time>2021-03-12T12:51:38.000Z</time>
      </trkpt>
      <trkpt lat="46.52509" lon="5.24415">
        <ele>209.80000305176</ele>
        <time>2021-03-12T12:51:39.000Z</time>
      </trkpt>
      <trkpt lat="46.52512" lon="5.24437">
        <ele>209.39999389648</ele>
        <time>2021-03-12T12:51:41.000Z</time>
      </trkpt>
      <trkpt lat="46.52515" lon="5.24457">
        <ele>209.19999694824</ele>
        <time>2021-03-12T12:51:43.000Z</time>
      </trkpt>
      <trkpt lat="46.5252" lon="5.24477">
        <ele>209.19999694824</ele>
        <time>2021-03-12T12:51:45.000Z</time>
      </trkpt>
      <trkpt lat="46.52525" lon="5.24496">
        <ele>209.19999694824</ele>
        <time>2021-03-12T12:51:47.000Z</time>
      </trkpt>
      <trkpt lat="46.52531" lon="5.24515">
        <ele>209.19999694824</ele>
        <time>2021-03-12T12:51:49.000Z</time>
      </trkpt>
      <trkpt lat="46.52537" lon="5.24534">
        <ele>209.39999389648</ele>
        <time>2021-03-12T12:51:51.000Z</time>
      </trkpt>
      <trkpt lat="46.52544" lon="5.24552">
        <ele>209.80000305176</ele>
        <time>2021-03-12T12:51:53.000Z</time>
      </trkpt>
      <trkpt lat="46.52551" lon="5.2457">
        <ele>210.39999389648</ele>
        <time>2021-03-12T12:51:55.000Z</time>
      </trkpt>
      <trkpt lat="46.52557" lon="5.24588">
        <ele>210.60000610352</ele>
        <time>2021-03-12T12:51:57.000Z</time>
      </trkpt>
      <trkpt lat="46.52563" lon="5.24606">
        <ele>211</ele>
        <time>2021-03-12T12:51:59.000Z</time>
      </trkpt>
      <trkpt lat="46.52566" lon="5.24615">
        <ele>211</ele>
        <time>2021-03-12T12:52:00.000Z</time>
      </trkpt>
      <trkpt lat="46.52569" lon="5.24624">
        <ele>211.19999694824</ele>
        <time>2021-03-12T12:52:01.000Z</time>
      </trkpt>
      <trkpt lat="46.52575" lon="5.24642">
        <ele>211.39999389648</ele>
        <time>2021-03-12T12:52:03.000Z</time>
      </trkpt>
      <trkpt lat="46.52579" lon="5.24661">
        <ele>211.60000610352</ele>
        <time>2021-03-12T12:52:05.000Z</time>
      </trkpt>
      <trkpt lat="46.5258" lon="5.2467">
        <ele>211.80000305176</ele>
        <time>2021-03-12T12:52:06.000Z</time>
      </trkpt>
      <trkpt lat="46.52581" lon="5.2468">
        <ele>211.80000305176</ele>
        <time>2021-03-12T12:52:07.000Z</time>
      </trkpt>
      <trkpt lat="46.52583" lon="5.24699">
        <ele>211.80000305176</ele>
        <time>2021-03-12T12:52:09.000Z</time>
      </trkpt>
      <trkpt lat="46.52584" lon="5.24719">
        <ele>212</ele>
        <time>2021-03-12T12:52:11.000Z</time>
      </trkpt>
      <trkpt lat="46.52584" lon="5.24739">
        <ele>212</ele>
        <time>2021-03-12T12:52:13.000Z</time>
      </trkpt>
      <trkpt lat="46.52585" lon="5.2476">
        <ele>212</ele>
        <time>2021-03-12T12:52:15.000Z</time>
      </trkpt>
      <trkpt lat="46.52586" lon="5.2478">
        <ele>212</ele>
        <time>2021-03-12T12:52:17.000Z</time>
      </trkpt>
      <trkpt lat="46.52587" lon="5.248">
        <ele>212</ele>
        <time>2021-03-12T12:52:19.000Z</time>
      </trkpt>
      <trkpt lat="46.52588" lon="5.2482">
        <ele>212</ele>
        <time>2021-03-12T12:52:21.000Z</time>
      </trkpt>
      <trkpt lat="46.52588" lon="5.2484">
        <ele>212</ele>
        <time>2021-03-12T12:52:23.000Z</time>
      </trkpt>
      <trkpt lat="46.52589" lon="5.24859">
        <ele>212</ele>
        <time>2021-03-12T12:52:25.000Z</time>
      </trkpt>
      <trkpt lat="46.5259" lon="5.24879">
        <ele>212</ele>
        <time>2021-03-12T12:52:27.000Z</time>
      </trkpt>
      <trkpt lat="46.5259" lon="5.24899">
        <ele>212</ele>
        <time>2021-03-12T12:52:29.000Z</time>
      </trkpt>
      <trkpt lat="46.52591" lon="5.24909">
        <ele>212.19999694824</ele>
        <time>2021-03-12T12:52:30.000Z</time>
      </trkpt>
      <trkpt lat="46.52592" lon="5.24919">
        <ele>212.19999694824</ele>
        <time>2021-03-12T12:52:31.000Z</time>
      </trkpt>
      <trkpt lat="46.52593" lon="5.24929">
        <ele>212.19999694824</ele>
        <time>2021-03-12T12:52:32.000Z</time>
      </trkpt>
      <trkpt lat="46.52594" lon="5.24939">
        <ele>212.19999694824</ele>
        <time>2021-03-12T12:52:33.000Z</time>
      </trkpt>
      <trkpt lat="46.52597" lon="5.2496">
        <ele>212.39999389648</ele>
        <time>2021-03-12T12:52:35.000Z</time>
      </trkpt>
      <trkpt lat="46.52601" lon="5.2498">
        <ele>212.39999389648</ele>
        <time>2021-03-12T12:52:37.000Z</time>
      </trkpt>
      <trkpt lat="46.52604" lon="5.25">
        <ele>212.60000610352</ele>
        <time>2021-03-12T12:52:39.000Z</time>
      </trkpt>
      <trkpt lat="46.52607" lon="5.25021">
        <ele>212.80000305176</ele>
        <time>2021-03-12T12:52:41.000Z</time>
      </trkpt>
      <trkpt lat="46.52609" lon="5.25041">
        <ele>212.80000305176</ele>
        <time>2021-03-12T12:52:43.000Z</time>
      </trkpt>
      <trkpt lat="46.52611" lon="5.25062">
        <ele>213</ele>
        <time>2021-03-12T12:52:45.000Z</time>
      </trkpt>
      <trkpt lat="46.52612" lon="5.25082">
        <ele>213.19999694824</ele>
        <time>2021-03-12T12:52:47.000Z</time>
      </trkpt>
      <trkpt lat="46.52612" lon="5.25093">
        <ele>213.39999389648</ele>
        <time>2021-03-12T12:52:48.000Z</time>
      </trkpt>
      <trkpt lat="46.52612" lon="5.25103">
        <ele>213.39999389648</ele>
        <time>2021-03-12T12:52:49.000Z</time>
      </trkpt>
      <trkpt lat="46.52613" lon="5.25123">
        <ele>213.60000610352</ele>
        <time>2021-03-12T12:52:51.000Z</time>
      </trkpt>
      <trkpt lat="46.52614" lon="5.25144">
        <ele>213.60000610352</ele>
        <time>2021-03-12T12:52:53.000Z</time>
      </trkpt>
      <trkpt lat="46.52615" lon="5.25165">
        <ele>213.60000610352</ele>
        <time>2021-03-12T12:52:55.000Z</time>
      </trkpt>
      <trkpt lat="46.52615" lon="5.25186">
        <ele>213.60000610352</ele>
        <time>2021-03-12T12:52:57.000Z</time>
      </trkpt>
      <trkpt lat="46.52616" lon="5.25196">
        <ele>213.80000305176</ele>
        <time>2021-03-12T12:52:58.000Z</time>
      </trkpt>
      <trkpt lat="46.52616" lon="5.25206">
        <ele>213.80000305176</ele>
        <time>2021-03-12T12:52:59.000Z</time>
      </trkpt>
      <trkpt lat="46.52617" lon="5.25227">
        <ele>213.80000305176</ele>
        <time>2021-03-12T12:53:01.000Z</time>
      </trkpt>
      <trkpt lat="46.52617" lon="5.25247">
        <ele>213.60000610352</ele>
        <time>2021-03-12T12:53:03.000Z</time>
      </trkpt>
      <trkpt lat="46.52619" lon="5.25267">
        <ele>213.60000610352</ele>
        <time>2021-03-12T12:53:05.000Z</time>
      </trkpt>
      <trkpt lat="46.52622" lon="5.25287">
        <ele>213.60000610352</ele>
        <time>2021-03-12T12:53:07.000Z</time>
      </trkpt>
      <trkpt lat="46.52626" lon="5.25307">
        <ele>213.60000610352</ele>
        <time>2021-03-12T12:53:09.000Z</time>
      </trkpt>
      <trkpt lat="46.52631" lon="5.25325">
        <ele>213.60000610352</ele>
        <time>2021-03-12T12:53:11.000Z</time>
      </trkpt>
      <trkpt lat="46.52637" lon="5.25342">
        <ele>213.60000610352</ele>
        <time>2021-03-12T12:53:13.000Z</time>
      </trkpt>
      <trkpt lat="46.52645" lon="5.2536">
        <ele>213.80000305176</ele>
        <time>2021-03-12T12:53:15.000Z</time>
      </trkpt>
      <trkpt lat="46.52649" lon="5.25368">
        <ele>213.80000305176</ele>
        <time>2021-03-12T12:53:16.000Z</time>
      </trkpt>
      <trkpt lat="46.52654" lon="5.25376">
        <ele>213.80000305176</ele>
        <time>2021-03-12T12:53:17.000Z</time>
      </trkpt>
      <trkpt lat="46.52664" lon="5.25391">
        <ele>213.80000305176</ele>
        <time>2021-03-12T12:53:19.000Z</time>
      </trkpt>
      <trkpt lat="46.52675" lon="5.25406">
        <ele>213.80000305176</ele>
        <time>2021-03-12T12:53:21.000Z</time>
      </trkpt>
      <trkpt lat="46.52685" lon="5.25421">
        <ele>213.80000305176</ele>
        <time>2021-03-12T12:53:23.000Z</time>
      </trkpt>
      <trkpt lat="46.52696" lon="5.25437">
        <ele>213.80000305176</ele>
        <time>2021-03-12T12:53:25.000Z</time>
      </trkpt>
      <trkpt lat="46.52701" lon="5.25445">
        <ele>213.80000305176</ele>
        <time>2021-03-12T12:53:26.000Z</time>
      </trkpt>
      <trkpt lat="46.52706" lon="5.25453">
        <ele>213.80000305176</ele>
        <time>2021-03-12T12:53:27.000Z</time>
      </trkpt>
      <trkpt lat="46.52711" lon="5.25461">
        <ele>213.60000610352</ele>
        <time>2021-03-12T12:53:28.000Z</time>
      </trkpt>
      <trkpt lat="46.52714" lon="5.25471">
        <ele>213.39999389648</ele>
        <time>2021-03-12T12:53:29.000Z</time>
      </trkpt>
      <trkpt lat="46.52717" lon="5.25481">
        <ele>213.39999389648</ele>
        <time>2021-03-12T12:53:30.000Z</time>
      </trkpt>
      <trkpt lat="46.52719" lon="5.25492">
        <ele>213.19999694824</ele>
        <time>2021-03-12T12:53:31.000Z</time>
      </trkpt>
      <trkpt lat="46.52719" lon="5.25514">
        <ele>213</ele>
        <time>2021-03-12T12:53:33.000Z</time>
      </trkpt>
      <trkpt lat="46.52719" lon="5.25525">
        <ele>212.80000305176</ele>
        <time>2021-03-12T12:53:34.000Z</time>
      </trkpt>
      <trkpt lat="46.52719" lon="5.25536">
        <ele>212.60000610352</ele>
        <time>2021-03-12T12:53:35.000Z</time>
      </trkpt>
      <trkpt lat="46.52718" lon="5.25559">
        <ele>212.60000610352</ele>
        <time>2021-03-12T12:53:37.000Z</time>
      </trkpt>
      <trkpt lat="46.52717" lon="5.25581">
        <ele>212.39999389648</ele>
        <time>2021-03-12T12:53:39.000Z</time>
      </trkpt>
      <trkpt lat="46.52716" lon="5.25593">
        <ele>212.39999389648</ele>
        <time>2021-03-12T12:53:40.000Z</time>
      </trkpt>
      <trkpt lat="46.52716" lon="5.25604">
        <ele>212.19999694824</ele>
        <time>2021-03-12T12:53:41.000Z</time>
      </trkpt>
      <trkpt lat="46.52716" lon="5.25615">
        <ele>212.19999694824</ele>
        <time>2021-03-12T12:53:42.000Z</time>
      </trkpt>
      <trkpt lat="46.52715" lon="5.25626">
        <ele>212.19999694824</ele>
        <time>2021-03-12T12:53:43.000Z</time>
      </trkpt>
      <trkpt lat="46.52715" lon="5.25648">
        <ele>212</ele>
        <time>2021-03-12T12:53:45.000Z</time>
      </trkpt>
      <trkpt lat="46.52714" lon="5.25669">
        <ele>211.80000305176</ele>
        <time>2021-03-12T12:53:47.000Z</time>
      </trkpt>
      <trkpt lat="46.52713" lon="5.25691">
        <ele>211.60000610352</ele>
        <time>2021-03-12T12:53:49.000Z</time>
      </trkpt>
      <trkpt lat="46.52712" lon="5.25701">
        <ele>211.60000610352</ele>
        <time>2021-03-12T12:53:50.000Z</time>
      </trkpt>
      <trkpt lat="46.5271" lon="5.25712">
        <ele>211.39999389648</ele>
        <time>2021-03-12T12:53:51.000Z</time>
      </trkpt>
      <trkpt lat="46.52706" lon="5.25733">
        <ele>211.39999389648</ele>
        <time>2021-03-12T12:53:53.000Z</time>
      </trkpt>
      <trkpt lat="46.52701" lon="5.25753">
        <ele>211.39999389648</ele>
        <time>2021-03-12T12:53:55.000Z</time>
      </trkpt>
      <trkpt lat="46.52698" lon="5.25763">
        <ele>211.19999694824</ele>
        <time>2021-03-12T12:53:56.000Z</time>
      </trkpt>
      <trkpt lat="46.52696" lon="5.25773">
        <ele>211.19999694824</ele>
        <time>2021-03-12T12:53:57.000Z</time>
      </trkpt>
      <trkpt lat="46.52691" lon="5.25794">
        <ele>211.19999694824</ele>
        <time>2021-03-12T12:53:59.000Z</time>
      </trkpt>
      <trkpt lat="46.5269" lon="5.25816">
        <ele>211</ele>
        <time>2021-03-12T12:54:01.000Z</time>
      </trkpt>
      <trkpt lat="46.5269" lon="5.25839">
        <ele>210.60000610352</ele>
        <time>2021-03-12T12:54:03.000Z</time>
      </trkpt>
      <trkpt lat="46.5269" lon="5.25864">
        <ele>210.39999389648</ele>
        <time>2021-03-12T12:54:05.000Z</time>
      </trkpt>
      <trkpt lat="46.52689" lon="5.25877">
        <ele>210.39999389648</ele>
        <time>2021-03-12T12:54:06.000Z</time>
      </trkpt>
      <trkpt lat="46.52687" lon="5.2589">
        <ele>210.39999389648</ele>
        <time>2021-03-12T12:54:07.000Z</time>
      </trkpt>
      <trkpt lat="46.5268" lon="5.25916">
        <ele>210.19999694824</ele>
        <time>2021-03-12T12:54:09.000Z</time>
      </trkpt>
      <trkpt lat="46.52675" lon="5.25927">
        <ele>210.19999694824</ele>
        <time>2021-03-12T12:54:10.000Z</time>
      </trkpt>
      <trkpt lat="46.52668" lon="5.25937">
        <ele>210</ele>
        <time>2021-03-12T12:54:11.000Z</time>
      </trkpt>
      <trkpt lat="46.5266" lon="5.25944">
        <ele>209.80000305176</ele>
        <time>2021-03-12T12:54:12.000Z</time>
      </trkpt>
      <trkpt lat="46.5265" lon="5.25948">
        <ele>209.19999694824</ele>
        <time>2021-03-12T12:54:13.000Z</time>
      </trkpt>
      <trkpt lat="46.52629" lon="5.25951">
        <ele>207.60000610352</ele>
        <time>2021-03-12T12:54:15.000Z</time>
      </trkpt>
      <trkpt lat="46.52611" lon="5.25965">
        <ele>206</ele>
        <time>2021-03-12T12:54:17.000Z</time>
      </trkpt>
      <trkpt lat="46.52599" lon="5.25988">
        <ele>203.80000305176</ele>
        <time>2021-03-12T12:54:19.000Z</time>
      </trkpt>
      <trkpt lat="46.52592" lon="5.26017">
        <ele>201.80000305176</ele>
        <time>2021-03-12T12:54:21.000Z</time>
      </trkpt>
      <trkpt lat="46.5259" lon="5.26033">
        <ele>201</ele>
        <time>2021-03-12T12:54:22.000Z</time>
      </trkpt>
      <trkpt lat="46.52587" lon="5.26049">
        <ele>200.60000610352</ele>
        <time>2021-03-12T12:54:23.000Z</time>
      </trkpt>
      <trkpt lat="46.52581" lon="5.2608">
        <ele>199</ele>
        <time>2021-03-12T12:54:25.000Z</time>
      </trkpt>
      <trkpt lat="46.52577" lon="5.26093">
        <ele>198</ele>
        <time>2021-03-12T12:54:26.000Z</time>
      </trkpt>
      <trkpt lat="46.52571" lon="5.26105">
        <ele>197.19999694824</ele>
        <time>2021-03-12T12:54:27.000Z</time>
      </trkpt>
      <trkpt lat="46.52563" lon="5.26113">
        <ele>196.60000610352</ele>
        <time>2021-03-12T12:54:28.000Z</time>
      </trkpt>
      <trkpt lat="46.52553" lon="5.26117">
        <ele>195.80000305176</ele>
        <time>2021-03-12T12:54:29.000Z</time>
      </trkpt>
      <trkpt lat="46.52544" lon="5.26119">
        <ele>195</ele>
        <time>2021-03-12T12:54:30.000Z</time>
      </trkpt>
      <trkpt lat="46.52534" lon="5.2612">
        <ele>194.39999389648</ele>
        <time>2021-03-12T12:54:31.000Z</time>
      </trkpt>
      <trkpt lat="46.52525" lon="5.26122">
        <ele>193.80000305176</ele>
        <time>2021-03-12T12:54:32.000Z</time>
      </trkpt>
      <trkpt lat="46.52516" lon="5.26127">
        <ele>193.19999694824</ele>
        <time>2021-03-12T12:54:33.000Z</time>
      </trkpt>
      <trkpt lat="46.52509" lon="5.26135">
        <ele>192.19999694824</ele>
        <time>2021-03-12T12:54:34.000Z</time>
      </trkpt>
      <trkpt lat="46.52503" lon="5.26144">
        <ele>191.19999694824</ele>
        <time>2021-03-12T12:54:35.000Z</time>
      </trkpt>
      <trkpt lat="46.52499" lon="5.26155">
        <ele>190.60000610352</ele>
        <time>2021-03-12T12:54:36.000Z</time>
      </trkpt>
      <trkpt lat="46.52495" lon="5.26166">
        <ele>190.19999694824</ele>
        <time>2021-03-12T12:54:37.000Z</time>
      </trkpt>
      <trkpt lat="46.5249" lon="5.26178">
        <ele>190</ele>
        <time>2021-03-12T12:54:38.000Z</time>
      </trkpt>
      <trkpt lat="46.52486" lon="5.26189">
        <ele>190</ele>
        <time>2021-03-12T12:54:39.000Z</time>
      </trkpt>
      <trkpt lat="46.52477" lon="5.26211">
        <ele>189.80000305176</ele>
        <time>2021-03-12T12:54:41.000Z</time>
      </trkpt>
      <trkpt lat="46.52469" lon="5.26233">
        <ele>189.80000305176</ele>
        <time>2021-03-12T12:54:43.000Z</time>
      </trkpt>
      <trkpt lat="46.52461" lon="5.26254">
        <ele>189.60000610352</ele>
        <time>2021-03-12T12:54:45.000Z</time>
      </trkpt>
      <trkpt lat="46.52453" lon="5.26275">
        <ele>189.60000610352</ele>
        <time>2021-03-12T12:54:47.000Z</time>
      </trkpt>
      <trkpt lat="46.52445" lon="5.26296">
        <ele>189.80000305176</ele>
        <time>2021-03-12T12:54:49.000Z</time>
      </trkpt>
      <trkpt lat="46.52438" lon="5.26316">
        <ele>189.80000305176</ele>
        <time>2021-03-12T12:54:51.000Z</time>
      </trkpt>
      <trkpt lat="46.52434" lon="5.26326">
        <ele>189.80000305176</ele>
        <time>2021-03-12T12:54:52.000Z</time>
      </trkpt>
      <trkpt lat="46.52431" lon="5.26336">
        <ele>190</ele>
        <time>2021-03-12T12:54:53.000Z</time>
      </trkpt>
      <trkpt lat="46.52424" lon="5.26356">
        <ele>190</ele>
        <time>2021-03-12T12:54:55.000Z</time>
      </trkpt>
      <trkpt lat="46.5242" lon="5.26365">
        <ele>190</ele>
        <time>2021-03-12T12:54:56.000Z</time>
      </trkpt>
      <trkpt lat="46.52415" lon="5.26372">
        <ele>190</ele>
        <time>2021-03-12T12:54:57.000Z</time>
      </trkpt>
      <trkpt lat="46.52403" lon="5.26372">
        <ele>190.19999694824</ele>
        <time>2021-03-12T12:54:59.000Z</time>
      </trkpt>
      <trkpt lat="46.52394" lon="5.26362">
        <ele>190.19999694824</ele>
        <time>2021-03-12T12:55:01.000Z</time>
      </trkpt>
      <trkpt lat="46.52385" lon="5.26352">
        <ele>190.39999389648</ele>
        <time>2021-03-12T12:55:03.000Z</time>
      </trkpt>
      <trkpt lat="46.52375" lon="5.26345">
        <ele>190.60000610352</ele>
        <time>2021-03-12T12:55:05.000Z</time>
      </trkpt>
      <trkpt lat="46.52366" lon="5.26338">
        <ele>190.80000305176</ele>
        <time>2021-03-12T12:55:07.000Z</time>
      </trkpt>
      <trkpt lat="46.52358" lon="5.2633">
        <ele>190.80000305176</ele>
        <time>2021-03-12T12:55:09.000Z</time>
      </trkpt>
      <trkpt lat="46.52354" lon="5.26327">
        <ele>191</ele>
        <time>2021-03-12T12:55:10.000Z</time>
      </trkpt>
      <trkpt lat="46.5235" lon="5.26323">
        <ele>191.19999694824</ele>
        <time>2021-03-12T12:55:11.000Z</time>
      </trkpt>
      <trkpt lat="46.52341" lon="5.26317">
        <ele>191.60000610352</ele>
        <time>2021-03-12T12:55:13.000Z</time>
      </trkpt>
      <trkpt lat="46.52333" lon="5.2631">
        <ele>191.80000305176</ele>
        <time>2021-03-12T12:55:15.000Z</time>
      </trkpt>
      <trkpt lat="46.52325" lon="5.26304">
        <ele>192.39999389648</ele>
        <time>2021-03-12T12:55:17.000Z</time>
      </trkpt>
      <trkpt lat="46.52318" lon="5.26297">
        <ele>192.80000305176</ele>
        <time>2021-03-12T12:55:19.000Z</time>
      </trkpt>
      <trkpt lat="46.5231" lon="5.26291">
        <ele>193.60000610352</ele>
        <time>2021-03-12T12:55:21.000Z</time>
      </trkpt>
      <trkpt lat="46.52303" lon="5.26285">
        <ele>194.19999694824</ele>
        <time>2021-03-12T12:55:23.000Z</time>
      </trkpt>
      <trkpt lat="46.52299" lon="5.26282">
        <ele>194.60000610352</ele>
        <time>2021-03-12T12:55:24.000Z</time>
      </trkpt>
      <trkpt lat="46.52296" lon="5.26279">
        <ele>194.80000305176</ele>
        <time>2021-03-12T12:55:25.000Z</time>
      </trkpt>
      <trkpt lat="46.52288" lon="5.26272">
        <ele>195</ele>
        <time>2021-03-12T12:55:27.000Z</time>
      </trkpt>
      <trkpt lat="46.52285" lon="5.26269">
        <ele>195</ele>
        <time>2021-03-12T12:55:28.000Z</time>
      </trkpt>
      <trkpt lat="46.52281" lon="5.26266">
        <ele>195.19999694824</ele>
        <time>2021-03-12T12:55:29.000Z</time>
      </trkpt>
      <trkpt lat="46.52273" lon="5.26261">
        <ele>195.80000305176</ele>
        <time>2021-03-12T12:55:31.000Z</time>
      </trkpt>
      <trkpt lat="46.52269" lon="5.26257">
        <ele>196</ele>
        <time>2021-03-12T12:55:32.000Z</time>
      </trkpt>
      <trkpt lat="46.52265" lon="5.26254">
        <ele>196</ele>
        <time>2021-03-12T12:55:33.000Z</time>
      </trkpt>
      <trkpt lat="46.52257" lon="5.26247">
        <ele>196.39999389648</ele>
        <time>2021-03-12T12:55:35.000Z</time>
      </trkpt>
      <trkpt lat="46.52248" lon="5.2624">
        <ele>196.80000305176</ele>
        <time>2021-03-12T12:55:37.000Z</time>
      </trkpt>
      <trkpt lat="46.52243" lon="5.26236">
        <ele>197</ele>
        <time>2021-03-12T12:55:38.000Z</time>
      </trkpt>
      <trkpt lat="46.52238" lon="5.26232">
        <ele>197</ele>
        <time>2021-03-12T12:55:39.000Z</time>
      </trkpt>
      <trkpt lat="46.52228" lon="5.26224">
        <ele>197.19999694824</ele>
        <time>2021-03-12T12:55:41.000Z</time>
      </trkpt>
      <trkpt lat="46.52223" lon="5.2622">
        <ele>197.19999694824</ele>
        <time>2021-03-12T12:55:42.000Z</time>
      </trkpt>
      <trkpt lat="46.52218" lon="5.26215">
        <ele>197.39999389648</ele>
        <time>2021-03-12T12:55:43.000Z</time>
      </trkpt>
      <trkpt lat="46.52207" lon="5.26207">
        <ele>197.39999389648</ele>
        <time>2021-03-12T12:55:45.000Z</time>
      </trkpt>
      <trkpt lat="46.52195" lon="5.262">
        <ele>197.39999389648</ele>
        <time>2021-03-12T12:55:47.000Z</time>
      </trkpt>
      <trkpt lat="46.52182" lon="5.26193">
        <ele>197.19999694824</ele>
        <time>2021-03-12T12:55:49.000Z</time>
      </trkpt>
      <trkpt lat="46.52169" lon="5.26189">
        <ele>196.60000610352</ele>
        <time>2021-03-12T12:55:51.000Z</time>
      </trkpt>
      <trkpt lat="46.52154" lon="5.26187">
        <ele>195.80000305176</ele>
        <time>2021-03-12T12:55:53.000Z</time>
      </trkpt>
      <trkpt lat="46.52147" lon="5.26186">
        <ele>195.60000610352</ele>
        <time>2021-03-12T12:55:54.000Z</time>
      </trkpt>
      <trkpt lat="46.52139" lon="5.26186">
        <ele>195.39999389648</ele>
        <time>2021-03-12T12:55:55.000Z</time>
      </trkpt>
      <trkpt lat="46.52123" lon="5.26187">
        <ele>195.19999694824</ele>
        <time>2021-03-12T12:55:57.000Z</time>
      </trkpt>
      <trkpt lat="46.52106" lon="5.26188">
        <ele>195</ele>
        <time>2021-03-12T12:55:59.000Z</time>
      </trkpt>
      <trkpt lat="46.5209" lon="5.26188">
        <ele>194.39999389648</ele>
        <time>2021-03-12T12:56:01.000Z</time>
      </trkpt>
      <trkpt lat="46.52074" lon="5.26189">
        <ele>193.80000305176</ele>
        <time>2021-03-12T12:56:03.000Z</time>
      </trkpt>
      <trkpt lat="46.52066" lon="5.2619">
        <ele>193.39999389648</ele>
        <time>2021-03-12T12:56:04.000Z</time>
      </trkpt>
      <trkpt lat="46.52058" lon="5.2619">
        <ele>193</ele>
        <time>2021-03-12T12:56:05.000Z</time>
      </trkpt>
      <trkpt lat="46.52044" lon="5.2619">
        <ele>192.60000610352</ele>
        <time>2021-03-12T12:56:07.000Z</time>
      </trkpt>
      <trkpt lat="46.52036" lon="5.26191">
        <ele>192.39999389648</ele>
        <time>2021-03-12T12:56:08.000Z</time>
      </trkpt>
      <trkpt lat="46.52029" lon="5.26191">
        <ele>192</ele>
        <time>2021-03-12T12:56:09.000Z</time>
      </trkpt>
      <trkpt lat="46.52015" lon="5.26192">
        <ele>191.80000305176</ele>
        <time>2021-03-12T12:56:11.000Z</time>
      </trkpt>
      <trkpt lat="46.52001" lon="5.26193">
        <ele>191.60000610352</ele>
        <time>2021-03-12T12:56:13.000Z</time>
      </trkpt>
      <trkpt lat="46.51988" lon="5.26194">
        <ele>191.60000610352</ele>
        <time>2021-03-12T12:56:15.000Z</time>
      </trkpt>
      <trkpt lat="46.51975" lon="5.26194">
        <ele>191.60000610352</ele>
        <time>2021-03-12T12:56:17.000Z</time>
      </trkpt>
      <trkpt lat="46.51963" lon="5.26195">
        <ele>191.60000610352</ele>
        <time>2021-03-12T12:56:19.000Z</time>
      </trkpt>
      <trkpt lat="46.5195" lon="5.26195">
        <ele>191.60000610352</ele>
        <time>2021-03-12T12:56:21.000Z</time>
      </trkpt>
      <trkpt lat="46.51938" lon="5.26196">
        <ele>191.60000610352</ele>
        <time>2021-03-12T12:56:23.000Z</time>
      </trkpt>
      <trkpt lat="46.51926" lon="5.26196">
        <ele>192.19999694824</ele>
        <time>2021-03-12T12:56:25.000Z</time>
      </trkpt>
      <trkpt lat="46.51914" lon="5.26197">
        <ele>192.60000610352</ele>
        <time>2021-03-12T12:56:27.000Z</time>
      </trkpt>
      <trkpt lat="46.51901" lon="5.26197">
        <ele>193</ele>
        <time>2021-03-12T12:56:29.000Z</time>
      </trkpt>
      <trkpt lat="46.5189" lon="5.26197">
        <ele>193.19999694824</ele>
        <time>2021-03-12T12:56:31.000Z</time>
      </trkpt>
      <trkpt lat="46.51884" lon="5.26197">
        <ele>193.39999389648</ele>
        <time>2021-03-12T12:56:32.000Z</time>
      </trkpt>
      <trkpt lat="46.51878" lon="5.26197">
        <ele>193.39999389648</ele>
        <time>2021-03-12T12:56:33.000Z</time>
      </trkpt>
      <trkpt lat="46.51872" lon="5.26196">
        <ele>193.39999389648</ele>
        <time>2021-03-12T12:56:34.000Z</time>
      </trkpt>
      <trkpt lat="46.51867" lon="5.26196">
        <ele>193.60000610352</ele>
        <time>2021-03-12T12:56:35.000Z</time>
      </trkpt>
      <trkpt lat="46.51855" lon="5.26194">
        <ele>193.60000610352</ele>
        <time>2021-03-12T12:56:37.000Z</time>
      </trkpt>
      <trkpt lat="46.51844" lon="5.26192">
        <ele>193.60000610352</ele>
        <time>2021-03-12T12:56:39.000Z</time>
      </trkpt>
      <trkpt lat="46.51833" lon="5.26189">
        <ele>193.80000305176</ele>
        <time>2021-03-12T12:56:41.000Z</time>
      </trkpt>
      <trkpt lat="46.51827" lon="5.26187">
        <ele>193.80000305176</ele>
        <time>2021-03-12T12:56:42.000Z</time>
      </trkpt>
      <trkpt lat="46.51822" lon="5.26184">
        <ele>193.80000305176</ele>
        <time>2021-03-12T12:56:43.000Z</time>
      </trkpt>
      <trkpt lat="46.51811" lon="5.26179">
        <ele>193.80000305176</ele>
        <time>2021-03-12T12:56:45.000Z</time>
      </trkpt>
      <trkpt lat="46.518" lon="5.26174">
        <ele>194</ele>
        <time>2021-03-12T12:56:47.000Z</time>
      </trkpt>
      <trkpt lat="46.51789" lon="5.26167">
        <ele>194</ele>
        <time>2021-03-12T12:56:49.000Z</time>
      </trkpt>
      <trkpt lat="46.51785" lon="5.26164">
        <ele>194</ele>
        <time>2021-03-12T12:56:50.000Z</time>
      </trkpt>
      <trkpt lat="46.5178" lon="5.26161">
        <ele>194</ele>
        <time>2021-03-12T12:56:51.000Z</time>
      </trkpt>
      <trkpt lat="46.5177" lon="5.26155">
        <ele>194.19999694824</ele>
        <time>2021-03-12T12:56:53.000Z</time>
      </trkpt>
      <trkpt lat="46.5176" lon="5.26149">
        <ele>194.19999694824</ele>
        <time>2021-03-12T12:56:55.000Z</time>
      </trkpt>
      <trkpt lat="46.5175" lon="5.26143">
        <ele>194.39999389648</ele>
        <time>2021-03-12T12:56:57.000Z</time>
      </trkpt>
      <trkpt lat="46.5174" lon="5.26138">
        <ele>194.80000305176</ele>
        <time>2021-03-12T12:56:59.000Z</time>
      </trkpt>
      <trkpt lat="46.51735" lon="5.26135">
        <ele>195</ele>
        <time>2021-03-12T12:57:00.000Z</time>
      </trkpt>
      <trkpt lat="46.5173" lon="5.26133">
        <ele>195</ele>
        <time>2021-03-12T12:57:01.000Z</time>
      </trkpt>
      <trkpt lat="46.5172" lon="5.26128">
        <ele>195.19999694824</ele>
        <time>2021-03-12T12:57:03.000Z</time>
      </trkpt>
      <trkpt lat="46.51711" lon="5.26124">
        <ele>195.19999694824</ele>
        <time>2021-03-12T12:57:05.000Z</time>
      </trkpt>
      <trkpt lat="46.51702" lon="5.26119">
        <ele>195.19999694824</ele>
        <time>2021-03-12T12:57:07.000Z</time>
      </trkpt>
      <trkpt lat="46.51694" lon="5.26115">
        <ele>195.19999694824</ele>
        <time>2021-03-12T12:57:09.000Z</time>
      </trkpt>
      <trkpt lat="46.51686" lon="5.26111">
        <ele>195.39999389648</ele>
        <time>2021-03-12T12:57:11.000Z</time>
      </trkpt>
      <trkpt lat="46.51682" lon="5.26109">
        <ele>195.80000305176</ele>
        <time>2021-03-12T12:57:12.000Z</time>
      </trkpt>
      <trkpt lat="46.51678" lon="5.26107">
        <ele>196</ele>
        <time>2021-03-12T12:57:13.000Z</time>
      </trkpt>
      <trkpt lat="46.51674" lon="5.26105">
        <ele>196.39999389648</ele>
        <time>2021-03-12T12:57:14.000Z</time>
      </trkpt>
      <trkpt lat="46.51671" lon="5.26103">
        <ele>196.60000610352</ele>
        <time>2021-03-12T12:57:15.000Z</time>
      </trkpt>
      <trkpt lat="46.51664" lon="5.26099">
        <ele>197</ele>
        <time>2021-03-12T12:57:17.000Z</time>
      </trkpt>
      <trkpt lat="46.51657" lon="5.26095">
        <ele>197.60000610352</ele>
        <time>2021-03-12T12:57:19.000Z</time>
      </trkpt>
      <trkpt lat="46.51653" lon="5.26093">
        <ele>198</ele>
        <time>2021-03-12T12:57:20.000Z</time>
      </trkpt>
      <trkpt lat="46.51649" lon="5.26091">
        <ele>198.39999389648</ele>
        <time>2021-03-12T12:57:21.000Z</time>
      </trkpt>
      <trkpt lat="46.51642" lon="5.26087">
        <ele>199</ele>
        <time>2021-03-12T12:57:23.000Z</time>
      </trkpt>
      <trkpt lat="46.51635" lon="5.26083">
        <ele>199.60000610352</ele>
        <time>2021-03-12T12:57:25.000Z</time>
      </trkpt>
      <trkpt lat="46.51628" lon="5.26079">
        <ele>200.19999694824</ele>
        <time>2021-03-12T12:57:27.000Z</time>
      </trkpt>
      <trkpt lat="46.51621" lon="5.26075">
        <ele>200.80000305176</ele>
        <time>2021-03-12T12:57:29.000Z</time>
      </trkpt>
      <trkpt lat="46.51615" lon="5.26071">
        <ele>201.39999389648</ele>
        <time>2021-03-12T12:57:31.000Z</time>
      </trkpt>
      <trkpt lat="46.51608" lon="5.26068">
        <ele>202</ele>
        <time>2021-03-12T12:57:33.000Z</time>
      </trkpt>
      <trkpt lat="46.51602" lon="5.26064">
        <ele>202.60000610352</ele>
        <time>2021-03-12T12:57:35.000Z</time>
      </trkpt>
      <trkpt lat="46.51595" lon="5.26061">
        <ele>203</ele>
        <time>2021-03-12T12:57:37.000Z</time>
      </trkpt>
      <trkpt lat="46.51589" lon="5.26057">
        <ele>203.39999389648</ele>
        <time>2021-03-12T12:57:39.000Z</time>
      </trkpt>
      <trkpt lat="46.51582" lon="5.26054">
        <ele>204.39999389648</ele>
        <time>2021-03-12T12:57:41.000Z</time>
      </trkpt>
      <trkpt lat="46.51576" lon="5.2605">
        <ele>205</ele>
        <time>2021-03-12T12:57:43.000Z</time>
      </trkpt>
      <trkpt lat="46.51569" lon="5.26047">
        <ele>205.39999389648</ele>
        <time>2021-03-12T12:57:45.000Z</time>
      </trkpt>
      <trkpt lat="46.51566" lon="5.26045">
        <ele>205.60000610352</ele>
        <time>2021-03-12T12:57:46.000Z</time>
      </trkpt>
      <trkpt lat="46.51563" lon="5.26043">
        <ele>205.80000305176</ele>
        <time>2021-03-12T12:57:47.000Z</time>
      </trkpt>
      <trkpt lat="46.51556" lon="5.2604">
        <ele>206.19999694824</ele>
        <time>2021-03-12T12:57:49.000Z</time>
      </trkpt>
      <trkpt lat="46.5155" lon="5.26037">
        <ele>206.80000305176</ele>
        <time>2021-03-12T12:57:51.000Z</time>
      </trkpt>
      <trkpt lat="46.51547" lon="5.26035">
        <ele>207</ele>
        <time>2021-03-12T12:57:52.000Z</time>
      </trkpt>
      <trkpt lat="46.51544" lon="5.26033">
        <ele>207.19999694824</ele>
        <time>2021-03-12T12:57:53.000Z</time>
      </trkpt>
      <trkpt lat="46.51538" lon="5.2603">
        <ele>207.60000610352</ele>
        <time>2021-03-12T12:57:55.000Z</time>
      </trkpt>
      <trkpt lat="46.51531" lon="5.26027">
        <ele>207.80000305176</ele>
        <time>2021-03-12T12:57:57.000Z</time>
      </trkpt>
      <trkpt lat="46.51528" lon="5.26025">
        <ele>208</ele>
        <time>2021-03-12T12:57:58.000Z</time>
      </trkpt>
      <trkpt lat="46.51525" lon="5.26023">
        <ele>208.19999694824</ele>
        <time>2021-03-12T12:57:59.000Z</time>
      </trkpt>
      <trkpt lat="46.51518" lon="5.2602">
        <ele>208.60000610352</ele>
        <time>2021-03-12T12:58:01.000Z</time>
      </trkpt>
      <trkpt lat="46.51511" lon="5.26017">
        <ele>209</ele>
        <time>2021-03-12T12:58:03.000Z</time>
      </trkpt>
      <trkpt lat="46.51507" lon="5.26015">
        <ele>209.19999694824</ele>
        <time>2021-03-12T12:58:04.000Z</time>
      </trkpt>
      <trkpt lat="46.51504" lon="5.26014">
        <ele>209.39999389648</ele>
        <time>2021-03-12T12:58:05.000Z</time>
      </trkpt>
      <trkpt lat="46.51496" lon="5.2601">
        <ele>209.39999389648</ele>
        <time>2021-03-12T12:58:07.000Z</time>
      </trkpt>
      <trkpt lat="46.51488" lon="5.26007">
        <ele>209.60000610352</ele>
        <time>2021-03-12T12:58:09.000Z</time>
      </trkpt>
      <trkpt lat="46.51483" lon="5.26006">
        <ele>209.60000610352</ele>
        <time>2021-03-12T12:58:10.000Z</time>
      </trkpt>
      <trkpt lat="46.51479" lon="5.26004">
        <ele>209.80000305176</ele>
        <time>2021-03-12T12:58:11.000Z</time>
      </trkpt>
      <trkpt lat="46.5147" lon="5.26">
        <ele>210.19999694824</ele>
        <time>2021-03-12T12:58:13.000Z</time>
      </trkpt>
      <trkpt lat="46.51461" lon="5.25996">
        <ele>210.39999389648</ele>
        <time>2021-03-12T12:58:15.000Z</time>
      </trkpt>
      <trkpt lat="46.51452" lon="5.25992">
        <ele>210.39999389648</ele>
        <time>2021-03-12T12:58:17.000Z</time>
      </trkpt>
      <trkpt lat="46.51442" lon="5.25988">
        <ele>210.60000610352</ele>
        <time>2021-03-12T12:58:19.000Z</time>
      </trkpt>
      <trkpt lat="46.51432" lon="5.25984">
        <ele>210.60000610352</ele>
        <time>2021-03-12T12:58:21.000Z</time>
      </trkpt>
      <trkpt lat="46.51422" lon="5.2598">
        <ele>210.60000610352</ele>
        <time>2021-03-12T12:58:23.000Z</time>
      </trkpt>
      <trkpt lat="46.51412" lon="5.25975">
        <ele>210.60000610352</ele>
        <time>2021-03-12T12:58:25.000Z</time>
      </trkpt>
      <trkpt lat="46.51402" lon="5.25971">
        <ele>210.39999389648</ele>
        <time>2021-03-12T12:58:27.000Z</time>
      </trkpt>
      <trkpt lat="46.51392" lon="5.25967">
        <ele>210.39999389648</ele>
        <time>2021-03-12T12:58:29.000Z</time>
      </trkpt>
      <trkpt lat="46.51382" lon="5.25963">
        <ele>210.39999389648</ele>
        <time>2021-03-12T12:58:31.000Z</time>
      </trkpt>
      <trkpt lat="46.51372" lon="5.25959">
        <ele>210.39999389648</ele>
        <time>2021-03-12T12:58:33.000Z</time>
      </trkpt>
      <trkpt lat="46.51362" lon="5.25955">
        <ele>210.39999389648</ele>
        <time>2021-03-12T12:58:35.000Z</time>
      </trkpt>
      <trkpt lat="46.51352" lon="5.2595">
        <ele>210.60000610352</ele>
        <time>2021-03-12T12:58:37.000Z</time>
      </trkpt>
      <trkpt lat="46.51347" lon="5.25948">
        <ele>210.60000610352</ele>
        <time>2021-03-12T12:58:38.000Z</time>
      </trkpt>
      <trkpt lat="46.51342" lon="5.25946">
        <ele>210.60000610352</ele>
        <time>2021-03-12T12:58:39.000Z</time>
      </trkpt>
      <trkpt lat="46.51332" lon="5.25942">
        <ele>210.80000305176</ele>
        <time>2021-03-12T12:58:41.000Z</time>
      </trkpt>
      <trkpt lat="46.51322" lon="5.25938">
        <ele>211</ele>
        <time>2021-03-12T12:58:43.000Z</time>
      </trkpt>
      <trkpt lat="46.51312" lon="5.25934">
        <ele>211</ele>
        <time>2021-03-12T12:58:45.000Z</time>
      </trkpt>
      <trkpt lat="46.51302" lon="5.25929">
        <ele>211.39999389648</ele>
        <time>2021-03-12T12:58:47.000Z</time>
      </trkpt>
      <trkpt lat="46.51296" lon="5.25927">
        <ele>211.39999389648</ele>
        <time>2021-03-12T12:58:48.000Z</time>
      </trkpt>
      <trkpt lat="46.51291" lon="5.25924">
        <ele>211.60000610352</ele>
        <time>2021-03-12T12:58:49.000Z</time>
      </trkpt>
      <trkpt lat="46.51279" lon="5.25919">
        <ele>211.60000610352</ele>
        <time>2021-03-12T12:58:51.000Z</time>
      </trkpt>
      <trkpt lat="46.51267" lon="5.25914">
        <ele>211.80000305176</ele>
        <time>2021-03-12T12:58:53.000Z</time>
      </trkpt>
      <trkpt lat="46.51261" lon="5.25912">
        <ele>211.80000305176</ele>
        <time>2021-03-12T12:58:54.000Z</time>
      </trkpt>
      <trkpt lat="46.51254" lon="5.25909">
        <ele>211.80000305176</ele>
        <time>2021-03-12T12:58:55.000Z</time>
      </trkpt>
      <trkpt lat="46.51242" lon="5.25903">
        <ele>211.80000305176</ele>
        <time>2021-03-12T12:58:57.000Z</time>
      </trkpt>
      <trkpt lat="46.51229" lon="5.25895">
        <ele>211.80000305176</ele>
        <time>2021-03-12T12:58:59.000Z</time>
      </trkpt>
      <trkpt lat="46.51223" lon="5.25891">
        <ele>211.80000305176</ele>
        <time>2021-03-12T12:59:00.000Z</time>
      </trkpt>
      <trkpt lat="46.51218" lon="5.25886">
        <ele>211.60000610352</ele>
        <time>2021-03-12T12:59:01.000Z</time>
      </trkpt>
      <trkpt lat="46.51213" lon="5.25881">
        <ele>211.60000610352</ele>
        <time>2021-03-12T12:59:02.000Z</time>
      </trkpt>
      <trkpt lat="46.51208" lon="5.25876">
        <ele>211.39999389648</ele>
        <time>2021-03-12T12:59:03.000Z</time>
      </trkpt>
      <trkpt lat="46.51198" lon="5.25865">
        <ele>211.19999694824</ele>
        <time>2021-03-12T12:59:05.000Z</time>
      </trkpt>
      <trkpt lat="46.51189" lon="5.25854">
        <ele>211</ele>
        <time>2021-03-12T12:59:07.000Z</time>
      </trkpt>
      <trkpt lat="46.5118" lon="5.25844">
        <ele>211</ele>
        <time>2021-03-12T12:59:09.000Z</time>
      </trkpt>
      <trkpt lat="46.51171" lon="5.25835">
        <ele>211</ele>
        <time>2021-03-12T12:59:11.000Z</time>
      </trkpt>
      <trkpt lat="46.51166" lon="5.2583">
        <ele>211</ele>
        <time>2021-03-12T12:59:12.000Z</time>
      </trkpt>
      <trkpt lat="46.51162" lon="5.25825">
        <ele>211</ele>
        <time>2021-03-12T12:59:13.000Z</time>
      </trkpt>
      <trkpt lat="46.51153" lon="5.25815">
        <ele>211.39999389648</ele>
        <time>2021-03-12T12:59:15.000Z</time>
      </trkpt>
      <trkpt lat="46.51143" lon="5.25805">
        <ele>211.80000305176</ele>
        <time>2021-03-12T12:59:17.000Z</time>
      </trkpt>
      <trkpt lat="46.51134" lon="5.25795">
        <ele>211.80000305176</ele>
        <time>2021-03-12T12:59:19.000Z</time>
      </trkpt>
      <trkpt lat="46.51124" lon="5.25785">
        <ele>212</ele>
        <time>2021-03-12T12:59:21.000Z</time>
      </trkpt>
      <trkpt lat="46.51114" lon="5.25776">
        <ele>212</ele>
        <time>2021-03-12T12:59:23.000Z</time>
      </trkpt>
      <trkpt lat="46.51104" lon="5.25767">
        <ele>212</ele>
        <time>2021-03-12T12:59:25.000Z</time>
      </trkpt>
      <trkpt lat="46.51095" lon="5.25759">
        <ele>212</ele>
        <time>2021-03-12T12:59:27.000Z</time>
      </trkpt>
      <trkpt lat="46.51085" lon="5.2575">
        <ele>212</ele>
        <time>2021-03-12T12:59:29.000Z</time>
      </trkpt>
      <trkpt lat="46.51075" lon="5.25742">
        <ele>212</ele>
        <time>2021-03-12T12:59:31.000Z</time>
      </trkpt>
      <trkpt lat="46.51065" lon="5.25734">
        <ele>212</ele>
        <time>2021-03-12T12:59:33.000Z</time>
      </trkpt>
      <trkpt lat="46.5106" lon="5.2573">
        <ele>212</ele>
        <time>2021-03-12T12:59:34.000Z</time>
      </trkpt>
      <trkpt lat="46.51055" lon="5.25726">
        <ele>212</ele>
        <time>2021-03-12T12:59:35.000Z</time>
      </trkpt>
      <trkpt lat="46.51045" lon="5.25718">
        <ele>212</ele>
        <time>2021-03-12T12:59:37.000Z</time>
      </trkpt>
      <trkpt lat="46.51035" lon="5.25709">
        <ele>212</ele>
        <time>2021-03-12T12:59:39.000Z</time>
      </trkpt>
      <trkpt lat="46.51026" lon="5.25701">
        <ele>212.19999694824</ele>
        <time>2021-03-12T12:59:41.000Z</time>
      </trkpt>
      <trkpt lat="46.51016" lon="5.25693">
        <ele>212.19999694824</ele>
        <time>2021-03-12T12:59:43.000Z</time>
      </trkpt>
      <trkpt lat="46.51006" lon="5.25687">
        <ele>212.19999694824</ele>
        <time>2021-03-12T12:59:45.000Z</time>
      </trkpt>
      <trkpt lat="46.50996" lon="5.25681">
        <ele>212.19999694824</ele>
        <time>2021-03-12T12:59:47.000Z</time>
      </trkpt>
      <trkpt lat="46.50991" lon="5.25678">
        <ele>212.19999694824</ele>
        <time>2021-03-12T12:59:48.000Z</time>
      </trkpt>
      <trkpt lat="46.50987" lon="5.25676">
        <ele>212.39999389648</ele>
        <time>2021-03-12T12:59:49.000Z</time>
      </trkpt>
      <trkpt lat="46.50976" lon="5.25671">
        <ele>212.39999389648</ele>
        <time>2021-03-12T12:59:51.000Z</time>
      </trkpt>
      <trkpt lat="46.50965" lon="5.25666">
        <ele>212.60000610352</ele>
        <time>2021-03-12T12:59:53.000Z</time>
      </trkpt>
      <trkpt lat="46.50954" lon="5.25662">
        <ele>212.80000305176</ele>
        <time>2021-03-12T12:59:55.000Z</time>
      </trkpt>
      <trkpt lat="46.50944" lon="5.25657">
        <ele>212.80000305176</ele>
        <time>2021-03-12T12:59:57.000Z</time>
      </trkpt>
      <trkpt lat="46.50938" lon="5.25655">
        <ele>212.80000305176</ele>
        <time>2021-03-12T12:59:58.000Z</time>
      </trkpt>
      <trkpt lat="46.50933" lon="5.25652">
        <ele>212.80000305176</ele>
        <time>2021-03-12T12:59:59.000Z</time>
      </trkpt>
      <trkpt lat="46.50921" lon="5.25647">
        <ele>213</ele>
        <time>2021-03-12T13:00:01.000Z</time>
      </trkpt>
      <trkpt lat="46.5091" lon="5.25642">
        <ele>213</ele>
        <time>2021-03-12T13:00:03.000Z</time>
      </trkpt>
      <trkpt lat="46.50897" lon="5.25636">
        <ele>213</ele>
        <time>2021-03-12T13:00:05.000Z</time>
      </trkpt>
      <trkpt lat="46.50885" lon="5.25631">
        <ele>213</ele>
        <time>2021-03-12T13:00:07.000Z</time>
      </trkpt>
      <trkpt lat="46.50872" lon="5.25625">
        <ele>212.80000305176</ele>
        <time>2021-03-12T13:00:09.000Z</time>
      </trkpt>
      <trkpt lat="46.5086" lon="5.25619">
        <ele>212.80000305176</ele>
        <time>2021-03-12T13:00:11.000Z</time>
      </trkpt>
      <trkpt lat="46.50847" lon="5.25611">
        <ele>212.80000305176</ele>
        <time>2021-03-12T13:00:13.000Z</time>
      </trkpt>
      <trkpt lat="46.50841" lon="5.25607">
        <ele>212.60000610352</ele>
        <time>2021-03-12T13:00:14.000Z</time>
      </trkpt>
      <trkpt lat="46.50835" lon="5.25601">
        <ele>212.39999389648</ele>
        <time>2021-03-12T13:00:15.000Z</time>
      </trkpt>
      <trkpt lat="46.50823" lon="5.2559">
        <ele>212.19999694824</ele>
        <time>2021-03-12T13:00:17.000Z</time>
      </trkpt>
      <trkpt lat="46.50811" lon="5.25578">
        <ele>211.60000610352</ele>
        <time>2021-03-12T13:00:19.000Z</time>
      </trkpt>
      <trkpt lat="46.50805" lon="5.25571">
        <ele>211</ele>
        <time>2021-03-12T13:00:20.000Z</time>
      </trkpt>
      <trkpt lat="46.50798" lon="5.25565">
        <ele>210.39999389648</ele>
        <time>2021-03-12T13:00:21.000Z</time>
      </trkpt>
      <trkpt lat="46.50785" lon="5.25551">
        <ele>210</ele>
        <time>2021-03-12T13:00:23.000Z</time>
      </trkpt>
      <trkpt lat="46.50772" lon="5.25537">
        <ele>210</ele>
        <time>2021-03-12T13:00:25.000Z</time>
      </trkpt>
      <trkpt lat="46.50759" lon="5.25524">
        <ele>209.80000305176</ele>
        <time>2021-03-12T13:00:27.000Z</time>
      </trkpt>
      <trkpt lat="46.50746" lon="5.2551">
        <ele>209.60000610352</ele>
        <time>2021-03-12T13:00:29.000Z</time>
      </trkpt>
      <trkpt lat="46.50733" lon="5.25498">
        <ele>208.60000610352</ele>
        <time>2021-03-12T13:00:31.000Z</time>
      </trkpt>
      <trkpt lat="46.50719" lon="5.25486">
        <ele>208.19999694824</ele>
        <time>2021-03-12T13:00:33.000Z</time>
      </trkpt>
      <trkpt lat="46.50705" lon="5.25476">
        <ele>207.80000305176</ele>
        <time>2021-03-12T13:00:35.000Z</time>
      </trkpt>
      <trkpt lat="46.50699" lon="5.25472">
        <ele>207.80000305176</ele>
        <time>2021-03-12T13:00:36.000Z</time>
      </trkpt>
      <trkpt lat="46.50692" lon="5.25469">
        <ele>207.80000305176</ele>
        <time>2021-03-12T13:00:37.000Z</time>
      </trkpt>
      <trkpt lat="46.50678" lon="5.25463">
        <ele>207.80000305176</ele>
        <time>2021-03-12T13:00:39.000Z</time>
      </trkpt>
      <trkpt lat="46.50665" lon="5.25459">
        <ele>207.80000305176</ele>
        <time>2021-03-12T13:00:41.000Z</time>
      </trkpt>
      <trkpt lat="46.50658" lon="5.25458">
        <ele>207.80000305176</ele>
        <time>2021-03-12T13:00:42.000Z</time>
      </trkpt>
      <trkpt lat="46.50651" lon="5.25456">
        <ele>207.80000305176</ele>
        <time>2021-03-12T13:00:43.000Z</time>
      </trkpt>
      <trkpt lat="46.50637" lon="5.25453">
        <ele>208</ele>
        <time>2021-03-12T13:00:45.000Z</time>
      </trkpt>
      <trkpt lat="46.50624" lon="5.25449">
        <ele>208</ele>
        <time>2021-03-12T13:00:47.000Z</time>
      </trkpt>
      <trkpt lat="46.50611" lon="5.25446">
        <ele>208.19999694824</ele>
        <time>2021-03-12T13:00:49.000Z</time>
      </trkpt>
      <trkpt lat="46.50598" lon="5.25443">
        <ele>208.39999389648</ele>
        <time>2021-03-12T13:00:51.000Z</time>
      </trkpt>
      <trkpt lat="46.50585" lon="5.25439">
        <ele>208.80000305176</ele>
        <time>2021-03-12T13:00:53.000Z</time>
      </trkpt>
      <trkpt lat="46.50574" lon="5.25434">
        <ele>209.19999694824</ele>
        <time>2021-03-12T13:00:55.000Z</time>
      </trkpt>
      <trkpt lat="46.50562" lon="5.2543">
        <ele>210</ele>
        <time>2021-03-12T13:00:57.000Z</time>
      </trkpt>
      <trkpt lat="46.50555" lon="5.25428">
        <ele>210.19999694824</ele>
        <time>2021-03-12T13:00:58.000Z</time>
      </trkpt>
      <trkpt lat="46.50549" lon="5.25426">
        <ele>210.39999389648</ele>
        <time>2021-03-12T13:00:59.000Z</time>
      </trkpt>
      <trkpt lat="46.50535" lon="5.25422">
        <ele>210.60000610352</ele>
        <time>2021-03-12T13:01:01.000Z</time>
      </trkpt>
      <trkpt lat="46.50521" lon="5.25419">
        <ele>210.60000610352</ele>
        <time>2021-03-12T13:01:03.000Z</time>
      </trkpt>
      <trkpt lat="46.50507" lon="5.25415">
        <ele>210.60000610352</ele>
        <time>2021-03-12T13:01:05.000Z</time>
      </trkpt>
      <trkpt lat="46.50493" lon="5.25411">
        <ele>210.60000610352</ele>
        <time>2021-03-12T13:01:07.000Z</time>
      </trkpt>
      <trkpt lat="46.50477" lon="5.25407">
        <ele>210.60000610352</ele>
        <time>2021-03-12T13:01:09.000Z</time>
      </trkpt>
      <trkpt lat="46.50462" lon="5.25403">
        <ele>210.39999389648</ele>
        <time>2021-03-12T13:01:11.000Z</time>
      </trkpt>
      <trkpt lat="46.50445" lon="5.254">
        <ele>210.19999694824</ele>
        <time>2021-03-12T13:01:13.000Z</time>
      </trkpt>
      <trkpt lat="46.50429" lon="5.25397">
        <ele>210</ele>
        <time>2021-03-12T13:01:15.000Z</time>
      </trkpt>
      <trkpt lat="46.50413" lon="5.25395">
        <ele>209.39999389648</ele>
        <time>2021-03-12T13:01:17.000Z</time>
      </trkpt>
      <trkpt lat="46.50397" lon="5.25395">
        <ele>208.60000610352</ele>
        <time>2021-03-12T13:01:19.000Z</time>
      </trkpt>
      <trkpt lat="46.50381" lon="5.25398">
        <ele>207.80000305176</ele>
        <time>2021-03-12T13:01:21.000Z</time>
      </trkpt>
      <trkpt lat="46.50373" lon="5.25399">
        <ele>207.60000610352</ele>
        <time>2021-03-12T13:01:22.000Z</time>
      </trkpt>
      <trkpt lat="46.50366" lon="5.25401">
        <ele>207.39999389648</ele>
        <time>2021-03-12T13:01:23.000Z</time>
      </trkpt>
      <trkpt lat="46.50351" lon="5.25405">
        <ele>207</ele>
        <time>2021-03-12T13:01:25.000Z</time>
      </trkpt>
      <trkpt lat="46.50336" lon="5.2541">
        <ele>206.80000305176</ele>
        <time>2021-03-12T13:01:27.000Z</time>
      </trkpt>
      <trkpt lat="46.50321" lon="5.25414">
        <ele>206.60000610352</ele>
        <time>2021-03-12T13:01:29.000Z</time>
      </trkpt>
      <trkpt lat="46.50307" lon="5.25419">
        <ele>206.60000610352</ele>
        <time>2021-03-12T13:01:31.000Z</time>
      </trkpt>
      <trkpt lat="46.50293" lon="5.25423">
        <ele>206.39999389648</ele>
        <time>2021-03-12T13:01:33.000Z</time>
      </trkpt>
      <trkpt lat="46.50277" lon="5.25428">
        <ele>206.19999694824</ele>
        <time>2021-03-12T13:01:35.000Z</time>
      </trkpt>
      <trkpt lat="46.50262" lon="5.25433">
        <ele>206.19999694824</ele>
        <time>2021-03-12T13:01:37.000Z</time>
      </trkpt>
      <trkpt lat="46.50246" lon="5.25439">
        <ele>206</ele>
        <time>2021-03-12T13:01:39.000Z</time>
      </trkpt>
      <trkpt lat="46.50231" lon="5.25444">
        <ele>205.80000305176</ele>
        <time>2021-03-12T13:01:41.000Z</time>
      </trkpt>
      <trkpt lat="46.50223" lon="5.25446">
        <ele>205.60000610352</ele>
        <time>2021-03-12T13:01:42.000Z</time>
      </trkpt>
      <trkpt lat="46.50216" lon="5.25448">
        <ele>205.19999694824</ele>
        <time>2021-03-12T13:01:43.000Z</time>
      </trkpt>
      <trkpt lat="46.50201" lon="5.25452">
        <ele>204.39999389648</ele>
        <time>2021-03-12T13:01:45.000Z</time>
      </trkpt>
      <trkpt lat="46.50187" lon="5.25456">
        <ele>203.80000305176</ele>
        <time>2021-03-12T13:01:47.000Z</time>
      </trkpt>
      <trkpt lat="46.50172" lon="5.25461">
        <ele>203.60000610352</ele>
        <time>2021-03-12T13:01:49.000Z</time>
      </trkpt>
      <trkpt lat="46.50165" lon="5.25463">
        <ele>203.39999389648</ele>
        <time>2021-03-12T13:01:50.000Z</time>
      </trkpt>
      <trkpt lat="46.50158" lon="5.25466">
        <ele>203.39999389648</ele>
        <time>2021-03-12T13:01:51.000Z</time>
      </trkpt>
      <trkpt lat="46.50144" lon="5.2547">
        <ele>203.19999694824</ele>
        <time>2021-03-12T13:01:53.000Z</time>
      </trkpt>
      <trkpt lat="46.5013" lon="5.25474">
        <ele>203.19999694824</ele>
        <time>2021-03-12T13:01:55.000Z</time>
      </trkpt>
      <trkpt lat="46.50116" lon="5.25479">
        <ele>203.19999694824</ele>
        <time>2021-03-12T13:01:57.000Z</time>
      </trkpt>
      <trkpt lat="46.50103" lon="5.25483">
        <ele>203.19999694824</ele>
        <time>2021-03-12T13:01:59.000Z</time>
      </trkpt>
      <trkpt lat="46.50089" lon="5.25488">
        <ele>203</ele>
        <time>2021-03-12T13:02:01.000Z</time>
      </trkpt>
      <trkpt lat="46.50076" lon="5.25492">
        <ele>203</ele>
        <time>2021-03-12T13:02:03.000Z</time>
      </trkpt>
      <trkpt lat="46.50064" lon="5.25496">
        <ele>203</ele>
        <time>2021-03-12T13:02:05.000Z</time>
      </trkpt>
      <trkpt lat="46.50051" lon="5.255">
        <ele>202.80000305176</ele>
        <time>2021-03-12T13:02:07.000Z</time>
      </trkpt>
      <trkpt lat="46.50039" lon="5.25504">
        <ele>202.80000305176</ele>
        <time>2021-03-12T13:02:09.000Z</time>
      </trkpt>
      <trkpt lat="46.50033" lon="5.25506">
        <ele>202.80000305176</ele>
        <time>2021-03-12T13:02:10.000Z</time>
      </trkpt>
      <trkpt lat="46.50026" lon="5.25508">
        <ele>202.80000305176</ele>
        <time>2021-03-12T13:02:11.000Z</time>
      </trkpt>
      <trkpt lat="46.50014" lon="5.25512">
        <ele>202.80000305176</ele>
        <time>2021-03-12T13:02:13.000Z</time>
      </trkpt>
      <trkpt lat="46.50003" lon="5.25516">
        <ele>202.80000305176</ele>
        <time>2021-03-12T13:02:15.000Z</time>
      </trkpt>
      <trkpt lat="46.49991" lon="5.2552">
        <ele>202.60000610352</ele>
        <time>2021-03-12T13:02:17.000Z</time>
      </trkpt>
      <trkpt lat="46.49985" lon="5.25522">
        <ele>202.60000610352</ele>
        <time>2021-03-12T13:02:18.000Z</time>
      </trkpt>
      <trkpt lat="46.49979" lon="5.25524">
        <ele>202.80000305176</ele>
        <time>2021-03-12T13:02:19.000Z</time>
      </trkpt>
      <trkpt lat="46.49967" lon="5.25528">
        <ele>202.80000305176</ele>
        <time>2021-03-12T13:02:21.000Z</time>
      </trkpt>
      <trkpt lat="46.49955" lon="5.25531">
        <ele>203</ele>
        <time>2021-03-12T13:02:23.000Z</time>
      </trkpt>
      <trkpt lat="46.49943" lon="5.25533">
        <ele>203.19999694824</ele>
        <time>2021-03-12T13:02:25.000Z</time>
      </trkpt>
      <trkpt lat="46.49931" lon="5.25532">
        <ele>203.19999694824</ele>
        <time>2021-03-12T13:02:27.000Z</time>
      </trkpt>
      <trkpt lat="46.49918" lon="5.2553">
        <ele>203.19999694824</ele>
        <time>2021-03-12T13:02:29.000Z</time>
      </trkpt>
      <trkpt lat="46.49906" lon="5.25526">
        <ele>203.39999389648</ele>
        <time>2021-03-12T13:02:31.000Z</time>
      </trkpt>
      <trkpt lat="46.49894" lon="5.25522">
        <ele>203.39999389648</ele>
        <time>2021-03-12T13:02:33.000Z</time>
      </trkpt>
      <trkpt lat="46.49882" lon="5.25516">
        <ele>203.39999389648</ele>
        <time>2021-03-12T13:02:35.000Z</time>
      </trkpt>
      <trkpt lat="46.4987" lon="5.25511">
        <ele>203.60000610352</ele>
        <time>2021-03-12T13:02:37.000Z</time>
      </trkpt>
      <trkpt lat="46.49857" lon="5.25506">
        <ele>203.60000610352</ele>
        <time>2021-03-12T13:02:39.000Z</time>
      </trkpt>
      <trkpt lat="46.49844" lon="5.255">
        <ele>203.60000610352</ele>
        <time>2021-03-12T13:02:41.000Z</time>
      </trkpt>
      <trkpt lat="46.49838" lon="5.25498">
        <ele>203.60000610352</ele>
        <time>2021-03-12T13:02:42.000Z</time>
      </trkpt>
      <trkpt lat="46.49832" lon="5.25495">
        <ele>203.60000610352</ele>
        <time>2021-03-12T13:02:43.000Z</time>
      </trkpt>
      <trkpt lat="46.49819" lon="5.2549">
        <ele>203.60000610352</ele>
        <time>2021-03-12T13:02:45.000Z</time>
      </trkpt>
      <trkpt lat="46.49805" lon="5.25485">
        <ele>203.60000610352</ele>
        <time>2021-03-12T13:02:47.000Z</time>
      </trkpt>
      <trkpt lat="46.49791" lon="5.2548">
        <ele>203.39999389648</ele>
        <time>2021-03-12T13:02:49.000Z</time>
      </trkpt>
      <trkpt lat="46.49777" lon="5.25474">
        <ele>203.19999694824</ele>
        <time>2021-03-12T13:02:51.000Z</time>
      </trkpt>
      <trkpt lat="46.49764" lon="5.25468">
        <ele>202.80000305176</ele>
        <time>2021-03-12T13:02:53.000Z</time>
      </trkpt>
      <trkpt lat="46.49752" lon="5.2546">
        <ele>202.60000610352</ele>
        <time>2021-03-12T13:02:55.000Z</time>
      </trkpt>
      <trkpt lat="46.49742" lon="5.25452">
        <ele>202.60000610352</ele>
        <time>2021-03-12T13:02:57.000Z</time>
      </trkpt>
      <trkpt lat="46.49734" lon="5.25443">
        <ele>202.60000610352</ele>
        <time>2021-03-12T13:02:59.000Z</time>
      </trkpt>
      <trkpt lat="46.49727" lon="5.25434">
        <ele>202.60000610352</ele>
        <time>2021-03-12T13:03:01.000Z</time>
      </trkpt>
      <trkpt lat="46.49724" lon="5.2543">
        <ele>202.60000610352</ele>
        <time>2021-03-12T13:03:02.000Z</time>
      </trkpt>
      <trkpt lat="46.49721" lon="5.25426">
        <ele>202.60000610352</ele>
        <time>2021-03-12T13:03:03.000Z</time>
      </trkpt>
      <trkpt lat="46.49715" lon="5.25418">
        <ele>203</ele>
        <time>2021-03-12T13:03:05.000Z</time>
      </trkpt>
      <trkpt lat="46.49709" lon="5.25411">
        <ele>204</ele>
        <time>2021-03-12T13:03:07.000Z</time>
      </trkpt>
      <trkpt lat="46.49706" lon="5.25407">
        <ele>204.39999389648</ele>
        <time>2021-03-12T13:03:08.000Z</time>
      </trkpt>
      <trkpt lat="46.49703" lon="5.25405">
        <ele>205</ele>
        <time>2021-03-12T13:03:09.000Z</time>
      </trkpt>
      <trkpt lat="46.49697" lon="5.25399">
        <ele>205.60000610352</ele>
        <time>2021-03-12T13:03:11.000Z</time>
      </trkpt>
      <trkpt lat="46.49691" lon="5.25392">
        <ele>206.19999694824</ele>
        <time>2021-03-12T13:03:13.000Z</time>
      </trkpt>
      <trkpt lat="46.49688" lon="5.25389">
        <ele>206.80000305176</ele>
        <time>2021-03-12T13:03:14.000Z</time>
      </trkpt>
      <trkpt lat="46.49685" lon="5.25387">
        <ele>207.19999694824</ele>
        <time>2021-03-12T13:03:15.000Z</time>
      </trkpt>
      <trkpt lat="46.49682" lon="5.25384">
        <ele>207.80000305176</ele>
        <time>2021-03-12T13:03:16.000Z</time>
      </trkpt>
      <trkpt lat="46.49679" lon="5.25382">
        <ele>208.19999694824</ele>
        <time>2021-03-12T13:03:17.000Z</time>
      </trkpt>
      <trkpt lat="46.49672" lon="5.25377">
        <ele>209</ele>
        <time>2021-03-12T13:03:19.000Z</time>
      </trkpt>
      <trkpt lat="46.49669" lon="5.25374">
        <ele>209.60000610352</ele>
        <time>2021-03-12T13:03:20.000Z</time>
      </trkpt>
      <trkpt lat="46.49667" lon="5.25372">
        <ele>210</ele>
        <time>2021-03-12T13:03:21.000Z</time>
      </trkpt>
      <trkpt lat="46.49664" lon="5.2537">
        <ele>210.19999694824</ele>
        <time>2021-03-12T13:03:22.000Z</time>
      </trkpt>
      <trkpt lat="46.49662" lon="5.25368">
        <ele>210.39999389648</ele>
        <time>2021-03-12T13:03:23.000Z</time>
      </trkpt>
      <trkpt lat="46.49655" lon="5.25365">
        <ele>210.80000305176</ele>
        <time>2021-03-12T13:03:25.000Z</time>
      </trkpt>
      <trkpt lat="46.49648" lon="5.25363">
        <ele>211.39999389648</ele>
        <time>2021-03-12T13:03:27.000Z</time>
      </trkpt>
      <trkpt lat="46.49641" lon="5.2536">
        <ele>212.60000610352</ele>
        <time>2021-03-12T13:03:29.000Z</time>
      </trkpt>
      <trkpt lat="46.49633" lon="5.25358">
        <ele>213.19999694824</ele>
        <time>2021-03-12T13:03:31.000Z</time>
      </trkpt>
      <trkpt lat="46.49628" lon="5.25357">
        <ele>213.60000610352</ele>
        <time>2021-03-12T13:03:32.000Z</time>
      </trkpt>
      <trkpt lat="46.49624" lon="5.25356">
        <ele>213.80000305176</ele>
        <time>2021-03-12T13:03:33.000Z</time>
      </trkpt>
      <trkpt lat="46.49615" lon="5.25354">
        <ele>214.19999694824</ele>
        <time>2021-03-12T13:03:35.000Z</time>
      </trkpt>
      <trkpt lat="46.49607" lon="5.2535">
        <ele>214.60000610352</ele>
        <time>2021-03-12T13:03:37.000Z</time>
      </trkpt>
      <trkpt lat="46.49599" lon="5.25348">
        <ele>214.80000305176</ele>
        <time>2021-03-12T13:03:39.000Z</time>
      </trkpt>
      <trkpt lat="46.4959" lon="5.25346">
        <ele>215</ele>
        <time>2021-03-12T13:03:41.000Z</time>
      </trkpt>
      <trkpt lat="46.49581" lon="5.25343">
        <ele>215.19999694824</ele>
        <time>2021-03-12T13:03:43.000Z</time>
      </trkpt>
      <trkpt lat="46.49572" lon="5.25341">
        <ele>215.19999694824</ele>
        <time>2021-03-12T13:03:45.000Z</time>
      </trkpt>
      <trkpt lat="46.49562" lon="5.2534">
        <ele>215.19999694824</ele>
        <time>2021-03-12T13:03:47.000Z</time>
      </trkpt>
      <trkpt lat="46.49557" lon="5.25339">
        <ele>215.19999694824</ele>
        <time>2021-03-12T13:03:48.000Z</time>
      </trkpt>
      <trkpt lat="46.49552" lon="5.25339">
        <ele>215.39999389648</ele>
        <time>2021-03-12T13:03:49.000Z</time>
      </trkpt>
      <trkpt lat="46.49542" lon="5.25336">
        <ele>215.60000610352</ele>
        <time>2021-03-12T13:03:51.000Z</time>
      </trkpt>
      <trkpt lat="46.49532" lon="5.25334">
        <ele>215.80000305176</ele>
        <time>2021-03-12T13:03:53.000Z</time>
      </trkpt>
      <trkpt lat="46.49521" lon="5.25332">
        <ele>215.80000305176</ele>
        <time>2021-03-12T13:03:55.000Z</time>
      </trkpt>
      <trkpt lat="46.49509" lon="5.2533">
        <ele>216</ele>
        <time>2021-03-12T13:03:57.000Z</time>
      </trkpt>
      <trkpt lat="46.49498" lon="5.25328">
        <ele>216</ele>
        <time>2021-03-12T13:03:59.000Z</time>
      </trkpt>
      <trkpt lat="46.49487" lon="5.25325">
        <ele>216</ele>
        <time>2021-03-12T13:04:01.000Z</time>
      </trkpt>
      <trkpt lat="46.49475" lon="5.25323">
        <ele>216</ele>
        <time>2021-03-12T13:04:03.000Z</time>
      </trkpt>
      <trkpt lat="46.49463" lon="5.2532">
        <ele>216</ele>
        <time>2021-03-12T13:04:05.000Z</time>
      </trkpt>
      <trkpt lat="46.49451" lon="5.25317">
        <ele>215.80000305176</ele>
        <time>2021-03-12T13:04:07.000Z</time>
      </trkpt>
      <trkpt lat="46.49438" lon="5.25315">
        <ele>215.60000610352</ele>
        <time>2021-03-12T13:04:09.000Z</time>
      </trkpt>
      <trkpt lat="46.49426" lon="5.25312">
        <ele>215.19999694824</ele>
        <time>2021-03-12T13:04:11.000Z</time>
      </trkpt>
      <trkpt lat="46.4942" lon="5.2531">
        <ele>215.19999694824</ele>
        <time>2021-03-12T13:04:12.000Z</time>
      </trkpt>
      <trkpt lat="46.49413" lon="5.25309">
        <ele>215</ele>
        <time>2021-03-12T13:04:13.000Z</time>
      </trkpt>
      <trkpt lat="46.49405" lon="5.25309">
        <ele>214.80000305176</ele>
        <time>2021-03-12T13:04:14.000Z</time>
      </trkpt>
      <trkpt lat="46.49398" lon="5.25307">
        <ele>214.80000305176</ele>
        <time>2021-03-12T13:04:15.000Z</time>
      </trkpt>
      <trkpt lat="46.49384" lon="5.25304">
        <ele>214.39999389648</ele>
        <time>2021-03-12T13:04:17.000Z</time>
      </trkpt>
      <trkpt lat="46.49377" lon="5.25301">
        <ele>214.19999694824</ele>
        <time>2021-03-12T13:04:18.000Z</time>
      </trkpt>
      <trkpt lat="46.4937" lon="5.25298">
        <ele>214.19999694824</ele>
        <time>2021-03-12T13:04:19.000Z</time>
      </trkpt>
      <trkpt lat="46.49357" lon="5.25292">
        <ele>214.19999694824</ele>
        <time>2021-03-12T13:04:21.000Z</time>
      </trkpt>
      <trkpt lat="46.49344" lon="5.25284">
        <ele>214.19999694824</ele>
        <time>2021-03-12T13:04:23.000Z</time>
      </trkpt>
      <trkpt lat="46.49331" lon="5.25276">
        <ele>214.19999694824</ele>
        <time>2021-03-12T13:04:25.000Z</time>
      </trkpt>
      <trkpt lat="46.49319" lon="5.25268">
        <ele>214.19999694824</ele>
        <time>2021-03-12T13:04:27.000Z</time>
      </trkpt>
      <trkpt lat="46.49307" lon="5.2526">
        <ele>214.39999389648</ele>
        <time>2021-03-12T13:04:29.000Z</time>
      </trkpt>
      <trkpt lat="46.49295" lon="5.25252">
        <ele>214.39999389648</ele>
        <time>2021-03-12T13:04:31.000Z</time>
      </trkpt>
      <trkpt lat="46.49284" lon="5.25244">
        <ele>214.60000610352</ele>
        <time>2021-03-12T13:04:33.000Z</time>
      </trkpt>
      <trkpt lat="46.49273" lon="5.25235">
        <ele>214.60000610352</ele>
        <time>2021-03-12T13:04:35.000Z</time>
      </trkpt>
      <trkpt lat="46.49262" lon="5.25226">
        <ele>214.60000610352</ele>
        <time>2021-03-12T13:04:37.000Z</time>
      </trkpt>
      <trkpt lat="46.49251" lon="5.25217">
        <ele>214.80000305176</ele>
        <time>2021-03-12T13:04:39.000Z</time>
      </trkpt>
      <trkpt lat="46.49241" lon="5.25208">
        <ele>214.80000305176</ele>
        <time>2021-03-12T13:04:41.000Z</time>
      </trkpt>
      <trkpt lat="46.49236" lon="5.25203">
        <ele>214.80000305176</ele>
        <time>2021-03-12T13:04:42.000Z</time>
      </trkpt>
      <trkpt lat="46.49231" lon="5.25198">
        <ele>214.80000305176</ele>
        <time>2021-03-12T13:04:43.000Z</time>
      </trkpt>
      <trkpt lat="46.49221" lon="5.25189">
        <ele>214.80000305176</ele>
        <time>2021-03-12T13:04:45.000Z</time>
      </trkpt>
      <trkpt lat="46.4921" lon="5.25179">
        <ele>214.60000610352</ele>
        <time>2021-03-12T13:04:47.000Z</time>
      </trkpt>
      <trkpt lat="46.49198" lon="5.25171">
        <ele>214.60000610352</ele>
        <time>2021-03-12T13:04:49.000Z</time>
      </trkpt>
      <trkpt lat="46.49193" lon="5.25166">
        <ele>214.60000610352</ele>
        <time>2021-03-12T13:04:50.000Z</time>
      </trkpt>
      <trkpt lat="46.49187" lon="5.25162">
        <ele>214.60000610352</ele>
        <time>2021-03-12T13:04:51.000Z</time>
      </trkpt>
      <trkpt lat="46.49176" lon="5.25153">
        <ele>214.39999389648</ele>
        <time>2021-03-12T13:04:53.000Z</time>
      </trkpt>
      <trkpt lat="46.49164" lon="5.25142">
        <ele>214.19999694824</ele>
        <time>2021-03-12T13:04:55.000Z</time>
      </trkpt>
      <trkpt lat="46.49159" lon="5.25136">
        <ele>214</ele>
        <time>2021-03-12T13:04:56.000Z</time>
      </trkpt>
      <trkpt lat="46.49154" lon="5.2513">
        <ele>214</ele>
        <time>2021-03-12T13:04:57.000Z</time>
      </trkpt>
      <trkpt lat="46.49144" lon="5.25117">
        <ele>214</ele>
        <time>2021-03-12T13:04:59.000Z</time>
      </trkpt>
      <trkpt lat="46.49135" lon="5.25103">
        <ele>214</ele>
        <time>2021-03-12T13:05:01.000Z</time>
      </trkpt>
      <trkpt lat="46.49131" lon="5.25096">
        <ele>213.80000305176</ele>
        <time>2021-03-12T13:05:02.000Z</time>
      </trkpt>
      <trkpt lat="46.49127" lon="5.25089">
        <ele>213.60000610352</ele>
        <time>2021-03-12T13:05:03.000Z</time>
      </trkpt>
      <trkpt lat="46.49118" lon="5.25075">
        <ele>213.39999389648</ele>
        <time>2021-03-12T13:05:05.000Z</time>
      </trkpt>
      <trkpt lat="46.4911" lon="5.2506">
        <ele>213</ele>
        <time>2021-03-12T13:05:07.000Z</time>
      </trkpt>
      <trkpt lat="46.49106" lon="5.25054">
        <ele>213</ele>
        <time>2021-03-12T13:05:08.000Z</time>
      </trkpt>
      <trkpt lat="46.49103" lon="5.25049">
        <ele>213</ele>
        <time>2021-03-12T13:05:09.000Z</time>
      </trkpt>
      <trkpt lat="46.49098" lon="5.25042">
        <ele>212.80000305176</ele>
        <time>2021-03-12T13:05:11.000Z</time>
      </trkpt>
      <trkpt lat="46.49094" lon="5.2504">
        <ele>212.80000305176</ele>
        <time>2021-03-12T13:05:13.000Z</time>
      </trkpt>
      <trkpt lat="46.49093" lon="5.2504">
        <ele>212.80000305176</ele>
        <time>2021-03-12T13:05:15.000Z</time>
      </trkpt>
      <trkpt lat="46.49092" lon="5.25036">
        <ele>214.19999694824</ele>
        <time>2021-03-12T13:05:58.000Z</time>
      </trkpt>
      <trkpt lat="46.49091" lon="5.25034">
        <ele>214.19999694824</ele>
        <time>2021-03-12T13:05:59.000Z</time>
      </trkpt>
      <trkpt lat="46.49089" lon="5.25031">
        <ele>214.19999694824</ele>
        <time>2021-03-12T13:06:01.000Z</time>
      </trkpt>
      <trkpt lat="46.49087" lon="5.25028">
        <ele>214.19999694824</ele>
        <time>2021-03-12T13:06:02.000Z</time>
      </trkpt>
      <trkpt lat="46.49085" lon="5.25024">
        <ele>214.19999694824</ele>
        <time>2021-03-12T13:06:03.000Z</time>
      </trkpt>
      <trkpt lat="46.49083" lon="5.2502">
        <ele>214.19999694824</ele>
        <time>2021-03-12T13:06:04.000Z</time>
      </trkpt>
      <trkpt lat="46.4908" lon="5.25015">
        <ele>214.19999694824</ele>
        <time>2021-03-12T13:06:05.000Z</time>
      </trkpt>
      <trkpt lat="46.49078" lon="5.25009">
        <ele>214.19999694824</ele>
        <time>2021-03-12T13:06:06.000Z</time>
      </trkpt>
      <trkpt lat="46.49075" lon="5.25003">
        <ele>214.19999694824</ele>
        <time>2021-03-12T13:06:07.000Z</time>
      </trkpt>
      <trkpt lat="46.49069" lon="5.24991">
        <ele>214</ele>
        <time>2021-03-12T13:06:09.000Z</time>
      </trkpt>
      <trkpt lat="46.49065" lon="5.24986">
        <ele>214</ele>
        <time>2021-03-12T13:06:10.000Z</time>
      </trkpt>
      <trkpt lat="46.49062" lon="5.2498">
        <ele>214</ele>
        <time>2021-03-12T13:06:11.000Z</time>
      </trkpt>
      <trkpt lat="46.49057" lon="5.24975">
        <ele>214</ele>
        <time>2021-03-12T13:06:12.000Z</time>
      </trkpt>
      <trkpt lat="46.49053" lon="5.2497">
        <ele>213.80000305176</ele>
        <time>2021-03-12T13:06:13.000Z</time>
      </trkpt>
      <trkpt lat="46.49045" lon="5.24958">
        <ele>213.19999694824</ele>
        <time>2021-03-12T13:06:15.000Z</time>
      </trkpt>
      <trkpt lat="46.49036" lon="5.24946">
        <ele>212.80000305176</ele>
        <time>2021-03-12T13:06:17.000Z</time>
      </trkpt>
      <trkpt lat="46.49031" lon="5.24941">
        <ele>212.80000305176</ele>
        <time>2021-03-12T13:06:18.000Z</time>
      </trkpt>
      <trkpt lat="46.49027" lon="5.24936">
        <ele>212.80000305176</ele>
        <time>2021-03-12T13:06:19.000Z</time>
      </trkpt>
      <trkpt lat="46.49019" lon="5.24926">
        <ele>212.60000610352</ele>
        <time>2021-03-12T13:06:21.000Z</time>
      </trkpt>
      <trkpt lat="46.4901" lon="5.24917">
        <ele>212.60000610352</ele>
        <time>2021-03-12T13:06:23.000Z</time>
      </trkpt>
      <trkpt lat="46.49001" lon="5.24907">
        <ele>212.60000610352</ele>
        <time>2021-03-12T13:06:25.000Z</time>
      </trkpt>
      <trkpt lat="46.48997" lon="5.24902">
        <ele>212.60000610352</ele>
        <time>2021-03-12T13:06:26.000Z</time>
      </trkpt>
      <trkpt lat="46.48992" lon="5.24898">
        <ele>212.60000610352</ele>
        <time>2021-03-12T13:06:27.000Z</time>
      </trkpt>
      <trkpt lat="46.48984" lon="5.24889">
        <ele>212.60000610352</ele>
        <time>2021-03-12T13:06:29.000Z</time>
      </trkpt>
      <trkpt lat="46.48977" lon="5.24881">
        <ele>212.80000305176</ele>
        <time>2021-03-12T13:06:31.000Z</time>
      </trkpt>
      <trkpt lat="46.48969" lon="5.24872">
        <ele>213</ele>
        <time>2021-03-12T13:06:33.000Z</time>
      </trkpt>
      <trkpt lat="46.48966" lon="5.24868">
        <ele>213</ele>
        <time>2021-03-12T13:06:34.000Z</time>
      </trkpt>
      <trkpt lat="46.48962" lon="5.24863">
        <ele>213.19999694824</ele>
        <time>2021-03-12T13:06:35.000Z</time>
      </trkpt>
      <trkpt lat="46.48954" lon="5.24855">
        <ele>213.19999694824</ele>
        <time>2021-03-12T13:06:37.000Z</time>
      </trkpt>
      <trkpt lat="46.48946" lon="5.24845">
        <ele>213.60000610352</ele>
        <time>2021-03-12T13:06:39.000Z</time>
      </trkpt>
      <trkpt lat="46.48938" lon="5.24836">
        <ele>214</ele>
        <time>2021-03-12T13:06:41.000Z</time>
      </trkpt>
      <trkpt lat="46.48934" lon="5.24832">
        <ele>214.39999389648</ele>
        <time>2021-03-12T13:06:42.000Z</time>
      </trkpt>
      <trkpt lat="46.4893" lon="5.24827">
        <ele>214.60000610352</ele>
        <time>2021-03-12T13:06:43.000Z</time>
      </trkpt>
      <trkpt lat="46.48923" lon="5.24819">
        <ele>214.60000610352</ele>
        <time>2021-03-12T13:06:45.000Z</time>
      </trkpt>
      <trkpt lat="46.48915" lon="5.2481">
        <ele>214.80000305176</ele>
        <time>2021-03-12T13:06:47.000Z</time>
      </trkpt>
      <trkpt lat="46.48907" lon="5.24801">
        <ele>215</ele>
        <time>2021-03-12T13:06:49.000Z</time>
      </trkpt>
      <trkpt lat="46.48904" lon="5.24797">
        <ele>215.19999694824</ele>
        <time>2021-03-12T13:06:50.000Z</time>
      </trkpt>
      <trkpt lat="46.489" lon="5.24792">
        <ele>215.39999389648</ele>
        <time>2021-03-12T13:06:51.000Z</time>
      </trkpt>
      <trkpt lat="46.48892" lon="5.24783">
        <ele>215.60000610352</ele>
        <time>2021-03-12T13:06:53.000Z</time>
      </trkpt>
      <trkpt lat="46.48884" lon="5.24774">
        <ele>215.80000305176</ele>
        <time>2021-03-12T13:06:55.000Z</time>
      </trkpt>
      <trkpt lat="46.48876" lon="5.24764">
        <ele>216</ele>
        <time>2021-03-12T13:06:57.000Z</time>
      </trkpt>
      <trkpt lat="46.48868" lon="5.24755">
        <ele>216.19999694824</ele>
        <time>2021-03-12T13:06:59.000Z</time>
      </trkpt>
      <trkpt lat="46.48864" lon="5.24751">
        <ele>216.19999694824</ele>
        <time>2021-03-12T13:07:00.000Z</time>
      </trkpt>
      <trkpt lat="46.4886" lon="5.24746">
        <ele>216.39999389648</ele>
        <time>2021-03-12T13:07:01.000Z</time>
      </trkpt>
      <trkpt lat="46.48851" lon="5.24737">
        <ele>216.39999389648</ele>
        <time>2021-03-12T13:07:03.000Z</time>
      </trkpt>
      <trkpt lat="46.48847" lon="5.24733">
        <ele>216.39999389648</ele>
        <time>2021-03-12T13:07:04.000Z</time>
      </trkpt>
      <trkpt lat="46.48843" lon="5.24729">
        <ele>216.39999389648</ele>
        <time>2021-03-12T13:07:05.000Z</time>
      </trkpt>
      <trkpt lat="46.48834" lon="5.2472">
        <ele>216.39999389648</ele>
        <time>2021-03-12T13:07:07.000Z</time>
      </trkpt>
      <trkpt lat="46.48825" lon="5.24712">
        <ele>216.39999389648</ele>
        <time>2021-03-12T13:07:09.000Z</time>
      </trkpt>
      <trkpt lat="46.48817" lon="5.24702">
        <ele>216.39999389648</ele>
        <time>2021-03-12T13:07:11.000Z</time>
      </trkpt>
      <trkpt lat="46.48808" lon="5.24694">
        <ele>216.60000610352</ele>
        <time>2021-03-12T13:07:13.000Z</time>
      </trkpt>
      <trkpt lat="46.48804" lon="5.2469">
        <ele>216.60000610352</ele>
        <time>2021-03-12T13:07:14.000Z</time>
      </trkpt>
      <trkpt lat="46.488" lon="5.24686">
        <ele>216.60000610352</ele>
        <time>2021-03-12T13:07:15.000Z</time>
      </trkpt>
      <trkpt lat="46.48791" lon="5.24677">
        <ele>216.60000610352</ele>
        <time>2021-03-12T13:07:17.000Z</time>
      </trkpt>
      <trkpt lat="46.48782" lon="5.24669">
        <ele>216.60000610352</ele>
        <time>2021-03-12T13:07:19.000Z</time>
      </trkpt>
      <trkpt lat="46.48774" lon="5.24661">
        <ele>216.60000610352</ele>
        <time>2021-03-12T13:07:21.000Z</time>
      </trkpt>
      <trkpt lat="46.48771" lon="5.24657">
        <ele>216.80000305176</ele>
        <time>2021-03-12T13:07:22.000Z</time>
      </trkpt>
      <trkpt lat="46.48768" lon="5.24652">
        <ele>216.80000305176</ele>
        <time>2021-03-12T13:07:23.000Z</time>
      </trkpt>
      <trkpt lat="46.48767" lon="5.24642">
        <ele>216.80000305176</ele>
        <time>2021-03-12T13:07:25.000Z</time>
      </trkpt>
      <trkpt lat="46.48767" lon="5.24634">
        <ele>216.80000305176</ele>
        <time>2021-03-12T13:07:27.000Z</time>
      </trkpt>
      <trkpt lat="46.48765" lon="5.24631">
        <ele>217</ele>
        <time>2021-03-12T13:07:28.000Z</time>
      </trkpt>
      <trkpt lat="46.48761" lon="5.2463">
        <ele>217.19999694824</ele>
        <time>2021-03-12T13:07:29.000Z</time>
      </trkpt>
      <trkpt lat="46.48757" lon="5.24629">
        <ele>217.39999389648</ele>
        <time>2021-03-12T13:07:30.000Z</time>
      </trkpt>
      <trkpt lat="46.48751" lon="5.24629">
        <ele>217.39999389648</ele>
        <time>2021-03-12T13:07:31.000Z</time>
      </trkpt>
      <trkpt lat="46.48739" lon="5.24627">
        <ele>217.39999389648</ele>
        <time>2021-03-12T13:07:33.000Z</time>
      </trkpt>
      <trkpt lat="46.48725" lon="5.24624">
        <ele>217.39999389648</ele>
        <time>2021-03-12T13:07:35.000Z</time>
      </trkpt>
      <trkpt lat="46.48718" lon="5.24622">
        <ele>217.39999389648</ele>
        <time>2021-03-12T13:07:36.000Z</time>
      </trkpt>
      <trkpt lat="46.4871" lon="5.24619">
        <ele>217.39999389648</ele>
        <time>2021-03-12T13:07:37.000Z</time>
      </trkpt>
      <trkpt lat="46.48697" lon="5.24612">
        <ele>217.39999389648</ele>
        <time>2021-03-12T13:07:39.000Z</time>
      </trkpt>
      <trkpt lat="46.48683" lon="5.24604">
        <ele>216.80000305176</ele>
        <time>2021-03-12T13:07:41.000Z</time>
      </trkpt>
      <trkpt lat="46.48677" lon="5.24601">
        <ele>216.39999389648</ele>
        <time>2021-03-12T13:07:42.000Z</time>
      </trkpt>
      <trkpt lat="46.4867" lon="5.24597">
        <ele>216.19999694824</ele>
        <time>2021-03-12T13:07:43.000Z</time>
      </trkpt>
      <trkpt lat="46.48658" lon="5.2459">
        <ele>216</ele>
        <time>2021-03-12T13:07:45.000Z</time>
      </trkpt>
      <trkpt lat="46.48646" lon="5.24584">
        <ele>216</ele>
        <time>2021-03-12T13:07:47.000Z</time>
      </trkpt>
      <trkpt lat="46.48634" lon="5.24577">
        <ele>215.80000305176</ele>
        <time>2021-03-12T13:07:49.000Z</time>
      </trkpt>
      <trkpt lat="46.48623" lon="5.2457">
        <ele>215.80000305176</ele>
        <time>2021-03-12T13:07:51.000Z</time>
      </trkpt>
      <trkpt lat="46.48612" lon="5.24563">
        <ele>215.80000305176</ele>
        <time>2021-03-12T13:07:53.000Z</time>
      </trkpt>
      <trkpt lat="46.486" lon="5.24557">
        <ele>215.80000305176</ele>
        <time>2021-03-12T13:07:55.000Z</time>
      </trkpt>
      <trkpt lat="46.48589" lon="5.24549">
        <ele>216.19999694824</ele>
        <time>2021-03-12T13:07:57.000Z</time>
      </trkpt>
      <trkpt lat="46.48578" lon="5.2454">
        <ele>216.19999694824</ele>
        <time>2021-03-12T13:07:59.000Z</time>
      </trkpt>
      <trkpt lat="46.48568" lon="5.2453">
        <ele>216.19999694824</ele>
        <time>2021-03-12T13:08:01.000Z</time>
      </trkpt>
      <trkpt lat="46.48558" lon="5.24518">
        <ele>216.39999389648</ele>
        <time>2021-03-12T13:08:03.000Z</time>
      </trkpt>
      <trkpt lat="46.48548" lon="5.24506">
        <ele>216.39999389648</ele>
        <time>2021-03-12T13:08:05.000Z</time>
      </trkpt>
      <trkpt lat="46.48538" lon="5.24493">
        <ele>216.39999389648</ele>
        <time>2021-03-12T13:08:07.000Z</time>
      </trkpt>
      <trkpt lat="46.48527" lon="5.2448">
        <ele>216.39999389648</ele>
        <time>2021-03-12T13:08:09.000Z</time>
      </trkpt>
      <trkpt lat="46.48521" lon="5.24473">
        <ele>216.39999389648</ele>
        <time>2021-03-12T13:08:10.000Z</time>
      </trkpt>
      <trkpt lat="46.48516" lon="5.24466">
        <ele>216.39999389648</ele>
        <time>2021-03-12T13:08:11.000Z</time>
      </trkpt>
      <trkpt lat="46.48504" lon="5.24453">
        <ele>216.19999694824</ele>
        <time>2021-03-12T13:08:13.000Z</time>
      </trkpt>
      <trkpt lat="46.48493" lon="5.24438">
        <ele>216.19999694824</ele>
        <time>2021-03-12T13:08:15.000Z</time>
      </trkpt>
      <trkpt lat="46.48481" lon="5.24424">
        <ele>215.60000610352</ele>
        <time>2021-03-12T13:08:17.000Z</time>
      </trkpt>
      <trkpt lat="46.48475" lon="5.24417">
        <ele>215.19999694824</ele>
        <time>2021-03-12T13:08:18.000Z</time>
      </trkpt>
      <trkpt lat="46.48469" lon="5.2441">
        <ele>214.80000305176</ele>
        <time>2021-03-12T13:08:19.000Z</time>
      </trkpt>
      <trkpt lat="46.48456" lon="5.24396">
        <ele>214.60000610352</ele>
        <time>2021-03-12T13:08:21.000Z</time>
      </trkpt>
      <trkpt lat="46.48444" lon="5.24383">
        <ele>214.39999389648</ele>
        <time>2021-03-12T13:08:23.000Z</time>
      </trkpt>
      <trkpt lat="46.48433" lon="5.24371">
        <ele>214.19999694824</ele>
        <time>2021-03-12T13:08:25.000Z</time>
      </trkpt>
      <trkpt lat="46.48427" lon="5.24365">
        <ele>214</ele>
        <time>2021-03-12T13:08:26.000Z</time>
      </trkpt>
      <trkpt lat="46.48421" lon="5.2436">
        <ele>214</ele>
        <time>2021-03-12T13:08:27.000Z</time>
      </trkpt>
      <trkpt lat="46.48409" lon="5.2435">
        <ele>214</ele>
        <time>2021-03-12T13:08:29.000Z</time>
      </trkpt>
      <trkpt lat="46.48396" lon="5.24344">
        <ele>214</ele>
        <time>2021-03-12T13:08:31.000Z</time>
      </trkpt>
      <trkpt lat="46.48384" lon="5.2434">
        <ele>214</ele>
        <time>2021-03-12T13:08:33.000Z</time>
      </trkpt>
      <trkpt lat="46.48373" lon="5.24335">
        <ele>214</ele>
        <time>2021-03-12T13:08:35.000Z</time>
      </trkpt>
      <trkpt lat="46.48362" lon="5.2433">
        <ele>214.19999694824</ele>
        <time>2021-03-12T13:08:37.000Z</time>
      </trkpt>
      <trkpt lat="46.48357" lon="5.24327">
        <ele>214.39999389648</ele>
        <time>2021-03-12T13:08:38.000Z</time>
      </trkpt>
      <trkpt lat="46.48353" lon="5.24323">
        <ele>214.80000305176</ele>
        <time>2021-03-12T13:08:39.000Z</time>
      </trkpt>
      <trkpt lat="46.48345" lon="5.24315">
        <ele>215</ele>
        <time>2021-03-12T13:08:41.000Z</time>
      </trkpt>
      <trkpt lat="46.48341" lon="5.2431">
        <ele>215.19999694824</ele>
        <time>2021-03-12T13:08:42.000Z</time>
      </trkpt>
      <trkpt lat="46.48337" lon="5.24304">
        <ele>215.39999389648</ele>
        <time>2021-03-12T13:08:43.000Z</time>
      </trkpt>
      <trkpt lat="46.48329" lon="5.24294">
        <ele>215.80000305176</ele>
        <time>2021-03-12T13:08:45.000Z</time>
      </trkpt>
      <trkpt lat="46.48325" lon="5.24288">
        <ele>216.19999694824</ele>
        <time>2021-03-12T13:08:46.000Z</time>
      </trkpt>
      <trkpt lat="46.48321" lon="5.24283">
        <ele>216.60000610352</ele>
        <time>2021-03-12T13:08:47.000Z</time>
      </trkpt>
      <trkpt lat="46.48316" lon="5.24278">
        <ele>217.39999389648</ele>
        <time>2021-03-12T13:08:48.000Z</time>
      </trkpt>
      <trkpt lat="46.48312" lon="5.24274">
        <ele>217.60000610352</ele>
        <time>2021-03-12T13:08:49.000Z</time>
      </trkpt>
      <trkpt lat="46.48302" lon="5.24269">
        <ele>218</ele>
        <time>2021-03-12T13:08:51.000Z</time>
      </trkpt>
      <trkpt lat="46.48296" lon="5.24267">
        <ele>218.19999694824</ele>
        <time>2021-03-12T13:08:52.000Z</time>
      </trkpt>
      <trkpt lat="46.48291" lon="5.24266">
        <ele>218.39999389648</ele>
        <time>2021-03-12T13:08:53.000Z</time>
      </trkpt>
      <trkpt lat="46.48286" lon="5.24264">
        <ele>218.39999389648</ele>
        <time>2021-03-12T13:08:54.000Z</time>
      </trkpt>
      <trkpt lat="46.48281" lon="5.24262">
        <ele>218.60000610352</ele>
        <time>2021-03-12T13:08:55.000Z</time>
      </trkpt>
      <trkpt lat="46.48271" lon="5.24259">
        <ele>218.80000305176</ele>
        <time>2021-03-12T13:08:57.000Z</time>
      </trkpt>
      <trkpt lat="46.48261" lon="5.24257">
        <ele>218.80000305176</ele>
        <time>2021-03-12T13:08:59.000Z</time>
      </trkpt>
      <trkpt lat="46.48251" lon="5.24254">
        <ele>218.80000305176</ele>
        <time>2021-03-12T13:09:01.000Z</time>
      </trkpt>
      <trkpt lat="46.48241" lon="5.24251">
        <ele>219</ele>
        <time>2021-03-12T13:09:03.000Z</time>
      </trkpt>
      <trkpt lat="46.4823" lon="5.24249">
        <ele>219.19999694824</ele>
        <time>2021-03-12T13:09:05.000Z</time>
      </trkpt>
      <trkpt lat="46.48219" lon="5.24247">
        <ele>219.39999389648</ele>
        <time>2021-03-12T13:09:07.000Z</time>
      </trkpt>
      <trkpt lat="46.48208" lon="5.24248">
        <ele>219.80000305176</ele>
        <time>2021-03-12T13:09:09.000Z</time>
      </trkpt>
      <trkpt lat="46.48203" lon="5.2425">
        <ele>219.80000305176</ele>
        <time>2021-03-12T13:09:10.000Z</time>
      </trkpt>
      <trkpt lat="46.48198" lon="5.24252">
        <ele>220</ele>
        <time>2021-03-12T13:09:11.000Z</time>
      </trkpt>
      <trkpt lat="46.48188" lon="5.2426">
        <ele>220</ele>
        <time>2021-03-12T13:09:13.000Z</time>
      </trkpt>
      <trkpt lat="46.48184" lon="5.24265">
        <ele>220</ele>
        <time>2021-03-12T13:09:14.000Z</time>
      </trkpt>
      <trkpt lat="46.48179" lon="5.24271">
        <ele>220</ele>
        <time>2021-03-12T13:09:15.000Z</time>
      </trkpt>
      <trkpt lat="46.48175" lon="5.24277">
        <ele>220</ele>
        <time>2021-03-12T13:09:16.000Z</time>
      </trkpt>
      <trkpt lat="46.4817" lon="5.24284">
        <ele>220</ele>
        <time>2021-03-12T13:09:17.000Z</time>
      </trkpt>
      <trkpt lat="46.48161" lon="5.24297">
        <ele>220</ele>
        <time>2021-03-12T13:09:19.000Z</time>
      </trkpt>
      <trkpt lat="46.48156" lon="5.24303">
        <ele>220</ele>
        <time>2021-03-12T13:09:20.000Z</time>
      </trkpt>
      <trkpt lat="46.48151" lon="5.24309">
        <ele>220</ele>
        <time>2021-03-12T13:09:21.000Z</time>
      </trkpt>
      <trkpt lat="46.48141" lon="5.24319">
        <ele>219.80000305176</ele>
        <time>2021-03-12T13:09:23.000Z</time>
      </trkpt>
      <trkpt lat="46.48129" lon="5.24324">
        <ele>219.60000610352</ele>
        <time>2021-03-12T13:09:25.000Z</time>
      </trkpt>
      <trkpt lat="46.48115" lon="5.24324">
        <ele>219</ele>
        <time>2021-03-12T13:09:27.000Z</time>
      </trkpt>
      <trkpt lat="46.48108" lon="5.24321">
        <ele>218.80000305176</ele>
        <time>2021-03-12T13:09:28.000Z</time>
      </trkpt>
      <trkpt lat="46.48101" lon="5.24316">
        <ele>218.60000610352</ele>
        <time>2021-03-12T13:09:29.000Z</time>
      </trkpt>
      <trkpt lat="46.48095" lon="5.2431">
        <ele>218.60000610352</ele>
        <time>2021-03-12T13:09:30.000Z</time>
      </trkpt>
      <trkpt lat="46.48088" lon="5.24302">
        <ele>218.39999389648</ele>
        <time>2021-03-12T13:09:31.000Z</time>
      </trkpt>
      <trkpt lat="46.4808" lon="5.2428">
        <ele>218</ele>
        <time>2021-03-12T13:09:33.000Z</time>
      </trkpt>
      <trkpt lat="46.48078" lon="5.24267">
        <ele>217.80000305176</ele>
        <time>2021-03-12T13:09:34.000Z</time>
      </trkpt>
      <trkpt lat="46.48079" lon="5.24254">
        <ele>217.19999694824</ele>
        <time>2021-03-12T13:09:35.000Z</time>
      </trkpt>
      <trkpt lat="46.48084" lon="5.24228">
        <ele>215.60000610352</ele>
        <time>2021-03-12T13:09:37.000Z</time>
      </trkpt>
      <trkpt lat="46.48093" lon="5.24203">
        <ele>214.19999694824</ele>
        <time>2021-03-12T13:09:39.000Z</time>
      </trkpt>
      <trkpt lat="46.48104" lon="5.24178">
        <ele>213.39999389648</ele>
        <time>2021-03-12T13:09:41.000Z</time>
      </trkpt>
      <trkpt lat="46.48109" lon="5.24165">
        <ele>212.80000305176</ele>
        <time>2021-03-12T13:09:42.000Z</time>
      </trkpt>
      <trkpt lat="46.48114" lon="5.24153">
        <ele>212.19999694824</ele>
        <time>2021-03-12T13:09:43.000Z</time>
      </trkpt>
      <trkpt lat="46.48119" lon="5.24139">
        <ele>211.39999389648</ele>
        <time>2021-03-12T13:09:44.000Z</time>
      </trkpt>
      <trkpt lat="46.48124" lon="5.24126">
        <ele>210.39999389648</ele>
        <time>2021-03-12T13:09:45.000Z</time>
      </trkpt>
      <trkpt lat="46.48134" lon="5.24099">
        <ele>209.19999694824</ele>
        <time>2021-03-12T13:09:47.000Z</time>
      </trkpt>
      <trkpt lat="46.48145" lon="5.24071">
        <ele>207.80000305176</ele>
        <time>2021-03-12T13:09:49.000Z</time>
      </trkpt>
      <trkpt lat="46.48155" lon="5.24041">
        <ele>206.39999389648</ele>
        <time>2021-03-12T13:09:51.000Z</time>
      </trkpt>
      <trkpt lat="46.48167" lon="5.24012">
        <ele>205.39999389648</ele>
        <time>2021-03-12T13:09:53.000Z</time>
      </trkpt>
      <trkpt lat="46.48173" lon="5.23998">
        <ele>204.80000305176</ele>
        <time>2021-03-12T13:09:54.000Z</time>
      </trkpt>
      <trkpt lat="46.48178" lon="5.23983">
        <ele>204</ele>
        <time>2021-03-12T13:09:55.000Z</time>
      </trkpt>
      <trkpt lat="46.48188" lon="5.23953">
        <ele>202.19999694824</ele>
        <time>2021-03-12T13:09:57.000Z</time>
      </trkpt>
      <trkpt lat="46.48192" lon="5.23937">
        <ele>201.60000610352</ele>
        <time>2021-03-12T13:09:58.000Z</time>
      </trkpt>
      <trkpt lat="46.48194" lon="5.23921">
        <ele>200.80000305176</ele>
        <time>2021-03-12T13:09:59.000Z</time>
      </trkpt>
      <trkpt lat="46.48193" lon="5.2389">
        <ele>199.19999694824</ele>
        <time>2021-03-12T13:10:01.000Z</time>
      </trkpt>
      <trkpt lat="46.48191" lon="5.23875">
        <ele>198.80000305176</ele>
        <time>2021-03-12T13:10:02.000Z</time>
      </trkpt>
      <trkpt lat="46.48187" lon="5.23861">
        <ele>198.39999389648</ele>
        <time>2021-03-12T13:10:03.000Z</time>
      </trkpt>
      <trkpt lat="46.48183" lon="5.23849">
        <ele>197.60000610352</ele>
        <time>2021-03-12T13:10:04.000Z</time>
      </trkpt>
      <trkpt lat="46.48177" lon="5.23837">
        <ele>196.60000610352</ele>
        <time>2021-03-12T13:10:05.000Z</time>
      </trkpt>
      <trkpt lat="46.4817" lon="5.23827">
        <ele>196.19999694824</ele>
        <time>2021-03-12T13:10:06.000Z</time>
      </trkpt>
      <trkpt lat="46.48163" lon="5.23819">
        <ele>195.80000305176</ele>
        <time>2021-03-12T13:10:07.000Z</time>
      </trkpt>
      <trkpt lat="46.48156" lon="5.2381">
        <ele>195.19999694824</ele>
        <time>2021-03-12T13:10:08.000Z</time>
      </trkpt>
      <trkpt lat="46.48149" lon="5.23802">
        <ele>195</ele>
        <time>2021-03-12T13:10:09.000Z</time>
      </trkpt>
      <trkpt lat="46.48136" lon="5.23786">
        <ele>194.60000610352</ele>
        <time>2021-03-12T13:10:11.000Z</time>
      </trkpt>
      <trkpt lat="46.48122" lon="5.23769">
        <ele>194.60000610352</ele>
        <time>2021-03-12T13:10:13.000Z</time>
      </trkpt>
      <trkpt lat="46.4811" lon="5.23752">
        <ele>194.39999389648</ele>
        <time>2021-03-12T13:10:15.000Z</time>
      </trkpt>
      <trkpt lat="46.48104" lon="5.23742">
        <ele>194.39999389648</ele>
        <time>2021-03-12T13:10:16.000Z</time>
      </trkpt>
      <trkpt lat="46.48099" lon="5.23733">
        <ele>194.39999389648</ele>
        <time>2021-03-12T13:10:17.000Z</time>
      </trkpt>
      <trkpt lat="46.4809" lon="5.23713">
        <ele>194.39999389648</ele>
        <time>2021-03-12T13:10:19.000Z</time>
      </trkpt>
      <trkpt lat="46.48083" lon="5.23692">
        <ele>194.39999389648</ele>
        <time>2021-03-12T13:10:21.000Z</time>
      </trkpt>
      <trkpt lat="46.48076" lon="5.2367">
        <ele>194.39999389648</ele>
        <time>2021-03-12T13:10:23.000Z</time>
      </trkpt>
      <trkpt lat="46.48071" lon="5.23648">
        <ele>194.39999389648</ele>
        <time>2021-03-12T13:10:25.000Z</time>
      </trkpt>
      <trkpt lat="46.48067" lon="5.23625">
        <ele>194.39999389648</ele>
        <time>2021-03-12T13:10:27.000Z</time>
      </trkpt>
      <trkpt lat="46.48066" lon="5.23614">
        <ele>194.39999389648</ele>
        <time>2021-03-12T13:10:28.000Z</time>
      </trkpt>
      <trkpt lat="46.48065" lon="5.23602">
        <ele>194.19999694824</ele>
        <time>2021-03-12T13:10:29.000Z</time>
      </trkpt>
      <trkpt lat="46.48064" lon="5.2358">
        <ele>194</ele>
        <time>2021-03-12T13:10:31.000Z</time>
      </trkpt>
      <trkpt lat="46.48064" lon="5.23568">
        <ele>194</ele>
        <time>2021-03-12T13:10:32.000Z</time>
      </trkpt>
      <trkpt lat="46.48063" lon="5.23557">
        <ele>194</ele>
        <time>2021-03-12T13:10:33.000Z</time>
      </trkpt>
      <trkpt lat="46.48063" lon="5.23535">
        <ele>194</ele>
        <time>2021-03-12T13:10:35.000Z</time>
      </trkpt>
      <trkpt lat="46.48062" lon="5.23514">
        <ele>194</ele>
        <time>2021-03-12T13:10:37.000Z</time>
      </trkpt>
      <trkpt lat="46.48062" lon="5.23493">
        <ele>194</ele>
        <time>2021-03-12T13:10:39.000Z</time>
      </trkpt>
      <trkpt lat="46.48061" lon="5.23472">
        <ele>194</ele>
        <time>2021-03-12T13:10:41.000Z</time>
      </trkpt>
      <trkpt lat="46.4806" lon="5.23452">
        <ele>194</ele>
        <time>2021-03-12T13:10:43.000Z</time>
      </trkpt>
      <trkpt lat="46.4806" lon="5.23441">
        <ele>194</ele>
        <time>2021-03-12T13:10:44.000Z</time>
      </trkpt>
      <trkpt lat="46.4806" lon="5.23431">
        <ele>194</ele>
        <time>2021-03-12T13:10:45.000Z</time>
      </trkpt>
      <trkpt lat="46.48059" lon="5.23412">
        <ele>194</ele>
        <time>2021-03-12T13:10:47.000Z</time>
      </trkpt>
      <trkpt lat="46.48059" lon="5.23392">
        <ele>194</ele>
        <time>2021-03-12T13:10:49.000Z</time>
      </trkpt>
      <trkpt lat="46.48058" lon="5.23373">
        <ele>194.19999694824</ele>
        <time>2021-03-12T13:10:51.000Z</time>
      </trkpt>
      <trkpt lat="46.48058" lon="5.23354">
        <ele>194.19999694824</ele>
        <time>2021-03-12T13:10:53.000Z</time>
      </trkpt>
      <trkpt lat="46.48057" lon="5.23334">
        <ele>194.19999694824</ele>
        <time>2021-03-12T13:10:55.000Z</time>
      </trkpt>
      <trkpt lat="46.48057" lon="5.23316">
        <ele>194.80000305176</ele>
        <time>2021-03-12T13:10:57.000Z</time>
      </trkpt>
      <trkpt lat="46.48056" lon="5.23297">
        <ele>195</ele>
        <time>2021-03-12T13:10:59.000Z</time>
      </trkpt>
      <trkpt lat="46.48056" lon="5.23287">
        <ele>195</ele>
        <time>2021-03-12T13:11:00.000Z</time>
      </trkpt>
      <trkpt lat="46.48056" lon="5.23278">
        <ele>195</ele>
        <time>2021-03-12T13:11:01.000Z</time>
      </trkpt>
      <trkpt lat="46.48055" lon="5.2326">
        <ele>195.19999694824</ele>
        <time>2021-03-12T13:11:03.000Z</time>
      </trkpt>
      <trkpt lat="46.48054" lon="5.23241">
        <ele>195.19999694824</ele>
        <time>2021-03-12T13:11:05.000Z</time>
      </trkpt>
      <trkpt lat="46.48054" lon="5.23223">
        <ele>195.39999389648</ele>
        <time>2021-03-12T13:11:07.000Z</time>
      </trkpt>
      <trkpt lat="46.48054" lon="5.23204">
        <ele>195.39999389648</ele>
        <time>2021-03-12T13:11:09.000Z</time>
      </trkpt>
      <trkpt lat="46.48054" lon="5.23195">
        <ele>195.39999389648</ele>
        <time>2021-03-12T13:11:10.000Z</time>
      </trkpt>
      <trkpt lat="46.48053" lon="5.23186">
        <ele>195.60000610352</ele>
        <time>2021-03-12T13:11:11.000Z</time>
      </trkpt>
      <trkpt lat="46.48053" lon="5.23169">
        <ele>195.80000305176</ele>
        <time>2021-03-12T13:11:13.000Z</time>
      </trkpt>
      <trkpt lat="46.48053" lon="5.23153">
        <ele>195.80000305176</ele>
        <time>2021-03-12T13:11:15.000Z</time>
      </trkpt>
      <trkpt lat="46.48052" lon="5.23138">
        <ele>195.80000305176</ele>
        <time>2021-03-12T13:11:17.000Z</time>
      </trkpt>
      <trkpt lat="46.48052" lon="5.23124">
        <ele>196</ele>
        <time>2021-03-12T13:11:19.000Z</time>
      </trkpt>
      <trkpt lat="46.48052" lon="5.23117">
        <ele>196.19999694824</ele>
        <time>2021-03-12T13:11:20.000Z</time>
      </trkpt>
      <trkpt lat="46.48052" lon="5.23111">
        <ele>196.39999389648</ele>
        <time>2021-03-12T13:11:21.000Z</time>
      </trkpt>
      <trkpt lat="46.48051" lon="5.23097">
        <ele>197.19999694824</ele>
        <time>2021-03-12T13:11:23.000Z</time>
      </trkpt>
      <trkpt lat="46.48051" lon="5.23091">
        <ele>197.39999389648</ele>
        <time>2021-03-12T13:11:24.000Z</time>
      </trkpt>
      <trkpt lat="46.48051" lon="5.23084">
        <ele>197.80000305176</ele>
        <time>2021-03-12T13:11:25.000Z</time>
      </trkpt>
      <trkpt lat="46.48051" lon="5.23071">
        <ele>198.19999694824</ele>
        <time>2021-03-12T13:11:27.000Z</time>
      </trkpt>
      <trkpt lat="46.48051" lon="5.23058">
        <ele>198.80000305176</ele>
        <time>2021-03-12T13:11:29.000Z</time>
      </trkpt>
      <trkpt lat="46.4805" lon="5.23045">
        <ele>198.80000305176</ele>
        <time>2021-03-12T13:11:31.000Z</time>
      </trkpt>
      <trkpt lat="46.4805" lon="5.23033">
        <ele>199.60000610352</ele>
        <time>2021-03-12T13:11:33.000Z</time>
      </trkpt>
      <trkpt lat="46.4805" lon="5.23026">
        <ele>200</ele>
        <time>2021-03-12T13:11:34.000Z</time>
      </trkpt>
      <trkpt lat="46.4805" lon="5.2302">
        <ele>200.19999694824</ele>
        <time>2021-03-12T13:11:35.000Z</time>
      </trkpt>
      <trkpt lat="46.4805" lon="5.23007">
        <ele>200.39999389648</ele>
        <time>2021-03-12T13:11:37.000Z</time>
      </trkpt>
      <trkpt lat="46.48049" lon="5.22994">
        <ele>200.80000305176</ele>
        <time>2021-03-12T13:11:39.000Z</time>
      </trkpt>
      <trkpt lat="46.48049" lon="5.22988">
        <ele>201</ele>
        <time>2021-03-12T13:11:40.000Z</time>
      </trkpt>
      <trkpt lat="46.48049" lon="5.22981">
        <ele>201.19999694824</ele>
        <time>2021-03-12T13:11:41.000Z</time>
      </trkpt>
      <trkpt lat="46.48048" lon="5.22968">
        <ele>202</ele>
        <time>2021-03-12T13:11:43.000Z</time>
      </trkpt>
      <trkpt lat="46.48047" lon="5.22961">
        <ele>202.19999694824</ele>
        <time>2021-03-12T13:11:44.000Z</time>
      </trkpt>
      <trkpt lat="46.48047" lon="5.22955">
        <ele>202.39999389648</ele>
        <time>2021-03-12T13:11:45.000Z</time>
      </trkpt>
      <trkpt lat="46.48045" lon="5.22941">
        <ele>202.60000610352</ele>
        <time>2021-03-12T13:11:47.000Z</time>
      </trkpt>
      <trkpt lat="46.48042" lon="5.22928">
        <ele>202.60000610352</ele>
        <time>2021-03-12T13:11:49.000Z</time>
      </trkpt>
      <trkpt lat="46.48039" lon="5.22915">
        <ele>202.60000610352</ele>
        <time>2021-03-12T13:11:51.000Z</time>
      </trkpt>
      <trkpt lat="46.48037" lon="5.22909">
        <ele>202.80000305176</ele>
        <time>2021-03-12T13:11:52.000Z</time>
      </trkpt>
      <trkpt lat="46.48035" lon="5.22903">
        <ele>202.80000305176</ele>
        <time>2021-03-12T13:11:53.000Z</time>
      </trkpt>
      <trkpt lat="46.48031" lon="5.22892">
        <ele>203</ele>
        <time>2021-03-12T13:11:55.000Z</time>
      </trkpt>
      <trkpt lat="46.48026" lon="5.2288">
        <ele>203</ele>
        <time>2021-03-12T13:11:57.000Z</time>
      </trkpt>
      <trkpt lat="46.48022" lon="5.22869">
        <ele>203.19999694824</ele>
        <time>2021-03-12T13:11:59.000Z</time>
      </trkpt>
      <trkpt lat="46.48018" lon="5.22857">
        <ele>203.60000610352</ele>
        <time>2021-03-12T13:12:01.000Z</time>
      </trkpt>
      <trkpt lat="46.48014" lon="5.22845">
        <ele>203.80000305176</ele>
        <time>2021-03-12T13:12:03.000Z</time>
      </trkpt>
      <trkpt lat="46.48009" lon="5.22833">
        <ele>204.19999694824</ele>
        <time>2021-03-12T13:12:05.000Z</time>
      </trkpt>
      <trkpt lat="46.48007" lon="5.22827">
        <ele>204.39999389648</ele>
        <time>2021-03-12T13:12:06.000Z</time>
      </trkpt>
      <trkpt lat="46.48005" lon="5.22821">
        <ele>204.60000610352</ele>
        <time>2021-03-12T13:12:07.000Z</time>
      </trkpt>
      <trkpt lat="46.48" lon="5.22809">
        <ele>204.80000305176</ele>
        <time>2021-03-12T13:12:09.000Z</time>
      </trkpt>
      <trkpt lat="46.47996" lon="5.22797">
        <ele>204.80000305176</ele>
        <time>2021-03-12T13:12:11.000Z</time>
      </trkpt>
      <trkpt lat="46.47991" lon="5.22785">
        <ele>205</ele>
        <time>2021-03-12T13:12:13.000Z</time>
      </trkpt>
      <trkpt lat="46.47987" lon="5.22773">
        <ele>205.19999694824</ele>
        <time>2021-03-12T13:12:15.000Z</time>
      </trkpt>
      <trkpt lat="46.47982" lon="5.22761">
        <ele>205.19999694824</ele>
        <time>2021-03-12T13:12:17.000Z</time>
      </trkpt>
      <trkpt lat="46.4798" lon="5.22756">
        <ele>205.39999389648</ele>
        <time>2021-03-12T13:12:18.000Z</time>
      </trkpt>
      <trkpt lat="46.47977" lon="5.2275">
        <ele>205.39999389648</ele>
        <time>2021-03-12T13:12:19.000Z</time>
      </trkpt>
      <trkpt lat="46.47974" lon="5.22744">
        <ele>205.60000610352</ele>
        <time>2021-03-12T13:12:20.000Z</time>
      </trkpt>
      <trkpt lat="46.47971" lon="5.22739">
        <ele>205.80000305176</ele>
        <time>2021-03-12T13:12:21.000Z</time>
      </trkpt>
      <trkpt lat="46.47968" lon="5.22734">
        <ele>206</ele>
        <time>2021-03-12T13:12:22.000Z</time>
      </trkpt>
      <trkpt lat="46.47965" lon="5.22729">
        <ele>206.19999694824</ele>
        <time>2021-03-12T13:12:23.000Z</time>
      </trkpt>
      <trkpt lat="46.47961" lon="5.22724">
        <ele>206.60000610352</ele>
        <time>2021-03-12T13:12:24.000Z</time>
      </trkpt>
      <trkpt lat="46.47958" lon="5.22719">
        <ele>206.80000305176</ele>
        <time>2021-03-12T13:12:25.000Z</time>
      </trkpt>
      <trkpt lat="46.47951" lon="5.22711">
        <ele>207</ele>
        <time>2021-03-12T13:12:27.000Z</time>
      </trkpt>
      <trkpt lat="46.47944" lon="5.22703">
        <ele>207.19999694824</ele>
        <time>2021-03-12T13:12:29.000Z</time>
      </trkpt>
      <trkpt lat="46.4794" lon="5.22699">
        <ele>207.19999694824</ele>
        <time>2021-03-12T13:12:30.000Z</time>
      </trkpt>
      <trkpt lat="46.47936" lon="5.22695">
        <ele>207.19999694824</ele>
        <time>2021-03-12T13:12:31.000Z</time>
      </trkpt>
      <trkpt lat="46.47929" lon="5.22688">
        <ele>207.19999694824</ele>
        <time>2021-03-12T13:12:33.000Z</time>
      </trkpt>
      <trkpt lat="46.47923" lon="5.22681">
        <ele>207.39999389648</ele>
        <time>2021-03-12T13:12:35.000Z</time>
      </trkpt>
      <trkpt lat="46.47916" lon="5.22674">
        <ele>207.60000610352</ele>
        <time>2021-03-12T13:12:37.000Z</time>
      </trkpt>
      <trkpt lat="46.47909" lon="5.22668">
        <ele>208.39999389648</ele>
        <time>2021-03-12T13:12:39.000Z</time>
      </trkpt>
      <trkpt lat="46.47906" lon="5.22665">
        <ele>208.60000610352</ele>
        <time>2021-03-12T13:12:40.000Z</time>
      </trkpt>
      <trkpt lat="46.47903" lon="5.22661">
        <ele>208.80000305176</ele>
        <time>2021-03-12T13:12:41.000Z</time>
      </trkpt>
      <trkpt lat="46.47896" lon="5.22654">
        <ele>209.39999389648</ele>
        <time>2021-03-12T13:12:43.000Z</time>
      </trkpt>
      <trkpt lat="46.47893" lon="5.22651">
        <ele>209.60000610352</ele>
        <time>2021-03-12T13:12:44.000Z</time>
      </trkpt>
      <trkpt lat="46.4789" lon="5.22648">
        <ele>209.80000305176</ele>
        <time>2021-03-12T13:12:45.000Z</time>
      </trkpt>
      <trkpt lat="46.47884" lon="5.22641">
        <ele>210.60000610352</ele>
        <time>2021-03-12T13:12:47.000Z</time>
      </trkpt>
      <trkpt lat="46.47877" lon="5.22634">
        <ele>211.19999694824</ele>
        <time>2021-03-12T13:12:49.000Z</time>
      </trkpt>
      <trkpt lat="46.47871" lon="5.22627">
        <ele>211.39999389648</ele>
        <time>2021-03-12T13:12:51.000Z</time>
      </trkpt>
      <trkpt lat="46.47868" lon="5.22624">
        <ele>211.60000610352</ele>
        <time>2021-03-12T13:12:52.000Z</time>
      </trkpt>
      <trkpt lat="46.47865" lon="5.2262">
        <ele>211.80000305176</ele>
        <time>2021-03-12T13:12:53.000Z</time>
      </trkpt>
      <trkpt lat="46.47858" lon="5.22614">
        <ele>212.19999694824</ele>
        <time>2021-03-12T13:12:55.000Z</time>
      </trkpt>
      <trkpt lat="46.47852" lon="5.22607">
        <ele>212.60000610352</ele>
        <time>2021-03-12T13:12:57.000Z</time>
      </trkpt>
      <trkpt lat="46.47849" lon="5.22604">
        <ele>212.80000305176</ele>
        <time>2021-03-12T13:12:58.000Z</time>
      </trkpt>
      <trkpt lat="46.47846" lon="5.226">
        <ele>213</ele>
        <time>2021-03-12T13:12:59.000Z</time>
      </trkpt>
      <trkpt lat="46.47839" lon="5.22594">
        <ele>213.39999389648</ele>
        <time>2021-03-12T13:13:01.000Z</time>
      </trkpt>
      <trkpt lat="46.47833" lon="5.22586">
        <ele>213.80000305176</ele>
        <time>2021-03-12T13:13:03.000Z</time>
      </trkpt>
      <trkpt lat="46.4783" lon="5.22583">
        <ele>214</ele>
        <time>2021-03-12T13:13:04.000Z</time>
      </trkpt>
      <trkpt lat="46.47827" lon="5.22579">
        <ele>214.39999389648</ele>
        <time>2021-03-12T13:13:05.000Z</time>
      </trkpt>
      <trkpt lat="46.47821" lon="5.2257">
        <ele>214.60000610352</ele>
        <time>2021-03-12T13:13:07.000Z</time>
      </trkpt>
      <trkpt lat="46.47818" lon="5.22566">
        <ele>215.39999389648</ele>
        <time>2021-03-12T13:13:08.000Z</time>
      </trkpt>
      <trkpt lat="46.47816" lon="5.22561">
        <ele>215.60000610352</ele>
        <time>2021-03-12T13:13:09.000Z</time>
      </trkpt>
      <trkpt lat="46.47813" lon="5.22556">
        <ele>215.80000305176</ele>
        <time>2021-03-12T13:13:10.000Z</time>
      </trkpt>
      <trkpt lat="46.47811" lon="5.22551">
        <ele>216</ele>
        <time>2021-03-12T13:13:11.000Z</time>
      </trkpt>
      <trkpt lat="46.47809" lon="5.22545">
        <ele>216.19999694824</ele>
        <time>2021-03-12T13:13:12.000Z</time>
      </trkpt>
      <trkpt lat="46.47807" lon="5.2254">
        <ele>216.39999389648</ele>
        <time>2021-03-12T13:13:13.000Z</time>
      </trkpt>
      <trkpt lat="46.47804" lon="5.22528">
        <ele>216.39999389648</ele>
        <time>2021-03-12T13:13:15.000Z</time>
      </trkpt>
      <trkpt lat="46.47801" lon="5.22514">
        <ele>216.80000305176</ele>
        <time>2021-03-12T13:13:17.000Z</time>
      </trkpt>
      <trkpt lat="46.47798" lon="5.22501">
        <ele>217.19999694824</ele>
        <time>2021-03-12T13:13:19.000Z</time>
      </trkpt>
      <trkpt lat="46.47796" lon="5.22487">
        <ele>217.60000610352</ele>
        <time>2021-03-12T13:13:21.000Z</time>
      </trkpt>
      <trkpt lat="46.47793" lon="5.22473">
        <ele>217.80000305176</ele>
        <time>2021-03-12T13:13:23.000Z</time>
      </trkpt>
      <trkpt lat="46.4779" lon="5.22458">
        <ele>217.80000305176</ele>
        <time>2021-03-12T13:13:25.000Z</time>
      </trkpt>
      <trkpt lat="46.47787" lon="5.22443">
        <ele>217.80000305176</ele>
        <time>2021-03-12T13:13:27.000Z</time>
      </trkpt>
      <trkpt lat="46.47783" lon="5.22429">
        <ele>217.80000305176</ele>
        <time>2021-03-12T13:13:29.000Z</time>
      </trkpt>
      <trkpt lat="46.4778" lon="5.22414">
        <ele>217.80000305176</ele>
        <time>2021-03-12T13:13:31.000Z</time>
      </trkpt>
      <trkpt lat="46.47777" lon="5.22407">
        <ele>217.80000305176</ele>
        <time>2021-03-12T13:13:32.000Z</time>
      </trkpt>
      <trkpt lat="46.47774" lon="5.22402">
        <ele>217.80000305176</ele>
        <time>2021-03-12T13:13:33.000Z</time>
      </trkpt>
      <trkpt lat="46.47764" lon="5.22399">
        <ele>217.60000610352</ele>
        <time>2021-03-12T13:13:35.000Z</time>
      </trkpt>
      <trkpt lat="46.47754" lon="5.22398">
        <ele>217.39999389648</ele>
        <time>2021-03-12T13:13:37.000Z</time>
      </trkpt>
      <trkpt lat="46.47743" lon="5.22397">
        <ele>217.39999389648</ele>
        <time>2021-03-12T13:13:39.000Z</time>
      </trkpt>
      <trkpt lat="46.47732" lon="5.22396">
        <ele>217.19999694824</ele>
        <time>2021-03-12T13:13:41.000Z</time>
      </trkpt>
      <trkpt lat="46.47722" lon="5.22396">
        <ele>217.19999694824</ele>
        <time>2021-03-12T13:13:43.000Z</time>
      </trkpt>
      <trkpt lat="46.47712" lon="5.22396">
        <ele>217.19999694824</ele>
        <time>2021-03-12T13:13:45.000Z</time>
      </trkpt>
      <trkpt lat="46.47701" lon="5.22395">
        <ele>217.19999694824</ele>
        <time>2021-03-12T13:13:47.000Z</time>
      </trkpt>
      <trkpt lat="46.4769" lon="5.22395">
        <ele>217.19999694824</ele>
        <time>2021-03-12T13:13:49.000Z</time>
      </trkpt>
      <trkpt lat="46.47677" lon="5.22394">
        <ele>217.19999694824</ele>
        <time>2021-03-12T13:13:51.000Z</time>
      </trkpt>
      <trkpt lat="46.47664" lon="5.22391">
        <ele>217.19999694824</ele>
        <time>2021-03-12T13:13:53.000Z</time>
      </trkpt>
      <trkpt lat="46.47651" lon="5.22387">
        <ele>217.19999694824</ele>
        <time>2021-03-12T13:13:55.000Z</time>
      </trkpt>
      <trkpt lat="46.47638" lon="5.22383">
        <ele>217.19999694824</ele>
        <time>2021-03-12T13:13:57.000Z</time>
      </trkpt>
      <trkpt lat="46.47626" lon="5.22378">
        <ele>217.19999694824</ele>
        <time>2021-03-12T13:13:59.000Z</time>
      </trkpt>
      <trkpt lat="46.47614" lon="5.22374">
        <ele>216.60000610352</ele>
        <time>2021-03-12T13:14:01.000Z</time>
      </trkpt>
      <trkpt lat="46.47601" lon="5.22368">
        <ele>215.60000610352</ele>
        <time>2021-03-12T13:14:03.000Z</time>
      </trkpt>
      <trkpt lat="46.47588" lon="5.22364">
        <ele>215.39999389648</ele>
        <time>2021-03-12T13:14:05.000Z</time>
      </trkpt>
      <trkpt lat="46.47575" lon="5.22359">
        <ele>215.19999694824</ele>
        <time>2021-03-12T13:14:07.000Z</time>
      </trkpt>
      <trkpt lat="46.47563" lon="5.22353">
        <ele>214.80000305176</ele>
        <time>2021-03-12T13:14:09.000Z</time>
      </trkpt>
      <trkpt lat="46.4755" lon="5.22347">
        <ele>214.60000610352</ele>
        <time>2021-03-12T13:14:11.000Z</time>
      </trkpt>
      <trkpt lat="46.47538" lon="5.2234">
        <ele>214.60000610352</ele>
        <time>2021-03-12T13:14:13.000Z</time>
      </trkpt>
      <trkpt lat="46.47526" lon="5.22333">
        <ele>214.39999389648</ele>
        <time>2021-03-12T13:14:15.000Z</time>
      </trkpt>
      <trkpt lat="46.47513" lon="5.22327">
        <ele>214.39999389648</ele>
        <time>2021-03-12T13:14:17.000Z</time>
      </trkpt>
      <trkpt lat="46.47507" lon="5.22324">
        <ele>214.39999389648</ele>
        <time>2021-03-12T13:14:18.000Z</time>
      </trkpt>
      <trkpt lat="46.47501" lon="5.2232">
        <ele>214.39999389648</ele>
        <time>2021-03-12T13:14:19.000Z</time>
      </trkpt>
      <trkpt lat="46.47489" lon="5.22314">
        <ele>214.39999389648</ele>
        <time>2021-03-12T13:14:21.000Z</time>
      </trkpt>
      <trkpt lat="46.47477" lon="5.22308">
        <ele>214.39999389648</ele>
        <time>2021-03-12T13:14:23.000Z</time>
      </trkpt>
      <trkpt lat="46.47465" lon="5.22302">
        <ele>214.39999389648</ele>
        <time>2021-03-12T13:14:25.000Z</time>
      </trkpt>
      <trkpt lat="46.47453" lon="5.22296">
        <ele>214.39999389648</ele>
        <time>2021-03-12T13:14:27.000Z</time>
      </trkpt>
      <trkpt lat="46.47442" lon="5.22291">
        <ele>214.39999389648</ele>
        <time>2021-03-12T13:14:29.000Z</time>
      </trkpt>
      <trkpt lat="46.4743" lon="5.22286">
        <ele>214.60000610352</ele>
        <time>2021-03-12T13:14:31.000Z</time>
      </trkpt>
      <trkpt lat="46.47419" lon="5.22279">
        <ele>214.60000610352</ele>
        <time>2021-03-12T13:14:33.000Z</time>
      </trkpt>
      <trkpt lat="46.47408" lon="5.22272">
        <ele>214.80000305176</ele>
        <time>2021-03-12T13:14:35.000Z</time>
      </trkpt>
      <trkpt lat="46.47397" lon="5.22266">
        <ele>215</ele>
        <time>2021-03-12T13:14:37.000Z</time>
      </trkpt>
      <trkpt lat="46.47385" lon="5.22259">
        <ele>215.19999694824</ele>
        <time>2021-03-12T13:14:39.000Z</time>
      </trkpt>
      <trkpt lat="46.47374" lon="5.22253">
        <ele>215.39999389648</ele>
        <time>2021-03-12T13:14:41.000Z</time>
      </trkpt>
      <trkpt lat="46.47362" lon="5.22246">
        <ele>215.39999389648</ele>
        <time>2021-03-12T13:14:43.000Z</time>
      </trkpt>
      <trkpt lat="46.47349" lon="5.2224">
        <ele>215.39999389648</ele>
        <time>2021-03-12T13:14:45.000Z</time>
      </trkpt>
      <trkpt lat="46.47335" lon="5.22234">
        <ele>215.39999389648</ele>
        <time>2021-03-12T13:14:47.000Z</time>
      </trkpt>
      <trkpt lat="46.47328" lon="5.22231">
        <ele>215.39999389648</ele>
        <time>2021-03-12T13:14:48.000Z</time>
      </trkpt>
      <trkpt lat="46.4732" lon="5.22228">
        <ele>215.39999389648</ele>
        <time>2021-03-12T13:14:49.000Z</time>
      </trkpt>
      <trkpt lat="46.47306" lon="5.22222">
        <ele>215.19999694824</ele>
        <time>2021-03-12T13:14:51.000Z</time>
      </trkpt>
      <trkpt lat="46.47291" lon="5.22217">
        <ele>215</ele>
        <time>2021-03-12T13:14:53.000Z</time>
      </trkpt>
      <trkpt lat="46.47276" lon="5.22211">
        <ele>214.39999389648</ele>
        <time>2021-03-12T13:14:55.000Z</time>
      </trkpt>
      <trkpt lat="46.47268" lon="5.22208">
        <ele>214</ele>
        <time>2021-03-12T13:14:56.000Z</time>
      </trkpt>
      <trkpt lat="46.4726" lon="5.22205">
        <ele>213.80000305176</ele>
        <time>2021-03-12T13:14:57.000Z</time>
      </trkpt>
      <trkpt lat="46.47252" lon="5.22202">
        <ele>213.60000610352</ele>
        <time>2021-03-12T13:14:58.000Z</time>
      </trkpt>
      <trkpt lat="46.47245" lon="5.22199">
        <ele>213.19999694824</ele>
        <time>2021-03-12T13:14:59.000Z</time>
      </trkpt>
      <trkpt lat="46.47229" lon="5.22193">
        <ele>212.60000610352</ele>
        <time>2021-03-12T13:15:01.000Z</time>
      </trkpt>
      <trkpt lat="46.47214" lon="5.22187">
        <ele>212.19999694824</ele>
        <time>2021-03-12T13:15:03.000Z</time>
      </trkpt>
      <trkpt lat="46.47199" lon="5.22181">
        <ele>211.80000305176</ele>
        <time>2021-03-12T13:15:05.000Z</time>
      </trkpt>
      <trkpt lat="46.47191" lon="5.22179">
        <ele>211.39999389648</ele>
        <time>2021-03-12T13:15:06.000Z</time>
      </trkpt>
      <trkpt lat="46.47184" lon="5.22176">
        <ele>211.19999694824</ele>
        <time>2021-03-12T13:15:07.000Z</time>
      </trkpt>
      <trkpt lat="46.47169" lon="5.2217">
        <ele>210.39999389648</ele>
        <time>2021-03-12T13:15:09.000Z</time>
      </trkpt>
      <trkpt lat="46.47153" lon="5.22165">
        <ele>209.60000610352</ele>
        <time>2021-03-12T13:15:11.000Z</time>
      </trkpt>
      <trkpt lat="46.47146" lon="5.22162">
        <ele>209.19999694824</ele>
        <time>2021-03-12T13:15:12.000Z</time>
      </trkpt>
      <trkpt lat="46.47139" lon="5.22159">
        <ele>208.80000305176</ele>
        <time>2021-03-12T13:15:13.000Z</time>
      </trkpt>
      <trkpt lat="46.47131" lon="5.22157">
        <ele>208.80000305176</ele>
        <time>2021-03-12T13:15:14.000Z</time>
      </trkpt>
      <trkpt lat="46.47124" lon="5.22154">
        <ele>208.60000610352</ele>
        <time>2021-03-12T13:15:15.000Z</time>
      </trkpt>
      <trkpt lat="46.4711" lon="5.22149">
        <ele>208.39999389648</ele>
        <time>2021-03-12T13:15:17.000Z</time>
      </trkpt>
      <trkpt lat="46.47096" lon="5.22144">
        <ele>208.39999389648</ele>
        <time>2021-03-12T13:15:19.000Z</time>
      </trkpt>
      <trkpt lat="46.47081" lon="5.22139">
        <ele>208</ele>
        <time>2021-03-12T13:15:21.000Z</time>
      </trkpt>
      <trkpt lat="46.47067" lon="5.22134">
        <ele>207.80000305176</ele>
        <time>2021-03-12T13:15:23.000Z</time>
      </trkpt>
      <trkpt lat="46.47052" lon="5.2213">
        <ele>207.60000610352</ele>
        <time>2021-03-12T13:15:25.000Z</time>
      </trkpt>
      <trkpt lat="46.47037" lon="5.22126">
        <ele>207.39999389648</ele>
        <time>2021-03-12T13:15:27.000Z</time>
      </trkpt>
      <trkpt lat="46.47021" lon="5.22125">
        <ele>206.60000610352</ele>
        <time>2021-03-12T13:15:29.000Z</time>
      </trkpt>
      <trkpt lat="46.47013" lon="5.22125">
        <ele>206.39999389648</ele>
        <time>2021-03-12T13:15:30.000Z</time>
      </trkpt>
      <trkpt lat="46.47005" lon="5.22126">
        <ele>206.19999694824</ele>
        <time>2021-03-12T13:15:31.000Z</time>
      </trkpt>
      <trkpt lat="46.46988" lon="5.22127">
        <ele>205.60000610352</ele>
        <time>2021-03-12T13:15:33.000Z</time>
      </trkpt>
      <trkpt lat="46.46971" lon="5.22129">
        <ele>204.80000305176</ele>
        <time>2021-03-12T13:15:35.000Z</time>
      </trkpt>
      <trkpt lat="46.46962" lon="5.22129">
        <ele>204.39999389648</ele>
        <time>2021-03-12T13:15:36.000Z</time>
      </trkpt>
      <trkpt lat="46.46954" lon="5.2213">
        <ele>203.60000610352</ele>
        <time>2021-03-12T13:15:37.000Z</time>
      </trkpt>
      <trkpt lat="46.46945" lon="5.2213">
        <ele>203.19999694824</ele>
        <time>2021-03-12T13:15:38.000Z</time>
      </trkpt>
      <trkpt lat="46.46936" lon="5.2213">
        <ele>202.80000305176</ele>
        <time>2021-03-12T13:15:39.000Z</time>
      </trkpt>
      <trkpt lat="46.46919" lon="5.22131">
        <ele>202.19999694824</ele>
        <time>2021-03-12T13:15:41.000Z</time>
      </trkpt>
      <trkpt lat="46.46911" lon="5.2213">
        <ele>201.60000610352</ele>
        <time>2021-03-12T13:15:42.000Z</time>
      </trkpt>
      <trkpt lat="46.46903" lon="5.22129">
        <ele>201.19999694824</ele>
        <time>2021-03-12T13:15:43.000Z</time>
      </trkpt>
      <trkpt lat="46.46896" lon="5.22126">
        <ele>200.60000610352</ele>
        <time>2021-03-12T13:15:44.000Z</time>
      </trkpt>
      <trkpt lat="46.46889" lon="5.22122">
        <ele>200.19999694824</ele>
        <time>2021-03-12T13:15:45.000Z</time>
      </trkpt>
      <trkpt lat="46.46879" lon="5.22112">
        <ele>200</ele>
        <time>2021-03-12T13:15:47.000Z</time>
      </trkpt>
      <trkpt lat="46.46874" lon="5.22107">
        <ele>199.80000305176</ele>
        <time>2021-03-12T13:15:48.000Z</time>
      </trkpt>
      <trkpt lat="46.46871" lon="5.22101">
        <ele>199.80000305176</ele>
        <time>2021-03-12T13:15:49.000Z</time>
      </trkpt>
      <trkpt lat="46.46865" lon="5.22089">
        <ele>199.80000305176</ele>
        <time>2021-03-12T13:15:51.000Z</time>
      </trkpt>
      <trkpt lat="46.4686" lon="5.22077">
        <ele>199.80000305176</ele>
        <time>2021-03-12T13:15:53.000Z</time>
      </trkpt>
      <trkpt lat="46.46855" lon="5.22065">
        <ele>200.19999694824</ele>
        <time>2021-03-12T13:15:55.000Z</time>
      </trkpt>
      <trkpt lat="46.4685" lon="5.22053">
        <ele>201.19999694824</ele>
        <time>2021-03-12T13:15:57.000Z</time>
      </trkpt>
      <trkpt lat="46.46847" lon="5.22048">
        <ele>201.60000610352</ele>
        <time>2021-03-12T13:15:58.000Z</time>
      </trkpt>
      <trkpt lat="46.46845" lon="5.22043">
        <ele>202.19999694824</ele>
        <time>2021-03-12T13:15:59.000Z</time>
      </trkpt>
      <trkpt lat="46.46842" lon="5.22038">
        <ele>202.60000610352</ele>
        <time>2021-03-12T13:16:00.000Z</time>
      </trkpt>
      <trkpt lat="46.4684" lon="5.22033">
        <ele>203</ele>
        <time>2021-03-12T13:16:01.000Z</time>
      </trkpt>
      <trkpt lat="46.46837" lon="5.22028">
        <ele>203.80000305176</ele>
        <time>2021-03-12T13:16:02.000Z</time>
      </trkpt>
      <trkpt lat="46.46835" lon="5.22023">
        <ele>204</ele>
        <time>2021-03-12T13:16:03.000Z</time>
      </trkpt>
      <trkpt lat="46.46829" lon="5.22015">
        <ele>204.39999389648</ele>
        <time>2021-03-12T13:16:05.000Z</time>
      </trkpt>
      <trkpt lat="46.46823" lon="5.22007">
        <ele>205</ele>
        <time>2021-03-12T13:16:07.000Z</time>
      </trkpt>
      <trkpt lat="46.46816" lon="5.22001">
        <ele>205.39999389648</ele>
        <time>2021-03-12T13:16:09.000Z</time>
      </trkpt>
      <trkpt lat="46.46809" lon="5.21997">
        <ele>206</ele>
        <time>2021-03-12T13:16:11.000Z</time>
      </trkpt>
      <trkpt lat="46.46801" lon="5.21995">
        <ele>207</ele>
        <time>2021-03-12T13:16:13.000Z</time>
      </trkpt>
      <trkpt lat="46.46797" lon="5.21994">
        <ele>207.39999389648</ele>
        <time>2021-03-12T13:16:14.000Z</time>
      </trkpt>
      <trkpt lat="46.46793" lon="5.21994">
        <ele>207.60000610352</ele>
        <time>2021-03-12T13:16:15.000Z</time>
      </trkpt>
      <trkpt lat="46.46789" lon="5.21995">
        <ele>208</ele>
        <time>2021-03-12T13:16:16.000Z</time>
      </trkpt>
      <trkpt lat="46.46785" lon="5.21997">
        <ele>208.39999389648</ele>
        <time>2021-03-12T13:16:17.000Z</time>
      </trkpt>
      <trkpt lat="46.46777" lon="5.22">
        <ele>209</ele>
        <time>2021-03-12T13:16:19.000Z</time>
      </trkpt>
      <trkpt lat="46.46769" lon="5.22004">
        <ele>209.60000610352</ele>
        <time>2021-03-12T13:16:21.000Z</time>
      </trkpt>
      <trkpt lat="46.46761" lon="5.22007">
        <ele>210</ele>
        <time>2021-03-12T13:16:23.000Z</time>
      </trkpt>
      <trkpt lat="46.46752" lon="5.2201">
        <ele>210.19999694824</ele>
        <time>2021-03-12T13:16:25.000Z</time>
      </trkpt>
      <trkpt lat="46.46744" lon="5.22012">
        <ele>210.80000305176</ele>
        <time>2021-03-12T13:16:27.000Z</time>
      </trkpt>
      <trkpt lat="46.4674" lon="5.22012">
        <ele>211</ele>
        <time>2021-03-12T13:16:28.000Z</time>
      </trkpt>
      <trkpt lat="46.46736" lon="5.22012">
        <ele>211.19999694824</ele>
        <time>2021-03-12T13:16:29.000Z</time>
      </trkpt>
      <trkpt lat="46.46727" lon="5.22013">
        <ele>211.60000610352</ele>
        <time>2021-03-12T13:16:31.000Z</time>
      </trkpt>
      <trkpt lat="46.46719" lon="5.22013">
        <ele>211.80000305176</ele>
        <time>2021-03-12T13:16:33.000Z</time>
      </trkpt>
      <trkpt lat="46.46714" lon="5.22013">
        <ele>212</ele>
        <time>2021-03-12T13:16:34.000Z</time>
      </trkpt>
      <trkpt lat="46.4671" lon="5.22013">
        <ele>212</ele>
        <time>2021-03-12T13:16:35.000Z</time>
      </trkpt>
      <trkpt lat="46.46702" lon="5.22014">
        <ele>212.39999389648</ele>
        <time>2021-03-12T13:16:37.000Z</time>
      </trkpt>
      <trkpt lat="46.46698" lon="5.22014">
        <ele>212.60000610352</ele>
        <time>2021-03-12T13:16:38.000Z</time>
      </trkpt>
      <trkpt lat="46.46693" lon="5.22014">
        <ele>212.60000610352</ele>
        <time>2021-03-12T13:16:39.000Z</time>
      </trkpt>
      <trkpt lat="46.46685" lon="5.22014">
        <ele>213</ele>
        <time>2021-03-12T13:16:41.000Z</time>
      </trkpt>
      <trkpt lat="46.46681" lon="5.22015">
        <ele>213</ele>
        <time>2021-03-12T13:16:42.000Z</time>
      </trkpt>
      <trkpt lat="46.46677" lon="5.22015">
        <ele>213.19999694824</ele>
        <time>2021-03-12T13:16:43.000Z</time>
      </trkpt>
      <trkpt lat="46.46669" lon="5.22015">
        <ele>213.39999389648</ele>
        <time>2021-03-12T13:16:45.000Z</time>
      </trkpt>
      <trkpt lat="46.46661" lon="5.22015">
        <ele>213.60000610352</ele>
        <time>2021-03-12T13:16:47.000Z</time>
      </trkpt>
      <trkpt lat="46.46657" lon="5.22016">
        <ele>213.80000305176</ele>
        <time>2021-03-12T13:16:48.000Z</time>
      </trkpt>
      <trkpt lat="46.46653" lon="5.22016">
        <ele>214</ele>
        <time>2021-03-12T13:16:49.000Z</time>
      </trkpt>
      <trkpt lat="46.46649" lon="5.22016">
        <ele>214.19999694824</ele>
        <time>2021-03-12T13:16:50.000Z</time>
      </trkpt>
      <trkpt lat="46.46644" lon="5.22016">
        <ele>214.39999389648</ele>
        <time>2021-03-12T13:16:51.000Z</time>
      </trkpt>
      <trkpt lat="46.46636" lon="5.22017">
        <ele>214.60000610352</ele>
        <time>2021-03-12T13:16:53.000Z</time>
      </trkpt>
      <trkpt lat="46.46628" lon="5.22018">
        <ele>214.80000305176</ele>
        <time>2021-03-12T13:16:55.000Z</time>
      </trkpt>
      <trkpt lat="46.46619" lon="5.22019">
        <ele>215.39999389648</ele>
        <time>2021-03-12T13:16:57.000Z</time>
      </trkpt>
      <trkpt lat="46.4661" lon="5.22022">
        <ele>215.60000610352</ele>
        <time>2021-03-12T13:16:59.000Z</time>
      </trkpt>
      <trkpt lat="46.466" lon="5.22024">
        <ele>216</ele>
        <time>2021-03-12T13:17:01.000Z</time>
      </trkpt>
      <trkpt lat="46.46591" lon="5.22027">
        <ele>216.19999694824</ele>
        <time>2021-03-12T13:17:03.000Z</time>
      </trkpt>
      <trkpt lat="46.46586" lon="5.22028">
        <ele>216.39999389648</ele>
        <time>2021-03-12T13:17:04.000Z</time>
      </trkpt>
      <trkpt lat="46.46581" lon="5.22029">
        <ele>216.39999389648</ele>
        <time>2021-03-12T13:17:05.000Z</time>
      </trkpt>
      <trkpt lat="46.46571" lon="5.2203">
        <ele>216.39999389648</ele>
        <time>2021-03-12T13:17:07.000Z</time>
      </trkpt>
      <trkpt lat="46.46561" lon="5.22029">
        <ele>216.60000610352</ele>
        <time>2021-03-12T13:17:09.000Z</time>
      </trkpt>
      <trkpt lat="46.46556" lon="5.22028">
        <ele>216.60000610352</ele>
        <time>2021-03-12T13:17:10.000Z</time>
      </trkpt>
      <trkpt lat="46.46552" lon="5.22027">
        <ele>216.60000610352</ele>
        <time>2021-03-12T13:17:11.000Z</time>
      </trkpt>
      <trkpt lat="46.46542" lon="5.22024">
        <ele>216.60000610352</ele>
        <time>2021-03-12T13:17:13.000Z</time>
      </trkpt>
      <trkpt lat="46.46533" lon="5.22021">
        <ele>216.80000305176</ele>
        <time>2021-03-12T13:17:15.000Z</time>
      </trkpt>
      <trkpt lat="46.46523" lon="5.22017">
        <ele>216.80000305176</ele>
        <time>2021-03-12T13:17:17.000Z</time>
      </trkpt>
      <trkpt lat="46.46518" lon="5.22015">
        <ele>217</ele>
        <time>2021-03-12T13:17:18.000Z</time>
      </trkpt>
      <trkpt lat="46.46513" lon="5.22013">
        <ele>217</ele>
        <time>2021-03-12T13:17:19.000Z</time>
      </trkpt>
      <trkpt lat="46.46503" lon="5.22009">
        <ele>217.19999694824</ele>
        <time>2021-03-12T13:17:21.000Z</time>
      </trkpt>
      <trkpt lat="46.46498" lon="5.22007">
        <ele>217.39999389648</ele>
        <time>2021-03-12T13:17:22.000Z</time>
      </trkpt>
      <trkpt lat="46.46493" lon="5.22006">
        <ele>217.39999389648</ele>
        <time>2021-03-12T13:17:23.000Z</time>
      </trkpt>
      <trkpt lat="46.46483" lon="5.22002">
        <ele>217.60000610352</ele>
        <time>2021-03-12T13:17:25.000Z</time>
      </trkpt>
      <trkpt lat="46.46473" lon="5.21998">
        <ele>217.60000610352</ele>
        <time>2021-03-12T13:17:27.000Z</time>
      </trkpt>
      <trkpt lat="46.46468" lon="5.21996">
        <ele>217.60000610352</ele>
        <time>2021-03-12T13:17:28.000Z</time>
      </trkpt>
      <trkpt lat="46.46462" lon="5.21995">
        <ele>217.60000610352</ele>
        <time>2021-03-12T13:17:29.000Z</time>
      </trkpt>
      <trkpt lat="46.4645" lon="5.21993">
        <ele>217.60000610352</ele>
        <time>2021-03-12T13:17:31.000Z</time>
      </trkpt>
      <trkpt lat="46.46438" lon="5.21991">
        <ele>217.60000610352</ele>
        <time>2021-03-12T13:17:33.000Z</time>
      </trkpt>
      <trkpt lat="46.46425" lon="5.2199">
        <ele>217.39999389648</ele>
        <time>2021-03-12T13:17:35.000Z</time>
      </trkpt>
      <trkpt lat="46.46412" lon="5.21989">
        <ele>217.19999694824</ele>
        <time>2021-03-12T13:17:37.000Z</time>
      </trkpt>
      <trkpt lat="46.46398" lon="5.21986">
        <ele>217.19999694824</ele>
        <time>2021-03-12T13:17:39.000Z</time>
      </trkpt>
      <trkpt lat="46.46384" lon="5.21981">
        <ele>217</ele>
        <time>2021-03-12T13:17:41.000Z</time>
      </trkpt>
      <trkpt lat="46.46369" lon="5.21975">
        <ele>216.80000305176</ele>
        <time>2021-03-12T13:17:43.000Z</time>
      </trkpt>
      <trkpt lat="46.46355" lon="5.21968">
        <ele>216.39999389648</ele>
        <time>2021-03-12T13:17:45.000Z</time>
      </trkpt>
      <trkpt lat="46.46348" lon="5.21965">
        <ele>216.39999389648</ele>
        <time>2021-03-12T13:17:46.000Z</time>
      </trkpt>
      <trkpt lat="46.46341" lon="5.21961">
        <ele>216</ele>
        <time>2021-03-12T13:17:47.000Z</time>
      </trkpt>
      <trkpt lat="46.46327" lon="5.21952">
        <ele>215</ele>
        <time>2021-03-12T13:17:49.000Z</time>
      </trkpt>
      <trkpt lat="46.46312" lon="5.21944">
        <ele>214.39999389648</ele>
        <time>2021-03-12T13:17:51.000Z</time>
      </trkpt>
      <trkpt lat="46.46297" lon="5.21935">
        <ele>214</ele>
        <time>2021-03-12T13:17:53.000Z</time>
      </trkpt>
      <trkpt lat="46.46283" lon="5.21923">
        <ele>213.39999389648</ele>
        <time>2021-03-12T13:17:55.000Z</time>
      </trkpt>
      <trkpt lat="46.46276" lon="5.21916">
        <ele>213.19999694824</ele>
        <time>2021-03-12T13:17:56.000Z</time>
      </trkpt>
      <trkpt lat="46.4627" lon="5.21909">
        <ele>212.80000305176</ele>
        <time>2021-03-12T13:17:57.000Z</time>
      </trkpt>
      <trkpt lat="46.46258" lon="5.21894">
        <ele>211.80000305176</ele>
        <time>2021-03-12T13:17:59.000Z</time>
      </trkpt>
      <trkpt lat="46.46253" lon="5.21886">
        <ele>211.39999389648</ele>
        <time>2021-03-12T13:18:00.000Z</time>
      </trkpt>
      <trkpt lat="46.46248" lon="5.21878">
        <ele>210.60000610352</ele>
        <time>2021-03-12T13:18:01.000Z</time>
      </trkpt>
      <trkpt lat="46.46238" lon="5.21863">
        <ele>210.19999694824</ele>
        <time>2021-03-12T13:18:03.000Z</time>
      </trkpt>
      <trkpt lat="46.46229" lon="5.21848">
        <ele>210</ele>
        <time>2021-03-12T13:18:05.000Z</time>
      </trkpt>
      <trkpt lat="46.46221" lon="5.21834">
        <ele>210</ele>
        <time>2021-03-12T13:18:07.000Z</time>
      </trkpt>
      <trkpt lat="46.46216" lon="5.21828">
        <ele>210</ele>
        <time>2021-03-12T13:18:08.000Z</time>
      </trkpt>
      <trkpt lat="46.46212" lon="5.21822">
        <ele>210</ele>
        <time>2021-03-12T13:18:09.000Z</time>
      </trkpt>
      <trkpt lat="46.46205" lon="5.21809">
        <ele>210</ele>
        <time>2021-03-12T13:18:11.000Z</time>
      </trkpt>
      <trkpt lat="46.46198" lon="5.21798">
        <ele>210</ele>
        <time>2021-03-12T13:18:13.000Z</time>
      </trkpt>
      <trkpt lat="46.46191" lon="5.21788">
        <ele>210.39999389648</ele>
        <time>2021-03-12T13:18:15.000Z</time>
      </trkpt>
      <trkpt lat="46.46185" lon="5.21778">
        <ele>210.80000305176</ele>
        <time>2021-03-12T13:18:17.000Z</time>
      </trkpt>
      <trkpt lat="46.46179" lon="5.21767">
        <ele>211.39999389648</ele>
        <time>2021-03-12T13:18:19.000Z</time>
      </trkpt>
      <trkpt lat="46.46174" lon="5.21758">
        <ele>211.80000305176</ele>
        <time>2021-03-12T13:18:21.000Z</time>
      </trkpt>
      <trkpt lat="46.46171" lon="5.21752">
        <ele>211.80000305176</ele>
        <time>2021-03-12T13:18:22.000Z</time>
      </trkpt>
      <trkpt lat="46.46168" lon="5.21747">
        <ele>212</ele>
        <time>2021-03-12T13:18:23.000Z</time>
      </trkpt>
      <trkpt lat="46.46162" lon="5.21737">
        <ele>212.60000610352</ele>
        <time>2021-03-12T13:18:25.000Z</time>
      </trkpt>
      <trkpt lat="46.46157" lon="5.21728">
        <ele>214.39999389648</ele>
        <time>2021-03-12T13:18:27.000Z</time>
      </trkpt>
      <trkpt lat="46.46154" lon="5.21723">
        <ele>214.80000305176</ele>
        <time>2021-03-12T13:18:28.000Z</time>
      </trkpt>
      <trkpt lat="46.46152" lon="5.21719">
        <ele>215.19999694824</ele>
        <time>2021-03-12T13:18:29.000Z</time>
      </trkpt>
      <trkpt lat="46.4615" lon="5.21714">
        <ele>215.39999389648</ele>
        <time>2021-03-12T13:18:30.000Z</time>
      </trkpt>
      <trkpt lat="46.46148" lon="5.2171">
        <ele>215.60000610352</ele>
        <time>2021-03-12T13:18:31.000Z</time>
      </trkpt>
      <trkpt lat="46.46143" lon="5.21699">
        <ele>215.80000305176</ele>
        <time>2021-03-12T13:18:33.000Z</time>
      </trkpt>
      <trkpt lat="46.46136" lon="5.21688">
        <ele>216.39999389648</ele>
        <time>2021-03-12T13:18:35.000Z</time>
      </trkpt>
      <trkpt lat="46.46126" lon="5.21675">
        <ele>216.80000305176</ele>
        <time>2021-03-12T13:18:37.000Z</time>
      </trkpt>
      <trkpt lat="46.46121" lon="5.21669">
        <ele>216.80000305176</ele>
        <time>2021-03-12T13:18:38.000Z</time>
      </trkpt>
      <trkpt lat="46.46115" lon="5.21663">
        <ele>217</ele>
        <time>2021-03-12T13:18:39.000Z</time>
      </trkpt>
      <trkpt lat="46.46104" lon="5.21652">
        <ele>217</ele>
        <time>2021-03-12T13:18:41.000Z</time>
      </trkpt>
      <trkpt lat="46.46093" lon="5.2164">
        <ele>217</ele>
        <time>2021-03-12T13:18:43.000Z</time>
      </trkpt>
      <trkpt lat="46.46083" lon="5.21628">
        <ele>217</ele>
        <time>2021-03-12T13:18:45.000Z</time>
      </trkpt>
      <trkpt lat="46.46078" lon="5.21622">
        <ele>217</ele>
        <time>2021-03-12T13:18:46.000Z</time>
      </trkpt>
      <trkpt lat="46.46074" lon="5.21616">
        <ele>217</ele>
        <time>2021-03-12T13:18:47.000Z</time>
      </trkpt>
      <trkpt lat="46.46064" lon="5.21605">
        <ele>217</ele>
        <time>2021-03-12T13:18:49.000Z</time>
      </trkpt>
      <trkpt lat="46.46054" lon="5.21594">
        <ele>217</ele>
        <time>2021-03-12T13:18:51.000Z</time>
      </trkpt>
      <trkpt lat="46.46044" lon="5.21584">
        <ele>216.80000305176</ele>
        <time>2021-03-12T13:18:53.000Z</time>
      </trkpt>
      <trkpt lat="46.46034" lon="5.21573">
        <ele>216.80000305176</ele>
        <time>2021-03-12T13:18:55.000Z</time>
      </trkpt>
      <trkpt lat="46.46024" lon="5.21564">
        <ele>216.80000305176</ele>
        <time>2021-03-12T13:18:57.000Z</time>
      </trkpt>
      <trkpt lat="46.46013" lon="5.21556">
        <ele>216.80000305176</ele>
        <time>2021-03-12T13:18:59.000Z</time>
      </trkpt>
      <trkpt lat="46.46002" lon="5.21548">
        <ele>216.80000305176</ele>
        <time>2021-03-12T13:19:01.000Z</time>
      </trkpt>
      <trkpt lat="46.45997" lon="5.21544">
        <ele>216.80000305176</ele>
        <time>2021-03-12T13:19:02.000Z</time>
      </trkpt>
      <trkpt lat="46.45991" lon="5.21541">
        <ele>216.80000305176</ele>
        <time>2021-03-12T13:19:03.000Z</time>
      </trkpt>
      <trkpt lat="46.45981" lon="5.21535">
        <ele>217</ele>
        <time>2021-03-12T13:19:05.000Z</time>
      </trkpt>
      <trkpt lat="46.4597" lon="5.2153">
        <ele>217.19999694824</ele>
        <time>2021-03-12T13:19:07.000Z</time>
      </trkpt>
      <trkpt lat="46.4596" lon="5.21525">
        <ele>217.19999694824</ele>
        <time>2021-03-12T13:19:09.000Z</time>
      </trkpt>
      <trkpt lat="46.4595" lon="5.21521">
        <ele>217.39999389648</ele>
        <time>2021-03-12T13:19:11.000Z</time>
      </trkpt>
      <trkpt lat="46.45945" lon="5.21519">
        <ele>217.60000610352</ele>
        <time>2021-03-12T13:19:12.000Z</time>
      </trkpt>
      <trkpt lat="46.45939" lon="5.21517">
        <ele>217.80000305176</ele>
        <time>2021-03-12T13:19:13.000Z</time>
      </trkpt>
      <trkpt lat="46.45929" lon="5.21513">
        <ele>218</ele>
        <time>2021-03-12T13:19:15.000Z</time>
      </trkpt>
      <trkpt lat="46.45918" lon="5.21509">
        <ele>218.19999694824</ele>
        <time>2021-03-12T13:19:17.000Z</time>
      </trkpt>
      <trkpt lat="46.45907" lon="5.21506">
        <ele>218.60000610352</ele>
        <time>2021-03-12T13:19:19.000Z</time>
      </trkpt>
      <trkpt lat="46.45901" lon="5.21505">
        <ele>218.80000305176</ele>
        <time>2021-03-12T13:19:20.000Z</time>
      </trkpt>
      <trkpt lat="46.45896" lon="5.21503">
        <ele>218.80000305176</ele>
        <time>2021-03-12T13:19:21.000Z</time>
      </trkpt>
      <trkpt lat="46.45885" lon="5.21501">
        <ele>219</ele>
        <time>2021-03-12T13:19:23.000Z</time>
      </trkpt>
      <trkpt lat="46.45875" lon="5.21498">
        <ele>219.19999694824</ele>
        <time>2021-03-12T13:19:25.000Z</time>
      </trkpt>
      <trkpt lat="46.45864" lon="5.21495">
        <ele>219.19999694824</ele>
        <time>2021-03-12T13:19:27.000Z</time>
      </trkpt>
      <trkpt lat="46.45854" lon="5.21493">
        <ele>219.19999694824</ele>
        <time>2021-03-12T13:19:29.000Z</time>
      </trkpt>
      <trkpt lat="46.45843" lon="5.21491">
        <ele>219.39999389648</ele>
        <time>2021-03-12T13:19:31.000Z</time>
      </trkpt>
      <trkpt lat="46.45838" lon="5.21491">
        <ele>219.39999389648</ele>
        <time>2021-03-12T13:19:32.000Z</time>
      </trkpt>
      <trkpt lat="46.45833" lon="5.2149">
        <ele>219.39999389648</ele>
        <time>2021-03-12T13:19:33.000Z</time>
      </trkpt>
      <trkpt lat="46.45823" lon="5.2149">
        <ele>219.39999389648</ele>
        <time>2021-03-12T13:19:35.000Z</time>
      </trkpt>
      <trkpt lat="46.45812" lon="5.2149">
        <ele>219.60000610352</ele>
        <time>2021-03-12T13:19:37.000Z</time>
      </trkpt>
      <trkpt lat="46.45807" lon="5.2149">
        <ele>219.80000305176</ele>
        <time>2021-03-12T13:19:38.000Z</time>
      </trkpt>
      <trkpt lat="46.45802" lon="5.21491">
        <ele>220</ele>
        <time>2021-03-12T13:19:39.000Z</time>
      </trkpt>
      <trkpt lat="46.45796" lon="5.21492">
        <ele>220</ele>
        <time>2021-03-12T13:19:40.000Z</time>
      </trkpt>
      <trkpt lat="46.45791" lon="5.21493">
        <ele>220.19999694824</ele>
        <time>2021-03-12T13:19:41.000Z</time>
      </trkpt>
      <trkpt lat="46.4578" lon="5.21497">
        <ele>220.19999694824</ele>
        <time>2021-03-12T13:19:43.000Z</time>
      </trkpt>
      <trkpt lat="46.45769" lon="5.21502">
        <ele>220.19999694824</ele>
        <time>2021-03-12T13:19:45.000Z</time>
      </trkpt>
      <trkpt lat="46.45758" lon="5.21507">
        <ele>220.19999694824</ele>
        <time>2021-03-12T13:19:47.000Z</time>
      </trkpt>
      <trkpt lat="46.45753" lon="5.2151">
        <ele>220.19999694824</ele>
        <time>2021-03-12T13:19:48.000Z</time>
      </trkpt>
      <trkpt lat="46.45747" lon="5.21513">
        <ele>220.19999694824</ele>
        <time>2021-03-12T13:19:49.000Z</time>
      </trkpt>
      <trkpt lat="46.45736" lon="5.21519">
        <ele>220.39999389648</ele>
        <time>2021-03-12T13:19:51.000Z</time>
      </trkpt>
      <trkpt lat="46.45725" lon="5.21527">
        <ele>220.39999389648</ele>
        <time>2021-03-12T13:19:53.000Z</time>
      </trkpt>
      <trkpt lat="46.45715" lon="5.21536">
        <ele>220.39999389648</ele>
        <time>2021-03-12T13:19:55.000Z</time>
      </trkpt>
      <trkpt lat="46.45704" lon="5.21546">
        <ele>220.60000610352</ele>
        <time>2021-03-12T13:19:57.000Z</time>
      </trkpt>
      <trkpt lat="46.45694" lon="5.21559">
        <ele>220.80000305176</ele>
        <time>2021-03-12T13:19:59.000Z</time>
      </trkpt>
      <trkpt lat="46.45689" lon="5.21566">
        <ele>220.80000305176</ele>
        <time>2021-03-12T13:20:00.000Z</time>
      </trkpt>
      <trkpt lat="46.45685" lon="5.21574">
        <ele>220.80000305176</ele>
        <time>2021-03-12T13:20:01.000Z</time>
      </trkpt>
      <trkpt lat="46.45675" lon="5.21589">
        <ele>220.80000305176</ele>
        <time>2021-03-12T13:20:03.000Z</time>
      </trkpt>
      <trkpt lat="46.45665" lon="5.21606">
        <ele>220.80000305176</ele>
        <time>2021-03-12T13:20:05.000Z</time>
      </trkpt>
      <trkpt lat="46.45656" lon="5.21623">
        <ele>220.80000305176</ele>
        <time>2021-03-12T13:20:07.000Z</time>
      </trkpt>
      <trkpt lat="46.45646" lon="5.2164">
        <ele>220.80000305176</ele>
        <time>2021-03-12T13:20:09.000Z</time>
      </trkpt>
      <trkpt lat="46.45636" lon="5.21657">
        <ele>220.60000610352</ele>
        <time>2021-03-12T13:20:11.000Z</time>
      </trkpt>
      <trkpt lat="46.45627" lon="5.21674">
        <ele>220.39999389648</ele>
        <time>2021-03-12T13:20:13.000Z</time>
      </trkpt>
      <trkpt lat="46.45619" lon="5.21691">
        <ele>220.19999694824</ele>
        <time>2021-03-12T13:20:15.000Z</time>
      </trkpt>
      <trkpt lat="46.45614" lon="5.217">
        <ele>220.19999694824</ele>
        <time>2021-03-12T13:20:16.000Z</time>
      </trkpt>
      <trkpt lat="46.4561" lon="5.21709">
        <ele>220.19999694824</ele>
        <time>2021-03-12T13:20:17.000Z</time>
      </trkpt>
      <trkpt lat="46.45603" lon="5.21726">
        <ele>220.19999694824</ele>
        <time>2021-03-12T13:20:19.000Z</time>
      </trkpt>
      <trkpt lat="46.45596" lon="5.21744">
        <ele>220.19999694824</ele>
        <time>2021-03-12T13:20:21.000Z</time>
      </trkpt>
      <trkpt lat="46.45589" lon="5.21761">
        <ele>220</ele>
        <time>2021-03-12T13:20:23.000Z</time>
      </trkpt>
      <trkpt lat="46.45586" lon="5.21769">
        <ele>220</ele>
        <time>2021-03-12T13:20:24.000Z</time>
      </trkpt>
      <trkpt lat="46.45582" lon="5.21777">
        <ele>220</ele>
        <time>2021-03-12T13:20:25.000Z</time>
      </trkpt>
      <trkpt lat="46.45576" lon="5.21794">
        <ele>220.19999694824</ele>
        <time>2021-03-12T13:20:27.000Z</time>
      </trkpt>
      <trkpt lat="46.45569" lon="5.2181">
        <ele>220.39999389648</ele>
        <time>2021-03-12T13:20:29.000Z</time>
      </trkpt>
      <trkpt lat="46.45562" lon="5.21827">
        <ele>220.39999389648</ele>
        <time>2021-03-12T13:20:31.000Z</time>
      </trkpt>
      <trkpt lat="46.45555" lon="5.21843">
        <ele>220.60000610352</ele>
        <time>2021-03-12T13:20:33.000Z</time>
      </trkpt>
      <trkpt lat="46.45548" lon="5.2186">
        <ele>220.80000305176</ele>
        <time>2021-03-12T13:20:35.000Z</time>
      </trkpt>
      <trkpt lat="46.45545" lon="5.21868">
        <ele>220.80000305176</ele>
        <time>2021-03-12T13:20:36.000Z</time>
      </trkpt>
      <trkpt lat="46.45541" lon="5.21876">
        <ele>220.80000305176</ele>
        <time>2021-03-12T13:20:37.000Z</time>
      </trkpt>
      <trkpt lat="46.45534" lon="5.21891">
        <ele>221</ele>
        <time>2021-03-12T13:20:39.000Z</time>
      </trkpt>
      <trkpt lat="46.45527" lon="5.21907">
        <ele>221</ele>
        <time>2021-03-12T13:20:41.000Z</time>
      </trkpt>
      <trkpt lat="46.4552" lon="5.21923">
        <ele>221.19999694824</ele>
        <time>2021-03-12T13:20:43.000Z</time>
      </trkpt>
      <trkpt lat="46.45517" lon="5.21932">
        <ele>221.19999694824</ele>
        <time>2021-03-12T13:20:44.000Z</time>
      </trkpt>
      <trkpt lat="46.45513" lon="5.21941">
        <ele>221.19999694824</ele>
        <time>2021-03-12T13:20:45.000Z</time>
      </trkpt>
      <trkpt lat="46.45506" lon="5.2196">
        <ele>221.19999694824</ele>
        <time>2021-03-12T13:20:47.000Z</time>
      </trkpt>
      <trkpt lat="46.45499" lon="5.21979">
        <ele>221.19999694824</ele>
        <time>2021-03-12T13:20:49.000Z</time>
      </trkpt>
      <trkpt lat="46.45491" lon="5.21999">
        <ele>221.19999694824</ele>
        <time>2021-03-12T13:20:51.000Z</time>
      </trkpt>
      <trkpt lat="46.45484" lon="5.22019">
        <ele>220.60000610352</ele>
        <time>2021-03-12T13:20:53.000Z</time>
      </trkpt>
      <trkpt lat="46.45477" lon="5.2204">
        <ele>220.39999389648</ele>
        <time>2021-03-12T13:20:55.000Z</time>
      </trkpt>
      <trkpt lat="46.4547" lon="5.22061">
        <ele>220.19999694824</ele>
        <time>2021-03-12T13:20:57.000Z</time>
      </trkpt>
      <trkpt lat="46.45463" lon="5.22081">
        <ele>220</ele>
        <time>2021-03-12T13:20:59.000Z</time>
      </trkpt>
      <trkpt lat="46.45456" lon="5.221">
        <ele>220</ele>
        <time>2021-03-12T13:21:01.000Z</time>
      </trkpt>
      <trkpt lat="46.4545" lon="5.22119">
        <ele>219.80000305176</ele>
        <time>2021-03-12T13:21:03.000Z</time>
      </trkpt>
      <trkpt lat="46.45443" lon="5.22137">
        <ele>219.80000305176</ele>
        <time>2021-03-12T13:21:05.000Z</time>
      </trkpt>
      <trkpt lat="46.45436" lon="5.22155">
        <ele>219.80000305176</ele>
        <time>2021-03-12T13:21:07.000Z</time>
      </trkpt>
      <trkpt lat="46.45429" lon="5.2217">
        <ele>219.80000305176</ele>
        <time>2021-03-12T13:21:09.000Z</time>
      </trkpt>
      <trkpt lat="46.45425" lon="5.22178">
        <ele>219.80000305176</ele>
        <time>2021-03-12T13:21:10.000Z</time>
      </trkpt>
      <trkpt lat="46.4542" lon="5.22185">
        <ele>219.80000305176</ele>
        <time>2021-03-12T13:21:11.000Z</time>
      </trkpt>
      <trkpt lat="46.45415" lon="5.22191">
        <ele>219.80000305176</ele>
        <time>2021-03-12T13:21:12.000Z</time>
      </trkpt>
      <trkpt lat="46.4541" lon="5.22198">
        <ele>219.80000305176</ele>
        <time>2021-03-12T13:21:13.000Z</time>
      </trkpt>
      <trkpt lat="46.45399" lon="5.22208">
        <ele>220</ele>
        <time>2021-03-12T13:21:15.000Z</time>
      </trkpt>
      <trkpt lat="46.45393" lon="5.22213">
        <ele>220</ele>
        <time>2021-03-12T13:21:16.000Z</time>
      </trkpt>
      <trkpt lat="46.45387" lon="5.22217">
        <ele>220</ele>
        <time>2021-03-12T13:21:17.000Z</time>
      </trkpt>
      <trkpt lat="46.45374" lon="5.22224">
        <ele>220.19999694824</ele>
        <time>2021-03-12T13:21:19.000Z</time>
      </trkpt>
      <trkpt lat="46.45362" lon="5.22231">
        <ele>220.60000610352</ele>
        <time>2021-03-12T13:21:21.000Z</time>
      </trkpt>
      <trkpt lat="46.45356" lon="5.22234">
        <ele>220.60000610352</ele>
        <time>2021-03-12T13:21:22.000Z</time>
      </trkpt>
      <trkpt lat="46.4535" lon="5.22237">
        <ele>220.60000610352</ele>
        <time>2021-03-12T13:21:23.000Z</time>
      </trkpt>
      <trkpt lat="46.45338" lon="5.22244">
        <ele>220.80000305176</ele>
        <time>2021-03-12T13:21:25.000Z</time>
      </trkpt>
      <trkpt lat="46.45326" lon="5.2225">
        <ele>220.80000305176</ele>
        <time>2021-03-12T13:21:27.000Z</time>
      </trkpt>
      <trkpt lat="46.45321" lon="5.22253">
        <ele>221</ele>
        <time>2021-03-12T13:21:28.000Z</time>
      </trkpt>
      <trkpt lat="46.45315" lon="5.22257">
        <ele>221.19999694824</ele>
        <time>2021-03-12T13:21:29.000Z</time>
      </trkpt>
      <trkpt lat="46.45309" lon="5.2226">
        <ele>221.19999694824</ele>
        <time>2021-03-12T13:21:30.000Z</time>
      </trkpt>
      <trkpt lat="46.45303" lon="5.22263">
        <ele>221.19999694824</ele>
        <time>2021-03-12T13:21:31.000Z</time>
      </trkpt>
      <trkpt lat="46.45291" lon="5.22271">
        <ele>221.19999694824</ele>
        <time>2021-03-12T13:21:33.000Z</time>
      </trkpt>
      <trkpt lat="46.4528" lon="5.22278">
        <ele>221.39999389648</ele>
        <time>2021-03-12T13:21:35.000Z</time>
      </trkpt>
      <trkpt lat="46.45274" lon="5.22282">
        <ele>221.60000610352</ele>
        <time>2021-03-12T13:21:36.000Z</time>
      </trkpt>
      <trkpt lat="46.45269" lon="5.22285">
        <ele>221.60000610352</ele>
        <time>2021-03-12T13:21:37.000Z</time>
      </trkpt>
      <trkpt lat="46.45258" lon="5.22292">
        <ele>221.60000610352</ele>
        <time>2021-03-12T13:21:39.000Z</time>
      </trkpt>
      <trkpt lat="46.45247" lon="5.22299">
        <ele>221.80000305176</ele>
        <time>2021-03-12T13:21:41.000Z</time>
      </trkpt>
      <trkpt lat="46.45242" lon="5.22303">
        <ele>221.80000305176</ele>
        <time>2021-03-12T13:21:42.000Z</time>
      </trkpt>
      <trkpt lat="46.45236" lon="5.22307">
        <ele>221.80000305176</ele>
        <time>2021-03-12T13:21:43.000Z</time>
      </trkpt>
      <trkpt lat="46.45231" lon="5.22312">
        <ele>221.80000305176</ele>
        <time>2021-03-12T13:21:44.000Z</time>
      </trkpt>
      <trkpt lat="46.45226" lon="5.22317">
        <ele>222</ele>
        <time>2021-03-12T13:21:45.000Z</time>
      </trkpt>
      <trkpt lat="46.45218" lon="5.22331">
        <ele>222</ele>
        <time>2021-03-12T13:21:47.000Z</time>
      </trkpt>
      <trkpt lat="46.45215" lon="5.22339">
        <ele>222</ele>
        <time>2021-03-12T13:21:48.000Z</time>
      </trkpt>
      <trkpt lat="46.45212" lon="5.22348">
        <ele>222.19999694824</ele>
        <time>2021-03-12T13:21:49.000Z</time>
      </trkpt>
      <trkpt lat="46.45209" lon="5.22356">
        <ele>222.19999694824</ele>
        <time>2021-03-12T13:21:50.000Z</time>
      </trkpt>
      <trkpt lat="46.45206" lon="5.22365">
        <ele>222.19999694824</ele>
        <time>2021-03-12T13:21:51.000Z</time>
      </trkpt>
      <trkpt lat="46.45203" lon="5.22373">
        <ele>222.39999389648</ele>
        <time>2021-03-12T13:21:52.000Z</time>
      </trkpt>
      <trkpt lat="46.452" lon="5.22381">
        <ele>222.39999389648</ele>
        <time>2021-03-12T13:21:53.000Z</time>
      </trkpt>
      <trkpt lat="46.45194" lon="5.22398">
        <ele>222.39999389648</ele>
        <time>2021-03-12T13:21:55.000Z</time>
      </trkpt>
      <trkpt lat="46.45187" lon="5.22414">
        <ele>222.39999389648</ele>
        <time>2021-03-12T13:21:57.000Z</time>
      </trkpt>
      <trkpt lat="46.45181" lon="5.22431">
        <ele>222.39999389648</ele>
        <time>2021-03-12T13:21:59.000Z</time>
      </trkpt>
      <trkpt lat="46.45177" lon="5.2244">
        <ele>222.39999389648</ele>
        <time>2021-03-12T13:22:00.000Z</time>
      </trkpt>
      <trkpt lat="46.45174" lon="5.22448">
        <ele>222.39999389648</ele>
        <time>2021-03-12T13:22:01.000Z</time>
      </trkpt>
      <trkpt lat="46.45169" lon="5.22466">
        <ele>222.39999389648</ele>
        <time>2021-03-12T13:22:03.000Z</time>
      </trkpt>
      <trkpt lat="46.45163" lon="5.22484">
        <ele>222.39999389648</ele>
        <time>2021-03-12T13:22:05.000Z</time>
      </trkpt>
      <trkpt lat="46.45159" lon="5.22501">
        <ele>222.39999389648</ele>
        <time>2021-03-12T13:22:07.000Z</time>
      </trkpt>
      <trkpt lat="46.45154" lon="5.22518">
        <ele>222.60000610352</ele>
        <time>2021-03-12T13:22:09.000Z</time>
      </trkpt>
      <trkpt lat="46.4515" lon="5.22535">
        <ele>222.60000610352</ele>
        <time>2021-03-12T13:22:11.000Z</time>
      </trkpt>
      <trkpt lat="46.45145" lon="5.22552">
        <ele>222.60000610352</ele>
        <time>2021-03-12T13:22:13.000Z</time>
      </trkpt>
      <trkpt lat="46.45141" lon="5.22569">
        <ele>222.60000610352</ele>
        <time>2021-03-12T13:22:15.000Z</time>
      </trkpt>
      <trkpt lat="46.45137" lon="5.22587">
        <ele>222.60000610352</ele>
        <time>2021-03-12T13:22:17.000Z</time>
      </trkpt>
      <trkpt lat="46.45133" lon="5.22604">
        <ele>222.60000610352</ele>
        <time>2021-03-12T13:22:19.000Z</time>
      </trkpt>
      <trkpt lat="46.45128" lon="5.22622">
        <ele>222.60000610352</ele>
        <time>2021-03-12T13:22:21.000Z</time>
      </trkpt>
      <trkpt lat="46.45122" lon="5.22639">
        <ele>222.60000610352</ele>
        <time>2021-03-12T13:22:23.000Z</time>
      </trkpt>
      <trkpt lat="46.45116" lon="5.22656">
        <ele>222.80000305176</ele>
        <time>2021-03-12T13:22:25.000Z</time>
      </trkpt>
      <trkpt lat="46.45109" lon="5.22673">
        <ele>223</ele>
        <time>2021-03-12T13:22:27.000Z</time>
      </trkpt>
      <trkpt lat="46.45103" lon="5.2269">
        <ele>223</ele>
        <time>2021-03-12T13:22:29.000Z</time>
      </trkpt>
      <trkpt lat="46.45096" lon="5.22706">
        <ele>223</ele>
        <time>2021-03-12T13:22:31.000Z</time>
      </trkpt>
      <trkpt lat="46.45092" lon="5.22724">
        <ele>223</ele>
        <time>2021-03-12T13:22:33.000Z</time>
      </trkpt>
      <trkpt lat="46.45088" lon="5.22742">
        <ele>223</ele>
        <time>2021-03-12T13:22:35.000Z</time>
      </trkpt>
      <trkpt lat="46.45086" lon="5.22752">
        <ele>223</ele>
        <time>2021-03-12T13:22:36.000Z</time>
      </trkpt>
      <trkpt lat="46.45084" lon="5.22761">
        <ele>223</ele>
        <time>2021-03-12T13:22:37.000Z</time>
      </trkpt>
      <trkpt lat="46.45081" lon="5.2278">
        <ele>223</ele>
        <time>2021-03-12T13:22:39.000Z</time>
      </trkpt>
      <trkpt lat="46.45078" lon="5.22798">
        <ele>223</ele>
        <time>2021-03-12T13:22:41.000Z</time>
      </trkpt>
      <trkpt lat="46.45075" lon="5.22816">
        <ele>222.80000305176</ele>
        <time>2021-03-12T13:22:43.000Z</time>
      </trkpt>
      <trkpt lat="46.45073" lon="5.22824">
        <ele>222.80000305176</ele>
        <time>2021-03-12T13:22:44.000Z</time>
      </trkpt>
      <trkpt lat="46.45069" lon="5.22832">
        <ele>222.80000305176</ele>
        <time>2021-03-12T13:22:45.000Z</time>
      </trkpt>
      <trkpt lat="46.45064" lon="5.22838">
        <ele>222.80000305176</ele>
        <time>2021-03-12T13:22:46.000Z</time>
      </trkpt>
      <trkpt lat="46.45058" lon="5.22843">
        <ele>222.80000305176</ele>
        <time>2021-03-12T13:22:47.000Z</time>
      </trkpt>
      <trkpt lat="46.45052" lon="5.22846">
        <ele>222.80000305176</ele>
        <time>2021-03-12T13:22:48.000Z</time>
      </trkpt>
      <trkpt lat="46.45046" lon="5.2285">
        <ele>222.80000305176</ele>
        <time>2021-03-12T13:22:49.000Z</time>
      </trkpt>
      <trkpt lat="46.45033" lon="5.22857">
        <ele>222.80000305176</ele>
        <time>2021-03-12T13:22:51.000Z</time>
      </trkpt>
      <trkpt lat="46.45021" lon="5.22865">
        <ele>222.60000610352</ele>
        <time>2021-03-12T13:22:53.000Z</time>
      </trkpt>
      <trkpt lat="46.4501" lon="5.22874">
        <ele>222.60000610352</ele>
        <time>2021-03-12T13:22:55.000Z</time>
      </trkpt>
      <trkpt lat="46.44999" lon="5.22885">
        <ele>222</ele>
        <time>2021-03-12T13:22:57.000Z</time>
      </trkpt>
      <trkpt lat="46.44994" lon="5.22892">
        <ele>221.80000305176</ele>
        <time>2021-03-12T13:22:58.000Z</time>
      </trkpt>
      <trkpt lat="46.44989" lon="5.22899">
        <ele>221.60000610352</ele>
        <time>2021-03-12T13:22:59.000Z</time>
      </trkpt>
      <trkpt lat="46.44982" lon="5.22916">
        <ele>221.39999389648</ele>
        <time>2021-03-12T13:23:01.000Z</time>
      </trkpt>
      <trkpt lat="46.44977" lon="5.22935">
        <ele>221.39999389648</ele>
        <time>2021-03-12T13:23:03.000Z</time>
      </trkpt>
      <trkpt lat="46.44975" lon="5.22945">
        <ele>221.39999389648</ele>
        <time>2021-03-12T13:23:04.000Z</time>
      </trkpt>
      <trkpt lat="46.44974" lon="5.22954">
        <ele>221.39999389648</ele>
        <time>2021-03-12T13:23:05.000Z</time>
      </trkpt>
      <trkpt lat="46.44971" lon="5.22974">
        <ele>221.39999389648</ele>
        <time>2021-03-12T13:23:07.000Z</time>
      </trkpt>
      <trkpt lat="46.44968" lon="5.22992">
        <ele>221.39999389648</ele>
        <time>2021-03-12T13:23:09.000Z</time>
      </trkpt>
      <trkpt lat="46.44965" lon="5.23011">
        <ele>221.39999389648</ele>
        <time>2021-03-12T13:23:11.000Z</time>
      </trkpt>
      <trkpt lat="46.44962" lon="5.23029">
        <ele>221.39999389648</ele>
        <time>2021-03-12T13:23:13.000Z</time>
      </trkpt>
      <trkpt lat="46.4496" lon="5.23038">
        <ele>221.39999389648</ele>
        <time>2021-03-12T13:23:14.000Z</time>
      </trkpt>
      <trkpt lat="46.44958" lon="5.23047">
        <ele>221.39999389648</ele>
        <time>2021-03-12T13:23:15.000Z</time>
      </trkpt>
      <trkpt lat="46.44955" lon="5.23064">
        <ele>221.60000610352</ele>
        <time>2021-03-12T13:23:17.000Z</time>
      </trkpt>
      <trkpt lat="46.44951" lon="5.23079">
        <ele>222</ele>
        <time>2021-03-12T13:23:19.000Z</time>
      </trkpt>
      <trkpt lat="46.44949" lon="5.23086">
        <ele>222.19999694824</ele>
        <time>2021-03-12T13:23:20.000Z</time>
      </trkpt>
      <trkpt lat="46.44946" lon="5.23092">
        <ele>222.39999389648</ele>
        <time>2021-03-12T13:23:21.000Z</time>
      </trkpt>
      <trkpt lat="46.4494" lon="5.23105">
        <ele>222.60000610352</ele>
        <time>2021-03-12T13:23:23.000Z</time>
      </trkpt>
      <trkpt lat="46.44933" lon="5.23117">
        <ele>222.60000610352</ele>
        <time>2021-03-12T13:23:25.000Z</time>
      </trkpt>
      <trkpt lat="46.44929" lon="5.23118">
        <ele>223</ele>
        <time>2021-03-12T13:23:26.000Z</time>
      </trkpt>
      <trkpt lat="46.44924" lon="5.23115">
        <ele>223</ele>
        <time>2021-03-12T13:23:27.000Z</time>
      </trkpt>
      <trkpt lat="46.44915" lon="5.23105">
        <ele>223.19999694824</ele>
        <time>2021-03-12T13:23:29.000Z</time>
      </trkpt>
      <trkpt lat="46.44905" lon="5.23093">
        <ele>223.19999694824</ele>
        <time>2021-03-12T13:23:31.000Z</time>
      </trkpt>
      <trkpt lat="46.44895" lon="5.23078">
        <ele>223.19999694824</ele>
        <time>2021-03-12T13:23:33.000Z</time>
      </trkpt>
      <trkpt lat="46.44891" lon="5.23071">
        <ele>223.19999694824</ele>
        <time>2021-03-12T13:23:34.000Z</time>
      </trkpt>
      <trkpt lat="46.44887" lon="5.23064">
        <ele>223.19999694824</ele>
        <time>2021-03-12T13:23:35.000Z</time>
      </trkpt>
      <trkpt lat="46.44879" lon="5.23048">
        <ele>223.19999694824</ele>
        <time>2021-03-12T13:23:37.000Z</time>
      </trkpt>
      <trkpt lat="46.44873" lon="5.23031">
        <ele>222.80000305176</ele>
        <time>2021-03-12T13:23:39.000Z</time>
      </trkpt>
      <trkpt lat="46.44867" lon="5.23014">
        <ele>222.39999389648</ele>
        <time>2021-03-12T13:23:41.000Z</time>
      </trkpt>
      <trkpt lat="46.44861" lon="5.22998">
        <ele>222</ele>
        <time>2021-03-12T13:23:43.000Z</time>
      </trkpt>
      <trkpt lat="46.44858" lon="5.22989">
        <ele>222</ele>
        <time>2021-03-12T13:23:44.000Z</time>
      </trkpt>
      <trkpt lat="46.44855" lon="5.2298">
        <ele>221.80000305176</ele>
        <time>2021-03-12T13:23:45.000Z</time>
      </trkpt>
      <trkpt lat="46.44847" lon="5.22964">
        <ele>221.60000610352</ele>
        <time>2021-03-12T13:23:47.000Z</time>
      </trkpt>
      <trkpt lat="46.44838" lon="5.22951">
        <ele>221.60000610352</ele>
        <time>2021-03-12T13:23:49.000Z</time>
      </trkpt>
      <trkpt lat="46.44827" lon="5.22941">
        <ele>221.60000610352</ele>
        <time>2021-03-12T13:23:51.000Z</time>
      </trkpt>
      <trkpt lat="46.44821" lon="5.22937">
        <ele>221.60000610352</ele>
        <time>2021-03-12T13:23:52.000Z</time>
      </trkpt>
      <trkpt lat="46.44815" lon="5.22933">
        <ele>221.60000610352</ele>
        <time>2021-03-12T13:23:53.000Z</time>
      </trkpt>
      <trkpt lat="46.44803" lon="5.22925">
        <ele>221.39999389648</ele>
        <time>2021-03-12T13:23:55.000Z</time>
      </trkpt>
      <trkpt lat="46.44792" lon="5.22918">
        <ele>221.19999694824</ele>
        <time>2021-03-12T13:23:57.000Z</time>
      </trkpt>
      <trkpt lat="46.44786" lon="5.22914">
        <ele>221.19999694824</ele>
        <time>2021-03-12T13:23:58.000Z</time>
      </trkpt>
      <trkpt lat="46.4478" lon="5.22909">
        <ele>221</ele>
        <time>2021-03-12T13:23:59.000Z</time>
      </trkpt>
      <trkpt lat="46.44769" lon="5.229">
        <ele>221</ele>
        <time>2021-03-12T13:24:01.000Z</time>
      </trkpt>
      <trkpt lat="46.44764" lon="5.22895">
        <ele>221</ele>
        <time>2021-03-12T13:24:02.000Z</time>
      </trkpt>
      <trkpt lat="46.44758" lon="5.2289">
        <ele>221</ele>
        <time>2021-03-12T13:24:03.000Z</time>
      </trkpt>
      <trkpt lat="46.44747" lon="5.2288">
        <ele>220.80000305176</ele>
        <time>2021-03-12T13:24:05.000Z</time>
      </trkpt>
      <trkpt lat="46.44737" lon="5.22871">
        <ele>220.80000305176</ele>
        <time>2021-03-12T13:24:07.000Z</time>
      </trkpt>
      <trkpt lat="46.44726" lon="5.22863">
        <ele>220.80000305176</ele>
        <time>2021-03-12T13:24:09.000Z</time>
      </trkpt>
      <trkpt lat="46.44717" lon="5.22856">
        <ele>220.80000305176</ele>
        <time>2021-03-12T13:24:11.000Z</time>
      </trkpt>
      <trkpt lat="46.44707" lon="5.2285">
        <ele>221</ele>
        <time>2021-03-12T13:24:13.000Z</time>
      </trkpt>
      <trkpt lat="46.44702" lon="5.22847">
        <ele>221</ele>
        <time>2021-03-12T13:24:14.000Z</time>
      </trkpt>
      <trkpt lat="46.44698" lon="5.22844">
        <ele>221</ele>
        <time>2021-03-12T13:24:15.000Z</time>
      </trkpt>
      <trkpt lat="46.4469" lon="5.22842">
        <ele>221</ele>
        <time>2021-03-12T13:24:17.000Z</time>
      </trkpt>
      <trkpt lat="46.44688" lon="5.22843">
        <ele>221</ele>
        <time>2021-03-12T13:24:18.000Z</time>
      </trkpt>
      <trkpt lat="46.44686" lon="5.22845">
        <ele>221</ele>
        <time>2021-03-12T13:24:19.000Z</time>
      </trkpt>
      <trkpt lat="46.44682" lon="5.22855">
        <ele>221.19999694824</ele>
        <time>2021-03-12T13:24:21.000Z</time>
      </trkpt>
      <trkpt lat="46.44681" lon="5.2287">
        <ele>221.60000610352</ele>
        <time>2021-03-12T13:24:23.000Z</time>
      </trkpt>
      <trkpt lat="46.44681" lon="5.2288">
        <ele>221.80000305176</ele>
        <time>2021-03-12T13:24:24.000Z</time>
      </trkpt>
      <trkpt lat="46.4468" lon="5.22889">
        <ele>222.19999694824</ele>
        <time>2021-03-12T13:24:25.000Z</time>
      </trkpt>
      <trkpt lat="46.44681" lon="5.22911">
        <ele>222.60000610352</ele>
        <time>2021-03-12T13:24:27.000Z</time>
      </trkpt>
      <trkpt lat="46.44681" lon="5.22934">
        <ele>222.80000305176</ele>
        <time>2021-03-12T13:24:29.000Z</time>
      </trkpt>
      <trkpt lat="46.44681" lon="5.22959">
        <ele>222.80000305176</ele>
        <time>2021-03-12T13:24:31.000Z</time>
      </trkpt>
      <trkpt lat="46.44681" lon="5.22986">
        <ele>222.80000305176</ele>
        <time>2021-03-12T13:24:33.000Z</time>
      </trkpt>
      <trkpt lat="46.44681" lon="5.23014">
        <ele>222.60000610352</ele>
        <time>2021-03-12T13:24:35.000Z</time>
      </trkpt>
      <trkpt lat="46.44681" lon="5.23043">
        <ele>221.39999389648</ele>
        <time>2021-03-12T13:24:37.000Z</time>
      </trkpt>
      <trkpt lat="46.44681" lon="5.23058">
        <ele>221</ele>
        <time>2021-03-12T13:24:38.000Z</time>
      </trkpt>
      <trkpt lat="46.44681" lon="5.23073">
        <ele>220.19999694824</ele>
        <time>2021-03-12T13:24:39.000Z</time>
      </trkpt>
      <trkpt lat="46.44681" lon="5.23089">
        <ele>219.60000610352</ele>
        <time>2021-03-12T13:24:40.000Z</time>
      </trkpt>
      <trkpt lat="46.44681" lon="5.23104">
        <ele>218.80000305176</ele>
        <time>2021-03-12T13:24:41.000Z</time>
      </trkpt>
      <trkpt lat="46.44681" lon="5.2312">
        <ele>218.19999694824</ele>
        <time>2021-03-12T13:24:42.000Z</time>
      </trkpt>
      <trkpt lat="46.44681" lon="5.23136">
        <ele>217</ele>
        <time>2021-03-12T13:24:43.000Z</time>
      </trkpt>
      <trkpt lat="46.44679" lon="5.23169">
        <ele>215.80000305176</ele>
        <time>2021-03-12T13:24:45.000Z</time>
      </trkpt>
      <trkpt lat="46.44677" lon="5.23199">
        <ele>214.19999694824</ele>
        <time>2021-03-12T13:24:47.000Z</time>
      </trkpt>
      <trkpt lat="46.44673" lon="5.23227">
        <ele>212.60000610352</ele>
        <time>2021-03-12T13:24:49.000Z</time>
      </trkpt>
      <trkpt lat="46.44671" lon="5.23239">
        <ele>211.60000610352</ele>
        <time>2021-03-12T13:24:50.000Z</time>
      </trkpt>
      <trkpt lat="46.44669" lon="5.23248">
        <ele>210.60000610352</ele>
        <time>2021-03-12T13:24:51.000Z</time>
      </trkpt>
      <trkpt lat="46.44668" lon="5.23256">
        <ele>209.80000305176</ele>
        <time>2021-03-12T13:24:52.000Z</time>
      </trkpt>
      <trkpt lat="46.44666" lon="5.23261">
        <ele>209.39999389648</ele>
        <time>2021-03-12T13:24:53.000Z</time>
      </trkpt>
      <trkpt lat="46.44665" lon="5.23264">
        <ele>209</ele>
        <time>2021-03-12T13:24:54.000Z</time>
      </trkpt>
      <trkpt lat="46.44664" lon="5.23267">
        <ele>208.39999389648</ele>
        <time>2021-03-12T13:24:55.000Z</time>
      </trkpt>
      <trkpt lat="46.4466" lon="5.23274">
        <ele>208</ele>
        <time>2021-03-12T13:24:57.000Z</time>
      </trkpt>
      <trkpt lat="46.44655" lon="5.23283">
        <ele>207.60000610352</ele>
        <time>2021-03-12T13:24:59.000Z</time>
      </trkpt>
      <trkpt lat="46.44652" lon="5.2329">
        <ele>207.60000610352</ele>
        <time>2021-03-12T13:25:00.000Z</time>
      </trkpt>
      <trkpt lat="46.44651" lon="5.23297">
        <ele>207.60000610352</ele>
        <time>2021-03-12T13:25:01.000Z</time>
      </trkpt>
      <trkpt lat="46.44652" lon="5.23306">
        <ele>207.39999389648</ele>
        <time>2021-03-12T13:25:02.000Z</time>
      </trkpt>
      <trkpt lat="46.44654" lon="5.23314">
        <ele>207.19999694824</ele>
        <time>2021-03-12T13:25:03.000Z</time>
      </trkpt>
      <trkpt lat="46.44657" lon="5.23331">
        <ele>207.19999694824</ele>
        <time>2021-03-12T13:25:05.000Z</time>
      </trkpt>
      <trkpt lat="46.44654" lon="5.23351">
        <ele>207.39999389648</ele>
        <time>2021-03-12T13:25:07.000Z</time>
      </trkpt>
      <trkpt lat="46.44651" lon="5.2336">
        <ele>207.19999694824</ele>
        <time>2021-03-12T13:25:08.000Z</time>
      </trkpt>
      <trkpt lat="46.44648" lon="5.2337">
        <ele>207.19999694824</ele>
        <time>2021-03-12T13:25:09.000Z</time>
      </trkpt>
      <trkpt lat="46.44639" lon="5.2339">
        <ele>207.19999694824</ele>
        <time>2021-03-12T13:25:11.000Z</time>
      </trkpt>
      <trkpt lat="46.4463" lon="5.2341">
        <ele>207</ele>
        <time>2021-03-12T13:25:13.000Z</time>
      </trkpt>
      <trkpt lat="46.44619" lon="5.23432">
        <ele>206.60000610352</ele>
        <time>2021-03-12T13:25:15.000Z</time>
      </trkpt>
      <trkpt lat="46.44614" lon="5.23443">
        <ele>206.19999694824</ele>
        <time>2021-03-12T13:25:16.000Z</time>
      </trkpt>
      <trkpt lat="46.44609" lon="5.23454">
        <ele>205.80000305176</ele>
        <time>2021-03-12T13:25:17.000Z</time>
      </trkpt>
      <trkpt lat="46.44603" lon="5.23465">
        <ele>205.19999694824</ele>
        <time>2021-03-12T13:25:18.000Z</time>
      </trkpt>
      <trkpt lat="46.44598" lon="5.23477">
        <ele>204.80000305176</ele>
        <time>2021-03-12T13:25:19.000Z</time>
      </trkpt>
      <trkpt lat="46.44592" lon="5.23489">
        <ele>204.19999694824</ele>
        <time>2021-03-12T13:25:20.000Z</time>
      </trkpt>
      <trkpt lat="46.44587" lon="5.23501">
        <ele>203.39999389648</ele>
        <time>2021-03-12T13:25:21.000Z</time>
      </trkpt>
      <trkpt lat="46.44582" lon="5.23512">
        <ele>202.80000305176</ele>
        <time>2021-03-12T13:25:22.000Z</time>
      </trkpt>
      <trkpt lat="46.44577" lon="5.23524">
        <ele>202.19999694824</ele>
        <time>2021-03-12T13:25:23.000Z</time>
      </trkpt>
      <trkpt lat="46.44572" lon="5.23535">
        <ele>201.19999694824</ele>
        <time>2021-03-12T13:25:24.000Z</time>
      </trkpt>
      <trkpt lat="46.44567" lon="5.23546">
        <ele>200.60000610352</ele>
        <time>2021-03-12T13:25:25.000Z</time>
      </trkpt>
      <trkpt lat="46.44561" lon="5.23557">
        <ele>200</ele>
        <time>2021-03-12T13:25:26.000Z</time>
      </trkpt>
      <trkpt lat="46.44556" lon="5.23568">
        <ele>199.39999389648</ele>
        <time>2021-03-12T13:25:27.000Z</time>
      </trkpt>
      <trkpt lat="46.44551" lon="5.23579">
        <ele>198.80000305176</ele>
        <time>2021-03-12T13:25:28.000Z</time>
      </trkpt>
      <trkpt lat="46.44546" lon="5.23591">
        <ele>198.39999389648</ele>
        <time>2021-03-12T13:25:29.000Z</time>
      </trkpt>
      <trkpt lat="46.44536" lon="5.23613">
        <ele>198</ele>
        <time>2021-03-12T13:25:31.000Z</time>
      </trkpt>
      <trkpt lat="46.44532" lon="5.23623">
        <ele>197.60000610352</ele>
        <time>2021-03-12T13:25:32.000Z</time>
      </trkpt>
      <trkpt lat="46.44527" lon="5.23634">
        <ele>197.39999389648</ele>
        <time>2021-03-12T13:25:33.000Z</time>
      </trkpt>
      <trkpt lat="46.44518" lon="5.23655">
        <ele>197.19999694824</ele>
        <time>2021-03-12T13:25:35.000Z</time>
      </trkpt>
      <trkpt lat="46.44511" lon="5.23676">
        <ele>197</ele>
        <time>2021-03-12T13:25:37.000Z</time>
      </trkpt>
      <trkpt lat="46.44504" lon="5.23698">
        <ele>196.80000305176</ele>
        <time>2021-03-12T13:25:39.000Z</time>
      </trkpt>
      <trkpt lat="46.44501" lon="5.23709">
        <ele>196.60000610352</ele>
        <time>2021-03-12T13:25:40.000Z</time>
      </trkpt>
      <trkpt lat="46.44498" lon="5.23719">
        <ele>196.60000610352</ele>
        <time>2021-03-12T13:25:41.000Z</time>
      </trkpt>
      <trkpt lat="46.44494" lon="5.23742">
        <ele>196.60000610352</ele>
        <time>2021-03-12T13:25:43.000Z</time>
      </trkpt>
      <trkpt lat="46.4449" lon="5.23765">
        <ele>196.60000610352</ele>
        <time>2021-03-12T13:25:45.000Z</time>
      </trkpt>
      <trkpt lat="46.44487" lon="5.23788">
        <ele>196.39999389648</ele>
        <time>2021-03-12T13:25:47.000Z</time>
      </trkpt>
      <trkpt lat="46.44484" lon="5.23811">
        <ele>196.19999694824</ele>
        <time>2021-03-12T13:25:49.000Z</time>
      </trkpt>
      <trkpt lat="46.44481" lon="5.23833">
        <ele>196.19999694824</ele>
        <time>2021-03-12T13:25:51.000Z</time>
      </trkpt>
      <trkpt lat="46.44479" lon="5.23843">
        <ele>196.19999694824</ele>
        <time>2021-03-12T13:25:52.000Z</time>
      </trkpt>
      <trkpt lat="46.44477" lon="5.23854">
        <ele>196.19999694824</ele>
        <time>2021-03-12T13:25:53.000Z</time>
      </trkpt>
      <trkpt lat="46.44473" lon="5.23875">
        <ele>196.60000610352</ele>
        <time>2021-03-12T13:25:55.000Z</time>
      </trkpt>
      <trkpt lat="46.44468" lon="5.23897">
        <ele>196.80000305176</ele>
        <time>2021-03-12T13:25:57.000Z</time>
      </trkpt>
      <trkpt lat="46.44463" lon="5.23917">
        <ele>196.80000305176</ele>
        <time>2021-03-12T13:25:59.000Z</time>
      </trkpt>
      <trkpt lat="46.44458" lon="5.23937">
        <ele>196.80000305176</ele>
        <time>2021-03-12T13:26:01.000Z</time>
      </trkpt>
      <trkpt lat="46.44452" lon="5.23955">
        <ele>196.80000305176</ele>
        <time>2021-03-12T13:26:03.000Z</time>
      </trkpt>
      <trkpt lat="46.44447" lon="5.23974">
        <ele>196.80000305176</ele>
        <time>2021-03-12T13:26:05.000Z</time>
      </trkpt>
      <trkpt lat="46.44441" lon="5.23992">
        <ele>197</ele>
        <time>2021-03-12T13:26:07.000Z</time>
      </trkpt>
      <trkpt lat="46.44434" lon="5.2401">
        <ele>197</ele>
        <time>2021-03-12T13:26:09.000Z</time>
      </trkpt>
      <trkpt lat="46.44427" lon="5.24027">
        <ele>197.19999694824</ele>
        <time>2021-03-12T13:26:11.000Z</time>
      </trkpt>
      <trkpt lat="46.44421" lon="5.24044">
        <ele>197.19999694824</ele>
        <time>2021-03-12T13:26:13.000Z</time>
      </trkpt>
      <trkpt lat="46.44414" lon="5.24061">
        <ele>197.39999389648</ele>
        <time>2021-03-12T13:26:15.000Z</time>
      </trkpt>
      <trkpt lat="46.44407" lon="5.24077">
        <ele>197.39999389648</ele>
        <time>2021-03-12T13:26:17.000Z</time>
      </trkpt>
      <trkpt lat="46.444" lon="5.24092">
        <ele>197.39999389648</ele>
        <time>2021-03-12T13:26:19.000Z</time>
      </trkpt>
      <trkpt lat="46.44393" lon="5.24108">
        <ele>197.60000610352</ele>
        <time>2021-03-12T13:26:21.000Z</time>
      </trkpt>
      <trkpt lat="46.44386" lon="5.24123">
        <ele>197.60000610352</ele>
        <time>2021-03-12T13:26:23.000Z</time>
      </trkpt>
      <trkpt lat="46.44382" lon="5.24131">
        <ele>197.80000305176</ele>
        <time>2021-03-12T13:26:24.000Z</time>
      </trkpt>
      <trkpt lat="46.44378" lon="5.24139">
        <ele>197.80000305176</ele>
        <time>2021-03-12T13:26:25.000Z</time>
      </trkpt>
      <trkpt lat="46.4437" lon="5.24156">
        <ele>198</ele>
        <time>2021-03-12T13:26:27.000Z</time>
      </trkpt>
      <trkpt lat="46.44363" lon="5.24173">
        <ele>198.19999694824</ele>
        <time>2021-03-12T13:26:29.000Z</time>
      </trkpt>
      <trkpt lat="46.44356" lon="5.2419">
        <ele>198.19999694824</ele>
        <time>2021-03-12T13:26:31.000Z</time>
      </trkpt>
      <trkpt lat="46.4435" lon="5.24207">
        <ele>198.39999389648</ele>
        <time>2021-03-12T13:26:33.000Z</time>
      </trkpt>
      <trkpt lat="46.44345" lon="5.24225">
        <ele>198.39999389648</ele>
        <time>2021-03-12T13:26:35.000Z</time>
      </trkpt>
      <trkpt lat="46.44343" lon="5.24234">
        <ele>198.39999389648</ele>
        <time>2021-03-12T13:26:36.000Z</time>
      </trkpt>
      <trkpt lat="46.44341" lon="5.24243">
        <ele>198.39999389648</ele>
        <time>2021-03-12T13:26:37.000Z</time>
      </trkpt>
      <trkpt lat="46.44337" lon="5.24261">
        <ele>198.60000610352</ele>
        <time>2021-03-12T13:26:39.000Z</time>
      </trkpt>
      <trkpt lat="46.44334" lon="5.24278">
        <ele>198.60000610352</ele>
        <time>2021-03-12T13:26:41.000Z</time>
      </trkpt>
      <trkpt lat="46.44331" lon="5.24296">
        <ele>198.60000610352</ele>
        <time>2021-03-12T13:26:43.000Z</time>
      </trkpt>
      <trkpt lat="46.44328" lon="5.24313">
        <ele>198.60000610352</ele>
        <time>2021-03-12T13:26:45.000Z</time>
      </trkpt>
      <trkpt lat="46.44326" lon="5.24331">
        <ele>198.60000610352</ele>
        <time>2021-03-12T13:26:47.000Z</time>
      </trkpt>
      <trkpt lat="46.44323" lon="5.24349">
        <ele>198.60000610352</ele>
        <time>2021-03-12T13:26:49.000Z</time>
      </trkpt>
      <trkpt lat="46.44321" lon="5.24366">
        <ele>198.60000610352</ele>
        <time>2021-03-12T13:26:51.000Z</time>
      </trkpt>
      <trkpt lat="46.44317" lon="5.24382">
        <ele>198.60000610352</ele>
        <time>2021-03-12T13:26:53.000Z</time>
      </trkpt>
      <trkpt lat="46.44316" lon="5.2439">
        <ele>198.80000305176</ele>
        <time>2021-03-12T13:26:54.000Z</time>
      </trkpt>
      <trkpt lat="46.44315" lon="5.24398">
        <ele>198.80000305176</ele>
        <time>2021-03-12T13:26:55.000Z</time>
      </trkpt>
      <trkpt lat="46.44313" lon="5.24406">
        <ele>199</ele>
        <time>2021-03-12T13:26:56.000Z</time>
      </trkpt>
      <trkpt lat="46.44312" lon="5.24414">
        <ele>199</ele>
        <time>2021-03-12T13:26:57.000Z</time>
      </trkpt>
      <trkpt lat="46.44309" lon="5.24429">
        <ele>199.19999694824</ele>
        <time>2021-03-12T13:26:59.000Z</time>
      </trkpt>
      <trkpt lat="46.44307" lon="5.24436">
        <ele>199.60000610352</ele>
        <time>2021-03-12T13:27:00.000Z</time>
      </trkpt>
      <trkpt lat="46.44305" lon="5.24443">
        <ele>200</ele>
        <time>2021-03-12T13:27:01.000Z</time>
      </trkpt>
      <trkpt lat="46.44302" lon="5.24456">
        <ele>200.39999389648</ele>
        <time>2021-03-12T13:27:03.000Z</time>
      </trkpt>
      <trkpt lat="46.44298" lon="5.24469">
        <ele>201</ele>
        <time>2021-03-12T13:27:05.000Z</time>
      </trkpt>
      <trkpt lat="46.44297" lon="5.24476">
        <ele>201.19999694824</ele>
        <time>2021-03-12T13:27:06.000Z</time>
      </trkpt>
      <trkpt lat="46.44295" lon="5.24481">
        <ele>201.39999389648</ele>
        <time>2021-03-12T13:27:07.000Z</time>
      </trkpt>
      <trkpt lat="46.44291" lon="5.24494">
        <ele>201.60000610352</ele>
        <time>2021-03-12T13:27:09.000Z</time>
      </trkpt>
      <trkpt lat="46.44288" lon="5.24506">
        <ele>202</ele>
        <time>2021-03-12T13:27:11.000Z</time>
      </trkpt>
      <trkpt lat="46.44286" lon="5.24512">
        <ele>202.19999694824</ele>
        <time>2021-03-12T13:27:12.000Z</time>
      </trkpt>
      <trkpt lat="46.44285" lon="5.24518">
        <ele>202.39999389648</ele>
        <time>2021-03-12T13:27:13.000Z</time>
      </trkpt>
      <trkpt lat="46.44281" lon="5.2453">
        <ele>203</ele>
        <time>2021-03-12T13:27:15.000Z</time>
      </trkpt>
      <trkpt lat="46.44279" lon="5.24536">
        <ele>203.39999389648</ele>
        <time>2021-03-12T13:27:16.000Z</time>
      </trkpt>
      <trkpt lat="46.44277" lon="5.24542">
        <ele>203.60000610352</ele>
        <time>2021-03-12T13:27:17.000Z</time>
      </trkpt>
      <trkpt lat="46.44275" lon="5.24548">
        <ele>203.80000305176</ele>
        <time>2021-03-12T13:27:18.000Z</time>
      </trkpt>
      <trkpt lat="46.44274" lon="5.24554">
        <ele>204.19999694824</ele>
        <time>2021-03-12T13:27:19.000Z</time>
      </trkpt>
      <trkpt lat="46.44272" lon="5.2456">
        <ele>204.39999389648</ele>
        <time>2021-03-12T13:27:20.000Z</time>
      </trkpt>
      <trkpt lat="46.4427" lon="5.24565">
        <ele>204.60000610352</ele>
        <time>2021-03-12T13:27:21.000Z</time>
      </trkpt>
      <trkpt lat="46.44266" lon="5.24577">
        <ele>205</ele>
        <time>2021-03-12T13:27:23.000Z</time>
      </trkpt>
      <trkpt lat="46.44263" lon="5.24589">
        <ele>205.60000610352</ele>
        <time>2021-03-12T13:27:25.000Z</time>
      </trkpt>
      <trkpt lat="46.44261" lon="5.24594">
        <ele>206</ele>
        <time>2021-03-12T13:27:26.000Z</time>
      </trkpt>
      <trkpt lat="46.44259" lon="5.246">
        <ele>206.39999389648</ele>
        <time>2021-03-12T13:27:27.000Z</time>
      </trkpt>
      <trkpt lat="46.44256" lon="5.24611">
        <ele>206.80000305176</ele>
        <time>2021-03-12T13:27:29.000Z</time>
      </trkpt>
      <trkpt lat="46.44253" lon="5.24622">
        <ele>207.19999694824</ele>
        <time>2021-03-12T13:27:31.000Z</time>
      </trkpt>
      <trkpt lat="46.4425" lon="5.24633">
        <ele>207.80000305176</ele>
        <time>2021-03-12T13:27:33.000Z</time>
      </trkpt>
      <trkpt lat="46.44249" lon="5.24638">
        <ele>208</ele>
        <time>2021-03-12T13:27:34.000Z</time>
      </trkpt>
      <trkpt lat="46.44247" lon="5.24643">
        <ele>208.19999694824</ele>
        <time>2021-03-12T13:27:35.000Z</time>
      </trkpt>
      <trkpt lat="46.44245" lon="5.24654">
        <ele>209.19999694824</ele>
        <time>2021-03-12T13:27:37.000Z</time>
      </trkpt>
      <trkpt lat="46.44243" lon="5.24665">
        <ele>209.80000305176</ele>
        <time>2021-03-12T13:27:39.000Z</time>
      </trkpt>
      <trkpt lat="46.44242" lon="5.2467">
        <ele>210.39999389648</ele>
        <time>2021-03-12T13:27:40.000Z</time>
      </trkpt>
      <trkpt lat="46.4424" lon="5.24675">
        <ele>210.39999389648</ele>
        <time>2021-03-12T13:27:41.000Z</time>
      </trkpt>
      <trkpt lat="46.44238" lon="5.24686">
        <ele>211</ele>
        <time>2021-03-12T13:27:43.000Z</time>
      </trkpt>
      <trkpt lat="46.44237" lon="5.24691">
        <ele>211.19999694824</ele>
        <time>2021-03-12T13:27:44.000Z</time>
      </trkpt>
      <trkpt lat="46.44236" lon="5.24696">
        <ele>211.39999389648</ele>
        <time>2021-03-12T13:27:45.000Z</time>
      </trkpt>
      <trkpt lat="46.44235" lon="5.24706">
        <ele>211.80000305176</ele>
        <time>2021-03-12T13:27:47.000Z</time>
      </trkpt>
      <trkpt lat="46.44233" lon="5.24717">
        <ele>212.39999389648</ele>
        <time>2021-03-12T13:27:49.000Z</time>
      </trkpt>
      <trkpt lat="46.44233" lon="5.24722">
        <ele>212.60000610352</ele>
        <time>2021-03-12T13:27:50.000Z</time>
      </trkpt>
      <trkpt lat="46.44232" lon="5.24727">
        <ele>213</ele>
        <time>2021-03-12T13:27:51.000Z</time>
      </trkpt>
      <trkpt lat="46.44231" lon="5.24737">
        <ele>213.80000305176</ele>
        <time>2021-03-12T13:27:53.000Z</time>
      </trkpt>
      <trkpt lat="46.4423" lon="5.24743">
        <ele>213.80000305176</ele>
        <time>2021-03-12T13:27:54.000Z</time>
      </trkpt>
      <trkpt lat="46.4423" lon="5.24748">
        <ele>214.19999694824</ele>
        <time>2021-03-12T13:27:55.000Z</time>
      </trkpt>
      <trkpt lat="46.44229" lon="5.24758">
        <ele>214.80000305176</ele>
        <time>2021-03-12T13:27:57.000Z</time>
      </trkpt>
      <trkpt lat="46.44228" lon="5.24769">
        <ele>215</ele>
        <time>2021-03-12T13:27:59.000Z</time>
      </trkpt>
      <trkpt lat="46.44227" lon="5.2478">
        <ele>215.80000305176</ele>
        <time>2021-03-12T13:28:01.000Z</time>
      </trkpt>
      <trkpt lat="46.44227" lon="5.24792">
        <ele>216.39999389648</ele>
        <time>2021-03-12T13:28:03.000Z</time>
      </trkpt>
      <trkpt lat="46.44227" lon="5.24803">
        <ele>216.60000610352</ele>
        <time>2021-03-12T13:28:05.000Z</time>
      </trkpt>
      <trkpt lat="46.44227" lon="5.24809">
        <ele>217</ele>
        <time>2021-03-12T13:28:06.000Z</time>
      </trkpt>
      <trkpt lat="46.44227" lon="5.24815">
        <ele>217.19999694824</ele>
        <time>2021-03-12T13:28:07.000Z</time>
      </trkpt>
      <trkpt lat="46.44227" lon="5.24827">
        <ele>217.39999389648</ele>
        <time>2021-03-12T13:28:09.000Z</time>
      </trkpt>
      <trkpt lat="46.44227" lon="5.2484">
        <ele>217.80000305176</ele>
        <time>2021-03-12T13:28:11.000Z</time>
      </trkpt>
      <trkpt lat="46.44228" lon="5.24853">
        <ele>218</ele>
        <time>2021-03-12T13:28:13.000Z</time>
      </trkpt>
      <trkpt lat="46.44228" lon="5.24859">
        <ele>218.19999694824</ele>
        <time>2021-03-12T13:28:14.000Z</time>
      </trkpt>
      <trkpt lat="46.44229" lon="5.24866">
        <ele>218.39999389648</ele>
        <time>2021-03-12T13:28:15.000Z</time>
      </trkpt>
      <trkpt lat="46.4423" lon="5.24879">
        <ele>218.80000305176</ele>
        <time>2021-03-12T13:28:17.000Z</time>
      </trkpt>
      <trkpt lat="46.44231" lon="5.24886">
        <ele>219</ele>
        <time>2021-03-12T13:28:18.000Z</time>
      </trkpt>
      <trkpt lat="46.44232" lon="5.24893">
        <ele>219.19999694824</ele>
        <time>2021-03-12T13:28:19.000Z</time>
      </trkpt>
      <trkpt lat="46.44233" lon="5.24908">
        <ele>219.60000610352</ele>
        <time>2021-03-12T13:28:21.000Z</time>
      </trkpt>
      <trkpt lat="46.44236" lon="5.24923">
        <ele>219.80000305176</ele>
        <time>2021-03-12T13:28:23.000Z</time>
      </trkpt>
      <trkpt lat="46.44238" lon="5.24938">
        <ele>220</ele>
        <time>2021-03-12T13:28:25.000Z</time>
      </trkpt>
      <trkpt lat="46.44241" lon="5.24955">
        <ele>220.19999694824</ele>
        <time>2021-03-12T13:28:27.000Z</time>
      </trkpt>
      <trkpt lat="46.44244" lon="5.24972">
        <ele>220.19999694824</ele>
        <time>2021-03-12T13:28:29.000Z</time>
      </trkpt>
      <trkpt lat="46.44246" lon="5.24981">
        <ele>220.39999389648</ele>
        <time>2021-03-12T13:28:30.000Z</time>
      </trkpt>
      <trkpt lat="46.44247" lon="5.2499">
        <ele>220.39999389648</ele>
        <time>2021-03-12T13:28:31.000Z</time>
      </trkpt>
      <trkpt lat="46.44251" lon="5.25008">
        <ele>220.39999389648</ele>
        <time>2021-03-12T13:28:33.000Z</time>
      </trkpt>
      <trkpt lat="46.44255" lon="5.25027">
        <ele>220.39999389648</ele>
        <time>2021-03-12T13:28:35.000Z</time>
      </trkpt>
      <trkpt lat="46.44259" lon="5.25045">
        <ele>220.39999389648</ele>
        <time>2021-03-12T13:28:37.000Z</time>
      </trkpt>
      <trkpt lat="46.44262" lon="5.25064">
        <ele>220.39999389648</ele>
        <time>2021-03-12T13:28:39.000Z</time>
      </trkpt>
      <trkpt lat="46.44266" lon="5.25082">
        <ele>220.60000610352</ele>
        <time>2021-03-12T13:28:41.000Z</time>
      </trkpt>
      <trkpt lat="46.44269" lon="5.251">
        <ele>220.60000610352</ele>
        <time>2021-03-12T13:28:43.000Z</time>
      </trkpt>
      <trkpt lat="46.44273" lon="5.25118">
        <ele>220.60000610352</ele>
        <time>2021-03-12T13:28:45.000Z</time>
      </trkpt>
      <trkpt lat="46.44276" lon="5.25136">
        <ele>220.60000610352</ele>
        <time>2021-03-12T13:28:47.000Z</time>
      </trkpt>
      <trkpt lat="46.44279" lon="5.25154">
        <ele>220.80000305176</ele>
        <time>2021-03-12T13:28:49.000Z</time>
      </trkpt>
      <trkpt lat="46.4428" lon="5.25162">
        <ele>220.80000305176</ele>
        <time>2021-03-12T13:28:50.000Z</time>
      </trkpt>
      <trkpt lat="46.44282" lon="5.25171">
        <ele>221</ele>
        <time>2021-03-12T13:28:51.000Z</time>
      </trkpt>
      <trkpt lat="46.44284" lon="5.25189">
        <ele>221.39999389648</ele>
        <time>2021-03-12T13:28:53.000Z</time>
      </trkpt>
      <trkpt lat="46.44286" lon="5.25206">
        <ele>221.80000305176</ele>
        <time>2021-03-12T13:28:55.000Z</time>
      </trkpt>
      <trkpt lat="46.44287" lon="5.25215">
        <ele>222</ele>
        <time>2021-03-12T13:28:56.000Z</time>
      </trkpt>
      <trkpt lat="46.44287" lon="5.25223">
        <ele>222.19999694824</ele>
        <time>2021-03-12T13:28:57.000Z</time>
      </trkpt>
      <trkpt lat="46.44288" lon="5.25241">
        <ele>222.39999389648</ele>
        <time>2021-03-12T13:28:59.000Z</time>
      </trkpt>
      <trkpt lat="46.44289" lon="5.25258">
        <ele>222.80000305176</ele>
        <time>2021-03-12T13:29:01.000Z</time>
      </trkpt>
      <trkpt lat="46.44289" lon="5.25276">
        <ele>223</ele>
        <time>2021-03-12T13:29:03.000Z</time>
      </trkpt>
      <trkpt lat="46.44288" lon="5.25285">
        <ele>223.60000610352</ele>
        <time>2021-03-12T13:29:04.000Z</time>
      </trkpt>
      <trkpt lat="46.44288" lon="5.25295">
        <ele>224</ele>
        <time>2021-03-12T13:29:05.000Z</time>
      </trkpt>
      <trkpt lat="46.44287" lon="5.25313">
        <ele>224.39999389648</ele>
        <time>2021-03-12T13:29:07.000Z</time>
      </trkpt>
      <trkpt lat="46.44286" lon="5.25332">
        <ele>224.80000305176</ele>
        <time>2021-03-12T13:29:09.000Z</time>
      </trkpt>
      <trkpt lat="46.44285" lon="5.25352">
        <ele>225.39999389648</ele>
        <time>2021-03-12T13:29:11.000Z</time>
      </trkpt>
      <trkpt lat="46.44282" lon="5.25374">
        <ele>225.60000610352</ele>
        <time>2021-03-12T13:29:13.000Z</time>
      </trkpt>
      <trkpt lat="46.44279" lon="5.25398">
        <ele>225.60000610352</ele>
        <time>2021-03-12T13:29:15.000Z</time>
      </trkpt>
      <trkpt lat="46.44276" lon="5.25424">
        <ele>225.60000610352</ele>
        <time>2021-03-12T13:29:17.000Z</time>
      </trkpt>
      <trkpt lat="46.44275" lon="5.25437">
        <ele>225.60000610352</ele>
        <time>2021-03-12T13:29:18.000Z</time>
      </trkpt>
      <trkpt lat="46.44273" lon="5.25452">
        <ele>225.60000610352</ele>
        <time>2021-03-12T13:29:19.000Z</time>
      </trkpt>
      <trkpt lat="46.4427" lon="5.25482">
        <ele>225.60000610352</ele>
        <time>2021-03-12T13:29:21.000Z</time>
      </trkpt>
      <trkpt lat="46.44266" lon="5.25514">
        <ele>225</ele>
        <time>2021-03-12T13:29:23.000Z</time>
      </trkpt>
      <trkpt lat="46.44264" lon="5.2553">
        <ele>224.60000610352</ele>
        <time>2021-03-12T13:29:24.000Z</time>
      </trkpt>
      <trkpt lat="46.44262" lon="5.25547">
        <ele>224</ele>
        <time>2021-03-12T13:29:25.000Z</time>
      </trkpt>
      <trkpt lat="46.4426" lon="5.25563">
        <ele>223.19999694824</ele>
        <time>2021-03-12T13:29:26.000Z</time>
      </trkpt>
      <trkpt lat="46.44258" lon="5.25579">
        <ele>222.60000610352</ele>
        <time>2021-03-12T13:29:27.000Z</time>
      </trkpt>
      <trkpt lat="46.44256" lon="5.25596">
        <ele>222</ele>
        <time>2021-03-12T13:29:28.000Z</time>
      </trkpt>
      <trkpt lat="46.44254" lon="5.25611">
        <ele>221.19999694824</ele>
        <time>2021-03-12T13:29:29.000Z</time>
      </trkpt>
      <trkpt lat="46.44252" lon="5.25627">
        <ele>220.80000305176</ele>
        <time>2021-03-12T13:29:30.000Z</time>
      </trkpt>
      <trkpt lat="46.44251" lon="5.25642">
        <ele>219.80000305176</ele>
        <time>2021-03-12T13:29:31.000Z</time>
      </trkpt>
      <trkpt lat="46.44249" lon="5.25657">
        <ele>218.80000305176</ele>
        <time>2021-03-12T13:29:32.000Z</time>
      </trkpt>
      <trkpt lat="46.44247" lon="5.25672">
        <ele>216.39999389648</ele>
        <time>2021-03-12T13:29:33.000Z</time>
      </trkpt>
      <trkpt lat="46.44244" lon="5.257">
        <ele>215.60000610352</ele>
        <time>2021-03-12T13:29:35.000Z</time>
      </trkpt>
      <trkpt lat="46.44243" lon="5.25714">
        <ele>215.39999389648</ele>
        <time>2021-03-12T13:29:36.000Z</time>
      </trkpt>
      <trkpt lat="46.44241" lon="5.25727">
        <ele>215.39999389648</ele>
        <time>2021-03-12T13:29:37.000Z</time>
      </trkpt>
      <trkpt lat="46.44238" lon="5.25753">
        <ele>215.39999389648</ele>
        <time>2021-03-12T13:29:39.000Z</time>
      </trkpt>
      <trkpt lat="46.44235" lon="5.25778">
        <ele>215.39999389648</ele>
        <time>2021-03-12T13:29:41.000Z</time>
      </trkpt>
      <trkpt lat="46.44232" lon="5.25802">
        <ele>215.39999389648</ele>
        <time>2021-03-12T13:29:43.000Z</time>
      </trkpt>
      <trkpt lat="46.44229" lon="5.25823">
        <ele>215.60000610352</ele>
        <time>2021-03-12T13:29:45.000Z</time>
      </trkpt>
      <trkpt lat="46.44226" lon="5.25843">
        <ele>215.80000305176</ele>
        <time>2021-03-12T13:29:47.000Z</time>
      </trkpt>
      <trkpt lat="46.44224" lon="5.25861">
        <ele>216.19999694824</ele>
        <time>2021-03-12T13:29:49.000Z</time>
      </trkpt>
      <trkpt lat="46.44222" lon="5.25879">
        <ele>216.60000610352</ele>
        <time>2021-03-12T13:29:51.000Z</time>
      </trkpt>
      <trkpt lat="46.44219" lon="5.25896">
        <ele>217.19999694824</ele>
        <time>2021-03-12T13:29:53.000Z</time>
      </trkpt>
      <trkpt lat="46.44218" lon="5.25904">
        <ele>217.80000305176</ele>
        <time>2021-03-12T13:29:54.000Z</time>
      </trkpt>
      <trkpt lat="46.44217" lon="5.25913">
        <ele>218.19999694824</ele>
        <time>2021-03-12T13:29:55.000Z</time>
      </trkpt>
      <trkpt lat="46.44215" lon="5.25929">
        <ele>219</ele>
        <time>2021-03-12T13:29:57.000Z</time>
      </trkpt>
      <trkpt lat="46.44214" lon="5.25937">
        <ele>219.60000610352</ele>
        <time>2021-03-12T13:29:58.000Z</time>
      </trkpt>
      <trkpt lat="46.44213" lon="5.25945">
        <ele>220.19999694824</ele>
        <time>2021-03-12T13:29:59.000Z</time>
      </trkpt>
      <trkpt lat="46.44211" lon="5.2596">
        <ele>221</ele>
        <time>2021-03-12T13:30:01.000Z</time>
      </trkpt>
      <trkpt lat="46.4421" lon="5.25967">
        <ele>221.60000610352</ele>
        <time>2021-03-12T13:30:02.000Z</time>
      </trkpt>
      <trkpt lat="46.44208" lon="5.25974">
        <ele>221.80000305176</ele>
        <time>2021-03-12T13:30:03.000Z</time>
      </trkpt>
      <trkpt lat="46.44205" lon="5.25988">
        <ele>222.39999389648</ele>
        <time>2021-03-12T13:30:05.000Z</time>
      </trkpt>
      <trkpt lat="46.44203" lon="5.25995">
        <ele>222.80000305176</ele>
        <time>2021-03-12T13:30:06.000Z</time>
      </trkpt>
      <trkpt lat="46.44201" lon="5.26002">
        <ele>223.19999694824</ele>
        <time>2021-03-12T13:30:07.000Z</time>
      </trkpt>
      <trkpt lat="46.44197" lon="5.26016">
        <ele>223.80000305176</ele>
        <time>2021-03-12T13:30:09.000Z</time>
      </trkpt>
      <trkpt lat="46.44192" lon="5.2603">
        <ele>224.39999389648</ele>
        <time>2021-03-12T13:30:11.000Z</time>
      </trkpt>
      <trkpt lat="46.44187" lon="5.26043">
        <ele>225</ele>
        <time>2021-03-12T13:30:13.000Z</time>
      </trkpt>
      <trkpt lat="46.44182" lon="5.26057">
        <ele>225.39999389648</ele>
        <time>2021-03-12T13:30:15.000Z</time>
      </trkpt>
      <trkpt lat="46.44176" lon="5.2607">
        <ele>225.80000305176</ele>
        <time>2021-03-12T13:30:17.000Z</time>
      </trkpt>
      <trkpt lat="46.44173" lon="5.26077">
        <ele>226.19999694824</ele>
        <time>2021-03-12T13:30:18.000Z</time>
      </trkpt>
      <trkpt lat="46.44171" lon="5.26084">
        <ele>226.19999694824</ele>
        <time>2021-03-12T13:30:19.000Z</time>
      </trkpt>
      <trkpt lat="46.44164" lon="5.26097">
        <ele>226.60000610352</ele>
        <time>2021-03-12T13:30:21.000Z</time>
      </trkpt>
      <trkpt lat="46.44161" lon="5.26104">
        <ele>226.80000305176</ele>
        <time>2021-03-12T13:30:22.000Z</time>
      </trkpt>
      <trkpt lat="46.44158" lon="5.26111">
        <ele>227.19999694824</ele>
        <time>2021-03-12T13:30:23.000Z</time>
      </trkpt>
      <trkpt lat="46.44151" lon="5.26125">
        <ele>227.60000610352</ele>
        <time>2021-03-12T13:30:25.000Z</time>
      </trkpt>
      <trkpt lat="46.44145" lon="5.26139">
        <ele>227.60000610352</ele>
        <time>2021-03-12T13:30:27.000Z</time>
      </trkpt>
      <trkpt lat="46.44138" lon="5.26155">
        <ele>227.60000610352</ele>
        <time>2021-03-12T13:30:29.000Z</time>
      </trkpt>
      <trkpt lat="46.4413" lon="5.26171">
        <ele>227.60000610352</ele>
        <time>2021-03-12T13:30:31.000Z</time>
      </trkpt>
      <trkpt lat="46.44123" lon="5.26188">
        <ele>227.60000610352</ele>
        <time>2021-03-12T13:30:33.000Z</time>
      </trkpt>
      <trkpt lat="46.44114" lon="5.26207">
        <ele>227.60000610352</ele>
        <time>2021-03-12T13:30:35.000Z</time>
      </trkpt>
      <trkpt lat="46.44105" lon="5.26226">
        <ele>227.39999389648</ele>
        <time>2021-03-12T13:30:37.000Z</time>
      </trkpt>
      <trkpt lat="46.44096" lon="5.26248">
        <ele>226.80000305176</ele>
        <time>2021-03-12T13:30:39.000Z</time>
      </trkpt>
      <trkpt lat="46.44086" lon="5.2627">
        <ele>226</ele>
        <time>2021-03-12T13:30:41.000Z</time>
      </trkpt>
      <trkpt lat="46.44076" lon="5.26294">
        <ele>225</ele>
        <time>2021-03-12T13:30:43.000Z</time>
      </trkpt>
      <trkpt lat="46.44071" lon="5.26307">
        <ele>224.60000610352</ele>
        <time>2021-03-12T13:30:44.000Z</time>
      </trkpt>
      <trkpt lat="46.44066" lon="5.2632">
        <ele>224.39999389648</ele>
        <time>2021-03-12T13:30:45.000Z</time>
      </trkpt>
      <trkpt lat="46.44056" lon="5.26347">
        <ele>223.39999389648</ele>
        <time>2021-03-12T13:30:47.000Z</time>
      </trkpt>
      <trkpt lat="46.44047" lon="5.26375">
        <ele>222</ele>
        <time>2021-03-12T13:30:49.000Z</time>
      </trkpt>
      <trkpt lat="46.44042" lon="5.26389">
        <ele>221.80000305176</ele>
        <time>2021-03-12T13:30:50.000Z</time>
      </trkpt>
      <trkpt lat="46.44038" lon="5.26403">
        <ele>221.39999389648</ele>
        <time>2021-03-12T13:30:51.000Z</time>
      </trkpt>
      <trkpt lat="46.44033" lon="5.26418">
        <ele>220.60000610352</ele>
        <time>2021-03-12T13:30:52.000Z</time>
      </trkpt>
      <trkpt lat="46.44029" lon="5.26432">
        <ele>219.60000610352</ele>
        <time>2021-03-12T13:30:53.000Z</time>
      </trkpt>
      <trkpt lat="46.44025" lon="5.26447">
        <ele>218.80000305176</ele>
        <time>2021-03-12T13:30:54.000Z</time>
      </trkpt>
      <trkpt lat="46.44021" lon="5.26461">
        <ele>218.39999389648</ele>
        <time>2021-03-12T13:30:55.000Z</time>
      </trkpt>
      <trkpt lat="46.44017" lon="5.26476">
        <ele>217.60000610352</ele>
        <time>2021-03-12T13:30:56.000Z</time>
      </trkpt>
      <trkpt lat="46.44013" lon="5.2649">
        <ele>216.80000305176</ele>
        <time>2021-03-12T13:30:57.000Z</time>
      </trkpt>
      <trkpt lat="46.44009" lon="5.26505">
        <ele>215.80000305176</ele>
        <time>2021-03-12T13:30:58.000Z</time>
      </trkpt>
      <trkpt lat="46.44005" lon="5.2652">
        <ele>215.19999694824</ele>
        <time>2021-03-12T13:30:59.000Z</time>
      </trkpt>
      <trkpt lat="46.44001" lon="5.26534">
        <ele>214</ele>
        <time>2021-03-12T13:31:00.000Z</time>
      </trkpt>
      <trkpt lat="46.43997" lon="5.26549">
        <ele>213.19999694824</ele>
        <time>2021-03-12T13:31:01.000Z</time>
      </trkpt>
      <trkpt lat="46.43993" lon="5.26563">
        <ele>212.39999389648</ele>
        <time>2021-03-12T13:31:02.000Z</time>
      </trkpt>
      <trkpt lat="46.43989" lon="5.26578">
        <ele>211.80000305176</ele>
        <time>2021-03-12T13:31:03.000Z</time>
      </trkpt>
      <trkpt lat="46.4398" lon="5.26607">
        <ele>211</ele>
        <time>2021-03-12T13:31:05.000Z</time>
      </trkpt>
      <trkpt lat="46.43973" lon="5.26636">
        <ele>210.19999694824</ele>
        <time>2021-03-12T13:31:07.000Z</time>
      </trkpt>
      <trkpt lat="46.43969" lon="5.26649">
        <ele>209.80000305176</ele>
        <time>2021-03-12T13:31:08.000Z</time>
      </trkpt>
      <trkpt lat="46.43965" lon="5.26663">
        <ele>209.19999694824</ele>
        <time>2021-03-12T13:31:09.000Z</time>
      </trkpt>
      <trkpt lat="46.43961" lon="5.26676">
        <ele>208.60000610352</ele>
        <time>2021-03-12T13:31:10.000Z</time>
      </trkpt>
      <trkpt lat="46.43957" lon="5.26689">
        <ele>208.19999694824</ele>
        <time>2021-03-12T13:31:11.000Z</time>
      </trkpt>
      <trkpt lat="46.4395" lon="5.26715">
        <ele>206.60000610352</ele>
        <time>2021-03-12T13:31:13.000Z</time>
      </trkpt>
      <trkpt lat="46.43942" lon="5.26738">
        <ele>205.80000305176</ele>
        <time>2021-03-12T13:31:15.000Z</time>
      </trkpt>
      <trkpt lat="46.43932" lon="5.26759">
        <ele>205.60000610352</ele>
        <time>2021-03-12T13:31:17.000Z</time>
      </trkpt>
      <trkpt lat="46.43925" lon="5.26767">
        <ele>205.60000610352</ele>
        <time>2021-03-12T13:31:18.000Z</time>
      </trkpt>
      <trkpt lat="46.43918" lon="5.26774">
        <ele>205.60000610352</ele>
        <time>2021-03-12T13:31:19.000Z</time>
      </trkpt>
      <trkpt lat="46.43908" lon="5.26793">
        <ele>205.60000610352</ele>
        <time>2021-03-12T13:31:21.000Z</time>
      </trkpt>
      <trkpt lat="46.43906" lon="5.26805">
        <ele>205.60000610352</ele>
        <time>2021-03-12T13:31:22.000Z</time>
      </trkpt>
      <trkpt lat="46.43906" lon="5.26817">
        <ele>205.60000610352</ele>
        <time>2021-03-12T13:31:23.000Z</time>
      </trkpt>
      <trkpt lat="46.43908" lon="5.26841">
        <ele>205.80000305176</ele>
        <time>2021-03-12T13:31:25.000Z</time>
      </trkpt>
      <trkpt lat="46.43908" lon="5.26853">
        <ele>205.80000305176</ele>
        <time>2021-03-12T13:31:26.000Z</time>
      </trkpt>
      <trkpt lat="46.43907" lon="5.26865">
        <ele>206</ele>
        <time>2021-03-12T13:31:27.000Z</time>
      </trkpt>
      <trkpt lat="46.43905" lon="5.26877">
        <ele>206</ele>
        <time>2021-03-12T13:31:28.000Z</time>
      </trkpt>
      <trkpt lat="46.43902" lon="5.26889">
        <ele>206.19999694824</ele>
        <time>2021-03-12T13:31:29.000Z</time>
      </trkpt>
      <trkpt lat="46.43897" lon="5.26911">
        <ele>206.39999389648</ele>
        <time>2021-03-12T13:31:31.000Z</time>
      </trkpt>
      <trkpt lat="46.43894" lon="5.26922">
        <ele>206.60000610352</ele>
        <time>2021-03-12T13:31:32.000Z</time>
      </trkpt>
      <trkpt lat="46.43891" lon="5.26932">
        <ele>206.80000305176</ele>
        <time>2021-03-12T13:31:33.000Z</time>
      </trkpt>
      <trkpt lat="46.43885" lon="5.26954">
        <ele>207</ele>
        <time>2021-03-12T13:31:35.000Z</time>
      </trkpt>
      <trkpt lat="46.43882" lon="5.26964">
        <ele>207.19999694824</ele>
        <time>2021-03-12T13:31:36.000Z</time>
      </trkpt>
      <trkpt lat="46.43879" lon="5.26975">
        <ele>207.19999694824</ele>
        <time>2021-03-12T13:31:37.000Z</time>
      </trkpt>
      <trkpt lat="46.43874" lon="5.26995">
        <ele>207.39999389648</ele>
        <time>2021-03-12T13:31:39.000Z</time>
      </trkpt>
      <trkpt lat="46.43869" lon="5.27016">
        <ele>207.39999389648</ele>
        <time>2021-03-12T13:31:41.000Z</time>
      </trkpt>
      <trkpt lat="46.43863" lon="5.27036">
        <ele>207.60000610352</ele>
        <time>2021-03-12T13:31:43.000Z</time>
      </trkpt>
      <trkpt lat="46.43861" lon="5.27046">
        <ele>207.80000305176</ele>
        <time>2021-03-12T13:31:44.000Z</time>
      </trkpt>
      <trkpt lat="46.43858" lon="5.27056">
        <ele>207.80000305176</ele>
        <time>2021-03-12T13:31:45.000Z</time>
      </trkpt>
      <trkpt lat="46.43853" lon="5.27075">
        <ele>208</ele>
        <time>2021-03-12T13:31:47.000Z</time>
      </trkpt>
      <trkpt lat="46.43848" lon="5.27095">
        <ele>208</ele>
        <time>2021-03-12T13:31:49.000Z</time>
      </trkpt>
      <trkpt lat="46.43842" lon="5.27114">
        <ele>208.19999694824</ele>
        <time>2021-03-12T13:31:51.000Z</time>
      </trkpt>
      <trkpt lat="46.43837" lon="5.27134">
        <ele>208.19999694824</ele>
        <time>2021-03-12T13:31:53.000Z</time>
      </trkpt>
      <trkpt lat="46.43832" lon="5.27153">
        <ele>208.39999389648</ele>
        <time>2021-03-12T13:31:55.000Z</time>
      </trkpt>
      <trkpt lat="46.43826" lon="5.27173">
        <ele>208.60000610352</ele>
        <time>2021-03-12T13:31:57.000Z</time>
      </trkpt>
      <trkpt lat="46.43821" lon="5.27193">
        <ele>208.80000305176</ele>
        <time>2021-03-12T13:31:59.000Z</time>
      </trkpt>
      <trkpt lat="46.43816" lon="5.27213">
        <ele>208.80000305176</ele>
        <time>2021-03-12T13:32:01.000Z</time>
      </trkpt>
      <trkpt lat="46.43811" lon="5.27234">
        <ele>208.80000305176</ele>
        <time>2021-03-12T13:32:03.000Z</time>
      </trkpt>
      <trkpt lat="46.43806" lon="5.27254">
        <ele>208.60000610352</ele>
        <time>2021-03-12T13:32:05.000Z</time>
      </trkpt>
      <trkpt lat="46.43804" lon="5.27265">
        <ele>208.60000610352</ele>
        <time>2021-03-12T13:32:06.000Z</time>
      </trkpt>
      <trkpt lat="46.43801" lon="5.27275">
        <ele>208.60000610352</ele>
        <time>2021-03-12T13:32:07.000Z</time>
      </trkpt>
      <trkpt lat="46.43796" lon="5.27295">
        <ele>208.60000610352</ele>
        <time>2021-03-12T13:32:09.000Z</time>
      </trkpt>
      <trkpt lat="46.43792" lon="5.27316">
        <ele>208.39999389648</ele>
        <time>2021-03-12T13:32:11.000Z</time>
      </trkpt>
      <trkpt lat="46.43788" lon="5.27338">
        <ele>208.39999389648</ele>
        <time>2021-03-12T13:32:13.000Z</time>
      </trkpt>
      <trkpt lat="46.43783" lon="5.27359">
        <ele>208.19999694824</ele>
        <time>2021-03-12T13:32:15.000Z</time>
      </trkpt>
      <trkpt lat="46.43778" lon="5.27382">
        <ele>208.19999694824</ele>
        <time>2021-03-12T13:32:17.000Z</time>
      </trkpt>
      <trkpt lat="46.43773" lon="5.27407">
        <ele>208</ele>
        <time>2021-03-12T13:32:19.000Z</time>
      </trkpt>
      <trkpt lat="46.43771" lon="5.27419">
        <ele>207.80000305176</ele>
        <time>2021-03-12T13:32:20.000Z</time>
      </trkpt>
      <trkpt lat="46.43768" lon="5.27433">
        <ele>207.80000305176</ele>
        <time>2021-03-12T13:32:21.000Z</time>
      </trkpt>
      <trkpt lat="46.43763" lon="5.2746">
        <ele>207.39999389648</ele>
        <time>2021-03-12T13:32:23.000Z</time>
      </trkpt>
      <trkpt lat="46.43757" lon="5.27488">
        <ele>206.80000305176</ele>
        <time>2021-03-12T13:32:25.000Z</time>
      </trkpt>
      <trkpt lat="46.43754" lon="5.27503">
        <ele>206.39999389648</ele>
        <time>2021-03-12T13:32:26.000Z</time>
      </trkpt>
      <trkpt lat="46.43751" lon="5.27517">
        <ele>205.19999694824</ele>
        <time>2021-03-12T13:32:27.000Z</time>
      </trkpt>
      <trkpt lat="46.43748" lon="5.27547">
        <ele>204</ele>
        <time>2021-03-12T13:32:29.000Z</time>
      </trkpt>
      <trkpt lat="46.43747" lon="5.27576">
        <ele>203</ele>
        <time>2021-03-12T13:32:31.000Z</time>
      </trkpt>
      <trkpt lat="46.43747" lon="5.2759">
        <ele>202.39999389648</ele>
        <time>2021-03-12T13:32:32.000Z</time>
      </trkpt>
      <trkpt lat="46.43748" lon="5.27604">
        <ele>202</ele>
        <time>2021-03-12T13:32:33.000Z</time>
      </trkpt>
      <trkpt lat="46.43749" lon="5.27617">
        <ele>201.39999389648</ele>
        <time>2021-03-12T13:32:34.000Z</time>
      </trkpt>
      <trkpt lat="46.4375" lon="5.2763">
        <ele>201.19999694824</ele>
        <time>2021-03-12T13:32:35.000Z</time>
      </trkpt>
      <trkpt lat="46.43752" lon="5.27643">
        <ele>201</ele>
        <time>2021-03-12T13:32:36.000Z</time>
      </trkpt>
      <trkpt lat="46.43754" lon="5.27655">
        <ele>201</ele>
        <time>2021-03-12T13:32:37.000Z</time>
      </trkpt>
      <trkpt lat="46.43757" lon="5.27679">
        <ele>200.80000305176</ele>
        <time>2021-03-12T13:32:39.000Z</time>
      </trkpt>
      <trkpt lat="46.4376" lon="5.27704">
        <ele>200.80000305176</ele>
        <time>2021-03-12T13:32:41.000Z</time>
      </trkpt>
      <trkpt lat="46.43763" lon="5.27729">
        <ele>200.80000305176</ele>
        <time>2021-03-12T13:32:43.000Z</time>
      </trkpt>
      <trkpt lat="46.43765" lon="5.27741">
        <ele>200.80000305176</ele>
        <time>2021-03-12T13:32:44.000Z</time>
      </trkpt>
      <trkpt lat="46.43767" lon="5.27754">
        <ele>200.80000305176</ele>
        <time>2021-03-12T13:32:45.000Z</time>
      </trkpt>
      <trkpt lat="46.4377" lon="5.27779">
        <ele>200.80000305176</ele>
        <time>2021-03-12T13:32:47.000Z</time>
      </trkpt>
      <trkpt lat="46.43774" lon="5.27804">
        <ele>201</ele>
        <time>2021-03-12T13:32:49.000Z</time>
      </trkpt>
      <trkpt lat="46.43777" lon="5.27829">
        <ele>201</ele>
        <time>2021-03-12T13:32:51.000Z</time>
      </trkpt>
      <trkpt lat="46.43781" lon="5.27853">
        <ele>201</ele>
        <time>2021-03-12T13:32:53.000Z</time>
      </trkpt>
      <trkpt lat="46.43784" lon="5.27877">
        <ele>201</ele>
        <time>2021-03-12T13:32:55.000Z</time>
      </trkpt>
      <trkpt lat="46.43788" lon="5.27901">
        <ele>201</ele>
        <time>2021-03-12T13:32:57.000Z</time>
      </trkpt>
      <trkpt lat="46.43791" lon="5.27925">
        <ele>201</ele>
        <time>2021-03-12T13:32:59.000Z</time>
      </trkpt>
      <trkpt lat="46.43795" lon="5.27949">
        <ele>201</ele>
        <time>2021-03-12T13:33:01.000Z</time>
      </trkpt>
      <trkpt lat="46.43798" lon="5.27961">
        <ele>201</ele>
        <time>2021-03-12T13:33:02.000Z</time>
      </trkpt>
      <trkpt lat="46.438" lon="5.27973">
        <ele>201</ele>
        <time>2021-03-12T13:33:03.000Z</time>
      </trkpt>
      <trkpt lat="46.43804" lon="5.27996">
        <ele>201</ele>
        <time>2021-03-12T13:33:05.000Z</time>
      </trkpt>
      <trkpt lat="46.43808" lon="5.2802">
        <ele>201</ele>
        <time>2021-03-12T13:33:07.000Z</time>
      </trkpt>
      <trkpt lat="46.43813" lon="5.28044">
        <ele>201</ele>
        <time>2021-03-12T13:33:09.000Z</time>
      </trkpt>
      <trkpt lat="46.43817" lon="5.28067">
        <ele>201</ele>
        <time>2021-03-12T13:33:11.000Z</time>
      </trkpt>
      <trkpt lat="46.4382" lon="5.2809">
        <ele>201</ele>
        <time>2021-03-12T13:33:13.000Z</time>
      </trkpt>
      <trkpt lat="46.43824" lon="5.28112">
        <ele>201</ele>
        <time>2021-03-12T13:33:15.000Z</time>
      </trkpt>
      <trkpt lat="46.43828" lon="5.28134">
        <ele>200.80000305176</ele>
        <time>2021-03-12T13:33:17.000Z</time>
      </trkpt>
      <trkpt lat="46.43832" lon="5.28154">
        <ele>200.80000305176</ele>
        <time>2021-03-12T13:33:19.000Z</time>
      </trkpt>
      <trkpt lat="46.43833" lon="5.28164">
        <ele>200.80000305176</ele>
        <time>2021-03-12T13:33:20.000Z</time>
      </trkpt>
      <trkpt lat="46.43835" lon="5.28174">
        <ele>200.80000305176</ele>
        <time>2021-03-12T13:33:21.000Z</time>
      </trkpt>
      <trkpt lat="46.43838" lon="5.28193">
        <ele>200.80000305176</ele>
        <time>2021-03-12T13:33:23.000Z</time>
      </trkpt>
      <trkpt lat="46.4384" lon="5.28212">
        <ele>200.80000305176</ele>
        <time>2021-03-12T13:33:25.000Z</time>
      </trkpt>
      <trkpt lat="46.43841" lon="5.2823">
        <ele>201.19999694824</ele>
        <time>2021-03-12T13:33:27.000Z</time>
      </trkpt>
      <trkpt lat="46.43841" lon="5.2824">
        <ele>201.39999389648</ele>
        <time>2021-03-12T13:33:28.000Z</time>
      </trkpt>
      <trkpt lat="46.4384" lon="5.28249">
        <ele>201.39999389648</ele>
        <time>2021-03-12T13:33:29.000Z</time>
      </trkpt>
      <trkpt lat="46.43836" lon="5.28265">
        <ele>201.80000305176</ele>
        <time>2021-03-12T13:33:31.000Z</time>
      </trkpt>
      <trkpt lat="46.43833" lon="5.28273">
        <ele>202</ele>
        <time>2021-03-12T13:33:32.000Z</time>
      </trkpt>
      <trkpt lat="46.4383" lon="5.2828">
        <ele>202.39999389648</ele>
        <time>2021-03-12T13:33:33.000Z</time>
      </trkpt>
      <trkpt lat="46.43827" lon="5.28287">
        <ele>202.39999389648</ele>
        <time>2021-03-12T13:33:34.000Z</time>
      </trkpt>
      <trkpt lat="46.43824" lon="5.28293">
        <ele>202.80000305176</ele>
        <time>2021-03-12T13:33:35.000Z</time>
      </trkpt>
      <trkpt lat="46.43818" lon="5.28304">
        <ele>203.39999389648</ele>
        <time>2021-03-12T13:33:37.000Z</time>
      </trkpt>
      <trkpt lat="46.43815" lon="5.2831">
        <ele>203.60000610352</ele>
        <time>2021-03-12T13:33:38.000Z</time>
      </trkpt>
      <trkpt lat="46.43812" lon="5.28315">
        <ele>203.60000610352</ele>
        <time>2021-03-12T13:33:39.000Z</time>
      </trkpt>
      <trkpt lat="46.43805" lon="5.28325">
        <ele>204</ele>
        <time>2021-03-12T13:33:41.000Z</time>
      </trkpt>
      <trkpt lat="46.43799" lon="5.28335">
        <ele>204.60000610352</ele>
        <time>2021-03-12T13:33:43.000Z</time>
      </trkpt>
      <trkpt lat="46.43795" lon="5.2834">
        <ele>204.80000305176</ele>
        <time>2021-03-12T13:33:44.000Z</time>
      </trkpt>
      <trkpt lat="46.43792" lon="5.28346">
        <ele>205.19999694824</ele>
        <time>2021-03-12T13:33:45.000Z</time>
      </trkpt>
      <trkpt lat="46.43785" lon="5.28357">
        <ele>205.80000305176</ele>
        <time>2021-03-12T13:33:47.000Z</time>
      </trkpt>
      <trkpt lat="46.43782" lon="5.28362">
        <ele>206</ele>
        <time>2021-03-12T13:33:48.000Z</time>
      </trkpt>
      <trkpt lat="46.43778" lon="5.28368">
        <ele>206.19999694824</ele>
        <time>2021-03-12T13:33:49.000Z</time>
      </trkpt>
      <trkpt lat="46.43772" lon="5.2838">
        <ele>206.60000610352</ele>
        <time>2021-03-12T13:33:51.000Z</time>
      </trkpt>
      <trkpt lat="46.43766" lon="5.28393">
        <ele>206.80000305176</ele>
        <time>2021-03-12T13:33:53.000Z</time>
      </trkpt>
      <trkpt lat="46.4376" lon="5.28406">
        <ele>207</ele>
        <time>2021-03-12T13:33:55.000Z</time>
      </trkpt>
      <trkpt lat="46.43756" lon="5.28421">
        <ele>207.19999694824</ele>
        <time>2021-03-12T13:33:57.000Z</time>
      </trkpt>
      <trkpt lat="46.43754" lon="5.28428">
        <ele>207.19999694824</ele>
        <time>2021-03-12T13:33:58.000Z</time>
      </trkpt>
      <trkpt lat="46.43752" lon="5.28436">
        <ele>207.19999694824</ele>
        <time>2021-03-12T13:33:59.000Z</time>
      </trkpt>
      <trkpt lat="46.4375" lon="5.28453">
        <ele>207.39999389648</ele>
        <time>2021-03-12T13:34:01.000Z</time>
      </trkpt>
      <trkpt lat="46.43747" lon="5.28468">
        <ele>207.60000610352</ele>
        <time>2021-03-12T13:34:03.000Z</time>
      </trkpt>
      <trkpt lat="46.43745" lon="5.28484">
        <ele>207.80000305176</ele>
        <time>2021-03-12T13:34:05.000Z</time>
      </trkpt>
      <trkpt lat="46.43743" lon="5.28498">
        <ele>207.80000305176</ele>
        <time>2021-03-12T13:34:07.000Z</time>
      </trkpt>
      <trkpt lat="46.43741" lon="5.28512">
        <ele>208.19999694824</ele>
        <time>2021-03-12T13:34:09.000Z</time>
      </trkpt>
      <trkpt lat="46.43739" lon="5.28519">
        <ele>208.19999694824</ele>
        <time>2021-03-12T13:34:10.000Z</time>
      </trkpt>
      <trkpt lat="46.43738" lon="5.28526">
        <ele>208.39999389648</ele>
        <time>2021-03-12T13:34:11.000Z</time>
      </trkpt>
      <trkpt lat="46.43736" lon="5.2854">
        <ele>208.60000610352</ele>
        <time>2021-03-12T13:34:13.000Z</time>
      </trkpt>
      <trkpt lat="46.43735" lon="5.28553">
        <ele>209</ele>
        <time>2021-03-12T13:34:15.000Z</time>
      </trkpt>
      <trkpt lat="46.43734" lon="5.2856">
        <ele>209.19999694824</ele>
        <time>2021-03-12T13:34:16.000Z</time>
      </trkpt>
      <trkpt lat="46.43733" lon="5.28566">
        <ele>209.19999694824</ele>
        <time>2021-03-12T13:34:17.000Z</time>
      </trkpt>
      <trkpt lat="46.43732" lon="5.28572">
        <ele>209.60000610352</ele>
        <time>2021-03-12T13:34:18.000Z</time>
      </trkpt>
      <trkpt lat="46.43731" lon="5.28578">
        <ele>210</ele>
        <time>2021-03-12T13:34:19.000Z</time>
      </trkpt>
      <trkpt lat="46.43729" lon="5.2859">
        <ele>210.19999694824</ele>
        <time>2021-03-12T13:34:21.000Z</time>
      </trkpt>
      <trkpt lat="46.43728" lon="5.286">
        <ele>211.39999389648</ele>
        <time>2021-03-12T13:34:23.000Z</time>
      </trkpt>
      <trkpt lat="46.43727" lon="5.28611">
        <ele>211.80000305176</ele>
        <time>2021-03-12T13:34:25.000Z</time>
      </trkpt>
      <trkpt lat="46.43726" lon="5.28616">
        <ele>212</ele>
        <time>2021-03-12T13:34:26.000Z</time>
      </trkpt>
      <trkpt lat="46.43725" lon="5.28621">
        <ele>212.19999694824</ele>
        <time>2021-03-12T13:34:27.000Z</time>
      </trkpt>
      <trkpt lat="46.43725" lon="5.28626">
        <ele>212.60000610352</ele>
        <time>2021-03-12T13:34:28.000Z</time>
      </trkpt>
      <trkpt lat="46.43724" lon="5.28631">
        <ele>213</ele>
        <time>2021-03-12T13:34:29.000Z</time>
      </trkpt>
      <trkpt lat="46.43723" lon="5.28641">
        <ele>213.60000610352</ele>
        <time>2021-03-12T13:34:31.000Z</time>
      </trkpt>
      <trkpt lat="46.43721" lon="5.28651">
        <ele>214.39999389648</ele>
        <time>2021-03-12T13:34:33.000Z</time>
      </trkpt>
      <trkpt lat="46.4372" lon="5.28655">
        <ele>214.60000610352</ele>
        <time>2021-03-12T13:34:34.000Z</time>
      </trkpt>
      <trkpt lat="46.43719" lon="5.2866">
        <ele>215</ele>
        <time>2021-03-12T13:34:35.000Z</time>
      </trkpt>
      <trkpt lat="46.43716" lon="5.2867">
        <ele>215.80000305176</ele>
        <time>2021-03-12T13:34:37.000Z</time>
      </trkpt>
      <trkpt lat="46.43715" lon="5.28675">
        <ele>216.19999694824</ele>
        <time>2021-03-12T13:34:38.000Z</time>
      </trkpt>
      <trkpt lat="46.43714" lon="5.2868">
        <ele>216.60000610352</ele>
        <time>2021-03-12T13:34:39.000Z</time>
      </trkpt>
      <trkpt lat="46.43712" lon="5.28689">
        <ele>217</ele>
        <time>2021-03-12T13:34:41.000Z</time>
      </trkpt>
      <trkpt lat="46.43708" lon="5.28698">
        <ele>217.60000610352</ele>
        <time>2021-03-12T13:34:43.000Z</time>
      </trkpt>
      <trkpt lat="46.43706" lon="5.28703">
        <ele>218</ele>
        <time>2021-03-12T13:34:44.000Z</time>
      </trkpt>
      <trkpt lat="46.43704" lon="5.28708">
        <ele>218.39999389648</ele>
        <time>2021-03-12T13:34:45.000Z</time>
      </trkpt>
      <trkpt lat="46.437" lon="5.28717">
        <ele>219</ele>
        <time>2021-03-12T13:34:47.000Z</time>
      </trkpt>
      <trkpt lat="46.43697" lon="5.28727">
        <ele>219.39999389648</ele>
        <time>2021-03-12T13:34:49.000Z</time>
      </trkpt>
      <trkpt lat="46.43694" lon="5.28737">
        <ele>220.19999694824</ele>
        <time>2021-03-12T13:34:51.000Z</time>
      </trkpt>
      <trkpt lat="46.4369" lon="5.28746">
        <ele>220.39999389648</ele>
        <time>2021-03-12T13:34:53.000Z</time>
      </trkpt>
      <trkpt lat="46.43688" lon="5.28751">
        <ele>220.80000305176</ele>
        <time>2021-03-12T13:34:54.000Z</time>
      </trkpt>
      <trkpt lat="46.43687" lon="5.28755">
        <ele>221</ele>
        <time>2021-03-12T13:34:55.000Z</time>
      </trkpt>
      <trkpt lat="46.43685" lon="5.2876">
        <ele>221.39999389648</ele>
        <time>2021-03-12T13:34:56.000Z</time>
      </trkpt>
      <trkpt lat="46.43684" lon="5.28765">
        <ele>221.60000610352</ele>
        <time>2021-03-12T13:34:57.000Z</time>
      </trkpt>
      <trkpt lat="46.43681" lon="5.28776">
        <ele>222</ele>
        <time>2021-03-12T13:34:59.000Z</time>
      </trkpt>
      <trkpt lat="46.43678" lon="5.28789">
        <ele>222.39999389648</ele>
        <time>2021-03-12T13:35:01.000Z</time>
      </trkpt>
      <trkpt lat="46.43677" lon="5.28796">
        <ele>222.39999389648</ele>
        <time>2021-03-12T13:35:02.000Z</time>
      </trkpt>
      <trkpt lat="46.43675" lon="5.28803">
        <ele>222.39999389648</ele>
        <time>2021-03-12T13:35:03.000Z</time>
      </trkpt>
      <trkpt lat="46.43673" lon="5.28819">
        <ele>222.60000610352</ele>
        <time>2021-03-12T13:35:05.000Z</time>
      </trkpt>
      <trkpt lat="46.4367" lon="5.28836">
        <ele>222.60000610352</ele>
        <time>2021-03-12T13:35:07.000Z</time>
      </trkpt>
      <trkpt lat="46.43668" lon="5.28852">
        <ele>222.60000610352</ele>
        <time>2021-03-12T13:35:09.000Z</time>
      </trkpt>
      <trkpt lat="46.43666" lon="5.28869">
        <ele>222.60000610352</ele>
        <time>2021-03-12T13:35:11.000Z</time>
      </trkpt>
      <trkpt lat="46.43664" lon="5.28885">
        <ele>222.39999389648</ele>
        <time>2021-03-12T13:35:13.000Z</time>
      </trkpt>
      <trkpt lat="46.43662" lon="5.28901">
        <ele>222.39999389648</ele>
        <time>2021-03-12T13:35:15.000Z</time>
      </trkpt>
      <trkpt lat="46.4366" lon="5.28917">
        <ele>222.19999694824</ele>
        <time>2021-03-12T13:35:17.000Z</time>
      </trkpt>
      <trkpt lat="46.43659" lon="5.28932">
        <ele>222.19999694824</ele>
        <time>2021-03-12T13:35:19.000Z</time>
      </trkpt>
      <trkpt lat="46.43657" lon="5.28945">
        <ele>222.19999694824</ele>
        <time>2021-03-12T13:35:21.000Z</time>
      </trkpt>
      <trkpt lat="46.43656" lon="5.28959">
        <ele>222.39999389648</ele>
        <time>2021-03-12T13:35:23.000Z</time>
      </trkpt>
      <trkpt lat="46.43656" lon="5.28965">
        <ele>222.39999389648</ele>
        <time>2021-03-12T13:35:24.000Z</time>
      </trkpt>
      <trkpt lat="46.43656" lon="5.28972">
        <ele>222.60000610352</ele>
        <time>2021-03-12T13:35:25.000Z</time>
      </trkpt>
      <trkpt lat="46.43656" lon="5.28985">
        <ele>223</ele>
        <time>2021-03-12T13:35:27.000Z</time>
      </trkpt>
      <trkpt lat="46.43657" lon="5.28998">
        <ele>223.39999389648</ele>
        <time>2021-03-12T13:35:29.000Z</time>
      </trkpt>
      <trkpt lat="46.43657" lon="5.29005">
        <ele>223.80000305176</ele>
        <time>2021-03-12T13:35:30.000Z</time>
      </trkpt>
      <trkpt lat="46.43658" lon="5.29011">
        <ele>224.19999694824</ele>
        <time>2021-03-12T13:35:31.000Z</time>
      </trkpt>
      <trkpt lat="46.43659" lon="5.29024">
        <ele>224.80000305176</ele>
        <time>2021-03-12T13:35:33.000Z</time>
      </trkpt>
      <trkpt lat="46.43661" lon="5.2903">
        <ele>225</ele>
        <time>2021-03-12T13:35:34.000Z</time>
      </trkpt>
      <trkpt lat="46.43662" lon="5.29036">
        <ele>225.39999389648</ele>
        <time>2021-03-12T13:35:35.000Z</time>
      </trkpt>
      <trkpt lat="46.43666" lon="5.29048">
        <ele>226</ele>
        <time>2021-03-12T13:35:37.000Z</time>
      </trkpt>
      <trkpt lat="46.4367" lon="5.29061">
        <ele>226.60000610352</ele>
        <time>2021-03-12T13:35:39.000Z</time>
      </trkpt>
      <trkpt lat="46.43672" lon="5.29067">
        <ele>227</ele>
        <time>2021-03-12T13:35:40.000Z</time>
      </trkpt>
      <trkpt lat="46.43674" lon="5.29073">
        <ele>227.39999389648</ele>
        <time>2021-03-12T13:35:41.000Z</time>
      </trkpt>
      <trkpt lat="46.43677" lon="5.29085">
        <ele>227.80000305176</ele>
        <time>2021-03-12T13:35:43.000Z</time>
      </trkpt>
      <trkpt lat="46.43679" lon="5.29092">
        <ele>228</ele>
        <time>2021-03-12T13:35:44.000Z</time>
      </trkpt>
      <trkpt lat="46.43681" lon="5.29099">
        <ele>228.39999389648</ele>
        <time>2021-03-12T13:35:45.000Z</time>
      </trkpt>
      <trkpt lat="46.43684" lon="5.29113">
        <ele>229.19999694824</ele>
        <time>2021-03-12T13:35:47.000Z</time>
      </trkpt>
      <trkpt lat="46.43688" lon="5.29128">
        <ele>229.80000305176</ele>
        <time>2021-03-12T13:35:49.000Z</time>
      </trkpt>
      <trkpt lat="46.43692" lon="5.29144">
        <ele>230.19999694824</ele>
        <time>2021-03-12T13:35:51.000Z</time>
      </trkpt>
      <trkpt lat="46.43694" lon="5.29153">
        <ele>230.19999694824</ele>
        <time>2021-03-12T13:35:52.000Z</time>
      </trkpt>
      <trkpt lat="46.43696" lon="5.29161">
        <ele>230.39999389648</ele>
        <time>2021-03-12T13:35:53.000Z</time>
      </trkpt>
      <trkpt lat="46.437" lon="5.29178">
        <ele>230.60000610352</ele>
        <time>2021-03-12T13:35:55.000Z</time>
      </trkpt>
      <trkpt lat="46.43704" lon="5.29196">
        <ele>230.60000610352</ele>
        <time>2021-03-12T13:35:57.000Z</time>
      </trkpt>
      <trkpt lat="46.43708" lon="5.29214">
        <ele>230.60000610352</ele>
        <time>2021-03-12T13:35:59.000Z</time>
      </trkpt>
      <trkpt lat="46.43712" lon="5.29231">
        <ele>230.80000305176</ele>
        <time>2021-03-12T13:36:01.000Z</time>
      </trkpt>
      <trkpt lat="46.43716" lon="5.29249">
        <ele>230.60000610352</ele>
        <time>2021-03-12T13:36:03.000Z</time>
      </trkpt>
      <trkpt lat="46.4372" lon="5.29266">
        <ele>230.60000610352</ele>
        <time>2021-03-12T13:36:05.000Z</time>
      </trkpt>
      <trkpt lat="46.43723" lon="5.29284">
        <ele>230.60000610352</ele>
        <time>2021-03-12T13:36:07.000Z</time>
      </trkpt>
      <trkpt lat="46.43727" lon="5.29301">
        <ele>230.60000610352</ele>
        <time>2021-03-12T13:36:09.000Z</time>
      </trkpt>
      <trkpt lat="46.43731" lon="5.29319">
        <ele>231</ele>
        <time>2021-03-12T13:36:11.000Z</time>
      </trkpt>
      <trkpt lat="46.43732" lon="5.29328">
        <ele>231</ele>
        <time>2021-03-12T13:36:12.000Z</time>
      </trkpt>
      <trkpt lat="46.43734" lon="5.29338">
        <ele>231</ele>
        <time>2021-03-12T13:36:13.000Z</time>
      </trkpt>
      <trkpt lat="46.43736" lon="5.29357">
        <ele>231</ele>
        <time>2021-03-12T13:36:15.000Z</time>
      </trkpt>
      <trkpt lat="46.43737" lon="5.29376">
        <ele>231.19999694824</ele>
        <time>2021-03-12T13:36:17.000Z</time>
      </trkpt>
      <trkpt lat="46.43737" lon="5.29395">
        <ele>231.19999694824</ele>
        <time>2021-03-12T13:36:19.000Z</time>
      </trkpt>
      <trkpt lat="46.43736" lon="5.29405">
        <ele>231.19999694824</ele>
        <time>2021-03-12T13:36:20.000Z</time>
      </trkpt>
      <trkpt lat="46.43734" lon="5.29414">
        <ele>231.19999694824</ele>
        <time>2021-03-12T13:36:21.000Z</time>
      </trkpt>
      <trkpt lat="46.43731" lon="5.29433">
        <ele>231.19999694824</ele>
        <time>2021-03-12T13:36:23.000Z</time>
      </trkpt>
      <trkpt lat="46.43729" lon="5.29442">
        <ele>231.19999694824</ele>
        <time>2021-03-12T13:36:24.000Z</time>
      </trkpt>
      <trkpt lat="46.43727" lon="5.29452">
        <ele>231.19999694824</ele>
        <time>2021-03-12T13:36:25.000Z</time>
      </trkpt>
      <trkpt lat="46.43723" lon="5.2947">
        <ele>231.19999694824</ele>
        <time>2021-03-12T13:36:27.000Z</time>
      </trkpt>
      <trkpt lat="46.43719" lon="5.29489">
        <ele>231</ele>
        <time>2021-03-12T13:36:29.000Z</time>
      </trkpt>
      <trkpt lat="46.43715" lon="5.29507">
        <ele>230.80000305176</ele>
        <time>2021-03-12T13:36:31.000Z</time>
      </trkpt>
      <trkpt lat="46.43711" lon="5.29525">
        <ele>230.80000305176</ele>
        <time>2021-03-12T13:36:33.000Z</time>
      </trkpt>
      <trkpt lat="46.43707" lon="5.29542">
        <ele>230.80000305176</ele>
        <time>2021-03-12T13:36:35.000Z</time>
      </trkpt>
      <trkpt lat="46.43703" lon="5.29559">
        <ele>230.80000305176</ele>
        <time>2021-03-12T13:36:37.000Z</time>
      </trkpt>
      <trkpt lat="46.43699" lon="5.29576">
        <ele>230.80000305176</ele>
        <time>2021-03-12T13:36:39.000Z</time>
      </trkpt>
      <trkpt lat="46.43695" lon="5.29594">
        <ele>231</ele>
        <time>2021-03-12T13:36:41.000Z</time>
      </trkpt>
      <trkpt lat="46.4369" lon="5.29611">
        <ele>231.39999389648</ele>
        <time>2021-03-12T13:36:43.000Z</time>
      </trkpt>
      <trkpt lat="46.43688" lon="5.2962">
        <ele>231.80000305176</ele>
        <time>2021-03-12T13:36:44.000Z</time>
      </trkpt>
      <trkpt lat="46.43686" lon="5.29628">
        <ele>232</ele>
        <time>2021-03-12T13:36:45.000Z</time>
      </trkpt>
      <trkpt lat="46.43682" lon="5.29647">
        <ele>232.39999389648</ele>
        <time>2021-03-12T13:36:47.000Z</time>
      </trkpt>
      <trkpt lat="46.43678" lon="5.29667">
        <ele>232.39999389648</ele>
        <time>2021-03-12T13:36:49.000Z</time>
      </trkpt>
      <trkpt lat="46.43675" lon="5.29677">
        <ele>232.39999389648</ele>
        <time>2021-03-12T13:36:50.000Z</time>
      </trkpt>
      <trkpt lat="46.43673" lon="5.29687">
        <ele>232.39999389648</ele>
        <time>2021-03-12T13:36:51.000Z</time>
      </trkpt>
      <trkpt lat="46.43669" lon="5.29709">
        <ele>232.39999389648</ele>
        <time>2021-03-12T13:36:53.000Z</time>
      </trkpt>
      <trkpt lat="46.43664" lon="5.2973">
        <ele>232.39999389648</ele>
        <time>2021-03-12T13:36:55.000Z</time>
      </trkpt>
      <trkpt lat="46.43659" lon="5.29751">
        <ele>232.39999389648</ele>
        <time>2021-03-12T13:36:57.000Z</time>
      </trkpt>
      <trkpt lat="46.43655" lon="5.29772">
        <ele>232.19999694824</ele>
        <time>2021-03-12T13:36:59.000Z</time>
      </trkpt>
      <trkpt lat="46.43652" lon="5.29782">
        <ele>231.80000305176</ele>
        <time>2021-03-12T13:37:00.000Z</time>
      </trkpt>
      <trkpt lat="46.4365" lon="5.29793">
        <ele>231.60000610352</ele>
        <time>2021-03-12T13:37:01.000Z</time>
      </trkpt>
      <trkpt lat="46.43649" lon="5.29803">
        <ele>231.39999389648</ele>
        <time>2021-03-12T13:37:02.000Z</time>
      </trkpt>
      <trkpt lat="46.43649" lon="5.29813">
        <ele>231.19999694824</ele>
        <time>2021-03-12T13:37:03.000Z</time>
      </trkpt>
      <trkpt lat="46.4365" lon="5.29824">
        <ele>231.19999694824</ele>
        <time>2021-03-12T13:37:04.000Z</time>
      </trkpt>
      <trkpt lat="46.43652" lon="5.29834">
        <ele>231</ele>
        <time>2021-03-12T13:37:05.000Z</time>
      </trkpt>
      <trkpt lat="46.43659" lon="5.29852">
        <ele>231</ele>
        <time>2021-03-12T13:37:07.000Z</time>
      </trkpt>
      <trkpt lat="46.43663" lon="5.2986">
        <ele>231</ele>
        <time>2021-03-12T13:37:08.000Z</time>
      </trkpt>
      <trkpt lat="46.43669" lon="5.29868">
        <ele>231</ele>
        <time>2021-03-12T13:37:09.000Z</time>
      </trkpt>
      <trkpt lat="46.43674" lon="5.29874">
        <ele>231</ele>
        <time>2021-03-12T13:37:10.000Z</time>
      </trkpt>
      <trkpt lat="46.4368" lon="5.2988">
        <ele>231</ele>
        <time>2021-03-12T13:37:11.000Z</time>
      </trkpt>
      <trkpt lat="46.43687" lon="5.29886">
        <ele>231.19999694824</ele>
        <time>2021-03-12T13:37:12.000Z</time>
      </trkpt>
      <trkpt lat="46.43692" lon="5.29892">
        <ele>231.19999694824</ele>
        <time>2021-03-12T13:37:13.000Z</time>
      </trkpt>
      <trkpt lat="46.43704" lon="5.29904">
        <ele>231.80000305176</ele>
        <time>2021-03-12T13:37:15.000Z</time>
      </trkpt>
      <trkpt lat="46.43715" lon="5.29916">
        <ele>232</ele>
        <time>2021-03-12T13:37:17.000Z</time>
      </trkpt>
      <trkpt lat="46.43721" lon="5.29921">
        <ele>232.19999694824</ele>
        <time>2021-03-12T13:37:18.000Z</time>
      </trkpt>
      <trkpt lat="46.43727" lon="5.29926">
        <ele>232.19999694824</ele>
        <time>2021-03-12T13:37:19.000Z</time>
      </trkpt>
      <trkpt lat="46.43739" lon="5.29936">
        <ele>232.60000610352</ele>
        <time>2021-03-12T13:37:21.000Z</time>
      </trkpt>
      <trkpt lat="46.43752" lon="5.29947">
        <ele>232.80000305176</ele>
        <time>2021-03-12T13:37:23.000Z</time>
      </trkpt>
      <trkpt lat="46.43758" lon="5.29952">
        <ele>233</ele>
        <time>2021-03-12T13:37:24.000Z</time>
      </trkpt>
      <trkpt lat="46.43765" lon="5.29957">
        <ele>233.19999694824</ele>
        <time>2021-03-12T13:37:25.000Z</time>
      </trkpt>
      <trkpt lat="46.43778" lon="5.29966">
        <ele>233.80000305176</ele>
        <time>2021-03-12T13:37:27.000Z</time>
      </trkpt>
      <trkpt lat="46.43785" lon="5.29971">
        <ele>234</ele>
        <time>2021-03-12T13:37:28.000Z</time>
      </trkpt>
      <trkpt lat="46.43792" lon="5.29976">
        <ele>234.19999694824</ele>
        <time>2021-03-12T13:37:29.000Z</time>
      </trkpt>
      <trkpt lat="46.43806" lon="5.29986">
        <ele>234.39999389648</ele>
        <time>2021-03-12T13:37:31.000Z</time>
      </trkpt>
      <trkpt lat="46.4382" lon="5.29996">
        <ele>234.39999389648</ele>
        <time>2021-03-12T13:37:33.000Z</time>
      </trkpt>
      <trkpt lat="46.43833" lon="5.30006">
        <ele>234.60000610352</ele>
        <time>2021-03-12T13:37:35.000Z</time>
      </trkpt>
      <trkpt lat="46.43847" lon="5.30015">
        <ele>234.60000610352</ele>
        <time>2021-03-12T13:37:37.000Z</time>
      </trkpt>
      <trkpt lat="46.43861" lon="5.30025">
        <ele>234.60000610352</ele>
        <time>2021-03-12T13:37:39.000Z</time>
      </trkpt>
      <trkpt lat="46.43874" lon="5.30037">
        <ele>234.60000610352</ele>
        <time>2021-03-12T13:37:41.000Z</time>
      </trkpt>
      <trkpt lat="46.43879" lon="5.30044">
        <ele>234.60000610352</ele>
        <time>2021-03-12T13:37:42.000Z</time>
      </trkpt>
      <trkpt lat="46.43885" lon="5.30053">
        <ele>234.60000610352</ele>
        <time>2021-03-12T13:37:43.000Z</time>
      </trkpt>
      <trkpt lat="46.43893" lon="5.30071">
        <ele>234.60000610352</ele>
        <time>2021-03-12T13:37:45.000Z</time>
      </trkpt>
      <trkpt lat="46.43897" lon="5.3008">
        <ele>234.39999389648</ele>
        <time>2021-03-12T13:37:46.000Z</time>
      </trkpt>
      <trkpt lat="46.43901" lon="5.3009">
        <ele>234.39999389648</ele>
        <time>2021-03-12T13:37:47.000Z</time>
      </trkpt>
      <trkpt lat="46.43904" lon="5.301">
        <ele>234.39999389648</ele>
        <time>2021-03-12T13:37:48.000Z</time>
      </trkpt>
      <trkpt lat="46.43907" lon="5.3011">
        <ele>234.39999389648</ele>
        <time>2021-03-12T13:37:49.000Z</time>
      </trkpt>
      <trkpt lat="46.43914" lon="5.3013">
        <ele>234.39999389648</ele>
        <time>2021-03-12T13:37:51.000Z</time>
      </trkpt>
      <trkpt lat="46.43921" lon="5.30151">
        <ele>234.39999389648</ele>
        <time>2021-03-12T13:37:53.000Z</time>
      </trkpt>
      <trkpt lat="46.43927" lon="5.30171">
        <ele>234.39999389648</ele>
        <time>2021-03-12T13:37:55.000Z</time>
      </trkpt>
      <trkpt lat="46.43933" lon="5.30192">
        <ele>234.39999389648</ele>
        <time>2021-03-12T13:37:57.000Z</time>
      </trkpt>
      <trkpt lat="46.43939" lon="5.30214">
        <ele>234.39999389648</ele>
        <time>2021-03-12T13:37:59.000Z</time>
      </trkpt>
      <trkpt lat="46.43945" lon="5.30236">
        <ele>234.39999389648</ele>
        <time>2021-03-12T13:38:01.000Z</time>
      </trkpt>
      <trkpt lat="46.43951" lon="5.30258">
        <ele>234.39999389648</ele>
        <time>2021-03-12T13:38:03.000Z</time>
      </trkpt>
      <trkpt lat="46.43956" lon="5.3028">
        <ele>234.39999389648</ele>
        <time>2021-03-12T13:38:05.000Z</time>
      </trkpt>
      <trkpt lat="46.43961" lon="5.30301">
        <ele>234.19999694824</ele>
        <time>2021-03-12T13:38:07.000Z</time>
      </trkpt>
      <trkpt lat="46.43966" lon="5.30322">
        <ele>234.19999694824</ele>
        <time>2021-03-12T13:38:09.000Z</time>
      </trkpt>
      <trkpt lat="46.43969" lon="5.30343">
        <ele>234.19999694824</ele>
        <time>2021-03-12T13:38:11.000Z</time>
      </trkpt>
      <trkpt lat="46.43971" lon="5.30365">
        <ele>234.39999389648</ele>
        <time>2021-03-12T13:38:13.000Z</time>
      </trkpt>
      <trkpt lat="46.43974" lon="5.30386">
        <ele>234.39999389648</ele>
        <time>2021-03-12T13:38:15.000Z</time>
      </trkpt>
      <trkpt lat="46.43976" lon="5.30408">
        <ele>234.39999389648</ele>
        <time>2021-03-12T13:38:17.000Z</time>
      </trkpt>
      <trkpt lat="46.43978" lon="5.30429">
        <ele>234.60000610352</ele>
        <time>2021-03-12T13:38:19.000Z</time>
      </trkpt>
      <trkpt lat="46.4398" lon="5.3045">
        <ele>234.60000610352</ele>
        <time>2021-03-12T13:38:21.000Z</time>
      </trkpt>
      <trkpt lat="46.43982" lon="5.30471">
        <ele>234.60000610352</ele>
        <time>2021-03-12T13:38:23.000Z</time>
      </trkpt>
      <trkpt lat="46.43984" lon="5.30492">
        <ele>234.60000610352</ele>
        <time>2021-03-12T13:38:25.000Z</time>
      </trkpt>
      <trkpt lat="46.43986" lon="5.30513">
        <ele>234.80000305176</ele>
        <time>2021-03-12T13:38:27.000Z</time>
      </trkpt>
      <trkpt lat="46.43988" lon="5.30534">
        <ele>235</ele>
        <time>2021-03-12T13:38:29.000Z</time>
      </trkpt>
      <trkpt lat="46.43988" lon="5.30545">
        <ele>235</ele>
        <time>2021-03-12T13:38:30.000Z</time>
      </trkpt>
      <trkpt lat="46.43989" lon="5.30555">
        <ele>235.19999694824</ele>
        <time>2021-03-12T13:38:31.000Z</time>
      </trkpt>
      <trkpt lat="46.4399" lon="5.30566">
        <ele>235.19999694824</ele>
        <time>2021-03-12T13:38:32.000Z</time>
      </trkpt>
      <trkpt lat="46.4399" lon="5.30576">
        <ele>235.39999389648</ele>
        <time>2021-03-12T13:38:33.000Z</time>
      </trkpt>
      <trkpt lat="46.4399" lon="5.30598">
        <ele>235.39999389648</ele>
        <time>2021-03-12T13:38:35.000Z</time>
      </trkpt>
      <trkpt lat="46.43989" lon="5.30619">
        <ele>235.39999389648</ele>
        <time>2021-03-12T13:38:37.000Z</time>
      </trkpt>
      <trkpt lat="46.43988" lon="5.30629">
        <ele>235.39999389648</ele>
        <time>2021-03-12T13:38:38.000Z</time>
      </trkpt>
      <trkpt lat="46.43987" lon="5.30639">
        <ele>235.39999389648</ele>
        <time>2021-03-12T13:38:39.000Z</time>
      </trkpt>
      <trkpt lat="46.43985" lon="5.30658">
        <ele>235.39999389648</ele>
        <time>2021-03-12T13:38:41.000Z</time>
      </trkpt>
      <trkpt lat="46.43985" lon="5.30666">
        <ele>235.39999389648</ele>
        <time>2021-03-12T13:38:42.000Z</time>
      </trkpt>
      <trkpt lat="46.43987" lon="5.30672">
        <ele>235.39999389648</ele>
        <time>2021-03-12T13:38:43.000Z</time>
      </trkpt>
      <trkpt lat="46.43996" lon="5.30675">
        <ele>235.39999389648</ele>
        <time>2021-03-12T13:38:45.000Z</time>
      </trkpt>
      <trkpt lat="46.44007" lon="5.30668">
        <ele>235.39999389648</ele>
        <time>2021-03-12T13:38:47.000Z</time>
      </trkpt>
      <trkpt lat="46.44013" lon="5.30663">
        <ele>235.39999389648</ele>
        <time>2021-03-12T13:38:48.000Z</time>
      </trkpt>
      <trkpt lat="46.44018" lon="5.30658">
        <ele>235.39999389648</ele>
        <time>2021-03-12T13:38:49.000Z</time>
      </trkpt>
      <trkpt lat="46.4403" lon="5.30648">
        <ele>235.19999694824</ele>
        <time>2021-03-12T13:38:51.000Z</time>
      </trkpt>
      <trkpt lat="46.44042" lon="5.30637">
        <ele>235</ele>
        <time>2021-03-12T13:38:53.000Z</time>
      </trkpt>
      <trkpt lat="46.44056" lon="5.30628">
        <ele>235</ele>
        <time>2021-03-12T13:38:55.000Z</time>
      </trkpt>
      <trkpt lat="46.4407" lon="5.30625">
        <ele>235</ele>
        <time>2021-03-12T13:38:57.000Z</time>
      </trkpt>
      <trkpt lat="46.44077" lon="5.30627">
        <ele>235</ele>
        <time>2021-03-12T13:38:58.000Z</time>
      </trkpt>
      <trkpt lat="46.44084" lon="5.3063">
        <ele>235</ele>
        <time>2021-03-12T13:38:59.000Z</time>
      </trkpt>
      <trkpt lat="46.44098" lon="5.30639">
        <ele>235</ele>
        <time>2021-03-12T13:39:01.000Z</time>
      </trkpt>
      <trkpt lat="46.44104" lon="5.30644">
        <ele>235</ele>
        <time>2021-03-12T13:39:02.000Z</time>
      </trkpt>
      <trkpt lat="46.44111" lon="5.30649">
        <ele>235</ele>
        <time>2021-03-12T13:39:03.000Z</time>
      </trkpt>
      <trkpt lat="46.44124" lon="5.30658">
        <ele>235.39999389648</ele>
        <time>2021-03-12T13:39:05.000Z</time>
      </trkpt>
      <trkpt lat="46.44138" lon="5.30666">
        <ele>235.39999389648</ele>
        <time>2021-03-12T13:39:07.000Z</time>
      </trkpt>
      <trkpt lat="46.44153" lon="5.30672">
        <ele>235.39999389648</ele>
        <time>2021-03-12T13:39:09.000Z</time>
      </trkpt>
      <trkpt lat="46.44169" lon="5.30676">
        <ele>235.39999389648</ele>
        <time>2021-03-12T13:39:11.000Z</time>
      </trkpt>
      <trkpt lat="46.44185" lon="5.30677">
        <ele>235.39999389648</ele>
        <time>2021-03-12T13:39:13.000Z</time>
      </trkpt>
      <trkpt lat="46.44193" lon="5.30676">
        <ele>235.39999389648</ele>
        <time>2021-03-12T13:39:14.000Z</time>
      </trkpt>
      <trkpt lat="46.44201" lon="5.30675">
        <ele>235.39999389648</ele>
        <time>2021-03-12T13:39:15.000Z</time>
      </trkpt>
      <trkpt lat="46.44216" lon="5.30673">
        <ele>235.39999389648</ele>
        <time>2021-03-12T13:39:17.000Z</time>
      </trkpt>
      <trkpt lat="46.44232" lon="5.3067">
        <ele>235.19999694824</ele>
        <time>2021-03-12T13:39:19.000Z</time>
      </trkpt>
      <trkpt lat="46.44247" lon="5.30666">
        <ele>235</ele>
        <time>2021-03-12T13:39:21.000Z</time>
      </trkpt>
      <trkpt lat="46.44262" lon="5.3066">
        <ele>234.80000305176</ele>
        <time>2021-03-12T13:39:23.000Z</time>
      </trkpt>
      <trkpt lat="46.44276" lon="5.30652">
        <ele>234.60000610352</ele>
        <time>2021-03-12T13:39:25.000Z</time>
      </trkpt>
      <trkpt lat="46.44283" lon="5.30647">
        <ele>234.60000610352</ele>
        <time>2021-03-12T13:39:26.000Z</time>
      </trkpt>
      <trkpt lat="46.4429" lon="5.30641">
        <ele>234.60000610352</ele>
        <time>2021-03-12T13:39:27.000Z</time>
      </trkpt>
      <trkpt lat="46.44302" lon="5.30628">
        <ele>234.60000610352</ele>
        <time>2021-03-12T13:39:29.000Z</time>
      </trkpt>
      <trkpt lat="46.44315" lon="5.30614">
        <ele>234.60000610352</ele>
        <time>2021-03-12T13:39:31.000Z</time>
      </trkpt>
      <trkpt lat="46.44321" lon="5.30608">
        <ele>234.39999389648</ele>
        <time>2021-03-12T13:39:32.000Z</time>
      </trkpt>
      <trkpt lat="46.44329" lon="5.30604">
        <ele>234.39999389648</ele>
        <time>2021-03-12T13:39:33.000Z</time>
      </trkpt>
      <trkpt lat="46.44344" lon="5.30601">
        <ele>234.39999389648</ele>
        <time>2021-03-12T13:39:35.000Z</time>
      </trkpt>
      <trkpt lat="46.4436" lon="5.30603">
        <ele>234.39999389648</ele>
        <time>2021-03-12T13:39:37.000Z</time>
      </trkpt>
      <trkpt lat="46.44375" lon="5.30602">
        <ele>234.19999694824</ele>
        <time>2021-03-12T13:39:39.000Z</time>
      </trkpt>
      <trkpt lat="46.4439" lon="5.30597">
        <ele>234</ele>
        <time>2021-03-12T13:39:41.000Z</time>
      </trkpt>
      <trkpt lat="46.44404" lon="5.30589">
        <ele>233.60000610352</ele>
        <time>2021-03-12T13:39:43.000Z</time>
      </trkpt>
      <trkpt lat="46.44418" lon="5.30578">
        <ele>233.39999389648</ele>
        <time>2021-03-12T13:39:45.000Z</time>
      </trkpt>
      <trkpt lat="46.44425" lon="5.30574">
        <ele>233.19999694824</ele>
        <time>2021-03-12T13:39:46.000Z</time>
      </trkpt>
      <trkpt lat="46.44433" lon="5.30571">
        <ele>233.19999694824</ele>
        <time>2021-03-12T13:39:47.000Z</time>
      </trkpt>
      <trkpt lat="46.44449" lon="5.3057">
        <ele>233</ele>
        <time>2021-03-12T13:39:49.000Z</time>
      </trkpt>
      <trkpt lat="46.44466" lon="5.30572">
        <ele>233</ele>
        <time>2021-03-12T13:39:51.000Z</time>
      </trkpt>
      <trkpt lat="46.44474" lon="5.30572">
        <ele>233</ele>
        <time>2021-03-12T13:39:52.000Z</time>
      </trkpt>
      <trkpt lat="46.44483" lon="5.30571">
        <ele>232.80000305176</ele>
        <time>2021-03-12T13:39:53.000Z</time>
      </trkpt>
      <trkpt lat="46.44499" lon="5.30566">
        <ele>232.80000305176</ele>
        <time>2021-03-12T13:39:55.000Z</time>
      </trkpt>
      <trkpt lat="46.44516" lon="5.30559">
        <ele>232.60000610352</ele>
        <time>2021-03-12T13:39:57.000Z</time>
      </trkpt>
      <trkpt lat="46.44532" lon="5.3055">
        <ele>232.60000610352</ele>
        <time>2021-03-12T13:39:59.000Z</time>
      </trkpt>
      <trkpt lat="46.44548" lon="5.3054">
        <ele>232.39999389648</ele>
        <time>2021-03-12T13:40:01.000Z</time>
      </trkpt>
      <trkpt lat="46.44565" lon="5.3053">
        <ele>232.19999694824</ele>
        <time>2021-03-12T13:40:03.000Z</time>
      </trkpt>
      <trkpt lat="46.44583" lon="5.30522">
        <ele>232.19999694824</ele>
        <time>2021-03-12T13:40:05.000Z</time>
      </trkpt>
      <trkpt lat="46.44602" lon="5.3052">
        <ele>232</ele>
        <time>2021-03-12T13:40:07.000Z</time>
      </trkpt>
      <trkpt lat="46.44621" lon="5.30521">
        <ele>231.39999389648</ele>
        <time>2021-03-12T13:40:09.000Z</time>
      </trkpt>
      <trkpt lat="46.44631" lon="5.30521">
        <ele>231</ele>
        <time>2021-03-12T13:40:10.000Z</time>
      </trkpt>
      <trkpt lat="46.44641" lon="5.30521">
        <ele>230.60000610352</ele>
        <time>2021-03-12T13:40:11.000Z</time>
      </trkpt>
      <trkpt lat="46.44661" lon="5.30521">
        <ele>229.60000610352</ele>
        <time>2021-03-12T13:40:13.000Z</time>
      </trkpt>
      <trkpt lat="46.4468" lon="5.3052">
        <ele>228.80000305176</ele>
        <time>2021-03-12T13:40:15.000Z</time>
      </trkpt>
      <trkpt lat="46.44689" lon="5.30521">
        <ele>228.39999389648</ele>
        <time>2021-03-12T13:40:16.000Z</time>
      </trkpt>
      <trkpt lat="46.44698" lon="5.3052">
        <ele>228.19999694824</ele>
        <time>2021-03-12T13:40:17.000Z</time>
      </trkpt>
      <trkpt lat="46.44708" lon="5.3052">
        <ele>228</ele>
        <time>2021-03-12T13:40:18.000Z</time>
      </trkpt>
      <trkpt lat="46.44717" lon="5.3052">
        <ele>227.60000610352</ele>
        <time>2021-03-12T13:40:19.000Z</time>
      </trkpt>
      <trkpt lat="46.44726" lon="5.30519">
        <ele>227.39999389648</ele>
        <time>2021-03-12T13:40:20.000Z</time>
      </trkpt>
      <trkpt lat="46.44735" lon="5.30519">
        <ele>227.19999694824</ele>
        <time>2021-03-12T13:40:21.000Z</time>
      </trkpt>
      <trkpt lat="46.44753" lon="5.30519">
        <ele>227</ele>
        <time>2021-03-12T13:40:23.000Z</time>
      </trkpt>
      <trkpt lat="46.4477" lon="5.30519">
        <ele>226.80000305176</ele>
        <time>2021-03-12T13:40:25.000Z</time>
      </trkpt>
      <trkpt lat="46.44779" lon="5.30519">
        <ele>226.80000305176</ele>
        <time>2021-03-12T13:40:26.000Z</time>
      </trkpt>
      <trkpt lat="46.44788" lon="5.30519">
        <ele>226.80000305176</ele>
        <time>2021-03-12T13:40:27.000Z</time>
      </trkpt>
      <trkpt lat="46.44805" lon="5.30518">
        <ele>226.80000305176</ele>
        <time>2021-03-12T13:40:29.000Z</time>
      </trkpt>
      <trkpt lat="46.44823" lon="5.30518">
        <ele>226.80000305176</ele>
        <time>2021-03-12T13:40:31.000Z</time>
      </trkpt>
      <trkpt lat="46.44841" lon="5.30517">
        <ele>226.60000610352</ele>
        <time>2021-03-12T13:40:33.000Z</time>
      </trkpt>
      <trkpt lat="46.4486" lon="5.30517">
        <ele>226.39999389648</ele>
        <time>2021-03-12T13:40:35.000Z</time>
      </trkpt>
      <trkpt lat="46.44879" lon="5.30517">
        <ele>226.39999389648</ele>
        <time>2021-03-12T13:40:37.000Z</time>
      </trkpt>
      <trkpt lat="46.44899" lon="5.30515">
        <ele>225.80000305176</ele>
        <time>2021-03-12T13:40:39.000Z</time>
      </trkpt>
      <trkpt lat="46.4492" lon="5.30513">
        <ele>225.19999694824</ele>
        <time>2021-03-12T13:40:41.000Z</time>
      </trkpt>
      <trkpt lat="46.44941" lon="5.30507">
        <ele>224.39999389648</ele>
        <time>2021-03-12T13:40:43.000Z</time>
      </trkpt>
      <trkpt lat="46.44951" lon="5.30504">
        <ele>224</ele>
        <time>2021-03-12T13:40:44.000Z</time>
      </trkpt>
      <trkpt lat="46.44961" lon="5.30501">
        <ele>223.80000305176</ele>
        <time>2021-03-12T13:40:45.000Z</time>
      </trkpt>
      <trkpt lat="46.44981" lon="5.30494">
        <ele>223</ele>
        <time>2021-03-12T13:40:47.000Z</time>
      </trkpt>
      <trkpt lat="46.45001" lon="5.30488">
        <ele>222.39999389648</ele>
        <time>2021-03-12T13:40:49.000Z</time>
      </trkpt>
      <trkpt lat="46.45011" lon="5.30487">
        <ele>222</ele>
        <time>2021-03-12T13:40:50.000Z</time>
      </trkpt>
      <trkpt lat="46.45021" lon="5.30487">
        <ele>221.60000610352</ele>
        <time>2021-03-12T13:40:51.000Z</time>
      </trkpt>
      <trkpt lat="46.45031" lon="5.30488">
        <ele>221.39999389648</ele>
        <time>2021-03-12T13:40:52.000Z</time>
      </trkpt>
      <trkpt lat="46.45041" lon="5.30491">
        <ele>221.19999694824</ele>
        <time>2021-03-12T13:40:53.000Z</time>
      </trkpt>
      <trkpt lat="46.45061" lon="5.30495">
        <ele>220.80000305176</ele>
        <time>2021-03-12T13:40:55.000Z</time>
      </trkpt>
      <trkpt lat="46.45072" lon="5.30498">
        <ele>220.39999389648</ele>
        <time>2021-03-12T13:40:56.000Z</time>
      </trkpt>
      <trkpt lat="46.45082" lon="5.305">
        <ele>220.19999694824</ele>
        <time>2021-03-12T13:40:57.000Z</time>
      </trkpt>
      <trkpt lat="46.45093" lon="5.30502">
        <ele>219.80000305176</ele>
        <time>2021-03-12T13:40:58.000Z</time>
      </trkpt>
      <trkpt lat="46.45104" lon="5.30502">
        <ele>219.60000610352</ele>
        <time>2021-03-12T13:40:59.000Z</time>
      </trkpt>
      <trkpt lat="46.45125" lon="5.30493">
        <ele>219.39999389648</ele>
        <time>2021-03-12T13:41:01.000Z</time>
      </trkpt>
      <trkpt lat="46.4514" lon="5.3047">
        <ele>218.60000610352</ele>
        <time>2021-03-12T13:41:03.000Z</time>
      </trkpt>
      <trkpt lat="46.45146" lon="5.30456">
        <ele>218.19999694824</ele>
        <time>2021-03-12T13:41:04.000Z</time>
      </trkpt>
      <trkpt lat="46.45151" lon="5.30442">
        <ele>217.60000610352</ele>
        <time>2021-03-12T13:41:05.000Z</time>
      </trkpt>
      <trkpt lat="46.45156" lon="5.30428">
        <ele>216.80000305176</ele>
        <time>2021-03-12T13:41:06.000Z</time>
      </trkpt>
      <trkpt lat="46.45161" lon="5.30413">
        <ele>215.60000610352</ele>
        <time>2021-03-12T13:41:07.000Z</time>
      </trkpt>
      <trkpt lat="46.45169" lon="5.30384">
        <ele>214.39999389648</ele>
        <time>2021-03-12T13:41:09.000Z</time>
      </trkpt>
      <trkpt lat="46.45181" lon="5.30358">
        <ele>213.19999694824</ele>
        <time>2021-03-12T13:41:11.000Z</time>
      </trkpt>
      <trkpt lat="46.45189" lon="5.30346">
        <ele>212.60000610352</ele>
        <time>2021-03-12T13:41:12.000Z</time>
      </trkpt>
      <trkpt lat="46.45198" lon="5.30337">
        <ele>212</ele>
        <time>2021-03-12T13:41:13.000Z</time>
      </trkpt>
      <trkpt lat="46.45208" lon="5.30332">
        <ele>211.60000610352</ele>
        <time>2021-03-12T13:41:14.000Z</time>
      </trkpt>
      <trkpt lat="46.45218" lon="5.30332">
        <ele>211</ele>
        <time>2021-03-12T13:41:15.000Z</time>
      </trkpt>
      <trkpt lat="46.45229" lon="5.30333">
        <ele>210.60000610352</ele>
        <time>2021-03-12T13:41:16.000Z</time>
      </trkpt>
      <trkpt lat="46.45239" lon="5.30336">
        <ele>210.19999694824</ele>
        <time>2021-03-12T13:41:17.000Z</time>
      </trkpt>
      <trkpt lat="46.4526" lon="5.30342">
        <ele>209.39999389648</ele>
        <time>2021-03-12T13:41:19.000Z</time>
      </trkpt>
      <trkpt lat="46.45281" lon="5.30347">
        <ele>209</ele>
        <time>2021-03-12T13:41:21.000Z</time>
      </trkpt>
      <trkpt lat="46.45302" lon="5.30351">
        <ele>208.60000610352</ele>
        <time>2021-03-12T13:41:23.000Z</time>
      </trkpt>
      <trkpt lat="46.45312" lon="5.30351">
        <ele>208.60000610352</ele>
        <time>2021-03-12T13:41:24.000Z</time>
      </trkpt>
      <trkpt lat="46.45322" lon="5.30349">
        <ele>208.39999389648</ele>
        <time>2021-03-12T13:41:25.000Z</time>
      </trkpt>
      <trkpt lat="46.45342" lon="5.30339">
        <ele>208.39999389648</ele>
        <time>2021-03-12T13:41:27.000Z</time>
      </trkpt>
      <trkpt lat="46.45351" lon="5.30333">
        <ele>208.19999694824</ele>
        <time>2021-03-12T13:41:28.000Z</time>
      </trkpt>
      <trkpt lat="46.4536" lon="5.30328">
        <ele>208.19999694824</ele>
        <time>2021-03-12T13:41:29.000Z</time>
      </trkpt>
      <trkpt lat="46.4538" lon="5.30324">
        <ele>208</ele>
        <time>2021-03-12T13:41:31.000Z</time>
      </trkpt>
      <trkpt lat="46.454" lon="5.30328">
        <ele>208</ele>
        <time>2021-03-12T13:41:33.000Z</time>
      </trkpt>
      <trkpt lat="46.4541" lon="5.30331">
        <ele>207.80000305176</ele>
        <time>2021-03-12T13:41:34.000Z</time>
      </trkpt>
      <trkpt lat="46.4542" lon="5.30334">
        <ele>207.19999694824</ele>
        <time>2021-03-12T13:41:35.000Z</time>
      </trkpt>
      <trkpt lat="46.45439" lon="5.3034">
        <ele>206.39999389648</ele>
        <time>2021-03-12T13:41:37.000Z</time>
      </trkpt>
      <trkpt lat="46.45459" lon="5.30346">
        <ele>206.39999389648</ele>
        <time>2021-03-12T13:41:39.000Z</time>
      </trkpt>
      <trkpt lat="46.45469" lon="5.30348">
        <ele>206.19999694824</ele>
        <time>2021-03-12T13:41:40.000Z</time>
      </trkpt>
      <trkpt lat="46.45478" lon="5.3035">
        <ele>206.19999694824</ele>
        <time>2021-03-12T13:41:41.000Z</time>
      </trkpt>
      <trkpt lat="46.45498" lon="5.3035">
        <ele>206.19999694824</ele>
        <time>2021-03-12T13:41:43.000Z</time>
      </trkpt>
      <trkpt lat="46.45518" lon="5.30348">
        <ele>206</ele>
        <time>2021-03-12T13:41:45.000Z</time>
      </trkpt>
      <trkpt lat="46.45537" lon="5.30347">
        <ele>205.80000305176</ele>
        <time>2021-03-12T13:41:47.000Z</time>
      </trkpt>
      <trkpt lat="46.45546" lon="5.30349">
        <ele>205.80000305176</ele>
        <time>2021-03-12T13:41:48.000Z</time>
      </trkpt>
      <trkpt lat="46.45555" lon="5.30354">
        <ele>205.60000610352</ele>
        <time>2021-03-12T13:41:49.000Z</time>
      </trkpt>
      <trkpt lat="46.45572" lon="5.30368">
        <ele>205.60000610352</ele>
        <time>2021-03-12T13:41:51.000Z</time>
      </trkpt>
      <trkpt lat="46.4558" lon="5.30376">
        <ele>205.60000610352</ele>
        <time>2021-03-12T13:41:52.000Z</time>
      </trkpt>
      <trkpt lat="46.45587" lon="5.30384">
        <ele>205.39999389648</ele>
        <time>2021-03-12T13:41:53.000Z</time>
      </trkpt>
      <trkpt lat="46.45603" lon="5.304">
        <ele>205.39999389648</ele>
        <time>2021-03-12T13:41:55.000Z</time>
      </trkpt>
      <trkpt lat="46.45611" lon="5.30408">
        <ele>205.19999694824</ele>
        <time>2021-03-12T13:41:56.000Z</time>
      </trkpt>
      <trkpt lat="46.45619" lon="5.30415">
        <ele>205.19999694824</ele>
        <time>2021-03-12T13:41:57.000Z</time>
      </trkpt>
      <trkpt lat="46.45627" lon="5.30422">
        <ele>205.19999694824</ele>
        <time>2021-03-12T13:41:58.000Z</time>
      </trkpt>
      <trkpt lat="46.45636" lon="5.30427">
        <ele>205.19999694824</ele>
        <time>2021-03-12T13:41:59.000Z</time>
      </trkpt>
      <trkpt lat="46.45654" lon="5.30435">
        <ele>205.19999694824</ele>
        <time>2021-03-12T13:42:01.000Z</time>
      </trkpt>
      <trkpt lat="46.45663" lon="5.30437">
        <ele>205.19999694824</ele>
        <time>2021-03-12T13:42:02.000Z</time>
      </trkpt>
      <trkpt lat="46.45672" lon="5.30439">
        <ele>205.19999694824</ele>
        <time>2021-03-12T13:42:03.000Z</time>
      </trkpt>
      <trkpt lat="46.45689" lon="5.30437">
        <ele>205.19999694824</ele>
        <time>2021-03-12T13:42:05.000Z</time>
      </trkpt>
      <trkpt lat="46.45704" lon="5.30431">
        <ele>205.19999694824</ele>
        <time>2021-03-12T13:42:07.000Z</time>
      </trkpt>
      <trkpt lat="46.45718" lon="5.30422">
        <ele>205.19999694824</ele>
        <time>2021-03-12T13:42:09.000Z</time>
      </trkpt>
      <trkpt lat="46.45729" lon="5.30411">
        <ele>205.19999694824</ele>
        <time>2021-03-12T13:42:11.000Z</time>
      </trkpt>
      <trkpt lat="46.4574" lon="5.304">
        <ele>205.39999389648</ele>
        <time>2021-03-12T13:42:13.000Z</time>
      </trkpt>
      <trkpt lat="46.45745" lon="5.30394">
        <ele>205.60000610352</ele>
        <time>2021-03-12T13:42:14.000Z</time>
      </trkpt>
      <trkpt lat="46.45749" lon="5.30389">
        <ele>205.80000305176</ele>
        <time>2021-03-12T13:42:15.000Z</time>
      </trkpt>
      <trkpt lat="46.45759" lon="5.30379">
        <ele>206.39999389648</ele>
        <time>2021-03-12T13:42:17.000Z</time>
      </trkpt>
      <trkpt lat="46.45768" lon="5.30369">
        <ele>207.19999694824</ele>
        <time>2021-03-12T13:42:19.000Z</time>
      </trkpt>
      <trkpt lat="46.45773" lon="5.30364">
        <ele>207.80000305176</ele>
        <time>2021-03-12T13:42:20.000Z</time>
      </trkpt>
      <trkpt lat="46.45777" lon="5.3036">
        <ele>208.19999694824</ele>
        <time>2021-03-12T13:42:21.000Z</time>
      </trkpt>
      <trkpt lat="46.45786" lon="5.3035">
        <ele>209.39999389648</ele>
        <time>2021-03-12T13:42:23.000Z</time>
      </trkpt>
      <trkpt lat="46.45795" lon="5.30341">
        <ele>210.39999389648</ele>
        <time>2021-03-12T13:42:25.000Z</time>
      </trkpt>
      <trkpt lat="46.458" lon="5.30337">
        <ele>210.80000305176</ele>
        <time>2021-03-12T13:42:26.000Z</time>
      </trkpt>
      <trkpt lat="46.45804" lon="5.30332">
        <ele>211.19999694824</ele>
        <time>2021-03-12T13:42:27.000Z</time>
      </trkpt>
      <trkpt lat="46.45812" lon="5.30323">
        <ele>212</ele>
        <time>2021-03-12T13:42:29.000Z</time>
      </trkpt>
      <trkpt lat="46.45821" lon="5.30315">
        <ele>212.80000305176</ele>
        <time>2021-03-12T13:42:31.000Z</time>
      </trkpt>
      <trkpt lat="46.45826" lon="5.30311">
        <ele>213.19999694824</ele>
        <time>2021-03-12T13:42:32.000Z</time>
      </trkpt>
      <trkpt lat="46.4583" lon="5.30308">
        <ele>214</ele>
        <time>2021-03-12T13:42:33.000Z</time>
      </trkpt>
      <trkpt lat="46.45835" lon="5.30305">
        <ele>214.19999694824</ele>
        <time>2021-03-12T13:42:34.000Z</time>
      </trkpt>
      <trkpt lat="46.4584" lon="5.30304">
        <ele>214.60000610352</ele>
        <time>2021-03-12T13:42:35.000Z</time>
      </trkpt>
      <trkpt lat="46.45849" lon="5.30303">
        <ele>215.19999694824</ele>
        <time>2021-03-12T13:42:37.000Z</time>
      </trkpt>
      <trkpt lat="46.45854" lon="5.30303">
        <ele>215.39999389648</ele>
        <time>2021-03-12T13:42:38.000Z</time>
      </trkpt>
      <trkpt lat="46.45859" lon="5.30304">
        <ele>215.60000610352</ele>
        <time>2021-03-12T13:42:39.000Z</time>
      </trkpt>
      <trkpt lat="46.45867" lon="5.30307">
        <ele>216.19999694824</ele>
        <time>2021-03-12T13:42:41.000Z</time>
      </trkpt>
      <trkpt lat="46.45871" lon="5.30309">
        <ele>216.60000610352</ele>
        <time>2021-03-12T13:42:42.000Z</time>
      </trkpt>
      <trkpt lat="46.45876" lon="5.30311">
        <ele>216.80000305176</ele>
        <time>2021-03-12T13:42:43.000Z</time>
      </trkpt>
      <trkpt lat="46.4588" lon="5.30313">
        <ele>217</ele>
        <time>2021-03-12T13:42:44.000Z</time>
      </trkpt>
      <trkpt lat="46.45884" lon="5.30315">
        <ele>217.19999694824</ele>
        <time>2021-03-12T13:42:45.000Z</time>
      </trkpt>
      <trkpt lat="46.45892" lon="5.3032">
        <ele>217.60000610352</ele>
        <time>2021-03-12T13:42:47.000Z</time>
      </trkpt>
      <trkpt lat="46.45899" lon="5.30324">
        <ele>218.39999389648</ele>
        <time>2021-03-12T13:42:49.000Z</time>
      </trkpt>
      <trkpt lat="46.45907" lon="5.30329">
        <ele>218.80000305176</ele>
        <time>2021-03-12T13:42:51.000Z</time>
      </trkpt>
      <trkpt lat="46.45915" lon="5.30333">
        <ele>219.60000610352</ele>
        <time>2021-03-12T13:42:53.000Z</time>
      </trkpt>
      <trkpt lat="46.45923" lon="5.30337">
        <ele>219.80000305176</ele>
        <time>2021-03-12T13:42:55.000Z</time>
      </trkpt>
      <trkpt lat="46.45927" lon="5.3034">
        <ele>220</ele>
        <time>2021-03-12T13:42:56.000Z</time>
      </trkpt>
      <trkpt lat="46.4593" lon="5.30342">
        <ele>220.19999694824</ele>
        <time>2021-03-12T13:42:57.000Z</time>
      </trkpt>
      <trkpt lat="46.45938" lon="5.30346">
        <ele>220.80000305176</ele>
        <time>2021-03-12T13:42:59.000Z</time>
      </trkpt>
      <trkpt lat="46.45942" lon="5.30348">
        <ele>221</ele>
        <time>2021-03-12T13:43:00.000Z</time>
      </trkpt>
      <trkpt lat="46.45946" lon="5.3035">
        <ele>221</ele>
        <time>2021-03-12T13:43:01.000Z</time>
      </trkpt>
      <trkpt lat="46.45954" lon="5.30355">
        <ele>221.60000610352</ele>
        <time>2021-03-12T13:43:03.000Z</time>
      </trkpt>
      <trkpt lat="46.45964" lon="5.3036">
        <ele>221.80000305176</ele>
        <time>2021-03-12T13:43:05.000Z</time>
      </trkpt>
      <trkpt lat="46.45968" lon="5.30362">
        <ele>222</ele>
        <time>2021-03-12T13:43:06.000Z</time>
      </trkpt>
      <trkpt lat="46.45973" lon="5.30365">
        <ele>222</ele>
        <time>2021-03-12T13:43:07.000Z</time>
      </trkpt>
      <trkpt lat="46.45984" lon="5.3037">
        <ele>222</ele>
        <time>2021-03-12T13:43:09.000Z</time>
      </trkpt>
      <trkpt lat="46.45993" lon="5.30376">
        <ele>222.19999694824</ele>
        <time>2021-03-12T13:43:11.000Z</time>
      </trkpt>
      <trkpt lat="46.45997" lon="5.30379">
        <ele>222.19999694824</ele>
        <time>2021-03-12T13:43:12.000Z</time>
      </trkpt>
      <trkpt lat="46.46" lon="5.30381">
        <ele>222.19999694824</ele>
        <time>2021-03-12T13:43:13.000Z</time>
      </trkpt>
      <trkpt lat="46.46007" lon="5.30377">
        <ele>222.19999694824</ele>
        <time>2021-03-12T13:43:15.000Z</time>
      </trkpt>
      <trkpt lat="46.46013" lon="5.30362">
        <ele>222</ele>
        <time>2021-03-12T13:43:17.000Z</time>
      </trkpt>
      <trkpt lat="46.46016" lon="5.30353">
        <ele>221.80000305176</ele>
        <time>2021-03-12T13:43:18.000Z</time>
      </trkpt>
      <trkpt lat="46.4602" lon="5.30343">
        <ele>221.60000610352</ele>
        <time>2021-03-12T13:43:19.000Z</time>
      </trkpt>
      <trkpt lat="46.46027" lon="5.30322">
        <ele>221.39999389648</ele>
        <time>2021-03-12T13:43:21.000Z</time>
      </trkpt>
      <trkpt lat="46.46034" lon="5.30301">
        <ele>221</ele>
        <time>2021-03-12T13:43:23.000Z</time>
      </trkpt>
      <trkpt lat="46.46038" lon="5.3029">
        <ele>220.60000610352</ele>
        <time>2021-03-12T13:43:24.000Z</time>
      </trkpt>
      <trkpt lat="46.46041" lon="5.30278">
        <ele>220</ele>
        <time>2021-03-12T13:43:25.000Z</time>
      </trkpt>
      <trkpt lat="46.46045" lon="5.30267">
        <ele>219.39999389648</ele>
        <time>2021-03-12T13:43:26.000Z</time>
      </trkpt>
      <trkpt lat="46.46049" lon="5.30256">
        <ele>218.80000305176</ele>
        <time>2021-03-12T13:43:27.000Z</time>
      </trkpt>
      <trkpt lat="46.46052" lon="5.30245">
        <ele>218.39999389648</ele>
        <time>2021-03-12T13:43:28.000Z</time>
      </trkpt>
      <trkpt lat="46.46056" lon="5.30234">
        <ele>218</ele>
        <time>2021-03-12T13:43:29.000Z</time>
      </trkpt>
      <trkpt lat="46.4606" lon="5.30223">
        <ele>217.39999389648</ele>
        <time>2021-03-12T13:43:30.000Z</time>
      </trkpt>
      <trkpt lat="46.46064" lon="5.30212">
        <ele>216</ele>
        <time>2021-03-12T13:43:31.000Z</time>
      </trkpt>
      <trkpt lat="46.46068" lon="5.30201">
        <ele>215.60000610352</ele>
        <time>2021-03-12T13:43:32.000Z</time>
      </trkpt>
      <trkpt lat="46.46071" lon="5.3019">
        <ele>215.19999694824</ele>
        <time>2021-03-12T13:43:33.000Z</time>
      </trkpt>
      <trkpt lat="46.46075" lon="5.30179">
        <ele>214.80000305176</ele>
        <time>2021-03-12T13:43:34.000Z</time>
      </trkpt>
      <trkpt lat="46.46079" lon="5.30167">
        <ele>214.19999694824</ele>
        <time>2021-03-12T13:43:35.000Z</time>
      </trkpt>
      <trkpt lat="46.46086" lon="5.30144">
        <ele>213.60000610352</ele>
        <time>2021-03-12T13:43:37.000Z</time>
      </trkpt>
      <trkpt lat="46.46091" lon="5.30131">
        <ele>213.39999389648</ele>
        <time>2021-03-12T13:43:38.000Z</time>
      </trkpt>
      <trkpt lat="46.46095" lon="5.30119">
        <ele>213</ele>
        <time>2021-03-12T13:43:39.000Z</time>
      </trkpt>
      <trkpt lat="46.46103" lon="5.30095">
        <ele>212.19999694824</ele>
        <time>2021-03-12T13:43:41.000Z</time>
      </trkpt>
      <trkpt lat="46.46111" lon="5.30071">
        <ele>211.39999389648</ele>
        <time>2021-03-12T13:43:43.000Z</time>
      </trkpt>
      <trkpt lat="46.46115" lon="5.30059">
        <ele>211</ele>
        <time>2021-03-12T13:43:44.000Z</time>
      </trkpt>
      <trkpt lat="46.46118" lon="5.30047">
        <ele>210.39999389648</ele>
        <time>2021-03-12T13:43:45.000Z</time>
      </trkpt>
      <trkpt lat="46.46124" lon="5.30024">
        <ele>209.39999389648</ele>
        <time>2021-03-12T13:43:47.000Z</time>
      </trkpt>
      <trkpt lat="46.46131" lon="5.30003">
        <ele>208.19999694824</ele>
        <time>2021-03-12T13:43:49.000Z</time>
      </trkpt>
      <trkpt lat="46.46137" lon="5.29986">
        <ele>207.80000305176</ele>
        <time>2021-03-12T13:43:51.000Z</time>
      </trkpt>
      <trkpt lat="46.46146" lon="5.29982">
        <ele>207.60000610352</ele>
        <time>2021-03-12T13:43:53.000Z</time>
      </trkpt>
      <trkpt lat="46.46151" lon="5.29985">
        <ele>207.60000610352</ele>
        <time>2021-03-12T13:43:54.000Z</time>
      </trkpt>
      <trkpt lat="46.46154" lon="5.2999">
        <ele>207.60000610352</ele>
        <time>2021-03-12T13:43:55.000Z</time>
      </trkpt>
      <trkpt lat="46.46157" lon="5.29996">
        <ele>207.60000610352</ele>
        <time>2021-03-12T13:43:56.000Z</time>
      </trkpt>
      <trkpt lat="46.46161" lon="5.30002">
        <ele>207.60000610352</ele>
        <time>2021-03-12T13:43:57.000Z</time>
      </trkpt>
      <trkpt lat="46.46165" lon="5.30008">
        <ele>207.60000610352</ele>
        <time>2021-03-12T13:43:58.000Z</time>
      </trkpt>
      <trkpt lat="46.46169" lon="5.30013">
        <ele>207.60000610352</ele>
        <time>2021-03-12T13:43:59.000Z</time>
      </trkpt>
      <trkpt lat="46.46177" lon="5.30025">
        <ele>208.60000610352</ele>
        <time>2021-03-12T13:44:01.000Z</time>
      </trkpt>
      <trkpt lat="46.46186" lon="5.30036">
        <ele>209</ele>
        <time>2021-03-12T13:44:03.000Z</time>
      </trkpt>
      <trkpt lat="46.46192" lon="5.3004">
        <ele>209.19999694824</ele>
        <time>2021-03-12T13:44:04.000Z</time>
      </trkpt>
      <trkpt lat="46.46197" lon="5.30045">
        <ele>209.19999694824</ele>
        <time>2021-03-12T13:44:05.000Z</time>
      </trkpt>
      <trkpt lat="46.46208" lon="5.30052">
        <ele>209.39999389648</ele>
        <time>2021-03-12T13:44:07.000Z</time>
      </trkpt>
      <trkpt lat="46.46219" lon="5.30056">
        <ele>209.80000305176</ele>
        <time>2021-03-12T13:44:09.000Z</time>
      </trkpt>
      <trkpt lat="46.46225" lon="5.30057">
        <ele>210</ele>
        <time>2021-03-12T13:44:10.000Z</time>
      </trkpt>
      <trkpt lat="46.4623" lon="5.30058">
        <ele>210</ele>
        <time>2021-03-12T13:44:11.000Z</time>
      </trkpt>
      <trkpt lat="46.46241" lon="5.30059">
        <ele>210.19999694824</ele>
        <time>2021-03-12T13:44:13.000Z</time>
      </trkpt>
      <trkpt lat="46.46252" lon="5.30061">
        <ele>210.60000610352</ele>
        <time>2021-03-12T13:44:15.000Z</time>
      </trkpt>
      <trkpt lat="46.46263" lon="5.30061">
        <ele>211.19999694824</ele>
        <time>2021-03-12T13:44:17.000Z</time>
      </trkpt>
      <trkpt lat="46.46268" lon="5.30062">
        <ele>211.60000610352</ele>
        <time>2021-03-12T13:44:18.000Z</time>
      </trkpt>
      <trkpt lat="46.46273" lon="5.30062">
        <ele>212.19999694824</ele>
        <time>2021-03-12T13:44:19.000Z</time>
      </trkpt>
      <trkpt lat="46.46284" lon="5.30063">
        <ele>213</ele>
        <time>2021-03-12T13:44:21.000Z</time>
      </trkpt>
      <trkpt lat="46.46294" lon="5.30064">
        <ele>213.80000305176</ele>
        <time>2021-03-12T13:44:23.000Z</time>
      </trkpt>
      <trkpt lat="46.46298" lon="5.30065">
        <ele>214.19999694824</ele>
        <time>2021-03-12T13:44:24.000Z</time>
      </trkpt>
      <trkpt lat="46.46303" lon="5.30065">
        <ele>214.60000610352</ele>
        <time>2021-03-12T13:44:25.000Z</time>
      </trkpt>
      <trkpt lat="46.46313" lon="5.30066">
        <ele>215.19999694824</ele>
        <time>2021-03-12T13:44:27.000Z</time>
      </trkpt>
      <trkpt lat="46.46317" lon="5.30066">
        <ele>215.39999389648</ele>
        <time>2021-03-12T13:44:28.000Z</time>
      </trkpt>
      <trkpt lat="46.46321" lon="5.30067">
        <ele>215.60000610352</ele>
        <time>2021-03-12T13:44:29.000Z</time>
      </trkpt>
      <trkpt lat="46.4633" lon="5.30067">
        <ele>216.39999389648</ele>
        <time>2021-03-12T13:44:31.000Z</time>
      </trkpt>
      <trkpt lat="46.46339" lon="5.30067">
        <ele>217.19999694824</ele>
        <time>2021-03-12T13:44:33.000Z</time>
      </trkpt>
      <trkpt lat="46.46347" lon="5.30067">
        <ele>217.80000305176</ele>
        <time>2021-03-12T13:44:35.000Z</time>
      </trkpt>
      <trkpt lat="46.46355" lon="5.30067">
        <ele>218.39999389648</ele>
        <time>2021-03-12T13:44:37.000Z</time>
      </trkpt>
      <trkpt lat="46.46359" lon="5.30066">
        <ele>218.60000610352</ele>
        <time>2021-03-12T13:44:38.000Z</time>
      </trkpt>
      <trkpt lat="46.46363" lon="5.30065">
        <ele>218.80000305176</ele>
        <time>2021-03-12T13:44:39.000Z</time>
      </trkpt>
      <trkpt lat="46.46371" lon="5.30063">
        <ele>219.39999389648</ele>
        <time>2021-03-12T13:44:41.000Z</time>
      </trkpt>
      <trkpt lat="46.46379" lon="5.30062">
        <ele>220</ele>
        <time>2021-03-12T13:44:43.000Z</time>
      </trkpt>
      <trkpt lat="46.46383" lon="5.30061">
        <ele>220.19999694824</ele>
        <time>2021-03-12T13:44:44.000Z</time>
      </trkpt>
      <trkpt lat="46.46387" lon="5.3006">
        <ele>220.39999389648</ele>
        <time>2021-03-12T13:44:45.000Z</time>
      </trkpt>
      <trkpt lat="46.46394" lon="5.30058">
        <ele>221</ele>
        <time>2021-03-12T13:44:47.000Z</time>
      </trkpt>
      <trkpt lat="46.46398" lon="5.30057">
        <ele>221.19999694824</ele>
        <time>2021-03-12T13:44:48.000Z</time>
      </trkpt>
      <trkpt lat="46.46401" lon="5.30056">
        <ele>221.39999389648</ele>
        <time>2021-03-12T13:44:49.000Z</time>
      </trkpt>
      <trkpt lat="46.46408" lon="5.30054">
        <ele>221.80000305176</ele>
        <time>2021-03-12T13:44:51.000Z</time>
      </trkpt>
      <trkpt lat="46.46412" lon="5.30054">
        <ele>222</ele>
        <time>2021-03-12T13:44:52.000Z</time>
      </trkpt>
      <trkpt lat="46.46416" lon="5.30053">
        <ele>222.19999694824</ele>
        <time>2021-03-12T13:44:53.000Z</time>
      </trkpt>
      <trkpt lat="46.4642" lon="5.30053">
        <ele>222.39999389648</ele>
        <time>2021-03-12T13:44:54.000Z</time>
      </trkpt>
      <trkpt lat="46.46425" lon="5.30053">
        <ele>222.80000305176</ele>
        <time>2021-03-12T13:44:55.000Z</time>
      </trkpt>
      <trkpt lat="46.46433" lon="5.30052">
        <ele>223.19999694824</ele>
        <time>2021-03-12T13:44:57.000Z</time>
      </trkpt>
      <trkpt lat="46.46442" lon="5.30052">
        <ele>223.80000305176</ele>
        <time>2021-03-12T13:44:59.000Z</time>
      </trkpt>
      <trkpt lat="46.46446" lon="5.30052">
        <ele>224</ele>
        <time>2021-03-12T13:45:00.000Z</time>
      </trkpt>
      <trkpt lat="46.46451" lon="5.30053">
        <ele>224.19999694824</ele>
        <time>2021-03-12T13:45:01.000Z</time>
      </trkpt>
      <trkpt lat="46.46459" lon="5.30055">
        <ele>224.60000610352</ele>
        <time>2021-03-12T13:45:03.000Z</time>
      </trkpt>
      <trkpt lat="46.46468" lon="5.30057">
        <ele>225</ele>
        <time>2021-03-12T13:45:05.000Z</time>
      </trkpt>
      <trkpt lat="46.46477" lon="5.30059">
        <ele>225.19999694824</ele>
        <time>2021-03-12T13:45:07.000Z</time>
      </trkpt>
      <trkpt lat="46.46482" lon="5.3006">
        <ele>225.39999389648</ele>
        <time>2021-03-12T13:45:08.000Z</time>
      </trkpt>
      <trkpt lat="46.46487" lon="5.30061">
        <ele>225.60000610352</ele>
        <time>2021-03-12T13:45:09.000Z</time>
      </trkpt>
      <trkpt lat="46.46497" lon="5.30062">
        <ele>226</ele>
        <time>2021-03-12T13:45:11.000Z</time>
      </trkpt>
      <trkpt lat="46.46507" lon="5.30063">
        <ele>226.19999694824</ele>
        <time>2021-03-12T13:45:13.000Z</time>
      </trkpt>
      <trkpt lat="46.46518" lon="5.30063">
        <ele>226.39999389648</ele>
        <time>2021-03-12T13:45:15.000Z</time>
      </trkpt>
      <trkpt lat="46.46523" lon="5.30063">
        <ele>226.60000610352</ele>
        <time>2021-03-12T13:45:16.000Z</time>
      </trkpt>
      <trkpt lat="46.46528" lon="5.30064">
        <ele>226.60000610352</ele>
        <time>2021-03-12T13:45:17.000Z</time>
      </trkpt>
      <trkpt lat="46.46538" lon="5.30064">
        <ele>226.80000305176</ele>
        <time>2021-03-12T13:45:19.000Z</time>
      </trkpt>
      <trkpt lat="46.46548" lon="5.30065">
        <ele>227</ele>
        <time>2021-03-12T13:45:21.000Z</time>
      </trkpt>
      <trkpt lat="46.46552" lon="5.30065">
        <ele>227</ele>
        <time>2021-03-12T13:45:22.000Z</time>
      </trkpt>
      <trkpt lat="46.46557" lon="5.30065">
        <ele>227.19999694824</ele>
        <time>2021-03-12T13:45:23.000Z</time>
      </trkpt>
      <trkpt lat="46.46567" lon="5.30067">
        <ele>227.60000610352</ele>
        <time>2021-03-12T13:45:25.000Z</time>
      </trkpt>
      <trkpt lat="46.46578" lon="5.30068">
        <ele>228</ele>
        <time>2021-03-12T13:45:27.000Z</time>
      </trkpt>
      <trkpt lat="46.46588" lon="5.30069">
        <ele>228.60000610352</ele>
        <time>2021-03-12T13:45:29.000Z</time>
      </trkpt>
      <trkpt lat="46.46598" lon="5.30069">
        <ele>229</ele>
        <time>2021-03-12T13:45:31.000Z</time>
      </trkpt>
      <trkpt lat="46.46603" lon="5.30069">
        <ele>229.19999694824</ele>
        <time>2021-03-12T13:45:32.000Z</time>
      </trkpt>
      <trkpt lat="46.46608" lon="5.30068">
        <ele>229.39999389648</ele>
        <time>2021-03-12T13:45:33.000Z</time>
      </trkpt>
      <trkpt lat="46.46619" lon="5.30066">
        <ele>229.80000305176</ele>
        <time>2021-03-12T13:45:35.000Z</time>
      </trkpt>
      <trkpt lat="46.4663" lon="5.30063">
        <ele>230.19999694824</ele>
        <time>2021-03-12T13:45:37.000Z</time>
      </trkpt>
      <trkpt lat="46.46635" lon="5.30062">
        <ele>230.19999694824</ele>
        <time>2021-03-12T13:45:38.000Z</time>
      </trkpt>
      <trkpt lat="46.46641" lon="5.30062">
        <ele>230.39999389648</ele>
        <time>2021-03-12T13:45:39.000Z</time>
      </trkpt>
      <trkpt lat="46.46653" lon="5.30065">
        <ele>230.39999389648</ele>
        <time>2021-03-12T13:45:41.000Z</time>
      </trkpt>
      <trkpt lat="46.46665" lon="5.30069">
        <ele>230.39999389648</ele>
        <time>2021-03-12T13:45:43.000Z</time>
      </trkpt>
      <trkpt lat="46.46677" lon="5.30073">
        <ele>230.39999389648</ele>
        <time>2021-03-12T13:45:45.000Z</time>
      </trkpt>
      <trkpt lat="46.4669" lon="5.30078">
        <ele>230.39999389648</ele>
        <time>2021-03-12T13:45:47.000Z</time>
      </trkpt>
      <trkpt lat="46.46696" lon="5.30083">
        <ele>230.39999389648</ele>
        <time>2021-03-12T13:45:48.000Z</time>
      </trkpt>
      <trkpt lat="46.46702" lon="5.30089">
        <ele>230.39999389648</ele>
        <time>2021-03-12T13:45:49.000Z</time>
      </trkpt>
      <trkpt lat="46.46708" lon="5.30107">
        <ele>230.19999694824</ele>
        <time>2021-03-12T13:45:51.000Z</time>
      </trkpt>
      <trkpt lat="46.46711" lon="5.30117">
        <ele>230.19999694824</ele>
        <time>2021-03-12T13:45:52.000Z</time>
      </trkpt>
      <trkpt lat="46.46713" lon="5.30127">
        <ele>230</ele>
        <time>2021-03-12T13:45:53.000Z</time>
      </trkpt>
      <trkpt lat="46.46719" lon="5.30148">
        <ele>230</ele>
        <time>2021-03-12T13:45:55.000Z</time>
      </trkpt>
      <trkpt lat="46.46724" lon="5.30169">
        <ele>229.80000305176</ele>
        <time>2021-03-12T13:45:57.000Z</time>
      </trkpt>
      <trkpt lat="46.4673" lon="5.30189">
        <ele>229.60000610352</ele>
        <time>2021-03-12T13:45:59.000Z</time>
      </trkpt>
      <trkpt lat="46.46736" lon="5.30208">
        <ele>229.39999389648</ele>
        <time>2021-03-12T13:46:01.000Z</time>
      </trkpt>
      <trkpt lat="46.4674" lon="5.30216">
        <ele>229.39999389648</ele>
        <time>2021-03-12T13:46:02.000Z</time>
      </trkpt>
      <trkpt lat="46.46744" lon="5.30224">
        <ele>229.39999389648</ele>
        <time>2021-03-12T13:46:03.000Z</time>
      </trkpt>
      <trkpt lat="46.46749" lon="5.30232">
        <ele>229.39999389648</ele>
        <time>2021-03-12T13:46:04.000Z</time>
      </trkpt>
      <trkpt lat="46.46755" lon="5.30239">
        <ele>229.39999389648</ele>
        <time>2021-03-12T13:46:05.000Z</time>
      </trkpt>
      <trkpt lat="46.46766" lon="5.30253">
        <ele>229.39999389648</ele>
        <time>2021-03-12T13:46:07.000Z</time>
      </trkpt>
      <trkpt lat="46.46778" lon="5.30266">
        <ele>229.39999389648</ele>
        <time>2021-03-12T13:46:09.000Z</time>
      </trkpt>
      <trkpt lat="46.4679" lon="5.3028">
        <ele>229.80000305176</ele>
        <time>2021-03-12T13:46:11.000Z</time>
      </trkpt>
      <trkpt lat="46.46796" lon="5.30287">
        <ele>229.80000305176</ele>
        <time>2021-03-12T13:46:12.000Z</time>
      </trkpt>
      <trkpt lat="46.46802" lon="5.30294">
        <ele>229.80000305176</ele>
        <time>2021-03-12T13:46:13.000Z</time>
      </trkpt>
      <trkpt lat="46.46814" lon="5.30309">
        <ele>230</ele>
        <time>2021-03-12T13:46:15.000Z</time>
      </trkpt>
      <trkpt lat="46.46825" lon="5.30323">
        <ele>230</ele>
        <time>2021-03-12T13:46:17.000Z</time>
      </trkpt>
      <trkpt lat="46.46837" lon="5.30338">
        <ele>230</ele>
        <time>2021-03-12T13:46:19.000Z</time>
      </trkpt>
      <trkpt lat="46.46849" lon="5.30352">
        <ele>230</ele>
        <time>2021-03-12T13:46:21.000Z</time>
      </trkpt>
      <trkpt lat="46.46861" lon="5.30365">
        <ele>230</ele>
        <time>2021-03-12T13:46:23.000Z</time>
      </trkpt>
      <trkpt lat="46.46875" lon="5.30375">
        <ele>230</ele>
        <time>2021-03-12T13:46:25.000Z</time>
      </trkpt>
      <trkpt lat="46.46889" lon="5.30384">
        <ele>230</ele>
        <time>2021-03-12T13:46:27.000Z</time>
      </trkpt>
      <trkpt lat="46.46896" lon="5.30387">
        <ele>230.19999694824</ele>
        <time>2021-03-12T13:46:28.000Z</time>
      </trkpt>
      <trkpt lat="46.46904" lon="5.3039">
        <ele>230.19999694824</ele>
        <time>2021-03-12T13:46:29.000Z</time>
      </trkpt>
      <trkpt lat="46.46919" lon="5.30396">
        <ele>230.39999389648</ele>
        <time>2021-03-12T13:46:31.000Z</time>
      </trkpt>
      <trkpt lat="46.46933" lon="5.30401">
        <ele>230.39999389648</ele>
        <time>2021-03-12T13:46:33.000Z</time>
      </trkpt>
      <trkpt lat="46.46947" lon="5.30407">
        <ele>230.39999389648</ele>
        <time>2021-03-12T13:46:35.000Z</time>
      </trkpt>
      <trkpt lat="46.4696" lon="5.30416">
        <ele>230.39999389648</ele>
        <time>2021-03-12T13:46:37.000Z</time>
      </trkpt>
      <trkpt lat="46.46973" lon="5.30425">
        <ele>230.39999389648</ele>
        <time>2021-03-12T13:46:39.000Z</time>
      </trkpt>
      <trkpt lat="46.46986" lon="5.30436">
        <ele>230.39999389648</ele>
        <time>2021-03-12T13:46:41.000Z</time>
      </trkpt>
      <trkpt lat="46.46998" lon="5.30446">
        <ele>230.39999389648</ele>
        <time>2021-03-12T13:46:43.000Z</time>
      </trkpt>
      <trkpt lat="46.4701" lon="5.30457">
        <ele>230.39999389648</ele>
        <time>2021-03-12T13:46:45.000Z</time>
      </trkpt>
      <trkpt lat="46.47024" lon="5.30468">
        <ele>230.39999389648</ele>
        <time>2021-03-12T13:46:47.000Z</time>
      </trkpt>
      <trkpt lat="46.47037" lon="5.3048">
        <ele>230.39999389648</ele>
        <time>2021-03-12T13:46:49.000Z</time>
      </trkpt>
      <trkpt lat="46.4705" lon="5.30491">
        <ele>230.60000610352</ele>
        <time>2021-03-12T13:46:51.000Z</time>
      </trkpt>
      <trkpt lat="46.47063" lon="5.30502">
        <ele>230.60000610352</ele>
        <time>2021-03-12T13:46:53.000Z</time>
      </trkpt>
      <trkpt lat="46.47075" lon="5.30513">
        <ele>230.80000305176</ele>
        <time>2021-03-12T13:46:55.000Z</time>
      </trkpt>
      <trkpt lat="46.47088" lon="5.30524">
        <ele>230.80000305176</ele>
        <time>2021-03-12T13:46:57.000Z</time>
      </trkpt>
      <trkpt lat="46.47094" lon="5.30529">
        <ele>231</ele>
        <time>2021-03-12T13:46:58.000Z</time>
      </trkpt>
      <trkpt lat="46.47101" lon="5.30534">
        <ele>231</ele>
        <time>2021-03-12T13:46:59.000Z</time>
      </trkpt>
      <trkpt lat="46.47115" lon="5.30542">
        <ele>231</ele>
        <time>2021-03-12T13:47:01.000Z</time>
      </trkpt>
      <trkpt lat="46.47129" lon="5.30549">
        <ele>231.39999389648</ele>
        <time>2021-03-12T13:47:03.000Z</time>
      </trkpt>
      <trkpt lat="46.47144" lon="5.30555">
        <ele>231.60000610352</ele>
        <time>2021-03-12T13:47:05.000Z</time>
      </trkpt>
      <trkpt lat="46.47151" lon="5.30558">
        <ele>231.60000610352</ele>
        <time>2021-03-12T13:47:06.000Z</time>
      </trkpt>
      <trkpt lat="46.47158" lon="5.30561">
        <ele>231.60000610352</ele>
        <time>2021-03-12T13:47:07.000Z</time>
      </trkpt>
      <trkpt lat="46.47174" lon="5.30563">
        <ele>231.60000610352</ele>
        <time>2021-03-12T13:47:09.000Z</time>
      </trkpt>
      <trkpt lat="46.47182" lon="5.30563">
        <ele>231.60000610352</ele>
        <time>2021-03-12T13:47:10.000Z</time>
      </trkpt>
      <trkpt lat="46.47189" lon="5.30562">
        <ele>231.60000610352</ele>
        <time>2021-03-12T13:47:11.000Z</time>
      </trkpt>
      <trkpt lat="46.47205" lon="5.3056">
        <ele>231.60000610352</ele>
        <time>2021-03-12T13:47:13.000Z</time>
      </trkpt>
      <trkpt lat="46.4722" lon="5.30559">
        <ele>231.39999389648</ele>
        <time>2021-03-12T13:47:15.000Z</time>
      </trkpt>
      <trkpt lat="46.47236" lon="5.30565">
        <ele>231.19999694824</ele>
        <time>2021-03-12T13:47:17.000Z</time>
      </trkpt>
      <trkpt lat="46.47249" lon="5.30574">
        <ele>230.60000610352</ele>
        <time>2021-03-12T13:47:19.000Z</time>
      </trkpt>
      <trkpt lat="46.47256" lon="5.30579">
        <ele>230.39999389648</ele>
        <time>2021-03-12T13:47:20.000Z</time>
      </trkpt>
      <trkpt lat="46.47262" lon="5.30585">
        <ele>230.39999389648</ele>
        <time>2021-03-12T13:47:21.000Z</time>
      </trkpt>
      <trkpt lat="46.47268" lon="5.30592">
        <ele>230.19999694824</ele>
        <time>2021-03-12T13:47:22.000Z</time>
      </trkpt>
      <trkpt lat="46.47274" lon="5.30599">
        <ele>230.19999694824</ele>
        <time>2021-03-12T13:47:23.000Z</time>
      </trkpt>
      <trkpt lat="46.47284" lon="5.30614">
        <ele>230.19999694824</ele>
        <time>2021-03-12T13:47:25.000Z</time>
      </trkpt>
      <trkpt lat="46.47296" lon="5.30627">
        <ele>230.19999694824</ele>
        <time>2021-03-12T13:47:27.000Z</time>
      </trkpt>
      <trkpt lat="46.47302" lon="5.30635">
        <ele>230.19999694824</ele>
        <time>2021-03-12T13:47:28.000Z</time>
      </trkpt>
      <trkpt lat="46.47307" lon="5.30643">
        <ele>230.39999389648</ele>
        <time>2021-03-12T13:47:29.000Z</time>
      </trkpt>
      <trkpt lat="46.47314" lon="5.30663">
        <ele>230.39999389648</ele>
        <time>2021-03-12T13:47:31.000Z</time>
      </trkpt>
      <trkpt lat="46.47316" lon="5.30675">
        <ele>230.39999389648</ele>
        <time>2021-03-12T13:47:32.000Z</time>
      </trkpt>
      <trkpt lat="46.47316" lon="5.30686">
        <ele>230.39999389648</ele>
        <time>2021-03-12T13:47:33.000Z</time>
      </trkpt>
      <trkpt lat="46.47317" lon="5.30697">
        <ele>230.39999389648</ele>
        <time>2021-03-12T13:47:34.000Z</time>
      </trkpt>
      <trkpt lat="46.47317" lon="5.30709">
        <ele>230.60000610352</ele>
        <time>2021-03-12T13:47:35.000Z</time>
      </trkpt>
      <trkpt lat="46.47318" lon="5.30733">
        <ele>230.60000610352</ele>
        <time>2021-03-12T13:47:37.000Z</time>
      </trkpt>
      <trkpt lat="46.47319" lon="5.30757">
        <ele>230.60000610352</ele>
        <time>2021-03-12T13:47:39.000Z</time>
      </trkpt>
      <trkpt lat="46.47321" lon="5.30781">
        <ele>230.60000610352</ele>
        <time>2021-03-12T13:47:41.000Z</time>
      </trkpt>
      <trkpt lat="46.47323" lon="5.30805">
        <ele>230.39999389648</ele>
        <time>2021-03-12T13:47:43.000Z</time>
      </trkpt>
      <trkpt lat="46.47325" lon="5.30828">
        <ele>230</ele>
        <time>2021-03-12T13:47:45.000Z</time>
      </trkpt>
      <trkpt lat="46.47326" lon="5.30839">
        <ele>229.80000305176</ele>
        <time>2021-03-12T13:47:46.000Z</time>
      </trkpt>
      <trkpt lat="46.47328" lon="5.3085">
        <ele>229.60000610352</ele>
        <time>2021-03-12T13:47:47.000Z</time>
      </trkpt>
      <trkpt lat="46.47331" lon="5.30871">
        <ele>229.39999389648</ele>
        <time>2021-03-12T13:47:49.000Z</time>
      </trkpt>
      <trkpt lat="46.47333" lon="5.30881">
        <ele>229.39999389648</ele>
        <time>2021-03-12T13:47:50.000Z</time>
      </trkpt>
      <trkpt lat="46.47336" lon="5.30889">
        <ele>229.39999389648</ele>
        <time>2021-03-12T13:47:51.000Z</time>
      </trkpt>
      <trkpt lat="46.47347" lon="5.30898">
        <ele>229.39999389648</ele>
        <time>2021-03-12T13:47:53.000Z</time>
      </trkpt>
      <trkpt lat="46.47353" lon="5.30898">
        <ele>229.39999389648</ele>
        <time>2021-03-12T13:47:54.000Z</time>
      </trkpt>
      <trkpt lat="46.47361" lon="5.30896">
        <ele>229.39999389648</ele>
        <time>2021-03-12T13:47:55.000Z</time>
      </trkpt>
      <trkpt lat="46.47368" lon="5.30894">
        <ele>229.39999389648</ele>
        <time>2021-03-12T13:47:56.000Z</time>
      </trkpt>
      <trkpt lat="46.47376" lon="5.30891">
        <ele>229.39999389648</ele>
        <time>2021-03-12T13:47:57.000Z</time>
      </trkpt>
      <trkpt lat="46.47383" lon="5.30887">
        <ele>229.39999389648</ele>
        <time>2021-03-12T13:47:58.000Z</time>
      </trkpt>
      <trkpt lat="46.47391" lon="5.30884">
        <ele>229.39999389648</ele>
        <time>2021-03-12T13:47:59.000Z</time>
      </trkpt>
      <trkpt lat="46.47407" lon="5.30877">
        <ele>229.39999389648</ele>
        <time>2021-03-12T13:48:01.000Z</time>
      </trkpt>
      <trkpt lat="46.47423" lon="5.30869">
        <ele>229.39999389648</ele>
        <time>2021-03-12T13:48:03.000Z</time>
      </trkpt>
      <trkpt lat="46.47438" lon="5.3086">
        <ele>229.60000610352</ele>
        <time>2021-03-12T13:48:05.000Z</time>
      </trkpt>
      <trkpt lat="46.47445" lon="5.30856">
        <ele>229.60000610352</ele>
        <time>2021-03-12T13:48:06.000Z</time>
      </trkpt>
      <trkpt lat="46.47453" lon="5.30853">
        <ele>229.60000610352</ele>
        <time>2021-03-12T13:48:07.000Z</time>
      </trkpt>
      <trkpt lat="46.47467" lon="5.30845">
        <ele>229.60000610352</ele>
        <time>2021-03-12T13:48:09.000Z</time>
      </trkpt>
      <trkpt lat="46.47481" lon="5.30837">
        <ele>229.60000610352</ele>
        <time>2021-03-12T13:48:11.000Z</time>
      </trkpt>
      <trkpt lat="46.47495" lon="5.30829">
        <ele>229.60000610352</ele>
        <time>2021-03-12T13:48:13.000Z</time>
      </trkpt>
      <trkpt lat="46.47509" lon="5.30822">
        <ele>229.60000610352</ele>
        <time>2021-03-12T13:48:15.000Z</time>
      </trkpt>
      <trkpt lat="46.47522" lon="5.30817">
        <ele>229.60000610352</ele>
        <time>2021-03-12T13:48:17.000Z</time>
      </trkpt>
      <trkpt lat="46.47535" lon="5.30812">
        <ele>230</ele>
        <time>2021-03-12T13:48:19.000Z</time>
      </trkpt>
      <trkpt lat="46.47548" lon="5.30808">
        <ele>230.19999694824</ele>
        <time>2021-03-12T13:48:21.000Z</time>
      </trkpt>
      <trkpt lat="46.47555" lon="5.30807">
        <ele>230.19999694824</ele>
        <time>2021-03-12T13:48:22.000Z</time>
      </trkpt>
      <trkpt lat="46.47562" lon="5.30806">
        <ele>230.39999389648</ele>
        <time>2021-03-12T13:48:23.000Z</time>
      </trkpt>
      <trkpt lat="46.47576" lon="5.30803">
        <ele>230.60000610352</ele>
        <time>2021-03-12T13:48:25.000Z</time>
      </trkpt>
      <trkpt lat="46.4759" lon="5.30801">
        <ele>231</ele>
        <time>2021-03-12T13:48:27.000Z</time>
      </trkpt>
      <trkpt lat="46.47604" lon="5.30799">
        <ele>231.19999694824</ele>
        <time>2021-03-12T13:48:29.000Z</time>
      </trkpt>
      <trkpt lat="46.47618" lon="5.30797">
        <ele>231.39999389648</ele>
        <time>2021-03-12T13:48:31.000Z</time>
      </trkpt>
      <trkpt lat="46.47631" lon="5.30795">
        <ele>231.39999389648</ele>
        <time>2021-03-12T13:48:33.000Z</time>
      </trkpt>
      <trkpt lat="46.47645" lon="5.30792">
        <ele>231.39999389648</ele>
        <time>2021-03-12T13:48:35.000Z</time>
      </trkpt>
      <trkpt lat="46.47659" lon="5.3079">
        <ele>231.39999389648</ele>
        <time>2021-03-12T13:48:37.000Z</time>
      </trkpt>
      <trkpt lat="46.47673" lon="5.30788">
        <ele>231.60000610352</ele>
        <time>2021-03-12T13:48:39.000Z</time>
      </trkpt>
      <trkpt lat="46.47688" lon="5.30785">
        <ele>231.80000305176</ele>
        <time>2021-03-12T13:48:41.000Z</time>
      </trkpt>
      <trkpt lat="46.47695" lon="5.30784">
        <ele>231.80000305176</ele>
        <time>2021-03-12T13:48:42.000Z</time>
      </trkpt>
      <trkpt lat="46.47703" lon="5.30783">
        <ele>231.80000305176</ele>
        <time>2021-03-12T13:48:43.000Z</time>
      </trkpt>
      <trkpt lat="46.47718" lon="5.30781">
        <ele>231.80000305176</ele>
        <time>2021-03-12T13:48:45.000Z</time>
      </trkpt>
      <trkpt lat="46.47733" lon="5.30778">
        <ele>231.80000305176</ele>
        <time>2021-03-12T13:48:47.000Z</time>
      </trkpt>
      <trkpt lat="46.47749" lon="5.30776">
        <ele>231.80000305176</ele>
        <time>2021-03-12T13:48:49.000Z</time>
      </trkpt>
      <trkpt lat="46.47765" lon="5.30773">
        <ele>231.60000610352</ele>
        <time>2021-03-12T13:48:51.000Z</time>
      </trkpt>
      <trkpt lat="46.4778" lon="5.30771">
        <ele>231.19999694824</ele>
        <time>2021-03-12T13:48:53.000Z</time>
      </trkpt>
      <trkpt lat="46.47796" lon="5.30769">
        <ele>230.60000610352</ele>
        <time>2021-03-12T13:48:55.000Z</time>
      </trkpt>
      <trkpt lat="46.47812" lon="5.30768">
        <ele>230.60000610352</ele>
        <time>2021-03-12T13:48:57.000Z</time>
      </trkpt>
      <trkpt lat="46.47826" lon="5.3077">
        <ele>230.60000610352</ele>
        <time>2021-03-12T13:48:59.000Z</time>
      </trkpt>
      <trkpt lat="46.47832" lon="5.30772">
        <ele>230.39999389648</ele>
        <time>2021-03-12T13:49:00.000Z</time>
      </trkpt>
      <trkpt lat="46.47838" lon="5.30776">
        <ele>230.39999389648</ele>
        <time>2021-03-12T13:49:01.000Z</time>
      </trkpt>
      <trkpt lat="46.47842" lon="5.30781">
        <ele>230.39999389648</ele>
        <time>2021-03-12T13:49:02.000Z</time>
      </trkpt>
      <trkpt lat="46.47845" lon="5.30788">
        <ele>230.39999389648</ele>
        <time>2021-03-12T13:49:03.000Z</time>
      </trkpt>
      <trkpt lat="46.47851" lon="5.30796">
        <ele>230.39999389648</ele>
        <time>2021-03-12T13:49:05.000Z</time>
      </trkpt>
      <trkpt lat="46.47856" lon="5.30798">
        <ele>230.60000610352</ele>
        <time>2021-03-12T13:49:06.000Z</time>
      </trkpt>
      <trkpt lat="46.47862" lon="5.30799">
        <ele>230.80000305176</ele>
        <time>2021-03-12T13:49:07.000Z</time>
      </trkpt>
      <trkpt lat="46.47877" lon="5.30801">
        <ele>231.60000610352</ele>
        <time>2021-03-12T13:49:09.000Z</time>
      </trkpt>
      <trkpt lat="46.47886" lon="5.30802">
        <ele>232</ele>
        <time>2021-03-12T13:49:10.000Z</time>
      </trkpt>
      <trkpt lat="46.47894" lon="5.30805">
        <ele>232</ele>
        <time>2021-03-12T13:49:11.000Z</time>
      </trkpt>
      <trkpt lat="46.47912" lon="5.30811">
        <ele>232.19999694824</ele>
        <time>2021-03-12T13:49:13.000Z</time>
      </trkpt>
      <trkpt lat="46.47932" lon="5.30817">
        <ele>232.19999694824</ele>
        <time>2021-03-12T13:49:15.000Z</time>
      </trkpt>
      <trkpt lat="46.47952" lon="5.30818">
        <ele>232.19999694824</ele>
        <time>2021-03-12T13:49:17.000Z</time>
      </trkpt>
      <trkpt lat="46.47973" lon="5.30813">
        <ele>232.19999694824</ele>
        <time>2021-03-12T13:49:19.000Z</time>
      </trkpt>
      <trkpt lat="46.47992" lon="5.30804">
        <ele>230.39999389648</ele>
        <time>2021-03-12T13:49:21.000Z</time>
      </trkpt>
      <trkpt lat="46.48001" lon="5.30799">
        <ele>229.80000305176</ele>
        <time>2021-03-12T13:49:22.000Z</time>
      </trkpt>
      <trkpt lat="46.4801" lon="5.30795">
        <ele>228.80000305176</ele>
        <time>2021-03-12T13:49:23.000Z</time>
      </trkpt>
      <trkpt lat="46.48018" lon="5.3079">
        <ele>228.19999694824</ele>
        <time>2021-03-12T13:49:24.000Z</time>
      </trkpt>
      <trkpt lat="46.48026" lon="5.30785">
        <ele>228</ele>
        <time>2021-03-12T13:49:25.000Z</time>
      </trkpt>
      <trkpt lat="46.48043" lon="5.30776">
        <ele>227.80000305176</ele>
        <time>2021-03-12T13:49:27.000Z</time>
      </trkpt>
      <trkpt lat="46.48058" lon="5.30767">
        <ele>227.80000305176</ele>
        <time>2021-03-12T13:49:29.000Z</time>
      </trkpt>
      <trkpt lat="46.48073" lon="5.30759">
        <ele>227.80000305176</ele>
        <time>2021-03-12T13:49:31.000Z</time>
      </trkpt>
      <trkpt lat="46.48088" lon="5.30751">
        <ele>227.80000305176</ele>
        <time>2021-03-12T13:49:33.000Z</time>
      </trkpt>
      <trkpt lat="46.48103" lon="5.30743">
        <ele>228</ele>
        <time>2021-03-12T13:49:35.000Z</time>
      </trkpt>
      <trkpt lat="46.48118" lon="5.30735">
        <ele>228.60000610352</ele>
        <time>2021-03-12T13:49:37.000Z</time>
      </trkpt>
      <trkpt lat="46.48125" lon="5.30731">
        <ele>228.80000305176</ele>
        <time>2021-03-12T13:49:38.000Z</time>
      </trkpt>
      <trkpt lat="46.48133" lon="5.30726">
        <ele>229</ele>
        <time>2021-03-12T13:49:39.000Z</time>
      </trkpt>
      <trkpt lat="46.48148" lon="5.30718">
        <ele>229.39999389648</ele>
        <time>2021-03-12T13:49:41.000Z</time>
      </trkpt>
      <trkpt lat="46.48163" lon="5.30709">
        <ele>229.39999389648</ele>
        <time>2021-03-12T13:49:43.000Z</time>
      </trkpt>
      <trkpt lat="46.48179" lon="5.307">
        <ele>229.39999389648</ele>
        <time>2021-03-12T13:49:45.000Z</time>
      </trkpt>
      <trkpt lat="46.48195" lon="5.30692">
        <ele>229.39999389648</ele>
        <time>2021-03-12T13:49:47.000Z</time>
      </trkpt>
      <trkpt lat="46.48204" lon="5.30688">
        <ele>229.39999389648</ele>
        <time>2021-03-12T13:49:48.000Z</time>
      </trkpt>
      <trkpt lat="46.48213" lon="5.30685">
        <ele>229.39999389648</ele>
        <time>2021-03-12T13:49:49.000Z</time>
      </trkpt>
      <trkpt lat="46.48222" lon="5.30684">
        <ele>229.19999694824</ele>
        <time>2021-03-12T13:49:50.000Z</time>
      </trkpt>
      <trkpt lat="46.48231" lon="5.30683">
        <ele>229</ele>
        <time>2021-03-12T13:49:51.000Z</time>
      </trkpt>
      <trkpt lat="46.48241" lon="5.30685">
        <ele>228.80000305176</ele>
        <time>2021-03-12T13:49:52.000Z</time>
      </trkpt>
      <trkpt lat="46.48251" lon="5.30687">
        <ele>228.39999389648</ele>
        <time>2021-03-12T13:49:53.000Z</time>
      </trkpt>
      <trkpt lat="46.4826" lon="5.30689">
        <ele>228.19999694824</ele>
        <time>2021-03-12T13:49:54.000Z</time>
      </trkpt>
      <trkpt lat="46.4827" lon="5.30692">
        <ele>228</ele>
        <time>2021-03-12T13:49:55.000Z</time>
      </trkpt>
      <trkpt lat="46.48289" lon="5.30696">
        <ele>227.39999389648</ele>
        <time>2021-03-12T13:49:57.000Z</time>
      </trkpt>
      <trkpt lat="46.48309" lon="5.30697">
        <ele>226.80000305176</ele>
        <time>2021-03-12T13:49:59.000Z</time>
      </trkpt>
      <trkpt lat="46.48327" lon="5.30692">
        <ele>226.39999389648</ele>
        <time>2021-03-12T13:50:01.000Z</time>
      </trkpt>
      <trkpt lat="46.48344" lon="5.30682">
        <ele>225.80000305176</ele>
        <time>2021-03-12T13:50:03.000Z</time>
      </trkpt>
      <trkpt lat="46.48352" lon="5.30675">
        <ele>225.39999389648</ele>
        <time>2021-03-12T13:50:04.000Z</time>
      </trkpt>
      <trkpt lat="46.4836" lon="5.30669">
        <ele>225.19999694824</ele>
        <time>2021-03-12T13:50:05.000Z</time>
      </trkpt>
      <trkpt lat="46.48375" lon="5.30655">
        <ele>225</ele>
        <time>2021-03-12T13:50:07.000Z</time>
      </trkpt>
      <trkpt lat="46.48389" lon="5.30641">
        <ele>224.80000305176</ele>
        <time>2021-03-12T13:50:09.000Z</time>
      </trkpt>
      <trkpt lat="46.48403" lon="5.30627">
        <ele>224.80000305176</ele>
        <time>2021-03-12T13:50:11.000Z</time>
      </trkpt>
      <trkpt lat="46.48411" lon="5.3062">
        <ele>224.80000305176</ele>
        <time>2021-03-12T13:50:12.000Z</time>
      </trkpt>
      <trkpt lat="46.48418" lon="5.30613">
        <ele>224.80000305176</ele>
        <time>2021-03-12T13:50:13.000Z</time>
      </trkpt>
      <trkpt lat="46.48433" lon="5.30598">
        <ele>224.80000305176</ele>
        <time>2021-03-12T13:50:15.000Z</time>
      </trkpt>
      <trkpt lat="46.48447" lon="5.30584">
        <ele>225</ele>
        <time>2021-03-12T13:50:17.000Z</time>
      </trkpt>
      <trkpt lat="46.48462" lon="5.3057">
        <ele>225.19999694824</ele>
        <time>2021-03-12T13:50:19.000Z</time>
      </trkpt>
      <trkpt lat="46.48477" lon="5.30556">
        <ele>225.80000305176</ele>
        <time>2021-03-12T13:50:21.000Z</time>
      </trkpt>
      <trkpt lat="46.48491" lon="5.30542">
        <ele>226.19999694824</ele>
        <time>2021-03-12T13:50:23.000Z</time>
      </trkpt>
      <trkpt lat="46.48499" lon="5.30535">
        <ele>226.19999694824</ele>
        <time>2021-03-12T13:50:24.000Z</time>
      </trkpt>
      <trkpt lat="46.48506" lon="5.30528">
        <ele>226.19999694824</ele>
        <time>2021-03-12T13:50:25.000Z</time>
      </trkpt>
      <trkpt lat="46.48521" lon="5.30515">
        <ele>226.39999389648</ele>
        <time>2021-03-12T13:50:27.000Z</time>
      </trkpt>
      <trkpt lat="46.48537" lon="5.30504">
        <ele>226.60000610352</ele>
        <time>2021-03-12T13:50:29.000Z</time>
      </trkpt>
      <trkpt lat="46.48546" lon="5.30498">
        <ele>226.60000610352</ele>
        <time>2021-03-12T13:50:30.000Z</time>
      </trkpt>
      <trkpt lat="46.48554" lon="5.30493">
        <ele>226.60000610352</ele>
        <time>2021-03-12T13:50:31.000Z</time>
      </trkpt>
      <trkpt lat="46.48563" lon="5.3049">
        <ele>226.60000610352</ele>
        <time>2021-03-12T13:50:32.000Z</time>
      </trkpt>
      <trkpt lat="46.48572" lon="5.30488">
        <ele>226.60000610352</ele>
        <time>2021-03-12T13:50:33.000Z</time>
      </trkpt>
      <trkpt lat="46.48581" lon="5.30487">
        <ele>226.60000610352</ele>
        <time>2021-03-12T13:50:34.000Z</time>
      </trkpt>
      <trkpt lat="46.48589" lon="5.30488">
        <ele>226.60000610352</ele>
        <time>2021-03-12T13:50:35.000Z</time>
      </trkpt>
      <trkpt lat="46.48598" lon="5.30489">
        <ele>226.60000610352</ele>
        <time>2021-03-12T13:50:36.000Z</time>
      </trkpt>
      <trkpt lat="46.48607" lon="5.30491">
        <ele>226.60000610352</ele>
        <time>2021-03-12T13:50:37.000Z</time>
      </trkpt>
      <trkpt lat="46.48624" lon="5.30494">
        <ele>226.80000305176</ele>
        <time>2021-03-12T13:50:39.000Z</time>
      </trkpt>
      <trkpt lat="46.48641" lon="5.30497">
        <ele>226.80000305176</ele>
        <time>2021-03-12T13:50:41.000Z</time>
      </trkpt>
      <trkpt lat="46.48659" lon="5.30498">
        <ele>226.80000305176</ele>
        <time>2021-03-12T13:50:43.000Z</time>
      </trkpt>
      <trkpt lat="46.48676" lon="5.30497">
        <ele>226.80000305176</ele>
        <time>2021-03-12T13:50:45.000Z</time>
      </trkpt>
      <trkpt lat="46.48693" lon="5.30496">
        <ele>226.60000610352</ele>
        <time>2021-03-12T13:50:47.000Z</time>
      </trkpt>
      <trkpt lat="46.4871" lon="5.30496">
        <ele>226.60000610352</ele>
        <time>2021-03-12T13:50:49.000Z</time>
      </trkpt>
      <trkpt lat="46.48718" lon="5.30498">
        <ele>226.60000610352</ele>
        <time>2021-03-12T13:50:50.000Z</time>
      </trkpt>
      <trkpt lat="46.48726" lon="5.305">
        <ele>226.60000610352</ele>
        <time>2021-03-12T13:50:51.000Z</time>
      </trkpt>
      <trkpt lat="46.48742" lon="5.30507">
        <ele>226.60000610352</ele>
        <time>2021-03-12T13:50:53.000Z</time>
      </trkpt>
      <trkpt lat="46.48758" lon="5.30514">
        <ele>226.60000610352</ele>
        <time>2021-03-12T13:50:55.000Z</time>
      </trkpt>
      <trkpt lat="46.48773" lon="5.30521">
        <ele>226.60000610352</ele>
        <time>2021-03-12T13:50:57.000Z</time>
      </trkpt>
      <trkpt lat="46.48789" lon="5.30528">
        <ele>226.60000610352</ele>
        <time>2021-03-12T13:50:59.000Z</time>
      </trkpt>
      <trkpt lat="46.48797" lon="5.30532">
        <ele>226.60000610352</ele>
        <time>2021-03-12T13:51:00.000Z</time>
      </trkpt>
      <trkpt lat="46.48805" lon="5.30534">
        <ele>226.60000610352</ele>
        <time>2021-03-12T13:51:01.000Z</time>
      </trkpt>
      <trkpt lat="46.48822" lon="5.30537">
        <ele>226.80000305176</ele>
        <time>2021-03-12T13:51:03.000Z</time>
      </trkpt>
      <trkpt lat="46.48839" lon="5.30539">
        <ele>226.80000305176</ele>
        <time>2021-03-12T13:51:05.000Z</time>
      </trkpt>
      <trkpt lat="46.48848" lon="5.3054">
        <ele>227</ele>
        <time>2021-03-12T13:51:06.000Z</time>
      </trkpt>
      <trkpt lat="46.48856" lon="5.3054">
        <ele>227</ele>
        <time>2021-03-12T13:51:07.000Z</time>
      </trkpt>
      <trkpt lat="46.48874" lon="5.30538">
        <ele>227</ele>
        <time>2021-03-12T13:51:09.000Z</time>
      </trkpt>
      <trkpt lat="46.48891" lon="5.30533">
        <ele>227</ele>
        <time>2021-03-12T13:51:11.000Z</time>
      </trkpt>
      <trkpt lat="46.48908" lon="5.30527">
        <ele>227</ele>
        <time>2021-03-12T13:51:13.000Z</time>
      </trkpt>
      <trkpt lat="46.48925" lon="5.3052">
        <ele>227</ele>
        <time>2021-03-12T13:51:15.000Z</time>
      </trkpt>
      <trkpt lat="46.48942" lon="5.30513">
        <ele>227</ele>
        <time>2021-03-12T13:51:17.000Z</time>
      </trkpt>
      <trkpt lat="46.48959" lon="5.30506">
        <ele>226.60000610352</ele>
        <time>2021-03-12T13:51:19.000Z</time>
      </trkpt>
      <trkpt lat="46.48967" lon="5.30502">
        <ele>226.39999389648</ele>
        <time>2021-03-12T13:51:20.000Z</time>
      </trkpt>
      <trkpt lat="46.48976" lon="5.30499">
        <ele>226.39999389648</ele>
        <time>2021-03-12T13:51:21.000Z</time>
      </trkpt>
      <trkpt lat="46.48993" lon="5.30492">
        <ele>226.19999694824</ele>
        <time>2021-03-12T13:51:23.000Z</time>
      </trkpt>
      <trkpt lat="46.49009" lon="5.30485">
        <ele>226.19999694824</ele>
        <time>2021-03-12T13:51:25.000Z</time>
      </trkpt>
      <trkpt lat="46.49027" lon="5.30478">
        <ele>226</ele>
        <time>2021-03-12T13:51:27.000Z</time>
      </trkpt>
      <trkpt lat="46.49044" lon="5.30472">
        <ele>226</ele>
        <time>2021-03-12T13:51:29.000Z</time>
      </trkpt>
      <trkpt lat="46.49052" lon="5.30468">
        <ele>226</ele>
        <time>2021-03-12T13:51:30.000Z</time>
      </trkpt>
      <trkpt lat="46.4906" lon="5.30464">
        <ele>226</ele>
        <time>2021-03-12T13:51:31.000Z</time>
      </trkpt>
      <trkpt lat="46.49077" lon="5.30457">
        <ele>226</ele>
        <time>2021-03-12T13:51:33.000Z</time>
      </trkpt>
      <trkpt lat="46.49094" lon="5.30451">
        <ele>225.80000305176</ele>
        <time>2021-03-12T13:51:35.000Z</time>
      </trkpt>
      <trkpt lat="46.49111" lon="5.30444">
        <ele>225.60000610352</ele>
        <time>2021-03-12T13:51:37.000Z</time>
      </trkpt>
      <trkpt lat="46.49127" lon="5.30437">
        <ele>225.39999389648</ele>
        <time>2021-03-12T13:51:39.000Z</time>
      </trkpt>
      <trkpt lat="46.49136" lon="5.30434">
        <ele>225.19999694824</ele>
        <time>2021-03-12T13:51:40.000Z</time>
      </trkpt>
      <trkpt lat="46.49144" lon="5.3043">
        <ele>225</ele>
        <time>2021-03-12T13:51:41.000Z</time>
      </trkpt>
      <trkpt lat="46.49152" lon="5.30427">
        <ele>225</ele>
        <time>2021-03-12T13:51:42.000Z</time>
      </trkpt>
      <trkpt lat="46.49161" lon="5.30424">
        <ele>225</ele>
        <time>2021-03-12T13:51:43.000Z</time>
      </trkpt>
      <trkpt lat="46.49178" lon="5.30417">
        <ele>225</ele>
        <time>2021-03-12T13:51:45.000Z</time>
      </trkpt>
      <trkpt lat="46.49195" lon="5.3041">
        <ele>225</ele>
        <time>2021-03-12T13:51:47.000Z</time>
      </trkpt>
      <trkpt lat="46.49212" lon="5.30403">
        <ele>225.19999694824</ele>
        <time>2021-03-12T13:51:49.000Z</time>
      </trkpt>
      <trkpt lat="46.4923" lon="5.30396">
        <ele>225.19999694824</ele>
        <time>2021-03-12T13:51:51.000Z</time>
      </trkpt>
      <trkpt lat="46.49247" lon="5.30389">
        <ele>225</ele>
        <time>2021-03-12T13:51:53.000Z</time>
      </trkpt>
      <trkpt lat="46.49255" lon="5.30386">
        <ele>225</ele>
        <time>2021-03-12T13:51:54.000Z</time>
      </trkpt>
      <trkpt lat="46.49264" lon="5.30382">
        <ele>225</ele>
        <time>2021-03-12T13:51:55.000Z</time>
      </trkpt>
      <trkpt lat="46.49281" lon="5.30375">
        <ele>225</ele>
        <time>2021-03-12T13:51:57.000Z</time>
      </trkpt>
      <trkpt lat="46.49298" lon="5.30369">
        <ele>225</ele>
        <time>2021-03-12T13:51:59.000Z</time>
      </trkpt>
      <trkpt lat="46.49314" lon="5.30362">
        <ele>225</ele>
        <time>2021-03-12T13:52:01.000Z</time>
      </trkpt>
      <trkpt lat="46.49331" lon="5.30356">
        <ele>224.80000305176</ele>
        <time>2021-03-12T13:52:03.000Z</time>
      </trkpt>
      <trkpt lat="46.49347" lon="5.30349">
        <ele>224.60000610352</ele>
        <time>2021-03-12T13:52:05.000Z</time>
      </trkpt>
      <trkpt lat="46.49355" lon="5.30346">
        <ele>224.60000610352</ele>
        <time>2021-03-12T13:52:06.000Z</time>
      </trkpt>
      <trkpt lat="46.49363" lon="5.30343">
        <ele>224.60000610352</ele>
        <time>2021-03-12T13:52:07.000Z</time>
      </trkpt>
      <trkpt lat="46.4938" lon="5.30336">
        <ele>224.60000610352</ele>
        <time>2021-03-12T13:52:09.000Z</time>
      </trkpt>
      <trkpt lat="46.49396" lon="5.3033">
        <ele>224.60000610352</ele>
        <time>2021-03-12T13:52:11.000Z</time>
      </trkpt>
      <trkpt lat="46.49413" lon="5.30323">
        <ele>224.60000610352</ele>
        <time>2021-03-12T13:52:13.000Z</time>
      </trkpt>
      <trkpt lat="46.49429" lon="5.30316">
        <ele>224.80000305176</ele>
        <time>2021-03-12T13:52:15.000Z</time>
      </trkpt>
      <trkpt lat="46.49445" lon="5.30308">
        <ele>224.80000305176</ele>
        <time>2021-03-12T13:52:17.000Z</time>
      </trkpt>
      <trkpt lat="46.49461" lon="5.30297">
        <ele>224.80000305176</ele>
        <time>2021-03-12T13:52:19.000Z</time>
      </trkpt>
      <trkpt lat="46.49475" lon="5.30282">
        <ele>224.80000305176</ele>
        <time>2021-03-12T13:52:21.000Z</time>
      </trkpt>
      <trkpt lat="46.49487" lon="5.30264">
        <ele>224.80000305176</ele>
        <time>2021-03-12T13:52:23.000Z</time>
      </trkpt>
      <trkpt lat="46.49498" lon="5.30242">
        <ele>224.80000305176</ele>
        <time>2021-03-12T13:52:25.000Z</time>
      </trkpt>
      <trkpt lat="46.49503" lon="5.30231">
        <ele>224.60000610352</ele>
        <time>2021-03-12T13:52:26.000Z</time>
      </trkpt>
      <trkpt lat="46.49508" lon="5.30219">
        <ele>224.39999389648</ele>
        <time>2021-03-12T13:52:27.000Z</time>
      </trkpt>
      <trkpt lat="46.49514" lon="5.30208">
        <ele>224.19999694824</ele>
        <time>2021-03-12T13:52:28.000Z</time>
      </trkpt>
      <trkpt lat="46.4952" lon="5.30198">
        <ele>223.80000305176</ele>
        <time>2021-03-12T13:52:29.000Z</time>
      </trkpt>
      <trkpt lat="46.49533" lon="5.3018">
        <ele>223.19999694824</ele>
        <time>2021-03-12T13:52:31.000Z</time>
      </trkpt>
      <trkpt lat="46.49541" lon="5.30172">
        <ele>223</ele>
        <time>2021-03-12T13:52:32.000Z</time>
      </trkpt>
      <trkpt lat="46.49549" lon="5.30166">
        <ele>222.39999389648</ele>
        <time>2021-03-12T13:52:33.000Z</time>
      </trkpt>
      <trkpt lat="46.49557" lon="5.3016">
        <ele>221.60000610352</ele>
        <time>2021-03-12T13:52:34.000Z</time>
      </trkpt>
      <trkpt lat="46.49565" lon="5.30155">
        <ele>221.19999694824</ele>
        <time>2021-03-12T13:52:35.000Z</time>
      </trkpt>
      <trkpt lat="46.4958" lon="5.30144">
        <ele>220.80000305176</ele>
        <time>2021-03-12T13:52:37.000Z</time>
      </trkpt>
      <trkpt lat="46.49595" lon="5.30132">
        <ele>220.60000610352</ele>
        <time>2021-03-12T13:52:39.000Z</time>
      </trkpt>
      <trkpt lat="46.49608" lon="5.30118">
        <ele>220.60000610352</ele>
        <time>2021-03-12T13:52:41.000Z</time>
      </trkpt>
      <trkpt lat="46.49615" lon="5.3011">
        <ele>220.60000610352</ele>
        <time>2021-03-12T13:52:42.000Z</time>
      </trkpt>
      <trkpt lat="46.49621" lon="5.30102">
        <ele>220.60000610352</ele>
        <time>2021-03-12T13:52:43.000Z</time>
      </trkpt>
      <trkpt lat="46.49635" lon="5.30087">
        <ele>220.80000305176</ele>
        <time>2021-03-12T13:52:45.000Z</time>
      </trkpt>
      <trkpt lat="46.49642" lon="5.30078">
        <ele>220.80000305176</ele>
        <time>2021-03-12T13:52:46.000Z</time>
      </trkpt>
      <trkpt lat="46.49648" lon="5.30068">
        <ele>220.80000305176</ele>
        <time>2021-03-12T13:52:47.000Z</time>
      </trkpt>
      <trkpt lat="46.49658" lon="5.30045">
        <ele>220.80000305176</ele>
        <time>2021-03-12T13:52:49.000Z</time>
      </trkpt>
      <trkpt lat="46.49662" lon="5.30032">
        <ele>220.80000305176</ele>
        <time>2021-03-12T13:52:50.000Z</time>
      </trkpt>
      <trkpt lat="46.49666" lon="5.30019">
        <ele>220.80000305176</ele>
        <time>2021-03-12T13:52:51.000Z</time>
      </trkpt>
      <trkpt lat="46.49673" lon="5.29992">
        <ele>220.80000305176</ele>
        <time>2021-03-12T13:52:53.000Z</time>
      </trkpt>
      <trkpt lat="46.49679" lon="5.29965">
        <ele>220.39999389648</ele>
        <time>2021-03-12T13:52:55.000Z</time>
      </trkpt>
      <trkpt lat="46.49684" lon="5.29939">
        <ele>219.19999694824</ele>
        <time>2021-03-12T13:52:57.000Z</time>
      </trkpt>
      <trkpt lat="46.4969" lon="5.29913">
        <ele>218</ele>
        <time>2021-03-12T13:52:59.000Z</time>
      </trkpt>
      <trkpt lat="46.49695" lon="5.29889">
        <ele>217</ele>
        <time>2021-03-12T13:53:01.000Z</time>
      </trkpt>
      <trkpt lat="46.49701" lon="5.29868">
        <ele>216.80000305176</ele>
        <time>2021-03-12T13:53:03.000Z</time>
      </trkpt>
      <trkpt lat="46.49708" lon="5.29849">
        <ele>216.60000610352</ele>
        <time>2021-03-12T13:53:05.000Z</time>
      </trkpt>
      <trkpt lat="46.49712" lon="5.29841">
        <ele>216.60000610352</ele>
        <time>2021-03-12T13:53:06.000Z</time>
      </trkpt>
      <trkpt lat="46.49717" lon="5.29834">
        <ele>216.60000610352</ele>
        <time>2021-03-12T13:53:07.000Z</time>
      </trkpt>
      <trkpt lat="46.49727" lon="5.2982">
        <ele>216.60000610352</ele>
        <time>2021-03-12T13:53:09.000Z</time>
      </trkpt>
      <trkpt lat="46.49737" lon="5.29806">
        <ele>216.80000305176</ele>
        <time>2021-03-12T13:53:11.000Z</time>
      </trkpt>
      <trkpt lat="46.49748" lon="5.29793">
        <ele>217.60000610352</ele>
        <time>2021-03-12T13:53:13.000Z</time>
      </trkpt>
      <trkpt lat="46.49755" lon="5.29789">
        <ele>218.19999694824</ele>
        <time>2021-03-12T13:53:14.000Z</time>
      </trkpt>
      <trkpt lat="46.49763" lon="5.29787">
        <ele>218.60000610352</ele>
        <time>2021-03-12T13:53:15.000Z</time>
      </trkpt>
      <trkpt lat="46.4977" lon="5.29787">
        <ele>219</ele>
        <time>2021-03-12T13:53:16.000Z</time>
      </trkpt>
      <trkpt lat="46.49778" lon="5.29788">
        <ele>219.19999694824</ele>
        <time>2021-03-12T13:53:17.000Z</time>
      </trkpt>
      <trkpt lat="46.49786" lon="5.29789">
        <ele>219.19999694824</ele>
        <time>2021-03-12T13:53:18.000Z</time>
      </trkpt>
      <trkpt lat="46.49793" lon="5.2979">
        <ele>219.39999389648</ele>
        <time>2021-03-12T13:53:19.000Z</time>
      </trkpt>
      <trkpt lat="46.49808" lon="5.29795">
        <ele>219.60000610352</ele>
        <time>2021-03-12T13:53:21.000Z</time>
      </trkpt>
      <trkpt lat="46.49816" lon="5.29798">
        <ele>219.60000610352</ele>
        <time>2021-03-12T13:53:22.000Z</time>
      </trkpt>
      <trkpt lat="46.49823" lon="5.29801">
        <ele>219.80000305176</ele>
        <time>2021-03-12T13:53:23.000Z</time>
      </trkpt>
      <trkpt lat="46.49838" lon="5.29806">
        <ele>219.80000305176</ele>
        <time>2021-03-12T13:53:25.000Z</time>
      </trkpt>
      <trkpt lat="46.49853" lon="5.29811">
        <ele>220</ele>
        <time>2021-03-12T13:53:27.000Z</time>
      </trkpt>
      <trkpt lat="46.49869" lon="5.29817">
        <ele>220</ele>
        <time>2021-03-12T13:53:29.000Z</time>
      </trkpt>
      <trkpt lat="46.49885" lon="5.29824">
        <ele>219.80000305176</ele>
        <time>2021-03-12T13:53:31.000Z</time>
      </trkpt>
      <trkpt lat="46.49901" lon="5.29833">
        <ele>219.80000305176</ele>
        <time>2021-03-12T13:53:33.000Z</time>
      </trkpt>
      <trkpt lat="46.49918" lon="5.29839">
        <ele>219.80000305176</ele>
        <time>2021-03-12T13:53:35.000Z</time>
      </trkpt>
      <trkpt lat="46.49935" lon="5.29846">
        <ele>219.39999389648</ele>
        <time>2021-03-12T13:53:37.000Z</time>
      </trkpt>
      <trkpt lat="46.49944" lon="5.29849">
        <ele>219.19999694824</ele>
        <time>2021-03-12T13:53:38.000Z</time>
      </trkpt>
      <trkpt lat="46.49953" lon="5.29851">
        <ele>219</ele>
        <time>2021-03-12T13:53:39.000Z</time>
      </trkpt>
      <trkpt lat="46.49971" lon="5.29854">
        <ele>218.19999694824</ele>
        <time>2021-03-12T13:53:41.000Z</time>
      </trkpt>
      <trkpt lat="46.4998" lon="5.29855">
        <ele>218</ele>
        <time>2021-03-12T13:53:42.000Z</time>
      </trkpt>
      <trkpt lat="46.4999" lon="5.29856">
        <ele>217.80000305176</ele>
        <time>2021-03-12T13:53:43.000Z</time>
      </trkpt>
      <trkpt lat="46.49999" lon="5.29858">
        <ele>217.60000610352</ele>
        <time>2021-03-12T13:53:44.000Z</time>
      </trkpt>
      <trkpt lat="46.50008" lon="5.29861">
        <ele>217</ele>
        <time>2021-03-12T13:53:45.000Z</time>
      </trkpt>
      <trkpt lat="46.50016" lon="5.29866">
        <ele>216.80000305176</ele>
        <time>2021-03-12T13:53:46.000Z</time>
      </trkpt>
      <trkpt lat="46.50024" lon="5.29872">
        <ele>216.39999389648</ele>
        <time>2021-03-12T13:53:47.000Z</time>
      </trkpt>
      <trkpt lat="46.50037" lon="5.29888">
        <ele>216</ele>
        <time>2021-03-12T13:53:49.000Z</time>
      </trkpt>
      <trkpt lat="46.5005" lon="5.29904">
        <ele>215.80000305176</ele>
        <time>2021-03-12T13:53:51.000Z</time>
      </trkpt>
      <trkpt lat="46.50056" lon="5.29912">
        <ele>215.80000305176</ele>
        <time>2021-03-12T13:53:52.000Z</time>
      </trkpt>
      <trkpt lat="46.50061" lon="5.29921">
        <ele>215.80000305176</ele>
        <time>2021-03-12T13:53:53.000Z</time>
      </trkpt>
      <trkpt lat="46.5007" lon="5.2994">
        <ele>215.80000305176</ele>
        <time>2021-03-12T13:53:55.000Z</time>
      </trkpt>
      <trkpt lat="46.50078" lon="5.2996">
        <ele>215.80000305176</ele>
        <time>2021-03-12T13:53:57.000Z</time>
      </trkpt>
      <trkpt lat="46.50083" lon="5.29981">
        <ele>215.80000305176</ele>
        <time>2021-03-12T13:53:59.000Z</time>
      </trkpt>
      <trkpt lat="46.50086" lon="5.30002">
        <ele>215.80000305176</ele>
        <time>2021-03-12T13:54:01.000Z</time>
      </trkpt>
      <trkpt lat="46.50087" lon="5.30013">
        <ele>216</ele>
        <time>2021-03-12T13:54:02.000Z</time>
      </trkpt>
      <trkpt lat="46.50088" lon="5.30024">
        <ele>216</ele>
        <time>2021-03-12T13:54:03.000Z</time>
      </trkpt>
      <trkpt lat="46.50089" lon="5.30046">
        <ele>216.19999694824</ele>
        <time>2021-03-12T13:54:05.000Z</time>
      </trkpt>
      <trkpt lat="46.50089" lon="5.30068">
        <ele>216.60000610352</ele>
        <time>2021-03-12T13:54:07.000Z</time>
      </trkpt>
      <trkpt lat="46.50089" lon="5.3009">
        <ele>216.60000610352</ele>
        <time>2021-03-12T13:54:09.000Z</time>
      </trkpt>
      <trkpt lat="46.50089" lon="5.30112">
        <ele>216.80000305176</ele>
        <time>2021-03-12T13:54:11.000Z</time>
      </trkpt>
      <trkpt lat="46.50088" lon="5.30134">
        <ele>216.80000305176</ele>
        <time>2021-03-12T13:54:13.000Z</time>
      </trkpt>
      <trkpt lat="46.50089" lon="5.30158">
        <ele>217</ele>
        <time>2021-03-12T13:54:15.000Z</time>
      </trkpt>
      <trkpt lat="46.50089" lon="5.30181">
        <ele>217</ele>
        <time>2021-03-12T13:54:17.000Z</time>
      </trkpt>
      <trkpt lat="46.50089" lon="5.30193">
        <ele>216.80000305176</ele>
        <time>2021-03-12T13:54:18.000Z</time>
      </trkpt>
      <trkpt lat="46.50089" lon="5.30204">
        <ele>216.80000305176</ele>
        <time>2021-03-12T13:54:19.000Z</time>
      </trkpt>
      <trkpt lat="46.50089" lon="5.30216">
        <ele>216.80000305176</ele>
        <time>2021-03-12T13:54:20.000Z</time>
      </trkpt>
      <trkpt lat="46.50089" lon="5.30228">
        <ele>216.80000305176</ele>
        <time>2021-03-12T13:54:21.000Z</time>
      </trkpt>
      <trkpt lat="46.50089" lon="5.3024">
        <ele>216.60000610352</ele>
        <time>2021-03-12T13:54:22.000Z</time>
      </trkpt>
      <trkpt lat="46.50088" lon="5.30251">
        <ele>216.60000610352</ele>
        <time>2021-03-12T13:54:23.000Z</time>
      </trkpt>
      <trkpt lat="46.50088" lon="5.30263">
        <ele>216.39999389648</ele>
        <time>2021-03-12T13:54:24.000Z</time>
      </trkpt>
      <trkpt lat="46.50086" lon="5.30274">
        <ele>216.19999694824</ele>
        <time>2021-03-12T13:54:25.000Z</time>
      </trkpt>
      <trkpt lat="46.50083" lon="5.30298">
        <ele>215.80000305176</ele>
        <time>2021-03-12T13:54:27.000Z</time>
      </trkpt>
      <trkpt lat="46.50081" lon="5.30309">
        <ele>215.80000305176</ele>
        <time>2021-03-12T13:54:28.000Z</time>
      </trkpt>
      <trkpt lat="46.50078" lon="5.30321">
        <ele>215.80000305176</ele>
        <time>2021-03-12T13:54:29.000Z</time>
      </trkpt>
      <trkpt lat="46.50075" lon="5.30333">
        <ele>215.60000610352</ele>
        <time>2021-03-12T13:54:30.000Z</time>
      </trkpt>
      <trkpt lat="46.5007" lon="5.30345">
        <ele>215.60000610352</ele>
        <time>2021-03-12T13:54:31.000Z</time>
      </trkpt>
      <trkpt lat="46.5006" lon="5.30367">
        <ele>215.60000610352</ele>
        <time>2021-03-12T13:54:33.000Z</time>
      </trkpt>
      <trkpt lat="46.50047" lon="5.30385">
        <ele>215.39999389648</ele>
        <time>2021-03-12T13:54:35.000Z</time>
      </trkpt>
      <trkpt lat="46.50033" lon="5.30401">
        <ele>214.60000610352</ele>
        <time>2021-03-12T13:54:37.000Z</time>
      </trkpt>
      <trkpt lat="46.50018" lon="5.30413">
        <ele>213.19999694824</ele>
        <time>2021-03-12T13:54:39.000Z</time>
      </trkpt>
      <trkpt lat="46.50004" lon="5.30423">
        <ele>212.19999694824</ele>
        <time>2021-03-12T13:54:41.000Z</time>
      </trkpt>
      <trkpt lat="46.49991" lon="5.30432">
        <ele>211.80000305176</ele>
        <time>2021-03-12T13:54:43.000Z</time>
      </trkpt>
      <trkpt lat="46.4998" lon="5.30442">
        <ele>211.80000305176</ele>
        <time>2021-03-12T13:54:45.000Z</time>
      </trkpt>
      <trkpt lat="46.4997" lon="5.30452">
        <ele>211.80000305176</ele>
        <time>2021-03-12T13:54:47.000Z</time>
      </trkpt>
      <trkpt lat="46.4996" lon="5.30464">
        <ele>211.80000305176</ele>
        <time>2021-03-12T13:54:49.000Z</time>
      </trkpt>
      <trkpt lat="46.49956" lon="5.3047">
        <ele>211.80000305176</ele>
        <time>2021-03-12T13:54:50.000Z</time>
      </trkpt>
      <trkpt lat="46.49952" lon="5.30477">
        <ele>212.19999694824</ele>
        <time>2021-03-12T13:54:51.000Z</time>
      </trkpt>
      <trkpt lat="46.49945" lon="5.3049">
        <ele>213</ele>
        <time>2021-03-12T13:54:53.000Z</time>
      </trkpt>
      <trkpt lat="46.49942" lon="5.30498">
        <ele>213.39999389648</ele>
        <time>2021-03-12T13:54:54.000Z</time>
      </trkpt>
      <trkpt lat="46.49939" lon="5.30505">
        <ele>213.60000610352</ele>
        <time>2021-03-12T13:54:55.000Z</time>
      </trkpt>
      <trkpt lat="46.49937" lon="5.30512">
        <ele>214</ele>
        <time>2021-03-12T13:54:56.000Z</time>
      </trkpt>
      <trkpt lat="46.49935" lon="5.30519">
        <ele>214.19999694824</ele>
        <time>2021-03-12T13:54:57.000Z</time>
      </trkpt>
      <trkpt lat="46.49933" lon="5.30526">
        <ele>214.60000610352</ele>
        <time>2021-03-12T13:54:58.000Z</time>
      </trkpt>
      <trkpt lat="46.49932" lon="5.30533">
        <ele>215</ele>
        <time>2021-03-12T13:54:59.000Z</time>
      </trkpt>
      <trkpt lat="46.49929" lon="5.30548">
        <ele>215.60000610352</ele>
        <time>2021-03-12T13:55:01.000Z</time>
      </trkpt>
      <trkpt lat="46.49929" lon="5.30555">
        <ele>215.80000305176</ele>
        <time>2021-03-12T13:55:02.000Z</time>
      </trkpt>
      <trkpt lat="46.49928" lon="5.30562">
        <ele>216</ele>
        <time>2021-03-12T13:55:03.000Z</time>
      </trkpt>
      <trkpt lat="46.49928" lon="5.30576">
        <ele>216.60000610352</ele>
        <time>2021-03-12T13:55:05.000Z</time>
      </trkpt>
      <trkpt lat="46.49928" lon="5.30583">
        <ele>217</ele>
        <time>2021-03-12T13:55:06.000Z</time>
      </trkpt>
      <trkpt lat="46.49928" lon="5.30591">
        <ele>217.19999694824</ele>
        <time>2021-03-12T13:55:07.000Z</time>
      </trkpt>
      <trkpt lat="46.49929" lon="5.30606">
        <ele>218.19999694824</ele>
        <time>2021-03-12T13:55:09.000Z</time>
      </trkpt>
      <trkpt lat="46.49931" lon="5.3062">
        <ele>218.60000610352</ele>
        <time>2021-03-12T13:55:11.000Z</time>
      </trkpt>
      <trkpt lat="46.49934" lon="5.30634">
        <ele>219.19999694824</ele>
        <time>2021-03-12T13:55:13.000Z</time>
      </trkpt>
      <trkpt lat="46.49935" lon="5.30641">
        <ele>219.39999389648</ele>
        <time>2021-03-12T13:55:14.000Z</time>
      </trkpt>
      <trkpt lat="46.49936" lon="5.30648">
        <ele>219.39999389648</ele>
        <time>2021-03-12T13:55:15.000Z</time>
      </trkpt>
      <trkpt lat="46.49937" lon="5.30655">
        <ele>219.60000610352</ele>
        <time>2021-03-12T13:55:16.000Z</time>
      </trkpt>
      <trkpt lat="46.49938" lon="5.30662">
        <ele>219.80000305176</ele>
        <time>2021-03-12T13:55:17.000Z</time>
      </trkpt>
      <trkpt lat="46.49941" lon="5.30675">
        <ele>220.19999694824</ele>
        <time>2021-03-12T13:55:19.000Z</time>
      </trkpt>
      <trkpt lat="46.49942" lon="5.30682">
        <ele>220.60000610352</ele>
        <time>2021-03-12T13:55:20.000Z</time>
      </trkpt>
      <trkpt lat="46.49943" lon="5.30689">
        <ele>220.80000305176</ele>
        <time>2021-03-12T13:55:21.000Z</time>
      </trkpt>
      <trkpt lat="46.49945" lon="5.30703">
        <ele>221</ele>
        <time>2021-03-12T13:55:23.000Z</time>
      </trkpt>
      <trkpt lat="46.49948" lon="5.30716">
        <ele>221.39999389648</ele>
        <time>2021-03-12T13:55:25.000Z</time>
      </trkpt>
      <trkpt lat="46.49949" lon="5.30723">
        <ele>221.80000305176</ele>
        <time>2021-03-12T13:55:26.000Z</time>
      </trkpt>
      <trkpt lat="46.4995" lon="5.3073">
        <ele>222</ele>
        <time>2021-03-12T13:55:27.000Z</time>
      </trkpt>
      <trkpt lat="46.49953" lon="5.30744">
        <ele>222.19999694824</ele>
        <time>2021-03-12T13:55:29.000Z</time>
      </trkpt>
      <trkpt lat="46.49956" lon="5.3076">
        <ele>222.60000610352</ele>
        <time>2021-03-12T13:55:31.000Z</time>
      </trkpt>
      <trkpt lat="46.49959" lon="5.30777">
        <ele>222.80000305176</ele>
        <time>2021-03-12T13:55:33.000Z</time>
      </trkpt>
      <trkpt lat="46.49962" lon="5.30794">
        <ele>222.80000305176</ele>
        <time>2021-03-12T13:55:35.000Z</time>
      </trkpt>
      <trkpt lat="46.49967" lon="5.30813">
        <ele>223</ele>
        <time>2021-03-12T13:55:37.000Z</time>
      </trkpt>
      <trkpt lat="46.49972" lon="5.30832">
        <ele>223</ele>
        <time>2021-03-12T13:55:39.000Z</time>
      </trkpt>
      <trkpt lat="46.49975" lon="5.30841">
        <ele>223</ele>
        <time>2021-03-12T13:55:40.000Z</time>
      </trkpt>
      <trkpt lat="46.49979" lon="5.30851">
        <ele>223</ele>
        <time>2021-03-12T13:55:41.000Z</time>
      </trkpt>
      <trkpt lat="46.49986" lon="5.3087">
        <ele>222.80000305176</ele>
        <time>2021-03-12T13:55:43.000Z</time>
      </trkpt>
      <trkpt lat="46.49994" lon="5.30892">
        <ele>222.80000305176</ele>
        <time>2021-03-12T13:55:45.000Z</time>
      </trkpt>
      <trkpt lat="46.50002" lon="5.30914">
        <ele>222.19999694824</ele>
        <time>2021-03-12T13:55:47.000Z</time>
      </trkpt>
      <trkpt lat="46.50012" lon="5.30938">
        <ele>221.80000305176</ele>
        <time>2021-03-12T13:55:49.000Z</time>
      </trkpt>
      <trkpt lat="46.50021" lon="5.30964">
        <ele>221.19999694824</ele>
        <time>2021-03-12T13:55:51.000Z</time>
      </trkpt>
      <trkpt lat="46.50031" lon="5.30991">
        <ele>220.60000610352</ele>
        <time>2021-03-12T13:55:53.000Z</time>
      </trkpt>
      <trkpt lat="46.50041" lon="5.31019">
        <ele>219.60000610352</ele>
        <time>2021-03-12T13:55:55.000Z</time>
      </trkpt>
      <trkpt lat="46.50051" lon="5.31048">
        <ele>218.60000610352</ele>
        <time>2021-03-12T13:55:57.000Z</time>
      </trkpt>
      <trkpt lat="46.50061" lon="5.31078">
        <ele>217</ele>
        <time>2021-03-12T13:55:59.000Z</time>
      </trkpt>
      <trkpt lat="46.50071" lon="5.31109">
        <ele>215.80000305176</ele>
        <time>2021-03-12T13:56:01.000Z</time>
      </trkpt>
      <trkpt lat="46.50082" lon="5.3114">
        <ele>214.39999389648</ele>
        <time>2021-03-12T13:56:03.000Z</time>
      </trkpt>
      <trkpt lat="46.50092" lon="5.31169">
        <ele>212.60000610352</ele>
        <time>2021-03-12T13:56:05.000Z</time>
      </trkpt>
      <trkpt lat="46.50096" lon="5.31184">
        <ele>211.19999694824</ele>
        <time>2021-03-12T13:56:06.000Z</time>
      </trkpt>
      <trkpt lat="46.50101" lon="5.31197">
        <ele>210.39999389648</ele>
        <time>2021-03-12T13:56:07.000Z</time>
      </trkpt>
      <trkpt lat="46.50105" lon="5.31211">
        <ele>210</ele>
        <time>2021-03-12T13:56:08.000Z</time>
      </trkpt>
      <trkpt lat="46.5011" lon="5.31224">
        <ele>209.60000610352</ele>
        <time>2021-03-12T13:56:09.000Z</time>
      </trkpt>
      <trkpt lat="46.50119" lon="5.31249">
        <ele>209.39999389648</ele>
        <time>2021-03-12T13:56:11.000Z</time>
      </trkpt>
      <trkpt lat="46.50127" lon="5.31274">
        <ele>209.39999389648</ele>
        <time>2021-03-12T13:56:13.000Z</time>
      </trkpt>
      <trkpt lat="46.50136" lon="5.31299">
        <ele>209.39999389648</ele>
        <time>2021-03-12T13:56:15.000Z</time>
      </trkpt>
      <trkpt lat="46.50145" lon="5.31324">
        <ele>209.39999389648</ele>
        <time>2021-03-12T13:56:17.000Z</time>
      </trkpt>
      <trkpt lat="46.50153" lon="5.3135">
        <ele>210</ele>
        <time>2021-03-12T13:56:19.000Z</time>
      </trkpt>
      <trkpt lat="46.50162" lon="5.31375">
        <ele>210.39999389648</ele>
        <time>2021-03-12T13:56:21.000Z</time>
      </trkpt>
      <trkpt lat="46.50171" lon="5.314">
        <ele>210.60000610352</ele>
        <time>2021-03-12T13:56:23.000Z</time>
      </trkpt>
      <trkpt lat="46.5018" lon="5.31427">
        <ele>210.60000610352</ele>
        <time>2021-03-12T13:56:25.000Z</time>
      </trkpt>
      <trkpt lat="46.5019" lon="5.31454">
        <ele>210.60000610352</ele>
        <time>2021-03-12T13:56:27.000Z</time>
      </trkpt>
      <trkpt lat="46.502" lon="5.31482">
        <ele>210.60000610352</ele>
        <time>2021-03-12T13:56:29.000Z</time>
      </trkpt>
      <trkpt lat="46.50205" lon="5.31497">
        <ele>210.39999389648</ele>
        <time>2021-03-12T13:56:30.000Z</time>
      </trkpt>
      <trkpt lat="46.5021" lon="5.31511">
        <ele>210.19999694824</ele>
        <time>2021-03-12T13:56:31.000Z</time>
      </trkpt>
      <trkpt lat="46.50222" lon="5.31538">
        <ele>210</ele>
        <time>2021-03-12T13:56:33.000Z</time>
      </trkpt>
      <trkpt lat="46.50237" lon="5.31563">
        <ele>209.19999694824</ele>
        <time>2021-03-12T13:56:35.000Z</time>
      </trkpt>
      <trkpt lat="46.50246" lon="5.31574">
        <ele>208.19999694824</ele>
        <time>2021-03-12T13:56:36.000Z</time>
      </trkpt>
      <trkpt lat="46.50254" lon="5.31584">
        <ele>207.60000610352</ele>
        <time>2021-03-12T13:56:37.000Z</time>
      </trkpt>
      <trkpt lat="46.50263" lon="5.31593">
        <ele>206.80000305176</ele>
        <time>2021-03-12T13:56:38.000Z</time>
      </trkpt>
      <trkpt lat="46.50272" lon="5.31601">
        <ele>205.60000610352</ele>
        <time>2021-03-12T13:56:39.000Z</time>
      </trkpt>
      <trkpt lat="46.50291" lon="5.31617">
        <ele>204.39999389648</ele>
        <time>2021-03-12T13:56:41.000Z</time>
      </trkpt>
      <trkpt lat="46.5031" lon="5.31631">
        <ele>204</ele>
        <time>2021-03-12T13:56:43.000Z</time>
      </trkpt>
      <trkpt lat="46.50328" lon="5.31644">
        <ele>203.80000305176</ele>
        <time>2021-03-12T13:56:45.000Z</time>
      </trkpt>
      <trkpt lat="46.50337" lon="5.31651">
        <ele>203.60000610352</ele>
        <time>2021-03-12T13:56:46.000Z</time>
      </trkpt>
      <trkpt lat="46.50346" lon="5.31658">
        <ele>203.60000610352</ele>
        <time>2021-03-12T13:56:47.000Z</time>
      </trkpt>
      <trkpt lat="46.50354" lon="5.31666">
        <ele>203.39999389648</ele>
        <time>2021-03-12T13:56:48.000Z</time>
      </trkpt>
      <trkpt lat="46.50362" lon="5.31674">
        <ele>203.39999389648</ele>
        <time>2021-03-12T13:56:49.000Z</time>
      </trkpt>
      <trkpt lat="46.50369" lon="5.31683">
        <ele>203.39999389648</ele>
        <time>2021-03-12T13:56:50.000Z</time>
      </trkpt>
      <trkpt lat="46.50376" lon="5.31692">
        <ele>203.19999694824</ele>
        <time>2021-03-12T13:56:51.000Z</time>
      </trkpt>
      <trkpt lat="46.50387" lon="5.31712">
        <ele>203.19999694824</ele>
        <time>2021-03-12T13:56:53.000Z</time>
      </trkpt>
      <trkpt lat="46.50398" lon="5.31733">
        <ele>203.39999389648</ele>
        <time>2021-03-12T13:56:55.000Z</time>
      </trkpt>
      <trkpt lat="46.50403" lon="5.31744">
        <ele>203.60000610352</ele>
        <time>2021-03-12T13:56:56.000Z</time>
      </trkpt>
      <trkpt lat="46.50407" lon="5.31755">
        <ele>203.60000610352</ele>
        <time>2021-03-12T13:56:57.000Z</time>
      </trkpt>
      <trkpt lat="46.50414" lon="5.31778">
        <ele>203.80000305176</ele>
        <time>2021-03-12T13:56:59.000Z</time>
      </trkpt>
      <trkpt lat="46.5042" lon="5.31801">
        <ele>203.80000305176</ele>
        <time>2021-03-12T13:57:01.000Z</time>
      </trkpt>
      <trkpt lat="46.50422" lon="5.31812">
        <ele>204.19999694824</ele>
        <time>2021-03-12T13:57:02.000Z</time>
      </trkpt>
      <trkpt lat="46.50425" lon="5.31823">
        <ele>204.39999389648</ele>
        <time>2021-03-12T13:57:03.000Z</time>
      </trkpt>
      <trkpt lat="46.50427" lon="5.31834">
        <ele>204.60000610352</ele>
        <time>2021-03-12T13:57:04.000Z</time>
      </trkpt>
      <trkpt lat="46.5043" lon="5.31846">
        <ele>204.60000610352</ele>
        <time>2021-03-12T13:57:05.000Z</time>
      </trkpt>
      <trkpt lat="46.50434" lon="5.31868">
        <ele>204.80000305176</ele>
        <time>2021-03-12T13:57:07.000Z</time>
      </trkpt>
      <trkpt lat="46.50436" lon="5.31891">
        <ele>205</ele>
        <time>2021-03-12T13:57:09.000Z</time>
      </trkpt>
      <trkpt lat="46.50436" lon="5.31914">
        <ele>205.19999694824</ele>
        <time>2021-03-12T13:57:11.000Z</time>
      </trkpt>
      <trkpt lat="46.50436" lon="5.31937">
        <ele>205.19999694824</ele>
        <time>2021-03-12T13:57:13.000Z</time>
      </trkpt>
      <trkpt lat="46.50436" lon="5.31959">
        <ele>205.19999694824</ele>
        <time>2021-03-12T13:57:15.000Z</time>
      </trkpt>
      <trkpt lat="46.50435" lon="5.31969">
        <ele>205.39999389648</ele>
        <time>2021-03-12T13:57:16.000Z</time>
      </trkpt>
      <trkpt lat="46.50435" lon="5.3198">
        <ele>205.39999389648</ele>
        <time>2021-03-12T13:57:17.000Z</time>
      </trkpt>
      <trkpt lat="46.50435" lon="5.32002">
        <ele>205.39999389648</ele>
        <time>2021-03-12T13:57:19.000Z</time>
      </trkpt>
      <trkpt lat="46.50434" lon="5.32024">
        <ele>205.60000610352</ele>
        <time>2021-03-12T13:57:21.000Z</time>
      </trkpt>
      <trkpt lat="46.50434" lon="5.32045">
        <ele>205.60000610352</ele>
        <time>2021-03-12T13:57:23.000Z</time>
      </trkpt>
      <trkpt lat="46.50434" lon="5.32067">
        <ele>205.80000305176</ele>
        <time>2021-03-12T13:57:25.000Z</time>
      </trkpt>
      <trkpt lat="46.50433" lon="5.32087">
        <ele>206</ele>
        <time>2021-03-12T13:57:27.000Z</time>
      </trkpt>
      <trkpt lat="46.50433" lon="5.32107">
        <ele>206.19999694824</ele>
        <time>2021-03-12T13:57:29.000Z</time>
      </trkpt>
      <trkpt lat="46.50432" lon="5.32127">
        <ele>206.39999389648</ele>
        <time>2021-03-12T13:57:31.000Z</time>
      </trkpt>
      <trkpt lat="46.50432" lon="5.32146">
        <ele>206.60000610352</ele>
        <time>2021-03-12T13:57:33.000Z</time>
      </trkpt>
      <trkpt lat="46.50432" lon="5.32156">
        <ele>206.60000610352</ele>
        <time>2021-03-12T13:57:34.000Z</time>
      </trkpt>
      <trkpt lat="46.50431" lon="5.32166">
        <ele>206.80000305176</ele>
        <time>2021-03-12T13:57:35.000Z</time>
      </trkpt>
      <trkpt lat="46.50431" lon="5.32185">
        <ele>207.19999694824</ele>
        <time>2021-03-12T13:57:37.000Z</time>
      </trkpt>
      <trkpt lat="46.5043" lon="5.32205">
        <ele>207.60000610352</ele>
        <time>2021-03-12T13:57:39.000Z</time>
      </trkpt>
      <trkpt lat="46.5043" lon="5.32224">
        <ele>207.80000305176</ele>
        <time>2021-03-12T13:57:41.000Z</time>
      </trkpt>
      <trkpt lat="46.5043" lon="5.32233">
        <ele>208</ele>
        <time>2021-03-12T13:57:42.000Z</time>
      </trkpt>
      <trkpt lat="46.5043" lon="5.32243">
        <ele>208.39999389648</ele>
        <time>2021-03-12T13:57:43.000Z</time>
      </trkpt>
      <trkpt lat="46.50431" lon="5.32261">
        <ele>208.60000610352</ele>
        <time>2021-03-12T13:57:45.000Z</time>
      </trkpt>
      <trkpt lat="46.50432" lon="5.32271">
        <ele>208.80000305176</ele>
        <time>2021-03-12T13:57:46.000Z</time>
      </trkpt>
      <trkpt lat="46.50432" lon="5.3228">
        <ele>209</ele>
        <time>2021-03-12T13:57:47.000Z</time>
      </trkpt>
      <trkpt lat="46.50435" lon="5.32298">
        <ele>209.39999389648</ele>
        <time>2021-03-12T13:57:49.000Z</time>
      </trkpt>
      <trkpt lat="46.50436" lon="5.32308">
        <ele>209.39999389648</ele>
        <time>2021-03-12T13:57:50.000Z</time>
      </trkpt>
      <trkpt lat="46.50438" lon="5.32317">
        <ele>209.60000610352</ele>
        <time>2021-03-12T13:57:51.000Z</time>
      </trkpt>
      <trkpt lat="46.50442" lon="5.32337">
        <ele>209.80000305176</ele>
        <time>2021-03-12T13:57:53.000Z</time>
      </trkpt>
      <trkpt lat="46.50445" lon="5.32348">
        <ele>209.80000305176</ele>
        <time>2021-03-12T13:57:54.000Z</time>
      </trkpt>
      <trkpt lat="46.50447" lon="5.32358">
        <ele>209.80000305176</ele>
        <time>2021-03-12T13:57:55.000Z</time>
      </trkpt>
      <trkpt lat="46.50452" lon="5.3238">
        <ele>209.80000305176</ele>
        <time>2021-03-12T13:57:57.000Z</time>
      </trkpt>
      <trkpt lat="46.50456" lon="5.32401">
        <ele>209.80000305176</ele>
        <time>2021-03-12T13:57:59.000Z</time>
      </trkpt>
      <trkpt lat="46.5046" lon="5.32423">
        <ele>209.80000305176</ele>
        <time>2021-03-12T13:58:01.000Z</time>
      </trkpt>
      <trkpt lat="46.50464" lon="5.32444">
        <ele>209.60000610352</ele>
        <time>2021-03-12T13:58:03.000Z</time>
      </trkpt>
      <trkpt lat="46.50467" lon="5.32465">
        <ele>209.60000610352</ele>
        <time>2021-03-12T13:58:05.000Z</time>
      </trkpt>
      <trkpt lat="46.50469" lon="5.32486">
        <ele>209.39999389648</ele>
        <time>2021-03-12T13:58:07.000Z</time>
      </trkpt>
      <trkpt lat="46.5047" lon="5.32506">
        <ele>209.19999694824</ele>
        <time>2021-03-12T13:58:09.000Z</time>
      </trkpt>
      <trkpt lat="46.50472" lon="5.32526">
        <ele>209.19999694824</ele>
        <time>2021-03-12T13:58:11.000Z</time>
      </trkpt>
      <trkpt lat="46.50473" lon="5.32546">
        <ele>209.19999694824</ele>
        <time>2021-03-12T13:58:13.000Z</time>
      </trkpt>
      <trkpt lat="46.50474" lon="5.32565">
        <ele>209.19999694824</ele>
        <time>2021-03-12T13:58:15.000Z</time>
      </trkpt>
      <trkpt lat="46.50475" lon="5.32584">
        <ele>209.39999389648</ele>
        <time>2021-03-12T13:58:17.000Z</time>
      </trkpt>
      <trkpt lat="46.50475" lon="5.32603">
        <ele>209.60000610352</ele>
        <time>2021-03-12T13:58:19.000Z</time>
      </trkpt>
      <trkpt lat="46.50476" lon="5.32622">
        <ele>209.80000305176</ele>
        <time>2021-03-12T13:58:21.000Z</time>
      </trkpt>
      <trkpt lat="46.50476" lon="5.3264">
        <ele>210.39999389648</ele>
        <time>2021-03-12T13:58:23.000Z</time>
      </trkpt>
      <trkpt lat="46.50476" lon="5.32659">
        <ele>210.80000305176</ele>
        <time>2021-03-12T13:58:25.000Z</time>
      </trkpt>
      <trkpt lat="46.50476" lon="5.32668">
        <ele>210.80000305176</ele>
        <time>2021-03-12T13:58:26.000Z</time>
      </trkpt>
      <trkpt lat="46.50476" lon="5.32677">
        <ele>211</ele>
        <time>2021-03-12T13:58:27.000Z</time>
      </trkpt>
      <trkpt lat="46.50476" lon="5.32696">
        <ele>211</ele>
        <time>2021-03-12T13:58:29.000Z</time>
      </trkpt>
      <trkpt lat="46.50475" lon="5.32714">
        <ele>211</ele>
        <time>2021-03-12T13:58:31.000Z</time>
      </trkpt>
      <trkpt lat="46.50475" lon="5.32731">
        <ele>211.39999389648</ele>
        <time>2021-03-12T13:58:33.000Z</time>
      </trkpt>
      <trkpt lat="46.50475" lon="5.3274">
        <ele>211.39999389648</ele>
        <time>2021-03-12T13:58:34.000Z</time>
      </trkpt>
      <trkpt lat="46.50474" lon="5.3275">
        <ele>211.60000610352</ele>
        <time>2021-03-12T13:58:35.000Z</time>
      </trkpt>
      <trkpt lat="46.50474" lon="5.32768">
        <ele>212</ele>
        <time>2021-03-12T13:58:37.000Z</time>
      </trkpt>
      <trkpt lat="46.50473" lon="5.32787">
        <ele>212.60000610352</ele>
        <time>2021-03-12T13:58:39.000Z</time>
      </trkpt>
      <trkpt lat="46.50473" lon="5.32805">
        <ele>212.80000305176</ele>
        <time>2021-03-12T13:58:41.000Z</time>
      </trkpt>
      <trkpt lat="46.50473" lon="5.32825">
        <ele>212.80000305176</ele>
        <time>2021-03-12T13:58:43.000Z</time>
      </trkpt>
      <trkpt lat="46.50472" lon="5.32844">
        <ele>213</ele>
        <time>2021-03-12T13:58:45.000Z</time>
      </trkpt>
      <trkpt lat="46.50472" lon="5.32862">
        <ele>213</ele>
        <time>2021-03-12T13:58:47.000Z</time>
      </trkpt>
      <trkpt lat="46.50472" lon="5.32871">
        <ele>213.19999694824</ele>
        <time>2021-03-12T13:58:48.000Z</time>
      </trkpt>
      <trkpt lat="46.50472" lon="5.3288">
        <ele>213.19999694824</ele>
        <time>2021-03-12T13:58:49.000Z</time>
      </trkpt>
      <trkpt lat="46.50471" lon="5.32897">
        <ele>213.19999694824</ele>
        <time>2021-03-12T13:58:51.000Z</time>
      </trkpt>
      <trkpt lat="46.50471" lon="5.32905">
        <ele>213.39999389648</ele>
        <time>2021-03-12T13:58:52.000Z</time>
      </trkpt>
      <trkpt lat="46.50471" lon="5.32913">
        <ele>213.39999389648</ele>
        <time>2021-03-12T13:58:53.000Z</time>
      </trkpt>
      <trkpt lat="46.50471" lon="5.32928">
        <ele>213.80000305176</ele>
        <time>2021-03-12T13:58:55.000Z</time>
      </trkpt>
      <trkpt lat="46.5047" lon="5.32943">
        <ele>214.39999389648</ele>
        <time>2021-03-12T13:58:57.000Z</time>
      </trkpt>
      <trkpt lat="46.5047" lon="5.32958">
        <ele>214.80000305176</ele>
        <time>2021-03-12T13:58:59.000Z</time>
      </trkpt>
      <trkpt lat="46.5047" lon="5.32973">
        <ele>215.80000305176</ele>
        <time>2021-03-12T13:59:01.000Z</time>
      </trkpt>
      <trkpt lat="46.5047" lon="5.32987">
        <ele>216.39999389648</ele>
        <time>2021-03-12T13:59:03.000Z</time>
      </trkpt>
      <trkpt lat="46.50469" lon="5.33002">
        <ele>217.19999694824</ele>
        <time>2021-03-12T13:59:05.000Z</time>
      </trkpt>
      <trkpt lat="46.50469" lon="5.33017">
        <ele>217.80000305176</ele>
        <time>2021-03-12T13:59:07.000Z</time>
      </trkpt>
      <trkpt lat="46.50469" lon="5.33032">
        <ele>218.39999389648</ele>
        <time>2021-03-12T13:59:09.000Z</time>
      </trkpt>
      <trkpt lat="46.50469" lon="5.33046">
        <ele>218.80000305176</ele>
        <time>2021-03-12T13:59:11.000Z</time>
      </trkpt>
      <trkpt lat="46.50469" lon="5.33054">
        <ele>219</ele>
        <time>2021-03-12T13:59:12.000Z</time>
      </trkpt>
      <trkpt lat="46.50469" lon="5.33061">
        <ele>219.19999694824</ele>
        <time>2021-03-12T13:59:13.000Z</time>
      </trkpt>
      <trkpt lat="46.50469" lon="5.33068">
        <ele>219.39999389648</ele>
        <time>2021-03-12T13:59:14.000Z</time>
      </trkpt>
      <trkpt lat="46.50469" lon="5.33076">
        <ele>219.60000610352</ele>
        <time>2021-03-12T13:59:15.000Z</time>
      </trkpt>
      <trkpt lat="46.50468" lon="5.33089">
        <ele>220.19999694824</ele>
        <time>2021-03-12T13:59:17.000Z</time>
      </trkpt>
      <trkpt lat="46.50468" lon="5.33096">
        <ele>220.60000610352</ele>
        <time>2021-03-12T13:59:18.000Z</time>
      </trkpt>
      <trkpt lat="46.50467" lon="5.33103">
        <ele>221</ele>
        <time>2021-03-12T13:59:19.000Z</time>
      </trkpt>
      <trkpt lat="46.50467" lon="5.33109">
        <ele>221.19999694824</ele>
        <time>2021-03-12T13:59:20.000Z</time>
      </trkpt>
      <trkpt lat="46.50467" lon="5.33116">
        <ele>221.60000610352</ele>
        <time>2021-03-12T13:59:21.000Z</time>
      </trkpt>
      <trkpt lat="46.50467" lon="5.33123">
        <ele>221.80000305176</ele>
        <time>2021-03-12T13:59:22.000Z</time>
      </trkpt>
      <trkpt lat="46.50466" lon="5.3313">
        <ele>222.19999694824</ele>
        <time>2021-03-12T13:59:23.000Z</time>
      </trkpt>
      <trkpt lat="46.50466" lon="5.33144">
        <ele>222.80000305176</ele>
        <time>2021-03-12T13:59:25.000Z</time>
      </trkpt>
      <trkpt lat="46.50466" lon="5.33151">
        <ele>223</ele>
        <time>2021-03-12T13:59:26.000Z</time>
      </trkpt>
      <trkpt lat="46.50465" lon="5.33158">
        <ele>223.39999389648</ele>
        <time>2021-03-12T13:59:27.000Z</time>
      </trkpt>
      <trkpt lat="46.50465" lon="5.33165">
        <ele>223.60000610352</ele>
        <time>2021-03-12T13:59:28.000Z</time>
      </trkpt>
      <trkpt lat="46.50464" lon="5.33172">
        <ele>223.80000305176</ele>
        <time>2021-03-12T13:59:29.000Z</time>
      </trkpt>
      <trkpt lat="46.50464" lon="5.3318">
        <ele>224.39999389648</ele>
        <time>2021-03-12T13:59:30.000Z</time>
      </trkpt>
      <trkpt lat="46.50464" lon="5.33187">
        <ele>224.80000305176</ele>
        <time>2021-03-12T13:59:31.000Z</time>
      </trkpt>
      <trkpt lat="46.50463" lon="5.33195">
        <ele>225</ele>
        <time>2021-03-12T13:59:32.000Z</time>
      </trkpt>
      <trkpt lat="46.50462" lon="5.3321">
        <ele>225.39999389648</ele>
        <time>2021-03-12T13:59:34.000Z</time>
      </trkpt>
      <trkpt lat="46.5046" lon="5.33217">
        <ele>225.60000610352</ele>
        <time>2021-03-12T13:59:35.000Z</time>
      </trkpt>
      <trkpt lat="46.50459" lon="5.33223">
        <ele>225.80000305176</ele>
        <time>2021-03-12T13:59:36.000Z</time>
      </trkpt>
      <trkpt lat="46.50458" lon="5.33232">
        <ele>226</ele>
        <time>2021-03-12T13:59:37.000Z</time>
      </trkpt>
      <trkpt lat="46.50458" lon="5.3324">
        <ele>226.19999694824</ele>
        <time>2021-03-12T13:59:38.000Z</time>
      </trkpt>
      <trkpt lat="46.50457" lon="5.33249">
        <ele>226.39999389648</ele>
        <time>2021-03-12T13:59:39.000Z</time>
      </trkpt>
      <trkpt lat="46.50457" lon="5.33258">
        <ele>226.60000610352</ele>
        <time>2021-03-12T13:59:40.000Z</time>
      </trkpt>
      <trkpt lat="46.50456" lon="5.33268">
        <ele>226.60000610352</ele>
        <time>2021-03-12T13:59:41.000Z</time>
      </trkpt>
      <trkpt lat="46.50455" lon="5.33286">
        <ele>226.60000610352</ele>
        <time>2021-03-12T13:59:43.000Z</time>
      </trkpt>
      <trkpt lat="46.50454" lon="5.33306">
        <ele>226.60000610352</ele>
        <time>2021-03-12T13:59:45.000Z</time>
      </trkpt>
      <trkpt lat="46.50455" lon="5.33317">
        <ele>226.60000610352</ele>
        <time>2021-03-12T13:59:46.000Z</time>
      </trkpt>
      <trkpt lat="46.50454" lon="5.33327">
        <ele>226.60000610352</ele>
        <time>2021-03-12T13:59:47.000Z</time>
      </trkpt>
      <trkpt lat="46.50454" lon="5.33347">
        <ele>226.60000610352</ele>
        <time>2021-03-12T13:59:49.000Z</time>
      </trkpt>
      <trkpt lat="46.50452" lon="5.33357">
        <ele>226.39999389648</ele>
        <time>2021-03-12T13:59:50.000Z</time>
      </trkpt>
      <trkpt lat="46.5045" lon="5.33367">
        <ele>226.19999694824</ele>
        <time>2021-03-12T13:59:51.000Z</time>
      </trkpt>
      <trkpt lat="46.50448" lon="5.33376">
        <ele>226</ele>
        <time>2021-03-12T13:59:52.000Z</time>
      </trkpt>
      <trkpt lat="46.50445" lon="5.33386">
        <ele>226</ele>
        <time>2021-03-12T13:59:53.000Z</time>
      </trkpt>
      <trkpt lat="46.50439" lon="5.33403">
        <ele>225.60000610352</ele>
        <time>2021-03-12T13:59:55.000Z</time>
      </trkpt>
      <trkpt lat="46.50435" lon="5.33411">
        <ele>225.39999389648</ele>
        <time>2021-03-12T13:59:56.000Z</time>
      </trkpt>
      <trkpt lat="46.50431" lon="5.33419">
        <ele>225.19999694824</ele>
        <time>2021-03-12T13:59:57.000Z</time>
      </trkpt>
      <trkpt lat="46.50427" lon="5.33426">
        <ele>225.19999694824</ele>
        <time>2021-03-12T13:59:58.000Z</time>
      </trkpt>
      <trkpt lat="46.50423" lon="5.33432">
        <ele>225.19999694824</ele>
        <time>2021-03-12T13:59:59.000Z</time>
      </trkpt>
      <trkpt lat="46.50414" lon="5.33444">
        <ele>225.19999694824</ele>
        <time>2021-03-12T14:00:01.000Z</time>
      </trkpt>
      <trkpt lat="46.50405" lon="5.33455">
        <ele>225.19999694824</ele>
        <time>2021-03-12T14:00:03.000Z</time>
      </trkpt>
      <trkpt lat="46.50395" lon="5.33466">
        <ele>225.19999694824</ele>
        <time>2021-03-12T14:00:05.000Z</time>
      </trkpt>
      <trkpt lat="46.50386" lon="5.33476">
        <ele>225.60000610352</ele>
        <time>2021-03-12T14:00:07.000Z</time>
      </trkpt>
      <trkpt lat="46.50377" lon="5.33486">
        <ele>226</ele>
        <time>2021-03-12T14:00:09.000Z</time>
      </trkpt>
      <trkpt lat="46.50368" lon="5.33495">
        <ele>226.39999389648</ele>
        <time>2021-03-12T14:00:11.000Z</time>
      </trkpt>
      <trkpt lat="46.50359" lon="5.33505">
        <ele>226.39999389648</ele>
        <time>2021-03-12T14:00:13.000Z</time>
      </trkpt>
      <trkpt lat="46.50349" lon="5.33515">
        <ele>226.80000305176</ele>
        <time>2021-03-12T14:00:15.000Z</time>
      </trkpt>
      <trkpt lat="46.5034" lon="5.33525">
        <ele>227.19999694824</ele>
        <time>2021-03-12T14:00:17.000Z</time>
      </trkpt>
      <trkpt lat="46.50335" lon="5.3353">
        <ele>227.39999389648</ele>
        <time>2021-03-12T14:00:18.000Z</time>
      </trkpt>
      <trkpt lat="46.5033" lon="5.33535">
        <ele>227.39999389648</ele>
        <time>2021-03-12T14:00:19.000Z</time>
      </trkpt>
      <trkpt lat="46.50321" lon="5.33545">
        <ele>227.60000610352</ele>
        <time>2021-03-12T14:00:21.000Z</time>
      </trkpt>
      <trkpt lat="46.50312" lon="5.33555">
        <ele>227.60000610352</ele>
        <time>2021-03-12T14:00:23.000Z</time>
      </trkpt>
      <trkpt lat="46.50302" lon="5.33565">
        <ele>227.80000305176</ele>
        <time>2021-03-12T14:00:25.000Z</time>
      </trkpt>
      <trkpt lat="46.50292" lon="5.33575">
        <ele>227.80000305176</ele>
        <time>2021-03-12T14:00:27.000Z</time>
      </trkpt>
      <trkpt lat="46.50283" lon="5.33585">
        <ele>227.80000305176</ele>
        <time>2021-03-12T14:00:29.000Z</time>
      </trkpt>
      <trkpt lat="46.50273" lon="5.33595">
        <ele>228</ele>
        <time>2021-03-12T14:00:31.000Z</time>
      </trkpt>
      <trkpt lat="46.50269" lon="5.336">
        <ele>228.19999694824</ele>
        <time>2021-03-12T14:00:32.000Z</time>
      </trkpt>
      <trkpt lat="46.50264" lon="5.33605">
        <ele>228.19999694824</ele>
        <time>2021-03-12T14:00:33.000Z</time>
      </trkpt>
      <trkpt lat="46.50255" lon="5.33615">
        <ele>228.39999389648</ele>
        <time>2021-03-12T14:00:35.000Z</time>
      </trkpt>
      <trkpt lat="46.50245" lon="5.33626">
        <ele>228.39999389648</ele>
        <time>2021-03-12T14:00:37.000Z</time>
      </trkpt>
      <trkpt lat="46.5024" lon="5.33631">
        <ele>228.60000610352</ele>
        <time>2021-03-12T14:00:38.000Z</time>
      </trkpt>
      <trkpt lat="46.50234" lon="5.33636">
        <ele>228.80000305176</ele>
        <time>2021-03-12T14:00:39.000Z</time>
      </trkpt>
      <trkpt lat="46.50224" lon="5.33647">
        <ele>228.80000305176</ele>
        <time>2021-03-12T14:00:41.000Z</time>
      </trkpt>
      <trkpt lat="46.50214" lon="5.33658">
        <ele>229</ele>
        <time>2021-03-12T14:00:43.000Z</time>
      </trkpt>
      <trkpt lat="46.50203" lon="5.33668">
        <ele>229</ele>
        <time>2021-03-12T14:00:45.000Z</time>
      </trkpt>
      <trkpt lat="46.50193" lon="5.33679">
        <ele>229</ele>
        <time>2021-03-12T14:00:47.000Z</time>
      </trkpt>
      <trkpt lat="46.50182" lon="5.3369">
        <ele>229.19999694824</ele>
        <time>2021-03-12T14:00:49.000Z</time>
      </trkpt>
      <trkpt lat="46.50171" lon="5.33703">
        <ele>229.19999694824</ele>
        <time>2021-03-12T14:00:51.000Z</time>
      </trkpt>
      <trkpt lat="46.5016" lon="5.33716">
        <ele>229.19999694824</ele>
        <time>2021-03-12T14:00:53.000Z</time>
      </trkpt>
      <trkpt lat="46.50149" lon="5.33727">
        <ele>229.19999694824</ele>
        <time>2021-03-12T14:00:55.000Z</time>
      </trkpt>
      <trkpt lat="46.50144" lon="5.33733">
        <ele>229.19999694824</ele>
        <time>2021-03-12T14:00:56.000Z</time>
      </trkpt>
      <trkpt lat="46.50138" lon="5.33739">
        <ele>229.19999694824</ele>
        <time>2021-03-12T14:00:57.000Z</time>
      </trkpt>
      <trkpt lat="46.50125" lon="5.33751">
        <ele>229.19999694824</ele>
        <time>2021-03-12T14:00:59.000Z</time>
      </trkpt>
      <trkpt lat="46.50119" lon="5.33757">
        <ele>229.19999694824</ele>
        <time>2021-03-12T14:01:00.000Z</time>
      </trkpt>
      <trkpt lat="46.50113" lon="5.33764">
        <ele>229</ele>
        <time>2021-03-12T14:01:01.000Z</time>
      </trkpt>
      <trkpt lat="46.50101" lon="5.33776">
        <ele>228.80000305176</ele>
        <time>2021-03-12T14:01:03.000Z</time>
      </trkpt>
      <trkpt lat="46.5009" lon="5.33788">
        <ele>228.80000305176</ele>
        <time>2021-03-12T14:01:05.000Z</time>
      </trkpt>
      <trkpt lat="46.50079" lon="5.33801">
        <ele>228.80000305176</ele>
        <time>2021-03-12T14:01:07.000Z</time>
      </trkpt>
      <trkpt lat="46.50068" lon="5.33815">
        <ele>228.80000305176</ele>
        <time>2021-03-12T14:01:09.000Z</time>
      </trkpt>
      <trkpt lat="46.50058" lon="5.33826">
        <ele>228.80000305176</ele>
        <time>2021-03-12T14:01:11.000Z</time>
      </trkpt>
      <trkpt lat="46.50048" lon="5.33837">
        <ele>229</ele>
        <time>2021-03-12T14:01:13.000Z</time>
      </trkpt>
      <trkpt lat="46.50037" lon="5.33848">
        <ele>229</ele>
        <time>2021-03-12T14:01:15.000Z</time>
      </trkpt>
      <trkpt lat="46.50028" lon="5.3386">
        <ele>229.39999389648</ele>
        <time>2021-03-12T14:01:17.000Z</time>
      </trkpt>
      <trkpt lat="46.50018" lon="5.3387">
        <ele>229.80000305176</ele>
        <time>2021-03-12T14:01:19.000Z</time>
      </trkpt>
      <trkpt lat="46.50009" lon="5.33881">
        <ele>230.19999694824</ele>
        <time>2021-03-12T14:01:21.000Z</time>
      </trkpt>
      <trkpt lat="46.50004" lon="5.33886">
        <ele>230.60000610352</ele>
        <time>2021-03-12T14:01:22.000Z</time>
      </trkpt>
      <trkpt lat="46.49999" lon="5.33892">
        <ele>230.80000305176</ele>
        <time>2021-03-12T14:01:23.000Z</time>
      </trkpt>
      <trkpt lat="46.49994" lon="5.33897">
        <ele>231</ele>
        <time>2021-03-12T14:01:24.000Z</time>
      </trkpt>
      <trkpt lat="46.49989" lon="5.33903">
        <ele>231.39999389648</ele>
        <time>2021-03-12T14:01:25.000Z</time>
      </trkpt>
      <trkpt lat="46.49983" lon="5.33908">
        <ele>231.60000610352</ele>
        <time>2021-03-12T14:01:26.000Z</time>
      </trkpt>
      <trkpt lat="46.49979" lon="5.33913">
        <ele>231.60000610352</ele>
        <time>2021-03-12T14:01:27.000Z</time>
      </trkpt>
      <trkpt lat="46.49969" lon="5.33925">
        <ele>231.80000305176</ele>
        <time>2021-03-12T14:01:29.000Z</time>
      </trkpt>
      <trkpt lat="46.49957" lon="5.33937">
        <ele>231.80000305176</ele>
        <time>2021-03-12T14:01:31.000Z</time>
      </trkpt>
      <trkpt lat="46.49945" lon="5.33949">
        <ele>231.80000305176</ele>
        <time>2021-03-12T14:01:33.000Z</time>
      </trkpt>
      <trkpt lat="46.49939" lon="5.33956">
        <ele>231.80000305176</ele>
        <time>2021-03-12T14:01:34.000Z</time>
      </trkpt>
      <trkpt lat="46.49933" lon="5.33962">
        <ele>231.80000305176</ele>
        <time>2021-03-12T14:01:35.000Z</time>
      </trkpt>
      <trkpt lat="46.49919" lon="5.33977">
        <ele>231.80000305176</ele>
        <time>2021-03-12T14:01:37.000Z</time>
      </trkpt>
      <trkpt lat="46.49913" lon="5.33984">
        <ele>231.80000305176</ele>
        <time>2021-03-12T14:01:38.000Z</time>
      </trkpt>
      <trkpt lat="46.49907" lon="5.33991">
        <ele>231.60000610352</ele>
        <time>2021-03-12T14:01:39.000Z</time>
      </trkpt>
      <trkpt lat="46.49894" lon="5.34005">
        <ele>231.39999389648</ele>
        <time>2021-03-12T14:01:41.000Z</time>
      </trkpt>
      <trkpt lat="46.4988" lon="5.34021">
        <ele>230.80000305176</ele>
        <time>2021-03-12T14:01:43.000Z</time>
      </trkpt>
      <trkpt lat="46.49873" lon="5.34028">
        <ele>230.60000610352</ele>
        <time>2021-03-12T14:01:44.000Z</time>
      </trkpt>
      <trkpt lat="46.49867" lon="5.34036">
        <ele>230.39999389648</ele>
        <time>2021-03-12T14:01:45.000Z</time>
      </trkpt>
      <trkpt lat="46.49854" lon="5.34052">
        <ele>229.80000305176</ele>
        <time>2021-03-12T14:01:47.000Z</time>
      </trkpt>
      <trkpt lat="46.49848" lon="5.3406">
        <ele>229.39999389648</ele>
        <time>2021-03-12T14:01:48.000Z</time>
      </trkpt>
      <trkpt lat="46.49843" lon="5.34068">
        <ele>229.19999694824</ele>
        <time>2021-03-12T14:01:49.000Z</time>
      </trkpt>
      <trkpt lat="46.49832" lon="5.34084">
        <ele>228.60000610352</ele>
        <time>2021-03-12T14:01:51.000Z</time>
      </trkpt>
      <trkpt lat="46.49822" lon="5.341">
        <ele>228.39999389648</ele>
        <time>2021-03-12T14:01:53.000Z</time>
      </trkpt>
      <trkpt lat="46.49818" lon="5.34108">
        <ele>228.39999389648</ele>
        <time>2021-03-12T14:01:54.000Z</time>
      </trkpt>
      <trkpt lat="46.49813" lon="5.34116">
        <ele>228.39999389648</ele>
        <time>2021-03-12T14:01:55.000Z</time>
      </trkpt>
      <trkpt lat="46.49803" lon="5.34132">
        <ele>228.39999389648</ele>
        <time>2021-03-12T14:01:57.000Z</time>
      </trkpt>
      <trkpt lat="46.49792" lon="5.3415">
        <ele>228.39999389648</ele>
        <time>2021-03-12T14:01:59.000Z</time>
      </trkpt>
      <trkpt lat="46.49781" lon="5.34167">
        <ele>228.60000610352</ele>
        <time>2021-03-12T14:02:01.000Z</time>
      </trkpt>
      <trkpt lat="46.4977" lon="5.34185">
        <ele>228.80000305176</ele>
        <time>2021-03-12T14:02:03.000Z</time>
      </trkpt>
      <trkpt lat="46.4976" lon="5.342">
        <ele>228.80000305176</ele>
        <time>2021-03-12T14:02:05.000Z</time>
      </trkpt>
      <trkpt lat="46.49751" lon="5.34217">
        <ele>228.80000305176</ele>
        <time>2021-03-12T14:02:07.000Z</time>
      </trkpt>
      <trkpt lat="46.49745" lon="5.34225">
        <ele>228.80000305176</ele>
        <time>2021-03-12T14:02:08.000Z</time>
      </trkpt>
      <trkpt lat="46.4974" lon="5.34233">
        <ele>228.80000305176</ele>
        <time>2021-03-12T14:02:09.000Z</time>
      </trkpt>
      <trkpt lat="46.4973" lon="5.3425">
        <ele>228.80000305176</ele>
        <time>2021-03-12T14:02:11.000Z</time>
      </trkpt>
      <trkpt lat="46.49721" lon="5.34267">
        <ele>228.60000610352</ele>
        <time>2021-03-12T14:02:13.000Z</time>
      </trkpt>
      <trkpt lat="46.49712" lon="5.34285">
        <ele>228.39999389648</ele>
        <time>2021-03-12T14:02:15.000Z</time>
      </trkpt>
      <trkpt lat="46.49704" lon="5.34304">
        <ele>228.39999389648</ele>
        <time>2021-03-12T14:02:17.000Z</time>
      </trkpt>
      <trkpt lat="46.49697" lon="5.34323">
        <ele>228.19999694824</ele>
        <time>2021-03-12T14:02:19.000Z</time>
      </trkpt>
      <trkpt lat="46.49691" lon="5.34344">
        <ele>228.19999694824</ele>
        <time>2021-03-12T14:02:21.000Z</time>
      </trkpt>
      <trkpt lat="46.49685" lon="5.34366">
        <ele>228.19999694824</ele>
        <time>2021-03-12T14:02:23.000Z</time>
      </trkpt>
      <trkpt lat="46.49677" lon="5.34389">
        <ele>228</ele>
        <time>2021-03-12T14:02:25.000Z</time>
      </trkpt>
      <trkpt lat="46.49671" lon="5.34414">
        <ele>228</ele>
        <time>2021-03-12T14:02:27.000Z</time>
      </trkpt>
      <trkpt lat="46.49664" lon="5.34439">
        <ele>228</ele>
        <time>2021-03-12T14:02:29.000Z</time>
      </trkpt>
      <trkpt lat="46.49657" lon="5.34464">
        <ele>227.60000610352</ele>
        <time>2021-03-12T14:02:31.000Z</time>
      </trkpt>
      <trkpt lat="46.4965" lon="5.34489">
        <ele>227.19999694824</ele>
        <time>2021-03-12T14:02:33.000Z</time>
      </trkpt>
      <trkpt lat="46.49644" lon="5.34514">
        <ele>226.60000610352</ele>
        <time>2021-03-12T14:02:35.000Z</time>
      </trkpt>
      <trkpt lat="46.49641" lon="5.34527">
        <ele>226</ele>
        <time>2021-03-12T14:02:36.000Z</time>
      </trkpt>
      <trkpt lat="46.49639" lon="5.3454">
        <ele>225.39999389648</ele>
        <time>2021-03-12T14:02:37.000Z</time>
      </trkpt>
      <trkpt lat="46.49636" lon="5.34553">
        <ele>224.80000305176</ele>
        <time>2021-03-12T14:02:38.000Z</time>
      </trkpt>
      <trkpt lat="46.49634" lon="5.34565">
        <ele>224.60000610352</ele>
        <time>2021-03-12T14:02:39.000Z</time>
      </trkpt>
      <trkpt lat="46.49631" lon="5.34591">
        <ele>224</ele>
        <time>2021-03-12T14:02:41.000Z</time>
      </trkpt>
      <trkpt lat="46.49627" lon="5.34614">
        <ele>223.80000305176</ele>
        <time>2021-03-12T14:02:43.000Z</time>
      </trkpt>
      <trkpt lat="46.49626" lon="5.34625">
        <ele>223.60000610352</ele>
        <time>2021-03-12T14:02:44.000Z</time>
      </trkpt>
      <trkpt lat="46.49625" lon="5.34635">
        <ele>223.60000610352</ele>
        <time>2021-03-12T14:02:45.000Z</time>
      </trkpt>
      <trkpt lat="46.49623" lon="5.34655">
        <ele>223.60000610352</ele>
        <time>2021-03-12T14:02:47.000Z</time>
      </trkpt>
      <trkpt lat="46.49621" lon="5.34674">
        <ele>223.60000610352</ele>
        <time>2021-03-12T14:02:49.000Z</time>
      </trkpt>
      <trkpt lat="46.4962" lon="5.34682">
        <ele>223.60000610352</ele>
        <time>2021-03-12T14:02:50.000Z</time>
      </trkpt>
      <trkpt lat="46.49619" lon="5.34689">
        <ele>223.60000610352</ele>
        <time>2021-03-12T14:02:51.000Z</time>
      </trkpt>
      <trkpt lat="46.49618" lon="5.34697">
        <ele>223.60000610352</ele>
        <time>2021-03-12T14:02:52.000Z</time>
      </trkpt>
      <trkpt lat="46.49618" lon="5.34705">
        <ele>223.60000610352</ele>
        <time>2021-03-12T14:02:53.000Z</time>
      </trkpt>
      <trkpt lat="46.49617" lon="5.3472">
        <ele>224.39999389648</ele>
        <time>2021-03-12T14:02:55.000Z</time>
      </trkpt>
      <trkpt lat="46.49617" lon="5.34727">
        <ele>225</ele>
        <time>2021-03-12T14:02:56.000Z</time>
      </trkpt>
      <trkpt lat="46.49617" lon="5.34734">
        <ele>225.39999389648</ele>
        <time>2021-03-12T14:02:57.000Z</time>
      </trkpt>
      <trkpt lat="46.49617" lon="5.34742">
        <ele>226</ele>
        <time>2021-03-12T14:02:58.000Z</time>
      </trkpt>
      <trkpt lat="46.49617" lon="5.3475">
        <ele>226.60000610352</ele>
        <time>2021-03-12T14:02:59.000Z</time>
      </trkpt>
      <trkpt lat="46.49618" lon="5.34766">
        <ele>227.19999694824</ele>
        <time>2021-03-12T14:03:01.000Z</time>
      </trkpt>
      <trkpt lat="46.4962" lon="5.34775">
        <ele>227.60000610352</ele>
        <time>2021-03-12T14:03:02.000Z</time>
      </trkpt>
      <trkpt lat="46.4962" lon="5.34782">
        <ele>227.80000305176</ele>
        <time>2021-03-12T14:03:03.000Z</time>
      </trkpt>
      <trkpt lat="46.49621" lon="5.34796">
        <ele>228.39999389648</ele>
        <time>2021-03-12T14:03:05.000Z</time>
      </trkpt>
      <trkpt lat="46.49623" lon="5.3481">
        <ele>229.19999694824</ele>
        <time>2021-03-12T14:03:07.000Z</time>
      </trkpt>
      <trkpt lat="46.49624" lon="5.34816">
        <ele>229.39999389648</ele>
        <time>2021-03-12T14:03:08.000Z</time>
      </trkpt>
      <trkpt lat="46.49626" lon="5.34823">
        <ele>229.80000305176</ele>
        <time>2021-03-12T14:03:09.000Z</time>
      </trkpt>
      <trkpt lat="46.49628" lon="5.34838">
        <ele>230</ele>
        <time>2021-03-12T14:03:11.000Z</time>
      </trkpt>
      <trkpt lat="46.49631" lon="5.34855">
        <ele>230.60000610352</ele>
        <time>2021-03-12T14:03:13.000Z</time>
      </trkpt>
      <trkpt lat="46.49633" lon="5.34863">
        <ele>230.80000305176</ele>
        <time>2021-03-12T14:03:14.000Z</time>
      </trkpt>
      <trkpt lat="46.49634" lon="5.34872">
        <ele>231.19999694824</ele>
        <time>2021-03-12T14:03:15.000Z</time>
      </trkpt>
      <trkpt lat="46.49638" lon="5.3489">
        <ele>231.60000610352</ele>
        <time>2021-03-12T14:03:17.000Z</time>
      </trkpt>
      <trkpt lat="46.49641" lon="5.34907">
        <ele>231.80000305176</ele>
        <time>2021-03-12T14:03:19.000Z</time>
      </trkpt>
      <trkpt lat="46.49644" lon="5.34924">
        <ele>232</ele>
        <time>2021-03-12T14:03:21.000Z</time>
      </trkpt>
      <trkpt lat="46.49648" lon="5.34941">
        <ele>232</ele>
        <time>2021-03-12T14:03:23.000Z</time>
      </trkpt>
      <trkpt lat="46.49651" lon="5.34959">
        <ele>232</ele>
        <time>2021-03-12T14:03:25.000Z</time>
      </trkpt>
      <trkpt lat="46.49655" lon="5.34978">
        <ele>232</ele>
        <time>2021-03-12T14:03:27.000Z</time>
      </trkpt>
      <trkpt lat="46.49659" lon="5.34997">
        <ele>232</ele>
        <time>2021-03-12T14:03:29.000Z</time>
      </trkpt>
      <trkpt lat="46.49661" lon="5.35007">
        <ele>232</ele>
        <time>2021-03-12T14:03:30.000Z</time>
      </trkpt>
      <trkpt lat="46.49663" lon="5.35017">
        <ele>232</ele>
        <time>2021-03-12T14:03:31.000Z</time>
      </trkpt>
      <trkpt lat="46.49667" lon="5.35039">
        <ele>231.80000305176</ele>
        <time>2021-03-12T14:03:33.000Z</time>
      </trkpt>
      <trkpt lat="46.49672" lon="5.35061">
        <ele>231.39999389648</ele>
        <time>2021-03-12T14:03:35.000Z</time>
      </trkpt>
      <trkpt lat="46.49676" lon="5.35083">
        <ele>230.80000305176</ele>
        <time>2021-03-12T14:03:37.000Z</time>
      </trkpt>
      <trkpt lat="46.49678" lon="5.35095">
        <ele>230.60000610352</ele>
        <time>2021-03-12T14:03:38.000Z</time>
      </trkpt>
      <trkpt lat="46.49681" lon="5.35106">
        <ele>230.39999389648</ele>
        <time>2021-03-12T14:03:39.000Z</time>
      </trkpt>
      <trkpt lat="46.49685" lon="5.35128">
        <ele>230.19999694824</ele>
        <time>2021-03-12T14:03:41.000Z</time>
      </trkpt>
      <trkpt lat="46.4969" lon="5.35149">
        <ele>229.39999389648</ele>
        <time>2021-03-12T14:03:43.000Z</time>
      </trkpt>
      <trkpt lat="46.49692" lon="5.35159">
        <ele>229.19999694824</ele>
        <time>2021-03-12T14:03:44.000Z</time>
      </trkpt>
      <trkpt lat="46.49694" lon="5.3517">
        <ele>229</ele>
        <time>2021-03-12T14:03:45.000Z</time>
      </trkpt>
      <trkpt lat="46.49696" lon="5.35179">
        <ele>228.80000305176</ele>
        <time>2021-03-12T14:03:46.000Z</time>
      </trkpt>
      <trkpt lat="46.49698" lon="5.35189">
        <ele>228.80000305176</ele>
        <time>2021-03-12T14:03:47.000Z</time>
      </trkpt>
      <trkpt lat="46.49702" lon="5.35208">
        <ele>228.80000305176</ele>
        <time>2021-03-12T14:03:49.000Z</time>
      </trkpt>
      <trkpt lat="46.49706" lon="5.35228">
        <ele>228.80000305176</ele>
        <time>2021-03-12T14:03:51.000Z</time>
      </trkpt>
      <trkpt lat="46.49711" lon="5.35248">
        <ele>228.80000305176</ele>
        <time>2021-03-12T14:03:53.000Z</time>
      </trkpt>
      <trkpt lat="46.49715" lon="5.35268">
        <ele>229</ele>
        <time>2021-03-12T14:03:55.000Z</time>
      </trkpt>
      <trkpt lat="46.4972" lon="5.35289">
        <ele>229.19999694824</ele>
        <time>2021-03-12T14:03:57.000Z</time>
      </trkpt>
      <trkpt lat="46.49723" lon="5.35311">
        <ele>229.19999694824</ele>
        <time>2021-03-12T14:03:59.000Z</time>
      </trkpt>
      <trkpt lat="46.49726" lon="5.35335">
        <ele>229.19999694824</ele>
        <time>2021-03-12T14:04:01.000Z</time>
      </trkpt>
      <trkpt lat="46.49727" lon="5.35347">
        <ele>229.19999694824</ele>
        <time>2021-03-12T14:04:02.000Z</time>
      </trkpt>
      <trkpt lat="46.49727" lon="5.35359">
        <ele>229.19999694824</ele>
        <time>2021-03-12T14:04:03.000Z</time>
      </trkpt>
      <trkpt lat="46.49726" lon="5.3537">
        <ele>229.19999694824</ele>
        <time>2021-03-12T14:04:04.000Z</time>
      </trkpt>
      <trkpt lat="46.49725" lon="5.35391">
        <ele>229.19999694824</ele>
        <time>2021-03-12T14:04:06.000Z</time>
      </trkpt>
      <trkpt lat="46.49723" lon="5.35412">
        <ele>229</ele>
        <time>2021-03-12T14:04:08.000Z</time>
      </trkpt>
      <trkpt lat="46.49722" lon="5.35422">
        <ele>228.80000305176</ele>
        <time>2021-03-12T14:04:09.000Z</time>
      </trkpt>
      <trkpt lat="46.4972" lon="5.35441">
        <ele>228.80000305176</ele>
        <time>2021-03-12T14:04:11.000Z</time>
      </trkpt>
      <trkpt lat="46.49719" lon="5.35461">
        <ele>228.80000305176</ele>
        <time>2021-03-12T14:04:13.000Z</time>
      </trkpt>
      <trkpt lat="46.49718" lon="5.35479">
        <ele>228.80000305176</ele>
        <time>2021-03-12T14:04:15.000Z</time>
      </trkpt>
      <trkpt lat="46.49716" lon="5.35497">
        <ele>228.80000305176</ele>
        <time>2021-03-12T14:04:17.000Z</time>
      </trkpt>
      <trkpt lat="46.49714" lon="5.35515">
        <ele>229.19999694824</ele>
        <time>2021-03-12T14:04:19.000Z</time>
      </trkpt>
      <trkpt lat="46.49712" lon="5.35533">
        <ele>229.39999389648</ele>
        <time>2021-03-12T14:04:21.000Z</time>
      </trkpt>
      <trkpt lat="46.49709" lon="5.35551">
        <ele>229.80000305176</ele>
        <time>2021-03-12T14:04:23.000Z</time>
      </trkpt>
      <trkpt lat="46.49707" lon="5.35569">
        <ele>230</ele>
        <time>2021-03-12T14:04:25.000Z</time>
      </trkpt>
      <trkpt lat="46.49705" lon="5.35578">
        <ele>230.39999389648</ele>
        <time>2021-03-12T14:04:26.000Z</time>
      </trkpt>
      <trkpt lat="46.49705" lon="5.35588">
        <ele>230.60000610352</ele>
        <time>2021-03-12T14:04:27.000Z</time>
      </trkpt>
      <trkpt lat="46.49702" lon="5.35608">
        <ele>230.80000305176</ele>
        <time>2021-03-12T14:04:29.000Z</time>
      </trkpt>
      <trkpt lat="46.497" lon="5.35627">
        <ele>230.80000305176</ele>
        <time>2021-03-12T14:04:31.000Z</time>
      </trkpt>
      <trkpt lat="46.49698" lon="5.35647">
        <ele>231</ele>
        <time>2021-03-12T14:04:33.000Z</time>
      </trkpt>
      <trkpt lat="46.49695" lon="5.35666">
        <ele>231</ele>
        <time>2021-03-12T14:04:35.000Z</time>
      </trkpt>
      <trkpt lat="46.49692" lon="5.35686">
        <ele>231.19999694824</ele>
        <time>2021-03-12T14:04:37.000Z</time>
      </trkpt>
      <trkpt lat="46.49686" lon="5.35705">
        <ele>231.19999694824</ele>
        <time>2021-03-12T14:04:39.000Z</time>
      </trkpt>
      <trkpt lat="46.49679" lon="5.35725">
        <ele>231.19999694824</ele>
        <time>2021-03-12T14:04:41.000Z</time>
      </trkpt>
      <trkpt lat="46.49675" lon="5.35735">
        <ele>231.19999694824</ele>
        <time>2021-03-12T14:04:42.000Z</time>
      </trkpt>
      <trkpt lat="46.49671" lon="5.35745">
        <ele>231.19999694824</ele>
        <time>2021-03-12T14:04:43.000Z</time>
      </trkpt>
      <trkpt lat="46.49662" lon="5.35764">
        <ele>230.80000305176</ele>
        <time>2021-03-12T14:04:45.000Z</time>
      </trkpt>
      <trkpt lat="46.49653" lon="5.35783">
        <ele>229.80000305176</ele>
        <time>2021-03-12T14:04:47.000Z</time>
      </trkpt>
      <trkpt lat="46.49645" lon="5.35803">
        <ele>229.19999694824</ele>
        <time>2021-03-12T14:04:49.000Z</time>
      </trkpt>
      <trkpt lat="46.49641" lon="5.35814">
        <ele>229</ele>
        <time>2021-03-12T14:04:50.000Z</time>
      </trkpt>
      <trkpt lat="46.49638" lon="5.35826">
        <ele>228.80000305176</ele>
        <time>2021-03-12T14:04:51.000Z</time>
      </trkpt>
      <trkpt lat="46.49634" lon="5.35851">
        <ele>228.19999694824</ele>
        <time>2021-03-12T14:04:53.000Z</time>
      </trkpt>
      <trkpt lat="46.49634" lon="5.35864">
        <ele>228.19999694824</ele>
        <time>2021-03-12T14:04:54.000Z</time>
      </trkpt>
      <trkpt lat="46.49634" lon="5.35877">
        <ele>228</ele>
        <time>2021-03-12T14:04:55.000Z</time>
      </trkpt>
      <trkpt lat="46.49635" lon="5.35904">
        <ele>227.60000610352</ele>
        <time>2021-03-12T14:04:57.000Z</time>
      </trkpt>
      <trkpt lat="46.49638" lon="5.35931">
        <ele>227.19999694824</ele>
        <time>2021-03-12T14:04:59.000Z</time>
      </trkpt>
      <trkpt lat="46.4964" lon="5.35957">
        <ele>226.19999694824</ele>
        <time>2021-03-12T14:05:01.000Z</time>
      </trkpt>
      <trkpt lat="46.49641" lon="5.3597">
        <ele>225.60000610352</ele>
        <time>2021-03-12T14:05:02.000Z</time>
      </trkpt>
      <trkpt lat="46.49642" lon="5.35982">
        <ele>225.19999694824</ele>
        <time>2021-03-12T14:05:03.000Z</time>
      </trkpt>
      <trkpt lat="46.49643" lon="5.36007">
        <ele>225</ele>
        <time>2021-03-12T14:05:05.000Z</time>
      </trkpt>
      <trkpt lat="46.49645" lon="5.36031">
        <ele>224.60000610352</ele>
        <time>2021-03-12T14:05:07.000Z</time>
      </trkpt>
      <trkpt lat="46.49646" lon="5.36043">
        <ele>224.60000610352</ele>
        <time>2021-03-12T14:05:08.000Z</time>
      </trkpt>
      <trkpt lat="46.49647" lon="5.36054">
        <ele>224.39999389648</ele>
        <time>2021-03-12T14:05:09.000Z</time>
      </trkpt>
      <trkpt lat="46.4965" lon="5.36077">
        <ele>224.19999694824</ele>
        <time>2021-03-12T14:05:11.000Z</time>
      </trkpt>
      <trkpt lat="46.49656" lon="5.36099">
        <ele>224.19999694824</ele>
        <time>2021-03-12T14:05:13.000Z</time>
      </trkpt>
      <trkpt lat="46.49663" lon="5.36118">
        <ele>224.39999389648</ele>
        <time>2021-03-12T14:05:15.000Z</time>
      </trkpt>
      <trkpt lat="46.49673" lon="5.36136">
        <ele>224.39999389648</ele>
        <time>2021-03-12T14:05:17.000Z</time>
      </trkpt>
      <trkpt lat="46.49683" lon="5.36152">
        <ele>224.60000610352</ele>
        <time>2021-03-12T14:05:19.000Z</time>
      </trkpt>
      <trkpt lat="46.49693" lon="5.36169">
        <ele>224.80000305176</ele>
        <time>2021-03-12T14:05:21.000Z</time>
      </trkpt>
      <trkpt lat="46.49703" lon="5.36185">
        <ele>224.80000305176</ele>
        <time>2021-03-12T14:05:23.000Z</time>
      </trkpt>
      <trkpt lat="46.49713" lon="5.36202">
        <ele>225</ele>
        <time>2021-03-12T14:05:25.000Z</time>
      </trkpt>
      <trkpt lat="46.49722" lon="5.36219">
        <ele>225</ele>
        <time>2021-03-12T14:05:27.000Z</time>
      </trkpt>
      <trkpt lat="46.49731" lon="5.36237">
        <ele>225.19999694824</ele>
        <time>2021-03-12T14:05:29.000Z</time>
      </trkpt>
      <trkpt lat="46.49738" lon="5.36254">
        <ele>225.19999694824</ele>
        <time>2021-03-12T14:05:31.000Z</time>
      </trkpt>
      <trkpt lat="46.49742" lon="5.36263">
        <ele>225.19999694824</ele>
        <time>2021-03-12T14:05:32.000Z</time>
      </trkpt>
      <trkpt lat="46.49745" lon="5.36271">
        <ele>225.19999694824</ele>
        <time>2021-03-12T14:05:33.000Z</time>
      </trkpt>
      <trkpt lat="46.49752" lon="5.36287">
        <ele>225.19999694824</ele>
        <time>2021-03-12T14:05:35.000Z</time>
      </trkpt>
      <trkpt lat="46.49759" lon="5.36302">
        <ele>225.39999389648</ele>
        <time>2021-03-12T14:05:37.000Z</time>
      </trkpt>
      <trkpt lat="46.49765" lon="5.36317">
        <ele>225.60000610352</ele>
        <time>2021-03-12T14:05:39.000Z</time>
      </trkpt>
      <trkpt lat="46.49768" lon="5.36324">
        <ele>225.60000610352</ele>
        <time>2021-03-12T14:05:40.000Z</time>
      </trkpt>
      <trkpt lat="46.49771" lon="5.36331">
        <ele>226</ele>
        <time>2021-03-12T14:05:41.000Z</time>
      </trkpt>
      <trkpt lat="46.49777" lon="5.36345">
        <ele>226.19999694824</ele>
        <time>2021-03-12T14:05:43.000Z</time>
      </trkpt>
      <trkpt lat="46.4978" lon="5.36352">
        <ele>226.80000305176</ele>
        <time>2021-03-12T14:05:44.000Z</time>
      </trkpt>
      <trkpt lat="46.49783" lon="5.36359">
        <ele>227.19999694824</ele>
        <time>2021-03-12T14:05:45.000Z</time>
      </trkpt>
      <trkpt lat="46.49789" lon="5.36372">
        <ele>227.80000305176</ele>
        <time>2021-03-12T14:05:47.000Z</time>
      </trkpt>
      <trkpt lat="46.49795" lon="5.36387">
        <ele>228.19999694824</ele>
        <time>2021-03-12T14:05:49.000Z</time>
      </trkpt>
      <trkpt lat="46.49801" lon="5.36402">
        <ele>229</ele>
        <time>2021-03-12T14:05:51.000Z</time>
      </trkpt>
      <trkpt lat="46.49807" lon="5.36417">
        <ele>229.39999389648</ele>
        <time>2021-03-12T14:05:53.000Z</time>
      </trkpt>
      <trkpt lat="46.49813" lon="5.36431">
        <ele>230</ele>
        <time>2021-03-12T14:05:55.000Z</time>
      </trkpt>
      <trkpt lat="46.4982" lon="5.36445">
        <ele>230.39999389648</ele>
        <time>2021-03-12T14:05:57.000Z</time>
      </trkpt>
      <trkpt lat="46.49823" lon="5.36452">
        <ele>230.60000610352</ele>
        <time>2021-03-12T14:05:58.000Z</time>
      </trkpt>
      <trkpt lat="46.49826" lon="5.36459">
        <ele>230.60000610352</ele>
        <time>2021-03-12T14:05:59.000Z</time>
      </trkpt>
      <trkpt lat="46.49833" lon="5.36472">
        <ele>230.80000305176</ele>
        <time>2021-03-12T14:06:01.000Z</time>
      </trkpt>
      <trkpt lat="46.49841" lon="5.36484">
        <ele>230.80000305176</ele>
        <time>2021-03-12T14:06:03.000Z</time>
      </trkpt>
      <trkpt lat="46.49848" lon="5.36496">
        <ele>231</ele>
        <time>2021-03-12T14:06:05.000Z</time>
      </trkpt>
      <trkpt lat="46.49852" lon="5.36502">
        <ele>231.19999694824</ele>
        <time>2021-03-12T14:06:06.000Z</time>
      </trkpt>
      <trkpt lat="46.49856" lon="5.36508">
        <ele>231.19999694824</ele>
        <time>2021-03-12T14:06:07.000Z</time>
      </trkpt>
      <trkpt lat="46.49864" lon="5.3652">
        <ele>231.60000610352</ele>
        <time>2021-03-12T14:06:09.000Z</time>
      </trkpt>
      <trkpt lat="46.49872" lon="5.36531">
        <ele>231.80000305176</ele>
        <time>2021-03-12T14:06:11.000Z</time>
      </trkpt>
      <trkpt lat="46.49876" lon="5.36537">
        <ele>232.19999694824</ele>
        <time>2021-03-12T14:06:12.000Z</time>
      </trkpt>
      <trkpt lat="46.4988" lon="5.36543">
        <ele>232.19999694824</ele>
        <time>2021-03-12T14:06:13.000Z</time>
      </trkpt>
      <trkpt lat="46.49887" lon="5.36555">
        <ele>232.60000610352</ele>
        <time>2021-03-12T14:06:15.000Z</time>
      </trkpt>
      <trkpt lat="46.49891" lon="5.36561">
        <ele>232.60000610352</ele>
        <time>2021-03-12T14:06:16.000Z</time>
      </trkpt>
      <trkpt lat="46.49895" lon="5.36567">
        <ele>232.60000610352</ele>
        <time>2021-03-12T14:06:17.000Z</time>
      </trkpt>
      <trkpt lat="46.49903" lon="5.36579">
        <ele>232.80000305176</ele>
        <time>2021-03-12T14:06:19.000Z</time>
      </trkpt>
      <trkpt lat="46.4991" lon="5.36592">
        <ele>233.19999694824</ele>
        <time>2021-03-12T14:06:21.000Z</time>
      </trkpt>
      <trkpt lat="46.49913" lon="5.36599">
        <ele>233.39999389648</ele>
        <time>2021-03-12T14:06:22.000Z</time>
      </trkpt>
      <trkpt lat="46.49916" lon="5.36605">
        <ele>233.60000610352</ele>
        <time>2021-03-12T14:06:23.000Z</time>
      </trkpt>
      <trkpt lat="46.49918" lon="5.36613">
        <ele>233.60000610352</ele>
        <time>2021-03-12T14:06:24.000Z</time>
      </trkpt>
      <trkpt lat="46.49921" lon="5.3662">
        <ele>233.80000305176</ele>
        <time>2021-03-12T14:06:25.000Z</time>
      </trkpt>
      <trkpt lat="46.49924" lon="5.36626">
        <ele>233.80000305176</ele>
        <time>2021-03-12T14:06:26.000Z</time>
      </trkpt>
      <trkpt lat="46.49927" lon="5.36632">
        <ele>234</ele>
        <time>2021-03-12T14:06:27.000Z</time>
      </trkpt>
      <trkpt lat="46.49933" lon="5.36646">
        <ele>234.19999694824</ele>
        <time>2021-03-12T14:06:29.000Z</time>
      </trkpt>
      <trkpt lat="46.49935" lon="5.36654">
        <ele>234.19999694824</ele>
        <time>2021-03-12T14:06:30.000Z</time>
      </trkpt>
      <trkpt lat="46.49937" lon="5.36662">
        <ele>234.19999694824</ele>
        <time>2021-03-12T14:06:31.000Z</time>
      </trkpt>
      <trkpt lat="46.4994" lon="5.36679">
        <ele>234.60000610352</ele>
        <time>2021-03-12T14:06:33.000Z</time>
      </trkpt>
      <trkpt lat="46.49942" lon="5.36687">
        <ele>234.60000610352</ele>
        <time>2021-03-12T14:06:34.000Z</time>
      </trkpt>
      <trkpt lat="46.49943" lon="5.36696">
        <ele>234.80000305176</ele>
        <time>2021-03-12T14:06:35.000Z</time>
      </trkpt>
      <trkpt lat="46.49947" lon="5.36713">
        <ele>235</ele>
        <time>2021-03-12T14:06:37.000Z</time>
      </trkpt>
      <trkpt lat="46.4995" lon="5.36729">
        <ele>235.39999389648</ele>
        <time>2021-03-12T14:06:39.000Z</time>
      </trkpt>
      <trkpt lat="46.49951" lon="5.36737">
        <ele>235.39999389648</ele>
        <time>2021-03-12T14:06:40.000Z</time>
      </trkpt>
      <trkpt lat="46.49952" lon="5.36745">
        <ele>235.39999389648</ele>
        <time>2021-03-12T14:06:41.000Z</time>
      </trkpt>
      <trkpt lat="46.49955" lon="5.3676">
        <ele>235.39999389648</ele>
        <time>2021-03-12T14:06:43.000Z</time>
      </trkpt>
      <trkpt lat="46.49958" lon="5.36775">
        <ele>235.60000610352</ele>
        <time>2021-03-12T14:06:45.000Z</time>
      </trkpt>
      <trkpt lat="46.49961" lon="5.36791">
        <ele>235.60000610352</ele>
        <time>2021-03-12T14:06:47.000Z</time>
      </trkpt>
      <trkpt lat="46.49964" lon="5.36805">
        <ele>236.19999694824</ele>
        <time>2021-03-12T14:06:49.000Z</time>
      </trkpt>
      <trkpt lat="46.49967" lon="5.3682">
        <ele>236.39999389648</ele>
        <time>2021-03-12T14:06:51.000Z</time>
      </trkpt>
      <trkpt lat="46.49968" lon="5.36828">
        <ele>236.60000610352</ele>
        <time>2021-03-12T14:06:52.000Z</time>
      </trkpt>
      <trkpt lat="46.4997" lon="5.36835">
        <ele>236.60000610352</ele>
        <time>2021-03-12T14:06:53.000Z</time>
      </trkpt>
      <trkpt lat="46.49973" lon="5.36851">
        <ele>237</ele>
        <time>2021-03-12T14:06:55.000Z</time>
      </trkpt>
      <trkpt lat="46.49975" lon="5.36866">
        <ele>237.19999694824</ele>
        <time>2021-03-12T14:06:57.000Z</time>
      </trkpt>
      <trkpt lat="46.49978" lon="5.3688">
        <ele>237.60000610352</ele>
        <time>2021-03-12T14:06:59.000Z</time>
      </trkpt>
      <trkpt lat="46.49981" lon="5.36895">
        <ele>238</ele>
        <time>2021-03-12T14:07:01.000Z</time>
      </trkpt>
      <trkpt lat="46.49983" lon="5.3691">
        <ele>238.19999694824</ele>
        <time>2021-03-12T14:07:03.000Z</time>
      </trkpt>
      <trkpt lat="46.49986" lon="5.36925">
        <ele>238.60000610352</ele>
        <time>2021-03-12T14:07:05.000Z</time>
      </trkpt>
      <trkpt lat="46.49988" lon="5.36932">
        <ele>238.60000610352</ele>
        <time>2021-03-12T14:07:06.000Z</time>
      </trkpt>
      <trkpt lat="46.49989" lon="5.36939">
        <ele>238.80000305176</ele>
        <time>2021-03-12T14:07:07.000Z</time>
      </trkpt>
      <trkpt lat="46.49993" lon="5.36952">
        <ele>239.19999694824</ele>
        <time>2021-03-12T14:07:09.000Z</time>
      </trkpt>
      <trkpt lat="46.49995" lon="5.36964">
        <ele>239.39999389648</ele>
        <time>2021-03-12T14:07:11.000Z</time>
      </trkpt>
      <trkpt lat="46.49996" lon="5.36968">
        <ele>239.60000610352</ele>
        <time>2021-03-12T14:07:12.000Z</time>
      </trkpt>
      <trkpt lat="46.49998" lon="5.36972">
        <ele>239.60000610352</ele>
        <time>2021-03-12T14:07:13.000Z</time>
      </trkpt>
      <trkpt lat="46.49999" lon="5.36975">
        <ele>239.80000305176</ele>
        <time>2021-03-12T14:07:15.000Z</time>
      </trkpt>
      <trkpt lat="46.49999" lon="5.36976">
        <ele>240</ele>
        <time>2021-03-12T14:07:16.000Z</time>
      </trkpt>
      <trkpt lat="46.49998" lon="5.36979">
        <ele>242</ele>
        <time>2021-03-12T14:08:02.000Z</time>
      </trkpt>
      <trkpt lat="46.49998" lon="5.36981">
        <ele>242</ele>
        <time>2021-03-12T14:08:03.000Z</time>
      </trkpt>
      <trkpt lat="46.49999" lon="5.36988">
        <ele>242</ele>
        <time>2021-03-12T14:08:05.000Z</time>
      </trkpt>
      <trkpt lat="46.5" lon="5.36993">
        <ele>242</ele>
        <time>2021-03-12T14:08:06.000Z</time>
      </trkpt>
      <trkpt lat="46.50001" lon="5.36998">
        <ele>242</ele>
        <time>2021-03-12T14:08:07.000Z</time>
      </trkpt>
      <trkpt lat="46.50004" lon="5.37011">
        <ele>242</ele>
        <time>2021-03-12T14:08:09.000Z</time>
      </trkpt>
      <trkpt lat="46.50006" lon="5.37025">
        <ele>242</ele>
        <time>2021-03-12T14:08:11.000Z</time>
      </trkpt>
      <trkpt lat="46.50009" lon="5.37039">
        <ele>242</ele>
        <time>2021-03-12T14:08:13.000Z</time>
      </trkpt>
      <trkpt lat="46.5001" lon="5.37046">
        <ele>242</ele>
        <time>2021-03-12T14:08:14.000Z</time>
      </trkpt>
      <trkpt lat="46.50011" lon="5.37053">
        <ele>242</ele>
        <time>2021-03-12T14:08:15.000Z</time>
      </trkpt>
      <trkpt lat="46.50014" lon="5.37069">
        <ele>242</ele>
        <time>2021-03-12T14:08:17.000Z</time>
      </trkpt>
      <trkpt lat="46.50016" lon="5.37077">
        <ele>242</ele>
        <time>2021-03-12T14:08:18.000Z</time>
      </trkpt>
      <trkpt lat="46.50017" lon="5.37085">
        <ele>242</ele>
        <time>2021-03-12T14:08:19.000Z</time>
      </trkpt>
      <trkpt lat="46.5002" lon="5.37101">
        <ele>242.19999694824</ele>
        <time>2021-03-12T14:08:21.000Z</time>
      </trkpt>
      <trkpt lat="46.50024" lon="5.37117">
        <ele>242.60000610352</ele>
        <time>2021-03-12T14:08:23.000Z</time>
      </trkpt>
      <trkpt lat="46.50025" lon="5.37125">
        <ele>242.60000610352</ele>
        <time>2021-03-12T14:08:24.000Z</time>
      </trkpt>
      <trkpt lat="46.50027" lon="5.37133">
        <ele>242.80000305176</ele>
        <time>2021-03-12T14:08:25.000Z</time>
      </trkpt>
      <trkpt lat="46.50029" lon="5.37149">
        <ele>242.80000305176</ele>
        <time>2021-03-12T14:08:27.000Z</time>
      </trkpt>
      <trkpt lat="46.50032" lon="5.37164">
        <ele>243</ele>
        <time>2021-03-12T14:08:29.000Z</time>
      </trkpt>
      <trkpt lat="46.50035" lon="5.37179">
        <ele>243.39999389648</ele>
        <time>2021-03-12T14:08:31.000Z</time>
      </trkpt>
      <trkpt lat="46.50036" lon="5.37186">
        <ele>243.60000610352</ele>
        <time>2021-03-12T14:08:32.000Z</time>
      </trkpt>
      <trkpt lat="46.50038" lon="5.37193">
        <ele>243.60000610352</ele>
        <time>2021-03-12T14:08:33.000Z</time>
      </trkpt>
      <trkpt lat="46.50041" lon="5.37209">
        <ele>244.19999694824</ele>
        <time>2021-03-12T14:08:35.000Z</time>
      </trkpt>
      <trkpt lat="46.50044" lon="5.37225">
        <ele>244.80000305176</ele>
        <time>2021-03-12T14:08:37.000Z</time>
      </trkpt>
      <trkpt lat="46.50045" lon="5.37232">
        <ele>244.80000305176</ele>
        <time>2021-03-12T14:08:38.000Z</time>
      </trkpt>
      <trkpt lat="46.50047" lon="5.3724">
        <ele>245</ele>
        <time>2021-03-12T14:08:39.000Z</time>
      </trkpt>
      <trkpt lat="46.5005" lon="5.37255">
        <ele>245.39999389648</ele>
        <time>2021-03-12T14:08:41.000Z</time>
      </trkpt>
      <trkpt lat="46.50052" lon="5.3727">
        <ele>245.80000305176</ele>
        <time>2021-03-12T14:08:43.000Z</time>
      </trkpt>
      <trkpt lat="46.50054" lon="5.37278">
        <ele>246</ele>
        <time>2021-03-12T14:08:44.000Z</time>
      </trkpt>
      <trkpt lat="46.50055" lon="5.37286">
        <ele>246.39999389648</ele>
        <time>2021-03-12T14:08:45.000Z</time>
      </trkpt>
      <trkpt lat="46.50057" lon="5.37293">
        <ele>246.60000610352</ele>
        <time>2021-03-12T14:08:46.000Z</time>
      </trkpt>
      <trkpt lat="46.50058" lon="5.37301">
        <ele>246.80000305176</ele>
        <time>2021-03-12T14:08:47.000Z</time>
      </trkpt>
      <trkpt lat="46.50061" lon="5.37315">
        <ele>247.19999694824</ele>
        <time>2021-03-12T14:08:49.000Z</time>
      </trkpt>
      <trkpt lat="46.50063" lon="5.3733">
        <ele>247.19999694824</ele>
        <time>2021-03-12T14:08:51.000Z</time>
      </trkpt>
      <trkpt lat="46.50066" lon="5.37344">
        <ele>247.39999389648</ele>
        <time>2021-03-12T14:08:53.000Z</time>
      </trkpt>
      <trkpt lat="46.50069" lon="5.37359">
        <ele>247.39999389648</ele>
        <time>2021-03-12T14:08:55.000Z</time>
      </trkpt>
      <trkpt lat="46.50071" lon="5.37374">
        <ele>247.60000610352</ele>
        <time>2021-03-12T14:08:57.000Z</time>
      </trkpt>
      <trkpt lat="46.50074" lon="5.37389">
        <ele>247.80000305176</ele>
        <time>2021-03-12T14:08:59.000Z</time>
      </trkpt>
      <trkpt lat="46.50078" lon="5.37405">
        <ele>248.19999694824</ele>
        <time>2021-03-12T14:09:01.000Z</time>
      </trkpt>
      <trkpt lat="46.50082" lon="5.3742">
        <ele>248.60000610352</ele>
        <time>2021-03-12T14:09:03.000Z</time>
      </trkpt>
      <trkpt lat="46.50085" lon="5.37428">
        <ele>248.80000305176</ele>
        <time>2021-03-12T14:09:04.000Z</time>
      </trkpt>
      <trkpt lat="46.50088" lon="5.37435">
        <ele>249</ele>
        <time>2021-03-12T14:09:05.000Z</time>
      </trkpt>
      <trkpt lat="46.50095" lon="5.3745">
        <ele>249.19999694824</ele>
        <time>2021-03-12T14:09:07.000Z</time>
      </trkpt>
      <trkpt lat="46.50099" lon="5.37457">
        <ele>249.19999694824</ele>
        <time>2021-03-12T14:09:08.000Z</time>
      </trkpt>
      <trkpt lat="46.50103" lon="5.37464">
        <ele>249.39999389648</ele>
        <time>2021-03-12T14:09:09.000Z</time>
      </trkpt>
      <trkpt lat="46.50111" lon="5.37478">
        <ele>249.39999389648</ele>
        <time>2021-03-12T14:09:11.000Z</time>
      </trkpt>
      <trkpt lat="46.50119" lon="5.37493">
        <ele>249.60000610352</ele>
        <time>2021-03-12T14:09:13.000Z</time>
      </trkpt>
      <trkpt lat="46.50127" lon="5.37508">
        <ele>249.60000610352</ele>
        <time>2021-03-12T14:09:15.000Z</time>
      </trkpt>
      <trkpt lat="46.50134" lon="5.37525">
        <ele>249.60000610352</ele>
        <time>2021-03-12T14:09:17.000Z</time>
      </trkpt>
      <trkpt lat="46.50137" lon="5.37534">
        <ele>249.60000610352</ele>
        <time>2021-03-12T14:09:18.000Z</time>
      </trkpt>
      <trkpt lat="46.50139" lon="5.37543">
        <ele>249.60000610352</ele>
        <time>2021-03-12T14:09:19.000Z</time>
      </trkpt>
      <trkpt lat="46.50143" lon="5.37562">
        <ele>249.80000305176</ele>
        <time>2021-03-12T14:09:21.000Z</time>
      </trkpt>
      <trkpt lat="46.50145" lon="5.37581">
        <ele>249.80000305176</ele>
        <time>2021-03-12T14:09:23.000Z</time>
      </trkpt>
      <trkpt lat="46.50146" lon="5.376">
        <ele>249.80000305176</ele>
        <time>2021-03-12T14:09:25.000Z</time>
      </trkpt>
      <trkpt lat="46.50147" lon="5.37619">
        <ele>249.80000305176</ele>
        <time>2021-03-12T14:09:27.000Z</time>
      </trkpt>
      <trkpt lat="46.50148" lon="5.37638">
        <ele>250</ele>
        <time>2021-03-12T14:09:29.000Z</time>
      </trkpt>
      <trkpt lat="46.50148" lon="5.37648">
        <ele>250</ele>
        <time>2021-03-12T14:09:30.000Z</time>
      </trkpt>
      <trkpt lat="46.50149" lon="5.37657">
        <ele>250</ele>
        <time>2021-03-12T14:09:31.000Z</time>
      </trkpt>
      <trkpt lat="46.5015" lon="5.37675">
        <ele>250</ele>
        <time>2021-03-12T14:09:33.000Z</time>
      </trkpt>
      <trkpt lat="46.50152" lon="5.37692">
        <ele>250</ele>
        <time>2021-03-12T14:09:35.000Z</time>
      </trkpt>
      <trkpt lat="46.50154" lon="5.37709">
        <ele>250.19999694824</ele>
        <time>2021-03-12T14:09:37.000Z</time>
      </trkpt>
      <trkpt lat="46.50158" lon="5.37723">
        <ele>250.19999694824</ele>
        <time>2021-03-12T14:09:39.000Z</time>
      </trkpt>
      <trkpt lat="46.50159" lon="5.3773">
        <ele>250.19999694824</ele>
        <time>2021-03-12T14:09:40.000Z</time>
      </trkpt>
      <trkpt lat="46.5016" lon="5.37737">
        <ele>250.39999389648</ele>
        <time>2021-03-12T14:09:41.000Z</time>
      </trkpt>
      <trkpt lat="46.50158" lon="5.37743">
        <ele>250.39999389648</ele>
        <time>2021-03-12T14:09:42.000Z</time>
      </trkpt>
      <trkpt lat="46.50155" lon="5.37746">
        <ele>250.80000305176</ele>
        <time>2021-03-12T14:09:43.000Z</time>
      </trkpt>
      <trkpt lat="46.50148" lon="5.37747">
        <ele>251.19999694824</ele>
        <time>2021-03-12T14:09:45.000Z</time>
      </trkpt>
      <trkpt lat="46.50144" lon="5.37746">
        <ele>251.39999389648</ele>
        <time>2021-03-12T14:09:46.000Z</time>
      </trkpt>
      <trkpt lat="46.5014" lon="5.37745">
        <ele>251.80000305176</ele>
        <time>2021-03-12T14:09:47.000Z</time>
      </trkpt>
      <trkpt lat="46.50131" lon="5.37742">
        <ele>253</ele>
        <time>2021-03-12T14:09:49.000Z</time>
      </trkpt>
      <trkpt lat="46.50126" lon="5.37741">
        <ele>253.39999389648</ele>
        <time>2021-03-12T14:09:50.000Z</time>
      </trkpt>
      <trkpt lat="46.50122" lon="5.37739">
        <ele>254</ele>
        <time>2021-03-12T14:09:51.000Z</time>
      </trkpt>
      <trkpt lat="46.50112" lon="5.37737">
        <ele>254.60000610352</ele>
        <time>2021-03-12T14:09:53.000Z</time>
      </trkpt>
      <trkpt lat="46.50102" lon="5.37734">
        <ele>254.80000305176</ele>
        <time>2021-03-12T14:09:55.000Z</time>
      </trkpt>
      <trkpt lat="46.50092" lon="5.37731">
        <ele>254.80000305176</ele>
        <time>2021-03-12T14:09:57.000Z</time>
      </trkpt>
      <trkpt lat="46.50082" lon="5.37727">
        <ele>255.19999694824</ele>
        <time>2021-03-12T14:09:59.000Z</time>
      </trkpt>
      <trkpt lat="46.50072" lon="5.37722">
        <ele>255.19999694824</ele>
        <time>2021-03-12T14:10:01.000Z</time>
      </trkpt>
      <trkpt lat="46.50063" lon="5.37718">
        <ele>255.80000305176</ele>
        <time>2021-03-12T14:10:03.000Z</time>
      </trkpt>
      <trkpt lat="46.50054" lon="5.37714">
        <ele>255.80000305176</ele>
        <time>2021-03-12T14:10:05.000Z</time>
      </trkpt>
      <trkpt lat="46.50044" lon="5.37709">
        <ele>255.80000305176</ele>
        <time>2021-03-12T14:10:07.000Z</time>
      </trkpt>
      <trkpt lat="46.50033" lon="5.37705">
        <ele>255.80000305176</ele>
        <time>2021-03-12T14:10:09.000Z</time>
      </trkpt>
      <trkpt lat="46.50023" lon="5.377">
        <ele>255.80000305176</ele>
        <time>2021-03-12T14:10:11.000Z</time>
      </trkpt>
      <trkpt lat="46.50017" lon="5.37698">
        <ele>255.80000305176</ele>
        <time>2021-03-12T14:10:12.000Z</time>
      </trkpt>
      <trkpt lat="46.50012" lon="5.37695">
        <ele>255.80000305176</ele>
        <time>2021-03-12T14:10:13.000Z</time>
      </trkpt>
      <trkpt lat="46.50001" lon="5.37691">
        <ele>255.60000610352</ele>
        <time>2021-03-12T14:10:15.000Z</time>
      </trkpt>
      <trkpt lat="46.49989" lon="5.37686">
        <ele>255.60000610352</ele>
        <time>2021-03-12T14:10:17.000Z</time>
      </trkpt>
      <trkpt lat="46.49983" lon="5.37683">
        <ele>255.60000610352</ele>
        <time>2021-03-12T14:10:18.000Z</time>
      </trkpt>
      <trkpt lat="46.49977" lon="5.3768">
        <ele>255.39999389648</ele>
        <time>2021-03-12T14:10:19.000Z</time>
      </trkpt>
      <trkpt lat="46.49966" lon="5.37674">
        <ele>255.39999389648</ele>
        <time>2021-03-12T14:10:21.000Z</time>
      </trkpt>
      <trkpt lat="46.49955" lon="5.37669">
        <ele>255.19999694824</ele>
        <time>2021-03-12T14:10:23.000Z</time>
      </trkpt>
      <trkpt lat="46.49943" lon="5.37664">
        <ele>255</ele>
        <time>2021-03-12T14:10:25.000Z</time>
      </trkpt>
      <trkpt lat="46.49931" lon="5.3766">
        <ele>254.60000610352</ele>
        <time>2021-03-12T14:10:27.000Z</time>
      </trkpt>
      <trkpt lat="46.49919" lon="5.37655">
        <ele>254.39999389648</ele>
        <time>2021-03-12T14:10:29.000Z</time>
      </trkpt>
      <trkpt lat="46.49907" lon="5.3765">
        <ele>254.39999389648</ele>
        <time>2021-03-12T14:10:31.000Z</time>
      </trkpt>
      <trkpt lat="46.49895" lon="5.37647">
        <ele>254.19999694824</ele>
        <time>2021-03-12T14:10:33.000Z</time>
      </trkpt>
      <trkpt lat="46.49882" lon="5.37643">
        <ele>254.19999694824</ele>
        <time>2021-03-12T14:10:35.000Z</time>
      </trkpt>
      <trkpt lat="46.49869" lon="5.37638">
        <ele>254.19999694824</ele>
        <time>2021-03-12T14:10:37.000Z</time>
      </trkpt>
      <trkpt lat="46.49863" lon="5.37636">
        <ele>254.19999694824</ele>
        <time>2021-03-12T14:10:38.000Z</time>
      </trkpt>
      <trkpt lat="46.49856" lon="5.37633">
        <ele>254.19999694824</ele>
        <time>2021-03-12T14:10:39.000Z</time>
      </trkpt>
      <trkpt lat="46.49844" lon="5.37627">
        <ele>254</ele>
        <time>2021-03-12T14:10:41.000Z</time>
      </trkpt>
      <trkpt lat="46.49837" lon="5.37624">
        <ele>254</ele>
        <time>2021-03-12T14:10:42.000Z</time>
      </trkpt>
      <trkpt lat="46.49831" lon="5.37621">
        <ele>254</ele>
        <time>2021-03-12T14:10:43.000Z</time>
      </trkpt>
      <trkpt lat="46.49819" lon="5.37615">
        <ele>253.60000610352</ele>
        <time>2021-03-12T14:10:45.000Z</time>
      </trkpt>
      <trkpt lat="46.49807" lon="5.37608">
        <ele>253.60000610352</ele>
        <time>2021-03-12T14:10:47.000Z</time>
      </trkpt>
      <trkpt lat="46.49796" lon="5.37601">
        <ele>253.19999694824</ele>
        <time>2021-03-12T14:10:49.000Z</time>
      </trkpt>
      <trkpt lat="46.4979" lon="5.37597">
        <ele>253.19999694824</ele>
        <time>2021-03-12T14:10:50.000Z</time>
      </trkpt>
      <trkpt lat="46.49784" lon="5.37594">
        <ele>253.19999694824</ele>
        <time>2021-03-12T14:10:51.000Z</time>
      </trkpt>
      <trkpt lat="46.49773" lon="5.37586">
        <ele>253.19999694824</ele>
        <time>2021-03-12T14:10:53.000Z</time>
      </trkpt>
      <trkpt lat="46.49761" lon="5.37579">
        <ele>253</ele>
        <time>2021-03-12T14:10:55.000Z</time>
      </trkpt>
      <trkpt lat="46.4975" lon="5.37571">
        <ele>253</ele>
        <time>2021-03-12T14:10:57.000Z</time>
      </trkpt>
      <trkpt lat="46.49738" lon="5.37564">
        <ele>252.80000305176</ele>
        <time>2021-03-12T14:10:59.000Z</time>
      </trkpt>
      <trkpt lat="46.49733" lon="5.3756">
        <ele>252.60000610352</ele>
        <time>2021-03-12T14:11:00.000Z</time>
      </trkpt>
      <trkpt lat="46.49727" lon="5.37556">
        <ele>252.39999389648</ele>
        <time>2021-03-12T14:11:01.000Z</time>
      </trkpt>
      <trkpt lat="46.49715" lon="5.37549">
        <ele>252.19999694824</ele>
        <time>2021-03-12T14:11:03.000Z</time>
      </trkpt>
      <trkpt lat="46.49704" lon="5.37543">
        <ele>252.19999694824</ele>
        <time>2021-03-12T14:11:05.000Z</time>
      </trkpt>
      <trkpt lat="46.49691" lon="5.37537">
        <ele>252.19999694824</ele>
        <time>2021-03-12T14:11:07.000Z</time>
      </trkpt>
      <trkpt lat="46.49685" lon="5.37535">
        <ele>252.19999694824</ele>
        <time>2021-03-12T14:11:08.000Z</time>
      </trkpt>
      <trkpt lat="46.49679" lon="5.37532">
        <ele>252.19999694824</ele>
        <time>2021-03-12T14:11:09.000Z</time>
      </trkpt>
      <trkpt lat="46.49667" lon="5.37526">
        <ele>252.19999694824</ele>
        <time>2021-03-12T14:11:11.000Z</time>
      </trkpt>
      <trkpt lat="46.49656" lon="5.37521">
        <ele>252.19999694824</ele>
        <time>2021-03-12T14:11:13.000Z</time>
      </trkpt>
      <trkpt lat="46.49645" lon="5.37516">
        <ele>252.19999694824</ele>
        <time>2021-03-12T14:11:15.000Z</time>
      </trkpt>
      <trkpt lat="46.4964" lon="5.37514">
        <ele>252.19999694824</ele>
        <time>2021-03-12T14:11:16.000Z</time>
      </trkpt>
      <trkpt lat="46.49635" lon="5.3751">
        <ele>252.19999694824</ele>
        <time>2021-03-12T14:11:17.000Z</time>
      </trkpt>
      <trkpt lat="46.49627" lon="5.37503">
        <ele>252.39999389648</ele>
        <time>2021-03-12T14:11:19.000Z</time>
      </trkpt>
      <trkpt lat="46.49623" lon="5.37502">
        <ele>252.39999389648</ele>
        <time>2021-03-12T14:11:20.000Z</time>
      </trkpt>
      <trkpt lat="46.49619" lon="5.37501">
        <ele>252.39999389648</ele>
        <time>2021-03-12T14:11:21.000Z</time>
      </trkpt>
      <trkpt lat="46.4961" lon="5.37505">
        <ele>252.39999389648</ele>
        <time>2021-03-12T14:11:23.000Z</time>
      </trkpt>
      <trkpt lat="46.49605" lon="5.37508">
        <ele>252.39999389648</ele>
        <time>2021-03-12T14:11:24.000Z</time>
      </trkpt>
      <trkpt lat="46.49601" lon="5.37512">
        <ele>252.39999389648</ele>
        <time>2021-03-12T14:11:25.000Z</time>
      </trkpt>
      <trkpt lat="46.49592" lon="5.37521">
        <ele>252.60000610352</ele>
        <time>2021-03-12T14:11:27.000Z</time>
      </trkpt>
      <trkpt lat="46.49584" lon="5.37528">
        <ele>252.60000610352</ele>
        <time>2021-03-12T14:11:29.000Z</time>
      </trkpt>
      <trkpt lat="46.49575" lon="5.37535">
        <ele>253.19999694824</ele>
        <time>2021-03-12T14:11:31.000Z</time>
      </trkpt>
      <trkpt lat="46.49571" lon="5.37539">
        <ele>253.60000610352</ele>
        <time>2021-03-12T14:11:32.000Z</time>
      </trkpt>
      <trkpt lat="46.49567" lon="5.37542">
        <ele>254</ele>
        <time>2021-03-12T14:11:33.000Z</time>
      </trkpt>
      <trkpt lat="46.49558" lon="5.37549">
        <ele>254.60000610352</ele>
        <time>2021-03-12T14:11:35.000Z</time>
      </trkpt>
      <trkpt lat="46.49554" lon="5.37552">
        <ele>254.80000305176</ele>
        <time>2021-03-12T14:11:36.000Z</time>
      </trkpt>
      <trkpt lat="46.4955" lon="5.37556">
        <ele>255.19999694824</ele>
        <time>2021-03-12T14:11:37.000Z</time>
      </trkpt>
      <trkpt lat="46.49542" lon="5.37563">
        <ele>255.39999389648</ele>
        <time>2021-03-12T14:11:39.000Z</time>
      </trkpt>
      <trkpt lat="46.49533" lon="5.3757">
        <ele>256</ele>
        <time>2021-03-12T14:11:41.000Z</time>
      </trkpt>
      <trkpt lat="46.49525" lon="5.37578">
        <ele>256.39999389648</ele>
        <time>2021-03-12T14:11:43.000Z</time>
      </trkpt>
      <trkpt lat="46.49516" lon="5.37585">
        <ele>257</ele>
        <time>2021-03-12T14:11:45.000Z</time>
      </trkpt>
      <trkpt lat="46.49512" lon="5.37589">
        <ele>257.20001220703</ele>
        <time>2021-03-12T14:11:46.000Z</time>
      </trkpt>
      <trkpt lat="46.49507" lon="5.37593">
        <ele>257.20001220703</ele>
        <time>2021-03-12T14:11:47.000Z</time>
      </trkpt>
      <trkpt lat="46.49498" lon="5.376">
        <ele>257.39999389648</ele>
        <time>2021-03-12T14:11:49.000Z</time>
      </trkpt>
      <trkpt lat="46.4949" lon="5.37608">
        <ele>257.60000610352</ele>
        <time>2021-03-12T14:11:51.000Z</time>
      </trkpt>
      <trkpt lat="46.49482" lon="5.37614">
        <ele>257.79998779297</ele>
        <time>2021-03-12T14:11:53.000Z</time>
      </trkpt>
      <trkpt lat="46.49475" lon="5.37621">
        <ele>257.79998779297</ele>
        <time>2021-03-12T14:11:55.000Z</time>
      </trkpt>
      <trkpt lat="46.49467" lon="5.37627">
        <ele>258.20001220703</ele>
        <time>2021-03-12T14:11:57.000Z</time>
      </trkpt>
      <trkpt lat="46.4946" lon="5.37633">
        <ele>258.79998779297</ele>
        <time>2021-03-12T14:11:59.000Z</time>
      </trkpt>
      <trkpt lat="46.49453" lon="5.37639">
        <ele>259.20001220703</ele>
        <time>2021-03-12T14:12:01.000Z</time>
      </trkpt>
      <trkpt lat="46.49446" lon="5.37645">
        <ele>259.79998779297</ele>
        <time>2021-03-12T14:12:03.000Z</time>
      </trkpt>
      <trkpt lat="46.49442" lon="5.37648">
        <ele>260.20001220703</ele>
        <time>2021-03-12T14:12:04.000Z</time>
      </trkpt>
      <trkpt lat="46.49439" lon="5.37652">
        <ele>260.20001220703</ele>
        <time>2021-03-12T14:12:05.000Z</time>
      </trkpt>
      <trkpt lat="46.49433" lon="5.37658">
        <ele>260.60000610352</ele>
        <time>2021-03-12T14:12:07.000Z</time>
      </trkpt>
      <trkpt lat="46.49426" lon="5.37664">
        <ele>260.79998779297</ele>
        <time>2021-03-12T14:12:09.000Z</time>
      </trkpt>
      <trkpt lat="46.4942" lon="5.37671">
        <ele>261.20001220703</ele>
        <time>2021-03-12T14:12:11.000Z</time>
      </trkpt>
      <trkpt lat="46.49417" lon="5.37675">
        <ele>261.39999389648</ele>
        <time>2021-03-12T14:12:12.000Z</time>
      </trkpt>
      <trkpt lat="46.49415" lon="5.37679">
        <ele>261.79998779297</ele>
        <time>2021-03-12T14:12:13.000Z</time>
      </trkpt>
      <trkpt lat="46.4941" lon="5.37687">
        <ele>262.39999389648</ele>
        <time>2021-03-12T14:12:15.000Z</time>
      </trkpt>
      <trkpt lat="46.49407" lon="5.37692">
        <ele>262.60000610352</ele>
        <time>2021-03-12T14:12:16.000Z</time>
      </trkpt>
      <trkpt lat="46.49405" lon="5.37696">
        <ele>263</ele>
        <time>2021-03-12T14:12:17.000Z</time>
      </trkpt>
      <trkpt lat="46.494" lon="5.37706">
        <ele>263.39999389648</ele>
        <time>2021-03-12T14:12:19.000Z</time>
      </trkpt>
      <trkpt lat="46.49398" lon="5.37711">
        <ele>263.60000610352</ele>
        <time>2021-03-12T14:12:20.000Z</time>
      </trkpt>
      <trkpt lat="46.49396" lon="5.37716">
        <ele>264</ele>
        <time>2021-03-12T14:12:21.000Z</time>
      </trkpt>
      <trkpt lat="46.49392" lon="5.37726">
        <ele>264.20001220703</ele>
        <time>2021-03-12T14:12:23.000Z</time>
      </trkpt>
      <trkpt lat="46.49388" lon="5.37737">
        <ele>264.79998779297</ele>
        <time>2021-03-12T14:12:25.000Z</time>
      </trkpt>
      <trkpt lat="46.49385" lon="5.37748">
        <ele>265.20001220703</ele>
        <time>2021-03-12T14:12:27.000Z</time>
      </trkpt>
      <trkpt lat="46.49382" lon="5.37758">
        <ele>265.79998779297</ele>
        <time>2021-03-12T14:12:29.000Z</time>
      </trkpt>
      <trkpt lat="46.4938" lon="5.37763">
        <ele>266.20001220703</ele>
        <time>2021-03-12T14:12:30.000Z</time>
      </trkpt>
      <trkpt lat="46.49378" lon="5.37769">
        <ele>266.39999389648</ele>
        <time>2021-03-12T14:12:31.000Z</time>
      </trkpt>
      <trkpt lat="46.49374" lon="5.3778">
        <ele>267</ele>
        <time>2021-03-12T14:12:33.000Z</time>
      </trkpt>
      <trkpt lat="46.49373" lon="5.37786">
        <ele>267.20001220703</ele>
        <time>2021-03-12T14:12:34.000Z</time>
      </trkpt>
      <trkpt lat="46.49371" lon="5.37792">
        <ele>267.39999389648</ele>
        <time>2021-03-12T14:12:35.000Z</time>
      </trkpt>
      <trkpt lat="46.49367" lon="5.37804">
        <ele>267.60000610352</ele>
        <time>2021-03-12T14:12:37.000Z</time>
      </trkpt>
      <trkpt lat="46.49362" lon="5.37816">
        <ele>268</ele>
        <time>2021-03-12T14:12:39.000Z</time>
      </trkpt>
      <trkpt lat="46.4936" lon="5.37822">
        <ele>268</ele>
        <time>2021-03-12T14:12:40.000Z</time>
      </trkpt>
      <trkpt lat="46.49357" lon="5.37828">
        <ele>268.20001220703</ele>
        <time>2021-03-12T14:12:41.000Z</time>
      </trkpt>
      <trkpt lat="46.49354" lon="5.37835">
        <ele>268.20001220703</ele>
        <time>2021-03-12T14:12:42.000Z</time>
      </trkpt>
      <trkpt lat="46.49352" lon="5.37842">
        <ele>268.20001220703</ele>
        <time>2021-03-12T14:12:43.000Z</time>
      </trkpt>
      <trkpt lat="46.49348" lon="5.37856">
        <ele>268.20001220703</ele>
        <time>2021-03-12T14:12:45.000Z</time>
      </trkpt>
      <trkpt lat="46.49345" lon="5.37863">
        <ele>268.20001220703</ele>
        <time>2021-03-12T14:12:46.000Z</time>
      </trkpt>
      <trkpt lat="46.49343" lon="5.3787">
        <ele>268.20001220703</ele>
        <time>2021-03-12T14:12:47.000Z</time>
      </trkpt>
      <trkpt lat="46.49341" lon="5.37878">
        <ele>268.20001220703</ele>
        <time>2021-03-12T14:12:48.000Z</time>
      </trkpt>
      <trkpt lat="46.4934" lon="5.37885">
        <ele>268.20001220703</ele>
        <time>2021-03-12T14:12:49.000Z</time>
      </trkpt>
      <trkpt lat="46.49336" lon="5.37902">
        <ele>268.20001220703</ele>
        <time>2021-03-12T14:12:51.000Z</time>
      </trkpt>
      <trkpt lat="46.49334" lon="5.37911">
        <ele>268.20001220703</ele>
        <time>2021-03-12T14:12:52.000Z</time>
      </trkpt>
      <trkpt lat="46.49333" lon="5.3792">
        <ele>268.20001220703</ele>
        <time>2021-03-12T14:12:53.000Z</time>
      </trkpt>
      <trkpt lat="46.49329" lon="5.3794">
        <ele>267.79998779297</ele>
        <time>2021-03-12T14:12:55.000Z</time>
      </trkpt>
      <trkpt lat="46.49326" lon="5.3796">
        <ele>267.39999389648</ele>
        <time>2021-03-12T14:12:57.000Z</time>
      </trkpt>
      <trkpt lat="46.49322" lon="5.3798">
        <ele>267.20001220703</ele>
        <time>2021-03-12T14:12:59.000Z</time>
      </trkpt>
      <trkpt lat="46.4932" lon="5.3799">
        <ele>266.79998779297</ele>
        <time>2021-03-12T14:13:00.000Z</time>
      </trkpt>
      <trkpt lat="46.49318" lon="5.37999">
        <ele>266.39999389648</ele>
        <time>2021-03-12T14:13:01.000Z</time>
      </trkpt>
      <trkpt lat="46.49314" lon="5.38018">
        <ele>266.20001220703</ele>
        <time>2021-03-12T14:13:03.000Z</time>
      </trkpt>
      <trkpt lat="46.4931" lon="5.38036">
        <ele>266</ele>
        <time>2021-03-12T14:13:05.000Z</time>
      </trkpt>
      <trkpt lat="46.49307" lon="5.38053">
        <ele>266</ele>
        <time>2021-03-12T14:13:07.000Z</time>
      </trkpt>
      <trkpt lat="46.49304" lon="5.3807">
        <ele>266</ele>
        <time>2021-03-12T14:13:09.000Z</time>
      </trkpt>
      <trkpt lat="46.49301" lon="5.38087">
        <ele>266</ele>
        <time>2021-03-12T14:13:11.000Z</time>
      </trkpt>
      <trkpt lat="46.49298" lon="5.38104">
        <ele>266.20001220703</ele>
        <time>2021-03-12T14:13:13.000Z</time>
      </trkpt>
      <trkpt lat="46.49295" lon="5.38121">
        <ele>266.39999389648</ele>
        <time>2021-03-12T14:13:15.000Z</time>
      </trkpt>
      <trkpt lat="46.49294" lon="5.38129">
        <ele>266.79998779297</ele>
        <time>2021-03-12T14:13:16.000Z</time>
      </trkpt>
      <trkpt lat="46.49292" lon="5.38137">
        <ele>267</ele>
        <time>2021-03-12T14:13:17.000Z</time>
      </trkpt>
      <trkpt lat="46.4929" lon="5.38145">
        <ele>267.20001220703</ele>
        <time>2021-03-12T14:13:18.000Z</time>
      </trkpt>
      <trkpt lat="46.49289" lon="5.38153">
        <ele>267.39999389648</ele>
        <time>2021-03-12T14:13:19.000Z</time>
      </trkpt>
      <trkpt lat="46.49285" lon="5.38168">
        <ele>267.79998779297</ele>
        <time>2021-03-12T14:13:21.000Z</time>
      </trkpt>
      <trkpt lat="46.49282" lon="5.38184">
        <ele>268</ele>
        <time>2021-03-12T14:13:23.000Z</time>
      </trkpt>
      <trkpt lat="46.49279" lon="5.38199">
        <ele>268.20001220703</ele>
        <time>2021-03-12T14:13:25.000Z</time>
      </trkpt>
      <trkpt lat="46.49278" lon="5.38206">
        <ele>268.39999389648</ele>
        <time>2021-03-12T14:13:26.000Z</time>
      </trkpt>
      <trkpt lat="46.49277" lon="5.38214">
        <ele>268.39999389648</ele>
        <time>2021-03-12T14:13:27.000Z</time>
      </trkpt>
      <trkpt lat="46.49274" lon="5.38229">
        <ele>268.39999389648</ele>
        <time>2021-03-12T14:13:29.000Z</time>
      </trkpt>
      <trkpt lat="46.49272" lon="5.38237">
        <ele>268.60000610352</ele>
        <time>2021-03-12T14:13:30.000Z</time>
      </trkpt>
      <trkpt lat="46.49271" lon="5.38244">
        <ele>268.60000610352</ele>
        <time>2021-03-12T14:13:31.000Z</time>
      </trkpt>
      <trkpt lat="46.49268" lon="5.38259">
        <ele>268.79998779297</ele>
        <time>2021-03-12T14:13:33.000Z</time>
      </trkpt>
      <trkpt lat="46.49266" lon="5.38274">
        <ele>269.39999389648</ele>
        <time>2021-03-12T14:13:35.000Z</time>
      </trkpt>
      <trkpt lat="46.49263" lon="5.38289">
        <ele>269.79998779297</ele>
        <time>2021-03-12T14:13:37.000Z</time>
      </trkpt>
      <trkpt lat="46.49261" lon="5.38296">
        <ele>269.79998779297</ele>
        <time>2021-03-12T14:13:38.000Z</time>
      </trkpt>
      <trkpt lat="46.4926" lon="5.38304">
        <ele>270</ele>
        <time>2021-03-12T14:13:39.000Z</time>
      </trkpt>
      <trkpt lat="46.49256" lon="5.38318">
        <ele>270</ele>
        <time>2021-03-12T14:13:41.000Z</time>
      </trkpt>
      <trkpt lat="46.49251" lon="5.38332">
        <ele>270.20001220703</ele>
        <time>2021-03-12T14:13:43.000Z</time>
      </trkpt>
      <trkpt lat="46.49248" lon="5.38337">
        <ele>270.39999389648</ele>
        <time>2021-03-12T14:13:44.000Z</time>
      </trkpt>
      <trkpt lat="46.49246" lon="5.38342">
        <ele>270.39999389648</ele>
        <time>2021-03-12T14:13:45.000Z</time>
      </trkpt>
      <trkpt lat="46.49245" lon="5.38355">
        <ele>270.79998779297</ele>
        <time>2021-03-12T14:13:47.000Z</time>
      </trkpt>
      <trkpt lat="46.49245" lon="5.38369">
        <ele>271.60000610352</ele>
        <time>2021-03-12T14:13:49.000Z</time>
      </trkpt>
      <trkpt lat="46.49245" lon="5.38376">
        <ele>271.79998779297</ele>
        <time>2021-03-12T14:13:50.000Z</time>
      </trkpt>
      <trkpt lat="46.49244" lon="5.38383">
        <ele>272</ele>
        <time>2021-03-12T14:13:51.000Z</time>
      </trkpt>
      <trkpt lat="46.49241" lon="5.38396">
        <ele>272.20001220703</ele>
        <time>2021-03-12T14:13:53.000Z</time>
      </trkpt>
      <trkpt lat="46.49238" lon="5.38408">
        <ele>273.20001220703</ele>
        <time>2021-03-12T14:13:55.000Z</time>
      </trkpt>
      <trkpt lat="46.49236" lon="5.38414">
        <ele>273.60000610352</ele>
        <time>2021-03-12T14:13:56.000Z</time>
      </trkpt>
      <trkpt lat="46.49235" lon="5.3842">
        <ele>273.60000610352</ele>
        <time>2021-03-12T14:13:57.000Z</time>
      </trkpt>
      <trkpt lat="46.49233" lon="5.38432">
        <ele>273.79998779297</ele>
        <time>2021-03-12T14:13:59.000Z</time>
      </trkpt>
      <trkpt lat="46.49231" lon="5.38439">
        <ele>274</ele>
        <time>2021-03-12T14:14:00.000Z</time>
      </trkpt>
      <trkpt lat="46.4923" lon="5.38445">
        <ele>274.20001220703</ele>
        <time>2021-03-12T14:14:01.000Z</time>
      </trkpt>
      <trkpt lat="46.49227" lon="5.38456">
        <ele>274.39999389648</ele>
        <time>2021-03-12T14:14:03.000Z</time>
      </trkpt>
      <trkpt lat="46.49225" lon="5.38466">
        <ele>274.79998779297</ele>
        <time>2021-03-12T14:14:05.000Z</time>
      </trkpt>
      <trkpt lat="46.49223" lon="5.38472">
        <ele>275</ele>
        <time>2021-03-12T14:14:06.000Z</time>
      </trkpt>
      <trkpt lat="46.49222" lon="5.38478">
        <ele>275.20001220703</ele>
        <time>2021-03-12T14:14:07.000Z</time>
      </trkpt>
      <trkpt lat="46.4922" lon="5.3849">
        <ele>275.39999389648</ele>
        <time>2021-03-12T14:14:09.000Z</time>
      </trkpt>
      <trkpt lat="46.49219" lon="5.38496">
        <ele>275.39999389648</ele>
        <time>2021-03-12T14:14:10.000Z</time>
      </trkpt>
      <trkpt lat="46.49218" lon="5.38502">
        <ele>275.60000610352</ele>
        <time>2021-03-12T14:14:11.000Z</time>
      </trkpt>
      <trkpt lat="46.49216" lon="5.38515">
        <ele>276.39999389648</ele>
        <time>2021-03-12T14:14:13.000Z</time>
      </trkpt>
      <trkpt lat="46.49213" lon="5.3853">
        <ele>276.79998779297</ele>
        <time>2021-03-12T14:14:15.000Z</time>
      </trkpt>
      <trkpt lat="46.4921" lon="5.38543">
        <ele>277</ele>
        <time>2021-03-12T14:14:17.000Z</time>
      </trkpt>
      <trkpt lat="46.49208" lon="5.38556">
        <ele>277.20001220703</ele>
        <time>2021-03-12T14:14:19.000Z</time>
      </trkpt>
      <trkpt lat="46.49207" lon="5.38563">
        <ele>277.39999389648</ele>
        <time>2021-03-12T14:14:20.000Z</time>
      </trkpt>
      <trkpt lat="46.49206" lon="5.38569">
        <ele>277.60000610352</ele>
        <time>2021-03-12T14:14:21.000Z</time>
      </trkpt>
      <trkpt lat="46.49204" lon="5.38576">
        <ele>278</ele>
        <time>2021-03-12T14:14:22.000Z</time>
      </trkpt>
      <trkpt lat="46.49202" lon="5.38582">
        <ele>278.20001220703</ele>
        <time>2021-03-12T14:14:23.000Z</time>
      </trkpt>
      <trkpt lat="46.49196" lon="5.38589">
        <ele>278.60000610352</ele>
        <time>2021-03-12T14:14:25.000Z</time>
      </trkpt>
      <trkpt lat="46.49192" lon="5.38589">
        <ele>278.79998779297</ele>
        <time>2021-03-12T14:14:26.000Z</time>
      </trkpt>
      <trkpt lat="46.49189" lon="5.38585">
        <ele>279</ele>
        <time>2021-03-12T14:14:27.000Z</time>
      </trkpt>
      <trkpt lat="46.49187" lon="5.38579">
        <ele>279.20001220703</ele>
        <time>2021-03-12T14:14:28.000Z</time>
      </trkpt>
      <trkpt lat="46.49185" lon="5.38572">
        <ele>279.39999389648</ele>
        <time>2021-03-12T14:14:29.000Z</time>
      </trkpt>
      <trkpt lat="46.49183" lon="5.38564">
        <ele>279.39999389648</ele>
        <time>2021-03-12T14:14:30.000Z</time>
      </trkpt>
      <trkpt lat="46.49182" lon="5.38556">
        <ele>279.39999389648</ele>
        <time>2021-03-12T14:14:31.000Z</time>
      </trkpt>
      <trkpt lat="46.49177" lon="5.38537">
        <ele>279.39999389648</ele>
        <time>2021-03-12T14:14:33.000Z</time>
      </trkpt>
      <trkpt lat="46.49171" lon="5.38516">
        <ele>279.39999389648</ele>
        <time>2021-03-12T14:14:35.000Z</time>
      </trkpt>
      <trkpt lat="46.49164" lon="5.38495">
        <ele>279.20001220703</ele>
        <time>2021-03-12T14:14:37.000Z</time>
      </trkpt>
      <trkpt lat="46.49157" lon="5.38473">
        <ele>278.20001220703</ele>
        <time>2021-03-12T14:14:39.000Z</time>
      </trkpt>
      <trkpt lat="46.49153" lon="5.38461">
        <ele>277.60000610352</ele>
        <time>2021-03-12T14:14:40.000Z</time>
      </trkpt>
      <trkpt lat="46.4915" lon="5.3845">
        <ele>277</ele>
        <time>2021-03-12T14:14:41.000Z</time>
      </trkpt>
      <trkpt lat="46.49146" lon="5.38438">
        <ele>276.20001220703</ele>
        <time>2021-03-12T14:14:42.000Z</time>
      </trkpt>
      <trkpt lat="46.49142" lon="5.38426">
        <ele>275.79998779297</ele>
        <time>2021-03-12T14:14:43.000Z</time>
      </trkpt>
      <trkpt lat="46.49134" lon="5.38401">
        <ele>274.79998779297</ele>
        <time>2021-03-12T14:14:45.000Z</time>
      </trkpt>
      <trkpt lat="46.49127" lon="5.38377">
        <ele>273</ele>
        <time>2021-03-12T14:14:47.000Z</time>
      </trkpt>
      <trkpt lat="46.49123" lon="5.38365">
        <ele>272.39999389648</ele>
        <time>2021-03-12T14:14:48.000Z</time>
      </trkpt>
      <trkpt lat="46.49119" lon="5.38352">
        <ele>272</ele>
        <time>2021-03-12T14:14:49.000Z</time>
      </trkpt>
      <trkpt lat="46.49111" lon="5.38328">
        <ele>271.39999389648</ele>
        <time>2021-03-12T14:14:51.000Z</time>
      </trkpt>
      <trkpt lat="46.49107" lon="5.38315">
        <ele>271</ele>
        <time>2021-03-12T14:14:52.000Z</time>
      </trkpt>
      <trkpt lat="46.49103" lon="5.38303">
        <ele>270.60000610352</ele>
        <time>2021-03-12T14:14:53.000Z</time>
      </trkpt>
      <trkpt lat="46.49094" lon="5.38277">
        <ele>269.60000610352</ele>
        <time>2021-03-12T14:14:55.000Z</time>
      </trkpt>
      <trkpt lat="46.49086" lon="5.38251">
        <ele>268.79998779297</ele>
        <time>2021-03-12T14:14:57.000Z</time>
      </trkpt>
      <trkpt lat="46.49082" lon="5.38238">
        <ele>268.60000610352</ele>
        <time>2021-03-12T14:14:58.000Z</time>
      </trkpt>
      <trkpt lat="46.49078" lon="5.38225">
        <ele>268.39999389648</ele>
        <time>2021-03-12T14:14:59.000Z</time>
      </trkpt>
      <trkpt lat="46.4907" lon="5.38198">
        <ele>267.79998779297</ele>
        <time>2021-03-12T14:15:01.000Z</time>
      </trkpt>
      <trkpt lat="46.49066" lon="5.38185">
        <ele>267.20001220703</ele>
        <time>2021-03-12T14:15:02.000Z</time>
      </trkpt>
      <trkpt lat="46.49062" lon="5.38172">
        <ele>266.60000610352</ele>
        <time>2021-03-12T14:15:03.000Z</time>
      </trkpt>
      <trkpt lat="46.49058" lon="5.38158">
        <ele>265.79998779297</ele>
        <time>2021-03-12T14:15:04.000Z</time>
      </trkpt>
      <trkpt lat="46.49055" lon="5.38145">
        <ele>265.20001220703</ele>
        <time>2021-03-12T14:15:05.000Z</time>
      </trkpt>
      <trkpt lat="46.4905" lon="5.38132">
        <ele>264.79998779297</ele>
        <time>2021-03-12T14:15:06.000Z</time>
      </trkpt>
      <trkpt lat="46.49046" lon="5.38119">
        <ele>264.60000610352</ele>
        <time>2021-03-12T14:15:07.000Z</time>
      </trkpt>
      <trkpt lat="46.49037" lon="5.38094">
        <ele>263.60000610352</ele>
        <time>2021-03-12T14:15:09.000Z</time>
      </trkpt>
      <trkpt lat="46.49029" lon="5.38068">
        <ele>262.39999389648</ele>
        <time>2021-03-12T14:15:11.000Z</time>
      </trkpt>
      <trkpt lat="46.49025" lon="5.38055">
        <ele>261.79998779297</ele>
        <time>2021-03-12T14:15:12.000Z</time>
      </trkpt>
      <trkpt lat="46.49021" lon="5.38042">
        <ele>261.60000610352</ele>
        <time>2021-03-12T14:15:13.000Z</time>
      </trkpt>
      <trkpt lat="46.49013" lon="5.38016">
        <ele>261</ele>
        <time>2021-03-12T14:15:15.000Z</time>
      </trkpt>
      <trkpt lat="46.49006" lon="5.37991">
        <ele>260.39999389648</ele>
        <time>2021-03-12T14:15:17.000Z</time>
      </trkpt>
      <trkpt lat="46.49002" lon="5.37978">
        <ele>260</ele>
        <time>2021-03-12T14:15:18.000Z</time>
      </trkpt>
      <trkpt lat="46.48998" lon="5.37965">
        <ele>259.39999389648</ele>
        <time>2021-03-12T14:15:19.000Z</time>
      </trkpt>
      <trkpt lat="46.48991" lon="5.3794">
        <ele>258.39999389648</ele>
        <time>2021-03-12T14:15:21.000Z</time>
      </trkpt>
      <trkpt lat="46.48987" lon="5.37927">
        <ele>258.20001220703</ele>
        <time>2021-03-12T14:15:22.000Z</time>
      </trkpt>
      <trkpt lat="46.48983" lon="5.37915">
        <ele>258</ele>
        <time>2021-03-12T14:15:23.000Z</time>
      </trkpt>
      <trkpt lat="46.48976" lon="5.37891">
        <ele>257.39999389648</ele>
        <time>2021-03-12T14:15:25.000Z</time>
      </trkpt>
      <trkpt lat="46.48972" lon="5.37879">
        <ele>257.20001220703</ele>
        <time>2021-03-12T14:15:26.000Z</time>
      </trkpt>
      <trkpt lat="46.48969" lon="5.37867">
        <ele>257.20001220703</ele>
        <time>2021-03-12T14:15:27.000Z</time>
      </trkpt>
      <trkpt lat="46.48961" lon="5.37843">
        <ele>256.79998779297</ele>
        <time>2021-03-12T14:15:29.000Z</time>
      </trkpt>
      <trkpt lat="46.48954" lon="5.3782">
        <ele>256.39999389648</ele>
        <time>2021-03-12T14:15:31.000Z</time>
      </trkpt>
      <trkpt lat="46.48951" lon="5.37808">
        <ele>256.20001220703</ele>
        <time>2021-03-12T14:15:32.000Z</time>
      </trkpt>
      <trkpt lat="46.48947" lon="5.37797">
        <ele>256</ele>
        <time>2021-03-12T14:15:33.000Z</time>
      </trkpt>
      <trkpt lat="46.4894" lon="5.37775">
        <ele>255.60000610352</ele>
        <time>2021-03-12T14:15:35.000Z</time>
      </trkpt>
      <trkpt lat="46.48933" lon="5.37753">
        <ele>255.19999694824</ele>
        <time>2021-03-12T14:15:37.000Z</time>
      </trkpt>
      <trkpt lat="46.4893" lon="5.37742">
        <ele>255.19999694824</ele>
        <time>2021-03-12T14:15:38.000Z</time>
      </trkpt>
      <trkpt lat="46.48927" lon="5.37731">
        <ele>255</ele>
        <time>2021-03-12T14:15:39.000Z</time>
      </trkpt>
      <trkpt lat="46.4892" lon="5.3771">
        <ele>255</ele>
        <time>2021-03-12T14:15:41.000Z</time>
      </trkpt>
      <trkpt lat="46.48915" lon="5.37691">
        <ele>255</ele>
        <time>2021-03-12T14:15:43.000Z</time>
      </trkpt>
      <trkpt lat="46.48912" lon="5.37682">
        <ele>255</ele>
        <time>2021-03-12T14:15:44.000Z</time>
      </trkpt>
      <trkpt lat="46.4891" lon="5.37673">
        <ele>255</ele>
        <time>2021-03-12T14:15:45.000Z</time>
      </trkpt>
      <trkpt lat="46.48907" lon="5.37665">
        <ele>255</ele>
        <time>2021-03-12T14:15:46.000Z</time>
      </trkpt>
      <trkpt lat="46.48904" lon="5.37657">
        <ele>255</ele>
        <time>2021-03-12T14:15:47.000Z</time>
      </trkpt>
      <trkpt lat="46.48902" lon="5.3765">
        <ele>255.19999694824</ele>
        <time>2021-03-12T14:15:48.000Z</time>
      </trkpt>
      <trkpt lat="46.48899" lon="5.37641">
        <ele>255.19999694824</ele>
        <time>2021-03-12T14:15:49.000Z</time>
      </trkpt>
      <trkpt lat="46.48891" lon="5.3763">
        <ele>255.80000305176</ele>
        <time>2021-03-12T14:15:51.000Z</time>
      </trkpt>
      <trkpt lat="46.48879" lon="5.37628">
        <ele>256.39999389648</ele>
        <time>2021-03-12T14:15:53.000Z</time>
      </trkpt>
      <trkpt lat="46.48874" lon="5.37628">
        <ele>257</ele>
        <time>2021-03-12T14:15:54.000Z</time>
      </trkpt>
      <trkpt lat="46.4887" lon="5.37626">
        <ele>257.20001220703</ele>
        <time>2021-03-12T14:15:55.000Z</time>
      </trkpt>
      <trkpt lat="46.48866" lon="5.37621">
        <ele>257.39999389648</ele>
        <time>2021-03-12T14:15:56.000Z</time>
      </trkpt>
      <trkpt lat="46.48864" lon="5.37616">
        <ele>257.60000610352</ele>
        <time>2021-03-12T14:15:57.000Z</time>
      </trkpt>
      <trkpt lat="46.48862" lon="5.37603">
        <ele>257.79998779297</ele>
        <time>2021-03-12T14:15:59.000Z</time>
      </trkpt>
      <trkpt lat="46.48859" lon="5.37589">
        <ele>257.79998779297</ele>
        <time>2021-03-12T14:16:01.000Z</time>
      </trkpt>
      <trkpt lat="46.48856" lon="5.37575">
        <ele>258.60000610352</ele>
        <time>2021-03-12T14:16:03.000Z</time>
      </trkpt>
      <trkpt lat="46.48851" lon="5.37561">
        <ele>259.20001220703</ele>
        <time>2021-03-12T14:16:05.000Z</time>
      </trkpt>
      <trkpt lat="46.48848" lon="5.37554">
        <ele>259.60000610352</ele>
        <time>2021-03-12T14:16:06.000Z</time>
      </trkpt>
      <trkpt lat="46.48846" lon="5.37548">
        <ele>260</ele>
        <time>2021-03-12T14:16:07.000Z</time>
      </trkpt>
      <trkpt lat="46.4884" lon="5.37534">
        <ele>260.39999389648</ele>
        <time>2021-03-12T14:16:09.000Z</time>
      </trkpt>
      <trkpt lat="46.48834" lon="5.37523">
        <ele>260.60000610352</ele>
        <time>2021-03-12T14:16:11.000Z</time>
      </trkpt>
      <trkpt lat="46.48827" lon="5.37512">
        <ele>260.79998779297</ele>
        <time>2021-03-12T14:16:13.000Z</time>
      </trkpt>
      <trkpt lat="46.4882" lon="5.37503">
        <ele>261</ele>
        <time>2021-03-12T14:16:15.000Z</time>
      </trkpt>
      <trkpt lat="46.48813" lon="5.37493">
        <ele>261</ele>
        <time>2021-03-12T14:16:17.000Z</time>
      </trkpt>
      <trkpt lat="46.48807" lon="5.37483">
        <ele>261.20001220703</ele>
        <time>2021-03-12T14:16:19.000Z</time>
      </trkpt>
      <trkpt lat="46.488" lon="5.37473">
        <ele>261.60000610352</ele>
        <time>2021-03-12T14:16:21.000Z</time>
      </trkpt>
      <trkpt lat="46.48796" lon="5.37468">
        <ele>261.79998779297</ele>
        <time>2021-03-12T14:16:22.000Z</time>
      </trkpt>
      <trkpt lat="46.48792" lon="5.37463">
        <ele>261.79998779297</ele>
        <time>2021-03-12T14:16:23.000Z</time>
      </trkpt>
      <trkpt lat="46.48784" lon="5.37452">
        <ele>262.39999389648</ele>
        <time>2021-03-12T14:16:25.000Z</time>
      </trkpt>
      <trkpt lat="46.48776" lon="5.37441">
        <ele>262.60000610352</ele>
        <time>2021-03-12T14:16:27.000Z</time>
      </trkpt>
      <trkpt lat="46.48767" lon="5.37428">
        <ele>262.60000610352</ele>
        <time>2021-03-12T14:16:29.000Z</time>
      </trkpt>
      <trkpt lat="46.48758" lon="5.37414">
        <ele>262.60000610352</ele>
        <time>2021-03-12T14:16:31.000Z</time>
      </trkpt>
      <trkpt lat="46.48748" lon="5.374">
        <ele>262.60000610352</ele>
        <time>2021-03-12T14:16:33.000Z</time>
      </trkpt>
      <trkpt lat="46.48739" lon="5.37385">
        <ele>262.39999389648</ele>
        <time>2021-03-12T14:16:35.000Z</time>
      </trkpt>
      <trkpt lat="46.48729" lon="5.37371">
        <ele>262</ele>
        <time>2021-03-12T14:16:37.000Z</time>
      </trkpt>
      <trkpt lat="46.48719" lon="5.37357">
        <ele>261.20001220703</ele>
        <time>2021-03-12T14:16:39.000Z</time>
      </trkpt>
      <trkpt lat="46.48714" lon="5.3735">
        <ele>260.79998779297</ele>
        <time>2021-03-12T14:16:40.000Z</time>
      </trkpt>
      <trkpt lat="46.48709" lon="5.37343">
        <ele>260.60000610352</ele>
        <time>2021-03-12T14:16:41.000Z</time>
      </trkpt>
      <trkpt lat="46.48699" lon="5.37329">
        <ele>260.39999389648</ele>
        <time>2021-03-12T14:16:43.000Z</time>
      </trkpt>
      <trkpt lat="46.48689" lon="5.37316">
        <ele>260.39999389648</ele>
        <time>2021-03-12T14:16:45.000Z</time>
      </trkpt>
      <trkpt lat="46.4868" lon="5.37303">
        <ele>259.79998779297</ele>
        <time>2021-03-12T14:16:47.000Z</time>
      </trkpt>
      <trkpt lat="46.48675" lon="5.37296">
        <ele>259.39999389648</ele>
        <time>2021-03-12T14:16:48.000Z</time>
      </trkpt>
      <trkpt lat="46.4867" lon="5.3729">
        <ele>259.20001220703</ele>
        <time>2021-03-12T14:16:49.000Z</time>
      </trkpt>
      <trkpt lat="46.48662" lon="5.37278">
        <ele>259</ele>
        <time>2021-03-12T14:16:51.000Z</time>
      </trkpt>
      <trkpt lat="46.48653" lon="5.37268">
        <ele>259</ele>
        <time>2021-03-12T14:16:53.000Z</time>
      </trkpt>
      <trkpt lat="46.48649" lon="5.37262">
        <ele>259</ele>
        <time>2021-03-12T14:16:54.000Z</time>
      </trkpt>
      <trkpt lat="46.48645" lon="5.37257">
        <ele>259</ele>
        <time>2021-03-12T14:16:55.000Z</time>
      </trkpt>
      <trkpt lat="46.48637" lon="5.37247">
        <ele>259</ele>
        <time>2021-03-12T14:16:57.000Z</time>
      </trkpt>
    </trkseg>
  </trk>
</gpx>